<?xml version='1.0' encoding='UTF-8'?><gpx version="1.1" creator="JPX - https://github.com/jenetics/jpx" xmlns="http://www.topografix.com/GPX/1/1"><trk><trkseg><trkpt lat="38.3626597" lon="16.485778"><ele>15.0</ele><time>2026-05-03T06:46:57.612Z</time></trkpt><trkpt lat="38.362589699999994" lon="16.485766299999998"><ele>15.0</ele><time>2026-05-03T06:47:04.602Z</time></trkpt><trkpt lat="38.362517800000006" lon="16.4857388"><ele>15.0</ele><time>2026-05-03T06:47:11.731Z</time></trkpt><trkpt lat="38.3625096" lon="16.485656900000002"><ele>15.0</ele><time>2026-05-03T06:47:14.431Z</time></trkpt><trkpt lat="38.36253070000001" lon="16.485549399999996"><ele>15.0</ele><time>2026-05-03T06:47:17.326Z</time></trkpt><trkpt lat="38.36252" lon="16.485469799999997"><ele>15.0</ele><time>2026-05-03T06:47:22.329Z</time></trkpt><trkpt lat="38.36268826359176" lon="16.485503920437953"><ele>15.0</ele><time>2026-05-03T06:47:52Z</time></trkpt><trkpt lat="38.3625152" lon="16.4854571"><ele>15.0</ele><time>2026-05-03T06:48:41.329Z</time></trkpt><trkpt lat="38.362512699999996" lon="16.485371100000002"><ele>15.0</ele><time>2026-05-03T06:48:51.328Z</time></trkpt><trkpt lat="38.3625452" lon="16.4852821"><ele>15.0</ele><time>2026-05-03T06:49:07.332Z</time></trkpt><trkpt lat="38.3625002" lon="16.485207300000003"><ele>15.0</ele><time>2026-05-03T06:49:12.329Z</time></trkpt><trkpt lat="38.362407100000006" lon="16.4852129"><ele>15.5</ele><time>2026-05-03T06:49:14.329Z</time></trkpt><trkpt lat="38.36234410000001" lon="16.485227899999998"><ele>16.0</ele><time>2026-05-03T06:49:15.331Z</time></trkpt><trkpt lat="38.3622693" lon="16.4852444"><ele>16.5</ele><time>2026-05-03T06:49:16.334Z</time></trkpt><trkpt lat="38.362184600000006" lon="16.485260699999998"><ele>17.0</ele><time>2026-05-03T06:49:17.327Z</time></trkpt><trkpt lat="38.362089000000005" lon="16.4852755"><ele>17.5</ele><time>2026-05-03T06:49:18.329Z</time></trkpt><trkpt lat="38.36198520000001" lon="16.4852882"><ele>18.0</ele><time>2026-05-03T06:49:19.332Z</time></trkpt><trkpt lat="38.36187590000001" lon="16.485300099999996"><ele>18.0</ele><time>2026-05-03T06:49:20.329Z</time></trkpt><trkpt lat="38.36175789999999" lon="16.4853113"><ele>18.0</ele><time>2026-05-03T06:49:21.332Z</time></trkpt><trkpt lat="38.36163270000001" lon="16.4853225"><ele>18.0</ele><time>2026-05-03T06:49:22.334Z</time></trkpt><trkpt lat="38.36150179999999" lon="16.485331900000002"><ele>18.0</ele><time>2026-05-03T06:49:23.327Z</time></trkpt><trkpt lat="38.3613647" lon="16.4853408"><ele>18.5</ele><time>2026-05-03T06:49:24.329Z</time></trkpt><trkpt lat="38.361221300000004" lon="16.485350000000004"><ele>19.0</ele><time>2026-05-03T06:49:25.331Z</time></trkpt><trkpt lat="38.361073" lon="16.4853607"><ele>19.5</ele><time>2026-05-03T06:49:26.329Z</time></trkpt><trkpt lat="38.3609186" lon="16.4853716"><ele>20.0</ele><time>2026-05-03T06:49:27.331Z</time></trkpt><trkpt lat="38.360760199999994" lon="16.4853838"><ele>20.0</ele><time>2026-05-03T06:49:28.334Z</time></trkpt><trkpt lat="38.3605977" lon="16.485395999999998"><ele>20.0</ele><time>2026-05-03T06:49:29.332Z</time></trkpt><trkpt lat="38.3604329" lon="16.485408500000002"><ele>20.0</ele><time>2026-05-03T06:49:30.328Z</time></trkpt><trkpt lat="38.3602691" lon="16.4854225"><ele>18.333333333333336</ele><time>2026-05-03T06:49:31.333Z</time></trkpt><trkpt lat="38.360104799999995" lon="16.4854375"><ele>16.666666666666668</ele><time>2026-05-03T06:49:32.328Z</time></trkpt><trkpt lat="38.3599398" lon="16.485452000000002"><ele>15.0</ele><time>2026-05-03T06:49:33.331Z</time></trkpt><trkpt lat="38.3597745" lon="16.485464200000003"><ele>15.0</ele><time>2026-05-03T06:49:34.333Z</time></trkpt><trkpt lat="38.359608200000004" lon="16.485476100000003"><ele>15.0</ele><time>2026-05-03T06:49:35.331Z</time></trkpt><trkpt lat="38.3594411" lon="16.4854891"><ele>15.0</ele><time>2026-05-03T06:49:36.328Z</time></trkpt><trkpt lat="38.359271199999995" lon="16.4855023"><ele>15.0</ele><time>2026-05-03T06:49:37.331Z</time></trkpt><trkpt lat="38.3591003" lon="16.4855155"><ele>15.0</ele><time>2026-05-03T06:49:38.328Z</time></trkpt><trkpt lat="38.3589269" lon="16.4855295"><ele>15.0</ele><time>2026-05-03T06:49:39.331Z</time></trkpt><trkpt lat="38.3587516" lon="16.4855433"><ele>14.333333333333332</ele><time>2026-05-03T06:49:40.335Z</time></trkpt><trkpt lat="38.3585777" lon="16.485556999999996"><ele>13.666666666666666</ele><time>2026-05-03T06:49:41.332Z</time></trkpt><trkpt lat="38.358402999999996" lon="16.485571"><ele>13.0</ele><time>2026-05-03T06:49:42.333Z</time></trkpt><trkpt lat="38.358229" lon="16.485584"><ele>13.0</ele><time>2026-05-03T06:49:43.331Z</time></trkpt><trkpt lat="38.358059600000004" lon="16.4855951"><ele>13.0</ele><time>2026-05-03T06:49:44.329Z</time></trkpt><trkpt lat="38.3578933" lon="16.4856061"><ele>13.0</ele><time>2026-05-03T06:49:45.33Z</time></trkpt><trkpt lat="38.3577354" lon="16.485619"><ele>12.25</ele><time>2026-05-03T06:49:46.333Z</time></trkpt><trkpt lat="38.357586100000006" lon="16.4856335"><ele>11.5</ele><time>2026-05-03T06:49:47.331Z</time></trkpt><trkpt lat="38.35744729999999" lon="16.4856508"><ele>10.75</ele><time>2026-05-03T06:49:48.332Z</time></trkpt><trkpt lat="38.357319100000005" lon="16.4856658"><ele>10.0</ele><time>2026-05-03T06:49:49.335Z</time></trkpt><trkpt lat="38.357198646266205" lon="16.485694575250697"><ele>10.0</ele><time>2026-05-03T06:49:50.328Z</time></trkpt><trkpt lat="38.3571016" lon="16.4856671"><ele>10.0</ele><time>2026-05-03T06:49:51.33Z</time></trkpt><trkpt lat="38.357018000000004" lon="16.4856435"><ele>10.0</ele><time>2026-05-03T06:49:52.333Z</time></trkpt><trkpt lat="38.3569549" lon="16.4856051"><ele>10.0</ele><time>2026-05-03T06:49:53.332Z</time></trkpt><trkpt lat="38.3568977" lon="16.485556000000003"><ele>10.0</ele><time>2026-05-03T06:49:54.333Z</time></trkpt><trkpt lat="38.3568448" lon="16.485493899999998"><ele>10.0</ele><time>2026-05-03T06:49:55.336Z</time></trkpt><trkpt lat="38.3567929" lon="16.4854212"><ele>10.2</ele><time>2026-05-03T06:49:56.328Z</time></trkpt><trkpt lat="38.356737700000004" lon="16.4853401"><ele>10.4</ele><time>2026-05-03T06:49:57.331Z</time></trkpt><trkpt lat="38.356678" lon="16.4852511"><ele>10.600000000000001</ele><time>2026-05-03T06:49:58.333Z</time></trkpt><trkpt lat="38.3566126" lon="16.4851542"><ele>10.8</ele><time>2026-05-03T06:49:59.331Z</time></trkpt><trkpt lat="38.3565432" lon="16.485051900000002"><ele>11.0</ele><time>2026-05-03T06:50:00.333Z</time></trkpt><trkpt lat="38.356469399999995" lon="16.4849451"><ele>11.0</ele><time>2026-05-03T06:50:01.337Z</time></trkpt><trkpt lat="38.356391599999995" lon="16.484832700000002"><ele>11.0</ele><time>2026-05-03T06:50:02.328Z</time></trkpt><trkpt lat="38.3563092" lon="16.484714699999998"><ele>11.0</ele><time>2026-05-03T06:50:03.331Z</time></trkpt><trkpt lat="38.356223" lon="16.4845914"><ele>11.0</ele><time>2026-05-03T06:50:04.334Z</time></trkpt><trkpt lat="38.35613549999999" lon="16.484464199999998"><ele>10.25</ele><time>2026-05-03T06:50:05.328Z</time></trkpt><trkpt lat="38.356044" lon="16.4843317"><ele>9.5</ele><time>2026-05-03T06:50:06.331Z</time></trkpt><trkpt lat="38.3559488" lon="16.484193599999998"><ele>8.75</ele><time>2026-05-03T06:50:07.335Z</time></trkpt><trkpt lat="38.3558514" lon="16.4840515"><ele>8.0</ele><time>2026-05-03T06:50:08.327Z</time></trkpt><trkpt lat="38.3557505" lon="16.4839065"><ele>8.333333333333332</ele><time>2026-05-03T06:50:09.329Z</time></trkpt><trkpt lat="38.3556457" lon="16.483758"><ele>8.666666666666666</ele><time>2026-05-03T06:50:10.333Z</time></trkpt><trkpt lat="38.355537899999995" lon="16.4836079"><ele>9.0</ele><time>2026-05-03T06:50:11.33Z</time></trkpt><trkpt lat="38.3554272" lon="16.483455900000003"><ele>9.0</ele><time>2026-05-03T06:50:12.332Z</time></trkpt><trkpt lat="38.355312299999994" lon="16.483299199999998"><ele>9.0</ele><time>2026-05-03T06:50:13.335Z</time></trkpt><trkpt lat="38.355195099999996" lon="16.4831405"><ele>9.0</ele><time>2026-05-03T06:50:14.333Z</time></trkpt><trkpt lat="38.3550722" lon="16.4829772"><ele>9.666666666666666</ele><time>2026-05-03T06:50:15.329Z</time></trkpt><trkpt lat="38.3549471" lon="16.4828142"><ele>10.333333333333332</ele><time>2026-05-03T06:50:16.334Z</time></trkpt><trkpt lat="38.3548171" lon="16.482646900000002"><ele>11.0</ele><time>2026-05-03T06:50:17.329Z</time></trkpt><trkpt lat="38.3546847" lon="16.4824762"><ele>10.666666666666666</ele><time>2026-05-03T06:50:18.332Z</time></trkpt><trkpt lat="38.3545499" lon="16.4823013"><ele>10.333333333333334</ele><time>2026-05-03T06:50:19.336Z</time></trkpt><trkpt lat="38.354413599999994" lon="16.482121"><ele>10.0</ele><time>2026-05-03T06:50:20.332Z</time></trkpt><trkpt lat="38.354276500000005" lon="16.4819363"><ele>10.0</ele><time>2026-05-03T06:50:21.335Z</time></trkpt><trkpt lat="38.3541392" lon="16.4817456"><ele>10.0</ele><time>2026-05-03T06:50:22.332Z</time></trkpt><trkpt lat="38.3540023" lon="16.4815503"><ele>10.0</ele><time>2026-05-03T06:50:23.329Z</time></trkpt><trkpt lat="38.3538663" lon="16.4813509"><ele>9.333333333333334</ele><time>2026-05-03T06:50:24.331Z</time></trkpt><trkpt lat="38.353727899999996" lon="16.481148"><ele>8.666666666666666</ele><time>2026-05-03T06:50:25.335Z</time></trkpt><trkpt lat="38.3535881" lon="16.480945000000002"><ele>8.0</ele><time>2026-05-03T06:50:26.331Z</time></trkpt><trkpt lat="38.3534449" lon="16.4807395"><ele>8.0</ele><time>2026-05-03T06:50:27.334Z</time></trkpt><trkpt lat="38.3533004" lon="16.480533"><ele>8.0</ele><time>2026-05-03T06:50:28.337Z</time></trkpt><trkpt lat="38.353154499999995" lon="16.4803237"><ele>8.0</ele><time>2026-05-03T06:50:29.329Z</time></trkpt><trkpt lat="38.3530067" lon="16.480112899999998"><ele>8.0</ele><time>2026-05-03T06:50:30.331Z</time></trkpt><trkpt lat="38.35286" lon="16.4799006"><ele>8.0</ele><time>2026-05-03T06:50:31.334Z</time></trkpt><trkpt lat="38.3527132" lon="16.4796887"><ele>8.0</ele><time>2026-05-03T06:50:32.331Z</time></trkpt><trkpt lat="38.3525644" lon="16.4794756"><ele>8.0</ele><time>2026-05-03T06:50:33.334Z</time></trkpt><trkpt lat="38.352415400000005" lon="16.4792633"><ele>8.0</ele><time>2026-05-03T06:50:34.337Z</time></trkpt><trkpt lat="38.3522669" lon="16.4790509"><ele>8.0</ele><time>2026-05-03T06:50:35.329Z</time></trkpt><trkpt lat="38.352118899999994" lon="16.478838800000002"><ele>8.0</ele><time>2026-05-03T06:50:36.331Z</time></trkpt><trkpt lat="38.3519709" lon="16.478625700000002"><ele>8.0</ele><time>2026-05-03T06:50:37.334Z</time></trkpt><trkpt lat="38.3518239" lon="16.4784116"><ele>8.0</ele><time>2026-05-03T06:50:38.331Z</time></trkpt><trkpt lat="38.35167740000001" lon="16.4781984"><ele>8.0</ele><time>2026-05-03T06:50:39.334Z</time></trkpt><trkpt lat="38.351532199999994" lon="16.4779861"><ele>8.0</ele><time>2026-05-03T06:50:40.336Z</time></trkpt><trkpt lat="38.35138669999999" lon="16.4777725"><ele>8.0</ele><time>2026-05-03T06:50:41.329Z</time></trkpt><trkpt lat="38.3512428" lon="16.4775609"><ele>8.0</ele><time>2026-05-03T06:50:42.331Z</time></trkpt><trkpt lat="38.351097100000004" lon="16.4773478"><ele>8.0</ele><time>2026-05-03T06:50:43.333Z</time></trkpt><trkpt lat="38.3509508" lon="16.477136700000003"><ele>8.0</ele><time>2026-05-03T06:50:44.332Z</time></trkpt><trkpt lat="38.3508049" lon="16.476927899999996"><ele>8.666666666666666</ele><time>2026-05-03T06:50:45.335Z</time></trkpt><trkpt lat="38.3506568" lon="16.4767196"><ele>9.333333333333334</ele><time>2026-05-03T06:50:46.336Z</time></trkpt><trkpt lat="38.3505091" lon="16.4765113"><ele>10.0</ele><time>2026-05-03T06:50:47.335Z</time></trkpt><trkpt lat="38.3503618" lon="16.476303299999998"><ele>9.0</ele><time>2026-05-03T06:50:48.332Z</time></trkpt><trkpt lat="38.3502148" lon="16.4760955"><ele>8.0</ele><time>2026-05-03T06:50:49.334Z</time></trkpt><trkpt lat="38.3500694" lon="16.4758888"><ele>7.0</ele><time>2026-05-03T06:50:50.332Z</time></trkpt><trkpt lat="38.34993751443149" lon="16.47566664757951"><ele>7.0</ele><time>2026-05-03T06:50:51.334Z</time></trkpt><trkpt lat="38.34979353361844" lon="16.47546073870898"><ele>7.0</ele><time>2026-05-03T06:50:52.335Z</time></trkpt><trkpt lat="38.34964988635618" lon="16.475255306896685"><ele>7.0</ele><time>2026-05-03T06:50:53.337Z</time></trkpt><trkpt lat="38.3494972" lon="16.4750617"><ele>7.666666666666667</ele><time>2026-05-03T06:50:54.331Z</time></trkpt><trkpt lat="38.34937244393852" lon="16.474841215453907"><ele>8.333333333333334</ele><time>2026-05-03T06:50:55.335Z</time></trkpt><trkpt lat="38.3492207" lon="16.474652"><ele>9.0</ele><time>2026-05-03T06:50:56.331Z</time></trkpt><trkpt lat="38.3490814" lon="16.474448900000002"><ele>9.666666666666666</ele><time>2026-05-03T06:50:57.334Z</time></trkpt><trkpt lat="38.348942" lon="16.4742467"><ele>10.333333333333332</ele><time>2026-05-03T06:50:58.337Z</time></trkpt><trkpt lat="38.348802400000004" lon="16.474044499999998"><ele>11.0</ele><time>2026-05-03T06:50:59.336Z</time></trkpt><trkpt lat="38.34866280000001" lon="16.4738426"><ele>10.333333333333332</ele><time>2026-05-03T06:51:00.335Z</time></trkpt><trkpt lat="38.348523199999995" lon="16.4736406"><ele>9.666666666666666</ele><time>2026-05-03T06:51:01.333Z</time></trkpt><trkpt lat="38.3483843" lon="16.4734385"><ele>9.0</ele><time>2026-05-03T06:51:02.331Z</time></trkpt><trkpt lat="38.3482482" lon="16.4732386"><ele>9.0</ele><time>2026-05-03T06:51:03.335Z</time></trkpt><trkpt lat="38.3481086" lon="16.4730341"><ele>9.0</ele><time>2026-05-03T06:51:04.336Z</time></trkpt><trkpt lat="38.347969500000005" lon="16.4728342"><ele>9.0</ele><time>2026-05-03T06:51:05.335Z</time></trkpt><trkpt lat="38.347827599999995" lon="16.4726369"><ele>8.666666666666666</ele><time>2026-05-03T06:51:06.34Z</time></trkpt><trkpt lat="38.34769921380554" lon="16.472423173818708"><ele>8.333333333333332</ele><time>2026-05-03T06:51:07.341Z</time></trkpt><trkpt lat="38.3475622177465" lon="16.47222407237704"><ele>8.0</ele><time>2026-05-03T06:51:08.33Z</time></trkpt><trkpt lat="38.347423217335" lon="16.472022038601843"><ele>8.0</ele><time>2026-05-03T06:51:09.335Z</time></trkpt><trkpt lat="38.3472858427888" lon="16.471822698169117"><ele>8.0</ele><time>2026-05-03T06:51:10.335Z</time></trkpt><trkpt lat="38.34714817465233" lon="16.471623967884597"><ele>8.0</ele><time>2026-05-03T06:51:11.333Z</time></trkpt><trkpt lat="38.34701107614976" lon="16.471426059872698"><ele>9.0</ele><time>2026-05-03T06:51:12.335Z</time></trkpt><trkpt lat="38.34687304535465" lon="16.47123111205111"><ele>10.0</ele><time>2026-05-03T06:51:13.338Z</time></trkpt><trkpt lat="38.346724699999996" lon="16.471049400000002"><ele>11.0</ele><time>2026-05-03T06:51:14.33Z</time></trkpt><trkpt lat="38.3465916" lon="16.4708572"><ele>11.0</ele><time>2026-05-03T06:51:15.335Z</time></trkpt><trkpt lat="38.34647469478695" lon="16.47065421084225"><ele>11.0</ele><time>2026-05-03T06:51:16.334Z</time></trkpt><trkpt lat="38.3463345" lon="16.4704833"><ele>11.0</ele><time>2026-05-03T06:51:17.332Z</time></trkpt><trkpt lat="38.3462099" lon="16.470300799999997"><ele>10.666666666666666</ele><time>2026-05-03T06:51:18.335Z</time></trkpt><trkpt lat="38.346088099999996" lon="16.4701207"><ele>10.333333333333334</ele><time>2026-05-03T06:51:19.337Z</time></trkpt><trkpt lat="38.34596930000001" lon="16.4699457"><ele>10.0</ele><time>2026-05-03T06:51:20.33Z</time></trkpt><trkpt lat="38.34585129999999" lon="16.469772799999998"><ele>10.333333333333334</ele><time>2026-05-03T06:51:21.334Z</time></trkpt><trkpt lat="38.3457364" lon="16.4696057"><ele>10.666666666666666</ele><time>2026-05-03T06:51:22.336Z</time></trkpt><trkpt lat="38.345621900000005" lon="16.4694407"><ele>11.0</ele><time>2026-05-03T06:51:23.334Z</time></trkpt><trkpt lat="38.3455106" lon="16.4692787"><ele>10.333333333333332</ele><time>2026-05-03T06:51:24.335Z</time></trkpt><trkpt lat="38.345402199999995" lon="16.469119"><ele>9.666666666666666</ele><time>2026-05-03T06:51:25.339Z</time></trkpt><trkpt lat="38.3452992" lon="16.4689631"><ele>9.0</ele><time>2026-05-03T06:51:26.33Z</time></trkpt><trkpt lat="38.345203100000006" lon="16.46881"><ele>9.25</ele><time>2026-05-03T06:51:27.332Z</time></trkpt><trkpt lat="38.3451151" lon="16.4686609"><ele>9.5</ele><time>2026-05-03T06:51:28.334Z</time></trkpt><trkpt lat="38.34503469999999" lon="16.468520100000003"><ele>9.75</ele><time>2026-05-03T06:51:29.334Z</time></trkpt><trkpt lat="38.34496119999999" lon="16.4683865"><ele>10.0</ele><time>2026-05-03T06:51:30.334Z</time></trkpt><trkpt lat="38.34489790000001" lon="16.4682568"><ele>10.0</ele><time>2026-05-03T06:51:31.337Z</time></trkpt><trkpt lat="38.3448539" lon="16.468127900000002"><ele>10.0</ele><time>2026-05-03T06:51:32.334Z</time></trkpt><trkpt lat="38.344829" lon="16.468003"><ele>10.0</ele><time>2026-05-03T06:51:33.332Z</time></trkpt><trkpt lat="38.3448257" lon="16.467890599999997"><ele>10.0</ele><time>2026-05-03T06:51:34.334Z</time></trkpt><trkpt lat="38.344832800000006" lon="16.467793500000003"><ele>10.0</ele><time>2026-05-03T06:51:35.331Z</time></trkpt><trkpt lat="38.344827" lon="16.467708799999997"><ele>10.0</ele><time>2026-05-03T06:51:36.335Z</time></trkpt><trkpt lat="38.34474970000001" lon="16.4675971"><ele>9.6</ele><time>2026-05-03T06:51:38.334Z</time></trkpt><trkpt lat="38.34462860000001" lon="16.467524700000002"><ele>9.2</ele><time>2026-05-03T06:51:40.339Z</time></trkpt><trkpt lat="38.344566" lon="16.4674639"><ele>8.8</ele><time>2026-05-03T06:51:41.331Z</time></trkpt><trkpt lat="38.3445065" lon="16.467389400000002"><ele>8.4</ele><time>2026-05-03T06:51:42.333Z</time></trkpt><trkpt lat="38.34444800000001" lon="16.4673044"><ele>8.0</ele><time>2026-05-03T06:51:43.338Z</time></trkpt><trkpt lat="38.3443908" lon="16.4672131"><ele>8.0</ele><time>2026-05-03T06:51:44.335Z</time></trkpt><trkpt lat="38.3443349" lon="16.4671183"><ele>8.0</ele><time>2026-05-03T06:51:45.337Z</time></trkpt><trkpt lat="38.3442794" lon="16.467024900000002"><ele>8.0</ele><time>2026-05-03T06:51:46.339Z</time></trkpt><trkpt lat="38.3442202" lon="16.4669352"><ele>8.0</ele><time>2026-05-03T06:51:47.332Z</time></trkpt><trkpt lat="38.344158900000004" lon="16.466852300000003"><ele>8.0</ele><time>2026-05-03T06:51:48.333Z</time></trkpt><trkpt lat="38.344097899999994" lon="16.466776"><ele>8.166666666666666</ele><time>2026-05-03T06:51:49.337Z</time></trkpt><trkpt lat="38.344035500000004" lon="16.466704"><ele>8.333333333333332</ele><time>2026-05-03T06:51:50.334Z</time></trkpt><trkpt lat="38.343975500000006" lon="16.466636400000002"><ele>8.5</ele><time>2026-05-03T06:51:51.337Z</time></trkpt><trkpt lat="38.343918300000006" lon="16.466570200000003"><ele>8.666666666666666</ele><time>2026-05-03T06:51:52.339Z</time></trkpt><trkpt lat="38.343860299999996" lon="16.4665089"><ele>8.833333333333334</ele><time>2026-05-03T06:51:53.329Z</time></trkpt><trkpt lat="38.3438021" lon="16.4664517"><ele>9.0</ele><time>2026-05-03T06:51:54.333Z</time></trkpt><trkpt lat="38.343743800000006" lon="16.4663887"><ele>9.0</ele><time>2026-05-03T06:51:55.337Z</time></trkpt><trkpt lat="38.343684100000004" lon="16.466319"><ele>9.0</ele><time>2026-05-03T06:51:56.335Z</time></trkpt><trkpt lat="38.3436215" lon="16.4662439"><ele>9.0</ele><time>2026-05-03T06:51:57.336Z</time></trkpt><trkpt lat="38.343557200000006" lon="16.4661628"><ele>9.0</ele><time>2026-05-03T06:51:58.34Z</time></trkpt><trkpt lat="38.3434944" lon="16.4660769"><ele>9.0</ele><time>2026-05-03T06:51:59.33Z</time></trkpt><trkpt lat="38.3434331" lon="16.4659845"><ele>9.0</ele><time>2026-05-03T06:52:00.334Z</time></trkpt><trkpt lat="38.3433751" lon="16.465885399999998"><ele>8.8</ele><time>2026-05-03T06:52:01.337Z</time></trkpt><trkpt lat="38.3433212" lon="16.4657811"><ele>8.600000000000001</ele><time>2026-05-03T06:52:02.333Z</time></trkpt><trkpt lat="38.3432683" lon="16.4656697"><ele>8.4</ele><time>2026-05-03T06:52:03.336Z</time></trkpt><trkpt lat="38.3432146" lon="16.4655494"><ele>8.200000000000001</ele><time>2026-05-03T06:52:04.338Z</time></trkpt><trkpt lat="38.34316199999999" lon="16.4654248"><ele>8.0</ele><time>2026-05-03T06:52:05.335Z</time></trkpt><trkpt lat="38.343109299999995" lon="16.4652964"><ele>7.75</ele><time>2026-05-03T06:52:06.333Z</time></trkpt><trkpt lat="38.34305820000001" lon="16.4651659"><ele>7.5</ele><time>2026-05-03T06:52:07.335Z</time></trkpt><trkpt lat="38.3430076" lon="16.4650355"><ele>7.25</ele><time>2026-05-03T06:52:08.333Z</time></trkpt><trkpt lat="38.3429565" lon="16.4649073"><ele>7.0</ele><time>2026-05-03T06:52:09.334Z</time></trkpt><trkpt lat="38.3429054" lon="16.4647814"><ele>7.0</ele><time>2026-05-03T06:52:10.338Z</time></trkpt><trkpt lat="38.3428545" lon="16.4646553"><ele>6.999999999999999</ele><time>2026-05-03T06:52:11.336Z</time></trkpt><trkpt lat="38.3428047" lon="16.4645319"><ele>6.999999999999999</ele><time>2026-05-03T06:52:12.338Z</time></trkpt><trkpt lat="38.3427597" lon="16.4644182"><ele>7.0</ele><time>2026-05-03T06:52:13.341Z</time></trkpt><trkpt lat="38.3427182" lon="16.464313699999998"><ele>7.0</ele><time>2026-05-03T06:52:14.333Z</time></trkpt><trkpt lat="38.3426856" lon="16.4642288"><ele>7.000000000000001</ele><time>2026-05-03T06:52:15.335Z</time></trkpt><trkpt lat="38.3426615" lon="16.4641026"><ele>7.0</ele><time>2026-05-03T06:52:17.336Z</time></trkpt><trkpt lat="38.3427151686237" lon="16.464060324851992"><ele>7.0</ele><time>2026-05-03T06:52:19.34Z</time></trkpt><trkpt lat="38.34277279684276" lon="16.464023806714547"><ele>7.0</ele><time>2026-05-03T06:52:21.337Z</time></trkpt><trkpt lat="38.34284825347452" lon="16.463976230088086"><ele>7.000000000000001</ele><time>2026-05-03T06:52:23.335Z</time></trkpt><trkpt lat="38.34294926058817" lon="16.463912833596353"><ele>7.0</ele><time>2026-05-03T06:52:25.343Z</time></trkpt><trkpt lat="38.34301134989743" lon="16.4638732054906"><ele>7.0</ele><time>2026-05-03T06:52:26.332Z</time></trkpt><trkpt lat="38.34307559847079" lon="16.46383221204193"><ele>7.0</ele><time>2026-05-03T06:52:27.334Z</time></trkpt><trkpt lat="38.34314443474672" lon="16.463788292915474"><ele>7.0</ele><time>2026-05-03T06:52:28.338Z</time></trkpt><trkpt lat="38.343207" lon="16.463727799999997"><ele>7.0</ele><time>2026-05-03T06:52:29.335Z</time></trkpt><trkpt lat="38.3432749" lon="16.463689900000002"><ele>7.0</ele><time>2026-05-03T06:52:30.337Z</time></trkpt><trkpt lat="38.343343689540426" lon="16.463677136768"><ele>7.0</ele><time>2026-05-03T06:52:31.34Z</time></trkpt><trkpt lat="38.3433977" lon="16.4636337"><ele>7.0</ele><time>2026-05-03T06:52:32.332Z</time></trkpt><trkpt lat="38.3434956" lon="16.4636156"><ele>7.000000000000001</ele><time>2026-05-03T06:52:34.336Z</time></trkpt><trkpt lat="38.34357910000001" lon="16.4635963"><ele>7.0</ele><time>2026-05-03T06:52:37.341Z</time></trkpt><trkpt lat="38.343674899999996" lon="16.463563999999998"><ele>7.0</ele><time>2026-05-03T06:52:40.337Z</time></trkpt><trkpt lat="38.343743800000006" lon="16.4635398"><ele>7.0</ele><time>2026-05-03T06:52:42.337Z</time></trkpt><trkpt lat="38.343818899999995" lon="16.463514200000002"><ele>7.000000000000001</ele><time>2026-05-03T06:52:45.34Z</time></trkpt><trkpt lat="38.343894899999995" lon="16.4634902"><ele>7.0</ele><time>2026-05-03T06:52:47.334Z</time></trkpt><trkpt lat="38.34398770000001" lon="16.4634661"><ele>7.000000000000001</ele><time>2026-05-03T06:52:49.34Z</time></trkpt><trkpt lat="38.344089999999994" lon="16.4634335"><ele>7.0</ele><time>2026-05-03T06:52:51.342Z</time></trkpt><trkpt lat="38.3442054" lon="16.4633974"><ele>7.0</ele><time>2026-05-03T06:52:53.334Z</time></trkpt><trkpt lat="38.3442855" lon="16.4633735"><ele>7.0</ele><time>2026-05-03T06:52:55.339Z</time></trkpt><trkpt lat="38.34434660000001" lon="16.4633539"><ele>7.000000000000001</ele><time>2026-05-03T06:52:58.341Z</time></trkpt><trkpt lat="38.344419599999995" lon="16.4633313"><ele>7.0</ele><time>2026-05-03T06:53:00.335Z</time></trkpt><trkpt lat="38.3445142" lon="16.463308199999997"><ele>7.0</ele><time>2026-05-03T06:53:02.336Z</time></trkpt><trkpt lat="38.344589400000004" lon="16.4632886"><ele>6.999999999999999</ele><time>2026-05-03T06:53:04.34Z</time></trkpt><trkpt lat="38.34465337914248" lon="16.463270418955517"><ele>6.999999999999999</ele><time>2026-05-03T06:53:08.336Z</time></trkpt><trkpt lat="38.3446614" lon="16.4631385"><ele>7.0</ele><time>2026-05-03T06:53:10.341Z</time></trkpt><trkpt lat="38.344628900000004" lon="16.462975999999998"><ele>7.0</ele><time>2026-05-03T06:53:12.336Z</time></trkpt><trkpt lat="38.3446088" lon="16.462877600000002"><ele>7.199999999999999</ele><time>2026-05-03T06:53:13.339Z</time></trkpt><trkpt lat="38.344586899999996" lon="16.4627667"><ele>7.3999999999999995</ele><time>2026-05-03T06:53:14.336Z</time></trkpt><trkpt lat="38.34456349999999" lon="16.4626482"><ele>7.6000000000000005</ele><time>2026-05-03T06:53:15.339Z</time></trkpt><trkpt lat="38.3445398" lon="16.4625228"><ele>7.800000000000001</ele><time>2026-05-03T06:53:16.341Z</time></trkpt><trkpt lat="38.344517" lon="16.462392599999998"><ele>8.0</ele><time>2026-05-03T06:53:17.34Z</time></trkpt><trkpt lat="38.3444936" lon="16.4622632"><ele>7.999999999999999</ele><time>2026-05-03T06:53:18.335Z</time></trkpt><trkpt lat="38.3444699" lon="16.4621381"><ele>8.0</ele><time>2026-05-03T06:53:19.338Z</time></trkpt><trkpt lat="38.344447300000006" lon="16.4620208"><ele>8.0</ele><time>2026-05-03T06:53:20.335Z</time></trkpt><trkpt lat="38.344425900000005" lon="16.461911999999998"><ele>8.0</ele><time>2026-05-03T06:53:21.338Z</time></trkpt><trkpt lat="38.34442516855742" lon="16.461809270532395"><ele>7.999999999999999</ele><time>2026-05-03T06:53:22.341Z</time></trkpt><trkpt lat="38.344397699999995" lon="16.461737000000003"><ele>8.0</ele><time>2026-05-03T06:53:23.338Z</time></trkpt><trkpt lat="38.344414199999996" lon="16.4616315"><ele>8.166666666666666</ele><time>2026-05-03T06:53:25.338Z</time></trkpt><trkpt lat="38.34449798497568" lon="16.461621943027396"><ele>8.333333333333332</ele><time>2026-05-03T06:53:27.344Z</time></trkpt><trkpt lat="38.34461466971545" lon="16.461581893210333"><ele>8.5</ele><time>2026-05-03T06:53:29.339Z</time></trkpt><trkpt lat="38.3446823" lon="16.4615394"><ele>8.666666666666666</ele><time>2026-05-03T06:53:30.34Z</time></trkpt><trkpt lat="38.3447563" lon="16.4615127"><ele>8.833333333333334</ele><time>2026-05-03T06:53:31.344Z</time></trkpt><trkpt lat="38.344839028390915" lon="16.461488509552872"><ele>9.0</ele><time>2026-05-03T06:53:32.335Z</time></trkpt><trkpt lat="38.344910930187055" lon="16.461430832517372"><ele>9.8</ele><time>2026-05-03T06:53:33.337Z</time></trkpt><trkpt lat="38.3449696" lon="16.461343600000003"><ele>10.600000000000001</ele><time>2026-05-03T06:53:34.34Z</time></trkpt><trkpt lat="38.3450345" lon="16.461261699999998"><ele>11.4</ele><time>2026-05-03T06:53:35.338Z</time></trkpt><trkpt lat="38.345090199999994" lon="16.4611661"><ele>12.200000000000001</ele><time>2026-05-03T06:53:36.34Z</time></trkpt><trkpt lat="38.345136200000006" lon="16.461062599999998"><ele>13.0</ele><time>2026-05-03T06:53:37.343Z</time></trkpt><trkpt lat="38.345177899999996" lon="16.460955300000002"><ele>13.2</ele><time>2026-05-03T06:53:38.335Z</time></trkpt><trkpt lat="38.3452181" lon="16.4608487"><ele>13.4</ele><time>2026-05-03T06:53:39.338Z</time></trkpt><trkpt lat="38.3452621" lon="16.4607432"><ele>13.599999999999998</ele><time>2026-05-03T06:53:40.34Z</time></trkpt><trkpt lat="38.34530660000001" lon="16.4606389"><ele>13.799999999999999</ele><time>2026-05-03T06:53:41.338Z</time></trkpt><trkpt lat="38.345352899999995" lon="16.4605336"><ele>14.0</ele><time>2026-05-03T06:53:42.34Z</time></trkpt><trkpt lat="38.345399699999994" lon="16.4604281"><ele>14.0</ele><time>2026-05-03T06:53:43.343Z</time></trkpt><trkpt lat="38.3454475" lon="16.460321800000003"><ele>13.999999999999998</ele><time>2026-05-03T06:53:44.335Z</time></trkpt><trkpt lat="38.34549559999999" lon="16.4602139"><ele>13.999999999999998</ele><time>2026-05-03T06:53:45.339Z</time></trkpt><trkpt lat="38.345557991726665" lon="16.46011599571044"><ele>14.0</ele><time>2026-05-03T06:53:46.34Z</time></trkpt><trkpt lat="38.34560688646127" lon="16.460009516797324"><ele>14.0</ele><time>2026-05-03T06:53:47.339Z</time></trkpt><trkpt lat="38.34565605220035" lon="16.45990245007548"><ele>14.0</ele><time>2026-05-03T06:53:48.339Z</time></trkpt><trkpt lat="38.34570863009621" lon="16.45979758811169"><ele>13.999999999999998</ele><time>2026-05-03T06:53:49.342Z</time></trkpt><trkpt lat="38.34576047372702" lon="16.459691811373556"><ele>13.999999999999998</ele><time>2026-05-03T06:53:50.335Z</time></trkpt><trkpt lat="38.34581312113016" lon="16.45958439908605"><ele>14.0</ele><time>2026-05-03T06:53:51.339Z</time></trkpt><trkpt lat="38.345853899999994" lon="16.459463699999997"><ele>14.0</ele><time>2026-05-03T06:53:52.34Z</time></trkpt><trkpt lat="38.345917500000006" lon="16.459359199999998"><ele>14.0</ele><time>2026-05-03T06:53:53.339Z</time></trkpt><trkpt lat="38.3459871" lon="16.4592636"><ele>13.999999999999998</ele><time>2026-05-03T06:53:54.339Z</time></trkpt><trkpt lat="38.3460708" lon="16.459171"><ele>13.999999999999998</ele><time>2026-05-03T06:53:55.343Z</time></trkpt><trkpt lat="38.3461588" lon="16.459085"><ele>14.0</ele><time>2026-05-03T06:53:56.343Z</time></trkpt><trkpt lat="38.3462511" lon="16.4589991"><ele>14.0</ele><time>2026-05-03T06:53:57.339Z</time></trkpt><trkpt lat="38.3463483" lon="16.458909300000002"><ele>14.75</ele><time>2026-05-03T06:53:58.339Z</time></trkpt><trkpt lat="38.3464454" lon="16.458819000000002"><ele>15.5</ele><time>2026-05-03T06:53:59.337Z</time></trkpt><trkpt lat="38.3465443" lon="16.4587262"><ele>16.25</ele><time>2026-05-03T06:54:00.339Z</time></trkpt><trkpt lat="38.346644" lon="16.4586301"><ele>17.0</ele><time>2026-05-03T06:54:01.343Z</time></trkpt><trkpt lat="38.3467445" lon="16.4585342"><ele>17.0</ele><time>2026-05-03T06:54:02.339Z</time></trkpt><trkpt lat="38.346860159803704" lon="16.45845897525265"><ele>17.0</ele><time>2026-05-03T06:54:03.342Z</time></trkpt><trkpt lat="38.34696631123239" lon="16.458360919567824"><ele>17.0</ele><time>2026-05-03T06:54:04.339Z</time></trkpt><trkpt lat="38.34707368749524" lon="16.458261732684672"><ele>17.0</ele><time>2026-05-03T06:54:05.336Z</time></trkpt><trkpt lat="38.347173" lon="16.458142799999997"><ele>17.25</ele><time>2026-05-03T06:54:06.34Z</time></trkpt><trkpt lat="38.34729300477071" lon="16.458056555795764"><ele>17.5</ele><time>2026-05-03T06:54:07.342Z</time></trkpt><trkpt lat="38.34740390064226" lon="16.457954826849313"><ele>17.75</ele><time>2026-05-03T06:54:08.338Z</time></trkpt><trkpt lat="38.347517956117485" lon="16.457851097646856"><ele>18.0</ele><time>2026-05-03T06:54:09.342Z</time></trkpt><trkpt lat="38.347630817075704" lon="16.457749827493835"><ele>18.0</ele><time>2026-05-03T06:54:10.344Z</time></trkpt><trkpt lat="38.347746813919976" lon="16.45765221371524"><ele>18.0</ele><time>2026-05-03T06:54:11.336Z</time></trkpt><trkpt lat="38.3478594" lon="16.4575523"><ele>18.0</ele><time>2026-05-03T06:54:12.338Z</time></trkpt><trkpt lat="38.3479927" lon="16.4574783"><ele>18.0</ele><time>2026-05-03T06:54:13.341Z</time></trkpt><trkpt lat="38.34813370234862" lon="16.457431124931013"><ele>18.666666666666668</ele><time>2026-05-03T06:54:14.338Z</time></trkpt><trkpt lat="38.3482676" lon="16.4573453"><ele>19.333333333333336</ele><time>2026-05-03T06:54:15.341Z</time></trkpt><trkpt lat="38.34841635232612" lon="16.45729657270697"><ele>20.0</ele><time>2026-05-03T06:54:16.344Z</time></trkpt><trkpt lat="38.34856152421788" lon="16.457227983170142"><ele>20.0</ele><time>2026-05-03T06:54:17.336Z</time></trkpt><trkpt lat="38.348707922615894" lon="16.457155390738592"><ele>20.0</ele><time>2026-05-03T06:54:18.339Z</time></trkpt><trkpt lat="38.3488497" lon="16.4570607"><ele>20.0</ele><time>2026-05-03T06:54:19.341Z</time></trkpt><trkpt lat="38.3489985" lon="16.4569869"><ele>21.333333333333336</ele><time>2026-05-03T06:54:20.338Z</time></trkpt><trkpt lat="38.34915334099917" lon="16.456933777618122"><ele>22.666666666666668</ele><time>2026-05-03T06:54:21.341Z</time></trkpt><trkpt lat="38.349296300000006" lon="16.456841"><ele>24.0</ele><time>2026-05-03T06:54:22.344Z</time></trkpt><trkpt lat="38.3494453" lon="16.4567685"><ele>24.0</ele><time>2026-05-03T06:54:23.336Z</time></trkpt><trkpt lat="38.349594599999996" lon="16.4566968"><ele>24.0</ele><time>2026-05-03T06:54:24.339Z</time></trkpt><trkpt lat="38.3497413" lon="16.4566256"><ele>24.0</ele><time>2026-05-03T06:54:25.341Z</time></trkpt><trkpt lat="38.3498842" lon="16.4565561"><ele>24.0</ele><time>2026-05-03T06:54:26.338Z</time></trkpt><trkpt lat="38.350022100000004" lon="16.456483900000002"><ele>24.0</ele><time>2026-05-03T06:54:27.341Z</time></trkpt><trkpt lat="38.3501485" lon="16.456397499999998"><ele>24.0</ele><time>2026-05-03T06:54:28.343Z</time></trkpt><trkpt lat="38.3502619" lon="16.4562886"><ele>24.0</ele><time>2026-05-03T06:54:29.336Z</time></trkpt><trkpt lat="38.3503692" lon="16.4561635"><ele>24.0</ele><time>2026-05-03T06:54:30.338Z</time></trkpt><trkpt lat="38.3504753" lon="16.4560335"><ele>24.0</ele><time>2026-05-03T06:54:31.341Z</time></trkpt><trkpt lat="38.3505818" lon="16.4559005"><ele>24.0</ele><time>2026-05-03T06:54:32.338Z</time></trkpt><trkpt lat="38.3506924" lon="16.4557668"><ele>24.0</ele><time>2026-05-03T06:54:33.341Z</time></trkpt><trkpt lat="38.35081572871162" lon="16.45564665274817"><ele>24.666666666666664</ele><time>2026-05-03T06:54:34.345Z</time></trkpt><trkpt lat="38.35093016339658" lon="16.455509196589976"><ele>25.333333333333332</ele><time>2026-05-03T06:54:35.34Z</time></trkpt><trkpt lat="38.3510337" lon="16.4553586"><ele>26.0</ele><time>2026-05-03T06:54:36.338Z</time></trkpt><trkpt lat="38.351150999999994" lon="16.4552187"><ele>26.0</ele><time>2026-05-03T06:54:37.341Z</time></trkpt><trkpt lat="38.35126540000001" lon="16.455077799999998"><ele>26.0</ele><time>2026-05-03T06:54:38.339Z</time></trkpt><trkpt lat="38.351372999999995" lon="16.4549283"><ele>26.0</ele><time>2026-05-03T06:54:39.34Z</time></trkpt><trkpt lat="38.35148994136502" lon="16.45478678562144"><ele>26.0</ele><time>2026-05-03T06:54:40.343Z</time></trkpt><trkpt lat="38.35159600653069" lon="16.4546294025129"><ele>26.0</ele><time>2026-05-03T06:54:41.342Z</time></trkpt><trkpt lat="38.35170186251711" lon="16.454467892536197"><ele>26.0</ele><time>2026-05-03T06:54:42.343Z</time></trkpt><trkpt lat="38.35180613943397" lon="16.45430542406289"><ele>26.0</ele><time>2026-05-03T06:54:43.343Z</time></trkpt><trkpt lat="38.3519099442962" lon="16.45414321311382"><ele>26.0</ele><time>2026-05-03T06:54:44.338Z</time></trkpt><trkpt lat="38.35201355956831" lon="16.453981306520408"><ele>26.0</ele><time>2026-05-03T06:54:45.341Z</time></trkpt><trkpt lat="38.3521153728802" lon="16.453818898478485"><ele>27.333333333333332</ele><time>2026-05-03T06:54:46.342Z</time></trkpt><trkpt lat="38.35221941555883" lon="16.45365795246765"><ele>28.666666666666664</ele><time>2026-05-03T06:54:47.341Z</time></trkpt><trkpt lat="38.35232474751006" lon="16.45349901791349"><ele>30.0</ele><time>2026-05-03T06:54:48.343Z</time></trkpt><trkpt lat="38.352429346470444" lon="16.45334118932227"><ele>30.0</ele><time>2026-05-03T06:54:49.345Z</time></trkpt><trkpt lat="38.35253462583897" lon="16.453185121583637"><ele>30.0</ele><time>2026-05-03T06:54:50.338Z</time></trkpt><trkpt lat="38.35262846737547" lon="16.453017162078034"><ele>30.0</ele><time>2026-05-03T06:54:51.34Z</time></trkpt><trkpt lat="38.35270736735381" lon="16.45283836293452"><ele>29.666666666666664</ele><time>2026-05-03T06:54:52.343Z</time></trkpt><trkpt lat="38.35277954970395" lon="16.45266040854474"><ele>29.333333333333332</ele><time>2026-05-03T06:54:53.341Z</time></trkpt><trkpt lat="38.35284946190308" lon="16.45248261596254"><ele>29.0</ele><time>2026-05-03T06:54:54.342Z</time></trkpt><trkpt lat="38.352912894254374" lon="16.452313214732722"><ele>29.0</ele><time>2026-05-03T06:54:55.345Z</time></trkpt><trkpt lat="38.35297144866268" lon="16.45215684092767"><ele>29.0</ele><time>2026-05-03T06:54:56.338Z</time></trkpt><trkpt lat="38.35302319549774" lon="16.452018727595185"><ele>29.0</ele><time>2026-05-03T06:54:57.34Z</time></trkpt><trkpt lat="38.3530689980735" lon="16.451897019506635"><ele>29.0</ele><time>2026-05-03T06:54:58.342Z</time></trkpt><trkpt lat="38.35310898277445" lon="16.45179077091128"><ele>29.6</ele><time>2026-05-03T06:54:59.341Z</time></trkpt><trkpt lat="38.35314847507475" lon="16.451686355024638"><ele>30.2</ele><time>2026-05-03T06:55:00.342Z</time></trkpt><trkpt lat="38.35318993446477" lon="16.45158135697123"><ele>30.800000000000004</ele><time>2026-05-03T06:55:01.345Z</time></trkpt><trkpt lat="38.353234360557366" lon="16.451471151296193"><ele>31.400000000000002</ele><time>2026-05-03T06:55:02.338Z</time></trkpt><trkpt lat="38.353280099818036" lon="16.451363143979734"><ele>32.0</ele><time>2026-05-03T06:55:03.34Z</time></trkpt><trkpt lat="38.35332986782434" lon="16.451265943226435"><ele>31.999999999999996</ele><time>2026-05-03T06:55:04.342Z</time></trkpt><trkpt lat="38.35338177887296" lon="16.451184084115308"><ele>32.0</ele><time>2026-05-03T06:55:05.342Z</time></trkpt><trkpt lat="38.353430366648546" lon="16.451112340138213"><ele>32.0</ele><time>2026-05-03T06:55:06.342Z</time></trkpt><trkpt lat="38.35350670888114" lon="16.451007333167"><ele>32.0</ele><time>2026-05-03T06:55:08.337Z</time></trkpt><trkpt lat="38.353524" lon="16.4508936"><ele>31.999999999999996</ele><time>2026-05-03T06:55:11.34Z</time></trkpt><trkpt lat="38.35355020027067" lon="16.450815558500125"><ele>32.0</ele><time>2026-05-03T06:55:16.342Z</time></trkpt><trkpt lat="38.3535565" lon="16.450713800000003"><ele>31.999999999999996</ele><time>2026-05-03T06:55:20.34Z</time></trkpt><trkpt lat="38.3535781" lon="16.4506207"><ele>32.0</ele><time>2026-05-03T06:55:24.341Z</time></trkpt><trkpt lat="38.3535896" lon="16.4505317"><ele>32.0</ele><time>2026-05-03T06:55:28.346Z</time></trkpt><trkpt lat="38.3536053" lon="16.450431"><ele>32.0</ele><time>2026-05-03T06:55:32.342Z</time></trkpt><trkpt lat="38.353628699999994" lon="16.450340200000003"><ele>31.999999999999996</ele><time>2026-05-03T06:55:36.341Z</time></trkpt><trkpt lat="38.353655700000004" lon="16.450247400000002"><ele>32.0</ele><time>2026-05-03T06:55:40.346Z</time></trkpt><trkpt lat="38.3536738" lon="16.450155600000002"><ele>32.42857142857143</ele><time>2026-05-03T06:55:45.343Z</time></trkpt><trkpt lat="38.353662799999995" lon="16.450071400000002"><ele>32.857142857142854</ele><time>2026-05-03T06:55:51.347Z</time></trkpt><trkpt lat="38.3536310527199" lon="16.450001413456803"><ele>33.285714285714285</ele><time>2026-05-03T06:56:01.343Z</time></trkpt><trkpt lat="38.353604387548216" lon="16.449925951566915"><ele>33.714285714285715</ele><time>2026-05-03T06:56:06.346Z</time></trkpt><trkpt lat="38.353670844702144" lon="16.449834442896655"><ele>34.14285714285714</ele><time>2026-05-03T06:57:06.017Z</time></trkpt><trkpt lat="38.353610314345325" lon="16.449861569373194"><ele>34.57142857142857</ele><time>2026-05-03T06:59:28.163Z</time></trkpt><trkpt lat="38.35353070008302" lon="16.449802871001243"><ele>35.0</ele><time>2026-05-03T06:59:35.164Z</time></trkpt><trkpt lat="38.35348428138138" lon="16.4497449887466"><ele>35.0</ele><time>2026-05-03T07:07:15.034Z</time></trkpt><trkpt lat="38.35348510646805" lon="16.4498317306243"><ele>35.0</ele><time>2026-05-03T07:10:38.04Z</time></trkpt><trkpt lat="38.353481213863304" lon="16.449922391665815"><ele>35.0</ele><time>2026-05-03T07:10:41.04Z</time></trkpt><trkpt lat="38.35352662052279" lon="16.449987014213036"><ele>35.0</ele><time>2026-05-03T07:10:45.04Z</time></trkpt><trkpt lat="38.35359085367581" lon="16.449993612004693"><ele>35.0</ele><time>2026-05-03T07:10:49.04Z</time></trkpt><trkpt lat="38.35362486530755" lon="16.450068588141388"><ele>35.0</ele><time>2026-05-03T07:10:55.04Z</time></trkpt><trkpt lat="38.353637976178035" lon="16.450156306144468"><ele>35.0</ele><time>2026-05-03T07:10:57.04Z</time></trkpt><trkpt lat="38.35363416544496" lon="16.450249345792617"><ele>35.0</ele><time>2026-05-03T07:10:59.04Z</time></trkpt><trkpt lat="38.353616516073394" lon="16.450327725809753"><ele>35.0</ele><time>2026-05-03T07:11:01.04Z</time></trkpt><trkpt lat="38.35360387723541" lon="16.450413580435875"><ele>35.0</ele><time>2026-05-03T07:11:03.04Z</time></trkpt><trkpt lat="38.353574157263324" lon="16.450529494011313"><ele>35.0</ele><time>2026-05-03T07:11:06.041Z</time></trkpt><trkpt lat="38.35357484747074" lon="16.450641294971767"><ele>35.0</ele><time>2026-05-03T07:11:09.041Z</time></trkpt><trkpt lat="38.35355819654211" lon="16.45073521264949"><ele>35.0</ele><time>2026-05-03T07:11:12.041Z</time></trkpt><trkpt lat="38.35353674113623" lon="16.45082443047277"><ele>34.5</ele><time>2026-05-03T07:11:15.041Z</time></trkpt><trkpt lat="38.35358878305777" lon="16.450872657434186"><ele>34.0</ele><time>2026-05-03T07:11:27.041Z</time></trkpt><trkpt lat="38.353651035810984" lon="16.450774732208608"><ele>33.5</ele><time>2026-05-03T07:11:30.041Z</time></trkpt><trkpt lat="38.35371298713635" lon="16.45069036041024"><ele>33.0</ele><time>2026-05-03T07:11:32.041Z</time></trkpt><trkpt lat="38.353774827639434" lon="16.45061837850005"><ele>32.5</ele><time>2026-05-03T07:11:34.041Z</time></trkpt><trkpt lat="38.353839919095925" lon="16.450552156234277"><ele>32.0</ele><time>2026-05-03T07:11:36.041Z</time></trkpt><trkpt lat="38.353920669967394" lon="16.45044248983694"><ele>33.57142857142857</ele><time>2026-05-03T07:11:38.041Z</time></trkpt><trkpt lat="38.35397010297474" lon="16.45038243518947"><ele>35.14285714285714</ele><time>2026-05-03T07:11:39.041Z</time></trkpt><trkpt lat="38.35402757635533" lon="16.450318531513325"><ele>36.714285714285715</ele><time>2026-05-03T07:11:40.041Z</time></trkpt><trkpt lat="38.354078357308644" lon="16.450252550120908"><ele>38.285714285714285</ele><time>2026-05-03T07:11:41.042Z</time></trkpt><trkpt lat="38.35413216855562" lon="16.450190557975997"><ele>39.85714285714286</ele><time>2026-05-03T07:11:42.042Z</time></trkpt><trkpt lat="38.354182684946544" lon="16.45012562591808"><ele>41.42857142857143</ele><time>2026-05-03T07:11:43.042Z</time></trkpt><trkpt lat="38.3542350584901" lon="16.450051211867557"><ele>43.0</ele><time>2026-05-03T07:11:44.042Z</time></trkpt><trkpt lat="38.3542834705839" lon="16.449974784540586"><ele>43.0</ele><time>2026-05-03T07:11:45.042Z</time></trkpt><trkpt lat="38.354344368875275" lon="16.44992179365901"><ele>43.0</ele><time>2026-05-03T07:11:46.042Z</time></trkpt><trkpt lat="38.35437712106746" lon="16.44985172272151"><ele>43.0</ele><time>2026-05-03T07:11:47.042Z</time></trkpt><trkpt lat="38.354448970354206" lon="16.449719252252365"><ele>43.0</ele><time>2026-05-03T07:11:49.042Z</time></trkpt><trkpt lat="38.354461200174626" lon="16.449613890166393"><ele>43.0</ele><time>2026-05-03T07:11:50.042Z</time></trkpt><trkpt lat="38.35448622783587" lon="16.449509613659632"><ele>43.0</ele><time>2026-05-03T07:11:51.042Z</time></trkpt><trkpt lat="38.35452313946788" lon="16.449415592522488"><ele>42.66666666666667</ele><time>2026-05-03T07:11:52.042Z</time></trkpt><trkpt lat="38.35455595146268" lon="16.449315196145626"><ele>42.333333333333336</ele><time>2026-05-03T07:11:53.042Z</time></trkpt><trkpt lat="38.35456639809959" lon="16.449213559777547"><ele>42.0</ele><time>2026-05-03T07:11:54.042Z</time></trkpt><trkpt lat="38.35457063709168" lon="16.44912264487595"><ele>41.666666666666664</ele><time>2026-05-03T07:11:55.042Z</time></trkpt><trkpt lat="38.35457405247853" lon="16.44902907662666"><ele>41.33333333333333</ele><time>2026-05-03T07:11:56.042Z</time></trkpt><trkpt lat="38.35452153576414" lon="16.448951669407084"><ele>41.0</ele><time>2026-05-03T07:11:57.042Z</time></trkpt><trkpt lat="38.35448389529205" lon="16.44887219578931"><ele>40.857142857142854</ele><time>2026-05-03T07:11:58.042Z</time></trkpt><trkpt lat="38.35443465470892" lon="16.448792125801102"><ele>40.714285714285715</ele><time>2026-05-03T07:11:59.042Z</time></trkpt><trkpt lat="38.35438909244576" lon="16.448715773310184"><ele>40.57142857142857</ele><time>2026-05-03T07:12:00.042Z</time></trkpt><trkpt lat="38.35435406805578" lon="16.448639336951523"><ele>40.42857142857143</ele><time>2026-05-03T07:12:01.042Z</time></trkpt><trkpt lat="38.35430948142479" lon="16.44857111760556"><ele>40.285714285714285</ele><time>2026-05-03T07:12:02.042Z</time></trkpt><trkpt lat="38.35427193310638" lon="16.448496094942982"><ele>40.14285714285714</ele><time>2026-05-03T07:12:03.042Z</time></trkpt><trkpt lat="38.35423408871105" lon="16.448423588352625"><ele>40.0</ele><time>2026-05-03T07:12:04.042Z</time></trkpt><trkpt lat="38.35421398461868" lon="16.448343916748787"><ele>40.0</ele><time>2026-05-03T07:12:05.042Z</time></trkpt><trkpt lat="38.354272095410415" lon="16.448253894368456"><ele>40.0</ele><time>2026-05-03T07:12:07.042Z</time></trkpt><trkpt lat="38.3542326721285" lon="16.44816839463726"><ele>40.0</ele><time>2026-05-03T07:12:08.042Z</time></trkpt><trkpt lat="38.354328631306096" lon="16.448171730079544"><ele>40.0</ele><time>2026-05-03T07:12:09.042Z</time></trkpt><trkpt lat="38.354372495844366" lon="16.44810129859791"><ele>40.0</ele><time>2026-05-03T07:12:10.042Z</time></trkpt><trkpt lat="38.35442940979998" lon="16.448046620223987"><ele>40.0</ele><time>2026-05-03T07:12:11.042Z</time></trkpt><trkpt lat="38.35447778865151" lon="16.447984876195598"><ele>40.2</ele><time>2026-05-03T07:12:12.042Z</time></trkpt><trkpt lat="38.35452773343212" lon="16.447887557394335"><ele>40.4</ele><time>2026-05-03T07:12:13.042Z</time></trkpt><trkpt lat="38.354597819717995" lon="16.447816406847267"><ele>40.599999999999994</ele><time>2026-05-03T07:12:14.042Z</time></trkpt><trkpt lat="38.3546561710357" lon="16.44771822406231"><ele>40.8</ele><time>2026-05-03T07:12:15.042Z</time></trkpt><trkpt lat="38.35470448438674" lon="16.44762878601964"><ele>41.0</ele><time>2026-05-03T07:12:16.043Z</time></trkpt><trkpt lat="38.35475646979604" lon="16.447525453245785"><ele>41.0</ele><time>2026-05-03T07:12:17.043Z</time></trkpt><trkpt lat="38.35479483184695" lon="16.4474162772859"><ele>41.0</ele><time>2026-05-03T07:12:18.043Z</time></trkpt><trkpt lat="38.354847511450586" lon="16.44730615751277"><ele>41.0</ele><time>2026-05-03T07:12:19.043Z</time></trkpt><trkpt lat="38.35489382980446" lon="16.44720073066481"><ele>41.0</ele><time>2026-05-03T07:12:20.043Z</time></trkpt><trkpt lat="38.3549354670718" lon="16.447103405760842"><ele>41.0</ele><time>2026-05-03T07:12:21.042Z</time></trkpt><trkpt lat="38.35497582927619" lon="16.44700157686842"><ele>40.666666666666664</ele><time>2026-05-03T07:12:22.043Z</time></trkpt><trkpt lat="38.355014550887105" lon="16.44690475783142"><ele>40.33333333333333</ele><time>2026-05-03T07:12:23.043Z</time></trkpt><trkpt lat="38.35508394557622" lon="16.446813150834"><ele>40.0</ele><time>2026-05-03T07:12:24.043Z</time></trkpt><trkpt lat="38.35513001069039" lon="16.446719436470698"><ele>39.666666666666664</ele><time>2026-05-03T07:12:25.042Z</time></trkpt><trkpt lat="38.35517655718896" lon="16.44662238137684"><ele>39.333333333333336</ele><time>2026-05-03T07:12:26.043Z</time></trkpt><trkpt lat="38.355220123992396" lon="16.446527093694908"><ele>39.0</ele><time>2026-05-03T07:12:27.043Z</time></trkpt><trkpt lat="38.35526523457341" lon="16.446429799271296"><ele>39.0</ele><time>2026-05-03T07:12:28.043Z</time></trkpt><trkpt lat="38.35530808648841" lon="16.44632789799203"><ele>39.0</ele><time>2026-05-03T07:12:29.043Z</time></trkpt><trkpt lat="38.35535087329814" lon="16.446227784997035"><ele>39.0</ele><time>2026-05-03T07:12:30.043Z</time></trkpt><trkpt lat="38.35540192216072" lon="16.44611405245752"><ele>39.0</ele><time>2026-05-03T07:12:31.043Z</time></trkpt><trkpt lat="38.3554499324086" lon="16.44599686883547"><ele>39.0</ele><time>2026-05-03T07:12:32.043Z</time></trkpt><trkpt lat="38.3554928943467" lon="16.445885693331906"><ele>39.6</ele><time>2026-05-03T07:12:33.042Z</time></trkpt><trkpt lat="38.35554026522774" lon="16.44577646743932"><ele>40.2</ele><time>2026-05-03T07:12:34.043Z</time></trkpt><trkpt lat="38.355590240703236" lon="16.445667018320293"><ele>40.800000000000004</ele><time>2026-05-03T07:12:35.043Z</time></trkpt><trkpt lat="38.355642163838304" lon="16.44555175355232"><ele>41.4</ele><time>2026-05-03T07:12:36.043Z</time></trkpt><trkpt lat="38.35569510735805" lon="16.445428530568854"><ele>42.0</ele><time>2026-05-03T07:12:37.043Z</time></trkpt><trkpt lat="38.35574528088879" lon="16.445297693571376"><ele>42.0</ele><time>2026-05-03T07:12:38.043Z</time></trkpt><trkpt lat="38.35579498779315" lon="16.445166591822545"><ele>42.0</ele><time>2026-05-03T07:12:39.043Z</time></trkpt><trkpt lat="38.35583684365935" lon="16.44503358209222"><ele>42.0</ele><time>2026-05-03T07:12:40.043Z</time></trkpt><trkpt lat="38.35587415121887" lon="16.444905610146556"><ele>42.0</ele><time>2026-05-03T07:12:41.043Z</time></trkpt><trkpt lat="38.355901349426084" lon="16.44476484608456"><ele>42.0</ele><time>2026-05-03T07:12:42.043Z</time></trkpt><trkpt lat="38.35592174215037" lon="16.44462088379723"><ele>41.75</ele><time>2026-05-03T07:12:43.043Z</time></trkpt><trkpt lat="38.355938409372" lon="16.44448245020135"><ele>41.5</ele><time>2026-05-03T07:12:44.043Z</time></trkpt><trkpt lat="38.355974634219706" lon="16.44434183665868"><ele>41.25</ele><time>2026-05-03T07:12:45.043Z</time></trkpt><trkpt lat="38.355978270806645" lon="16.444190206880595"><ele>41.0</ele><time>2026-05-03T07:12:46.043Z</time></trkpt><trkpt lat="38.35596046679726" lon="16.444053964121853"><ele>41.0</ele><time>2026-05-03T07:12:47.043Z</time></trkpt><trkpt lat="38.35593618935679" lon="16.443918138683895"><ele>41.0</ele><time>2026-05-03T07:12:48.044Z</time></trkpt><trkpt lat="38.355910638171856" lon="16.443789207118893"><ele>41.0</ele><time>2026-05-03T07:12:49.044Z</time></trkpt><trkpt lat="38.35588703056072" lon="16.443670082794405"><ele>41.0</ele><time>2026-05-03T07:12:50.044Z</time></trkpt><trkpt lat="38.35586410029666" lon="16.443554376363664"><ele>41.0</ele><time>2026-05-03T07:12:51.044Z</time></trkpt><trkpt lat="38.35584179452669" lon="16.443441821209245"><ele>41.199999999999996</ele><time>2026-05-03T07:12:52.044Z</time></trkpt><trkpt lat="38.35581885053389" lon="16.443320676938804"><ele>41.4</ele><time>2026-05-03T07:12:53.044Z</time></trkpt><trkpt lat="38.35579588091388" lon="16.443196724103693"><ele>41.6</ele><time>2026-05-03T07:12:54.044Z</time></trkpt><trkpt lat="38.35578272371391" lon="16.44306327790625"><ele>41.8</ele><time>2026-05-03T07:12:55.044Z</time></trkpt><trkpt lat="38.35576942833599" lon="16.442922209474723"><ele>42.0</ele><time>2026-05-03T07:12:56.044Z</time></trkpt><trkpt lat="38.35575461019404" lon="16.4427794901971"><ele>42.5</ele><time>2026-05-03T07:12:57.044Z</time></trkpt><trkpt lat="38.355741404053234" lon="16.442633570332042"><ele>43.0</ele><time>2026-05-03T07:12:58.044Z</time></trkpt><trkpt lat="38.35570546724567" lon="16.442491549670052"><ele>43.5</ele><time>2026-05-03T07:12:59.044Z</time></trkpt><trkpt lat="38.35568230719971" lon="16.442340601637962"><ele>44.0</ele><time>2026-05-03T07:13:00.044Z</time></trkpt><trkpt lat="38.355659703514334" lon="16.44219365018047"><ele>45.0</ele><time>2026-05-03T07:13:01.044Z</time></trkpt><trkpt lat="38.3556379018208" lon="16.442038890784314"><ele>46.0</ele><time>2026-05-03T07:13:02.044Z</time></trkpt><trkpt lat="38.35561578752924" lon="16.44188191255115"><ele>47.0</ele><time>2026-05-03T07:13:03.044Z</time></trkpt><trkpt lat="38.35559486582338" lon="16.44173735642422"><ele>48.0</ele><time>2026-05-03T07:13:04.044Z</time></trkpt><trkpt lat="38.355586088199274" lon="16.441590884641116"><ele>48.0</ele><time>2026-05-03T07:13:05.044Z</time></trkpt><trkpt lat="38.35554634799429" lon="16.441455150808864"><ele>48.0</ele><time>2026-05-03T07:13:06.044Z</time></trkpt><trkpt lat="38.35550924698122" lon="16.441303595970716"><ele>48.0</ele><time>2026-05-03T07:13:07.044Z</time></trkpt><trkpt lat="38.355465599436" lon="16.441151197724064"><ele>48.0</ele><time>2026-05-03T07:13:08.044Z</time></trkpt><trkpt lat="38.355420319071385" lon="16.441010616757154"><ele>47.0</ele><time>2026-05-03T07:13:09.044Z</time></trkpt><trkpt lat="38.355373416761815" lon="16.440868368350348"><ele>46.0</ele><time>2026-05-03T07:13:10.044Z</time></trkpt><trkpt lat="38.35534538897267" lon="16.440695114336833"><ele>45.0</ele><time>2026-05-03T07:13:11.044Z</time></trkpt><trkpt lat="38.35530148456297" lon="16.44055828260717"><ele>44.0</ele><time>2026-05-03T07:13:12.044Z</time></trkpt><trkpt lat="38.35526052469513" lon="16.440428906311702"><ele>44.0</ele><time>2026-05-03T07:13:13.044Z</time></trkpt><trkpt lat="38.35524935005513" lon="16.440295492674654"><ele>44.0</ele><time>2026-05-03T07:13:14.044Z</time></trkpt><trkpt lat="38.355244837054926" lon="16.440178984158425"><ele>44.0</ele><time>2026-05-03T07:13:15.044Z</time></trkpt><trkpt lat="38.355258923398615" lon="16.440075821730538"><ele>44.0</ele><time>2026-05-03T07:13:16.044Z</time></trkpt><trkpt lat="38.35528674211613" lon="16.439964066477263"><ele>44.0</ele><time>2026-05-03T07:13:17.044Z</time></trkpt><trkpt lat="38.35531788317081" lon="16.439851492788105"><ele>44.0</ele><time>2026-05-03T07:13:18.044Z</time></trkpt><trkpt lat="38.35535893029654" lon="16.439737403038645"><ele>44.0</ele><time>2026-05-03T07:13:19.044Z</time></trkpt><trkpt lat="38.355433494382005" lon="16.439658711539064"><ele>44.0</ele><time>2026-05-03T07:13:20.044Z</time></trkpt><trkpt lat="38.355502306440656" lon="16.439570628965296"><ele>44.0</ele><time>2026-05-03T07:13:21.044Z</time></trkpt><trkpt lat="38.35556387773399" lon="16.439474809317627"><ele>44.0</ele><time>2026-05-03T07:13:22.044Z</time></trkpt><trkpt lat="38.355613065259504" lon="16.439370658181858"><ele>45.0</ele><time>2026-05-03T07:13:23.045Z</time></trkpt><trkpt lat="38.35562732738127" lon="16.43924047245387"><ele>46.0</ele><time>2026-05-03T07:13:24.045Z</time></trkpt><trkpt lat="38.35563707112068" lon="16.43912196473804"><ele>47.0</ele><time>2026-05-03T07:13:25.045Z</time></trkpt><trkpt lat="38.355646998533935" lon="16.4390047283988"><ele>48.0</ele><time>2026-05-03T07:13:26.045Z</time></trkpt><trkpt lat="38.35566692938034" lon="16.438873837143422"><ele>49.0</ele><time>2026-05-03T07:13:27.045Z</time></trkpt><trkpt lat="38.35570160407505" lon="16.43876105621959"><ele>49.0</ele><time>2026-05-03T07:13:28.045Z</time></trkpt><trkpt lat="38.35574990282747" lon="16.43865390774484"><ele>49.0</ele><time>2026-05-03T07:13:29.045Z</time></trkpt><trkpt lat="38.3557947121225" lon="16.43854915331889"><ele>49.0</ele><time>2026-05-03T07:13:30.045Z</time></trkpt><trkpt lat="38.355841159418425" lon="16.438453194960072"><ele>49.0</ele><time>2026-05-03T07:13:31.045Z</time></trkpt><trkpt lat="38.355892905941204" lon="16.438368233723942"><ele>49.0</ele><time>2026-05-03T07:13:32.045Z</time></trkpt><trkpt lat="38.355923031691646" lon="16.43825695477131"><ele>49.0</ele><time>2026-05-03T07:13:33.045Z</time></trkpt><trkpt lat="38.35593672952032" lon="16.43813588083327"><ele>49.0</ele><time>2026-05-03T07:13:34.045Z</time></trkpt><trkpt lat="38.35592825834459" lon="16.43800899873924"><ele>49.0</ele><time>2026-05-03T07:13:35.045Z</time></trkpt><trkpt lat="38.355898409351724" lon="16.437885648504718"><ele>49.0</ele><time>2026-05-03T07:13:36.045Z</time></trkpt><trkpt lat="38.355832384881545" lon="16.437788605367675"><ele>49.0</ele><time>2026-05-03T07:13:37.045Z</time></trkpt><trkpt lat="38.35579011174781" lon="16.43767268483767"><ele>49.166666666666664</ele><time>2026-05-03T07:13:38.045Z</time></trkpt><trkpt lat="38.35574378176733" lon="16.4375613324173"><ele>49.33333333333333</ele><time>2026-05-03T07:13:39.045Z</time></trkpt><trkpt lat="38.35571841234542" lon="16.437442644461104"><ele>49.5</ele><time>2026-05-03T07:13:40.045Z</time></trkpt><trkpt lat="38.355716178543375" lon="16.43733423635589"><ele>49.66666666666667</ele><time>2026-05-03T07:13:41.045Z</time></trkpt><trkpt lat="38.355739485709" lon="16.43722942425948"><ele>49.833333333333336</ele><time>2026-05-03T07:13:42.045Z</time></trkpt><trkpt lat="38.35578402548983" lon="16.437139774109895"><ele>50.0</ele><time>2026-05-03T07:13:43.045Z</time></trkpt><trkpt lat="38.35583014281798" lon="16.437062006192782"><ele>50.0</ele><time>2026-05-03T07:13:44.045Z</time></trkpt><trkpt lat="38.35588418731102" lon="16.43699179631642"><ele>50.0</ele><time>2026-05-03T07:13:45.045Z</time></trkpt><trkpt lat="38.35595517108463" lon="16.436915407335086"><ele>50.0</ele><time>2026-05-03T07:13:46.045Z</time></trkpt><trkpt lat="38.356044392611544" lon="16.43686019925937"><ele>50.0</ele><time>2026-05-03T07:13:47.045Z</time></trkpt><trkpt lat="38.35611575200031" lon="16.436786255022763"><ele>50.0</ele><time>2026-05-03T07:13:48.045Z</time></trkpt><trkpt lat="38.356185379862374" lon="16.436682687874104"><ele>50.0</ele><time>2026-05-03T07:13:49.045Z</time></trkpt><trkpt lat="38.356230141190274" lon="16.436551754498076"><ele>50.0</ele><time>2026-05-03T07:13:50.045Z</time></trkpt><trkpt lat="38.35623835776838" lon="16.43641878088156"><ele>50.0</ele><time>2026-05-03T07:13:51.045Z</time></trkpt><trkpt lat="38.35623316204289" lon="16.43629835563236"><ele>50.0</ele><time>2026-05-03T07:13:52.045Z</time></trkpt><trkpt lat="38.35623366002214" lon="16.436176457134312"><ele>50.0</ele><time>2026-05-03T07:13:53.045Z</time></trkpt><trkpt lat="38.35624106093109" lon="16.43606543902072"><ele>49.8</ele><time>2026-05-03T07:13:54.045Z</time></trkpt><trkpt lat="38.356253978243416" lon="16.4359475578062"><ele>49.6</ele><time>2026-05-03T07:13:55.045Z</time></trkpt><trkpt lat="38.356303684664425" lon="16.435845027797328"><ele>49.400000000000006</ele><time>2026-05-03T07:13:56.045Z</time></trkpt><trkpt lat="38.35636246930254" lon="16.435758593689762"><ele>49.2</ele><time>2026-05-03T07:13:57.045Z</time></trkpt><trkpt lat="38.356407870209644" lon="16.43563491189604"><ele>49.0</ele><time>2026-05-03T07:13:58.046Z</time></trkpt><trkpt lat="38.35648277548282" lon="16.43555296692778"><ele>49.800000000000004</ele><time>2026-05-03T07:13:59.046Z</time></trkpt><trkpt lat="38.35654612622064" lon="16.435464982380356"><ele>50.6</ele><time>2026-05-03T07:14:00.046Z</time></trkpt><trkpt lat="38.35661908163327" lon="16.43536069167853"><ele>51.4</ele><time>2026-05-03T07:14:01.046Z</time></trkpt><trkpt lat="38.35672112039084" lon="16.43528233507159"><ele>52.2</ele><time>2026-05-03T07:14:02.046Z</time></trkpt><trkpt lat="38.356785514694984" lon="16.435173763403988"><ele>53.0</ele><time>2026-05-03T07:14:03.046Z</time></trkpt><trkpt lat="38.356838092843056" lon="16.435040476101477"><ele>53.0</ele><time>2026-05-03T07:14:04.046Z</time></trkpt><trkpt lat="38.35687036354721" lon="16.434903383728944"><ele>53.0</ele><time>2026-05-03T07:14:05.046Z</time></trkpt><trkpt lat="38.35688951781523" lon="16.434759217943327"><ele>53.0</ele><time>2026-05-03T07:14:06.046Z</time></trkpt><trkpt lat="38.35687895477162" lon="16.43462125807552"><ele>53.0</ele><time>2026-05-03T07:14:07.046Z</time></trkpt><trkpt lat="38.35687179598325" lon="16.434493128659113"><ele>53.0</ele><time>2026-05-03T07:14:08.046Z</time></trkpt><trkpt lat="38.35688100338838" lon="16.43436006652424"><ele>53.2</ele><time>2026-05-03T07:14:09.046Z</time></trkpt><trkpt lat="38.3568749650129" lon="16.43422980579956"><ele>53.4</ele><time>2026-05-03T07:14:10.046Z</time></trkpt><trkpt lat="38.35687277011357" lon="16.434086211716103"><ele>53.60000000000001</ele><time>2026-05-03T07:14:11.046Z</time></trkpt><trkpt lat="38.35687159698733" lon="16.433954699675173"><ele>53.800000000000004</ele><time>2026-05-03T07:14:12.046Z</time></trkpt><trkpt lat="38.35687845464738" lon="16.433811261274304"><ele>54.0</ele><time>2026-05-03T07:14:13.046Z</time></trkpt><trkpt lat="38.35689623580982" lon="16.43368143693647"><ele>54.0</ele><time>2026-05-03T07:14:14.046Z</time></trkpt><trkpt lat="38.3569258238369" lon="16.43355353355615"><ele>54.00000000000001</ele><time>2026-05-03T07:14:15.046Z</time></trkpt><trkpt lat="38.35697464507955" lon="16.43343044788845"><ele>54.00000000000001</ele><time>2026-05-03T07:14:16.046Z</time></trkpt><trkpt lat="38.35702319172772" lon="16.433310345386328"><ele>54.0</ele><time>2026-05-03T07:14:17.046Z</time></trkpt><trkpt lat="38.357070397277255" lon="16.43319566910014"><ele>54.0</ele><time>2026-05-03T07:14:18.046Z</time></trkpt><trkpt lat="38.35711590232482" lon="16.433071014998628"><ele>53.800000000000004</ele><time>2026-05-03T07:14:19.046Z</time></trkpt><trkpt lat="38.35714962246316" lon="16.432950590754526"><ele>53.60000000000001</ele><time>2026-05-03T07:14:20.046Z</time></trkpt><trkpt lat="38.35717507867168" lon="16.432821392355066"><ele>53.4</ele><time>2026-05-03T07:14:21.046Z</time></trkpt><trkpt lat="38.35719179490624" lon="16.432690621063976"><ele>53.2</ele><time>2026-05-03T07:14:22.046Z</time></trkpt><trkpt lat="38.35721037242515" lon="16.432555769114035"><ele>53.0</ele><time>2026-05-03T07:14:23.046Z</time></trkpt><trkpt lat="38.357235645930906" lon="16.43242643726621"><ele>56.2</ele><time>2026-05-03T07:14:24.046Z</time></trkpt><trkpt lat="38.35727113695194" lon="16.432302702624153"><ele>59.4</ele><time>2026-05-03T07:14:25.046Z</time></trkpt><trkpt lat="38.357317402586524" lon="16.432188395112103"><ele>62.60000000000001</ele><time>2026-05-03T07:14:26.046Z</time></trkpt><trkpt lat="38.35737621221523" lon="16.43207935137862"><ele>65.8</ele><time>2026-05-03T07:14:27.046Z</time></trkpt><trkpt lat="38.357408789708025" lon="16.431950794045658"><ele>69.0</ele><time>2026-05-03T07:14:28.046Z</time></trkpt><trkpt lat="38.357410548370126" lon="16.431810402815426"><ele>69.0</ele><time>2026-05-03T07:14:29.046Z</time></trkpt><trkpt lat="38.35740575634626" lon="16.431679477639296"><ele>69.0</ele><time>2026-05-03T07:14:30.046Z</time></trkpt><trkpt lat="38.357390185365624" lon="16.43155055784655"><ele>69.0</ele><time>2026-05-03T07:14:31.046Z</time></trkpt><trkpt lat="38.35737054259358" lon="16.431412845046832"><ele>69.0</ele><time>2026-05-03T07:14:32.046Z</time></trkpt><trkpt lat="38.357341664774886" lon="16.431282561255653"><ele>69.0</ele><time>2026-05-03T07:14:33.046Z</time></trkpt><trkpt lat="38.357333175062195" lon="16.431143716570787"><ele>69.75</ele><time>2026-05-03T07:14:34.046Z</time></trkpt><trkpt lat="38.35731085630097" lon="16.4310120204285"><ele>70.5</ele><time>2026-05-03T07:14:35.046Z</time></trkpt><trkpt lat="38.357288439678214" lon="16.430868066654188"><ele>71.25</ele><time>2026-05-03T07:14:36.046Z</time></trkpt><trkpt lat="38.35726802182264" lon="16.430722154597714"><ele>72.0</ele><time>2026-05-03T07:14:37.046Z</time></trkpt><trkpt lat="38.35726637879811" lon="16.430575989268384"><ele>72.25</ele><time>2026-05-03T07:14:38.046Z</time></trkpt><trkpt lat="38.35728016026644" lon="16.430432088263707"><ele>72.5</ele><time>2026-05-03T07:14:39.047Z</time></trkpt><trkpt lat="38.35730541854979" lon="16.430295701649342"><ele>72.75</ele><time>2026-05-03T07:14:40.046Z</time></trkpt><trkpt lat="38.35733795755039" lon="16.43015586813459"><ele>73.0</ele><time>2026-05-03T07:14:41.046Z</time></trkpt><trkpt lat="38.35738462812443" lon="16.430016929812037"><ele>73.0</ele><time>2026-05-03T07:14:42.046Z</time></trkpt><trkpt lat="38.35743056739235" lon="16.42988320322577"><ele>73.0</ele><time>2026-05-03T07:14:43.046Z</time></trkpt><trkpt lat="38.35748562234954" lon="16.42975431707175"><ele>73.0</ele><time>2026-05-03T07:14:44.046Z</time></trkpt><trkpt lat="38.357547656707595" lon="16.429644657378084"><ele>73.0</ele><time>2026-05-03T07:14:45.046Z</time></trkpt><trkpt lat="38.3576219369923" lon="16.429535538914017"><ele>73.0</ele><time>2026-05-03T07:14:46.046Z</time></trkpt><trkpt lat="38.357692002969095" lon="16.429433050418623"><ele>71.0</ele><time>2026-05-03T07:14:47.046Z</time></trkpt><trkpt lat="38.35776116157631" lon="16.429326539368372"><ele>69.0</ele><time>2026-05-03T07:14:48.046Z</time></trkpt><trkpt lat="38.35783027593541" lon="16.429233660467396"><ele>67.0</ele><time>2026-05-03T07:14:49.046Z</time></trkpt><trkpt lat="38.35791743047994" lon="16.4291564801932"><ele>65.0</ele><time>2026-05-03T07:14:50.046Z</time></trkpt><trkpt lat="38.35799199249158" lon="16.42905884781454"><ele>63.0</ele><time>2026-05-03T07:14:51.046Z</time></trkpt><trkpt lat="38.35807734213346" lon="16.428949360411696"><ele>63.0</ele><time>2026-05-03T07:14:52.046Z</time></trkpt><trkpt lat="38.35815747015148" lon="16.42884579791414"><ele>63.0</ele><time>2026-05-03T07:14:53.046Z</time></trkpt><trkpt lat="38.35823151028691" lon="16.42874387956831"><ele>63.0</ele><time>2026-05-03T07:14:54.046Z</time></trkpt><trkpt lat="38.358308259942184" lon="16.428638606583167"><ele>63.0</ele><time>2026-05-03T07:14:55.046Z</time></trkpt><trkpt lat="38.35838801259021" lon="16.42853892624563"><ele>63.0</ele><time>2026-05-03T07:14:56.046Z</time></trkpt><trkpt lat="38.35847116147204" lon="16.428449064713647"><ele>63.0</ele><time>2026-05-03T07:14:57.046Z</time></trkpt><trkpt lat="38.35855873359129" lon="16.428374296673457"><ele>63.0</ele><time>2026-05-03T07:14:58.046Z</time></trkpt><trkpt lat="38.35865229366913" lon="16.428328474773103"><ele>63.0</ele><time>2026-05-03T07:14:59.046Z</time></trkpt><trkpt lat="38.35875198207778" lon="16.428318328940815"><ele>63.0</ele><time>2026-05-03T07:15:00.046Z</time></trkpt><trkpt lat="38.35885358880318" lon="16.428346786293297"><ele>63.0</ele><time>2026-05-03T07:15:01.046Z</time></trkpt><trkpt lat="38.358940518714974" lon="16.4283553415554"><ele>64.0</ele><time>2026-05-03T07:15:02.046Z</time></trkpt><trkpt lat="38.35903818808551" lon="16.428382956638984"><ele>65.0</ele><time>2026-05-03T07:15:03.046Z</time></trkpt><trkpt lat="38.3591387090545" lon="16.42840530217364"><ele>66.0</ele><time>2026-05-03T07:15:04.046Z</time></trkpt><trkpt lat="38.359243711292386" lon="16.428423555655275"><ele>67.0</ele><time>2026-05-03T07:15:05.046Z</time></trkpt><trkpt lat="38.359361752213275" lon="16.42844817756814"><ele>68.0</ele><time>2026-05-03T07:15:06.047Z</time></trkpt><trkpt lat="38.359484718838424" lon="16.428475582917127"><ele>68.0</ele><time>2026-05-03T07:15:07.047Z</time></trkpt><trkpt lat="38.359606250627" lon="16.42850212633477"><ele>68.0</ele><time>2026-05-03T07:15:08.047Z</time></trkpt><trkpt lat="38.35972528429372" lon="16.428519620166934"><ele>68.0</ele><time>2026-05-03T07:15:09.047Z</time></trkpt><trkpt lat="38.359834450439315" lon="16.428501112607464"><ele>68.0</ele><time>2026-05-03T07:15:10.047Z</time></trkpt><trkpt lat="38.35993485096679" lon="16.428453700141414"><ele>68.0</ele><time>2026-05-03T07:15:11.047Z</time></trkpt><trkpt lat="38.36003930273787" lon="16.4283821459167"><ele>68.0</ele><time>2026-05-03T07:15:12.047Z</time></trkpt><trkpt lat="38.36012779973741" lon="16.428290572492003"><ele>68.0</ele><time>2026-05-03T07:15:13.047Z</time></trkpt><trkpt lat="38.3601894982666" lon="16.428195351816576"><ele>68.0</ele><time>2026-05-03T07:15:14.047Z</time></trkpt><trkpt lat="38.36024822668174" lon="16.428087566023578"><ele>68.0</ele><time>2026-05-03T07:15:15.047Z</time></trkpt><trkpt lat="38.360310776317846" lon="16.42796728891428"><ele>68.0</ele><time>2026-05-03T07:15:16.047Z</time></trkpt><trkpt lat="38.360377273973626" lon="16.427840298919918"><ele>68.0</ele><time>2026-05-03T07:15:17.047Z</time></trkpt><trkpt lat="38.36044948556518" lon="16.427714771806343"><ele>68.0</ele><time>2026-05-03T07:15:18.047Z</time></trkpt><trkpt lat="38.36052792290656" lon="16.427587327927057"><ele>68.0</ele><time>2026-05-03T07:15:19.047Z</time></trkpt><trkpt lat="38.36060980122757" lon="16.42747039333789"><ele>68.5</ele><time>2026-05-03T07:15:20.047Z</time></trkpt><trkpt lat="38.36069330764124" lon="16.42735560212659"><ele>69.0</ele><time>2026-05-03T07:15:21.047Z</time></trkpt><trkpt lat="38.36079609801184" lon="16.42726960038021"><ele>69.5</ele><time>2026-05-03T07:15:22.047Z</time></trkpt><trkpt lat="38.36089520525627" lon="16.427181155141245"><ele>70.0</ele><time>2026-05-03T07:15:23.047Z</time></trkpt><trkpt lat="38.36099378241557" lon="16.42709308967064"><ele>70.0</ele><time>2026-05-03T07:15:24.047Z</time></trkpt><trkpt lat="38.36109725006195" lon="16.427000655244157"><ele>70.0</ele><time>2026-05-03T07:15:25.047Z</time></trkpt><trkpt lat="38.36119660547532" lon="16.42689050179969"><ele>70.0</ele><time>2026-05-03T07:15:26.047Z</time></trkpt><trkpt lat="38.361318783442336" lon="16.42680814365851"><ele>70.0</ele><time>2026-05-03T07:15:27.047Z</time></trkpt><trkpt lat="38.361430777521" lon="16.426711573040464"><ele>71.5</ele><time>2026-05-03T07:15:28.047Z</time></trkpt><trkpt lat="38.3615418593207" lon="16.4266076575203"><ele>73.0</ele><time>2026-05-03T07:15:29.047Z</time></trkpt><trkpt lat="38.36164940672345" lon="16.42650934625405"><ele>74.5</ele><time>2026-05-03T07:15:30.047Z</time></trkpt><trkpt lat="38.361760085625775" lon="16.426413911185715"><ele>76.0</ele><time>2026-05-03T07:15:31.047Z</time></trkpt><trkpt lat="38.36186386731692" lon="16.426326485877567"><ele>76.5</ele><time>2026-05-03T07:15:32.047Z</time></trkpt><trkpt lat="38.361969338948036" lon="16.426238316217955"><ele>77.0</ele><time>2026-05-03T07:15:33.047Z</time></trkpt><trkpt lat="38.36207341663805" lon="16.42614855890065"><ele>77.5</ele><time>2026-05-03T07:15:34.047Z</time></trkpt><trkpt lat="38.36217226022049" lon="16.426060443805138"><ele>78.0</ele><time>2026-05-03T07:15:35.047Z</time></trkpt><trkpt lat="38.36226993593291" lon="16.425968491954357"><ele>78.0</ele><time>2026-05-03T07:15:36.047Z</time></trkpt><trkpt lat="38.362364777989335" lon="16.42587994519219"><ele>78.0</ele><time>2026-05-03T07:15:37.047Z</time></trkpt><trkpt lat="38.36245915921922" lon="16.425785115540418"><ele>78.0</ele><time>2026-05-03T07:15:38.047Z</time></trkpt><trkpt lat="38.36255047401667" lon="16.42568961976676"><ele>78.0</ele><time>2026-05-03T07:15:39.047Z</time></trkpt><trkpt lat="38.362649759267434" lon="16.425594646756306"><ele>78.0</ele><time>2026-05-03T07:15:40.047Z</time></trkpt><trkpt lat="38.36275357899111" lon="16.425499558027322"><ele>78.0</ele><time>2026-05-03T07:15:41.048Z</time></trkpt><trkpt lat="38.362854881212485" lon="16.425406869908322"><ele>78.0</ele><time>2026-05-03T07:15:42.048Z</time></trkpt><trkpt lat="38.36297134443265" lon="16.425299168773094"><ele>78.0</ele><time>2026-05-03T07:15:43.048Z</time></trkpt><trkpt lat="38.36309222368516" lon="16.42520252624536"><ele>77.75</ele><time>2026-05-03T07:15:44.048Z</time></trkpt><trkpt lat="38.363186836518025" lon="16.425115758766967"><ele>77.5</ele><time>2026-05-03T07:15:45.048Z</time></trkpt><trkpt lat="38.36327663555915" lon="16.425030728003318"><ele>77.25</ele><time>2026-05-03T07:15:46.048Z</time></trkpt><trkpt lat="38.36335433527492" lon="16.42492969637365"><ele>77.0</ele><time>2026-05-03T07:15:47.048Z</time></trkpt><trkpt lat="38.36345809385484" lon="16.424840262553378"><ele>77.0</ele><time>2026-05-03T07:15:48.048Z</time></trkpt><trkpt lat="38.36356777991681" lon="16.42473923739584"><ele>77.0</ele><time>2026-05-03T07:15:49.048Z</time></trkpt><trkpt lat="38.36366873924529" lon="16.424643136511627"><ele>77.0</ele><time>2026-05-03T07:15:50.048Z</time></trkpt><trkpt lat="38.363777168919405" lon="16.424541619059585"><ele>77.0</ele><time>2026-05-03T07:15:51.048Z</time></trkpt><trkpt lat="38.36388869501192" lon="16.424435514200074"><ele>76.75</ele><time>2026-05-03T07:15:52.048Z</time></trkpt><trkpt lat="38.36399401629646" lon="16.42432499359627"><ele>76.5</ele><time>2026-05-03T07:15:53.048Z</time></trkpt><trkpt lat="38.36409416122832" lon="16.42420731917906"><ele>76.25</ele><time>2026-05-03T07:15:54.048Z</time></trkpt><trkpt lat="38.36418775385514" lon="16.424082600416185"><ele>76.0</ele><time>2026-05-03T07:15:55.048Z</time></trkpt><trkpt lat="38.36427660922161" lon="16.423953840745693"><ele>76.0</ele><time>2026-05-03T07:15:56.048Z</time></trkpt><trkpt lat="38.36436513551834" lon="16.423830463346903"><ele>76.0</ele><time>2026-05-03T07:15:57.048Z</time></trkpt><trkpt lat="38.364457231598166" lon="16.423705890439262"><ele>76.0</ele><time>2026-05-03T07:15:58.048Z</time></trkpt><trkpt lat="38.364552948909186" lon="16.4235853524676"><ele>76.0</ele><time>2026-05-03T07:15:59.048Z</time></trkpt><trkpt lat="38.364640151642966" lon="16.423461032697734"><ele>77.0</ele><time>2026-05-03T07:16:00.048Z</time></trkpt><trkpt lat="38.36472286882315" lon="16.423334227493438"><ele>78.0</ele><time>2026-05-03T07:16:01.048Z</time></trkpt><trkpt lat="38.364805606806826" lon="16.42321092027141"><ele>79.0</ele><time>2026-05-03T07:16:02.048Z</time></trkpt><trkpt lat="38.36489577931318" lon="16.42309406404912"><ele>80.0</ele><time>2026-05-03T07:16:03.048Z</time></trkpt><trkpt lat="38.364986340551674" lon="16.422961577150524"><ele>80.0</ele><time>2026-05-03T07:16:04.048Z</time></trkpt><trkpt lat="38.3650739797684" lon="16.422842408900124"><ele>80.0</ele><time>2026-05-03T07:16:05.048Z</time></trkpt><trkpt lat="38.36516716938944" lon="16.42272668351327"><ele>80.0</ele><time>2026-05-03T07:16:06.048Z</time></trkpt><trkpt lat="38.36526543013517" lon="16.422624123102775"><ele>80.0</ele><time>2026-05-03T07:16:07.048Z</time></trkpt><trkpt lat="38.365353637465475" lon="16.42250927865508"><ele>80.0</ele><time>2026-05-03T07:16:08.048Z</time></trkpt><trkpt lat="38.36541331350497" lon="16.422399448462603"><ele>80.0</ele><time>2026-05-03T07:16:09.048Z</time></trkpt><trkpt lat="38.36549899453591" lon="16.42226441486358"><ele>80.0</ele><time>2026-05-03T07:16:10.048Z</time></trkpt><trkpt lat="38.365592060675844" lon="16.42213856475241"><ele>80.0</ele><time>2026-05-03T07:16:11.048Z</time></trkpt><trkpt lat="38.365687652188726" lon="16.422028861248254"><ele>81.0</ele><time>2026-05-03T07:16:12.048Z</time></trkpt><trkpt lat="38.36578120496977" lon="16.421924078218556"><ele>82.0</ele><time>2026-05-03T07:16:13.048Z</time></trkpt><trkpt lat="38.36586739056639" lon="16.42180206288206"><ele>83.0</ele><time>2026-05-03T07:16:14.048Z</time></trkpt><trkpt lat="38.365930331521405" lon="16.421708311925705"><ele>84.0</ele><time>2026-05-03T07:16:15.048Z</time></trkpt><trkpt lat="38.36601796176312" lon="16.421585940017803"><ele>84.0</ele><time>2026-05-03T07:16:16.049Z</time></trkpt><trkpt lat="38.366074968939664" lon="16.421482125719592"><ele>84.0</ele><time>2026-05-03T07:16:17.049Z</time></trkpt><trkpt lat="38.36615448514124" lon="16.421359304899326"><ele>84.0</ele><time>2026-05-03T07:16:18.049Z</time></trkpt><trkpt lat="38.36624046141999" lon="16.421227638090468"><ele>84.0</ele><time>2026-05-03T07:16:19.049Z</time></trkpt><trkpt lat="38.3663301092989" lon="16.42110765475211"><ele>85.0</ele><time>2026-05-03T07:16:20.049Z</time></trkpt><trkpt lat="38.366406918628286" lon="16.420989722971143"><ele>86.0</ele><time>2026-05-03T07:16:21.049Z</time></trkpt><trkpt lat="38.366499263795426" lon="16.420870192550343"><ele>87.0</ele><time>2026-05-03T07:16:22.049Z</time></trkpt><trkpt lat="38.36658255076526" lon="16.420757541691778"><ele>88.0</ele><time>2026-05-03T07:16:23.049Z</time></trkpt><trkpt lat="38.366666642803004" lon="16.420644094760323"><ele>88.0</ele><time>2026-05-03T07:16:24.049Z</time></trkpt><trkpt lat="38.366755877040944" lon="16.42056261681573"><ele>88.0</ele><time>2026-05-03T07:16:25.049Z</time></trkpt><trkpt lat="38.366846877728875" lon="16.42048857652572"><ele>88.0</ele><time>2026-05-03T07:16:26.049Z</time></trkpt><trkpt lat="38.366927507267995" lon="16.420390345451338"><ele>88.0</ele><time>2026-05-03T07:16:27.049Z</time></trkpt><trkpt lat="38.36702357037762" lon="16.4202899066084"><ele>87.5</ele><time>2026-05-03T07:16:28.049Z</time></trkpt><trkpt lat="38.367114954060476" lon="16.42019466182287"><ele>87.0</ele><time>2026-05-03T07:16:29.049Z</time></trkpt><trkpt lat="38.3672124212206" lon="16.420106312104256"><ele>86.5</ele><time>2026-05-03T07:16:30.049Z</time></trkpt><trkpt lat="38.367307538472005" lon="16.420012608728644"><ele>86.0</ele><time>2026-05-03T07:16:31.049Z</time></trkpt><trkpt lat="38.36740454144483" lon="16.419929058406545"><ele>86.8</ele><time>2026-05-03T07:16:32.049Z</time></trkpt><trkpt lat="38.36750277251004" lon="16.41985800204277"><ele>87.6</ele><time>2026-05-03T07:16:33.049Z</time></trkpt><trkpt lat="38.36759155231868" lon="16.419782923119953"><ele>88.4</ele><time>2026-05-03T07:16:34.05Z</time></trkpt><trkpt lat="38.3676785106833" lon="16.419690361010204"><ele>89.2</ele><time>2026-05-03T07:16:35.05Z</time></trkpt><trkpt lat="38.367745643130334" lon="16.419600357324654"><ele>90.0</ele><time>2026-05-03T07:16:36.049Z</time></trkpt><trkpt lat="38.367825392465626" lon="16.419492886049024"><ele>90.0</ele><time>2026-05-03T07:16:37.05Z</time></trkpt><trkpt lat="38.36793293537037" lon="16.419352867581075"><ele>90.0</ele><time>2026-05-03T07:16:38.05Z</time></trkpt><trkpt lat="38.36799602202394" lon="16.41924456564643"><ele>90.0</ele><time>2026-05-03T07:16:39.049Z</time></trkpt><trkpt lat="38.36806753269908" lon="16.419112717404136"><ele>90.0</ele><time>2026-05-03T07:16:40.049Z</time></trkpt><trkpt lat="38.36813586915933" lon="16.418990281498495"><ele>90.25</ele><time>2026-05-03T07:16:41.049Z</time></trkpt><trkpt lat="38.36821438091535" lon="16.41886751494608"><ele>90.5</ele><time>2026-05-03T07:16:42.049Z</time></trkpt><trkpt lat="38.368284286451114" lon="16.418737389323805"><ele>90.75</ele><time>2026-05-03T07:16:43.049Z</time></trkpt><trkpt lat="38.3683478856714" lon="16.4186163955743"><ele>91.0</ele><time>2026-05-03T07:16:44.049Z</time></trkpt><trkpt lat="38.36843231536763" lon="16.418466175486643"><ele>91.0</ele><time>2026-05-03T07:16:45.049Z</time></trkpt><trkpt lat="38.36849983384468" lon="16.418337183403548"><ele>91.0</ele><time>2026-05-03T07:16:46.05Z</time></trkpt><trkpt lat="38.36858325107365" lon="16.418196685357348"><ele>91.0</ele><time>2026-05-03T07:16:47.05Z</time></trkpt><trkpt lat="38.36865654094699" lon="16.418070495059265"><ele>91.0</ele><time>2026-05-03T07:16:48.05Z</time></trkpt><trkpt lat="38.36872732849215" lon="16.417945358963497"><ele>90.75</ele><time>2026-05-03T07:16:49.05Z</time></trkpt><trkpt lat="38.36880181795033" lon="16.417804377444025"><ele>90.5</ele><time>2026-05-03T07:16:50.05Z</time></trkpt><trkpt lat="38.368872503647346" lon="16.417674025612925"><ele>90.25</ele><time>2026-05-03T07:16:51.05Z</time></trkpt><trkpt lat="38.36895401056511" lon="16.417543673989012"><ele>90.0</ele><time>2026-05-03T07:16:52.05Z</time></trkpt><trkpt lat="38.369032999175765" lon="16.417409862477243"><ele>91.0</ele><time>2026-05-03T07:16:53.05Z</time></trkpt><trkpt lat="38.369110437625025" lon="16.4172892558407"><ele>92.0</ele><time>2026-05-03T07:16:54.05Z</time></trkpt><trkpt lat="38.369188561458415" lon="16.41715140622404"><ele>93.0</ele><time>2026-05-03T07:16:55.05Z</time></trkpt><trkpt lat="38.369271315457034" lon="16.417013545313704"><ele>94.0</ele><time>2026-05-03T07:16:56.05Z</time></trkpt><trkpt lat="38.36934712836155" lon="16.41687442381766"><ele>94.0</ele><time>2026-05-03T07:16:57.05Z</time></trkpt><trkpt lat="38.369427146279314" lon="16.41673449022178"><ele>94.0</ele><time>2026-05-03T07:16:58.05Z</time></trkpt><trkpt lat="38.36950113610241" lon="16.416602615300047"><ele>94.0</ele><time>2026-05-03T07:16:59.05Z</time></trkpt><trkpt lat="38.3695746803484" lon="16.416457562929665"><ele>94.0</ele><time>2026-05-03T07:17:00.05Z</time></trkpt><trkpt lat="38.36965263455622" lon="16.416321234089988"><ele>95.75</ele><time>2026-05-03T07:17:01.05Z</time></trkpt><trkpt lat="38.36972397020466" lon="16.416194198014683"><ele>97.5</ele><time>2026-05-03T07:17:02.05Z</time></trkpt><trkpt lat="38.369796915172635" lon="16.416074895304597"><ele>99.25</ele><time>2026-05-03T07:17:03.05Z</time></trkpt><trkpt lat="38.36987566102202" lon="16.4159448895517"><ele>101.0</ele><time>2026-05-03T07:17:04.05Z</time></trkpt><trkpt lat="38.36995105679013" lon="16.41583756765248"><ele>101.0</ele><time>2026-05-03T07:17:05.05Z</time></trkpt><trkpt lat="38.37002799664587" lon="16.415749084035195"><ele>101.0</ele><time>2026-05-03T07:17:06.05Z</time></trkpt><trkpt lat="38.37010655773979" lon="16.41566564641463"><ele>101.0</ele><time>2026-05-03T07:17:07.05Z</time></trkpt><trkpt lat="38.37019875638468" lon="16.41558706260557"><ele>101.0</ele><time>2026-05-03T07:17:08.05Z</time></trkpt><trkpt lat="38.37028935627377" lon="16.41548798313691"><ele>101.0</ele><time>2026-05-03T07:17:09.05Z</time></trkpt><trkpt lat="38.37036863303636" lon="16.415389346936507"><ele>100.4</ele><time>2026-05-03T07:17:10.05Z</time></trkpt><trkpt lat="38.37044151356988" lon="16.415290529155893"><ele>99.8</ele><time>2026-05-03T07:17:11.05Z</time></trkpt><trkpt lat="38.37050559307462" lon="16.415200273579668"><ele>99.2</ele><time>2026-05-03T07:17:12.05Z</time></trkpt><trkpt lat="38.37056180893566" lon="16.415104257090356"><ele>98.60000000000001</ele><time>2026-05-03T07:17:13.051Z</time></trkpt><trkpt lat="38.37059809750106" lon="16.415026039620926"><ele>98.0</ele><time>2026-05-03T07:17:14.051Z</time></trkpt><trkpt lat="38.37063747725167" lon="16.414925771371802"><ele>99.2</ele><time>2026-05-03T07:17:15.051Z</time></trkpt><trkpt lat="38.37067624571025" lon="16.4148232086079"><ele>100.4</ele><time>2026-05-03T07:17:16.051Z</time></trkpt><trkpt lat="38.370716285574076" lon="16.414725498918695"><ele>101.60000000000001</ele><time>2026-05-03T07:17:17.051Z</time></trkpt><trkpt lat="38.37077246641011" lon="16.414601589501054"><ele>102.80000000000001</ele><time>2026-05-03T07:17:18.051Z</time></trkpt><trkpt lat="38.3708306154339" lon="16.414491651494487"><ele>104.0</ele><time>2026-05-03T07:17:19.051Z</time></trkpt><trkpt lat="38.37087900493523" lon="16.414388421694085"><ele>104.0</ele><time>2026-05-03T07:17:20.051Z</time></trkpt><trkpt lat="38.37093184710736" lon="16.414274885473702"><ele>104.0</ele><time>2026-05-03T07:17:21.051Z</time></trkpt><trkpt lat="38.37098668602238" lon="16.41416302486617"><ele>104.0</ele><time>2026-05-03T07:17:22.051Z</time></trkpt><trkpt lat="38.37104116961789" lon="16.414050614008833"><ele>104.0</ele><time>2026-05-03T07:17:23.051Z</time></trkpt><trkpt lat="38.371112472434355" lon="16.413943230646925"><ele>104.0</ele><time>2026-05-03T07:17:24.051Z</time></trkpt><trkpt lat="38.371185031632066" lon="16.413855562520062"><ele>103.6</ele><time>2026-05-03T07:17:25.051Z</time></trkpt><trkpt lat="38.37125742561366" lon="16.413767910955816"><ele>103.2</ele><time>2026-05-03T07:17:26.051Z</time></trkpt><trkpt lat="38.37134062505969" lon="16.41367479837048"><ele>102.8</ele><time>2026-05-03T07:17:27.051Z</time></trkpt><trkpt lat="38.3714049421372" lon="16.41359471971724"><ele>102.39999999999999</ele><time>2026-05-03T07:17:28.051Z</time></trkpt><trkpt lat="38.37148712031228" lon="16.413514995239687"><ele>102.0</ele><time>2026-05-03T07:17:29.051Z</time></trkpt><trkpt lat="38.371559564248926" lon="16.413431094916493"><ele>103.39999999999999</ele><time>2026-05-03T07:17:30.051Z</time></trkpt><trkpt lat="38.37163468550092" lon="16.413353163032212"><ele>104.8</ele><time>2026-05-03T07:17:31.051Z</time></trkpt><trkpt lat="38.37170172748201" lon="16.413280030284835"><ele>106.2</ele><time>2026-05-03T07:17:32.051Z</time></trkpt><trkpt lat="38.37177355000173" lon="16.413202224888117"><ele>107.6</ele><time>2026-05-03T07:17:33.051Z</time></trkpt><trkpt lat="38.37183849035331" lon="16.41311779808683"><ele>109.0</ele><time>2026-05-03T07:17:34.051Z</time></trkpt><trkpt lat="38.371877685168435" lon="16.413024260410143"><ele>109.16666666666667</ele><time>2026-05-03T07:17:35.051Z</time></trkpt><trkpt lat="38.37190894255491" lon="16.412921395173118"><ele>109.33333333333334</ele><time>2026-05-03T07:17:36.051Z</time></trkpt><trkpt lat="38.37193605267039" lon="16.412813142294816"><ele>109.5</ele><time>2026-05-03T07:17:37.051Z</time></trkpt><trkpt lat="38.37194095191568" lon="16.41270491230326"><ele>109.66666666666666</ele><time>2026-05-03T07:17:38.051Z</time></trkpt><trkpt lat="38.371942948832704" lon="16.412588377588804"><ele>109.83333333333333</ele><time>2026-05-03T07:17:39.051Z</time></trkpt><trkpt lat="38.37194988193261" lon="16.412469761372108"><ele>110.0</ele><time>2026-05-03T07:17:40.051Z</time></trkpt><trkpt lat="38.371945083361844" lon="16.412348660139042"><ele>110.0</ele><time>2026-05-03T07:17:41.051Z</time></trkpt><trkpt lat="38.37194081103133" lon="16.412225912104944"><ele>110.0</ele><time>2026-05-03T07:17:42.051Z</time></trkpt><trkpt lat="38.371956180052436" lon="16.412120990152214"><ele>110.0</ele><time>2026-05-03T07:17:43.051Z</time></trkpt><trkpt lat="38.37197999554575" lon="16.411970699723646"><ele>110.0</ele><time>2026-05-03T07:17:44.051Z</time></trkpt><trkpt lat="38.37196987915975" lon="16.411830350557267"><ele>110.0</ele><time>2026-05-03T07:17:45.051Z</time></trkpt><trkpt lat="38.37195656523715" lon="16.41169775419361"><ele>110.4</ele><time>2026-05-03T07:17:46.051Z</time></trkpt><trkpt lat="38.37195775223468" lon="16.411562494865883"><ele>110.8</ele><time>2026-05-03T07:17:47.051Z</time></trkpt><trkpt lat="38.3719691222093" lon="16.411428152814317"><ele>111.19999999999999</ele><time>2026-05-03T07:17:48.052Z</time></trkpt><trkpt lat="38.371981919889926" lon="16.411290545681116"><ele>111.6</ele><time>2026-05-03T07:17:49.052Z</time></trkpt><trkpt lat="38.37199795056547" lon="16.41116792074566"><ele>112.0</ele><time>2026-05-03T07:17:50.052Z</time></trkpt><trkpt lat="38.37202912170572" lon="16.411054299526967"><ele>112.0</ele><time>2026-05-03T07:17:51.052Z</time></trkpt><trkpt lat="38.372072811830044" lon="16.41092664608066"><ele>111.99999999999999</ele><time>2026-05-03T07:17:52.052Z</time></trkpt><trkpt lat="38.37216294212595" lon="16.410836820632642"><ele>111.99999999999999</ele><time>2026-05-03T07:17:53.052Z</time></trkpt><trkpt lat="38.372225067443416" lon="16.410753013760736"><ele>112.0</ele><time>2026-05-03T07:17:54.052Z</time></trkpt><trkpt lat="38.37226589080091" lon="16.41065402641744"><ele>112.0</ele><time>2026-05-03T07:17:55.052Z</time></trkpt><trkpt lat="38.372347976250374" lon="16.410575554905254"><ele>113.0</ele><time>2026-05-03T07:17:56.052Z</time></trkpt><trkpt lat="38.372379814424924" lon="16.410418907156743"><ele>113.99999999999999</ele><time>2026-05-03T07:17:57.052Z</time></trkpt><trkpt lat="38.37242351582947" lon="16.410297807277693"><ele>114.99999999999999</ele><time>2026-05-03T07:17:58.052Z</time></trkpt><trkpt lat="38.372457595292055" lon="16.4101701591749"><ele>116.0</ele><time>2026-05-03T07:17:59.052Z</time></trkpt><trkpt lat="38.37249606908886" lon="16.410044950765013"><ele>117.0</ele><time>2026-05-03T07:18:00.052Z</time></trkpt><trkpt lat="38.3725334627239" lon="16.409940537284562"><ele>117.0</ele><time>2026-05-03T07:18:01.052Z</time></trkpt><trkpt lat="38.372531912776324" lon="16.409817132261757"><ele>116.99999999999999</ele><time>2026-05-03T07:18:02.052Z</time></trkpt><trkpt lat="38.37252394635068" lon="16.409681518562667"><ele>116.99999999999999</ele><time>2026-05-03T07:18:03.052Z</time></trkpt><trkpt lat="38.37251333319699" lon="16.409549118959095"><ele>117.0</ele><time>2026-05-03T07:18:04.052Z</time></trkpt><trkpt lat="38.37251017059043" lon="16.40942041741582"><ele>117.0</ele><time>2026-05-03T07:18:05.052Z</time></trkpt><trkpt lat="38.37247401954993" lon="16.409327963501273"><ele>117.0</ele><time>2026-05-03T07:18:06.052Z</time></trkpt><trkpt lat="38.37246160355202" lon="16.409187885711948"><ele>116.99999999999999</ele><time>2026-05-03T07:18:07.052Z</time></trkpt><trkpt lat="38.37244667321555" lon="16.409035889804873"><ele>116.99999999999999</ele><time>2026-05-03T07:18:08.052Z</time></trkpt><trkpt lat="38.3724301978636" lon="16.408888897682985"><ele>117.0</ele><time>2026-05-03T07:18:09.052Z</time></trkpt><trkpt lat="38.3724322367249" lon="16.408784629622165"><ele>117.0</ele><time>2026-05-03T07:18:10.052Z</time></trkpt><trkpt lat="38.372469974128826" lon="16.408673801010714"><ele>117.0</ele><time>2026-05-03T07:18:12.052Z</time></trkpt><trkpt lat="38.37255032753522" lon="16.40861602039015"><ele>116.99999999999999</ele><time>2026-05-03T07:18:14.052Z</time></trkpt><trkpt lat="38.372602539780324" lon="16.408516607619138"><ele>116.99999999999999</ele><time>2026-05-03T07:18:16.052Z</time></trkpt><trkpt lat="38.37270277099674" lon="16.40851074245382"><ele>117.0</ele><time>2026-05-03T07:18:18.052Z</time></trkpt><trkpt lat="38.37279648022739" lon="16.40844683591997"><ele>117.0</ele><time>2026-05-03T07:18:20.052Z</time></trkpt><trkpt lat="38.37286157036992" lon="16.4084173611037"><ele>117.0</ele><time>2026-05-03T07:18:21.052Z</time></trkpt><trkpt lat="38.37292359375606" lon="16.408393271407498"><ele>117.00000000000001</ele><time>2026-05-03T07:18:22.052Z</time></trkpt><trkpt lat="38.37299079009184" lon="16.40836065165912"><ele>117.0</ele><time>2026-05-03T07:18:23.053Z</time></trkpt><trkpt lat="38.37304958519628" lon="16.408320455921956"><ele>117.0</ele><time>2026-05-03T07:18:24.053Z</time></trkpt><trkpt lat="38.37311394810088" lon="16.408255967962216"><ele>117.00000000000001</ele><time>2026-05-03T07:18:25.053Z</time></trkpt><trkpt lat="38.37316228213362" lon="16.408195841975687"><ele>117.0</ele><time>2026-05-03T07:18:26.053Z</time></trkpt><trkpt lat="38.373208651678375" lon="16.408112321158896"><ele>117.0</ele><time>2026-05-03T07:18:27.053Z</time></trkpt><trkpt lat="38.37324361480986" lon="16.408033036944932"><ele>119.0</ele><time>2026-05-03T07:18:28.053Z</time></trkpt><trkpt lat="38.37330091323439" lon="16.407905018485128"><ele>120.99999999999999</ele><time>2026-05-03T07:18:30.053Z</time></trkpt><trkpt lat="38.37340068686463" lon="16.407842354610853"><ele>122.99999999999999</ele><time>2026-05-03T07:18:32.053Z</time></trkpt><trkpt lat="38.3735277046557" lon="16.407857093454787"><ele>125.0</ele><time>2026-05-03T07:18:34.053Z</time></trkpt><trkpt lat="38.373566854104915" lon="16.407926661347254"><ele>127.0</ele><time>2026-05-03T07:18:35.053Z</time></trkpt><trkpt lat="38.373608399388765" lon="16.408001079639348"><ele>127.00000000000001</ele><time>2026-05-03T07:18:36.053Z</time></trkpt><trkpt lat="38.37365575141191" lon="16.408066613493876"><ele>127.0</ele><time>2026-05-03T07:18:37.053Z</time></trkpt><trkpt lat="38.37370660738214" lon="16.40814167442472"><ele>127.0</ele><time>2026-05-03T07:18:38.053Z</time></trkpt><trkpt lat="38.37374470050519" lon="16.408217433028575"><ele>127.0</ele><time>2026-05-03T07:18:39.053Z</time></trkpt><trkpt lat="38.37379421936307" lon="16.408303624252603"><ele>127.00000000000001</ele><time>2026-05-03T07:18:40.053Z</time></trkpt><trkpt lat="38.37384609121495" lon="16.408384364094708"><ele>127.0</ele><time>2026-05-03T07:18:41.053Z</time></trkpt><trkpt lat="38.37390598567264" lon="16.40844358934558"><ele>129.2</ele><time>2026-05-03T07:18:42.053Z</time></trkpt><trkpt lat="38.37401017130216" lon="16.408556338903793"><ele>131.39999999999998</ele><time>2026-05-03T07:18:44.053Z</time></trkpt><trkpt lat="38.37408137985162" lon="16.40860329173217"><ele>133.60000000000002</ele><time>2026-05-03T07:18:45.052Z</time></trkpt><trkpt lat="38.37415236440556" lon="16.4086538917531"><ele>135.8</ele><time>2026-05-03T07:18:46.052Z</time></trkpt><trkpt lat="38.374223918017684" lon="16.408701186276076"><ele>138.0</ele><time>2026-05-03T07:18:47.052Z</time></trkpt><trkpt lat="38.37430477846853" lon="16.408751083351042"><ele>138.0</ele><time>2026-05-03T07:18:48.053Z</time></trkpt><trkpt lat="38.37436597261514" lon="16.40880153295285"><ele>138.0</ele><time>2026-05-03T07:18:49.053Z</time></trkpt><trkpt lat="38.37444063649621" lon="16.408849071217364"><ele>138.0</ele><time>2026-05-03T07:18:50.053Z</time></trkpt><trkpt lat="38.37448885046317" lon="16.408905948051714"><ele>138.0</ele><time>2026-05-03T07:18:51.053Z</time></trkpt><trkpt lat="38.37456336716367" lon="16.409023441296007"><ele>138.0</ele><time>2026-05-03T07:18:53.053Z</time></trkpt><trkpt lat="38.37460413665755" lon="16.409115773555882"><ele>138.0</ele><time>2026-05-03T07:18:54.053Z</time></trkpt><trkpt lat="38.37461435691182" lon="16.409211890812323"><ele>137.5</ele><time>2026-05-03T07:18:55.053Z</time></trkpt><trkpt lat="38.37461772390821" lon="16.409382112155207"><ele>137.0</ele><time>2026-05-03T07:18:57.053Z</time></trkpt><trkpt lat="38.374572314104014" lon="16.40946306177529"><ele>136.5</ele><time>2026-05-03T07:18:58.053Z</time></trkpt><trkpt lat="38.37458466279258" lon="16.40954566262108"><ele>136.0</ele><time>2026-05-03T07:18:59.053Z</time></trkpt><trkpt lat="38.3745688263134" lon="16.409635112402917"><ele>135.5</ele><time>2026-05-03T07:19:00.053Z</time></trkpt><trkpt lat="38.37457347438748" lon="16.40973216476393"><ele>135.0</ele><time>2026-05-03T07:19:01.053Z</time></trkpt><trkpt lat="38.37456599164352" lon="16.409834597164387"><ele>136.16666666666666</ele><time>2026-05-03T07:19:02.053Z</time></trkpt><trkpt lat="38.37455266988303" lon="16.409930865145814"><ele>137.33333333333334</ele><time>2026-05-03T07:19:03.053Z</time></trkpt><trkpt lat="38.374530147007306" lon="16.410020620446378"><ele>138.5</ele><time>2026-05-03T07:19:04.053Z</time></trkpt><trkpt lat="38.37452134665602" lon="16.41012083886814"><ele>139.66666666666669</ele><time>2026-05-03T07:19:05.053Z</time></trkpt><trkpt lat="38.3745210937801" lon="16.41022437702048"><ele>140.83333333333334</ele><time>2026-05-03T07:19:06.053Z</time></trkpt><trkpt lat="38.37450444127591" lon="16.410307703536578"><ele>142.0</ele><time>2026-05-03T07:19:07.053Z</time></trkpt><trkpt lat="38.37444319324705" lon="16.410450452413517"><ele>142.16666666666669</ele><time>2026-05-03T07:19:09.053Z</time></trkpt><trkpt lat="38.37442285689811" lon="16.410526869479693"><ele>142.33333333333334</ele><time>2026-05-03T07:19:10.053Z</time></trkpt><trkpt lat="38.37438778213071" lon="16.410606724079482"><ele>142.5</ele><time>2026-05-03T07:19:11.053Z</time></trkpt><trkpt lat="38.37435416241101" lon="16.410682419144873"><ele>142.66666666666666</ele><time>2026-05-03T07:19:12.053Z</time></trkpt><trkpt lat="38.374333528810624" lon="16.410781613786774"><ele>142.83333333333331</ele><time>2026-05-03T07:19:13.053Z</time></trkpt><trkpt lat="38.374300309680784" lon="16.41089368445618"><ele>143.0</ele><time>2026-05-03T07:19:14.053Z</time></trkpt><trkpt lat="38.37426810762503" lon="16.410999315591948"><ele>143.0</ele><time>2026-05-03T07:19:15.053Z</time></trkpt><trkpt lat="38.3742206674758" lon="16.41111514736874"><ele>143.0</ele><time>2026-05-03T07:19:16.053Z</time></trkpt><trkpt lat="38.37419207463075" lon="16.411246162879575"><ele>143.0</ele><time>2026-05-03T07:19:17.053Z</time></trkpt><trkpt lat="38.37416546648527" lon="16.411372154494035"><ele>143.0</ele><time>2026-05-03T07:19:18.053Z</time></trkpt><trkpt lat="38.37413573677548" lon="16.41150535079121"><ele>143.0</ele><time>2026-05-03T07:19:19.054Z</time></trkpt><trkpt lat="38.37411305744169" lon="16.411611069724657"><ele>143.6</ele><time>2026-05-03T07:19:20.054Z</time></trkpt><trkpt lat="38.37412349978492" lon="16.411737421303865"><ele>144.20000000000002</ele><time>2026-05-03T07:19:21.054Z</time></trkpt><trkpt lat="38.37414091750678" lon="16.41186608841287"><ele>144.8</ele><time>2026-05-03T07:19:22.054Z</time></trkpt><trkpt lat="38.374172641389585" lon="16.41200836741941"><ele>145.4</ele><time>2026-05-03T07:19:23.054Z</time></trkpt><trkpt lat="38.37417016829972" lon="16.412112466654563"><ele>146.0</ele><time>2026-05-03T07:19:24.054Z</time></trkpt><trkpt lat="38.37420235946179" lon="16.41223654337633"><ele>146.6</ele><time>2026-05-03T07:19:25.054Z</time></trkpt><trkpt lat="38.37422494251203" lon="16.412369411743104"><ele>147.2</ele><time>2026-05-03T07:19:26.054Z</time></trkpt><trkpt lat="38.37423083605747" lon="16.412527430151087"><ele>147.8</ele><time>2026-05-03T07:19:27.054Z</time></trkpt><trkpt lat="38.37424769505032" lon="16.4126821693989"><ele>148.4</ele><time>2026-05-03T07:19:28.054Z</time></trkpt><trkpt lat="38.37424986700581" lon="16.412803028645953"><ele>149.0</ele><time>2026-05-03T07:19:29.054Z</time></trkpt><trkpt lat="38.37423701732567" lon="16.412937989187604"><ele>150.6</ele><time>2026-05-03T07:19:30.054Z</time></trkpt><trkpt lat="38.37421125368124" lon="16.413055783713762"><ele>152.2</ele><time>2026-05-03T07:19:31.054Z</time></trkpt><trkpt lat="38.37418937602077" lon="16.413182190331664"><ele>153.79999999999998</ele><time>2026-05-03T07:19:32.054Z</time></trkpt><trkpt lat="38.37418664900334" lon="16.413298360088532"><ele>155.4</ele><time>2026-05-03T07:19:33.054Z</time></trkpt><trkpt lat="38.37418841363278" lon="16.413426267268047"><ele>157.0</ele><time>2026-05-03T07:19:34.054Z</time></trkpt><trkpt lat="38.37412825705125" lon="16.413504091919602"><ele>157.0</ele><time>2026-05-03T07:19:35.054Z</time></trkpt><trkpt lat="38.37408318653971" lon="16.413610102849756"><ele>157.0</ele><time>2026-05-03T07:19:36.054Z</time></trkpt><trkpt lat="38.374047951295765" lon="16.41372216792858"><ele>157.0</ele><time>2026-05-03T07:19:37.054Z</time></trkpt><trkpt lat="38.37401685360719" lon="16.413816587771763"><ele>157.0</ele><time>2026-05-03T07:19:38.054Z</time></trkpt><trkpt lat="38.374010765662945" lon="16.41394305792908"><ele>157.0</ele><time>2026-05-03T07:19:39.054Z</time></trkpt><trkpt lat="38.374025204001626" lon="16.41406613359674"><ele>157.6</ele><time>2026-05-03T07:19:40.054Z</time></trkpt><trkpt lat="38.37406783067719" lon="16.414172257821686"><ele>158.2</ele><time>2026-05-03T07:19:41.054Z</time></trkpt><trkpt lat="38.37410170038302" lon="16.414266307357046"><ele>158.8</ele><time>2026-05-03T07:19:42.054Z</time></trkpt><trkpt lat="38.374138207900494" lon="16.414420706238165"><ele>159.4</ele><time>2026-05-03T07:19:43.054Z</time></trkpt><trkpt lat="38.374152996064915" lon="16.414568194720154"><ele>160.0</ele><time>2026-05-03T07:19:44.054Z</time></trkpt><trkpt lat="38.37413946527124" lon="16.414696865235396"><ele>160.83333333333334</ele><time>2026-05-03T07:19:45.054Z</time></trkpt><trkpt lat="38.37412294367713" lon="16.414795261978764"><ele>161.66666666666669</ele><time>2026-05-03T07:19:46.054Z</time></trkpt><trkpt lat="38.3740893920724" lon="16.414897831152633"><ele>162.5</ele><time>2026-05-03T07:19:47.054Z</time></trkpt><trkpt lat="38.374042382906175" lon="16.414975190137064"><ele>163.33333333333334</ele><time>2026-05-03T07:19:48.054Z</time></trkpt><trkpt lat="38.37402867987944" lon="16.41508864134973"><ele>164.16666666666666</ele><time>2026-05-03T07:19:49.054Z</time></trkpt><trkpt lat="38.37400423664964" lon="16.41520648133852"><ele>165.0</ele><time>2026-05-03T07:19:50.054Z</time></trkpt><trkpt lat="38.37395925302742" lon="16.415319176860226"><ele>165.0</ele><time>2026-05-03T07:19:51.054Z</time></trkpt><trkpt lat="38.373917876404676" lon="16.415407101201883"><ele>165.0</ele><time>2026-05-03T07:19:52.054Z</time></trkpt><trkpt lat="38.37386595982254" lon="16.415505949866276"><ele>165.0</ele><time>2026-05-03T07:19:53.054Z</time></trkpt><trkpt lat="38.37380258627587" lon="16.41560199550988"><ele>165.0</ele><time>2026-05-03T07:19:54.055Z</time></trkpt><trkpt lat="38.373759245564685" lon="16.415689428881436"><ele>165.0</ele><time>2026-05-03T07:19:55.055Z</time></trkpt><trkpt lat="38.37370584269866" lon="16.415774913517847"><ele>165.0</ele><time>2026-05-03T07:19:56.055Z</time></trkpt><trkpt lat="38.37363941311362" lon="16.41586557919743"><ele>164.16666666666666</ele><time>2026-05-03T07:19:57.055Z</time></trkpt><trkpt lat="38.37357534852651" lon="16.415962204377372"><ele>163.33333333333334</ele><time>2026-05-03T07:19:58.055Z</time></trkpt><trkpt lat="38.37351898739105" lon="16.416031678211347"><ele>162.5</ele><time>2026-05-03T07:19:59.055Z</time></trkpt><trkpt lat="38.37344782426638" lon="16.416106368465552"><ele>161.66666666666669</ele><time>2026-05-03T07:20:00.055Z</time></trkpt><trkpt lat="38.373390260628575" lon="16.416169622113028"><ele>160.83333333333334</ele><time>2026-05-03T07:20:01.055Z</time></trkpt><trkpt lat="38.37334980026107" lon="16.416258400710902"><ele>160.0</ele><time>2026-05-03T07:20:02.055Z</time></trkpt><trkpt lat="38.37331857662892" lon="16.41634340893024"><ele>163.0</ele><time>2026-05-03T07:20:03.055Z</time></trkpt><trkpt lat="38.37335210617641" lon="16.416457232747774"><ele>166.0</ele><time>2026-05-03T07:20:05.055Z</time></trkpt><trkpt lat="38.37340161675918" lon="16.41652655211494"><ele>169.0</ele><time>2026-05-03T07:20:07.055Z</time></trkpt><trkpt lat="38.3735590520476" lon="16.41649878083527"><ele>172.0</ele><time>2026-05-03T07:20:09.055Z</time></trkpt><trkpt lat="38.37364287793969" lon="16.416446346488584"><ele>175.0</ele><time>2026-05-03T07:20:10.055Z</time></trkpt><trkpt lat="38.373755442129394" lon="16.416357738673"><ele>176.0</ele><time>2026-05-03T07:20:12.055Z</time></trkpt><trkpt lat="38.373800346730384" lon="16.416278443358777"><ele>177.0</ele><time>2026-05-03T07:20:13.055Z</time></trkpt><trkpt lat="38.37392128084016" lon="16.416164160158353"><ele>178.0</ele><time>2026-05-03T07:20:15.055Z</time></trkpt><trkpt lat="38.373988273640315" lon="16.416115938811792"><ele>179.0</ele><time>2026-05-03T07:20:16.055Z</time></trkpt><trkpt lat="38.37406706011192" lon="16.4160486657038"><ele>180.0</ele><time>2026-05-03T07:20:17.055Z</time></trkpt><trkpt lat="38.37414256598685" lon="16.41597959452743"><ele>180.0</ele><time>2026-05-03T07:20:18.055Z</time></trkpt><trkpt lat="38.37421563360027" lon="16.41590255676917"><ele>180.0</ele><time>2026-05-03T07:20:19.055Z</time></trkpt><trkpt lat="38.37427557343142" lon="16.41583927263234"><ele>180.0</ele><time>2026-05-03T07:20:20.055Z</time></trkpt><trkpt lat="38.37434359559543" lon="16.41576889932013"><ele>180.0</ele><time>2026-05-03T07:20:21.055Z</time></trkpt><trkpt lat="38.37440193022953" lon="16.41569528564636"><ele>180.0</ele><time>2026-05-03T07:20:22.055Z</time></trkpt><trkpt lat="38.37445134469082" lon="16.415609685085226"><ele>180.0</ele><time>2026-05-03T07:20:23.055Z</time></trkpt><trkpt lat="38.37451215054344" lon="16.41555514417864"><ele>180.0</ele><time>2026-05-03T07:20:24.055Z</time></trkpt><trkpt lat="38.374596178227236" lon="16.41549737683403"><ele>180.0</ele><time>2026-05-03T07:20:25.055Z</time></trkpt><trkpt lat="38.37465686235879" lon="16.415416927551394"><ele>180.0</ele><time>2026-05-03T07:20:26.055Z</time></trkpt><trkpt lat="38.37471724657991" lon="16.415347567040385"><ele>180.0</ele><time>2026-05-03T07:20:27.055Z</time></trkpt><trkpt lat="38.374779500169716" lon="16.415269132062054"><ele>180.0</ele><time>2026-05-03T07:20:28.055Z</time></trkpt><trkpt lat="38.37483690770022" lon="16.41518858155895"><ele>180.0</ele><time>2026-05-03T07:20:29.056Z</time></trkpt><trkpt lat="38.374907938625185" lon="16.415098770902972"><ele>181.0</ele><time>2026-05-03T07:20:30.056Z</time></trkpt><trkpt lat="38.374962817045954" lon="16.415007546560975"><ele>182.0</ele><time>2026-05-03T07:20:31.056Z</time></trkpt><trkpt lat="38.37500201497514" lon="16.414919839427917"><ele>183.0</ele><time>2026-05-03T07:20:32.056Z</time></trkpt><trkpt lat="38.37504634047188" lon="16.414820677920737"><ele>184.0</ele><time>2026-05-03T07:20:33.056Z</time></trkpt><trkpt lat="38.37509046636829" lon="16.41471573616324"><ele>185.0</ele><time>2026-05-03T07:20:34.056Z</time></trkpt><trkpt lat="38.37512903953509" lon="16.414621008610965"><ele>186.0</ele><time>2026-05-03T07:20:35.056Z</time></trkpt><trkpt lat="38.37517103243856" lon="16.414523753853732"><ele>186.0</ele><time>2026-05-03T07:20:36.056Z</time></trkpt><trkpt lat="38.37522422515474" lon="16.414437102519283"><ele>186.0</ele><time>2026-05-03T07:20:37.056Z</time></trkpt><trkpt lat="38.375300858948556" lon="16.414348893606324"><ele>186.0</ele><time>2026-05-03T07:20:38.056Z</time></trkpt><trkpt lat="38.37537857812525" lon="16.41428062194457"><ele>186.0</ele><time>2026-05-03T07:20:39.056Z</time></trkpt><trkpt lat="38.375467692751215" lon="16.414226318793638"><ele>186.0</ele><time>2026-05-03T07:20:40.056Z</time></trkpt><trkpt lat="38.37553939049598" lon="16.414161570147325"><ele>189.0</ele><time>2026-05-03T07:20:41.056Z</time></trkpt><trkpt lat="38.375615890816235" lon="16.414107457672575"><ele>192.0</ele><time>2026-05-03T07:20:42.056Z</time></trkpt><trkpt lat="38.375692918583894" lon="16.41404820324471"><ele>195.0</ele><time>2026-05-03T07:20:43.056Z</time></trkpt><trkpt lat="38.37576979984292" lon="16.413990802994174"><ele>198.0</ele><time>2026-05-03T07:20:44.056Z</time></trkpt><trkpt lat="38.375854105922365" lon="16.413948143004276"><ele>201.0</ele><time>2026-05-03T07:20:45.056Z</time></trkpt><trkpt lat="38.37594192789872" lon="16.413901589017808"><ele>201.0</ele><time>2026-05-03T07:20:46.056Z</time></trkpt><trkpt lat="38.37602876685059" lon="16.41383735453511"><ele>201.0</ele><time>2026-05-03T07:20:47.056Z</time></trkpt><trkpt lat="38.37612481239408" lon="16.413782966655695"><ele>201.0</ele><time>2026-05-03T07:20:48.056Z</time></trkpt><trkpt lat="38.37620367020572" lon="16.4137172847558"><ele>201.0</ele><time>2026-05-03T07:20:49.056Z</time></trkpt><trkpt lat="38.376278071447544" lon="16.413657915819112"><ele>201.0</ele><time>2026-05-03T07:20:50.056Z</time></trkpt><trkpt lat="38.37635457155412" lon="16.413593500755447"><ele>201.20000000000002</ele><time>2026-05-03T07:20:51.056Z</time></trkpt><trkpt lat="38.37643170975282" lon="16.413523390900473"><ele>201.4</ele><time>2026-05-03T07:20:52.056Z</time></trkpt><trkpt lat="38.37651210771952" lon="16.41346735223669"><ele>201.6</ele><time>2026-05-03T07:20:53.056Z</time></trkpt><trkpt lat="38.376585949841626" lon="16.413399008541774"><ele>201.8</ele><time>2026-05-03T07:20:54.056Z</time></trkpt><trkpt lat="38.37666367152189" lon="16.413329296794092"><ele>202.0</ele><time>2026-05-03T07:20:55.056Z</time></trkpt><trkpt lat="38.376724380874656" lon="16.41325528919964"><ele>201.99999999999997</ele><time>2026-05-03T07:20:56.056Z</time></trkpt><trkpt lat="38.37676993166533" lon="16.41315849284321"><ele>202.0</ele><time>2026-05-03T07:20:57.057Z</time></trkpt><trkpt lat="38.376823613631075" lon="16.413069771060908"><ele>202.0</ele><time>2026-05-03T07:20:58.057Z</time></trkpt><trkpt lat="38.37687334302198" lon="16.412981794457075"><ele>202.0</ele><time>2026-05-03T07:20:59.057Z</time></trkpt><trkpt lat="38.376921539246936" lon="16.412893167278572"><ele>201.99999999999997</ele><time>2026-05-03T07:21:00.057Z</time></trkpt><trkpt lat="38.37697747479287" lon="16.41280864043276"><ele>202.0</ele><time>2026-05-03T07:21:01.057Z</time></trkpt><trkpt lat="38.37702828303192" lon="16.412726436893617"><ele>202.83333333333331</ele><time>2026-05-03T07:21:02.057Z</time></trkpt><trkpt lat="38.37708150714534" lon="16.41264690411896"><ele>203.66666666666666</ele><time>2026-05-03T07:21:03.057Z</time></trkpt><trkpt lat="38.377147590139714" lon="16.41258557600413"><ele>204.5</ele><time>2026-05-03T07:21:04.057Z</time></trkpt><trkpt lat="38.377223577681725" lon="16.412523781879663"><ele>205.33333333333331</ele><time>2026-05-03T07:21:05.057Z</time></trkpt><trkpt lat="38.37730496569869" lon="16.41245259709364"><ele>206.16666666666666</ele><time>2026-05-03T07:21:06.057Z</time></trkpt><trkpt lat="38.37738330566245" lon="16.412397995257116"><ele>207.0</ele><time>2026-05-03T07:21:07.057Z</time></trkpt><trkpt lat="38.37745750225979" lon="16.412331493075087"><ele>207.66666666666666</ele><time>2026-05-03T07:21:08.057Z</time></trkpt><trkpt lat="38.37752550345943" lon="16.412255862569804"><ele>208.33333333333331</ele><time>2026-05-03T07:21:09.057Z</time></trkpt><trkpt lat="38.377575370475704" lon="16.4121753010842"><ele>209.0</ele><time>2026-05-03T07:21:10.057Z</time></trkpt><trkpt lat="38.377643792741466" lon="16.41210662071215"><ele>209.66666666666666</ele><time>2026-05-03T07:21:11.057Z</time></trkpt><trkpt lat="38.377712695406686" lon="16.412028557231093"><ele>210.33333333333331</ele><time>2026-05-03T07:21:12.057Z</time></trkpt><trkpt lat="38.37776981400382" lon="16.411948137927634"><ele>211.0</ele><time>2026-05-03T07:21:13.057Z</time></trkpt><trkpt lat="38.377754164774075" lon="16.411849395378937"><ele>212.49999999999997</ele><time>2026-05-03T07:21:14.057Z</time></trkpt><trkpt lat="38.37777945943852" lon="16.411764008468452"><ele>214.0</ele><time>2026-05-03T07:21:15.057Z</time></trkpt><trkpt lat="38.37778436398325" lon="16.41167217644465"><ele>215.5</ele><time>2026-05-03T07:21:16.057Z</time></trkpt><trkpt lat="38.3777750728299" lon="16.411564656611628"><ele>217.0</ele><time>2026-05-03T07:21:17.057Z</time></trkpt><trkpt lat="38.37779239737759" lon="16.411457671116757"><ele>218.49999999999997</ele><time>2026-05-03T07:21:18.057Z</time></trkpt><trkpt lat="38.37782880960025" lon="16.41135216716041"><ele>220.0</ele><time>2026-05-03T07:21:19.057Z</time></trkpt><trkpt lat="38.37788581866189" lon="16.411239879888694"><ele>219.99999999999997</ele><time>2026-05-03T07:21:20.057Z</time></trkpt><trkpt lat="38.377932043552036" lon="16.411154962249466"><ele>220.0</ele><time>2026-05-03T07:21:21.057Z</time></trkpt><trkpt lat="38.378000605462375" lon="16.411088136068592"><ele>220.0</ele><time>2026-05-03T07:21:22.057Z</time></trkpt><trkpt lat="38.37807395783662" lon="16.411015132616736"><ele>220.0</ele><time>2026-05-03T07:21:23.057Z</time></trkpt><trkpt lat="38.37814493785657" lon="16.41095748401318"><ele>219.99999999999997</ele><time>2026-05-03T07:21:24.057Z</time></trkpt><trkpt lat="38.37821853913331" lon="16.41089890918048"><ele>220.0</ele><time>2026-05-03T07:21:25.057Z</time></trkpt><trkpt lat="38.37829634697441" lon="16.410826377528196"><ele>222.4</ele><time>2026-05-03T07:21:26.057Z</time></trkpt><trkpt lat="38.37837371276952" lon="16.41075942154268"><ele>224.8</ele><time>2026-05-03T07:21:27.057Z</time></trkpt><trkpt lat="38.378450510563425" lon="16.41067894236498"><ele>227.2</ele><time>2026-05-03T07:21:28.057Z</time></trkpt><trkpt lat="38.37852182898428" lon="16.41060873365444"><ele>229.6</ele><time>2026-05-03T07:21:29.057Z</time></trkpt><trkpt lat="38.37858033772705" lon="16.410549561405748"><ele>232.0</ele><time>2026-05-03T07:21:30.057Z</time></trkpt><trkpt lat="38.37864614185915" lon="16.41046610877431"><ele>232.2</ele><time>2026-05-03T07:21:31.057Z</time></trkpt><trkpt lat="38.37872444120691" lon="16.410370867580255"><ele>232.39999999999998</ele><time>2026-05-03T07:21:32.058Z</time></trkpt><trkpt lat="38.37879562236606" lon="16.41030140226868"><ele>232.60000000000002</ele><time>2026-05-03T07:21:33.058Z</time></trkpt><trkpt lat="38.378863659451675" lon="16.410235471508013"><ele>232.8</ele><time>2026-05-03T07:21:34.058Z</time></trkpt><trkpt lat="38.37894056027615" lon="16.41015106683878"><ele>233.0</ele><time>2026-05-03T07:21:35.058Z</time></trkpt><trkpt lat="38.379007453358724" lon="16.410070509419402"><ele>235.60000000000002</ele><time>2026-05-03T07:21:36.058Z</time></trkpt><trkpt lat="38.379057448527476" lon="16.409978646638834"><ele>238.20000000000002</ele><time>2026-05-03T07:21:37.058Z</time></trkpt><trkpt lat="38.3791164297949" lon="16.4098998644909"><ele>240.8</ele><time>2026-05-03T07:21:38.058Z</time></trkpt><trkpt lat="38.379180743495816" lon="16.40983206697291"><ele>243.4</ele><time>2026-05-03T07:21:39.058Z</time></trkpt><trkpt lat="38.379254956985065" lon="16.409768152047054"><ele>246.0</ele><time>2026-05-03T07:21:40.058Z</time></trkpt><trkpt lat="38.37938020759111" lon="16.40977631528932"><ele>246.0</ele><time>2026-05-03T07:21:42.058Z</time></trkpt><trkpt lat="38.379466804282586" lon="16.409825857189492"><ele>246.0</ele><time>2026-05-03T07:21:43.058Z</time></trkpt><trkpt lat="38.37953083342978" lon="16.409885050944734"><ele>246.0</ele><time>2026-05-03T07:21:44.058Z</time></trkpt><trkpt lat="38.37959761279756" lon="16.409974538241624"><ele>246.0</ele><time>2026-05-03T07:21:45.058Z</time></trkpt><trkpt lat="38.37963263960506" lon="16.41004148868102"><ele>246.0</ele><time>2026-05-03T07:21:46.058Z</time></trkpt><trkpt lat="38.3796656201316" lon="16.410115146934764"><ele>246.0</ele><time>2026-05-03T07:21:47.058Z</time></trkpt><trkpt lat="38.379696838805735" lon="16.410199177939276"><ele>246.42857142857144</ele><time>2026-05-03T07:21:48.058Z</time></trkpt><trkpt lat="38.37973649237586" lon="16.4102648531601"><ele>246.85714285714286</ele><time>2026-05-03T07:21:49.058Z</time></trkpt><trkpt lat="38.37978609998615" lon="16.410318908118956"><ele>247.28571428571428</ele><time>2026-05-03T07:21:50.058Z</time></trkpt><trkpt lat="38.379847156254364" lon="16.410364978979015"><ele>247.71428571428572</ele><time>2026-05-03T07:21:51.058Z</time></trkpt><trkpt lat="38.3799062828575" lon="16.410410488935923"><ele>248.1428571428571</ele><time>2026-05-03T07:21:52.058Z</time></trkpt><trkpt lat="38.379984007365046" lon="16.41045390636332"><ele>248.57142857142856</ele><time>2026-05-03T07:21:53.058Z</time></trkpt><trkpt lat="38.38005698417212" lon="16.410507940023205"><ele>249.0</ele><time>2026-05-03T07:21:54.058Z</time></trkpt><trkpt lat="38.380127579832084" lon="16.410554008210113"><ele>247.6</ele><time>2026-05-03T07:21:55.058Z</time></trkpt><trkpt lat="38.380201428901756" lon="16.41059668360605"><ele>246.2</ele><time>2026-05-03T07:21:56.058Z</time></trkpt><trkpt lat="38.380310819847395" lon="16.410542177090257"><ele>244.79999999999998</ele><time>2026-05-03T07:21:57.058Z</time></trkpt><trkpt lat="38.38045027596629" lon="16.41053898159011"><ele>243.39999999999998</ele><time>2026-05-03T07:22:00.058Z</time></trkpt><trkpt lat="38.38054343716711" lon="16.41047674282702"><ele>242.0</ele><time>2026-05-03T07:22:02.058Z</time></trkpt><trkpt lat="38.38060777166825" lon="16.410349471467516"><ele>242.0</ele><time>2026-05-03T07:22:04.058Z</time></trkpt><trkpt lat="38.38065015448054" lon="16.410269609517844"><ele>242.0</ele><time>2026-05-03T07:22:05.058Z</time></trkpt><trkpt lat="38.380702412627905" lon="16.410157970281695"><ele>242.0</ele><time>2026-05-03T07:22:06.058Z</time></trkpt><trkpt lat="38.38074353152589" lon="16.410068927067144"><ele>242.0</ele><time>2026-05-03T07:22:07.058Z</time></trkpt><trkpt lat="38.38076443062988" lon="16.409966614861425"><ele>242.0</ele><time>2026-05-03T07:22:08.059Z</time></trkpt><trkpt lat="38.38084028495756" lon="16.40983117051982"><ele>242.0</ele><time>2026-05-03T07:22:10.059Z</time></trkpt><trkpt lat="38.38090178220685" lon="16.40974674602293"><ele>242.0</ele><time>2026-05-03T07:22:11.059Z</time></trkpt><trkpt lat="38.381011124990295" lon="16.409671491672547"><ele>242.0</ele><time>2026-05-03T07:22:13.059Z</time></trkpt><trkpt lat="38.38110764533099" lon="16.40961517618631"><ele>242.0</ele><time>2026-05-03T07:22:15.059Z</time></trkpt><trkpt lat="38.38122138305149" lon="16.409670443664183"><ele>242.0</ele><time>2026-05-03T07:22:17.059Z</time></trkpt><trkpt lat="38.38134772561403" lon="16.409653768177936"><ele>241.33333333333334</ele><time>2026-05-03T07:22:19.059Z</time></trkpt><trkpt lat="38.381410110774496" lon="16.409634153975365"><ele>240.66666666666669</ele><time>2026-05-03T07:22:20.059Z</time></trkpt><trkpt lat="38.38154907330539" lon="16.409657416633536"><ele>240.0</ele><time>2026-05-03T07:22:22.058Z</time></trkpt><trkpt lat="38.38162004931708" lon="16.4096770228086"><ele>239.33333333333331</ele><time>2026-05-03T07:22:23.058Z</time></trkpt><trkpt lat="38.38167487294141" lon="16.409733047821064"><ele>238.66666666666666</ele><time>2026-05-03T07:22:24.058Z</time></trkpt><trkpt lat="38.38173265609409" lon="16.409787246826497"><ele>238.0</ele><time>2026-05-03T07:22:25.058Z</time></trkpt><trkpt lat="38.3817880177352" lon="16.409846000933506"><ele>237.99999999999997</ele><time>2026-05-03T07:22:26.058Z</time></trkpt><trkpt lat="38.38186408410991" lon="16.409967790066354"><ele>238.0</ele><time>2026-05-03T07:22:28.058Z</time></trkpt><trkpt lat="38.381907010994" lon="16.410027835166396"><ele>238.0</ele><time>2026-05-03T07:22:29.058Z</time></trkpt><trkpt lat="38.38195901437437" lon="16.41010057626053"><ele>238.0</ele><time>2026-05-03T07:22:30.058Z</time></trkpt><trkpt lat="38.382011309458555" lon="16.410173725373305"><ele>237.99999999999997</ele><time>2026-05-03T07:22:31.058Z</time></trkpt><trkpt lat="38.38206909239922" lon="16.410254550772095"><ele>238.0</ele><time>2026-05-03T07:22:32.058Z</time></trkpt><trkpt lat="38.38212406105866" lon="16.410331439639503"><ele>237.99999999999997</ele><time>2026-05-03T07:22:33.058Z</time></trkpt><trkpt lat="38.38217645703314" lon="16.41040473001315"><ele>238.0</ele><time>2026-05-03T07:22:34.058Z</time></trkpt><trkpt lat="38.3822296222661" lon="16.41047772189141"><ele>238.0</ele><time>2026-05-03T07:22:35.058Z</time></trkpt><trkpt lat="38.382298616162444" lon="16.41054316369191"><ele>238.0</ele><time>2026-05-03T07:22:36.058Z</time></trkpt><trkpt lat="38.38235265387046" lon="16.410625291676837"><ele>237.99999999999997</ele><time>2026-05-03T07:22:37.058Z</time></trkpt><trkpt lat="38.38240886500344" lon="16.410710884047507"><ele>238.0</ele><time>2026-05-03T07:22:38.058Z</time></trkpt><trkpt lat="38.38247220501876" lon="16.410805085982933"><ele>236.2</ele><time>2026-05-03T07:22:39.058Z</time></trkpt><trkpt lat="38.382537358535224" lon="16.4108987138916"><ele>234.4</ele><time>2026-05-03T07:22:40.058Z</time></trkpt><trkpt lat="38.38259714381865" lon="16.410983884981963"><ele>232.59999999999997</ele><time>2026-05-03T07:22:41.058Z</time></trkpt><trkpt lat="38.38265763477897" lon="16.41107085256393"><ele>230.79999999999998</ele><time>2026-05-03T07:22:42.058Z</time></trkpt><trkpt lat="38.38271402520744" lon="16.411150735077793"><ele>229.0</ele><time>2026-05-03T07:22:43.058Z</time></trkpt><trkpt lat="38.382768324113584" lon="16.4112378371051"><ele>228.99999999999997</ele><time>2026-05-03T07:22:44.059Z</time></trkpt><trkpt lat="38.38281475852024" lon="16.411311227322702"><ele>229.0</ele><time>2026-05-03T07:22:45.059Z</time></trkpt><trkpt lat="38.382882197745296" lon="16.411357270318906"><ele>229.0</ele><time>2026-05-03T07:22:46.059Z</time></trkpt><trkpt lat="38.38295715178469" lon="16.41137401741261"><ele>229.0</ele><time>2026-05-03T07:22:47.059Z</time></trkpt><trkpt lat="38.38300571778306" lon="16.411287915220907"><ele>228.99999999999997</ele><time>2026-05-03T07:22:48.059Z</time></trkpt><trkpt lat="38.38306727720298" lon="16.411232130496103"><ele>229.0</ele><time>2026-05-03T07:22:50.059Z</time></trkpt><trkpt lat="38.38312082650551" lon="16.411172462888413"><ele>229.6</ele><time>2026-05-03T07:22:51.058Z</time></trkpt><trkpt lat="38.38318522180098" lon="16.41113585626757"><ele>230.2</ele><time>2026-05-03T07:22:52.058Z</time></trkpt><trkpt lat="38.38327542265497" lon="16.411072256868394"><ele>230.79999999999998</ele><time>2026-05-03T07:22:54.059Z</time></trkpt><trkpt lat="38.38338941881102" lon="16.41107599965895"><ele>231.39999999999998</ele><time>2026-05-03T07:22:56.059Z</time></trkpt><trkpt lat="38.38349116975018" lon="16.411126865092125"><ele>232.0</ele><time>2026-05-03T07:22:57.058Z</time></trkpt><trkpt lat="38.383440475876014" lon="16.41124522368465"><ele>231.99999999999997</ele><time>2026-05-03T07:22:59.058Z</time></trkpt><trkpt lat="38.38339494512491" lon="16.411302897972476"><ele>232.0</ele><time>2026-05-03T07:23:00.058Z</time></trkpt><trkpt lat="38.38334653955594" lon="16.411360979274214"><ele>232.0</ele><time>2026-05-03T07:23:01.059Z</time></trkpt><trkpt lat="38.38325271903743" lon="16.411473553264482"><ele>232.0</ele><time>2026-05-03T07:23:03.059Z</time></trkpt><trkpt lat="38.38319924144299" lon="16.411537720388157"><ele>231.99999999999997</ele><time>2026-05-03T07:23:04.058Z</time></trkpt><trkpt lat="38.383151981166826" lon="16.4116035933071"><ele>232.0</ele><time>2026-05-03T07:23:05.058Z</time></trkpt><trkpt lat="38.38307174358067" lon="16.41170835020752"><ele>229.2</ele><time>2026-05-03T07:23:06.058Z</time></trkpt><trkpt lat="38.38296555855815" lon="16.4117703269727"><ele>226.39999999999998</ele><time>2026-05-03T07:23:07.058Z</time></trkpt><trkpt lat="38.38282414414614" lon="16.411701461843656"><ele>223.60000000000002</ele><time>2026-05-03T07:23:08.058Z</time></trkpt><trkpt lat="38.382761188415664" lon="16.4116492792889"><ele>220.8</ele><time>2026-05-03T07:23:09.058Z</time></trkpt><trkpt lat="38.3827076663564" lon="16.411602747360867"><ele>218.0</ele><time>2026-05-03T07:23:10.058Z</time></trkpt><trkpt lat="38.38264094045743" lon="16.411548556626155"><ele>218.0</ele><time>2026-05-03T07:23:11.058Z</time></trkpt><trkpt lat="38.38257105638155" lon="16.41150440254738"><ele>218.0</ele><time>2026-05-03T07:23:12.058Z</time></trkpt><trkpt lat="38.382490747091815" lon="16.41147452246954"><ele>218.0</ele><time>2026-05-03T07:23:13.058Z</time></trkpt><trkpt lat="38.38240829042163" lon="16.411470356501177"><ele>218.0</ele><time>2026-05-03T07:23:14.058Z</time></trkpt><trkpt lat="38.382325744950485" lon="16.411487491274354"><ele>218.0</ele><time>2026-05-03T07:23:15.058Z</time></trkpt><trkpt lat="38.382155041186664" lon="16.411542143404734"><ele>217.75</ele><time>2026-05-03T07:23:17.058Z</time></trkpt><trkpt lat="38.38205471049428" lon="16.411556959918112"><ele>217.5</ele><time>2026-05-03T07:23:18.058Z</time></trkpt><trkpt lat="38.38195086659799" lon="16.411635327870837"><ele>217.25</ele><time>2026-05-03T07:23:19.058Z</time></trkpt><trkpt lat="38.38184662884458" lon="16.411684436545226"><ele>217.0</ele><time>2026-05-03T07:23:20.058Z</time></trkpt><trkpt lat="38.3817182563238" lon="16.411707899612246"><ele>217.0</ele><time>2026-05-03T07:23:21.059Z</time></trkpt><trkpt lat="38.38161975677243" lon="16.41174297999333"><ele>217.0</ele><time>2026-05-03T07:23:22.059Z</time></trkpt><trkpt lat="38.381500355753325" lon="16.411803112620913"><ele>217.0</ele><time>2026-05-03T07:23:23.059Z</time></trkpt><trkpt lat="38.381402168282314" lon="16.41188303593966"><ele>217.0</ele><time>2026-05-03T07:23:24.059Z</time></trkpt><trkpt lat="38.381314548755164" lon="16.411989404328732"><ele>218.39999999999998</ele><time>2026-05-03T07:23:25.059Z</time></trkpt><trkpt lat="38.38125050772418" lon="16.4120713745415"><ele>219.79999999999998</ele><time>2026-05-03T07:23:26.059Z</time></trkpt><trkpt lat="38.38118295298609" lon="16.412155672722964"><ele>221.2</ele><time>2026-05-03T07:23:27.059Z</time></trkpt><trkpt lat="38.38112548468786" lon="16.412227384559753"><ele>222.6</ele><time>2026-05-03T07:23:28.059Z</time></trkpt><trkpt lat="38.38104613914208" lon="16.41232819663908"><ele>224.0</ele><time>2026-05-03T07:23:29.059Z</time></trkpt><trkpt lat="38.38098430734754" lon="16.412429838757017"><ele>218.5</ele><time>2026-05-03T07:23:30.059Z</time></trkpt><trkpt lat="38.38095085060733" lon="16.412527442112797"><ele>213.0</ele><time>2026-05-03T07:23:31.059Z</time></trkpt><trkpt lat="38.380980860714196" lon="16.412626809147138"><ele>207.5</ele><time>2026-05-03T07:23:33.059Z</time></trkpt><trkpt lat="38.38099420738543" lon="16.412365966394624"><ele>202.0</ele><time>2026-05-03T07:23:46.059Z</time></trkpt><trkpt lat="38.38106607965321" lon="16.412175510076505"><ele>202.5</ele><time>2026-05-03T07:23:47.059Z</time></trkpt><trkpt lat="38.38129236231954" lon="16.412002857196583"><ele>203.0</ele><time>2026-05-03T07:23:48.059Z</time></trkpt><trkpt lat="38.381368675585115" lon="16.41192391664929"><ele>203.5</ele><time>2026-05-03T07:23:49.059Z</time></trkpt><trkpt lat="38.381438402129625" lon="16.41190409849823"><ele>204.0</ele><time>2026-05-03T07:23:50.059Z</time></trkpt><trkpt lat="38.38196378328817" lon="16.412307680066384"><ele>202.0</ele><time>2026-05-03T07:23:52.059Z</time></trkpt><trkpt lat="38.382376526712584" lon="16.41234853470712"><ele>200.0</ele><time>2026-05-03T07:23:54.059Z</time></trkpt><trkpt lat="38.382469888190414" lon="16.41242969178601"><ele>200.00000000000003</ele><time>2026-05-03T07:23:55.059Z</time></trkpt><trkpt lat="38.382515749495894" lon="16.412526804776228"><ele>200.0</ele><time>2026-05-03T07:23:56.06Z</time></trkpt><trkpt lat="38.38258223507445" lon="16.412616142900273"><ele>200.0</ele><time>2026-05-03T07:23:57.06Z</time></trkpt><trkpt lat="38.382628203219845" lon="16.41271077654949"><ele>200.0</ele><time>2026-05-03T07:23:58.06Z</time></trkpt><trkpt lat="38.38267088170479" lon="16.41280004408162"><ele>200.00000000000003</ele><time>2026-05-03T07:23:59.06Z</time></trkpt><trkpt lat="38.38271476064243" lon="16.41289245390685"><ele>200.0</ele><time>2026-05-03T07:24:00.06Z</time></trkpt><trkpt lat="38.3827609147242" lon="16.413006302930768"><ele>197.6</ele><time>2026-05-03T07:24:01.06Z</time></trkpt><trkpt lat="38.382797806338274" lon="16.413131683055035"><ele>195.2</ele><time>2026-05-03T07:24:02.06Z</time></trkpt><trkpt lat="38.38281659494452" lon="16.413251428445964"><ele>192.8</ele><time>2026-05-03T07:24:03.06Z</time></trkpt><trkpt lat="38.382843121677936" lon="16.413349165533038"><ele>190.4</ele><time>2026-05-03T07:24:04.06Z</time></trkpt><trkpt lat="38.38287109735251" lon="16.413456774665462"><ele>188.0</ele><time>2026-05-03T07:24:05.06Z</time></trkpt><trkpt lat="38.38289813971808" lon="16.413586136925613"><ele>188.0</ele><time>2026-05-03T07:24:06.06Z</time></trkpt><trkpt lat="38.38292069200742" lon="16.413690288378216"><ele>188.0</ele><time>2026-05-03T07:24:07.06Z</time></trkpt><trkpt lat="38.38294548017579" lon="16.413907285073368"><ele>188.0</ele><time>2026-05-03T07:24:09.06Z</time></trkpt><trkpt lat="38.38293385699788" lon="16.41402117511478"><ele>188.0</ele><time>2026-05-03T07:24:10.06Z</time></trkpt><trkpt lat="38.3829282456199" lon="16.414134331986407"><ele>188.0</ele><time>2026-05-03T07:24:11.06Z</time></trkpt><trkpt lat="38.38292322630542" lon="16.414235549456865"><ele>186.25</ele><time>2026-05-03T07:24:12.06Z</time></trkpt><trkpt lat="38.38291564330041" lon="16.414380290074718"><ele>184.5</ele><time>2026-05-03T07:24:13.06Z</time></trkpt><trkpt lat="38.38290630515092" lon="16.414553104972207"><ele>182.75</ele><time>2026-05-03T07:24:14.06Z</time></trkpt><trkpt lat="38.382891947797106" lon="16.414701133095964"><ele>181.0</ele><time>2026-05-03T07:24:15.06Z</time></trkpt><trkpt lat="38.38293011092104" lon="16.41481846767112"><ele>179.8</ele><time>2026-05-03T07:24:16.06Z</time></trkpt><trkpt lat="38.38296497588189" lon="16.414918010687202"><ele>178.60000000000002</ele><time>2026-05-03T07:24:17.06Z</time></trkpt><trkpt lat="38.38299523911089" lon="16.41500489319913"><ele>177.4</ele><time>2026-05-03T07:24:18.06Z</time></trkpt><trkpt lat="38.38306869576153" lon="16.415135673885406"><ele>176.2</ele><time>2026-05-03T07:24:20.06Z</time></trkpt><trkpt lat="38.38311855824174" lon="16.415221624957947"><ele>175.0</ele><time>2026-05-03T07:24:21.06Z</time></trkpt><trkpt lat="38.38317699033174" lon="16.415322348007624"><ele>177.4</ele><time>2026-05-03T07:24:23.06Z</time></trkpt><trkpt lat="38.38321882202212" lon="16.41539445590285"><ele>179.8</ele><time>2026-05-03T07:24:24.06Z</time></trkpt><trkpt lat="38.38326163227311" lon="16.415468250629207"><ele>182.2</ele><time>2026-05-03T07:24:25.06Z</time></trkpt><trkpt lat="38.383324083598694" lon="16.41561128183969"><ele>184.6</ele><time>2026-05-03T07:24:27.06Z</time></trkpt><trkpt lat="38.38338853548479" lon="16.415689172907488"><ele>187.0</ele><time>2026-05-03T07:24:28.06Z</time></trkpt><trkpt lat="38.38346310323986" lon="16.415799584858693"><ele>187.0</ele><time>2026-05-03T07:24:29.06Z</time></trkpt><trkpt lat="38.38355841095053" lon="16.415906800870754"><ele>187.0</ele><time>2026-05-03T07:24:30.06Z</time></trkpt><trkpt lat="38.38364685622692" lon="16.416002604247662"><ele>187.0</ele><time>2026-05-03T07:24:31.061Z</time></trkpt><trkpt lat="38.383739705783384" lon="16.41603170865668"><ele>187.0</ele><time>2026-05-03T07:24:32.061Z</time></trkpt><trkpt lat="38.38383544320279" lon="16.416053557204517"><ele>187.0</ele><time>2026-05-03T07:24:33.061Z</time></trkpt><trkpt lat="38.38393427371302" lon="16.416075768710293"><ele>187.6</ele><time>2026-05-03T07:24:34.061Z</time></trkpt><trkpt lat="38.38402885794525" lon="16.416097372774352"><ele>188.2</ele><time>2026-05-03T07:24:35.061Z</time></trkpt><trkpt lat="38.3841247621334" lon="16.41611698253597"><ele>188.8</ele><time>2026-05-03T07:24:36.061Z</time></trkpt><trkpt lat="38.38422465097394" lon="16.416132816864906"><ele>189.4</ele><time>2026-05-03T07:24:37.061Z</time></trkpt><trkpt lat="38.384335036152116" lon="16.41614476827816"><ele>190.0</ele><time>2026-05-03T07:24:38.061Z</time></trkpt><trkpt lat="38.38443245078688" lon="16.416135390482733"><ele>190.0</ele><time>2026-05-03T07:24:39.061Z</time></trkpt><trkpt lat="38.38452542823431" lon="16.416169130555442"><ele>190.0</ele><time>2026-05-03T07:24:40.061Z</time></trkpt><trkpt lat="38.38463144210804" lon="16.416191394211037"><ele>190.0</ele><time>2026-05-03T07:24:41.061Z</time></trkpt><trkpt lat="38.38473446074593" lon="16.416213192438438"><ele>190.0</ele><time>2026-05-03T07:24:42.061Z</time></trkpt><trkpt lat="38.38485866824292" lon="16.416206279890663"><ele>190.0</ele><time>2026-05-03T07:24:43.061Z</time></trkpt><trkpt lat="38.38495012280432" lon="16.416221806312414"><ele>189.6</ele><time>2026-05-03T07:24:44.061Z</time></trkpt><trkpt lat="38.385055653716684" lon="16.41621287301821"><ele>189.2</ele><time>2026-05-03T07:24:45.061Z</time></trkpt><trkpt lat="38.38517127271581" lon="16.416221774021885"><ele>188.8</ele><time>2026-05-03T07:24:46.061Z</time></trkpt><trkpt lat="38.385276291323635" lon="16.41623312121511"><ele>188.4</ele><time>2026-05-03T07:24:47.061Z</time></trkpt><trkpt lat="38.385378921880914" lon="16.41624090963578"><ele>188.0</ele><time>2026-05-03T07:24:48.061Z</time></trkpt><trkpt lat="38.385481809781204" lon="16.416245333195352"><ele>186.33333333333331</ele><time>2026-05-03T07:24:49.061Z</time></trkpt><trkpt lat="38.38557950953718" lon="16.416248821191665"><ele>184.66666666666666</ele><time>2026-05-03T07:24:50.061Z</time></trkpt><trkpt lat="38.385667290138805" lon="16.4162528980471"><ele>183.0</ele><time>2026-05-03T07:24:51.061Z</time></trkpt><trkpt lat="38.38575702878959" lon="16.41626402403829"><ele>181.33333333333334</ele><time>2026-05-03T07:24:52.061Z</time></trkpt><trkpt lat="38.38584121929344" lon="16.416273755415244"><ele>179.66666666666669</ele><time>2026-05-03T07:24:53.061Z</time></trkpt><trkpt lat="38.3859267390518" lon="16.416256706739166"><ele>178.0</ele><time>2026-05-03T07:24:54.061Z</time></trkpt><trkpt lat="38.38599800896729" lon="16.41623277631904"><ele>178.0</ele><time>2026-05-03T07:24:55.061Z</time></trkpt><trkpt lat="38.38606457698665" lon="16.41617027063394"><ele>178.0</ele><time>2026-05-03T07:24:56.061Z</time></trkpt><trkpt lat="38.38610768019529" lon="16.416093374217716"><ele>178.0</ele><time>2026-05-03T07:24:57.061Z</time></trkpt><trkpt lat="38.38614142304606" lon="16.416012248295573"><ele>178.0</ele><time>2026-05-03T07:24:58.061Z</time></trkpt><trkpt lat="38.386177515601716" lon="16.415920820691365"><ele>178.0</ele><time>2026-05-03T07:24:59.061Z</time></trkpt><trkpt lat="38.386217091634926" lon="16.4158347326987"><ele>178.0</ele><time>2026-05-03T07:25:00.061Z</time></trkpt><trkpt lat="38.38627949749276" lon="16.415731167970282"><ele>176.5</ele><time>2026-05-03T07:25:01.061Z</time></trkpt><trkpt lat="38.38634833955796" lon="16.415658661532206"><ele>175.0</ele><time>2026-05-03T07:25:02.061Z</time></trkpt><trkpt lat="38.38639607890183" lon="16.415600851954235"><ele>173.5</ele><time>2026-05-03T07:25:03.062Z</time></trkpt><trkpt lat="38.38644644939159" lon="16.415538403951388"><ele>172.0</ele><time>2026-05-03T07:25:04.062Z</time></trkpt><trkpt lat="38.38652610080708" lon="16.41544114189305"><ele>170.5</ele><time>2026-05-03T07:25:05.062Z</time></trkpt><trkpt lat="38.38659096397416" lon="16.41535879898022"><ele>169.0</ele><time>2026-05-03T07:25:06.061Z</time></trkpt><trkpt lat="38.386652461393965" lon="16.41523663844445"><ele>169.0</ele><time>2026-05-03T07:25:08.062Z</time></trkpt><trkpt lat="38.386698713067844" lon="16.415180371317152"><ele>169.0</ele><time>2026-05-03T07:25:09.062Z</time></trkpt><trkpt lat="38.38679311319432" lon="16.415070182998534"><ele>169.0</ele><time>2026-05-03T07:25:11.062Z</time></trkpt><trkpt lat="38.38689295382411" lon="16.41493455584236"><ele>169.0</ele><time>2026-05-03T07:25:13.062Z</time></trkpt><trkpt lat="38.3869486948037" lon="16.414867177602446"><ele>169.0</ele><time>2026-05-03T07:25:14.062Z</time></trkpt><trkpt lat="38.387000274049335" lon="16.414762485880985"><ele>168.42857142857144</ele><time>2026-05-03T07:25:15.062Z</time></trkpt><trkpt lat="38.38703361830133" lon="16.414649189703542"><ele>167.85714285714286</ele><time>2026-05-03T07:25:16.062Z</time></trkpt><trkpt lat="38.387084454167436" lon="16.414581201754984"><ele>167.28571428571428</ele><time>2026-05-03T07:25:17.062Z</time></trkpt><trkpt lat="38.387142009102206" lon="16.41454778422359"><ele>166.71428571428572</ele><time>2026-05-03T07:25:18.062Z</time></trkpt><trkpt lat="38.387208923189526" lon="16.414554014354312"><ele>166.14285714285714</ele><time>2026-05-03T07:25:19.062Z</time></trkpt><trkpt lat="38.38725726430799" lon="16.414629163527817"><ele>165.57142857142858</ele><time>2026-05-03T07:25:20.062Z</time></trkpt><trkpt lat="38.38729129923142" lon="16.414711265300227"><ele>165.0</ele><time>2026-05-03T07:25:21.062Z</time></trkpt><trkpt lat="38.387245938742716" lon="16.414856824345446"><ele>165.57142857142858</ele><time>2026-05-03T07:25:23.062Z</time></trkpt><trkpt lat="38.387203864219764" lon="16.414930317151708"><ele>166.14285714285714</ele><time>2026-05-03T07:25:24.062Z</time></trkpt><trkpt lat="38.38714231521653" lon="16.414986878746777"><ele>166.71428571428572</ele><time>2026-05-03T07:25:25.062Z</time></trkpt><trkpt lat="38.38710002647942" lon="16.415048258981397"><ele>167.28571428571428</ele><time>2026-05-03T07:25:26.062Z</time></trkpt><trkpt lat="38.38705843162561" lon="16.41510889093923"><ele>167.85714285714286</ele><time>2026-05-03T07:25:27.062Z</time></trkpt><trkpt lat="38.38701393519178" lon="16.415173752526268"><ele>168.42857142857144</ele><time>2026-05-03T07:25:28.062Z</time></trkpt><trkpt lat="38.38697083406332" lon="16.415236580174152"><ele>169.0</ele><time>2026-05-03T07:25:29.062Z</time></trkpt><trkpt lat="38.386912965902" lon="16.415318486309772"><ele>169.0</ele><time>2026-05-03T07:25:30.062Z</time></trkpt><trkpt lat="38.386860188249535" lon="16.41540222703941"><ele>169.0</ele><time>2026-05-03T07:25:31.062Z</time></trkpt><trkpt lat="38.38682328117449" lon="16.415504319809937"><ele>169.0</ele><time>2026-05-03T07:25:32.063Z</time></trkpt><trkpt lat="38.386817934309974" lon="16.415602691507516"><ele>169.0</ele><time>2026-05-03T07:25:33.063Z</time></trkpt><trkpt lat="38.386854273141566" lon="16.415691363613337"><ele>169.0</ele><time>2026-05-03T07:25:34.063Z</time></trkpt><trkpt lat="38.38689229533555" lon="16.415763211051722"><ele>169.0</ele><time>2026-05-03T07:25:35.063Z</time></trkpt><trkpt lat="38.386950226371795" lon="16.415816828777597"><ele>167.66666666666669</ele><time>2026-05-03T07:25:36.063Z</time></trkpt><trkpt lat="38.387023172700914" lon="16.41583754691771"><ele>166.33333333333334</ele><time>2026-05-03T07:25:37.063Z</time></trkpt><trkpt lat="38.38708975186812" lon="16.415826932497165"><ele>165.0</ele><time>2026-05-03T07:25:38.063Z</time></trkpt><trkpt lat="38.38717600275598" lon="16.415774072077838"><ele>163.66666666666666</ele><time>2026-05-03T07:25:40.063Z</time></trkpt><trkpt lat="38.387248073472435" lon="16.41565932534363"><ele>162.33333333333331</ele><time>2026-05-03T07:25:42.063Z</time></trkpt><trkpt lat="38.3873035437047" lon="16.415585043373966"><ele>161.0</ele><time>2026-05-03T07:25:44.063Z</time></trkpt><trkpt lat="38.387404177449255" lon="16.415510428916473"><ele>159.66666666666666</ele><time>2026-05-03T07:25:46.063Z</time></trkpt><trkpt lat="38.387461832646174" lon="16.41544888149892"><ele>158.33333333333331</ele><time>2026-05-03T07:25:47.063Z</time></trkpt><trkpt lat="38.38752629194606" lon="16.41537433249157"><ele>157.0</ele><time>2026-05-03T07:25:48.063Z</time></trkpt><trkpt lat="38.38759086955123" lon="16.415303138136213"><ele>155.66666666666666</ele><time>2026-05-03T07:25:49.063Z</time></trkpt><trkpt lat="38.38765995807752" lon="16.415226531763263"><ele>154.33333333333334</ele><time>2026-05-03T07:25:50.063Z</time></trkpt><trkpt lat="38.38772517851629" lon="16.41517157199889"><ele>153.0</ele><time>2026-05-03T07:25:51.063Z</time></trkpt><trkpt lat="38.38779578683988" lon="16.41514895398893"><ele>153.0</ele><time>2026-05-03T07:25:52.063Z</time></trkpt><trkpt lat="38.38787097119155" lon="16.415204073751006"><ele>153.0</ele><time>2026-05-03T07:25:54.063Z</time></trkpt><trkpt lat="38.387886273710066" lon="16.415305012680207"><ele>153.0</ele><time>2026-05-03T07:25:56.063Z</time></trkpt><trkpt lat="38.387846607331795" lon="16.415409203832166"><ele>153.0</ele><time>2026-05-03T07:25:58.063Z</time></trkpt><trkpt lat="38.387809486750996" lon="16.415487710237233"><ele>153.0</ele><time>2026-05-03T07:25:59.063Z</time></trkpt><trkpt lat="38.38771209756535" lon="16.41557468919674"><ele>153.0</ele><time>2026-05-03T07:26:01.063Z</time></trkpt><trkpt lat="38.38759984385393" lon="16.415645458348003"><ele>152.0</ele><time>2026-05-03T07:26:03.063Z</time></trkpt><trkpt lat="38.38747135425044" lon="16.415689378555168"><ele>151.0</ele><time>2026-05-03T07:26:05.063Z</time></trkpt><trkpt lat="38.38738058128137" lon="16.415731249458133"><ele>150.0</ele><time>2026-05-03T07:26:06.063Z</time></trkpt><trkpt lat="38.38732788659566" lon="16.41582106636294"><ele>149.0</ele><time>2026-05-03T07:26:07.064Z</time></trkpt><trkpt lat="38.38731247143496" lon="16.41595832322303"><ele>148.0</ele><time>2026-05-03T07:26:08.064Z</time></trkpt><trkpt lat="38.387375453748845" lon="16.416099572767212"><ele>148.0</ele><time>2026-05-03T07:26:09.064Z</time></trkpt><trkpt lat="38.38748226081087" lon="16.416144078698455"><ele>148.0</ele><time>2026-05-03T07:26:10.064Z</time></trkpt><trkpt lat="38.38756340229445" lon="16.416107912270835"><ele>148.0</ele><time>2026-05-03T07:26:11.064Z</time></trkpt><trkpt lat="38.38764457136004" lon="16.416040082218988"><ele>148.0</ele><time>2026-05-03T07:26:13.064Z</time></trkpt><trkpt lat="38.38769404629359" lon="16.415985893139794"><ele>148.0</ele><time>2026-05-03T07:26:14.064Z</time></trkpt><trkpt lat="38.387750665544566" lon="16.415928171990213"><ele>148.0</ele><time>2026-05-03T07:26:15.064Z</time></trkpt><trkpt lat="38.387857208465725" lon="16.41584247424777"><ele>148.0</ele><time>2026-05-03T07:26:17.064Z</time></trkpt><trkpt lat="38.387915421546246" lon="16.415800674271726"><ele>148.0</ele><time>2026-05-03T07:26:18.064Z</time></trkpt><trkpt lat="38.38798031761331" lon="16.41575595107165"><ele>148.0</ele><time>2026-05-03T07:26:19.064Z</time></trkpt><trkpt lat="38.3880560592019" lon="16.415705470314553"><ele>148.0</ele><time>2026-05-03T07:26:20.064Z</time></trkpt><trkpt lat="38.388124169162914" lon="16.41566007596967"><ele>148.0</ele><time>2026-05-03T07:26:21.064Z</time></trkpt><trkpt lat="38.38819216198436" lon="16.415614900892972"><ele>148.0</ele><time>2026-05-03T07:26:22.064Z</time></trkpt><trkpt lat="38.38827146995298" lon="16.415562219016245"><ele>145.6</ele><time>2026-05-03T07:26:23.064Z</time></trkpt><trkpt lat="38.3883572125485" lon="16.415529080988424"><ele>143.20000000000002</ele><time>2026-05-03T07:26:24.064Z</time></trkpt><trkpt lat="38.388434965459105" lon="16.41545361395946"><ele>140.8</ele><time>2026-05-03T07:26:25.064Z</time></trkpt><trkpt lat="38.388527355537725" lon="16.415392242023962"><ele>138.4</ele><time>2026-05-03T07:26:26.064Z</time></trkpt><trkpt lat="38.38862335573783" lon="16.415328521058427"><ele>136.0</ele><time>2026-05-03T07:26:27.064Z</time></trkpt><trkpt lat="38.38872471219528" lon="16.415261796561143"><ele>136.0</ele><time>2026-05-03T07:26:28.064Z</time></trkpt><trkpt lat="38.38882956439805" lon="16.415192768348426"><ele>136.0</ele><time>2026-05-03T07:26:29.064Z</time></trkpt><trkpt lat="38.388937305721" lon="16.415121838085998"><ele>136.0</ele><time>2026-05-03T07:26:30.064Z</time></trkpt><trkpt lat="38.38903855272674" lon="16.4150551832444"><ele>136.0</ele><time>2026-05-03T07:26:31.064Z</time></trkpt><trkpt lat="38.389128367623435" lon="16.414994693344585"><ele>134.6</ele><time>2026-05-03T07:26:32.064Z</time></trkpt><trkpt lat="38.38921683088593" lon="16.414932966268005"><ele>133.2</ele><time>2026-05-03T07:26:33.064Z</time></trkpt><trkpt lat="38.38930198858397" lon="16.414888382984937"><ele>131.8</ele><time>2026-05-03T07:26:34.064Z</time></trkpt><trkpt lat="38.38939128064527" lon="16.41484269117381"><ele>130.4</ele><time>2026-05-03T07:26:35.064Z</time></trkpt><trkpt lat="38.38945747577537" lon="16.414828666698476"><ele>129.0</ele><time>2026-05-03T07:26:36.064Z</time></trkpt><trkpt lat="38.38954531297473" lon="16.41488000541135"><ele>129.0</ele><time>2026-05-03T07:26:38.064Z</time></trkpt><trkpt lat="38.389559880238835" lon="16.414992885396455"><ele>129.0</ele><time>2026-05-03T07:26:40.064Z</time></trkpt><trkpt lat="38.389535882843404" lon="16.415072597892593"><ele>129.0</ele><time>2026-05-03T07:26:41.064Z</time></trkpt><trkpt lat="38.389482337736744" lon="16.4151445598372"><ele>129.0</ele><time>2026-05-03T07:26:42.065Z</time></trkpt><trkpt lat="38.38939809517604" lon="16.41526926769397"><ele>129.0</ele><time>2026-05-03T07:26:44.065Z</time></trkpt><trkpt lat="38.389343022442766" lon="16.415332649675353"><ele>129.0</ele><time>2026-05-03T07:26:45.065Z</time></trkpt><trkpt lat="38.389304819723996" lon="16.415413863324513"><ele>129.0</ele><time>2026-05-03T07:26:46.065Z</time></trkpt><trkpt lat="38.389261365963534" lon="16.415479949459915"><ele>129.0</ele><time>2026-05-03T07:26:47.065Z</time></trkpt><trkpt lat="38.38921658107969" lon="16.41553768772394"><ele>129.0</ele><time>2026-05-03T07:26:48.065Z</time></trkpt><trkpt lat="38.38921666838302" lon="16.415622276138965"><ele>129.0</ele><time>2026-05-03T07:26:49.065Z</time></trkpt><trkpt lat="38.38924280781057" lon="16.415775567834892"><ele>129.0</ele><time>2026-05-03T07:26:51.065Z</time></trkpt><trkpt lat="38.38929734544481" lon="16.415846671641972"><ele>129.0</ele><time>2026-05-03T07:26:52.065Z</time></trkpt><trkpt lat="38.38940343571677" lon="16.415879149715305"><ele>127.0</ele><time>2026-05-03T07:26:53.065Z</time></trkpt><trkpt lat="38.3894779443093" lon="16.41584949356909"><ele>125.0</ele><time>2026-05-03T07:26:54.065Z</time></trkpt><trkpt lat="38.3895477825606" lon="16.41578827612412"><ele>123.0</ele><time>2026-05-03T07:26:55.065Z</time></trkpt><trkpt lat="38.38960535896594" lon="16.415723836291047"><ele>121.0</ele><time>2026-05-03T07:26:56.065Z</time></trkpt><trkpt lat="38.389678191635745" lon="16.41563926756975"><ele>119.0</ele><time>2026-05-03T07:26:57.065Z</time></trkpt><trkpt lat="38.38975084415181" lon="16.415528973577555"><ele>118.49999999999999</ele><time>2026-05-03T07:26:58.065Z</time></trkpt><trkpt lat="38.38983499344498" lon="16.415471177777416"><ele>118.0</ele><time>2026-05-03T07:26:59.065Z</time></trkpt><trkpt lat="38.389905283179814" lon="16.41539944223262"><ele>117.5</ele><time>2026-05-03T07:27:00.065Z</time></trkpt><trkpt lat="38.38996655402301" lon="16.415332761295577"><ele>117.0</ele><time>2026-05-03T07:27:01.065Z</time></trkpt><trkpt lat="38.39001671255321" lon="16.415265863624136"><ele>116.49999999999999</ele><time>2026-05-03T07:27:02.065Z</time></trkpt><trkpt lat="38.39005773792129" lon="16.41519642972094"><ele>116.0</ele><time>2026-05-03T07:27:03.065Z</time></trkpt><trkpt lat="38.39011314341317" lon="16.41506412071491"><ele>115.99999999999999</ele><time>2026-05-03T07:27:05.064Z</time></trkpt><trkpt lat="38.39011861523621" lon="16.414905534093915"><ele>116.0</ele><time>2026-05-03T07:27:07.065Z</time></trkpt><trkpt lat="38.39012840250613" lon="16.414808986973824"><ele>116.0</ele><time>2026-05-03T07:27:08.065Z</time></trkpt><trkpt lat="38.390116502264455" lon="16.41470410381278"><ele>116.0</ele><time>2026-05-03T07:27:09.064Z</time></trkpt><trkpt lat="38.3900953394744" lon="16.414617748302426"><ele>115.99999999999999</ele><time>2026-05-03T07:27:10.065Z</time></trkpt><trkpt lat="38.390061995243066" lon="16.41452630064762"><ele>116.0</ele><time>2026-05-03T07:27:11.065Z</time></trkpt><trkpt lat="38.39001027004221" lon="16.4144353081783"><ele>114.99999999999999</ele><time>2026-05-03T07:27:12.065Z</time></trkpt><trkpt lat="38.38995048495139" lon="16.414351977736082"><ele>114.0</ele><time>2026-05-03T07:27:13.064Z</time></trkpt><trkpt lat="38.389893014026015" lon="16.414276855016993"><ele>113.0</ele><time>2026-05-03T07:27:14.064Z</time></trkpt><trkpt lat="38.38983770484152" lon="16.4142060297704"><ele>112.0</ele><time>2026-05-03T07:27:15.064Z</time></trkpt><trkpt lat="38.389786445802144" lon="16.41411979312726"><ele>110.99999999999999</ele><time>2026-05-03T07:27:16.065Z</time></trkpt><trkpt lat="38.38972341027868" lon="16.41399975777599"><ele>110.0</ele><time>2026-05-03T07:27:17.065Z</time></trkpt><trkpt lat="38.38972636987285" lon="16.413838618558618"><ele>109.66666666666666</ele><time>2026-05-03T07:27:18.065Z</time></trkpt><trkpt lat="38.38976112957676" lon="16.413756188848282"><ele>109.33333333333333</ele><time>2026-05-03T07:27:19.065Z</time></trkpt><trkpt lat="38.38982532243143" lon="16.413673809934036"><ele>109.0</ele><time>2026-05-03T07:27:20.065Z</time></trkpt><trkpt lat="38.38989826941619" lon="16.41360924466548"><ele>108.66666666666666</ele><time>2026-05-03T07:27:21.065Z</time></trkpt><trkpt lat="38.38997110975499" lon="16.413548536582"><ele>108.33333333333333</ele><time>2026-05-03T07:27:22.065Z</time></trkpt><trkpt lat="38.39003794412008" lon="16.41348494848881"><ele>108.0</ele><time>2026-05-03T07:27:23.065Z</time></trkpt><trkpt lat="38.39011171676371" lon="16.413404483090208"><ele>108.0</ele><time>2026-05-03T07:27:24.065Z</time></trkpt><trkpt lat="38.39019339208137" lon="16.41337114985776"><ele>108.0</ele><time>2026-05-03T07:27:25.065Z</time></trkpt><trkpt lat="38.3902745106062" lon="16.41336065945952"><ele>108.0</ele><time>2026-05-03T07:27:26.065Z</time></trkpt><trkpt lat="38.390366341012175" lon="16.413359429200703"><ele>108.0</ele><time>2026-05-03T07:27:27.065Z</time></trkpt><trkpt lat="38.390452079519946" lon="16.413385155691532"><ele>108.0</ele><time>2026-05-03T07:27:28.066Z</time></trkpt><trkpt lat="38.3905434510544" lon="16.413394550122685"><ele>108.0</ele><time>2026-05-03T07:27:29.066Z</time></trkpt><trkpt lat="38.39063398991679" lon="16.41340382524408"><ele>107.4</ele><time>2026-05-03T07:27:30.066Z</time></trkpt><trkpt lat="38.390722554753786" lon="16.41341204533457"><ele>106.80000000000001</ele><time>2026-05-03T07:27:31.066Z</time></trkpt><trkpt lat="38.3908143699526" lon="16.41342056710251"><ele>106.2</ele><time>2026-05-03T07:27:32.066Z</time></trkpt><trkpt lat="38.39090723547372" lon="16.413429186357817"><ele>105.6</ele><time>2026-05-03T07:27:33.066Z</time></trkpt><trkpt lat="38.39100546433361" lon="16.413418428385295"><ele>105.0</ele><time>2026-05-03T07:27:34.066Z</time></trkpt><trkpt lat="38.39111399576066" lon="16.413453050293974"><ele>105.0</ele><time>2026-05-03T07:27:35.066Z</time></trkpt><trkpt lat="38.39120876275444" lon="16.413465438056452"><ele>105.0</ele><time>2026-05-03T07:27:36.066Z</time></trkpt><trkpt lat="38.3913092619814" lon="16.413476929023986"><ele>105.0</ele><time>2026-05-03T07:27:37.066Z</time></trkpt><trkpt lat="38.39141512071399" lon="16.413487337232397"><ele>105.0</ele><time>2026-05-03T07:27:38.066Z</time></trkpt><trkpt lat="38.39152300265473" lon="16.413499223252717"><ele>105.0</ele><time>2026-05-03T07:27:39.066Z</time></trkpt><trkpt lat="38.39162394940981" lon="16.413509075329276"><ele>104.6</ele><time>2026-05-03T07:27:40.066Z</time></trkpt><trkpt lat="38.391730237481326" lon="16.413517934827244"><ele>104.2</ele><time>2026-05-03T07:27:41.066Z</time></trkpt><trkpt lat="38.391833790572015" lon="16.413525991168267"><ele>103.80000000000001</ele><time>2026-05-03T07:27:42.066Z</time></trkpt><trkpt lat="38.39194050487826" lon="16.41353577397743"><ele>103.4</ele><time>2026-05-03T07:27:43.066Z</time></trkpt><trkpt lat="38.39204917525522" lon="16.413543748577663"><ele>103.0</ele><time>2026-05-03T07:27:44.066Z</time></trkpt><trkpt lat="38.3921565942605" lon="16.413552689996365"><ele>103.4</ele><time>2026-05-03T07:27:45.066Z</time></trkpt><trkpt lat="38.392262415277344" lon="16.41356163860235"><ele>103.80000000000001</ele><time>2026-05-03T07:27:46.066Z</time></trkpt><trkpt lat="38.392368007258135" lon="16.413564929789427"><ele>104.2</ele><time>2026-05-03T07:27:47.066Z</time></trkpt><trkpt lat="38.392478221781545" lon="16.413575269085676"><ele>104.6</ele><time>2026-05-03T07:27:48.066Z</time></trkpt><trkpt lat="38.392589009380444" lon="16.413584505418573"><ele>105.0</ele><time>2026-05-03T07:27:49.066Z</time></trkpt><trkpt lat="38.39269147873319" lon="16.413593149925187"><ele>105.0</ele><time>2026-05-03T07:27:50.066Z</time></trkpt><trkpt lat="38.39279920802393" lon="16.413601042576705"><ele>105.0</ele><time>2026-05-03T07:27:51.066Z</time></trkpt><trkpt lat="38.39290933977388" lon="16.413612649742234"><ele>105.0</ele><time>2026-05-03T07:27:52.066Z</time></trkpt><trkpt lat="38.3930079940616" lon="16.413621316031882"><ele>105.0</ele><time>2026-05-03T07:27:53.066Z</time></trkpt><trkpt lat="38.393104908247096" lon="16.413624190208104"><ele>105.0</ele><time>2026-05-03T07:27:54.066Z</time></trkpt><trkpt lat="38.39320665043418" lon="16.41363594084167"><ele>104.8</ele><time>2026-05-03T07:27:55.066Z</time></trkpt><trkpt lat="38.393315769992185" lon="16.413656070081785"><ele>104.6</ele><time>2026-05-03T07:27:56.066Z</time></trkpt><trkpt lat="38.39342070162539" lon="16.413661809768797"><ele>104.4</ele><time>2026-05-03T07:27:57.066Z</time></trkpt><trkpt lat="38.393516205935526" lon="16.413670874977296"><ele>104.2</ele><time>2026-05-03T07:27:58.066Z</time></trkpt><trkpt lat="38.39361679957952" lon="16.41368886344091"><ele>104.0</ele><time>2026-05-03T07:27:59.066Z</time></trkpt><trkpt lat="38.39371325629994" lon="16.413699632940524"><ele>104.0</ele><time>2026-05-03T07:28:00.066Z</time></trkpt><trkpt lat="38.39381779148745" lon="16.41372070579944"><ele>104.0</ele><time>2026-05-03T07:28:01.066Z</time></trkpt><trkpt lat="38.39392012445841" lon="16.413730420973888"><ele>104.0</ele><time>2026-05-03T07:28:02.066Z</time></trkpt><trkpt lat="38.394030953013925" lon="16.413734326922288"><ele>104.0</ele><time>2026-05-03T07:28:03.067Z</time></trkpt><trkpt lat="38.39414867175185" lon="16.4137539969847"><ele>104.0</ele><time>2026-05-03T07:28:04.067Z</time></trkpt><trkpt lat="38.39426690009868" lon="16.413765435699055"><ele>104.4</ele><time>2026-05-03T07:28:05.067Z</time></trkpt><trkpt lat="38.39438352346995" lon="16.413794031775243"><ele>104.80000000000001</ele><time>2026-05-03T07:28:06.067Z</time></trkpt><trkpt lat="38.39448123091173" lon="16.41381049030956"><ele>105.19999999999999</ele><time>2026-05-03T07:28:07.067Z</time></trkpt><trkpt lat="38.39458224198001" lon="16.41384552067175"><ele>105.6</ele><time>2026-05-03T07:28:08.067Z</time></trkpt><trkpt lat="38.394672249609165" lon="16.413914123562627"><ele>106.0</ele><time>2026-05-03T07:28:09.067Z</time></trkpt><trkpt lat="38.394760955286486" lon="16.41398987373532"><ele>106.0</ele><time>2026-05-03T07:28:10.067Z</time></trkpt><trkpt lat="38.3948326023586" lon="16.414071275802065"><ele>106.0</ele><time>2026-05-03T07:28:11.067Z</time></trkpt><trkpt lat="38.394905470131356" lon="16.414160480072123"><ele>106.0</ele><time>2026-05-03T07:28:12.067Z</time></trkpt><trkpt lat="38.39499040099579" lon="16.414240299584755"><ele>106.0</ele><time>2026-05-03T07:28:13.067Z</time></trkpt><trkpt lat="38.39507192947896" lon="16.414317633820556"><ele>106.0</ele><time>2026-05-03T07:28:14.067Z</time></trkpt><trkpt lat="38.39514397286458" lon="16.41440108173098"><ele>106.0</ele><time>2026-05-03T07:28:15.067Z</time></trkpt><trkpt lat="38.39521073099288" lon="16.414513943403826"><ele>106.0</ele><time>2026-05-03T07:28:16.067Z</time></trkpt><trkpt lat="38.39527812608257" lon="16.41461046487401"><ele>106.0</ele><time>2026-05-03T07:28:17.067Z</time></trkpt><trkpt lat="38.39533357400072" lon="16.414711296883404"><ele>106.0</ele><time>2026-05-03T07:28:18.067Z</time></trkpt><trkpt lat="38.395399848806456" lon="16.41482542888243"><ele>106.0</ele><time>2026-05-03T07:28:19.067Z</time></trkpt><trkpt lat="38.395449350519385" lon="16.41493116993028"><ele>107.19999999999999</ele><time>2026-05-03T07:28:20.067Z</time></trkpt><trkpt lat="38.39550485445457" lon="16.415036297740798"><ele>108.39999999999999</ele><time>2026-05-03T07:28:21.067Z</time></trkpt><trkpt lat="38.395576738939404" lon="16.415137370691962"><ele>109.6</ele><time>2026-05-03T07:28:22.067Z</time></trkpt><trkpt lat="38.395646028653154" lon="16.415222146521096"><ele>110.8</ele><time>2026-05-03T07:28:23.067Z</time></trkpt><trkpt lat="38.395706179148355" lon="16.415299122223043"><ele>112.0</ele><time>2026-05-03T07:28:24.067Z</time></trkpt><trkpt lat="38.395774722769765" lon="16.41533399456119"><ele>112.0</ele><time>2026-05-03T07:28:25.067Z</time></trkpt><trkpt lat="38.395848632804984" lon="16.415359650622463"><ele>111.99999999999999</ele><time>2026-05-03T07:28:26.067Z</time></trkpt><trkpt lat="38.395924015677544" lon="16.415361079659224"><ele>111.99999999999999</ele><time>2026-05-03T07:28:27.067Z</time></trkpt><trkpt lat="38.396005670275" lon="16.41534966311166"><ele>112.0</ele><time>2026-05-03T07:28:28.067Z</time></trkpt><trkpt lat="38.39610979001392" lon="16.415332382125516"><ele>112.0</ele><time>2026-05-03T07:28:29.067Z</time></trkpt><trkpt lat="38.39623569111131" lon="16.415251171302096"><ele>110.8</ele><time>2026-05-03T07:28:30.067Z</time></trkpt><trkpt lat="38.39640176219667" lon="16.415322262401883"><ele>109.6</ele><time>2026-05-03T07:28:32.067Z</time></trkpt><trkpt lat="38.396500799302494" lon="16.415351693513088"><ele>108.39999999999999</ele><time>2026-05-03T07:28:33.067Z</time></trkpt><trkpt lat="38.39658914296014" lon="16.41537516003048"><ele>107.19999999999999</ele><time>2026-05-03T07:28:34.067Z</time></trkpt><trkpt lat="38.39666124223858" lon="16.41535282008902"><ele>106.0</ele><time>2026-05-03T07:28:35.067Z</time></trkpt><trkpt lat="38.39672580387338" lon="16.415292731765444"><ele>106.00000000000001</ele><time>2026-05-03T07:28:36.067Z</time></trkpt><trkpt lat="38.39676236177046" lon="16.41521541675037"><ele>106.0</ele><time>2026-05-03T07:28:37.067Z</time></trkpt><trkpt lat="38.39677974245315" lon="16.415138198268675"><ele>106.0</ele><time>2026-05-03T07:28:38.068Z</time></trkpt><trkpt lat="38.39679558019871" lon="16.415030783553515"><ele>106.0</ele><time>2026-05-03T07:28:39.068Z</time></trkpt><trkpt lat="38.396825800055524" lon="16.41490534313048"><ele>106.00000000000001</ele><time>2026-05-03T07:28:40.068Z</time></trkpt><trkpt lat="38.396872281099675" lon="16.41477507567951"><ele>106.0</ele><time>2026-05-03T07:28:41.068Z</time></trkpt><trkpt lat="38.396913669787814" lon="16.41465403809165"><ele>109.0</ele><time>2026-05-03T07:28:42.068Z</time></trkpt><trkpt lat="38.39691200034162" lon="16.414527156870154"><ele>112.0</ele><time>2026-05-03T07:28:43.068Z</time></trkpt><trkpt lat="38.39689851843687" lon="16.41440518919707"><ele>115.0</ele><time>2026-05-03T07:28:44.068Z</time></trkpt><trkpt lat="38.39687947941461" lon="16.414252405043825"><ele>118.0</ele><time>2026-05-03T07:28:45.068Z</time></trkpt><trkpt lat="38.396871969318006" lon="16.414102780632984"><ele>121.0</ele><time>2026-05-03T07:28:46.068Z</time></trkpt><trkpt lat="38.396879578330605" lon="16.413981638793622"><ele>121.00000000000001</ele><time>2026-05-03T07:28:47.068Z</time></trkpt><trkpt lat="38.39694432563661" lon="16.413831579834252"><ele>121.0</ele><time>2026-05-03T07:28:49.068Z</time></trkpt><trkpt lat="38.3969882551512" lon="16.41375748921599"><ele>121.0</ele><time>2026-05-03T07:28:50.068Z</time></trkpt><trkpt lat="38.39704735107738" lon="16.413694117872414"><ele>121.0</ele><time>2026-05-03T07:28:51.068Z</time></trkpt><trkpt lat="38.39710602897027" lon="16.41361852299714"><ele>121.00000000000001</ele><time>2026-05-03T07:28:52.068Z</time></trkpt><trkpt lat="38.39716107514196" lon="16.413560330744378"><ele>121.0</ele><time>2026-05-03T07:28:53.068Z</time></trkpt><trkpt lat="38.397244587071235" lon="16.41346308140389"><ele>123.66666666666667</ele><time>2026-05-03T07:28:55.068Z</time></trkpt><trkpt lat="38.39727955910039" lon="16.413380811787164"><ele>126.33333333333334</ele><time>2026-05-03T07:28:57.068Z</time></trkpt><trkpt lat="38.39728352873289" lon="16.413264841863437"><ele>129.0</ele><time>2026-05-03T07:28:59.068Z</time></trkpt><trkpt lat="38.39726162628826" lon="16.413152540213336"><ele>131.66666666666666</ele><time>2026-05-03T07:29:00.068Z</time></trkpt><trkpt lat="38.39726367436381" lon="16.413058422870474"><ele>134.33333333333331</ele><time>2026-05-03T07:29:01.068Z</time></trkpt><trkpt lat="38.39721163316224" lon="16.41292404207173"><ele>137.0</ele><time>2026-05-03T07:29:02.068Z</time></trkpt><trkpt lat="38.39725437467068" lon="16.41278887507812"><ele>137.0</ele><time>2026-05-03T07:29:03.068Z</time></trkpt><trkpt lat="38.397324990491576" lon="16.412750608114344"><ele>137.0</ele><time>2026-05-03T07:29:04.068Z</time></trkpt><trkpt lat="38.39738942899656" lon="16.412736595942736"><ele>137.0</ele><time>2026-05-03T07:29:05.068Z</time></trkpt><trkpt lat="38.39746280607712" lon="16.412726052942705"><ele>137.0</ele><time>2026-05-03T07:29:06.068Z</time></trkpt><trkpt lat="38.397538307408446" lon="16.412721504336687"><ele>137.0</ele><time>2026-05-03T07:29:07.068Z</time></trkpt><trkpt lat="38.397622659472525" lon="16.412716229862742"><ele>137.0</ele><time>2026-05-03T07:29:08.068Z</time></trkpt><trkpt lat="38.397715161690904" lon="16.41271246831338"><ele>137.0</ele><time>2026-05-03T07:29:09.067Z</time></trkpt><trkpt lat="38.39780331719672" lon="16.412706645417757"><ele>137.0</ele><time>2026-05-03T07:29:10.067Z</time></trkpt><trkpt lat="38.39792118467937" lon="16.41272028270297"><ele>137.0</ele><time>2026-05-03T07:29:11.067Z</time></trkpt><trkpt lat="38.39801628803888" lon="16.41275158482613"><ele>137.0</ele><time>2026-05-03T07:29:12.068Z</time></trkpt><trkpt lat="38.39812144137438" lon="16.412766729323316"><ele>137.0</ele><time>2026-05-03T07:29:13.068Z</time></trkpt><trkpt lat="38.39825396149964" lon="16.412790047986988"><ele>132.5</ele><time>2026-05-03T07:29:14.068Z</time></trkpt><trkpt lat="38.39836075028895" lon="16.412818182400187"><ele>128.0</ele><time>2026-05-03T07:29:15.068Z</time></trkpt><trkpt lat="38.39846134207586" lon="16.412857040604006"><ele>123.5</ele><time>2026-05-03T07:29:16.068Z</time></trkpt><trkpt lat="38.398580165910744" lon="16.41290758424119"><ele>119.0</ele><time>2026-05-03T07:29:17.068Z</time></trkpt><trkpt lat="38.398703142126976" lon="16.412959989432892"><ele>116.6</ele><time>2026-05-03T07:29:18.068Z</time></trkpt><trkpt lat="38.39881817362789" lon="16.41300909414091"><ele>114.2</ele><time>2026-05-03T07:29:19.067Z</time></trkpt><trkpt lat="38.39890705539204" lon="16.413043178944847"><ele>111.79999999999998</ele><time>2026-05-03T07:29:20.067Z</time></trkpt><trkpt lat="38.39899944447851" lon="16.413091499770974"><ele>109.39999999999999</ele><time>2026-05-03T07:29:21.068Z</time></trkpt><trkpt lat="38.399103745941034" lon="16.413149010019495"><ele>107.0</ele><time>2026-05-03T07:29:22.068Z</time></trkpt><trkpt lat="38.39919338556324" lon="16.413203985167293"><ele>107.0</ele><time>2026-05-03T07:29:23.068Z</time></trkpt><trkpt lat="38.39927020106024" lon="16.413262241614834"><ele>106.99999999999999</ele><time>2026-05-03T07:29:24.068Z</time></trkpt><trkpt lat="38.399363572399736" lon="16.413343530525587"><ele>106.99999999999999</ele><time>2026-05-03T07:29:25.068Z</time></trkpt><trkpt lat="38.399425039706635" lon="16.413428222576954"><ele>107.0</ele><time>2026-05-03T07:29:26.068Z</time></trkpt><trkpt lat="38.39947970783291" lon="16.413519598027204"><ele>107.0</ele><time>2026-05-03T07:29:27.068Z</time></trkpt><trkpt lat="38.39955450031948" lon="16.41362244391544"><ele>106.99999999999999</ele><time>2026-05-03T07:29:28.068Z</time></trkpt><trkpt lat="38.39960362292999" lon="16.41371878803432"><ele>107.0</ele><time>2026-05-03T07:29:29.068Z</time></trkpt><trkpt lat="38.39965923552407" lon="16.413811941461653"><ele>107.0</ele><time>2026-05-03T07:29:30.068Z</time></trkpt><trkpt lat="38.39972202616082" lon="16.413882429428682"><ele>107.0</ele><time>2026-05-03T07:29:31.068Z</time></trkpt><trkpt lat="38.39978941735254" lon="16.413882312945894"><ele>106.99999999999999</ele><time>2026-05-03T07:29:32.068Z</time></trkpt><trkpt lat="38.399887839633735" lon="16.41382215930479"><ele>107.0</ele><time>2026-05-03T07:29:34.068Z</time></trkpt><trkpt lat="38.39996423388551" lon="16.413734208929714"><ele>108.8</ele><time>2026-05-03T07:29:36.068Z</time></trkpt><trkpt lat="38.400041645101126" lon="16.413646934186165"><ele>110.6</ele><time>2026-05-03T07:29:37.068Z</time></trkpt><trkpt lat="38.40009793517708" lon="16.4135830774453"><ele>112.39999999999999</ele><time>2026-05-03T07:29:38.068Z</time></trkpt><trkpt lat="38.40017293550661" lon="16.413497215836145"><ele>114.19999999999999</ele><time>2026-05-03T07:29:39.068Z</time></trkpt><trkpt lat="38.40023792954519" lon="16.413430187643705"><ele>116.0</ele><time>2026-05-03T07:29:40.068Z</time></trkpt><trkpt lat="38.40027590068566" lon="16.41332195948368"><ele>116.0</ele><time>2026-05-03T07:29:41.068Z</time></trkpt><trkpt lat="38.40031547482849" lon="16.41321327545931"><ele>116.0</ele><time>2026-05-03T07:29:42.068Z</time></trkpt><trkpt lat="38.40032269253023" lon="16.41310463546576"><ele>116.0</ele><time>2026-05-03T07:29:43.068Z</time></trkpt><trkpt lat="38.40032773981317" lon="16.412984911585067"><ele>116.0</ele><time>2026-05-03T07:29:44.068Z</time></trkpt><trkpt lat="38.40033592599735" lon="16.412866570964702"><ele>116.0</ele><time>2026-05-03T07:29:45.069Z</time></trkpt><trkpt lat="38.400351346026824" lon="16.41275991389314"><ele>119.8</ele><time>2026-05-03T07:29:46.069Z</time></trkpt><trkpt lat="38.40036950162862" lon="16.412653465249242"><ele>123.6</ele><time>2026-05-03T07:29:47.069Z</time></trkpt><trkpt lat="38.400379725092876" lon="16.412559409839087"><ele>127.4</ele><time>2026-05-03T07:29:48.069Z</time></trkpt><trkpt lat="38.40037967124932" lon="16.41245537664937"><ele>131.2</ele><time>2026-05-03T07:29:49.069Z</time></trkpt><trkpt lat="38.40041169579521" lon="16.41233561005999"><ele>135.0</ele><time>2026-05-03T07:29:50.069Z</time></trkpt><trkpt lat="38.40044064046699" lon="16.41219706913689"><ele>129.8</ele><time>2026-05-03T07:29:51.069Z</time></trkpt><trkpt lat="38.40050221205191" lon="16.41208824973315"><ele>124.6</ele><time>2026-05-03T07:29:52.069Z</time></trkpt><trkpt lat="38.400587421700436" lon="16.41199297097619"><ele>119.4</ele><time>2026-05-03T07:29:53.069Z</time></trkpt><trkpt lat="38.400676390190526" lon="16.411923846233453"><ele>114.2</ele><time>2026-05-03T07:29:54.069Z</time></trkpt><trkpt lat="38.40075194305814" lon="16.41184329085564"><ele>109.0</ele><time>2026-05-03T07:29:55.069Z</time></trkpt><trkpt lat="38.400822193643975" lon="16.411769640325588"><ele>109.00000000000001</ele><time>2026-05-03T07:29:56.069Z</time></trkpt><trkpt lat="38.40089522694087" lon="16.411684840911352"><ele>109.0</ele><time>2026-05-03T07:29:57.069Z</time></trkpt><trkpt lat="38.400956851631534" lon="16.411602889839696"><ele>109.0</ele><time>2026-05-03T07:29:58.069Z</time></trkpt><trkpt lat="38.40099383629968" lon="16.411508374897455"><ele>109.0</ele><time>2026-05-03T07:29:59.069Z</time></trkpt><trkpt lat="38.401048615558324" lon="16.411423066633727"><ele>109.00000000000001</ele><time>2026-05-03T07:30:00.069Z</time></trkpt><trkpt lat="38.401080562160985" lon="16.411313591872528"><ele>109.0</ele><time>2026-05-03T07:30:01.069Z</time></trkpt><trkpt lat="38.40110279762572" lon="16.411200072367425"><ele>113.0</ele><time>2026-05-03T07:30:02.069Z</time></trkpt><trkpt lat="38.4011246534575" lon="16.41107451580739"><ele>117.0</ele><time>2026-05-03T07:30:03.069Z</time></trkpt><trkpt lat="38.40113481256068" lon="16.410965046504845"><ele>121.0</ele><time>2026-05-03T07:30:04.069Z</time></trkpt><trkpt lat="38.40113668330625" lon="16.41083957735962"><ele>125.0</ele><time>2026-05-03T07:30:05.069Z</time></trkpt><trkpt lat="38.40117229522882" lon="16.41073059419119"><ele>129.0</ele><time>2026-05-03T07:30:06.069Z</time></trkpt><trkpt lat="38.40119884592387" lon="16.410620948568372"><ele>129.4</ele><time>2026-05-03T07:30:07.069Z</time></trkpt><trkpt lat="38.40126246989463" lon="16.410439870039603"><ele>129.8</ele><time>2026-05-03T07:30:09.069Z</time></trkpt><trkpt lat="38.40132564375738" lon="16.41035622177362"><ele>130.2</ele><time>2026-05-03T07:30:10.069Z</time></trkpt><trkpt lat="38.40139375734111" lon="16.41030922005746"><ele>130.6</ele><time>2026-05-03T07:30:11.069Z</time></trkpt><trkpt lat="38.401484409058476" lon="16.41031926891245"><ele>131.0</ele><time>2026-05-03T07:30:12.069Z</time></trkpt><trkpt lat="38.4015874545869" lon="16.410357754893052"><ele>131.0</ele><time>2026-05-03T07:30:13.069Z</time></trkpt><trkpt lat="38.40165080743533" lon="16.41036683996785"><ele>131.0</ele><time>2026-05-03T07:30:14.069Z</time></trkpt><trkpt lat="38.4017394203111" lon="16.41039901529517"><ele>131.0</ele><time>2026-05-03T07:30:15.069Z</time></trkpt><trkpt lat="38.40182407574285" lon="16.410414334490262"><ele>131.0</ele><time>2026-05-03T07:30:16.069Z</time></trkpt><trkpt lat="38.40190295706634" lon="16.410475886984166"><ele>131.0</ele><time>2026-05-03T07:30:17.069Z</time></trkpt><trkpt lat="38.40200916376964" lon="16.410546207796735"><ele>126.0</ele><time>2026-05-03T07:30:18.069Z</time></trkpt><trkpt lat="38.40210119665507" lon="16.410615445614404"><ele>121.0</ele><time>2026-05-03T07:30:19.069Z</time></trkpt><trkpt lat="38.40220772786921" lon="16.41069503510526"><ele>116.0</ele><time>2026-05-03T07:30:20.07Z</time></trkpt><trkpt lat="38.40231482256981" lon="16.41074924302352"><ele>111.0</ele><time>2026-05-03T07:30:21.07Z</time></trkpt><trkpt lat="38.40242945003265" lon="16.410857863732403"><ele>111.0</ele><time>2026-05-03T07:30:22.07Z</time></trkpt><trkpt lat="38.40252750359157" lon="16.410924328600473"><ele>111.0</ele><time>2026-05-03T07:30:23.07Z</time></trkpt><trkpt lat="38.40263400685838" lon="16.410984209685957"><ele>111.0</ele><time>2026-05-03T07:30:24.07Z</time></trkpt><trkpt lat="38.40272720533143" lon="16.411031929334527"><ele>111.0</ele><time>2026-05-03T07:30:25.07Z</time></trkpt><trkpt lat="38.40282255083671" lon="16.411070271841268"><ele>111.0</ele><time>2026-05-03T07:30:26.07Z</time></trkpt><trkpt lat="38.402906069910074" lon="16.411113820729735"><ele>111.0</ele><time>2026-05-03T07:30:27.07Z</time></trkpt><trkpt lat="38.402969929512814" lon="16.41115983150072"><ele>111.0</ele><time>2026-05-03T07:30:28.07Z</time></trkpt><trkpt lat="38.403010506446414" lon="16.411240633323626"><ele>111.0</ele><time>2026-05-03T07:30:29.07Z</time></trkpt><trkpt lat="38.40304696723089" lon="16.411313113154307"><ele>111.0</ele><time>2026-05-03T07:30:30.07Z</time></trkpt><trkpt lat="38.4031181179019" lon="16.411424480630416"><ele>111.0</ele><time>2026-05-03T07:30:32.07Z</time></trkpt><trkpt lat="38.40316773656911" lon="16.411477170282666"><ele>111.0</ele><time>2026-05-03T07:30:33.07Z</time></trkpt><trkpt lat="38.40324916723741" lon="16.411477718844978"><ele>110.5</ele><time>2026-05-03T07:30:34.07Z</time></trkpt><trkpt lat="38.40331437238457" lon="16.411464541204282"><ele>110.0</ele><time>2026-05-03T07:30:35.07Z</time></trkpt><trkpt lat="38.40339541336633" lon="16.411452214942678"><ele>109.5</ele><time>2026-05-03T07:30:36.07Z</time></trkpt><trkpt lat="38.403467013936435" lon="16.411454743539593"><ele>109.0</ele><time>2026-05-03T07:30:37.07Z</time></trkpt><trkpt lat="38.40353188845171" lon="16.41141143719467"><ele>108.5</ele><time>2026-05-03T07:30:38.07Z</time></trkpt><trkpt lat="38.40360737780779" lon="16.411346800045045"><ele>108.0</ele><time>2026-05-03T07:30:39.07Z</time></trkpt><trkpt lat="38.40368170363204" lon="16.411262181268675"><ele>108.0</ele><time>2026-05-03T07:30:40.07Z</time></trkpt><trkpt lat="38.40373344914144" lon="16.411180851634967"><ele>108.00000000000001</ele><time>2026-05-03T07:30:41.07Z</time></trkpt><trkpt lat="38.403785010817536" lon="16.411101657700684"><ele>108.00000000000001</ele><time>2026-05-03T07:30:42.07Z</time></trkpt><trkpt lat="38.40387141227539" lon="16.411021251704355"><ele>108.0</ele><time>2026-05-03T07:30:44.07Z</time></trkpt><trkpt lat="38.403887211364506" lon="16.410858479526613"><ele>108.0</ele><time>2026-05-03T07:30:46.07Z</time></trkpt><trkpt lat="38.4038861362768" lon="16.410714589188036"><ele>109.4</ele><time>2026-05-03T07:30:48.07Z</time></trkpt><trkpt lat="38.40390948071415" lon="16.41061799992499"><ele>110.80000000000001</ele><time>2026-05-03T07:30:49.07Z</time></trkpt><trkpt lat="38.403920943683104" lon="16.41050912028795"><ele>112.2</ele><time>2026-05-03T07:30:50.07Z</time></trkpt><trkpt lat="38.40391764080125" lon="16.41038117140125"><ele>113.6</ele><time>2026-05-03T07:30:51.07Z</time></trkpt><trkpt lat="38.40395142192601" lon="16.410245783507897"><ele>115.0</ele><time>2026-05-03T07:30:52.07Z</time></trkpt><trkpt lat="38.403968361320885" lon="16.410113799724513"><ele>115.0</ele><time>2026-05-03T07:30:53.07Z</time></trkpt><trkpt lat="38.40398550348551" lon="16.40997160756736"><ele>115.0</ele><time>2026-05-03T07:30:54.07Z</time></trkpt><trkpt lat="38.40400294733408" lon="16.40981974149653"><ele>115.0</ele><time>2026-05-03T07:30:55.071Z</time></trkpt><trkpt lat="38.40401945361948" lon="16.40966595694795"><ele>115.0</ele><time>2026-05-03T07:30:56.071Z</time></trkpt><trkpt lat="38.404037331155955" lon="16.409516109823013"><ele>114.0</ele><time>2026-05-03T07:30:57.071Z</time></trkpt><trkpt lat="38.40405227361541" lon="16.40935284333824"><ele>113.0</ele><time>2026-05-03T07:30:58.071Z</time></trkpt><trkpt lat="38.40406557008764" lon="16.409187708009924"><ele>112.0</ele><time>2026-05-03T07:30:59.071Z</time></trkpt><trkpt lat="38.404071953445005" lon="16.409036895495866"><ele>111.0</ele><time>2026-05-03T07:31:00.071Z</time></trkpt><trkpt lat="38.404084839502424" lon="16.408875070976578"><ele>111.0</ele><time>2026-05-03T07:31:01.071Z</time></trkpt><trkpt lat="38.4040996300219" lon="16.40870831672576"><ele>111.0</ele><time>2026-05-03T07:31:02.071Z</time></trkpt><trkpt lat="38.40411866334144" lon="16.408542764528526"><ele>111.0</ele><time>2026-05-03T07:31:03.071Z</time></trkpt><trkpt lat="38.40412855395916" lon="16.40837336166359"><ele>111.0</ele><time>2026-05-03T07:31:04.071Z</time></trkpt><trkpt lat="38.40413986606561" lon="16.408207680294982"><ele>111.0</ele><time>2026-05-03T07:31:05.071Z</time></trkpt><trkpt lat="38.40415190344074" lon="16.408041050797557"><ele>111.0</ele><time>2026-05-03T07:31:06.071Z</time></trkpt><trkpt lat="38.40415904117495" lon="16.407870639981713"><ele>111.0</ele><time>2026-05-03T07:31:07.071Z</time></trkpt><trkpt lat="38.40416844837406" lon="16.407697245340373"><ele>111.0</ele><time>2026-05-03T07:31:08.071Z</time></trkpt><trkpt lat="38.40418223566606" lon="16.407530403405"><ele>111.25</ele><time>2026-05-03T07:31:09.071Z</time></trkpt><trkpt lat="38.4041928406221" lon="16.407358060651248"><ele>111.5</ele><time>2026-05-03T07:31:10.071Z</time></trkpt><trkpt lat="38.404213955196106" lon="16.407190098131878"><ele>111.75</ele><time>2026-05-03T07:31:11.071Z</time></trkpt><trkpt lat="38.40423071389631" lon="16.40701822953709"><ele>112.0</ele><time>2026-05-03T07:31:12.071Z</time></trkpt><trkpt lat="38.40424002105691" lon="16.406857367910703"><ele>112.0</ele><time>2026-05-03T07:31:13.071Z</time></trkpt><trkpt lat="38.40425101705233" lon="16.40669806419954"><ele>112.0</ele><time>2026-05-03T07:31:14.071Z</time></trkpt><trkpt lat="38.40425327181354" lon="16.40653608616529"><ele>112.0</ele><time>2026-05-03T07:31:15.07Z</time></trkpt><trkpt lat="38.40428048424046" lon="16.406366923794252"><ele>112.0</ele><time>2026-05-03T07:31:16.07Z</time></trkpt><trkpt lat="38.40428734012156" lon="16.406217379882857"><ele>112.0</ele><time>2026-05-03T07:31:17.07Z</time></trkpt><trkpt lat="38.40429202442689" lon="16.406056972183823"><ele>112.0</ele><time>2026-05-03T07:31:18.071Z</time></trkpt><trkpt lat="38.4042950346512" lon="16.405901389611408"><ele>112.0</ele><time>2026-05-03T07:31:19.071Z</time></trkpt><trkpt lat="38.4042909702833" lon="16.40574533889457"><ele>112.0</ele><time>2026-05-03T07:31:20.071Z</time></trkpt><trkpt lat="38.40428306434969" lon="16.405578512006414"><ele>112.5</ele><time>2026-05-03T07:31:21.071Z</time></trkpt><trkpt lat="38.40426530378437" lon="16.405404895302198"><ele>113.0</ele><time>2026-05-03T07:31:22.071Z</time></trkpt><trkpt lat="38.404242078642085" lon="16.405237138845187"><ele>113.5</ele><time>2026-05-03T07:31:23.071Z</time></trkpt><trkpt lat="38.40421788076573" lon="16.40506630877937"><ele>114.0</ele><time>2026-05-03T07:31:24.07Z</time></trkpt><trkpt lat="38.40419722480565" lon="16.40489988600265"><ele>114.0</ele><time>2026-05-03T07:31:25.071Z</time></trkpt><trkpt lat="38.404176629720205" lon="16.40473746430419"><ele>114.0</ele><time>2026-05-03T07:31:26.071Z</time></trkpt><trkpt lat="38.40416270299828" lon="16.404568741607367"><ele>114.0</ele><time>2026-05-03T07:31:27.071Z</time></trkpt><trkpt lat="38.404141451919884" lon="16.40439765409155"><ele>114.0</ele><time>2026-05-03T07:31:28.071Z</time></trkpt><trkpt lat="38.40411279218094" lon="16.404229115639676"><ele>114.25</ele><time>2026-05-03T07:31:29.072Z</time></trkpt><trkpt lat="38.404085164255" lon="16.40405649342902"><ele>114.5</ele><time>2026-05-03T07:31:30.072Z</time></trkpt><trkpt lat="38.40407928460723" lon="16.403888914027828"><ele>114.75</ele><time>2026-05-03T07:31:31.072Z</time></trkpt><trkpt lat="38.404053473515674" lon="16.40372145574761"><ele>115.0</ele><time>2026-05-03T07:31:32.072Z</time></trkpt><trkpt lat="38.404025431919464" lon="16.40353503823642"><ele>115.0</ele><time>2026-05-03T07:31:33.072Z</time></trkpt><trkpt lat="38.403999556180054" lon="16.403354467194678"><ele>115.0</ele><time>2026-05-03T07:31:34.072Z</time></trkpt><trkpt lat="38.40399317325185" lon="16.403162830654498"><ele>115.0</ele><time>2026-05-03T07:31:35.072Z</time></trkpt><trkpt lat="38.403952502486945" lon="16.40297059842119"><ele>115.25</ele><time>2026-05-03T07:31:36.072Z</time></trkpt><trkpt lat="38.40395500617809" lon="16.402779672412493"><ele>115.5</ele><time>2026-05-03T07:31:37.072Z</time></trkpt><trkpt lat="38.40393543584211" lon="16.402589509741823"><ele>115.75</ele><time>2026-05-03T07:31:38.072Z</time></trkpt><trkpt lat="38.40391735282981" lon="16.402403142716047"><ele>116.0</ele><time>2026-05-03T07:31:39.072Z</time></trkpt><trkpt lat="38.403898965569525" lon="16.402209804415346"><ele>117.33333333333333</ele><time>2026-05-03T07:31:40.072Z</time></trkpt><trkpt lat="38.40387856617521" lon="16.40201463624987"><ele>118.66666666666666</ele><time>2026-05-03T07:31:41.072Z</time></trkpt><trkpt lat="38.40385903526333" lon="16.401819635052995"><ele>120.0</ele><time>2026-05-03T07:31:42.072Z</time></trkpt><trkpt lat="38.4038395703647" lon="16.401633067973613"><ele>119.75</ele><time>2026-05-03T07:31:43.072Z</time></trkpt><trkpt lat="38.40382195315682" lon="16.401451781391437"><ele>119.5</ele><time>2026-05-03T07:31:44.072Z</time></trkpt><trkpt lat="38.40380637649421" lon="16.401274426102866"><ele>119.25</ele><time>2026-05-03T07:31:45.072Z</time></trkpt><trkpt lat="38.40378702322377" lon="16.401079584383194"><ele>119.0</ele><time>2026-05-03T07:31:46.072Z</time></trkpt><trkpt lat="38.40376672315542" lon="16.4008940075592"><ele>118.75</ele><time>2026-05-03T07:31:47.072Z</time></trkpt><trkpt lat="38.40373676486456" lon="16.400705139839154"><ele>118.5</ele><time>2026-05-03T07:31:48.072Z</time></trkpt><trkpt lat="38.403711996540444" lon="16.400527221899644"><ele>118.25</ele><time>2026-05-03T07:31:49.072Z</time></trkpt><trkpt lat="38.40369089820404" lon="16.40034603485959"><ele>118.0</ele><time>2026-05-03T07:31:50.072Z</time></trkpt><trkpt lat="38.4036720268426" lon="16.400173656550745"><ele>117.75</ele><time>2026-05-03T07:31:51.072Z</time></trkpt><trkpt lat="38.40364652853601" lon="16.39999884725113"><ele>117.5</ele><time>2026-05-03T07:31:52.072Z</time></trkpt><trkpt lat="38.403620735436846" lon="16.399822206657703"><ele>117.25</ele><time>2026-05-03T07:31:53.072Z</time></trkpt><trkpt lat="38.403584519854604" lon="16.399648820383238"><ele>117.0</ele><time>2026-05-03T07:31:54.072Z</time></trkpt><trkpt lat="38.40355791062723" lon="16.399475653823558"><ele>117.75</ele><time>2026-05-03T07:31:55.072Z</time></trkpt><trkpt lat="38.40350470239855" lon="16.399279367483174"><ele>118.5</ele><time>2026-05-03T07:31:56.072Z</time></trkpt><trkpt lat="38.40349843057189" lon="16.3991175474916"><ele>119.25</ele><time>2026-05-03T07:31:57.072Z</time></trkpt><trkpt lat="38.40349016208897" lon="16.398966242385963"><ele>120.0</ele><time>2026-05-03T07:31:58.072Z</time></trkpt><trkpt lat="38.40345668911457" lon="16.39878463414292"><ele>120.5</ele><time>2026-05-03T07:31:59.072Z</time></trkpt><trkpt lat="38.403429732114894" lon="16.398616914009533"><ele>121.0</ele><time>2026-05-03T07:32:00.072Z</time></trkpt><trkpt lat="38.40340138571777" lon="16.398452728897734"><ele>121.5</ele><time>2026-05-03T07:32:01.072Z</time></trkpt><trkpt lat="38.40337335521346" lon="16.398265131056082"><ele>122.0</ele><time>2026-05-03T07:32:02.072Z</time></trkpt><trkpt lat="38.403352252051796" lon="16.398096274170243"><ele>122.0</ele><time>2026-05-03T07:32:03.072Z</time></trkpt><trkpt lat="38.403330852243165" lon="16.39792391778813"><ele>122.0</ele><time>2026-05-03T07:32:04.073Z</time></trkpt><trkpt lat="38.40330560254794" lon="16.397740912537273"><ele>122.0</ele><time>2026-05-03T07:32:05.073Z</time></trkpt><trkpt lat="38.40327766923098" lon="16.397547416725203"><ele>122.0</ele><time>2026-05-03T07:32:06.073Z</time></trkpt><trkpt lat="38.40325787472875" lon="16.397376386457957"><ele>122.0</ele><time>2026-05-03T07:32:07.073Z</time></trkpt><trkpt lat="38.403246237097974" lon="16.397211744502524"><ele>122.0</ele><time>2026-05-03T07:32:08.073Z</time></trkpt><trkpt lat="38.40322498462302" lon="16.397042983465894"><ele>122.0</ele><time>2026-05-03T07:32:09.073Z</time></trkpt><trkpt lat="38.40321437379508" lon="16.3968518151198"><ele>122.0</ele><time>2026-05-03T07:32:10.073Z</time></trkpt><trkpt lat="38.40320738178326" lon="16.396671461380524"><ele>122.25</ele><time>2026-05-03T07:32:11.073Z</time></trkpt><trkpt lat="38.403197702693674" lon="16.396500294658342"><ele>122.5</ele><time>2026-05-03T07:32:12.073Z</time></trkpt><trkpt lat="38.4031878972042" lon="16.396322333822354"><ele>122.75</ele><time>2026-05-03T07:32:13.073Z</time></trkpt><trkpt lat="38.40318712052838" lon="16.396157238017068"><ele>123.0</ele><time>2026-05-03T07:32:14.073Z</time></trkpt><trkpt lat="38.4031772778845" lon="16.395970883124328"><ele>123.0</ele><time>2026-05-03T07:32:15.073Z</time></trkpt><trkpt lat="38.40317326182097" lon="16.395774303971955"><ele>123.0</ele><time>2026-05-03T07:32:16.073Z</time></trkpt><trkpt lat="38.403171931264296" lon="16.395597484181046"><ele>123.0</ele><time>2026-05-03T07:32:17.073Z</time></trkpt><trkpt lat="38.40317251436446" lon="16.395399138579002"><ele>123.0</ele><time>2026-05-03T07:32:18.073Z</time></trkpt><trkpt lat="38.403171160914695" lon="16.395217976415257"><ele>123.25</ele><time>2026-05-03T07:32:19.073Z</time></trkpt><trkpt lat="38.40317115937348" lon="16.39504169777297"><ele>123.5</ele><time>2026-05-03T07:32:20.073Z</time></trkpt><trkpt lat="38.4031881259025" lon="16.394852010092624"><ele>123.75</ele><time>2026-05-03T07:32:21.073Z</time></trkpt><trkpt lat="38.403193134682176" lon="16.394669364799494"><ele>124.0</ele><time>2026-05-03T07:32:22.073Z</time></trkpt><trkpt lat="38.403192015663734" lon="16.394491220141134"><ele>124.25</ele><time>2026-05-03T07:32:23.073Z</time></trkpt><trkpt lat="38.40319505401191" lon="16.394320268728688"><ele>124.5</ele><time>2026-05-03T07:32:24.073Z</time></trkpt><trkpt lat="38.403217251560754" lon="16.394145840769255"><ele>124.75</ele><time>2026-05-03T07:32:25.073Z</time></trkpt><trkpt lat="38.40322713914016" lon="16.393972622292345"><ele>125.0</ele><time>2026-05-03T07:32:26.073Z</time></trkpt><trkpt lat="38.40324635928871" lon="16.39381245221742"><ele>125.5</ele><time>2026-05-03T07:32:27.073Z</time></trkpt><trkpt lat="38.40328611908557" lon="16.393659620093743"><ele>126.0</ele><time>2026-05-03T07:32:28.073Z</time></trkpt><trkpt lat="38.40332292462138" lon="16.393499235555556"><ele>126.5</ele><time>2026-05-03T07:32:29.073Z</time></trkpt><trkpt lat="38.4033672624693" lon="16.39334710435731"><ele>127.0</ele><time>2026-05-03T07:32:30.073Z</time></trkpt><trkpt lat="38.403406470311054" lon="16.393203131400035"><ele>127.0</ele><time>2026-05-03T07:32:31.073Z</time></trkpt><trkpt lat="38.40344541642238" lon="16.393046113428284"><ele>127.0</ele><time>2026-05-03T07:32:32.073Z</time></trkpt><trkpt lat="38.40348017735174" lon="16.392890452697383"><ele>127.0</ele><time>2026-05-03T07:32:33.073Z</time></trkpt><trkpt lat="38.40351036896418" lon="16.39273454134981"><ele>127.0</ele><time>2026-05-03T07:32:34.073Z</time></trkpt><trkpt lat="38.40354756317923" lon="16.39256384370085"><ele>127.25</ele><time>2026-05-03T07:32:35.073Z</time></trkpt><trkpt lat="38.40358543194199" lon="16.392397047852167"><ele>127.5</ele><time>2026-05-03T07:32:36.073Z</time></trkpt><trkpt lat="38.40362097056807" lon="16.392224865983785"><ele>127.75</ele><time>2026-05-03T07:32:37.073Z</time></trkpt><trkpt lat="38.40364515875461" lon="16.392060053038314"><ele>128.0</ele><time>2026-05-03T07:32:38.073Z</time></trkpt><trkpt lat="38.403669248240774" lon="16.39188377943458"><ele>128.5</ele><time>2026-05-03T07:32:39.074Z</time></trkpt><trkpt lat="38.403710710818345" lon="16.391708948228814"><ele>129.0</ele><time>2026-05-03T07:32:40.074Z</time></trkpt><trkpt lat="38.403739940683025" lon="16.391535029193435"><ele>129.5</ele><time>2026-05-03T07:32:41.074Z</time></trkpt><trkpt lat="38.40376541481331" lon="16.391369694471265"><ele>130.0</ele><time>2026-05-03T07:32:42.074Z</time></trkpt><trkpt lat="38.40380933528917" lon="16.391186878235764"><ele>130.25</ele><time>2026-05-03T07:32:43.074Z</time></trkpt><trkpt lat="38.403836820268566" lon="16.39102039943677"><ele>130.5</ele><time>2026-05-03T07:32:44.074Z</time></trkpt><trkpt lat="38.403878953346776" lon="16.39084656351584"><ele>130.75</ele><time>2026-05-03T07:32:45.074Z</time></trkpt><trkpt lat="38.40391994826623" lon="16.390674458919843"><ele>131.0</ele><time>2026-05-03T07:32:46.074Z</time></trkpt><trkpt lat="38.40396669821792" lon="16.39050744758053"><ele>131.5</ele><time>2026-05-03T07:32:47.074Z</time></trkpt><trkpt lat="38.4040189986001" lon="16.390329494844025"><ele>132.0</ele><time>2026-05-03T07:32:48.074Z</time></trkpt><trkpt lat="38.40406596905171" lon="16.390160046317312"><ele>132.5</ele><time>2026-05-03T07:32:49.074Z</time></trkpt><trkpt lat="38.40411284131624" lon="16.390000351068398"><ele>133.0</ele><time>2026-05-03T07:32:50.074Z</time></trkpt><trkpt lat="38.404163046974205" lon="16.38982453516264"><ele>133.25</ele><time>2026-05-03T07:32:51.074Z</time></trkpt><trkpt lat="38.40421625659539" lon="16.38965880934976"><ele>133.5</ele><time>2026-05-03T07:32:52.074Z</time></trkpt><trkpt lat="38.40427403198035" lon="16.389491743624543"><ele>133.75</ele><time>2026-05-03T07:32:53.074Z</time></trkpt><trkpt lat="38.40432734894918" lon="16.389338834325955"><ele>134.0</ele><time>2026-05-03T07:32:54.074Z</time></trkpt><trkpt lat="38.40439951182199" lon="16.38918085693069"><ele>134.0</ele><time>2026-05-03T07:32:55.074Z</time></trkpt><trkpt lat="38.40447679984791" lon="16.389029131662483"><ele>134.0</ele><time>2026-05-03T07:32:56.074Z</time></trkpt><trkpt lat="38.40456356370337" lon="16.38888088786077"><ele>134.0</ele><time>2026-05-03T07:32:57.074Z</time></trkpt><trkpt lat="38.404661578644074" lon="16.388738067896114"><ele>134.0</ele><time>2026-05-03T07:32:58.074Z</time></trkpt><trkpt lat="38.40476204470931" lon="16.388602017856257"><ele>134.0</ele><time>2026-05-03T07:32:59.074Z</time></trkpt><trkpt lat="38.404870266710184" lon="16.3884599907873"><ele>134.0</ele><time>2026-05-03T07:33:00.074Z</time></trkpt><trkpt lat="38.40497547845696" lon="16.38831960026146"><ele>134.0</ele><time>2026-05-03T07:33:01.074Z</time></trkpt><trkpt lat="38.40506696837485" lon="16.38818983817781"><ele>134.0</ele><time>2026-05-03T07:33:02.074Z</time></trkpt><trkpt lat="38.405165897884956" lon="16.388069343389528"><ele>134.5</ele><time>2026-05-03T07:33:03.074Z</time></trkpt><trkpt lat="38.40526475239234" lon="16.387952795826468"><ele>135.0</ele><time>2026-05-03T07:33:04.074Z</time></trkpt><trkpt lat="38.40537764704196" lon="16.387837909173005"><ele>135.5</ele><time>2026-05-03T07:33:05.074Z</time></trkpt><trkpt lat="38.40548639622037" lon="16.387734719840495"><ele>136.0</ele><time>2026-05-03T07:33:06.074Z</time></trkpt><trkpt lat="38.40560808792111" lon="16.387643238250405"><ele>136.25</ele><time>2026-05-03T07:33:07.074Z</time></trkpt><trkpt lat="38.40572056548741" lon="16.387568892952036"><ele>136.5</ele><time>2026-05-03T07:33:08.074Z</time></trkpt><trkpt lat="38.40583732670843" lon="16.3874919214791"><ele>136.75</ele><time>2026-05-03T07:33:09.074Z</time></trkpt><trkpt lat="38.405951193335596" lon="16.387413436303245"><ele>137.0</ele><time>2026-05-03T07:33:10.074Z</time></trkpt><trkpt lat="38.40606715053553" lon="16.387343410224886"><ele>137.0</ele><time>2026-05-03T07:33:11.074Z</time></trkpt><trkpt lat="38.40617819388088" lon="16.38728036520021"><ele>137.0</ele><time>2026-05-03T07:33:12.074Z</time></trkpt><trkpt lat="38.40629040540018" lon="16.387212460166925"><ele>137.0</ele><time>2026-05-03T07:33:13.074Z</time></trkpt><trkpt lat="38.406403622564966" lon="16.38713990896971"><ele>137.0</ele><time>2026-05-03T07:33:14.075Z</time></trkpt><trkpt lat="38.40651524174668" lon="16.387078694964742"><ele>138.0</ele><time>2026-05-03T07:33:15.075Z</time></trkpt><trkpt lat="38.406627366016636" lon="16.38701239983561"><ele>139.0</ele><time>2026-05-03T07:33:16.075Z</time></trkpt><trkpt lat="38.406737202886816" lon="16.386945819136088"><ele>140.0</ele><time>2026-05-03T07:33:17.075Z</time></trkpt><trkpt lat="38.40685188111537" lon="16.386879314497925"><ele>141.0</ele><time>2026-05-03T07:33:18.075Z</time></trkpt><trkpt lat="38.40696205169592" lon="16.386805734843648"><ele>141.0</ele><time>2026-05-03T07:33:19.075Z</time></trkpt><trkpt lat="38.40705571170646" lon="16.38673610331237"><ele>141.0</ele><time>2026-05-03T07:33:20.075Z</time></trkpt><trkpt lat="38.407159155521576" lon="16.38666982193564"><ele>141.0</ele><time>2026-05-03T07:33:21.074Z</time></trkpt><trkpt lat="38.40726112419369" lon="16.38660709951141"><ele>141.0</ele><time>2026-05-03T07:33:22.074Z</time></trkpt><trkpt lat="38.40734878399845" lon="16.38654476136716"><ele>141.0</ele><time>2026-05-03T07:33:23.074Z</time></trkpt><trkpt lat="38.407423752586425" lon="16.386481923907542"><ele>141.0</ele><time>2026-05-03T07:33:24.074Z</time></trkpt><trkpt lat="38.40751410465535" lon="16.38642617569031"><ele>141.0</ele><time>2026-05-03T07:33:25.073Z</time></trkpt><trkpt lat="38.4075948879856" lon="16.386362475680524"><ele>141.0</ele><time>2026-05-03T07:33:26.073Z</time></trkpt><trkpt lat="38.40768587708276" lon="16.386293884301498"><ele>141.0</ele><time>2026-05-03T07:33:27.074Z</time></trkpt><trkpt lat="38.40778268600355" lon="16.38623058514436"><ele>141.0</ele><time>2026-05-03T07:33:28.074Z</time></trkpt><trkpt lat="38.407872129149816" lon="16.386160313196598"><ele>141.0</ele><time>2026-05-03T07:33:29.074Z</time></trkpt><trkpt lat="38.407967298825575" lon="16.386094356790498"><ele>141.0</ele><time>2026-05-03T07:33:30.074Z</time></trkpt><trkpt lat="38.408062908250685" lon="16.386031768766617"><ele>141.0</ele><time>2026-05-03T07:33:31.074Z</time></trkpt><trkpt lat="38.408157726753004" lon="16.385961959944613"><ele>141.0</ele><time>2026-05-03T07:33:32.074Z</time></trkpt><trkpt lat="38.408265287837985" lon="16.385887169103096"><ele>141.0</ele><time>2026-05-03T07:33:33.074Z</time></trkpt><trkpt lat="38.40836898134" lon="16.38580731645959"><ele>141.25</ele><time>2026-05-03T07:33:34.074Z</time></trkpt><trkpt lat="38.40847772680118" lon="16.38573079033805"><ele>141.5</ele><time>2026-05-03T07:33:35.074Z</time></trkpt><trkpt lat="38.40859012595895" lon="16.38565091297774"><ele>141.75</ele><time>2026-05-03T07:33:36.074Z</time></trkpt><trkpt lat="38.40870441798287" lon="16.385578222127325"><ele>142.0</ele><time>2026-05-03T07:33:37.074Z</time></trkpt><trkpt lat="38.4088237961887" lon="16.385499282036857"><ele>143.25</ele><time>2026-05-03T07:33:38.074Z</time></trkpt><trkpt lat="38.408944596542256" lon="16.38541432699293"><ele>144.5</ele><time>2026-05-03T07:33:39.074Z</time></trkpt><trkpt lat="38.40905141722584" lon="16.38533278723404"><ele>145.75</ele><time>2026-05-03T07:33:40.074Z</time></trkpt><trkpt lat="38.40916718849624" lon="16.38525285083198"><ele>147.0</ele><time>2026-05-03T07:33:41.074Z</time></trkpt><trkpt lat="38.40928710645988" lon="16.385177215732863"><ele>147.0</ele><time>2026-05-03T07:33:42.074Z</time></trkpt><trkpt lat="38.40940730853398" lon="16.385098922054517"><ele>147.0</ele><time>2026-05-03T07:33:43.074Z</time></trkpt><trkpt lat="38.40953751642729" lon="16.385012046390738"><ele>147.0</ele><time>2026-05-03T07:33:44.074Z</time></trkpt><trkpt lat="38.40964950251535" lon="16.384930892025594"><ele>147.0</ele><time>2026-05-03T07:33:45.075Z</time></trkpt><trkpt lat="38.40978861179024" lon="16.38483952601641"><ele>146.33333333333334</ele><time>2026-05-03T07:33:46.075Z</time></trkpt><trkpt lat="38.4099327288541" lon="16.38473268174299"><ele>145.66666666666669</ele><time>2026-05-03T07:33:47.075Z</time></trkpt><trkpt lat="38.41007760122837" lon="16.384637257928414"><ele>145.0</ele><time>2026-05-03T07:33:48.075Z</time></trkpt><trkpt lat="38.410215984738116" lon="16.38455025070756"><ele>145.0</ele><time>2026-05-03T07:33:49.075Z</time></trkpt><trkpt lat="38.41035294139258" lon="16.38445391699028"><ele>145.0</ele><time>2026-05-03T07:33:50.075Z</time></trkpt><trkpt lat="38.4104904960203" lon="16.384348054421274"><ele>145.0</ele><time>2026-05-03T07:33:51.075Z</time></trkpt><trkpt lat="38.41062710324953" lon="16.38424423587856"><ele>145.66666666666669</ele><time>2026-05-03T07:33:52.075Z</time></trkpt><trkpt lat="38.41077343164452" lon="16.384139052404525"><ele>146.33333333333334</ele><time>2026-05-03T07:33:53.075Z</time></trkpt><trkpt lat="38.41091434924474" lon="16.384034931519828"><ele>147.0</ele><time>2026-05-03T07:33:54.075Z</time></trkpt><trkpt lat="38.41107181793374" lon="16.383921649861275"><ele>147.0</ele><time>2026-05-03T07:33:55.075Z</time></trkpt><trkpt lat="38.41121276317156" lon="16.3838004705969"><ele>147.0</ele><time>2026-05-03T07:33:56.075Z</time></trkpt><trkpt lat="38.41136536961454" lon="16.383703732761607"><ele>147.0</ele><time>2026-05-03T07:33:57.075Z</time></trkpt><trkpt lat="38.41149596379188" lon="16.383587597885473"><ele>147.66666666666666</ele><time>2026-05-03T07:33:58.075Z</time></trkpt><trkpt lat="38.41164786922229" lon="16.383502422373837"><ele>148.33333333333331</ele><time>2026-05-03T07:33:59.075Z</time></trkpt><trkpt lat="38.41178064584414" lon="16.383408316792792"><ele>149.0</ele><time>2026-05-03T07:34:00.075Z</time></trkpt><trkpt lat="38.41192109115829" lon="16.38330877608729"><ele>149.0</ele><time>2026-05-03T07:34:01.075Z</time></trkpt><trkpt lat="38.412061234968455" lon="16.383190476554212"><ele>149.0</ele><time>2026-05-03T07:34:02.075Z</time></trkpt><trkpt lat="38.41219265605564" lon="16.383099013863145"><ele>149.0</ele><time>2026-05-03T07:34:03.075Z</time></trkpt><trkpt lat="38.41234456264805" lon="16.38298662447845"><ele>149.66666666666666</ele><time>2026-05-03T07:34:04.075Z</time></trkpt><trkpt lat="38.4124811497398" lon="16.382905847366224"><ele>150.33333333333334</ele><time>2026-05-03T07:34:05.075Z</time></trkpt><trkpt lat="38.41261728971971" lon="16.38282271684755"><ele>151.0</ele><time>2026-05-03T07:34:06.075Z</time></trkpt><trkpt lat="38.4127615078327" lon="16.38273042132829"><ele>151.0</ele><time>2026-05-03T07:34:07.075Z</time></trkpt><trkpt lat="38.41290808164101" lon="16.382632065496214"><ele>151.0</ele><time>2026-05-03T07:34:08.075Z</time></trkpt><trkpt lat="38.413043568632844" lon="16.38253062138019"><ele>151.0</ele><time>2026-05-03T07:34:09.075Z</time></trkpt><trkpt lat="38.413182193637034" lon="16.38243671885202"><ele>151.5</ele><time>2026-05-03T07:34:10.075Z</time></trkpt><trkpt lat="38.41328787282748" lon="16.382353197517077"><ele>152.0</ele><time>2026-05-03T07:34:11.075Z</time></trkpt><trkpt lat="38.41339142579201" lon="16.382271113653907"><ele>152.5</ele><time>2026-05-03T07:34:12.075Z</time></trkpt><trkpt lat="38.41349777736022" lon="16.382186174936706"><ele>153.0</ele><time>2026-05-03T07:34:13.075Z</time></trkpt><trkpt lat="38.41361197466329" lon="16.382111897984075"><ele>153.0</ele><time>2026-05-03T07:34:14.075Z</time></trkpt><trkpt lat="38.41372701659509" lon="16.38201901414774"><ele>153.0</ele><time>2026-05-03T07:34:15.075Z</time></trkpt><trkpt lat="38.41383402464569" lon="16.38194707415807"><ele>153.0</ele><time>2026-05-03T07:34:16.075Z</time></trkpt><trkpt lat="38.41395329402337" lon="16.381859908300168"><ele>153.0</ele><time>2026-05-03T07:34:17.075Z</time></trkpt><trkpt lat="38.41405724401819" lon="16.381795377044032"><ele>153.25</ele><time>2026-05-03T07:34:18.075Z</time></trkpt><trkpt lat="38.414173155943146" lon="16.381728136696843"><ele>153.5</ele><time>2026-05-03T07:34:19.075Z</time></trkpt><trkpt lat="38.41427638971042" lon="16.381657462104986"><ele>153.75</ele><time>2026-05-03T07:34:20.076Z</time></trkpt><trkpt lat="38.41439542790362" lon="16.381567884056466"><ele>154.0</ele><time>2026-05-03T07:34:21.076Z</time></trkpt><trkpt lat="38.41450566624492" lon="16.381475556217737"><ele>154.0</ele><time>2026-05-03T07:34:22.076Z</time></trkpt><trkpt lat="38.414624944484174" lon="16.381397188927775"><ele>154.0</ele><time>2026-05-03T07:34:23.076Z</time></trkpt><trkpt lat="38.414746610573" lon="16.381313795288857"><ele>154.0</ele><time>2026-05-03T07:34:24.076Z</time></trkpt><trkpt lat="38.41486587468009" lon="16.381233889694293"><ele>154.0</ele><time>2026-05-03T07:34:25.076Z</time></trkpt><trkpt lat="38.41498405748894" lon="16.381146185259063"><ele>154.5</ele><time>2026-05-03T07:34:26.076Z</time></trkpt><trkpt lat="38.41511040255095" lon="16.38106339651373"><ele>155.0</ele><time>2026-05-03T07:34:27.076Z</time></trkpt><trkpt lat="38.415229391576155" lon="16.380973083669275"><ele>155.5</ele><time>2026-05-03T07:34:28.076Z</time></trkpt><trkpt lat="38.415350697155326" lon="16.38087266376561"><ele>156.0</ele><time>2026-05-03T07:34:29.076Z</time></trkpt><trkpt lat="38.41547683768812" lon="16.380792559235065"><ele>156.75</ele><time>2026-05-03T07:34:30.076Z</time></trkpt><trkpt lat="38.41561726519586" lon="16.380705989411197"><ele>157.5</ele><time>2026-05-03T07:34:31.076Z</time></trkpt><trkpt lat="38.4157385342374" lon="16.38062856336081"><ele>158.25</ele><time>2026-05-03T07:34:32.076Z</time></trkpt><trkpt lat="38.41585332814262" lon="16.380542855318435"><ele>159.0</ele><time>2026-05-03T07:34:33.076Z</time></trkpt><trkpt lat="38.415968244323444" lon="16.380441284163666"><ele>159.0</ele><time>2026-05-03T07:34:34.076Z</time></trkpt><trkpt lat="38.41610263829286" lon="16.380364979531667"><ele>159.0</ele><time>2026-05-03T07:34:35.076Z</time></trkpt><trkpt lat="38.41622911871172" lon="16.380274801057688"><ele>159.0</ele><time>2026-05-03T07:34:36.076Z</time></trkpt><trkpt lat="38.416345703562236" lon="16.380191677994077"><ele>159.0</ele><time>2026-05-03T07:34:37.076Z</time></trkpt><trkpt lat="38.416471687944615" lon="16.380102390189684"><ele>159.25</ele><time>2026-05-03T07:34:38.076Z</time></trkpt><trkpt lat="38.41660647296368" lon="16.380006828784325"><ele>159.5</ele><time>2026-05-03T07:34:39.076Z</time></trkpt><trkpt lat="38.41672287716261" lon="16.37992429910421"><ele>159.75</ele><time>2026-05-03T07:34:40.076Z</time></trkpt><trkpt lat="38.41684178092311" lon="16.379839997324243"><ele>160.0</ele><time>2026-05-03T07:34:41.076Z</time></trkpt><trkpt lat="38.416952227954766" lon="16.37976169128476"><ele>160.0</ele><time>2026-05-03T07:34:42.076Z</time></trkpt><trkpt lat="38.417072912432396" lon="16.37967612698162"><ele>160.0</ele><time>2026-05-03T07:34:43.076Z</time></trkpt><trkpt lat="38.41718470123133" lon="16.379596869633364"><ele>160.0</ele><time>2026-05-03T07:34:44.076Z</time></trkpt><trkpt lat="38.41729168581391" lon="16.379521018428548"><ele>160.0</ele><time>2026-05-03T07:34:45.076Z</time></trkpt><trkpt lat="38.4174078078165" lon="16.379438688921073"><ele>160.4</ele><time>2026-05-03T07:34:46.076Z</time></trkpt><trkpt lat="38.41751284001618" lon="16.37936422192582"><ele>160.8</ele><time>2026-05-03T07:34:47.076Z</time></trkpt><trkpt lat="38.41761008329543" lon="16.379295277233396"><ele>161.2</ele><time>2026-05-03T07:34:48.076Z</time></trkpt><trkpt lat="38.41769376146269" lon="16.379235950109667"><ele>161.6</ele><time>2026-05-03T07:34:49.076Z</time></trkpt><trkpt lat="38.417799349781774" lon="16.379161088856502"><ele>162.0</ele><time>2026-05-03T07:34:50.076Z</time></trkpt><trkpt lat="38.417916431488294" lon="16.379078078890387"><ele>162.5</ele><time>2026-05-03T07:34:51.076Z</time></trkpt><trkpt lat="38.41800892715989" lon="16.37901250020659"><ele>163.0</ele><time>2026-05-03T07:34:52.076Z</time></trkpt><trkpt lat="38.41810295010206" lon="16.378945838723798"><ele>163.5</ele><time>2026-05-03T07:34:53.076Z</time></trkpt><trkpt lat="38.41822053729034" lon="16.378862470368936"><ele>164.0</ele><time>2026-05-03T07:34:54.077Z</time></trkpt><trkpt lat="38.418322035564415" lon="16.37879050893098"><ele>164.0</ele><time>2026-05-03T07:34:55.077Z</time></trkpt><trkpt lat="38.41843706577714" lon="16.37870895348808"><ele>164.0</ele><time>2026-05-03T07:34:56.077Z</time></trkpt><trkpt lat="38.41854413629297" lon="16.378633041344113"><ele>164.0</ele><time>2026-05-03T07:34:57.077Z</time></trkpt><trkpt lat="38.41865067744417" lon="16.37855750455957"><ele>164.0</ele><time>2026-05-03T07:34:58.077Z</time></trkpt><trkpt lat="38.41873649003389" lon="16.378492506792057"><ele>164.5</ele><time>2026-05-03T07:34:59.077Z</time></trkpt><trkpt lat="38.41884948646778" lon="16.378422203502634"><ele>165.0</ele><time>2026-05-03T07:35:00.077Z</time></trkpt><trkpt lat="38.4189621356604" lon="16.378348654201886"><ele>165.5</ele><time>2026-05-03T07:35:01.077Z</time></trkpt><trkpt lat="38.419072356865385" lon="16.378287500931393"><ele>166.0</ele><time>2026-05-03T07:35:02.077Z</time></trkpt><trkpt lat="38.419189591069234" lon="16.378220990090004"><ele>166.0</ele><time>2026-05-03T07:35:03.077Z</time></trkpt><trkpt lat="38.4192852931638" lon="16.378164918122017"><ele>166.0</ele><time>2026-05-03T07:35:04.077Z</time></trkpt><trkpt lat="38.41936604863051" lon="16.378123325452467"><ele>166.0</ele><time>2026-05-03T07:35:05.077Z</time></trkpt><trkpt lat="38.41942884621853" lon="16.378117446261083"><ele>166.0</ele><time>2026-05-03T07:35:06.077Z</time></trkpt><trkpt lat="38.419491336784084" lon="16.378127497025645"><ele>166.0</ele><time>2026-05-03T07:35:07.077Z</time></trkpt><trkpt lat="38.419617442942304" lon="16.378190828180728"><ele>167.16666666666669</ele><time>2026-05-03T07:35:09.077Z</time></trkpt><trkpt lat="38.41967466351203" lon="16.37824638373737"><ele>168.33333333333334</ele><time>2026-05-03T07:35:10.077Z</time></trkpt><trkpt lat="38.41971706348279" lon="16.37831924439975"><ele>169.5</ele><time>2026-05-03T07:35:11.077Z</time></trkpt><trkpt lat="38.419779479594396" lon="16.37838172709454"><ele>170.66666666666666</ele><time>2026-05-03T07:35:12.077Z</time></trkpt><trkpt lat="38.41985511524438" lon="16.3784343844595"><ele>171.83333333333331</ele><time>2026-05-03T07:35:13.077Z</time></trkpt><trkpt lat="38.41991990180016" lon="16.378512496389288"><ele>173.0</ele><time>2026-05-03T07:35:14.077Z</time></trkpt><trkpt lat="38.41996298866828" lon="16.37857852573471"><ele>173.0</ele><time>2026-05-03T07:35:15.077Z</time></trkpt><trkpt lat="38.420181099370765" lon="16.37851684371965"><ele>173.0</ele><time>2026-05-03T07:35:17.077Z</time></trkpt><trkpt lat="38.42026710645165" lon="16.378478348201426"><ele>173.0</ele><time>2026-05-03T07:35:18.077Z</time></trkpt><trkpt lat="38.4204000846371" lon="16.378443817808275"><ele>173.0</ele><time>2026-05-03T07:35:20.077Z</time></trkpt><trkpt lat="38.42047585374068" lon="16.378422369961076"><ele>173.0</ele><time>2026-05-03T07:35:21.077Z</time></trkpt><trkpt lat="38.42055842929653" lon="16.378458480390613"><ele>173.0</ele><time>2026-05-03T07:35:22.077Z</time></trkpt><trkpt lat="38.42064910602158" lon="16.37848177665952"><ele>173.0</ele><time>2026-05-03T07:35:23.077Z</time></trkpt><trkpt lat="38.42070970954416" lon="16.378555141121442"><ele>173.0</ele><time>2026-05-03T07:35:24.077Z</time></trkpt><trkpt lat="38.42076679449415" lon="16.378631805452173"><ele>173.0</ele><time>2026-05-03T07:35:25.077Z</time></trkpt><trkpt lat="38.420822780790445" lon="16.378707534154632"><ele>175.4</ele><time>2026-05-03T07:35:26.077Z</time></trkpt><trkpt lat="38.4208899469623" lon="16.37879580427014"><ele>177.8</ele><time>2026-05-03T07:35:27.077Z</time></trkpt><trkpt lat="38.42094381624904" lon="16.378868017084198"><ele>180.2</ele><time>2026-05-03T07:35:28.076Z</time></trkpt><trkpt lat="38.4210200302215" lon="16.378939652131695"><ele>182.6</ele><time>2026-05-03T07:35:29.076Z</time></trkpt><trkpt lat="38.42108316105445" lon="16.379045698600635"><ele>185.0</ele><time>2026-05-03T07:35:30.076Z</time></trkpt><trkpt lat="38.42115978636196" lon="16.37915378180466"><ele>185.6</ele><time>2026-05-03T07:35:31.077Z</time></trkpt><trkpt lat="38.42123806770584" lon="16.379252153088974"><ele>186.2</ele><time>2026-05-03T07:35:32.077Z</time></trkpt><trkpt lat="38.42130894148929" lon="16.379354629597813"><ele>186.8</ele><time>2026-05-03T07:35:33.077Z</time></trkpt><trkpt lat="38.42138551278653" lon="16.37946007544608"><ele>187.4</ele><time>2026-05-03T07:35:34.077Z</time></trkpt><trkpt lat="38.42146341636019" lon="16.379559291746823"><ele>188.0</ele><time>2026-05-03T07:35:35.077Z</time></trkpt><trkpt lat="38.421543129910496" lon="16.37966789899256"><ele>189.2</ele><time>2026-05-03T07:35:36.077Z</time></trkpt><trkpt lat="38.42159754020323" lon="16.379772740387164"><ele>190.4</ele><time>2026-05-03T07:35:37.077Z</time></trkpt><trkpt lat="38.421639723167836" lon="16.37986047048718"><ele>191.6</ele><time>2026-05-03T07:35:38.077Z</time></trkpt><trkpt lat="38.42171005315748" lon="16.37996855212164"><ele>192.79999999999998</ele><time>2026-05-03T07:35:39.077Z</time></trkpt><trkpt lat="38.421780231583355" lon="16.380055969238178"><ele>194.0</ele><time>2026-05-03T07:35:40.078Z</time></trkpt><trkpt lat="38.42182719949463" lon="16.380141768107805"><ele>194.00000000000003</ele><time>2026-05-03T07:35:41.078Z</time></trkpt><trkpt lat="38.42186847221871" lon="16.380205192831337"><ele>194.0</ele><time>2026-05-03T07:35:42.078Z</time></trkpt><trkpt lat="38.421912890717614" lon="16.38028373872747"><ele>194.0</ele><time>2026-05-03T07:35:43.078Z</time></trkpt><trkpt lat="38.42194818689252" lon="16.380367250312617"><ele>194.0</ele><time>2026-05-03T07:35:44.078Z</time></trkpt><trkpt lat="38.42200981609385" lon="16.380473929992842"><ele>194.00000000000003</ele><time>2026-05-03T07:35:45.078Z</time></trkpt><trkpt lat="38.42206576919429" lon="16.380586662462118"><ele>194.0</ele><time>2026-05-03T07:35:46.078Z</time></trkpt><trkpt lat="38.422119357863096" lon="16.38070512601576"><ele>195.79999999999998</ele><time>2026-05-03T07:35:47.078Z</time></trkpt><trkpt lat="38.422177842739295" lon="16.38081537980821"><ele>197.6</ele><time>2026-05-03T07:35:48.078Z</time></trkpt><trkpt lat="38.422225340259104" lon="16.38094440601356"><ele>199.4</ele><time>2026-05-03T07:35:49.078Z</time></trkpt><trkpt lat="38.42225459641461" lon="16.381056167184937"><ele>201.2</ele><time>2026-05-03T07:35:50.078Z</time></trkpt><trkpt lat="38.42227767438104" lon="16.38116726881538"><ele>203.0</ele><time>2026-05-03T07:35:51.078Z</time></trkpt><trkpt lat="38.422293999752824" lon="16.38129233633712"><ele>203.60000000000002</ele><time>2026-05-03T07:35:52.078Z</time></trkpt><trkpt lat="38.422308652271475" lon="16.381386210753885"><ele>204.20000000000002</ele><time>2026-05-03T07:35:53.078Z</time></trkpt><trkpt lat="38.422350952102896" lon="16.381494525153247"><ele>204.8</ele><time>2026-05-03T07:35:54.078Z</time></trkpt><trkpt lat="38.42237341063441" lon="16.3816094885877"><ele>205.4</ele><time>2026-05-03T07:35:55.078Z</time></trkpt><trkpt lat="38.42241023641483" lon="16.381725939348854"><ele>206.0</ele><time>2026-05-03T07:35:56.078Z</time></trkpt><trkpt lat="38.42244577259644" lon="16.381851658751042"><ele>206.0</ele><time>2026-05-03T07:35:57.078Z</time></trkpt><trkpt lat="38.42246740387722" lon="16.381964131907484"><ele>206.0</ele><time>2026-05-03T07:35:58.078Z</time></trkpt><trkpt lat="38.422482678783894" lon="16.38207373564582"><ele>206.0</ele><time>2026-05-03T07:35:59.078Z</time></trkpt><trkpt lat="38.42248271660362" lon="16.382185432245244"><ele>206.0</ele><time>2026-05-03T07:36:00.078Z</time></trkpt><trkpt lat="38.422515570956435" lon="16.38228821302705"><ele>206.0</ele><time>2026-05-03T07:36:01.078Z</time></trkpt><trkpt lat="38.42257006647733" lon="16.38240220992128"><ele>207.50000000000003</ele><time>2026-05-03T07:36:02.078Z</time></trkpt><trkpt lat="38.42263964657904" lon="16.382447655959066"><ele>209.0</ele><time>2026-05-03T07:36:03.078Z</time></trkpt><trkpt lat="38.4227216010408" lon="16.38248814796849"><ele>210.5</ele><time>2026-05-03T07:36:04.078Z</time></trkpt><trkpt lat="38.42278056050892" lon="16.382542102245743"><ele>212.0</ele><time>2026-05-03T07:36:05.078Z</time></trkpt><trkpt lat="38.42285071262827" lon="16.382604115599648"><ele>213.50000000000003</ele><time>2026-05-03T07:36:06.078Z</time></trkpt><trkpt lat="38.42290255278766" lon="16.38268759736039"><ele>215.0</ele><time>2026-05-03T07:36:07.078Z</time></trkpt><trkpt lat="38.42296855424463" lon="16.382788324102723"><ele>214.8</ele><time>2026-05-03T07:36:08.078Z</time></trkpt><trkpt lat="38.42303002089133" lon="16.38288338927742"><ele>214.6</ele><time>2026-05-03T07:36:09.078Z</time></trkpt><trkpt lat="38.42306912911238" lon="16.38299303599899"><ele>214.39999999999998</ele><time>2026-05-03T07:36:10.078Z</time></trkpt><trkpt lat="38.423130726520334" lon="16.383087677607776"><ele>214.2</ele><time>2026-05-03T07:36:11.078Z</time></trkpt><trkpt lat="38.42320052997385" lon="16.383183576341832"><ele>214.0</ele><time>2026-05-03T07:36:12.078Z</time></trkpt><trkpt lat="38.423273485983856" lon="16.38327399689908"><ele>215.39999999999998</ele><time>2026-05-03T07:36:13.079Z</time></trkpt><trkpt lat="38.4233301715022" lon="16.38337363448565"><ele>216.79999999999998</ele><time>2026-05-03T07:36:14.079Z</time></trkpt><trkpt lat="38.42338919731071" lon="16.383463164245104"><ele>218.20000000000002</ele><time>2026-05-03T07:36:15.079Z</time></trkpt><trkpt lat="38.423452133517436" lon="16.38356261683001"><ele>219.60000000000002</ele><time>2026-05-03T07:36:16.079Z</time></trkpt><trkpt lat="38.42350987713919" lon="16.38368016726756"><ele>221.0</ele><time>2026-05-03T07:36:17.079Z</time></trkpt><trkpt lat="38.42357294434893" lon="16.383778295355548"><ele>222.75</ele><time>2026-05-03T07:36:18.079Z</time></trkpt><trkpt lat="38.42364246742595" lon="16.383885160725622"><ele>224.5</ele><time>2026-05-03T07:36:19.079Z</time></trkpt><trkpt lat="38.423724387592856" lon="16.384007174724122"><ele>226.25</ele><time>2026-05-03T07:36:20.079Z</time></trkpt><trkpt lat="38.423812819482414" lon="16.38413600835373"><ele>228.0</ele><time>2026-05-03T07:36:21.079Z</time></trkpt><trkpt lat="38.42388945693564" lon="16.384244267257735"><ele>229.0</ele><time>2026-05-03T07:36:22.079Z</time></trkpt><trkpt lat="38.42395650650044" lon="16.384336923109174"><ele>230.0</ele><time>2026-05-03T07:36:23.079Z</time></trkpt><trkpt lat="38.42402023175186" lon="16.384421091073587"><ele>231.0</ele><time>2026-05-03T07:36:24.079Z</time></trkpt><trkpt lat="38.42409120942997" lon="16.384511184201127"><ele>232.0</ele><time>2026-05-03T07:36:25.079Z</time></trkpt><trkpt lat="38.42417150141787" lon="16.384605065833206"><ele>233.0</ele><time>2026-05-03T07:36:26.079Z</time></trkpt><trkpt lat="38.4242637752746" lon="16.38468181729357"><ele>233.60000000000002</ele><time>2026-05-03T07:36:27.079Z</time></trkpt><trkpt lat="38.42433195537886" lon="16.38477239944342"><ele>234.20000000000002</ele><time>2026-05-03T07:36:28.079Z</time></trkpt><trkpt lat="38.42440960516447" lon="16.384856087645165"><ele>234.8</ele><time>2026-05-03T07:36:29.079Z</time></trkpt><trkpt lat="38.42449511640175" lon="16.38494230453368"><ele>235.4</ele><time>2026-05-03T07:36:30.079Z</time></trkpt><trkpt lat="38.424578460541284" lon="16.38501970743599"><ele>236.0</ele><time>2026-05-03T07:36:31.079Z</time></trkpt><trkpt lat="38.4246602370087" lon="16.385097508911723"><ele>237.8</ele><time>2026-05-03T07:36:32.079Z</time></trkpt><trkpt lat="38.42474757999478" lon="16.38517176381231"><ele>239.60000000000002</ele><time>2026-05-03T07:36:33.079Z</time></trkpt><trkpt lat="38.42482963296279" lon="16.385248064829458"><ele>241.4</ele><time>2026-05-03T07:36:34.079Z</time></trkpt><trkpt lat="38.424910078764675" lon="16.38532194904269"><ele>243.2</ele><time>2026-05-03T07:36:35.079Z</time></trkpt><trkpt lat="38.424990427097875" lon="16.385387420694116"><ele>245.0</ele><time>2026-05-03T07:36:36.079Z</time></trkpt><trkpt lat="38.42507712226527" lon="16.385466697823258"><ele>245.4</ele><time>2026-05-03T07:36:37.079Z</time></trkpt><trkpt lat="38.425158053202956" lon="16.38553622612927"><ele>245.8</ele><time>2026-05-03T07:36:38.079Z</time></trkpt><trkpt lat="38.425228669061035" lon="16.38560414978815"><ele>246.2</ele><time>2026-05-03T07:36:39.079Z</time></trkpt><trkpt lat="38.42529920617275" lon="16.385676083080412"><ele>246.6</ele><time>2026-05-03T07:36:40.079Z</time></trkpt><trkpt lat="38.42537733720865" lon="16.385733637526286"><ele>247.0</ele><time>2026-05-03T07:36:41.079Z</time></trkpt><trkpt lat="38.42545727303173" lon="16.385796406181584"><ele>248.39999999999998</ele><time>2026-05-03T07:36:42.079Z</time></trkpt><trkpt lat="38.42553542158477" lon="16.385862031559775"><ele>249.79999999999998</ele><time>2026-05-03T07:36:43.079Z</time></trkpt><trkpt lat="38.425615302251664" lon="16.38592041296389"><ele>251.2</ele><time>2026-05-03T07:36:44.079Z</time></trkpt><trkpt lat="38.42574455334173" lon="16.38598643167002"><ele>252.6</ele><time>2026-05-03T07:36:45.079Z</time></trkpt><trkpt lat="38.4258394701538" lon="16.3860228195932"><ele>254.0</ele><time>2026-05-03T07:36:46.079Z</time></trkpt><trkpt lat="38.42591562108388" lon="16.3860629845239"><ele>254.00000000000003</ele><time>2026-05-03T07:36:47.079Z</time></trkpt><trkpt lat="38.42598499432472" lon="16.386112546658335"><ele>254.0</ele><time>2026-05-03T07:36:48.08Z</time></trkpt><trkpt lat="38.42606209895719" lon="16.386154644501307"><ele>254.0</ele><time>2026-05-03T07:36:49.08Z</time></trkpt><trkpt lat="38.42612732482652" lon="16.386190810373332"><ele>254.0</ele><time>2026-05-03T07:36:50.08Z</time></trkpt><trkpt lat="38.42621733622784" lon="16.3862129048837"><ele>254.00000000000003</ele><time>2026-05-03T07:36:51.08Z</time></trkpt><trkpt lat="38.42630360404751" lon="16.386239589214295"><ele>254.0</ele><time>2026-05-03T07:36:52.08Z</time></trkpt><trkpt lat="38.42638283652948" lon="16.386268866596968"><ele>255.66666666666669</ele><time>2026-05-03T07:36:53.08Z</time></trkpt><trkpt lat="38.42644805449659" lon="16.386283590590757"><ele>257.33333333333337</ele><time>2026-05-03T07:36:54.08Z</time></trkpt><trkpt lat="38.4265260923845" lon="16.386317261613055"><ele>259.0</ele><time>2026-05-03T07:36:56.08Z</time></trkpt><trkpt lat="38.426535372565915" lon="16.386411956679172"><ele>260.6666666666667</ele><time>2026-05-03T07:36:57.08Z</time></trkpt><trkpt lat="38.42657574264418" lon="16.386583202361177"><ele>262.3333333333333</ele><time>2026-05-03T07:36:59.08Z</time></trkpt><trkpt lat="38.42660057482612" lon="16.38668159716514"><ele>264.0</ele><time>2026-05-03T07:37:00.08Z</time></trkpt><trkpt lat="38.42663561545143" lon="16.38677170030037"><ele>264.0</ele><time>2026-05-03T07:37:01.08Z</time></trkpt><trkpt lat="38.42665191117618" lon="16.386896241740274"><ele>264.0</ele><time>2026-05-03T07:37:02.08Z</time></trkpt><trkpt lat="38.426675808172256" lon="16.38702522841275"><ele>264.0</ele><time>2026-05-03T07:37:03.08Z</time></trkpt><trkpt lat="38.42670233262503" lon="16.387145782239323"><ele>264.0</ele><time>2026-05-03T07:37:04.08Z</time></trkpt><trkpt lat="38.4267180564597" lon="16.38724644967394"><ele>264.0</ele><time>2026-05-03T07:37:05.08Z</time></trkpt><trkpt lat="38.42675222581243" lon="16.38731497686736"><ele>264.0</ele><time>2026-05-03T07:37:06.08Z</time></trkpt><trkpt lat="38.426795493259085" lon="16.387475902585983"><ele>264.59999999999997</ele><time>2026-05-03T07:37:08.08Z</time></trkpt><trkpt lat="38.426818918836794" lon="16.3875614199499"><ele>265.2</ele><time>2026-05-03T07:37:09.08Z</time></trkpt><trkpt lat="38.42685219604998" lon="16.38768350590079"><ele>265.79999999999995</ele><time>2026-05-03T07:37:11.08Z</time></trkpt><trkpt lat="38.42688772797676" lon="16.387779200782447"><ele>266.4</ele><time>2026-05-03T07:37:12.08Z</time></trkpt><trkpt lat="38.42694358116847" lon="16.387933717283953"><ele>267.0</ele><time>2026-05-03T07:37:13.08Z</time></trkpt><trkpt lat="38.426996532775554" lon="16.38806104715845"><ele>268.8</ele><time>2026-05-03T07:37:14.08Z</time></trkpt><trkpt lat="38.427044444974996" lon="16.38818099988198"><ele>270.6</ele><time>2026-05-03T07:37:15.08Z</time></trkpt><trkpt lat="38.4270890343132" lon="16.388292772612797"><ele>272.40000000000003</ele><time>2026-05-03T07:37:16.08Z</time></trkpt><trkpt lat="38.42711858927453" lon="16.38842352467436"><ele>274.2</ele><time>2026-05-03T07:37:17.08Z</time></trkpt><trkpt lat="38.427157870767765" lon="16.388570815976156"><ele>276.0</ele><time>2026-05-03T07:37:18.08Z</time></trkpt><trkpt lat="38.427186890180366" lon="16.388687194499166"><ele>277.0</ele><time>2026-05-03T07:37:19.08Z</time></trkpt><trkpt lat="38.42721629546632" lon="16.388805343189205"><ele>278.0</ele><time>2026-05-03T07:37:20.08Z</time></trkpt><trkpt lat="38.42724693589806" lon="16.38892845467216"><ele>279.0</ele><time>2026-05-03T07:37:21.08Z</time></trkpt><trkpt lat="38.4272789268861" lon="16.389056992517148"><ele>280.0</ele><time>2026-05-03T07:37:22.08Z</time></trkpt><trkpt lat="38.427313175279906" lon="16.38918590914086"><ele>281.0</ele><time>2026-05-03T07:37:23.081Z</time></trkpt><trkpt lat="38.42735687663593" lon="16.3893336892299"><ele>282.25</ele><time>2026-05-03T07:37:24.081Z</time></trkpt><trkpt lat="38.42738667724916" lon="16.389460331675565"><ele>283.5</ele><time>2026-05-03T07:37:25.081Z</time></trkpt><trkpt lat="38.42742574993202" lon="16.389608326646936"><ele>284.75</ele><time>2026-05-03T07:37:26.081Z</time></trkpt><trkpt lat="38.427463996112586" lon="16.389748597219192"><ele>286.0</ele><time>2026-05-03T07:37:27.081Z</time></trkpt><trkpt lat="38.42750306166094" lon="16.389892720119686"><ele>287.2</ele><time>2026-05-03T07:37:28.081Z</time></trkpt><trkpt lat="38.42756214339483" lon="16.390019961527365"><ele>288.40000000000003</ele><time>2026-05-03T07:37:29.081Z</time></trkpt><trkpt lat="38.4276031109013" lon="16.390150936392992"><ele>289.6</ele><time>2026-05-03T07:37:30.081Z</time></trkpt><trkpt lat="38.427638774386104" lon="16.390272952780215"><ele>290.8</ele><time>2026-05-03T07:37:31.081Z</time></trkpt><trkpt lat="38.4276993043363" lon="16.39039502751301"><ele>292.0</ele><time>2026-05-03T07:37:32.081Z</time></trkpt><trkpt lat="38.42776142632964" lon="16.390546978157968"><ele>292.8</ele><time>2026-05-03T07:37:33.079Z</time></trkpt><trkpt lat="38.42782180747293" lon="16.39065773332914"><ele>293.6</ele><time>2026-05-03T07:37:34.08Z</time></trkpt><trkpt lat="38.42788816432589" lon="16.39074799477435"><ele>294.40000000000003</ele><time>2026-05-03T07:37:35.08Z</time></trkpt><trkpt lat="38.427971255383106" lon="16.390862796201468"><ele>295.2</ele><time>2026-05-03T07:37:36.08Z</time></trkpt><trkpt lat="38.42804555721053" lon="16.390955815320773"><ele>296.0</ele><time>2026-05-03T07:37:37.08Z</time></trkpt><trkpt lat="38.428110389809696" lon="16.391042465266665"><ele>298.6</ele><time>2026-05-03T07:37:38.08Z</time></trkpt><trkpt lat="38.428174058125265" lon="16.391152906020533"><ele>301.20000000000005</ele><time>2026-05-03T07:37:39.08Z</time></trkpt><trkpt lat="38.42822024579368" lon="16.391272261736187"><ele>303.79999999999995</ele><time>2026-05-03T07:37:40.08Z</time></trkpt><trkpt lat="38.42829398877329" lon="16.391391335551468"><ele>306.4</ele><time>2026-05-03T07:37:41.08Z</time></trkpt><trkpt lat="38.42836117965251" lon="16.39151271819739"><ele>309.0</ele><time>2026-05-03T07:37:42.08Z</time></trkpt><trkpt lat="38.42842332035312" lon="16.391633520083484"><ele>309.2</ele><time>2026-05-03T07:37:43.08Z</time></trkpt><trkpt lat="38.42848034843066" lon="16.391743155013266"><ele>309.4</ele><time>2026-05-03T07:37:44.08Z</time></trkpt><trkpt lat="38.42853597002901" lon="16.391849035770647"><ele>309.6</ele><time>2026-05-03T07:37:45.08Z</time></trkpt><trkpt lat="38.42860173490036" lon="16.39196912085513"><ele>309.8</ele><time>2026-05-03T07:37:46.08Z</time></trkpt><trkpt lat="38.428656342606466" lon="16.39206988928192"><ele>310.0</ele><time>2026-05-03T07:37:47.08Z</time></trkpt><trkpt lat="38.42872652145718" lon="16.39218785388194"><ele>311.2</ele><time>2026-05-03T07:37:48.08Z</time></trkpt><trkpt lat="38.4287912437334" lon="16.39229894294724"><ele>312.4</ele><time>2026-05-03T07:37:49.08Z</time></trkpt><trkpt lat="38.42885595585124" lon="16.392395197506353"><ele>313.6</ele><time>2026-05-03T07:37:50.08Z</time></trkpt><trkpt lat="38.428929701966524" lon="16.392497793390636"><ele>314.8</ele><time>2026-05-03T07:37:51.08Z</time></trkpt><trkpt lat="38.429009051195905" lon="16.39262561978526"><ele>316.0</ele><time>2026-05-03T07:37:52.08Z</time></trkpt><trkpt lat="38.42908790789777" lon="16.392735378642268"><ele>318.0</ele><time>2026-05-03T07:37:53.08Z</time></trkpt><trkpt lat="38.42916510232103" lon="16.392826627473056"><ele>320.0</ele><time>2026-05-03T07:37:54.08Z</time></trkpt><trkpt lat="38.429259896430935" lon="16.392921406191768"><ele>322.0</ele><time>2026-05-03T07:37:55.08Z</time></trkpt><trkpt lat="38.42936031093134" lon="16.39298993494512"><ele>324.0</ele><time>2026-05-03T07:37:56.08Z</time></trkpt><trkpt lat="38.42946374673663" lon="16.39306450324747"><ele>324.5</ele><time>2026-05-03T07:37:57.08Z</time></trkpt><trkpt lat="38.42954711590826" lon="16.393144270935203"><ele>325.0</ele><time>2026-05-03T07:37:58.08Z</time></trkpt><trkpt lat="38.4296478603675" lon="16.39321721637934"><ele>325.5</ele><time>2026-05-03T07:37:59.08Z</time></trkpt><trkpt lat="38.429748050443145" lon="16.393288823786705"><ele>326.0</ele><time>2026-05-03T07:38:00.08Z</time></trkpt><trkpt lat="38.42985087030371" lon="16.393362310716693"><ele>327.20000000000005</ele><time>2026-05-03T07:38:01.081Z</time></trkpt><trkpt lat="38.42994856613647" lon="16.393413397112074"><ele>328.40000000000003</ele><time>2026-05-03T07:38:02.081Z</time></trkpt><trkpt lat="38.43003559593916" lon="16.393502206518043"><ele>329.6</ele><time>2026-05-03T07:38:03.081Z</time></trkpt><trkpt lat="38.43012469683311" lon="16.39357619100671"><ele>330.8</ele><time>2026-05-03T07:38:04.081Z</time></trkpt><trkpt lat="38.43021337270553" lon="16.393649158887722"><ele>332.0</ele><time>2026-05-03T07:38:05.081Z</time></trkpt><trkpt lat="38.43029583974854" lon="16.393708687123457"><ele>332.0</ele><time>2026-05-03T07:38:06.081Z</time></trkpt><trkpt lat="38.43038614114784" lon="16.393763084778175"><ele>332.0</ele><time>2026-05-03T07:38:07.081Z</time></trkpt><trkpt lat="38.43048794477474" lon="16.39380328024488"><ele>332.0</ele><time>2026-05-03T07:38:08.081Z</time></trkpt><trkpt lat="38.43059823466085" lon="16.39380328842339"><ele>332.0</ele><time>2026-05-03T07:38:09.081Z</time></trkpt><trkpt lat="38.43071581164717" lon="16.393819834037863"><ele>332.0</ele><time>2026-05-03T07:38:10.081Z</time></trkpt><trkpt lat="38.430826826233314" lon="16.39383474707447"><ele>333.40000000000003</ele><time>2026-05-03T07:38:11.081Z</time></trkpt><trkpt lat="38.43092905115596" lon="16.393848869702826"><ele>334.8</ele><time>2026-05-03T07:38:12.081Z</time></trkpt><trkpt lat="38.431029827723506" lon="16.393870690520085"><ele>336.2</ele><time>2026-05-03T07:38:13.081Z</time></trkpt><trkpt lat="38.43112995634805" lon="16.393908810744897"><ele>337.6</ele><time>2026-05-03T07:38:14.081Z</time></trkpt><trkpt lat="38.43122477909345" lon="16.393974969514304"><ele>339.0</ele><time>2026-05-03T07:38:15.081Z</time></trkpt><trkpt lat="38.431315454658666" lon="16.394028501447554"><ele>341.4</ele><time>2026-05-03T07:38:16.081Z</time></trkpt><trkpt lat="38.431410546839786" lon="16.39409422814675"><ele>343.79999999999995</ele><time>2026-05-03T07:38:17.081Z</time></trkpt><trkpt lat="38.43150210105219" lon="16.394157036464502"><ele>346.20000000000005</ele><time>2026-05-03T07:38:18.081Z</time></trkpt><trkpt lat="38.43158260552478" lon="16.394218989505024"><ele>348.6</ele><time>2026-05-03T07:38:19.081Z</time></trkpt><trkpt lat="38.43166454495488" lon="16.394277135293315"><ele>351.0</ele><time>2026-05-03T07:38:20.081Z</time></trkpt><trkpt lat="38.43175253506876" lon="16.394335818131346"><ele>351.0</ele><time>2026-05-03T07:38:21.081Z</time></trkpt><trkpt lat="38.43183243654583" lon="16.394396512144155"><ele>351.0</ele><time>2026-05-03T07:38:22.081Z</time></trkpt><trkpt lat="38.43191544372531" lon="16.394459190491702"><ele>351.0</ele><time>2026-05-03T07:38:23.081Z</time></trkpt><trkpt lat="38.43200437795924" lon="16.394534270438392"><ele>351.0</ele><time>2026-05-03T07:38:24.081Z</time></trkpt><trkpt lat="38.432091268810446" lon="16.394620695756043"><ele>351.0</ele><time>2026-05-03T07:38:25.081Z</time></trkpt><trkpt lat="38.43216692995778" lon="16.39472026757699"><ele>353.25</ele><time>2026-05-03T07:38:26.081Z</time></trkpt><trkpt lat="38.43225548066752" lon="16.394817606113847"><ele>355.5</ele><time>2026-05-03T07:38:27.081Z</time></trkpt><trkpt lat="38.43235306382997" lon="16.39491431738543"><ele>357.75</ele><time>2026-05-03T07:38:28.081Z</time></trkpt><trkpt lat="38.43245132774407" lon="16.395019452665892"><ele>360.0</ele><time>2026-05-03T07:38:29.081Z</time></trkpt><trkpt lat="38.43255168885356" lon="16.39513084393549"><ele>360.0</ele><time>2026-05-03T07:38:30.081Z</time></trkpt><trkpt lat="38.43265358589737" lon="16.395234934309862"><ele>360.0</ele><time>2026-05-03T07:38:31.081Z</time></trkpt><trkpt lat="38.43274010495673" lon="16.395352059720306"><ele>360.0</ele><time>2026-05-03T07:38:32.081Z</time></trkpt><trkpt lat="38.43283039563083" lon="16.39545562069697"><ele>360.0</ele><time>2026-05-03T07:38:33.081Z</time></trkpt><trkpt lat="38.432921395176244" lon="16.395554735687234"><ele>363.75</ele><time>2026-05-03T07:38:34.081Z</time></trkpt><trkpt lat="38.43302208616393" lon="16.395661185089534"><ele>367.5</ele><time>2026-05-03T07:38:35.081Z</time></trkpt><trkpt lat="38.433123110103494" lon="16.39576387484535"><ele>371.25</ele><time>2026-05-03T07:38:36.082Z</time></trkpt><trkpt lat="38.43321935532902" lon="16.395854752038144"><ele>375.0</ele><time>2026-05-03T07:38:37.082Z</time></trkpt><trkpt lat="38.433313204375665" lon="16.395960668200175"><ele>375.0</ele><time>2026-05-03T07:38:38.082Z</time></trkpt><trkpt lat="38.433402407357164" lon="16.396064759733743"><ele>375.0</ele><time>2026-05-03T07:38:39.082Z</time></trkpt><trkpt lat="38.43348174711831" lon="16.396165336979294"><ele>375.0</ele><time>2026-05-03T07:38:40.082Z</time></trkpt><trkpt lat="38.43355593284186" lon="16.39627399093344"><ele>375.0</ele><time>2026-05-03T07:38:41.082Z</time></trkpt><trkpt lat="38.433626265503044" lon="16.39639285033271"><ele>375.25</ele><time>2026-05-03T07:38:42.082Z</time></trkpt><trkpt lat="38.43369921165004" lon="16.396506171673522"><ele>375.5</ele><time>2026-05-03T07:38:43.082Z</time></trkpt><trkpt lat="38.43377179796571" lon="16.39663395711055"><ele>375.75</ele><time>2026-05-03T07:38:44.082Z</time></trkpt><trkpt lat="38.43384470674193" lon="16.396752671925928"><ele>376.0</ele><time>2026-05-03T07:38:45.082Z</time></trkpt><trkpt lat="38.433918019359844" lon="16.396874776147204"><ele>379.25</ele><time>2026-05-03T07:38:46.082Z</time></trkpt><trkpt lat="38.433985554565346" lon="16.39700166128626"><ele>382.5</ele><time>2026-05-03T07:38:47.082Z</time></trkpt><trkpt lat="38.434053883086605" lon="16.397115186002463"><ele>385.75</ele><time>2026-05-03T07:38:48.082Z</time></trkpt><trkpt lat="38.43412121504413" lon="16.397233207213855"><ele>389.0</ele><time>2026-05-03T07:38:49.082Z</time></trkpt><trkpt lat="38.434195241511446" lon="16.397349641344622"><ele>389.0</ele><time>2026-05-03T07:38:50.082Z</time></trkpt><trkpt lat="38.434270126759074" lon="16.39747340005275"><ele>389.0</ele><time>2026-05-03T07:38:51.082Z</time></trkpt><trkpt lat="38.43433899467372" lon="16.39758941311394"><ele>389.0</ele><time>2026-05-03T07:38:52.082Z</time></trkpt><trkpt lat="38.434411211118764" lon="16.397707796602248"><ele>389.0</ele><time>2026-05-03T07:38:53.082Z</time></trkpt><trkpt lat="38.43449017514295" lon="16.397823290344306"><ele>389.0</ele><time>2026-05-03T07:38:54.082Z</time></trkpt><trkpt lat="38.43456065591441" lon="16.397937181834646"><ele>389.0</ele><time>2026-05-03T07:38:55.082Z</time></trkpt><trkpt lat="38.434636741649804" lon="16.398049799126422"><ele>389.0</ele><time>2026-05-03T07:38:56.082Z</time></trkpt><trkpt lat="38.4346958406171" lon="16.398168328859256"><ele>389.0</ele><time>2026-05-03T07:38:57.082Z</time></trkpt><trkpt lat="38.43476760156655" lon="16.398271160857018"><ele>389.0</ele><time>2026-05-03T07:38:58.082Z</time></trkpt><trkpt lat="38.43483683620491" lon="16.398367430449383"><ele>392.6</ele><time>2026-05-03T07:38:59.082Z</time></trkpt><trkpt lat="38.43490567372508" lon="16.39846035045842"><ele>396.2</ele><time>2026-05-03T07:39:00.082Z</time></trkpt><trkpt lat="38.43497009584568" lon="16.39852465519677"><ele>399.8</ele><time>2026-05-03T07:39:01.082Z</time></trkpt><trkpt lat="38.43500885901277" lon="16.398600061525336"><ele>403.40000000000003</ele><time>2026-05-03T07:39:02.082Z</time></trkpt><trkpt lat="38.43507422419568" lon="16.39874084628361"><ele>407.0</ele><time>2026-05-03T07:39:04.082Z</time></trkpt><trkpt lat="38.43514431422012" lon="16.39888791739976"><ele>409.16666666666663</ele><time>2026-05-03T07:39:06.082Z</time></trkpt><trkpt lat="38.43517877857853" lon="16.399005290767438"><ele>411.3333333333333</ele><time>2026-05-03T07:39:08.082Z</time></trkpt><trkpt lat="38.43519010411955" lon="16.399084586728286"><ele>413.5</ele><time>2026-05-03T07:39:09.082Z</time></trkpt><trkpt lat="38.4351958311365" lon="16.399176823861275"><ele>415.66666666666663</ele><time>2026-05-03T07:39:10.082Z</time></trkpt><trkpt lat="38.435198403520275" lon="16.399282833335732"><ele>417.8333333333333</ele><time>2026-05-03T07:39:11.083Z</time></trkpt><trkpt lat="38.435199798330785" lon="16.39938060490093"><ele>420.0</ele><time>2026-05-03T07:39:12.083Z</time></trkpt><trkpt lat="38.43521495986987" lon="16.399478937139833"><ele>420.0</ele><time>2026-05-03T07:39:13.083Z</time></trkpt><trkpt lat="38.43519970304942" lon="16.39958919952538"><ele>420.0</ele><time>2026-05-03T07:39:14.083Z</time></trkpt><trkpt lat="38.4351920310983" lon="16.39967914616331"><ele>420.0</ele><time>2026-05-03T07:39:15.083Z</time></trkpt><trkpt lat="38.435167454836886" lon="16.399765940507343"><ele>420.0</ele><time>2026-05-03T07:39:16.083Z</time></trkpt><trkpt lat="38.43513301987873" lon="16.399857501279726"><ele>420.0</ele><time>2026-05-03T07:39:17.083Z</time></trkpt><trkpt lat="38.43509465409198" lon="16.399956240170233"><ele>420.0</ele><time>2026-05-03T07:39:18.083Z</time></trkpt><trkpt lat="38.435055126500004" lon="16.400055337240143"><ele>423.0</ele><time>2026-05-03T07:39:19.083Z</time></trkpt><trkpt lat="38.43501882287287" lon="16.400145946324063"><ele>426.0</ele><time>2026-05-03T07:39:20.083Z</time></trkpt><trkpt lat="38.43498292415884" lon="16.400239993219852"><ele>429.0</ele><time>2026-05-03T07:39:21.083Z</time></trkpt><trkpt lat="38.43494845487115" lon="16.40034745721864"><ele>432.0</ele><time>2026-05-03T07:39:22.083Z</time></trkpt><trkpt lat="38.43490667564993" lon="16.400444212090083"><ele>435.0</ele><time>2026-05-03T07:39:23.083Z</time></trkpt><trkpt lat="38.434865507112875" lon="16.400540605302847"><ele>438.0</ele><time>2026-05-03T07:39:24.083Z</time></trkpt><trkpt lat="38.43482966616658" lon="16.400633749557365"><ele>440.6666666666667</ele><time>2026-05-03T07:39:25.083Z</time></trkpt><trkpt lat="38.43479085726674" lon="16.400731170322032"><ele>443.33333333333337</ele><time>2026-05-03T07:39:26.083Z</time></trkpt><trkpt lat="38.43475137146598" lon="16.400819816109724"><ele>446.0</ele><time>2026-05-03T07:39:27.083Z</time></trkpt><trkpt lat="38.43470475997142" lon="16.40090385305865"><ele>448.6666666666667</ele><time>2026-05-03T07:39:28.083Z</time></trkpt><trkpt lat="38.43465194317241" lon="16.400982128629202"><ele>451.33333333333337</ele><time>2026-05-03T07:39:29.083Z</time></trkpt><trkpt lat="38.434597034603705" lon="16.401052811161968"><ele>454.0</ele><time>2026-05-03T07:39:30.083Z</time></trkpt><trkpt lat="38.43454057656261" lon="16.40112290947979"><ele>458.50000000000006</ele><time>2026-05-03T07:39:31.083Z</time></trkpt><trkpt lat="38.43449074509608" lon="16.401202684988778"><ele>463.0</ele><time>2026-05-03T07:39:32.083Z</time></trkpt><trkpt lat="38.43444460178348" lon="16.40128160485636"><ele>467.5</ele><time>2026-05-03T07:39:33.083Z</time></trkpt><trkpt lat="38.43440144858509" lon="16.40137287415972"><ele>472.0</ele><time>2026-05-03T07:39:34.083Z</time></trkpt><trkpt lat="38.43436651970318" lon="16.4014695038578"><ele>476.50000000000006</ele><time>2026-05-03T07:39:35.083Z</time></trkpt><trkpt lat="38.4343607140959" lon="16.40157142836014"><ele>481.0</ele><time>2026-05-03T07:39:36.083Z</time></trkpt><trkpt lat="38.4343542725378" lon="16.40167323244378"><ele>480.42857142857133</ele><time>2026-05-03T07:39:37.083Z</time></trkpt><trkpt lat="38.43435781785478" lon="16.401770604904247"><ele>479.85714285714283</ele><time>2026-05-03T07:39:38.083Z</time></trkpt><trkpt lat="38.43437679073482" lon="16.401858331116873"><ele>479.2857142857142</ele><time>2026-05-03T07:39:39.082Z</time></trkpt><trkpt lat="38.434406558993935" lon="16.401944323601445"><ele>478.71428571428567</ele><time>2026-05-03T07:39:40.083Z</time></trkpt><trkpt lat="38.43444466172568" lon="16.402017892420407"><ele>478.1428571428571</ele><time>2026-05-03T07:39:41.083Z</time></trkpt><trkpt lat="38.434496134504336" lon="16.40207078331819"><ele>477.57142857142856</ele><time>2026-05-03T07:39:42.083Z</time></trkpt><trkpt lat="38.434561243796765" lon="16.40209359298028"><ele>477.0</ele><time>2026-05-03T07:39:43.083Z</time></trkpt><trkpt lat="38.43464841367521" lon="16.40211340146533"><ele>477.0</ele><time>2026-05-03T07:39:44.083Z</time></trkpt><trkpt lat="38.4347255402715" lon="16.402081670357564"><ele>477.0</ele><time>2026-05-03T07:39:45.083Z</time></trkpt><trkpt lat="38.43480332619306" lon="16.402037361975562"><ele>477.0</ele><time>2026-05-03T07:39:46.083Z</time></trkpt><trkpt lat="38.43486886850683" lon="16.401989715833974"><ele>477.0</ele><time>2026-05-03T07:39:47.083Z</time></trkpt><trkpt lat="38.434944185088945" lon="16.40194424904283"><ele>477.0</ele><time>2026-05-03T07:39:48.083Z</time></trkpt><trkpt lat="38.435026049074864" lon="16.401931339602605"><ele>477.0</ele><time>2026-05-03T07:39:49.083Z</time></trkpt><trkpt lat="38.43512007823803" lon="16.401935295351468"><ele>477.0</ele><time>2026-05-03T07:39:50.083Z</time></trkpt><trkpt lat="38.43520089628846" lon="16.40195977082714"><ele>477.0</ele><time>2026-05-03T07:39:51.084Z</time></trkpt><trkpt lat="38.43527007934162" lon="16.40198681264036"><ele>477.0</ele><time>2026-05-03T07:39:52.083Z</time></trkpt><trkpt lat="38.435335741152485" lon="16.402029670245195"><ele>477.0</ele><time>2026-05-03T07:39:53.083Z</time></trkpt><trkpt lat="38.43539087326124" lon="16.402080596102337"><ele>477.0</ele><time>2026-05-03T07:39:54.083Z</time></trkpt><trkpt lat="38.43542387105321" lon="16.40217569178867"><ele>477.0</ele><time>2026-05-03T07:39:55.083Z</time></trkpt><trkpt lat="38.43541329647397" lon="16.40227485541663"><ele>484.5</ele><time>2026-05-03T07:39:56.083Z</time></trkpt><trkpt lat="38.435354995618596" lon="16.40241205826732"><ele>492.0</ele><time>2026-05-03T07:39:58.083Z</time></trkpt><trkpt lat="38.435256711476356" lon="16.40250107726925"><ele>499.5</ele><time>2026-05-03T07:40:00.083Z</time></trkpt><trkpt lat="38.43516457099153" lon="16.40254698399861"><ele>507.0</ele><time>2026-05-03T07:40:02.083Z</time></trkpt><trkpt lat="38.43505407172275" lon="16.40260853672438"><ele>507.0</ele><time>2026-05-03T07:40:04.083Z</time></trkpt><trkpt lat="38.434948502840676" lon="16.40265886254403"><ele>507.0</ele><time>2026-05-03T07:40:06.083Z</time></trkpt><trkpt lat="38.434834349317555" lon="16.40271359736103"><ele>507.0</ele><time>2026-05-03T07:40:08.083Z</time></trkpt><trkpt lat="38.434811084379156" lon="16.402859920629556"><ele>507.0</ele><time>2026-05-03T07:40:10.083Z</time></trkpt><trkpt lat="38.43491370173852" lon="16.402927817713426"><ele>507.0</ele><time>2026-05-03T07:40:12.083Z</time></trkpt><trkpt lat="38.43498914762831" lon="16.402931601903408"><ele>507.00000000000006</ele><time>2026-05-03T07:40:13.083Z</time></trkpt><trkpt lat="38.43513210151523" lon="16.402956100928407"><ele>507.00000000000006</ele><time>2026-05-03T07:40:15.083Z</time></trkpt><trkpt lat="38.4352296836311" lon="16.40298572514134"><ele>507.0</ele><time>2026-05-03T07:40:17.083Z</time></trkpt><trkpt lat="38.43525624276774" lon="16.403135834194693"><ele>507.0</ele><time>2026-05-03T07:40:19.083Z</time></trkpt><trkpt lat="38.43525706194226" lon="16.403233723154397"><ele>509.1428571428571</ele><time>2026-05-03T07:40:20.083Z</time></trkpt><trkpt lat="38.43526136436082" lon="16.40332490591844"><ele>511.28571428571433</ele><time>2026-05-03T07:40:21.083Z</time></trkpt><trkpt lat="38.43526971893597" lon="16.403421187440323"><ele>513.4285714285714</ele><time>2026-05-03T07:40:22.083Z</time></trkpt><trkpt lat="38.435290604462935" lon="16.40351198494773"><ele>515.5714285714286</ele><time>2026-05-03T07:40:23.083Z</time></trkpt><trkpt lat="38.43533446636099" lon="16.403582574852415"><ele>517.7142857142857</ele><time>2026-05-03T07:40:24.084Z</time></trkpt><trkpt lat="38.43537160291311" lon="16.40366828684105"><ele>519.8571428571429</ele><time>2026-05-03T07:40:25.084Z</time></trkpt><trkpt lat="38.43543677980433" lon="16.403714939250737"><ele>522.0</ele><time>2026-05-03T07:40:26.084Z</time></trkpt><trkpt lat="38.43554044374437" lon="16.4037449926608"><ele>522.0</ele><time>2026-05-03T07:40:27.084Z</time></trkpt><trkpt lat="38.435646244116846" lon="16.40375202804339"><ele>522.0</ele><time>2026-05-03T07:40:28.084Z</time></trkpt><trkpt lat="38.43573619422574" lon="16.40376230528534"><ele>522.0</ele><time>2026-05-03T07:40:30.084Z</time></trkpt><trkpt lat="38.435832510255516" lon="16.40383772733102"><ele>522.0</ele><time>2026-05-03T07:40:32.084Z</time></trkpt><trkpt lat="38.435971505404574" lon="16.403890554864223"><ele>522.0</ele><time>2026-05-03T07:40:34.084Z</time></trkpt><trkpt lat="38.43603613795813" lon="16.40387980331618"><ele>522.0</ele><time>2026-05-03T07:40:35.084Z</time></trkpt><trkpt lat="38.43609790340272" lon="16.40385225369258"><ele>522.0</ele><time>2026-05-03T07:40:36.084Z</time></trkpt><trkpt lat="38.43621286638454" lon="16.403791756375895"><ele>522.0</ele><time>2026-05-03T07:40:38.084Z</time></trkpt><trkpt lat="38.436270606614606" lon="16.403736980544334"><ele>522.0</ele><time>2026-05-03T07:40:39.084Z</time></trkpt><trkpt lat="38.43634038259485" lon="16.403720330576526"><ele>522.0</ele><time>2026-05-03T07:40:40.084Z</time></trkpt><trkpt lat="38.43640736672299" lon="16.403685669896397"><ele>522.6666666666666</ele><time>2026-05-03T07:40:41.084Z</time></trkpt><trkpt lat="38.4364745799312" lon="16.403649813372212"><ele>523.3333333333334</ele><time>2026-05-03T07:40:42.084Z</time></trkpt><trkpt lat="38.436547565503744" lon="16.40361236130711"><ele>524.0</ele><time>2026-05-03T07:40:43.084Z</time></trkpt><trkpt lat="38.43662388905268" lon="16.40357625842993"><ele>524.6666666666667</ele><time>2026-05-03T07:40:44.084Z</time></trkpt><trkpt lat="38.43670420339152" lon="16.403537474993055"><ele>525.3333333333334</ele><time>2026-05-03T07:40:45.084Z</time></trkpt><trkpt lat="38.43678032771398" lon="16.403498746778638"><ele>526.0</ele><time>2026-05-03T07:40:46.084Z</time></trkpt><trkpt lat="38.43685528578123" lon="16.40345833709407"><ele>526.0</ele><time>2026-05-03T07:40:47.084Z</time></trkpt><trkpt lat="38.436931307538565" lon="16.40342211715461"><ele>526.0</ele><time>2026-05-03T07:40:48.084Z</time></trkpt><trkpt lat="38.437021241528605" lon="16.403376502696542"><ele>526.0</ele><time>2026-05-03T07:40:49.084Z</time></trkpt><trkpt lat="38.437095629195795" lon="16.40333663078514"><ele>526.0</ele><time>2026-05-03T07:40:50.084Z</time></trkpt><trkpt lat="38.4371774409966" lon="16.403283987757455"><ele>526.0</ele><time>2026-05-03T07:40:51.084Z</time></trkpt><trkpt lat="38.43726198580497" lon="16.40323512998815"><ele>526.0</ele><time>2026-05-03T07:40:52.084Z</time></trkpt><trkpt lat="38.43734721113301" lon="16.40318156183573"><ele>526.8</ele><time>2026-05-03T07:40:53.084Z</time></trkpt><trkpt lat="38.43743177396352" lon="16.403132396152024"><ele>527.6</ele><time>2026-05-03T07:40:54.084Z</time></trkpt><trkpt lat="38.43752257784014" lon="16.4030726611675"><ele>528.4</ele><time>2026-05-03T07:40:55.084Z</time></trkpt><trkpt lat="38.437601548333106" lon="16.40303215456672"><ele>529.2</ele><time>2026-05-03T07:40:56.084Z</time></trkpt><trkpt lat="38.4376866110285" lon="16.402967787723654"><ele>530.0</ele><time>2026-05-03T07:40:57.084Z</time></trkpt><trkpt lat="38.43776285621794" lon="16.40290843663092"><ele>530.0</ele><time>2026-05-03T07:40:58.084Z</time></trkpt><trkpt lat="38.437827478572764" lon="16.402831041405875"><ele>530.0</ele><time>2026-05-03T07:40:59.085Z</time></trkpt><trkpt lat="38.4378856579383" lon="16.40275175710583"><ele>530.0</ele><time>2026-05-03T07:41:00.085Z</time></trkpt><trkpt lat="38.43793455144992" lon="16.402672298074013"><ele>530.0</ele><time>2026-05-03T07:41:01.085Z</time></trkpt><trkpt lat="38.43797639233051" lon="16.40259904299459"><ele>530.0</ele><time>2026-05-03T07:41:02.085Z</time></trkpt><trkpt lat="38.43802001566935" lon="16.402500744368925"><ele>530.0</ele><time>2026-05-03T07:41:04.085Z</time></trkpt><trkpt lat="38.438008076774544" lon="16.40274934931762"><ele>530.0</ele><time>2026-05-03T07:41:12.085Z</time></trkpt><trkpt lat="38.43793510501281" lon="16.402864664560354"><ele>530.0</ele><time>2026-05-03T07:41:14.085Z</time></trkpt><trkpt lat="38.43786285049158" lon="16.403001748299292"><ele>530.0</ele><time>2026-05-03T07:41:16.085Z</time></trkpt><trkpt lat="38.43782273337678" lon="16.403107062082903"><ele>530.0</ele><time>2026-05-03T07:41:17.085Z</time></trkpt><trkpt lat="38.437768407303146" lon="16.40317857672247"><ele>530.0</ele><time>2026-05-03T07:41:18.085Z</time></trkpt><trkpt lat="38.437696451513176" lon="16.40325143292968"><ele>526.0</ele><time>2026-05-03T07:41:19.085Z</time></trkpt><trkpt lat="38.4376400909292" lon="16.403289398657762"><ele>522.0</ele><time>2026-05-03T07:41:20.085Z</time></trkpt><trkpt lat="38.43761387672398" lon="16.40337022766062"><ele>518.0</ele><time>2026-05-03T07:41:21.085Z</time></trkpt><trkpt lat="38.43764022214942" lon="16.40347440259513"><ele>514.0</ele><time>2026-05-03T07:41:23.085Z</time></trkpt><trkpt lat="38.43784785168222" lon="16.40354100276845"><ele>510.0</ele><time>2026-05-03T07:41:27.085Z</time></trkpt><trkpt lat="38.43798603499366" lon="16.40348581457868"><ele>510.0</ele><time>2026-05-03T07:41:30.085Z</time></trkpt><trkpt lat="38.43811436232923" lon="16.403243195007335"><ele>510.0</ele><time>2026-05-03T07:41:32.085Z</time></trkpt><trkpt lat="38.438163900959104" lon="16.403147766392006"><ele>510.0</ele><time>2026-05-03T07:41:33.085Z</time></trkpt><trkpt lat="38.438201428892505" lon="16.403077350513083"><ele>510.0</ele><time>2026-05-03T07:41:34.086Z</time></trkpt><trkpt lat="38.43828934539392" lon="16.40297588687516"><ele>505.2</ele><time>2026-05-03T07:41:36.086Z</time></trkpt><trkpt lat="38.438360249014735" lon="16.402998382883645"><ele>500.4</ele><time>2026-05-03T07:41:37.086Z</time></trkpt><trkpt lat="38.43842436690408" lon="16.40302822601379"><ele>495.6</ele><time>2026-05-03T07:41:38.086Z</time></trkpt><trkpt lat="38.43854581996403" lon="16.403068476189684"><ele>490.8</ele><time>2026-05-03T07:41:40.086Z</time></trkpt><trkpt lat="38.438674124428616" lon="16.403070217841403"><ele>486.0</ele><time>2026-05-03T07:41:42.086Z</time></trkpt><trkpt lat="38.438745358443214" lon="16.403054764966953"><ele>485.3333333333333</ele><time>2026-05-03T07:41:43.086Z</time></trkpt><trkpt lat="38.438816750560186" lon="16.403028985097635"><ele>484.66666666666663</ele><time>2026-05-03T07:41:44.086Z</time></trkpt><trkpt lat="38.438892009808505" lon="16.403008184595397"><ele>484.0</ele><time>2026-05-03T07:41:45.086Z</time></trkpt><trkpt lat="38.43895926759002" lon="16.402990745966527"><ele>483.3333333333333</ele><time>2026-05-03T07:41:46.086Z</time></trkpt><trkpt lat="38.43901732373551" lon="16.40294859476497"><ele>482.66666666666663</ele><time>2026-05-03T07:41:47.086Z</time></trkpt><trkpt lat="38.439081825921754" lon="16.402832848709053"><ele>482.0</ele><time>2026-05-03T07:41:49.086Z</time></trkpt><trkpt lat="38.43910291777776" lon="16.40268386758111"><ele>481.99999999999994</ele><time>2026-05-03T07:41:51.086Z</time></trkpt><trkpt lat="38.439108343068625" lon="16.402595352055002"><ele>482.0</ele><time>2026-05-03T07:41:52.086Z</time></trkpt><trkpt lat="38.439192099820715" lon="16.402438635526664"><ele>482.0</ele><time>2026-05-03T07:41:54.086Z</time></trkpt><trkpt lat="38.4392426933165" lon="16.40237330805717"><ele>482.0</ele><time>2026-05-03T07:41:55.086Z</time></trkpt><trkpt lat="38.43930363501225" lon="16.402304470923067"><ele>481.99999999999994</ele><time>2026-05-03T07:41:56.086Z</time></trkpt><trkpt lat="38.43935958487172" lon="16.40224122112498"><ele>482.0</ele><time>2026-05-03T07:41:57.086Z</time></trkpt><trkpt lat="38.43942221343494" lon="16.402206942051386"><ele>482.0</ele><time>2026-05-03T07:41:58.086Z</time></trkpt><trkpt lat="38.4395209521327" lon="16.40223708199941"><ele>482.00000000000006</ele><time>2026-05-03T07:42:00.086Z</time></trkpt><trkpt lat="38.43961556735496" lon="16.402272683953036"><ele>482.00000000000006</ele><time>2026-05-03T07:42:02.086Z</time></trkpt><trkpt lat="38.439743466065565" lon="16.402296023514165"><ele>482.0</ele><time>2026-05-03T07:42:04.086Z</time></trkpt><trkpt lat="38.43981808137148" lon="16.402294528063436"><ele>482.0</ele><time>2026-05-03T07:42:05.086Z</time></trkpt><trkpt lat="38.43989198196027" lon="16.402286941748336"><ele>477.49999999999994</ele><time>2026-05-03T07:42:06.086Z</time></trkpt><trkpt lat="38.4399709002811" lon="16.40226161734176"><ele>473.0</ele><time>2026-05-03T07:42:07.086Z</time></trkpt><trkpt lat="38.44004133184034" lon="16.402251910051195"><ele>468.5</ele><time>2026-05-03T07:42:08.086Z</time></trkpt><trkpt lat="38.4401309580719" lon="16.402237291457414"><ele>464.0</ele><time>2026-05-03T07:42:09.086Z</time></trkpt><trkpt lat="38.440230216988915" lon="16.402246461577455"><ele>459.49999999999994</ele><time>2026-05-03T07:42:10.086Z</time></trkpt><trkpt lat="38.440320104311844" lon="16.402230496591446"><ele>455.0</ele><time>2026-05-03T07:42:11.086Z</time></trkpt><trkpt lat="38.440439839885386" lon="16.40220538826626"><ele>452.0</ele><time>2026-05-03T07:42:12.086Z</time></trkpt><trkpt lat="38.440552435766016" lon="16.402178531547204"><ele>449.0</ele><time>2026-05-03T07:42:13.086Z</time></trkpt><trkpt lat="38.440663390837464" lon="16.40212743811545"><ele>446.0</ele><time>2026-05-03T07:42:14.086Z</time></trkpt><trkpt lat="38.44075135289931" lon="16.402098637406635"><ele>443.0</ele><time>2026-05-03T07:42:15.086Z</time></trkpt><trkpt lat="38.44088182039032" lon="16.402070956770597"><ele>448.0</ele><time>2026-05-03T07:42:16.086Z</time></trkpt><trkpt lat="38.44101373167801" lon="16.402050966146138"><ele>453.0</ele><time>2026-05-03T07:42:17.086Z</time></trkpt><trkpt lat="38.441141670791076" lon="16.40203880265149"><ele>458.0</ele><time>2026-05-03T07:42:18.086Z</time></trkpt><trkpt lat="38.44124633266476" lon="16.402037752065077"><ele>463.0</ele><time>2026-05-03T07:42:19.086Z</time></trkpt><trkpt lat="38.441369044669244" lon="16.40200869515212"><ele>463.0</ele><time>2026-05-03T07:42:20.086Z</time></trkpt><trkpt lat="38.44148404551838" lon="16.401998717748548"><ele>462.99999999999994</ele><time>2026-05-03T07:42:21.086Z</time></trkpt><trkpt lat="38.44158799770335" lon="16.401989550537948"><ele>462.99999999999994</ele><time>2026-05-03T07:42:22.086Z</time></trkpt><trkpt lat="38.4417015445066" lon="16.401970723275905"><ele>463.0</ele><time>2026-05-03T07:42:23.086Z</time></trkpt><trkpt lat="38.44178572006777" lon="16.401936115341826"><ele>463.0</ele><time>2026-05-03T07:42:24.086Z</time></trkpt><trkpt lat="38.44186072395958" lon="16.401898134897802"><ele>463.00000000000006</ele><time>2026-05-03T07:42:25.086Z</time></trkpt><trkpt lat="38.44193720374909" lon="16.401842294719195"><ele>463.0</ele><time>2026-05-03T07:42:26.087Z</time></trkpt><trkpt lat="38.441998033147925" lon="16.401787567308183"><ele>463.0</ele><time>2026-05-03T07:42:27.087Z</time></trkpt><trkpt lat="38.44206020421272" lon="16.401721344066466"><ele>463.0</ele><time>2026-05-03T07:42:28.087Z</time></trkpt><trkpt lat="38.442125346298475" lon="16.401658561864828"><ele>463.00000000000006</ele><time>2026-05-03T07:42:29.087Z</time></trkpt><trkpt lat="38.44218537460672" lon="16.401574768050516"><ele>463.0</ele><time>2026-05-03T07:42:30.087Z</time></trkpt><trkpt lat="38.44225100166201" lon="16.40148844585104"><ele>460.6666666666667</ele><time>2026-05-03T07:42:31.087Z</time></trkpt><trkpt lat="38.44231429964901" lon="16.401403527059504"><ele>458.33333333333337</ele><time>2026-05-03T07:42:32.087Z</time></trkpt><trkpt lat="38.44237666845298" lon="16.401318581353937"><ele>456.0</ele><time>2026-05-03T07:42:33.087Z</time></trkpt><trkpt lat="38.44241556120155" lon="16.401220152125823"><ele>453.66666666666663</ele><time>2026-05-03T07:42:34.087Z</time></trkpt><trkpt lat="38.442462348567965" lon="16.401141617667054"><ele>451.3333333333333</ele><time>2026-05-03T07:42:35.087Z</time></trkpt><trkpt lat="38.44248078919889" lon="16.401043211077386"><ele>449.0</ele><time>2026-05-03T07:42:36.087Z</time></trkpt><trkpt lat="38.44246847951695" lon="16.400921547992205"><ele>448.99999999999994</ele><time>2026-05-03T07:42:37.087Z</time></trkpt><trkpt lat="38.44244620103321" lon="16.400811129348295"><ele>449.0</ele><time>2026-05-03T07:42:38.087Z</time></trkpt><trkpt lat="38.442426166798434" lon="16.400718689763373"><ele>449.0</ele><time>2026-05-03T07:42:39.087Z</time></trkpt><trkpt lat="38.442410501095395" lon="16.400618613017652"><ele>449.0</ele><time>2026-05-03T07:42:40.087Z</time></trkpt><trkpt lat="38.442405178081934" lon="16.400500670988503"><ele>448.99999999999994</ele><time>2026-05-03T07:42:41.087Z</time></trkpt><trkpt lat="38.44239954957348" lon="16.400377921368808"><ele>449.0</ele><time>2026-05-03T07:42:42.087Z</time></trkpt><trkpt lat="38.442374693532265" lon="16.400258165331177"><ele>448.6</ele><time>2026-05-03T07:42:43.087Z</time></trkpt><trkpt lat="38.442386045074734" lon="16.400131169435014"><ele>448.2</ele><time>2026-05-03T07:42:44.087Z</time></trkpt><trkpt lat="38.44236442954378" lon="16.40001067160649"><ele>447.80000000000007</ele><time>2026-05-03T07:42:45.087Z</time></trkpt><trkpt lat="38.442371606590854" lon="16.399879678651438"><ele>447.40000000000003</ele><time>2026-05-03T07:42:46.087Z</time></trkpt><trkpt lat="38.4424249673656" lon="16.399761400273892"><ele>447.0</ele><time>2026-05-03T07:42:47.087Z</time></trkpt><trkpt lat="38.442534597310775" lon="16.399695788592616"><ele>446.0</ele><time>2026-05-03T07:42:48.087Z</time></trkpt><trkpt lat="38.442612875112644" lon="16.399636887266357"><ele>445.00000000000006</ele><time>2026-05-03T07:42:49.087Z</time></trkpt><trkpt lat="38.4426939936099" lon="16.39957441182685"><ele>444.00000000000006</ele><time>2026-05-03T07:42:50.087Z</time></trkpt><trkpt lat="38.44279340244486" lon="16.399539626823866"><ele>443.0</ele><time>2026-05-03T07:42:51.087Z</time></trkpt><trkpt lat="38.44290810129233" lon="16.399608324154443"><ele>442.0</ele><time>2026-05-03T07:42:52.087Z</time></trkpt><trkpt lat="38.443016469005535" lon="16.39959200831232"><ele>442.0</ele><time>2026-05-03T07:42:53.087Z</time></trkpt><trkpt lat="38.44314803282311" lon="16.39958203990374"><ele>442.0</ele><time>2026-05-03T07:42:54.087Z</time></trkpt><trkpt lat="38.44324814395924" lon="16.399585888222276"><ele>442.0</ele><time>2026-05-03T07:42:55.087Z</time></trkpt><trkpt lat="38.44335501869543" lon="16.39958588822286"><ele>442.0</ele><time>2026-05-03T07:42:56.087Z</time></trkpt><trkpt lat="38.44393676730568" lon="16.399196208268435"><ele>443.0</ele><time>2026-05-03T07:43:01.088Z</time></trkpt><trkpt lat="38.4440711372509" lon="16.399162555933298"><ele>444.0</ele><time>2026-05-03T07:43:02.088Z</time></trkpt><trkpt lat="38.44419259248197" lon="16.399126665893302"><ele>445.0</ele><time>2026-05-03T07:43:03.088Z</time></trkpt><trkpt lat="38.444308623519504" lon="16.39910505608175"><ele>446.0</ele><time>2026-05-03T07:43:04.088Z</time></trkpt><trkpt lat="38.44441048198207" lon="16.39910884509506"><ele>446.0</ele><time>2026-05-03T07:43:05.088Z</time></trkpt><trkpt lat="38.44449362143443" lon="16.399140976290763"><ele>446.0</ele><time>2026-05-03T07:43:06.088Z</time></trkpt><trkpt lat="38.444566942196175" lon="16.39921273610902"><ele>446.0</ele><time>2026-05-03T07:43:07.088Z</time></trkpt><trkpt lat="38.44463977156468" lon="16.39929318610176"><ele>446.0</ele><time>2026-05-03T07:43:08.088Z</time></trkpt><trkpt lat="38.44471261433775" lon="16.39937065503653"><ele>446.0</ele><time>2026-05-03T07:43:09.088Z</time></trkpt><trkpt lat="38.44477939255142" lon="16.399432760743245"><ele>449.4</ele><time>2026-05-03T07:43:10.088Z</time></trkpt><trkpt lat="38.44484693687504" lon="16.399504930352034"><ele>452.8</ele><time>2026-05-03T07:43:11.088Z</time></trkpt><trkpt lat="38.44491047190462" lon="16.399584080188248"><ele>456.19999999999993</ele><time>2026-05-03T07:43:12.088Z</time></trkpt><trkpt lat="38.44498270144514" lon="16.39966761297548"><ele>459.59999999999997</ele><time>2026-05-03T07:43:13.088Z</time></trkpt><trkpt lat="38.445053375562054" lon="16.399753283316937"><ele>463.0</ele><time>2026-05-03T07:43:14.088Z</time></trkpt><trkpt lat="38.44513714743239" lon="16.399824495263452"><ele>463.0</ele><time>2026-05-03T07:43:15.088Z</time></trkpt><trkpt lat="38.445213475763794" lon="16.399884478678977"><ele>462.99999999999994</ele><time>2026-05-03T07:43:16.088Z</time></trkpt><trkpt lat="38.44529153343302" lon="16.399930845625974"><ele>462.99999999999994</ele><time>2026-05-03T07:43:17.088Z</time></trkpt><trkpt lat="38.44536347304547" lon="16.400003019826553"><ele>463.0</ele><time>2026-05-03T07:43:18.088Z</time></trkpt><trkpt lat="38.445413738211016" lon="16.40008310009716"><ele>463.0</ele><time>2026-05-03T07:43:19.088Z</time></trkpt><trkpt lat="38.44546385239231" lon="16.400205817001456"><ele>468.33333333333337</ele><time>2026-05-03T07:43:20.088Z</time></trkpt><trkpt lat="38.445505416209954" lon="16.400316164044128"><ele>473.6666666666667</ele><time>2026-05-03T07:43:21.088Z</time></trkpt><trkpt lat="38.44554956224304" lon="16.400400991989926"><ele>479.0</ele><time>2026-05-03T07:43:22.088Z</time></trkpt><trkpt lat="38.445593696697664" lon="16.40049120248084"><ele>484.33333333333337</ele><time>2026-05-03T07:43:23.088Z</time></trkpt><trkpt lat="38.445594334667646" lon="16.400595390861895"><ele>489.6666666666667</ele><time>2026-05-03T07:43:24.088Z</time></trkpt><trkpt lat="38.44556608690887" lon="16.400687028184784"><ele>495.0</ele><time>2026-05-03T07:43:25.088Z</time></trkpt><trkpt lat="38.44550742837382" lon="16.400753713845273"><ele>489.4</ele><time>2026-05-03T07:43:26.088Z</time></trkpt><trkpt lat="38.445436444396385" lon="16.400812976236953"><ele>483.8</ele><time>2026-05-03T07:43:27.088Z</time></trkpt><trkpt lat="38.44535251378087" lon="16.400928810109974"><ele>478.20000000000005</ele><time>2026-05-03T07:43:29.088Z</time></trkpt><trkpt lat="38.44530065012975" lon="16.400998139467934"><ele>472.6</ele><time>2026-05-03T07:43:30.088Z</time></trkpt><trkpt lat="38.445257318437825" lon="16.40107316819376"><ele>467.0</ele><time>2026-05-03T07:43:31.088Z</time></trkpt><trkpt lat="38.445200190586526" lon="16.401174004698568"><ele>467.0</ele><time>2026-05-03T07:43:33.088Z</time></trkpt><trkpt lat="38.445122683018255" lon="16.40127328912639"><ele>467.0</ele><time>2026-05-03T07:43:35.088Z</time></trkpt><trkpt lat="38.445038319964745" lon="16.401352429506982"><ele>467.0</ele><time>2026-05-03T07:43:37.089Z</time></trkpt><trkpt lat="38.44492819251212" lon="16.401439082611112"><ele>467.0</ele><time>2026-05-03T07:43:39.089Z</time></trkpt><trkpt lat="38.444879145215566" lon="16.401582796111647"><ele>471.20000000000005</ele><time>2026-05-03T07:43:41.089Z</time></trkpt><trkpt lat="38.44489281836447" lon="16.401674277467542"><ele>475.40000000000003</ele><time>2026-05-03T07:43:42.089Z</time></trkpt><trkpt lat="38.444955164329265" lon="16.401821842562455"><ele>479.59999999999997</ele><time>2026-05-03T07:43:44.089Z</time></trkpt><trkpt lat="38.444999818279896" lon="16.401886455199854"><ele>483.79999999999995</ele><time>2026-05-03T07:43:45.089Z</time></trkpt><trkpt lat="38.445045245495756" lon="16.40203511077708"><ele>488.0</ele><time>2026-05-03T07:43:47.089Z</time></trkpt><trkpt lat="38.44507530302053" lon="16.40216766848196"><ele>489.99999999999994</ele><time>2026-05-03T07:43:49.089Z</time></trkpt><trkpt lat="38.44504261285555" lon="16.402269669746577"><ele>492.0</ele><time>2026-05-03T07:43:51.088Z</time></trkpt><trkpt lat="38.44497781014151" lon="16.40234311162327"><ele>494.0</ele><time>2026-05-03T07:43:53.089Z</time></trkpt><trkpt lat="38.444918854806005" lon="16.402433515765573"><ele>496.0</ele><time>2026-05-03T07:43:55.089Z</time></trkpt><trkpt lat="38.44490596568393" lon="16.40258276801387"><ele>497.99999999999994</ele><time>2026-05-03T07:43:57.089Z</time></trkpt><trkpt lat="38.44490562017407" lon="16.402664109459845"><ele>500.0</ele><time>2026-05-03T07:43:58.089Z</time></trkpt><trkpt lat="38.44489335216073" lon="16.402759178085738"><ele>499.99999999999994</ele><time>2026-05-03T07:43:59.089Z</time></trkpt><trkpt lat="38.44488954659676" lon="16.402854785693147"><ele>500.0</ele><time>2026-05-03T07:44:00.089Z</time></trkpt><trkpt lat="38.44488803339824" lon="16.402943823843003"><ele>500.0</ele><time>2026-05-03T07:44:01.089Z</time></trkpt><trkpt lat="38.44490359117909" lon="16.403028539336752"><ele>500.0</ele><time>2026-05-03T07:44:02.089Z</time></trkpt><trkpt lat="38.444928621419024" lon="16.403111168568337"><ele>499.99999999999994</ele><time>2026-05-03T07:44:03.089Z</time></trkpt><trkpt lat="38.4450073255307" lon="16.40322272755568"><ele>500.0</ele><time>2026-05-03T07:44:05.089Z</time></trkpt><trkpt lat="38.44517438301318" lon="16.40304972827949"><ele>499.99999999999994</ele><time>2026-05-03T07:44:10.089Z</time></trkpt><trkpt lat="38.44513788198179" lon="16.402913649908125"><ele>500.0</ele><time>2026-05-03T07:44:12.089Z</time></trkpt><trkpt lat="38.445134665651445" lon="16.40281751436611"><ele>500.0</ele><time>2026-05-03T07:44:13.089Z</time></trkpt><trkpt lat="38.445140946423564" lon="16.402728475487006"><ele>500.0</ele><time>2026-05-03T07:44:14.089Z</time></trkpt><trkpt lat="38.4451976547571" lon="16.402666640804508"><ele>499.99999999999994</ele><time>2026-05-03T07:44:15.089Z</time></trkpt><trkpt lat="38.44527692776701" lon="16.402611802581696"><ele>500.0</ele><time>2026-05-03T07:44:16.089Z</time></trkpt><trkpt lat="38.44539320423429" lon="16.40255335543649"><ele>505.6</ele><time>2026-05-03T07:44:18.089Z</time></trkpt><trkpt lat="38.44546278502065" lon="16.4025340806546"><ele>511.2</ele><time>2026-05-03T07:44:19.089Z</time></trkpt><trkpt lat="38.445575992507756" lon="16.402509637997134"><ele>516.8</ele><time>2026-05-03T07:44:21.089Z</time></trkpt><trkpt lat="38.44569860985566" lon="16.40247049945885"><ele>522.4</ele><time>2026-05-03T07:44:23.089Z</time></trkpt><trkpt lat="38.445766669386565" lon="16.402452164063327"><ele>528.0</ele><time>2026-05-03T07:44:24.089Z</time></trkpt><trkpt lat="38.44583705550257" lon="16.40244421472629"><ele>528.0</ele><time>2026-05-03T07:44:25.089Z</time></trkpt><trkpt lat="38.445899472619125" lon="16.402395766863954"><ele>528.0</ele><time>2026-05-03T07:44:26.089Z</time></trkpt><trkpt lat="38.44597298737413" lon="16.40239051059553"><ele>528.0</ele><time>2026-05-03T07:44:27.089Z</time></trkpt><trkpt lat="38.44607695501989" lon="16.40236209247883"><ele>528.0</ele><time>2026-05-03T07:44:29.089Z</time></trkpt><trkpt lat="38.44615471278792" lon="16.402347391593654"><ele>528.0</ele><time>2026-05-03T07:44:31.089Z</time></trkpt><trkpt lat="38.446233616816144" lon="16.402313300503113"><ele>528.0</ele><time>2026-05-03T07:44:33.089Z</time></trkpt><trkpt lat="38.44634002681225" lon="16.402344825868482"><ele>528.5</ele><time>2026-05-03T07:44:35.089Z</time></trkpt><trkpt lat="38.44648234639164" lon="16.402343729345"><ele>529.0</ele><time>2026-05-03T07:44:37.089Z</time></trkpt><trkpt lat="38.44655563042352" lon="16.402344668024927"><ele>529.5</ele><time>2026-05-03T07:44:38.089Z</time></trkpt><trkpt lat="38.44662150710203" lon="16.402346367043325"><ele>530.0</ele><time>2026-05-03T07:44:39.089Z</time></trkpt><trkpt lat="38.446691597780884" lon="16.40234849341864"><ele>530.5</ele><time>2026-05-03T07:44:40.089Z</time></trkpt><trkpt lat="38.446769478982105" lon="16.40235085613626"><ele>531.0</ele><time>2026-05-03T07:44:41.09Z</time></trkpt><trkpt lat="38.4468602567924" lon="16.402352889421923"><ele>531.0</ele><time>2026-05-03T07:44:42.09Z</time></trkpt><trkpt lat="38.446951640400236" lon="16.40235225487759"><ele>531.0</ele><time>2026-05-03T07:44:43.09Z</time></trkpt><trkpt lat="38.447042233604925" lon="16.402348401676136"><ele>531.0</ele><time>2026-05-03T07:44:44.09Z</time></trkpt><trkpt lat="38.44714598862871" lon="16.402324251355434"><ele>531.0</ele><time>2026-05-03T07:44:45.09Z</time></trkpt><trkpt lat="38.44724780187948" lon="16.402309161859236"><ele>531.0</ele><time>2026-05-03T07:44:46.09Z</time></trkpt><trkpt lat="38.44734370122831" lon="16.402279981140257"><ele>531.6</ele><time>2026-05-03T07:44:47.09Z</time></trkpt><trkpt lat="38.44744058468175" lon="16.402243567675725"><ele>532.2</ele><time>2026-05-03T07:44:48.09Z</time></trkpt><trkpt lat="38.44754305883312" lon="16.40220611226452"><ele>532.8</ele><time>2026-05-03T07:44:49.09Z</time></trkpt><trkpt lat="38.44764330204293" lon="16.402170480238134"><ele>533.4</ele><time>2026-05-03T07:44:50.09Z</time></trkpt><trkpt lat="38.447734986032486" lon="16.402120679882874"><ele>534.0</ele><time>2026-05-03T07:44:51.09Z</time></trkpt><trkpt lat="38.447816878424604" lon="16.40205572280459"><ele>536.0</ele><time>2026-05-03T07:44:52.09Z</time></trkpt><trkpt lat="38.44790367632945" lon="16.40198368894306"><ele>538.0</ele><time>2026-05-03T07:44:53.09Z</time></trkpt><trkpt lat="38.447976837515235" lon="16.40190025852665"><ele>540.0</ele><time>2026-05-03T07:44:54.09Z</time></trkpt><trkpt lat="38.44803503722873" lon="16.401808754843355"><ele>542.0</ele><time>2026-05-03T07:44:55.09Z</time></trkpt><trkpt lat="38.44807603349159" lon="16.401711241701356"><ele>544.0</ele><time>2026-05-03T07:44:56.09Z</time></trkpt><trkpt lat="38.448084533618804" lon="16.401598114362937"><ele>544.0</ele><time>2026-05-03T07:44:57.09Z</time></trkpt><trkpt lat="38.44806898275682" lon="16.401476943839707"><ele>544.0</ele><time>2026-05-03T07:44:58.09Z</time></trkpt><trkpt lat="38.4480946970626" lon="16.401345934334827"><ele>544.0</ele><time>2026-05-03T07:44:59.09Z</time></trkpt><trkpt lat="38.44809076447632" lon="16.401211958781154"><ele>544.0</ele><time>2026-05-03T07:45:00.09Z</time></trkpt><trkpt lat="38.44810259243627" lon="16.401083558969678"><ele>544.0</ele><time>2026-05-03T07:45:01.09Z</time></trkpt><trkpt lat="38.44812580662734" lon="16.400959002825676"><ele>545.8</ele><time>2026-05-03T07:45:02.09Z</time></trkpt><trkpt lat="38.44813234971296" lon="16.400838284698544"><ele>547.5999999999999</ele><time>2026-05-03T07:45:03.09Z</time></trkpt><trkpt lat="38.44818238597969" lon="16.400723242317994"><ele>549.4</ele><time>2026-05-03T07:45:04.09Z</time></trkpt><trkpt lat="38.448207107244194" lon="16.400602695553058"><ele>551.1999999999999</ele><time>2026-05-03T07:45:05.09Z</time></trkpt><trkpt lat="38.44823355503042" lon="16.400464964862994"><ele>553.0</ele><time>2026-05-03T07:45:06.09Z</time></trkpt><trkpt lat="38.44825967277848" lon="16.400323004396657"><ele>555.1999999999999</ele><time>2026-05-03T07:45:07.09Z</time></trkpt><trkpt lat="38.44828591085505" lon="16.400189417298748"><ele>557.4</ele><time>2026-05-03T07:45:08.09Z</time></trkpt><trkpt lat="38.44830006157411" lon="16.40007755096812"><ele>559.5999999999999</ele><time>2026-05-03T07:45:09.09Z</time></trkpt><trkpt lat="38.44831112135337" lon="16.399993455753545"><ele>561.8</ele><time>2026-05-03T07:45:10.09Z</time></trkpt><trkpt lat="38.44827143635847" lon="16.39987220265053"><ele>564.0</ele><time>2026-05-03T07:45:12.09Z</time></trkpt><trkpt lat="38.44819264979174" lon="16.399830187130654"><ele>564.0</ele><time>2026-05-03T07:45:15.09Z</time></trkpt><trkpt lat="38.44811194783384" lon="16.39988076763288"><ele>564.0</ele><time>2026-05-03T07:45:17.091Z</time></trkpt><trkpt lat="38.44804214788987" lon="16.39997796317472"><ele>564.0</ele><time>2026-05-03T07:45:18.091Z</time></trkpt><trkpt lat="38.44800893458626" lon="16.400088589434265"><ele>564.0</ele><time>2026-05-03T07:45:19.091Z</time></trkpt><trkpt lat="38.447973596546504" lon="16.40019997356416"><ele>564.0</ele><time>2026-05-03T07:45:20.091Z</time></trkpt><trkpt lat="38.4479514273126" lon="16.400278592379856"><ele>564.0</ele><time>2026-05-03T07:45:21.091Z</time></trkpt><trkpt lat="38.447925988106306" lon="16.40040687594302"><ele>564.8</ele><time>2026-05-03T07:45:23.091Z</time></trkpt><trkpt lat="38.447919075054024" lon="16.400570097885446"><ele>565.5999999999999</ele><time>2026-05-03T07:45:25.091Z</time></trkpt><trkpt lat="38.44787992442614" lon="16.400714466912092"><ele>566.4</ele><time>2026-05-03T07:45:27.091Z</time></trkpt><trkpt lat="38.44782678683918" lon="16.40076679632315"><ele>567.1999999999999</ele><time>2026-05-03T07:45:28.091Z</time></trkpt><trkpt lat="38.44778096112756" lon="16.40061288515133"><ele>568.0</ele><time>2026-05-03T07:45:32.091Z</time></trkpt><trkpt lat="38.44775316707133" lon="16.40050641394673"><ele>568.6666666666667</ele><time>2026-05-03T07:45:35.091Z</time></trkpt><trkpt lat="38.447759632311744" lon="16.400393557054297"><ele>569.3333333333334</ele><time>2026-05-03T07:45:37.091Z</time></trkpt><trkpt lat="38.44775921659996" lon="16.40031192684656"><ele>570.0</ele><time>2026-05-03T07:45:38.091Z</time></trkpt><trkpt lat="38.44775856641191" lon="16.40021692439154"><ele>570.6666666666666</ele><time>2026-05-03T07:45:39.091Z</time></trkpt><trkpt lat="38.44775577427804" lon="16.40012771434571"><ele>571.3333333333333</ele><time>2026-05-03T07:45:40.091Z</time></trkpt><trkpt lat="38.44776425259445" lon="16.40002711294514"><ele>572.0</ele><time>2026-05-03T07:45:41.091Z</time></trkpt><trkpt lat="38.44778016806786" lon="16.39993539785996"><ele>572.0</ele><time>2026-05-03T07:45:42.091Z</time></trkpt><trkpt lat="38.44780107621322" lon="16.399847586010917"><ele>572.0</ele><time>2026-05-03T07:45:43.091Z</time></trkpt><trkpt lat="38.447820479061065" lon="16.399768823475295"><ele>572.0</ele><time>2026-05-03T07:45:44.091Z</time></trkpt><trkpt lat="38.44782843554637" lon="16.399617473773866"><ele>572.0</ele><time>2026-05-03T07:45:46.091Z</time></trkpt><trkpt lat="38.44780255378719" lon="16.399540365697895"><ele>572.0</ele><time>2026-05-03T07:45:47.091Z</time></trkpt><trkpt lat="38.447753662430856" lon="16.399409518470033"><ele>572.0</ele><time>2026-05-03T07:45:49.091Z</time></trkpt><trkpt lat="38.44766216112462" lon="16.399373687578656"><ele>574.5</ele><time>2026-05-03T07:45:50.091Z</time></trkpt><trkpt lat="38.44762275781617" lon="16.399290016084485"><ele>577.0</ele><time>2026-05-03T07:45:51.091Z</time></trkpt><trkpt lat="38.447582138556385" lon="16.39915297578936"><ele>579.5</ele><time>2026-05-03T07:45:53.092Z</time></trkpt><trkpt lat="38.447551111589945" lon="16.399045517910714"><ele>582.0</ele><time>2026-05-03T07:45:54.092Z</time></trkpt><trkpt lat="38.44751573000385" lon="16.39897767354982"><ele>584.5</ele><time>2026-05-03T07:45:55.092Z</time></trkpt><trkpt lat="38.44750542667543" lon="16.398888529138883"><ele>587.0</ele><time>2026-05-03T07:45:56.092Z</time></trkpt><trkpt lat="38.447465301533626" lon="16.398752379674487"><ele>588.8000000000001</ele><time>2026-05-03T07:45:58.091Z</time></trkpt><trkpt lat="38.44741881256253" lon="16.398615270832572"><ele>590.6</ele><time>2026-05-03T07:46:00.091Z</time></trkpt><trkpt lat="38.447412410867514" lon="16.398509511612286"><ele>592.4000000000001</ele><time>2026-05-03T07:46:02.092Z</time></trkpt><trkpt lat="38.44750331890873" lon="16.398450981822005"><ele>594.2</ele><time>2026-05-03T07:46:04.091Z</time></trkpt><trkpt lat="38.447597328718075" lon="16.39848683070648"><ele>596.0</ele><time>2026-05-03T07:46:06.092Z</time></trkpt><trkpt lat="38.447682467009905" lon="16.398581753298675"><ele>596.0</ele><time>2026-05-03T07:46:08.092Z</time></trkpt><trkpt lat="38.447768257653884" lon="16.39863462342594"><ele>596.0</ele><time>2026-05-03T07:46:10.091Z</time></trkpt><trkpt lat="38.44782735011881" lon="16.398665442924024"><ele>596.0</ele><time>2026-05-03T07:46:11.091Z</time></trkpt><trkpt lat="38.44794847729858" lon="16.398689983818205"><ele>596.0</ele><time>2026-05-03T07:46:13.091Z</time></trkpt><trkpt lat="38.44806188781687" lon="16.39866997173678"><ele>596.0</ele><time>2026-05-03T07:46:15.091Z</time></trkpt><trkpt lat="38.44813282402611" lon="16.398641800262766"><ele>598.6</ele><time>2026-05-03T07:46:16.091Z</time></trkpt><trkpt lat="38.44819180607961" lon="16.398611142130537"><ele>601.2</ele><time>2026-05-03T07:46:17.091Z</time></trkpt><trkpt lat="38.44824884667161" lon="16.398514330206204"><ele>603.8</ele><time>2026-05-03T07:46:19.092Z</time></trkpt><trkpt lat="38.448220853894036" lon="16.398399671476778"><ele>606.4</ele><time>2026-05-03T07:46:21.092Z</time></trkpt><trkpt lat="38.44814678194821" lon="16.39825652959022"><ele>609.0</ele><time>2026-05-03T07:46:23.092Z</time></trkpt><trkpt lat="38.448093076300026" lon="16.398128346009994"><ele>609.0</ele><time>2026-05-03T07:46:25.092Z</time></trkpt><trkpt lat="38.44804132982723" lon="16.398006093779298"><ele>609.0</ele><time>2026-05-03T07:46:27.092Z</time></trkpt><trkpt lat="38.44802440510739" lon="16.397926417960374"><ele>609.0</ele><time>2026-05-03T07:46:28.092Z</time></trkpt><trkpt lat="38.44800178523556" lon="16.397848346129194"><ele>609.0</ele><time>2026-05-03T07:46:29.092Z</time></trkpt><trkpt lat="38.44797890569059" lon="16.397764540797873"><ele>609.0</ele><time>2026-05-03T07:46:30.092Z</time></trkpt><trkpt lat="38.447958971186374" lon="16.397670599249185"><ele>609.0</ele><time>2026-05-03T07:46:31.092Z</time></trkpt><trkpt lat="38.447938015818416" lon="16.39757432590909"><ele>608.7142857142857</ele><time>2026-05-03T07:46:32.092Z</time></trkpt><trkpt lat="38.44792033233658" lon="16.397490966993125"><ele>608.4285714285714</ele><time>2026-05-03T07:46:33.092Z</time></trkpt><trkpt lat="38.44789841717998" lon="16.397415244151585"><ele>608.1428571428571</ele><time>2026-05-03T07:46:34.092Z</time></trkpt><trkpt lat="38.447874860552815" lon="16.397322989598095"><ele>607.8571428571429</ele><time>2026-05-03T07:46:35.092Z</time></trkpt><trkpt lat="38.44782705258586" lon="16.397243767546215"><ele>607.5714285714286</ele><time>2026-05-03T07:46:36.092Z</time></trkpt><trkpt lat="38.44780111095435" lon="16.397158179239415"><ele>607.2857142857142</ele><time>2026-05-03T07:46:37.092Z</time></trkpt><trkpt lat="38.44777794345293" lon="16.39707361698063"><ele>607.0</ele><time>2026-05-03T07:46:38.092Z</time></trkpt><trkpt lat="38.44777655223083" lon="16.396977845685807"><ele>608.9999999999999</ele><time>2026-05-03T07:46:39.092Z</time></trkpt><trkpt lat="38.447785955995236" lon="16.396898096063204"><ele>611.0</ele><time>2026-05-03T07:46:40.092Z</time></trkpt><trkpt lat="38.44779714551972" lon="16.396812666910115"><ele>613.0</ele><time>2026-05-03T07:46:41.092Z</time></trkpt><trkpt lat="38.44780915840177" lon="16.396726746263223"><ele>615.0</ele><time>2026-05-03T07:46:42.092Z</time></trkpt><trkpt lat="38.44782156287085" lon="16.396641226634543"><ele>617.0</ele><time>2026-05-03T07:46:43.092Z</time></trkpt><trkpt lat="38.447834930290796" lon="16.396549963494472"><ele>618.9999999999999</ele><time>2026-05-03T07:46:44.092Z</time></trkpt><trkpt lat="38.447845913069564" lon="16.39646491206939"><ele>621.0</ele><time>2026-05-03T07:46:45.092Z</time></trkpt><trkpt lat="38.447843771089225" lon="16.39636852654225"><ele>620.8</ele><time>2026-05-03T07:46:46.092Z</time></trkpt><trkpt lat="38.44786993746366" lon="16.39627980568853"><ele>620.6</ele><time>2026-05-03T07:46:47.092Z</time></trkpt><trkpt lat="38.44793765786601" lon="16.396141828539406"><ele>620.4</ele><time>2026-05-03T07:46:49.092Z</time></trkpt><trkpt lat="38.44800016088824" lon="16.39610691105111"><ele>620.2</ele><time>2026-05-03T07:46:50.092Z</time></trkpt><trkpt lat="38.44810759564702" lon="16.395981782658062"><ele>620.0</ele><time>2026-05-03T07:46:52.092Z</time></trkpt><trkpt lat="38.44817327373921" lon="16.3959518652019"><ele>622.7142857142858</ele><time>2026-05-03T07:46:53.092Z</time></trkpt><trkpt lat="38.44823598120169" lon="16.39589541628855"><ele>625.4285714285714</ele><time>2026-05-03T07:46:54.093Z</time></trkpt><trkpt lat="38.44829818977588" lon="16.395836230395446"><ele>628.1428571428571</ele><time>2026-05-03T07:46:55.093Z</time></trkpt><trkpt lat="38.448353202775465" lon="16.39578495378372"><ele>630.8571428571429</ele><time>2026-05-03T07:46:56.093Z</time></trkpt><trkpt lat="38.448403715315706" lon="16.395732284354448"><ele>633.5714285714286</ele><time>2026-05-03T07:46:57.093Z</time></trkpt><trkpt lat="38.44846236472376" lon="16.395668809784556"><ele>636.2857142857143</ele><time>2026-05-03T07:46:58.093Z</time></trkpt><trkpt lat="38.44851024287062" lon="16.395596492282454"><ele>639.0</ele><time>2026-05-03T07:46:59.093Z</time></trkpt><trkpt lat="38.44854917220011" lon="16.39550884463587"><ele>640.6666666666666</ele><time>2026-05-03T07:47:00.093Z</time></trkpt><trkpt lat="38.44858161104533" lon="16.395434381783893"><ele>642.3333333333334</ele><time>2026-05-03T07:47:01.093Z</time></trkpt><trkpt lat="38.44860774885267" lon="16.395351240857078"><ele>644.0</ele><time>2026-05-03T07:47:02.093Z</time></trkpt><trkpt lat="38.448640994190086" lon="16.39526408694437"><ele>645.6666666666667</ele><time>2026-05-03T07:47:03.093Z</time></trkpt><trkpt lat="38.44866644672531" lon="16.39516656799632"><ele>647.3333333333334</ele><time>2026-05-03T07:47:04.093Z</time></trkpt><trkpt lat="38.44868929539498" lon="16.395073416771233"><ele>649.0</ele><time>2026-05-03T07:47:05.093Z</time></trkpt><trkpt lat="38.44871915027855" lon="16.39496710185588"><ele>649.0</ele><time>2026-05-03T07:47:06.093Z</time></trkpt><trkpt lat="38.448756528209685" lon="16.3948804816412"><ele>649.0</ele><time>2026-05-03T07:47:07.093Z</time></trkpt><trkpt lat="38.44880786044516" lon="16.394760031622862"><ele>649.0</ele><time>2026-05-03T07:47:08.093Z</time></trkpt><trkpt lat="38.448853268224056" lon="16.394645687911353"><ele>649.0</ele><time>2026-05-03T07:47:09.093Z</time></trkpt><trkpt lat="38.44889140903094" lon="16.39453428509377"><ele>649.0</ele><time>2026-05-03T07:47:10.093Z</time></trkpt><trkpt lat="38.44894227484454" lon="16.39440625408986"><ele>649.8000000000001</ele><time>2026-05-03T07:47:11.093Z</time></trkpt><trkpt lat="38.44900220319027" lon="16.394284521298765"><ele>650.6</ele><time>2026-05-03T07:47:12.093Z</time></trkpt><trkpt lat="38.44906866433281" lon="16.394174563115893"><ele>651.4</ele><time>2026-05-03T07:47:13.093Z</time></trkpt><trkpt lat="38.44913855485239" lon="16.394073046726454"><ele>652.2</ele><time>2026-05-03T07:47:14.093Z</time></trkpt><trkpt lat="38.449221004603466" lon="16.39398577522123"><ele>653.0</ele><time>2026-05-03T07:47:15.093Z</time></trkpt><trkpt lat="38.449303817919024" lon="16.393897613021014"><ele>653.0</ele><time>2026-05-03T07:47:16.093Z</time></trkpt><trkpt lat="38.44939404828497" lon="16.393802439095133"><ele>653.0</ele><time>2026-05-03T07:47:17.093Z</time></trkpt><trkpt lat="38.44949142978734" lon="16.393742896465103"><ele>653.0</ele><time>2026-05-03T07:47:18.093Z</time></trkpt><trkpt lat="38.44957929256581" lon="16.393655204517014"><ele>653.0</ele><time>2026-05-03T07:47:19.093Z</time></trkpt><trkpt lat="38.44966252045033" lon="16.393567155068684"><ele>653.0</ele><time>2026-05-03T07:47:20.093Z</time></trkpt><trkpt lat="38.44974547100155" lon="16.393482153563767"><ele>656.2</ele><time>2026-05-03T07:47:21.093Z</time></trkpt><trkpt lat="38.44982550910788" lon="16.393392252093403"><ele>659.4</ele><time>2026-05-03T07:47:22.093Z</time></trkpt><trkpt lat="38.44990548559546" lon="16.393314458116336"><ele>662.6</ele><time>2026-05-03T07:47:23.093Z</time></trkpt><trkpt lat="38.4499851190194" lon="16.39324035484791"><ele>665.8000000000001</ele><time>2026-05-03T07:47:24.093Z</time></trkpt><trkpt lat="38.45006513982386" lon="16.39315476665563"><ele>669.0</ele><time>2026-05-03T07:47:25.093Z</time></trkpt><trkpt lat="38.45012341947416" lon="16.39307286148219"><ele>670.5</ele><time>2026-05-03T07:47:26.093Z</time></trkpt><trkpt lat="38.45018339309816" lon="16.39298941566944"><ele>672.0</ele><time>2026-05-03T07:47:27.093Z</time></trkpt><trkpt lat="38.45024095070012" lon="16.392902758716048"><ele>673.5</ele><time>2026-05-03T07:47:28.093Z</time></trkpt><trkpt lat="38.450290489019565" lon="16.39281449649899"><ele>675.0</ele><time>2026-05-03T07:47:29.094Z</time></trkpt><trkpt lat="38.45033848104024" lon="16.392730198093187"><ele>676.5</ele><time>2026-05-03T07:47:30.094Z</time></trkpt><trkpt lat="38.450391070932355" lon="16.39265423594904"><ele>678.0</ele><time>2026-05-03T07:47:31.094Z</time></trkpt><trkpt lat="38.45046644048915" lon="16.392644159959136"><ele>679.5</ele><time>2026-05-03T07:47:32.094Z</time></trkpt><trkpt lat="38.45053299704564" lon="16.392642063059082"><ele>681.0</ele><time>2026-05-03T07:47:33.094Z</time></trkpt><trkpt lat="38.45060654778649" lon="16.392662925649567"><ele>682.5</ele><time>2026-05-03T07:47:34.094Z</time></trkpt><trkpt lat="38.450684286294305" lon="16.392684889772294"><ele>684.0</ele><time>2026-05-03T07:47:35.094Z</time></trkpt><trkpt lat="38.4507941880304" lon="16.392716281501436"><ele>685.5</ele><time>2026-05-03T07:47:37.094Z</time></trkpt><trkpt lat="38.450854489691785" lon="16.39264743411742"><ele>687.0</ele><time>2026-05-03T07:47:39.094Z</time></trkpt><trkpt lat="38.450857233424195" lon="16.392516386571987"><ele>687.0</ele><time>2026-05-03T07:47:41.094Z</time></trkpt><trkpt lat="38.450814453590695" lon="16.392447732541765"><ele>687.0</ele><time>2026-05-03T07:47:42.094Z</time></trkpt><trkpt lat="38.45074355090684" lon="16.39244056283528"><ele>687.0</ele><time>2026-05-03T07:47:43.094Z</time></trkpt><trkpt lat="38.45062475596647" lon="16.392396780115565"><ele>687.0</ele><time>2026-05-03T07:47:45.094Z</time></trkpt><trkpt lat="38.45053975345183" lon="16.392359951207823"><ele>687.0</ele><time>2026-05-03T07:47:46.094Z</time></trkpt><trkpt lat="38.450464013395404" lon="16.3923258598889"><ele>687.0</ele><time>2026-05-03T07:47:47.094Z</time></trkpt><trkpt lat="38.450374812602796" lon="16.392231512409456"><ele>689.4000000000001</ele><time>2026-05-03T07:47:49.094Z</time></trkpt><trkpt lat="38.45043132252171" lon="16.392121707429716"><ele>691.8000000000001</ele><time>2026-05-03T07:47:51.094Z</time></trkpt><trkpt lat="38.450534292075986" lon="16.39204240162456"><ele>694.2</ele><time>2026-05-03T07:47:53.094Z</time></trkpt><trkpt lat="38.45059730724547" lon="16.392041857578217"><ele>696.6</ele><time>2026-05-03T07:47:54.094Z</time></trkpt><trkpt lat="38.45070586773166" lon="16.392059875557624"><ele>699.0</ele><time>2026-05-03T07:47:56.094Z</time></trkpt><trkpt lat="38.450822623155275" lon="16.39209138527466"><ele>699.0</ele><time>2026-05-03T07:47:58.094Z</time></trkpt><trkpt lat="38.450889992267854" lon="16.392108938405016"><ele>699.0</ele><time>2026-05-03T07:47:59.094Z</time></trkpt><trkpt lat="38.45095447622841" lon="16.39214680184066"><ele>699.0</ele><time>2026-05-03T07:48:00.094Z</time></trkpt><trkpt lat="38.451021346275354" lon="16.39213356737841"><ele>699.0</ele><time>2026-05-03T07:48:01.094Z</time></trkpt><trkpt lat="38.45111855461364" lon="16.392081613944164"><ele>699.0</ele><time>2026-05-03T07:48:03.095Z</time></trkpt><trkpt lat="38.45110238859833" lon="16.391996976392257"><ele>699.0</ele><time>2026-05-03T07:48:05.094Z</time></trkpt><trkpt lat="38.451015557283924" lon="16.39190633547041"><ele>699.0</ele><time>2026-05-03T07:48:07.095Z</time></trkpt><trkpt lat="38.45091307924349" lon="16.39181623991912"><ele>699.0</ele><time>2026-05-03T07:48:09.094Z</time></trkpt><trkpt lat="38.45093912329506" lon="16.391729978246964"><ele>699.0</ele><time>2026-05-03T07:48:10.094Z</time></trkpt><trkpt lat="38.45095394899135" lon="16.39165103962052"><ele>699.0</ele><time>2026-05-03T07:48:11.094Z</time></trkpt><trkpt lat="38.45097284936632" lon="16.391567994311906"><ele>699.0</ele><time>2026-05-03T07:48:12.095Z</time></trkpt><trkpt lat="38.451004095603224" lon="16.391493396746906"><ele>699.0</ele><time>2026-05-03T07:48:13.095Z</time></trkpt><trkpt lat="38.45104429903211" lon="16.391373969479293"><ele>696.8333333333334</ele><time>2026-05-03T07:48:15.095Z</time></trkpt><trkpt lat="38.45108632517586" lon="16.39129151667363"><ele>694.6666666666666</ele><time>2026-05-03T07:48:16.095Z</time></trkpt><trkpt lat="38.45112059032401" lon="16.39120724786096"><ele>692.5</ele><time>2026-05-03T07:48:17.095Z</time></trkpt><trkpt lat="38.451168059515126" lon="16.391137447400315"><ele>690.3333333333333</ele><time>2026-05-03T07:48:18.095Z</time></trkpt><trkpt lat="38.45118632399796" lon="16.391054916477042"><ele>688.1666666666666</ele><time>2026-05-03T07:48:19.095Z</time></trkpt><trkpt lat="38.451267522340615" lon="16.390979111832824"><ele>686.0</ele><time>2026-05-03T07:48:21.095Z</time></trkpt><trkpt lat="38.45135417841213" lon="16.391025569572058"><ele>692.0</ele><time>2026-05-03T07:48:23.095Z</time></trkpt><trkpt lat="38.4513643999426" lon="16.391122973043256"><ele>698.0</ele><time>2026-05-03T07:48:24.095Z</time></trkpt><trkpt lat="38.45136682604996" lon="16.391206233476954"><ele>704.0</ele><time>2026-05-03T07:48:25.095Z</time></trkpt><trkpt lat="38.45137924511699" lon="16.391292714877732"><ele>710.0</ele><time>2026-05-03T07:48:26.095Z</time></trkpt><trkpt lat="38.451407713166944" lon="16.391448700074907"><ele>716.0</ele><time>2026-05-03T07:48:28.095Z</time></trkpt><trkpt lat="38.45143646291743" lon="16.391527522231726"><ele>722.0</ele><time>2026-05-03T07:48:29.095Z</time></trkpt><trkpt lat="38.45152363371487" lon="16.391580463451753"><ele>722.0</ele><time>2026-05-03T07:48:31.095Z</time></trkpt><trkpt lat="38.45158660321255" lon="16.391540679259823"><ele>722.0</ele><time>2026-05-03T07:48:32.096Z</time></trkpt><trkpt lat="38.45163896731864" lon="16.391493069099795"><ele>722.0</ele><time>2026-05-03T07:48:33.096Z</time></trkpt><trkpt lat="38.45170102104003" lon="16.391448442329178"><ele>722.0</ele><time>2026-05-03T07:48:34.096Z</time></trkpt><trkpt lat="38.45174460746721" lon="16.391364255217"><ele>722.0</ele><time>2026-05-03T07:48:35.096Z</time></trkpt><trkpt lat="38.451760323915735" lon="16.39127523238876"><ele>722.0</ele><time>2026-05-03T07:48:36.096Z</time></trkpt><trkpt lat="38.45175654925237" lon="16.391176532876408"><ele>722.0</ele><time>2026-05-03T07:48:37.096Z</time></trkpt><trkpt lat="38.45173986564926" lon="16.391094256018988"><ele>722.2</ele><time>2026-05-03T07:48:38.096Z</time></trkpt><trkpt lat="38.45169429804113" lon="16.39095699507855"><ele>722.4000000000001</ele><time>2026-05-03T07:48:40.096Z</time></trkpt><trkpt lat="38.45170875752472" lon="16.390777555957442"><ele>722.5999999999999</ele><time>2026-05-03T07:48:42.096Z</time></trkpt><trkpt lat="38.451700620752476" lon="16.390697074729463"><ele>722.8</ele><time>2026-05-03T07:48:43.096Z</time></trkpt><trkpt lat="38.451732143928396" lon="16.390627334972606"><ele>723.0</ele><time>2026-05-03T07:48:44.096Z</time></trkpt><trkpt lat="38.45178177864691" lon="16.390490675795878"><ele>723.0</ele><time>2026-05-03T07:48:46.096Z</time></trkpt><trkpt lat="38.45181890036626" lon="16.390403959218897"><ele>723.0</ele><time>2026-05-03T07:48:47.096Z</time></trkpt><trkpt lat="38.45185125232332" lon="16.39032373587125"><ele>723.0</ele><time>2026-05-03T07:48:48.096Z</time></trkpt><trkpt lat="38.451908961014546" lon="16.390220472454057"><ele>723.0</ele><time>2026-05-03T07:48:50.096Z</time></trkpt><trkpt lat="38.45199624188974" lon="16.39025549434297"><ele>723.0</ele><time>2026-05-03T07:48:53.096Z</time></trkpt><trkpt lat="38.452002889748236" lon="16.390368681054845"><ele>723.0</ele><time>2026-05-03T07:48:55.096Z</time></trkpt><trkpt lat="38.45196032227699" lon="16.39048725092112"><ele>725.0</ele><time>2026-05-03T07:48:57.096Z</time></trkpt><trkpt lat="38.45192862558825" lon="16.390631545812887"><ele>727.0</ele><time>2026-05-03T07:48:59.096Z</time></trkpt><trkpt lat="38.45191764909042" lon="16.390718087941938"><ele>729.0</ele><time>2026-05-03T07:49:00.096Z</time></trkpt><trkpt lat="38.45191814283472" lon="16.39081181512831"><ele>731.0</ele><time>2026-05-03T07:49:01.096Z</time></trkpt><trkpt lat="38.45196644228195" lon="16.390877030595764"><ele>733.0</ele><time>2026-05-03T07:49:02.096Z</time></trkpt><trkpt lat="38.45205362857536" lon="16.390992892525542"><ele>733.0</ele><time>2026-05-03T07:49:04.096Z</time></trkpt><trkpt lat="38.45211444666911" lon="16.391032413984654"><ele>733.0</ele><time>2026-05-03T07:49:05.096Z</time></trkpt><trkpt lat="38.45218966491573" lon="16.391059653605705"><ele>733.0</ele><time>2026-05-03T07:49:06.096Z</time></trkpt><trkpt lat="38.45227038125262" lon="16.391074834036672"><ele>733.0</ele><time>2026-05-03T07:49:07.097Z</time></trkpt><trkpt lat="38.452357273860976" lon="16.391090164719895"><ele>733.0</ele><time>2026-05-03T07:49:08.097Z</time></trkpt><trkpt lat="38.45243267144852" lon="16.391093479740242"><ele>733.0</ele><time>2026-05-03T07:49:09.097Z</time></trkpt><trkpt lat="38.45251300408077" lon="16.391122431262083"><ele>739.3333333333334</ele><time>2026-05-03T07:49:10.097Z</time></trkpt><trkpt lat="38.45258593783241" lon="16.39114750383772"><ele>745.6666666666667</ele><time>2026-05-03T07:49:11.097Z</time></trkpt><trkpt lat="38.45265006071691" lon="16.391161131274785"><ele>752.0</ele><time>2026-05-03T07:49:12.097Z</time></trkpt><trkpt lat="38.45271038886138" lon="16.391201973850176"><ele>758.3333333333334</ele><time>2026-05-03T07:49:13.097Z</time></trkpt><trkpt lat="38.452843657378835" lon="16.391238069309747"><ele>764.6666666666666</ele><time>2026-05-03T07:49:15.097Z</time></trkpt><trkpt lat="38.45291892490074" lon="16.391243821276383"><ele>771.0</ele><time>2026-05-03T07:49:16.097Z</time></trkpt><trkpt lat="38.45299977175012" lon="16.39124582415253"><ele>773.8333333333334</ele><time>2026-05-03T07:49:17.097Z</time></trkpt><trkpt lat="38.45308685383971" lon="16.391244923741258"><ele>776.6666666666667</ele><time>2026-05-03T07:49:18.097Z</time></trkpt><trkpt lat="38.45316233746201" lon="16.391242701640458"><ele>779.5</ele><time>2026-05-03T07:49:19.097Z</time></trkpt><trkpt lat="38.453235394189974" lon="16.39121799196283"><ele>782.3333333333334</ele><time>2026-05-03T07:49:20.097Z</time></trkpt><trkpt lat="38.45331100405549" lon="16.391229019965838"><ele>785.1666666666667</ele><time>2026-05-03T07:49:21.097Z</time></trkpt><trkpt lat="38.453387547241576" lon="16.391230609017356"><ele>788.0</ele><time>2026-05-03T07:49:22.097Z</time></trkpt><trkpt lat="38.45346530539051" lon="16.391226293469064"><ele>788.0</ele><time>2026-05-03T07:49:23.097Z</time></trkpt><trkpt lat="38.45354404774877" lon="16.39121379381992"><ele>788.0</ele><time>2026-05-03T07:49:24.097Z</time></trkpt><trkpt lat="38.453606417065686" lon="16.39118790772189"><ele>788.0</ele><time>2026-05-03T07:49:25.097Z</time></trkpt><trkpt lat="38.45366729933027" lon="16.39114260522455"><ele>788.0</ele><time>2026-05-03T07:49:26.097Z</time></trkpt><trkpt lat="38.45372273145193" lon="16.391097454615508"><ele>788.0</ele><time>2026-05-03T07:49:27.097Z</time></trkpt><trkpt lat="38.45379137811132" lon="16.39106997881719"><ele>788.0</ele><time>2026-05-03T07:49:28.097Z</time></trkpt><trkpt lat="38.45384818092645" lon="16.391030281348854"><ele>788.0</ele><time>2026-05-03T07:49:29.097Z</time></trkpt><trkpt lat="38.45391118238697" lon="16.390986031499732"><ele>787.4285714285714</ele><time>2026-05-03T07:49:30.097Z</time></trkpt><trkpt lat="38.45396871561175" lon="16.390944356781056"><ele>786.8571428571429</ele><time>2026-05-03T07:49:31.097Z</time></trkpt><trkpt lat="38.454025959659646" lon="16.390903491127045"><ele>786.2857142857142</ele><time>2026-05-03T07:49:32.097Z</time></trkpt><trkpt lat="38.454062964113206" lon="16.390837131705755"><ele>785.7142857142858</ele><time>2026-05-03T07:49:33.097Z</time></trkpt><trkpt lat="38.45405690545075" lon="16.390740415909388"><ele>785.1428571428571</ele><time>2026-05-03T07:49:34.097Z</time></trkpt><trkpt lat="38.453978493234835" lon="16.39068630725371"><ele>784.5714285714286</ele><time>2026-05-03T07:49:35.097Z</time></trkpt><trkpt lat="38.4539162052904" lon="16.390714957530626"><ele>784.0</ele><time>2026-05-03T07:49:36.097Z</time></trkpt><trkpt lat="38.45381755581421" lon="16.390767755345536"><ele>784.8000000000001</ele><time>2026-05-03T07:49:38.097Z</time></trkpt><trkpt lat="38.453702326668115" lon="16.390812447738135"><ele>785.6</ele><time>2026-05-03T07:49:40.097Z</time></trkpt><trkpt lat="38.453616496200254" lon="16.39083885643702"><ele>786.4</ele><time>2026-05-03T07:49:41.097Z</time></trkpt><trkpt lat="38.45354494798334" lon="16.390830096874353"><ele>787.2</ele><time>2026-05-03T07:49:42.098Z</time></trkpt><trkpt lat="38.4534441988588" lon="16.39080052249262"><ele>788.0</ele><time>2026-05-03T07:49:44.098Z</time></trkpt><trkpt lat="38.453503226163846" lon="16.39075942172942"><ele>788.0</ele><time>2026-05-03T07:49:46.098Z</time></trkpt><trkpt lat="38.453604297793085" lon="16.39073170238611"><ele>788.0</ele><time>2026-05-03T07:49:49.098Z</time></trkpt><trkpt lat="38.4537263039157" lon="16.39068373398813"><ele>788.0</ele><time>2026-05-03T07:49:51.098Z</time></trkpt><trkpt lat="38.453790906755735" lon="16.390647763575956"><ele>788.0</ele><time>2026-05-03T07:49:52.098Z</time></trkpt><trkpt lat="38.453854936618164" lon="16.39059452904679"><ele>788.0</ele><time>2026-05-03T07:49:53.098Z</time></trkpt><trkpt lat="38.45391609495234" lon="16.390530587960065"><ele>791.0000000000001</ele><time>2026-05-03T07:49:54.098Z</time></trkpt><trkpt lat="38.453972285360656" lon="16.39046650210028"><ele>794.0</ele><time>2026-05-03T07:49:55.098Z</time></trkpt><trkpt lat="38.45402541821689" lon="16.39040472092864"><ele>797.0</ele><time>2026-05-03T07:49:56.098Z</time></trkpt><trkpt lat="38.45407901460404" lon="16.390341986278433"><ele>800.0</ele><time>2026-05-03T07:49:57.098Z</time></trkpt><trkpt lat="38.45411816472757" lon="16.390274748540165"><ele>803.0000000000001</ele><time>2026-05-03T07:49:58.098Z</time></trkpt><trkpt lat="38.45419220618129" lon="16.3902094926985"><ele>806.0</ele><time>2026-05-03T07:50:00.098Z</time></trkpt><trkpt lat="38.45417472002172" lon="16.390107621415748"><ele>806.0</ele><time>2026-05-03T07:50:01.098Z</time></trkpt><trkpt lat="38.45407138792007" lon="16.39011029050772"><ele>806.0</ele><time>2026-05-03T07:50:03.098Z</time></trkpt><trkpt lat="38.453976034840615" lon="16.390147668901815"><ele>806.0</ele><time>2026-05-03T07:50:05.098Z</time></trkpt><trkpt lat="38.453892231406606" lon="16.390149599844815"><ele>806.0</ele><time>2026-05-03T07:50:06.098Z</time></trkpt><trkpt lat="38.453809014830476" lon="16.390215721817867"><ele>806.0</ele><time>2026-05-03T07:50:07.098Z</time></trkpt><trkpt lat="38.453727216192085" lon="16.39021453593821"><ele>804.8</ele><time>2026-05-03T07:50:08.098Z</time></trkpt><trkpt lat="38.45366050314557" lon="16.390194043736518"><ele>803.5999999999999</ele><time>2026-05-03T07:50:09.097Z</time></trkpt><trkpt lat="38.45370665035463" lon="16.390080024952272"><ele>802.4</ele><time>2026-05-03T07:50:11.097Z</time></trkpt><trkpt lat="38.45371456378203" lon="16.38993751714501"><ele>801.2</ele><time>2026-05-03T07:50:13.097Z</time></trkpt><trkpt lat="38.453708176709625" lon="16.38985575545273"><ele>800.0</ele><time>2026-05-03T07:50:14.098Z</time></trkpt><trkpt lat="38.453703436174166" lon="16.389713514536847"><ele>799.0000000000001</ele><time>2026-05-03T07:50:16.097Z</time></trkpt><trkpt lat="38.45370147623616" lon="16.38963212815283"><ele>798.0</ele><time>2026-05-03T07:50:17.097Z</time></trkpt><trkpt lat="38.45373680839373" lon="16.38952131780817"><ele>797.0</ele><time>2026-05-03T07:50:19.097Z</time></trkpt><trkpt lat="38.45371404109059" lon="16.389420501172474"><ele>796.0</ele><time>2026-05-03T07:50:20.097Z</time></trkpt><trkpt lat="38.453739938284414" lon="16.389344487304513"><ele>795.0000000000001</ele><time>2026-05-03T07:50:21.098Z</time></trkpt><trkpt lat="38.45377501156679" lon="16.389257246231217"><ele>794.0</ele><time>2026-05-03T07:50:22.097Z</time></trkpt><trkpt lat="38.45380253344667" lon="16.389171732337868"><ele>799.2</ele><time>2026-05-03T07:50:23.097Z</time></trkpt><trkpt lat="38.45387700133916" lon="16.3891310052636"><ele>804.4000000000001</ele><time>2026-05-03T07:50:24.097Z</time></trkpt><trkpt lat="38.453892003864105" lon="16.38904531171767"><ele>809.6</ele><time>2026-05-03T07:50:25.097Z</time></trkpt><trkpt lat="38.453912507833685" lon="16.388849155885808"><ele>814.8</ele><time>2026-05-03T07:50:27.097Z</time></trkpt><trkpt lat="38.453920026971716" lon="16.388732465957375"><ele>820.0</ele><time>2026-05-03T07:50:28.097Z</time></trkpt><trkpt lat="38.45392853206982" lon="16.388631271874363"><ele>820.1666666666666</ele><time>2026-05-03T07:50:29.097Z</time></trkpt><trkpt lat="38.45394289387322" lon="16.388542330263963"><ele>820.3333333333333</ele><time>2026-05-03T07:50:30.097Z</time></trkpt><trkpt lat="38.45395452789913" lon="16.388459917760226"><ele>820.5</ele><time>2026-05-03T07:50:31.097Z</time></trkpt><trkpt lat="38.45396193292877" lon="16.388334948180837"><ele>820.6666666666667</ele><time>2026-05-03T07:50:32.097Z</time></trkpt><trkpt lat="38.45397504044299" lon="16.388224758971184"><ele>820.8333333333334</ele><time>2026-05-03T07:50:33.097Z</time></trkpt><trkpt lat="38.453981787608306" lon="16.388109733889653"><ele>821.0</ele><time>2026-05-03T07:50:34.097Z</time></trkpt><trkpt lat="38.45400232107946" lon="16.388029268593712"><ele>821.1999999999999</ele><time>2026-05-03T07:50:35.098Z</time></trkpt><trkpt lat="38.45408084868012" lon="16.3878851653149"><ele>821.4</ele><time>2026-05-03T07:50:37.098Z</time></trkpt><trkpt lat="38.45414473928465" lon="16.387817102603687"><ele>821.6</ele><time>2026-05-03T07:50:38.098Z</time></trkpt><trkpt lat="38.45421051438468" lon="16.387758745663437"><ele>821.8</ele><time>2026-05-03T07:50:39.098Z</time></trkpt><trkpt lat="38.45428459502955" lon="16.387722856174697"><ele>822.0</ele><time>2026-05-03T07:50:40.098Z</time></trkpt><trkpt lat="38.45436924884621" lon="16.387680247589923"><ele>822.0</ele><time>2026-05-03T07:50:41.098Z</time></trkpt><trkpt lat="38.45445135227202" lon="16.38764686603048"><ele>822.0</ele><time>2026-05-03T07:50:42.098Z</time></trkpt><trkpt lat="38.45452401795329" lon="16.38760895950383"><ele>822.0</ele><time>2026-05-03T07:50:43.098Z</time></trkpt><trkpt lat="38.45458575423999" lon="16.38755881205577"><ele>822.0</ele><time>2026-05-03T07:50:44.098Z</time></trkpt><trkpt lat="38.454659323305066" lon="16.38752452386564"><ele>822.0</ele><time>2026-05-03T07:50:45.098Z</time></trkpt><trkpt lat="38.45470403704994" lon="16.38744485255903"><ele>822.0</ele><time>2026-05-03T07:50:46.098Z</time></trkpt><trkpt lat="38.45474669102866" lon="16.387359682171784"><ele>822.5714285714286</ele><time>2026-05-03T07:50:47.098Z</time></trkpt><trkpt lat="38.45476028477196" lon="16.387279092549488"><ele>823.1428571428571</ele><time>2026-05-03T07:50:48.098Z</time></trkpt><trkpt lat="38.454767878285985" lon="16.387182274442157"><ele>823.7142857142858</ele><time>2026-05-03T07:50:49.098Z</time></trkpt><trkpt lat="38.45477235813991" lon="16.38709715966308"><ele>824.2857142857142</ele><time>2026-05-03T07:50:50.098Z</time></trkpt><trkpt lat="38.454778276819276" lon="16.387000948759"><ele>824.8571428571429</ele><time>2026-05-03T07:50:51.098Z</time></trkpt><trkpt lat="38.45479969966823" lon="16.386917771153453"><ele>825.4285714285714</ele><time>2026-05-03T07:50:52.098Z</time></trkpt><trkpt lat="38.45483363986347" lon="16.38682882420752"><ele>826.0</ele><time>2026-05-03T07:50:53.098Z</time></trkpt><trkpt lat="38.45484611326631" lon="16.38673763853295"><ele>828.9999999999999</ele><time>2026-05-03T07:50:54.098Z</time></trkpt><trkpt lat="38.45487791545739" lon="16.386648036602914"><ele>832.0</ele><time>2026-05-03T07:50:55.098Z</time></trkpt><trkpt lat="38.45488967764736" lon="16.386496732608236"><ele>835.0</ele><time>2026-05-03T07:50:57.098Z</time></trkpt><trkpt lat="38.45489318422174" lon="16.386398611362022"><ele>838.0</ele><time>2026-05-03T07:50:58.098Z</time></trkpt><trkpt lat="38.454879620567475" lon="16.386287053814822"><ele>840.9999999999999</ele><time>2026-05-03T07:50:59.098Z</time></trkpt><trkpt lat="38.454863994489294" lon="16.38619276587893"><ele>844.0</ele><time>2026-05-03T07:51:00.098Z</time></trkpt><trkpt lat="38.45486851198915" lon="16.386079750018013"><ele>847.3333333333333</ele><time>2026-05-03T07:51:01.098Z</time></trkpt><trkpt lat="38.45488196622303" lon="16.38599198897853"><ele>850.6666666666666</ele><time>2026-05-03T07:51:02.098Z</time></trkpt><trkpt lat="38.45491172889978" lon="16.38591061629045"><ele>854.0</ele><time>2026-05-03T07:51:03.098Z</time></trkpt><trkpt lat="38.45491746217369" lon="16.385772355198473"><ele>857.3333333333333</ele><time>2026-05-03T07:51:05.098Z</time></trkpt><trkpt lat="38.45495764282291" lon="16.385689908771045"><ele>860.6666666666666</ele><time>2026-05-03T07:51:06.098Z</time></trkpt><trkpt lat="38.45498246346314" lon="16.38559551524481"><ele>864.0</ele><time>2026-05-03T07:51:07.098Z</time></trkpt><trkpt lat="38.45499192698619" lon="16.385483663827614"><ele>866.5</ele><time>2026-05-03T07:51:08.098Z</time></trkpt><trkpt lat="38.45502272699055" lon="16.385385658061765"><ele>869.0</ele><time>2026-05-03T07:51:09.098Z</time></trkpt><trkpt lat="38.45505286462545" lon="16.385301320449805"><ele>871.5</ele><time>2026-05-03T07:51:10.099Z</time></trkpt><trkpt lat="38.455105624460835" lon="16.38522535388444"><ele>874.0</ele><time>2026-05-03T07:51:11.099Z</time></trkpt><trkpt lat="38.45512746800019" lon="16.385109313418425"><ele>876.5</ele><time>2026-05-03T07:51:12.099Z</time></trkpt><trkpt lat="38.45509942590764" lon="16.38498807220995"><ele>879.0</ele><time>2026-05-03T07:51:13.099Z</time></trkpt><trkpt lat="38.455032330030875" lon="16.384914564576984"><ele>879.0</ele><time>2026-05-03T07:51:14.099Z</time></trkpt><trkpt lat="38.4549411084723" lon="16.384925492987392"><ele>879.0</ele><time>2026-05-03T07:51:15.099Z</time></trkpt><trkpt lat="38.454879720535516" lon="16.384956079196293"><ele>879.0</ele><time>2026-05-03T07:51:16.099Z</time></trkpt><trkpt lat="38.45478135163517" lon="16.38497399030308"><ele>879.0</ele><time>2026-05-03T07:51:18.099Z</time></trkpt><trkpt lat="38.454727414941416" lon="16.3850383151035"><ele>879.0</ele><time>2026-05-03T07:51:19.099Z</time></trkpt><trkpt lat="38.45468006899451" lon="16.385097032791705"><ele>879.0</ele><time>2026-05-03T07:51:20.099Z</time></trkpt><trkpt lat="38.454633910957476" lon="16.385166280585295"><ele>880.6666666666666</ele><time>2026-05-03T07:51:21.099Z</time></trkpt><trkpt lat="38.454570745101215" lon="16.38529520741245"><ele>882.3333333333333</ele><time>2026-05-03T07:51:22.099Z</time></trkpt><trkpt lat="38.454529297986575" lon="16.385375198967022"><ele>884.0</ele><time>2026-05-03T07:51:23.099Z</time></trkpt><trkpt lat="38.45448438758271" lon="16.385436143480877"><ele>885.6666666666666</ele><time>2026-05-03T07:51:24.099Z</time></trkpt><trkpt lat="38.454416463918676" lon="16.385537477476863"><ele>887.3333333333333</ele><time>2026-05-03T07:51:25.099Z</time></trkpt><trkpt lat="38.45435193671775" lon="16.385559094755063"><ele>889.0</ele><time>2026-05-03T07:51:26.099Z</time></trkpt><trkpt lat="38.45428905801177" lon="16.385630833497775"><ele>884.3333333333333</ele><time>2026-05-03T07:51:27.099Z</time></trkpt><trkpt lat="38.45421704812865" lon="16.38568369874613"><ele>879.6666666666666</ele><time>2026-05-03T07:51:28.099Z</time></trkpt><trkpt lat="38.454125569105265" lon="16.385725787040677"><ele>875.0</ele><time>2026-05-03T07:51:29.099Z</time></trkpt><trkpt lat="38.454047493233475" lon="16.385718133911798"><ele>870.3333333333333</ele><time>2026-05-03T07:51:30.099Z</time></trkpt><trkpt lat="38.45396235792086" lon="16.385705903489907"><ele>865.6666666666666</ele><time>2026-05-03T07:51:31.099Z</time></trkpt><trkpt lat="38.45388654780436" lon="16.385675917299725"><ele>861.0</ele><time>2026-05-03T07:51:32.099Z</time></trkpt><trkpt lat="38.45381549708416" lon="16.385632229681185"><ele>862.8333333333334</ele><time>2026-05-03T07:51:33.099Z</time></trkpt><trkpt lat="38.4537673621375" lon="16.385578940979556"><ele>864.6666666666667</ele><time>2026-05-03T07:51:34.099Z</time></trkpt><trkpt lat="38.453733603589974" lon="16.385440096435563"><ele>866.5</ele><time>2026-05-03T07:51:36.099Z</time></trkpt><trkpt lat="38.45372763706994" lon="16.385284271619348"><ele>868.3333333333334</ele><time>2026-05-03T07:51:38.099Z</time></trkpt><trkpt lat="38.453725311673566" lon="16.385195558800074"><ele>870.1666666666667</ele><time>2026-05-03T07:51:39.099Z</time></trkpt><trkpt lat="38.45372110707806" lon="16.385105123600418"><ele>872.0</ele><time>2026-05-03T07:51:40.099Z</time></trkpt><trkpt lat="38.4537155492864" lon="16.38500615084624"><ele>872.0000000000001</ele><time>2026-05-03T07:51:41.099Z</time></trkpt><trkpt lat="38.45371868880881" lon="16.384906756862513"><ele>872.0</ele><time>2026-05-03T07:51:42.099Z</time></trkpt><trkpt lat="38.4537221606653" lon="16.38480353273748"><ele>872.0</ele><time>2026-05-03T07:51:43.099Z</time></trkpt><trkpt lat="38.45372376232916" lon="16.384698410401498"><ele>872.0</ele><time>2026-05-03T07:51:44.099Z</time></trkpt><trkpt lat="38.45371893142131" lon="16.38460841630362"><ele>872.0000000000001</ele><time>2026-05-03T07:51:45.1Z</time></trkpt><trkpt lat="38.45368627179554" lon="16.38450918838998"><ele>872.0</ele><time>2026-05-03T07:51:46.1Z</time></trkpt><trkpt lat="38.45365652377517" lon="16.384418534297936"><ele>876.5000000000001</ele><time>2026-05-03T07:51:47.1Z</time></trkpt><trkpt lat="38.45361579467007" lon="16.384331552518102"><ele>881.0</ele><time>2026-05-03T07:51:48.1Z</time></trkpt><trkpt lat="38.45358538024364" lon="16.384241697381338"><ele>885.5</ele><time>2026-05-03T07:51:49.1Z</time></trkpt><trkpt lat="38.45356822130842" lon="16.38414813659612"><ele>890.0</ele><time>2026-05-03T07:51:50.1Z</time></trkpt><trkpt lat="38.4535156090097" lon="16.384092267389267"><ele>894.5000000000001</ele><time>2026-05-03T07:51:51.1Z</time></trkpt><trkpt lat="38.453411361878366" lon="16.384065812726075"><ele>899.0</ele><time>2026-05-03T07:51:53.1Z</time></trkpt><trkpt lat="38.453326715621024" lon="16.384115424018884"><ele>899.0</ele><time>2026-05-03T07:51:55.1Z</time></trkpt><trkpt lat="38.453187536720485" lon="16.384223252085462"><ele>899.0000000000001</ele><time>2026-05-03T07:51:57.1Z</time></trkpt><trkpt lat="38.45307885406596" lon="16.3842424532447"><ele>899.0000000000001</ele><time>2026-05-03T07:51:58.1Z</time></trkpt><trkpt lat="38.45299144154473" lon="16.384258654811273"><ele>899.0</ele><time>2026-05-03T07:51:59.1Z</time></trkpt><trkpt lat="38.45292428571114" lon="16.38424374439284"><ele>899.0</ele><time>2026-05-03T07:52:00.1Z</time></trkpt><trkpt lat="38.452859790634335" lon="16.384197225521515"><ele>897.1666666666667</ele><time>2026-05-03T07:52:01.1Z</time></trkpt><trkpt lat="38.4528235465649" lon="16.38412802202555"><ele>895.3333333333334</ele><time>2026-05-03T07:52:02.1Z</time></trkpt><trkpt lat="38.452785138333624" lon="16.384053518576845"><ele>893.5</ele><time>2026-05-03T07:52:03.1Z</time></trkpt><trkpt lat="38.45273778283481" lon="16.383998204184785"><ele>891.6666666666667</ele><time>2026-05-03T07:52:04.1Z</time></trkpt><trkpt lat="38.452671029315105" lon="16.38395797156578"><ele>889.8333333333334</ele><time>2026-05-03T07:52:05.1Z</time></trkpt><trkpt lat="38.45258213589528" lon="16.383873217772116"><ele>888.0</ele><time>2026-05-03T07:52:07.1Z</time></trkpt><trkpt lat="38.452517455040216" lon="16.38385662461022"><ele>890.8</ele><time>2026-05-03T07:52:08.1Z</time></trkpt><trkpt lat="38.452445619878716" lon="16.38378066403155"><ele>893.5999999999999</ele><time>2026-05-03T07:52:10.1Z</time></trkpt><trkpt lat="38.45252571894381" lon="16.38371361663588"><ele>896.4000000000001</ele><time>2026-05-03T07:52:13.1Z</time></trkpt><trkpt lat="38.4525995405712" lon="16.383673680615573"><ele>899.2</ele><time>2026-05-03T07:52:15.1Z</time></trkpt><trkpt lat="38.452697611633596" lon="16.383640298821895"><ele>902.0</ele><time>2026-05-03T07:52:17.1Z</time></trkpt><trkpt lat="38.45279191210961" lon="16.383606077849112"><ele>902.0</ele><time>2026-05-03T07:52:19.1Z</time></trkpt><trkpt lat="38.452851223498804" lon="16.383548924885623"><ele>902.0</ele><time>2026-05-03T07:52:20.1Z</time></trkpt><trkpt lat="38.45296743283606" lon="16.383488629032914"><ele>902.0</ele><time>2026-05-03T07:52:22.1Z</time></trkpt><trkpt lat="38.45306269257675" lon="16.383425920194977"><ele>902.0</ele><time>2026-05-03T07:52:24.1Z</time></trkpt><trkpt lat="38.453161841864755" lon="16.38336452657026"><ele>902.0</ele><time>2026-05-03T07:52:26.1Z</time></trkpt><trkpt lat="38.45326000787779" lon="16.383333405593177"><ele>905.5</ele><time>2026-05-03T07:52:28.1Z</time></trkpt><trkpt lat="38.45337090760514" lon="16.38329154281348"><ele>909.0</ele><time>2026-05-03T07:52:30.1Z</time></trkpt><trkpt lat="38.453495833132386" lon="16.383282723855935"><ele>912.5</ele><time>2026-05-03T07:52:32.1Z</time></trkpt><trkpt lat="38.45362013789122" lon="16.38327834698019"><ele>916.0</ele><time>2026-05-03T07:52:34.1Z</time></trkpt><trkpt lat="38.453738745086646" lon="16.383282001003085"><ele>917.8</ele><time>2026-05-03T07:52:36.1Z</time></trkpt><trkpt lat="38.453873582460666" lon="16.383236891651542"><ele>919.5999999999999</ele><time>2026-05-03T07:52:38.1Z</time></trkpt><trkpt lat="38.45395061103951" lon="16.383200255058213"><ele>921.4</ele><time>2026-05-03T07:52:39.1Z</time></trkpt><trkpt lat="38.45408390891754" lon="16.38315204090264"><ele>923.2</ele><time>2026-05-03T07:52:41.1Z</time></trkpt><trkpt lat="38.454146972381295" lon="16.38310111371892"><ele>925.0</ele><time>2026-05-03T07:52:42.1Z</time></trkpt><trkpt lat="38.45422272716366" lon="16.38308590594474"><ele>925.0</ele><time>2026-05-03T07:52:43.1Z</time></trkpt><trkpt lat="38.454348041982726" lon="16.383042405381318"><ele>925.0</ele><time>2026-05-03T07:52:45.1Z</time></trkpt><trkpt lat="38.45447577133125" lon="16.38301244185781"><ele>925.0</ele><time>2026-05-03T07:52:47.1Z</time></trkpt><trkpt lat="38.45460879829475" lon="16.382994388130403"><ele>925.0</ele><time>2026-05-03T07:52:49.1Z</time></trkpt><trkpt lat="38.45472961994725" lon="16.382983900213468"><ele>928.6</ele><time>2026-05-03T07:52:51.1Z</time></trkpt><trkpt lat="38.454809451420836" lon="16.382971825368358"><ele>932.2</ele><time>2026-05-03T07:52:52.1Z</time></trkpt><trkpt lat="38.45487193016012" lon="16.38293448997299"><ele>935.8</ele><time>2026-05-03T07:52:53.1Z</time></trkpt><trkpt lat="38.45494867300902" lon="16.382911019927363"><ele>939.4</ele><time>2026-05-03T07:52:54.101Z</time></trkpt><trkpt lat="38.45508291351533" lon="16.382869965555383"><ele>943.0</ele><time>2026-05-03T07:52:56.101Z</time></trkpt><trkpt lat="38.45519981441272" lon="16.382837100220364"><ele>942.9999999999999</ele><time>2026-05-03T07:52:58.101Z</time></trkpt><trkpt lat="38.45532451093868" lon="16.382785880709218"><ele>943.0</ele><time>2026-05-03T07:53:00.101Z</time></trkpt><trkpt lat="38.45540584927593" lon="16.382773194533556"><ele>943.0</ele><time>2026-05-03T07:53:01.101Z</time></trkpt><trkpt lat="38.455484593325124" lon="16.382780841918727"><ele>943.0</ele><time>2026-05-03T07:53:02.101Z</time></trkpt><trkpt lat="38.45555808311185" lon="16.382800502872367"><ele>942.9999999999999</ele><time>2026-05-03T07:53:03.101Z</time></trkpt><trkpt lat="38.45560264276625" lon="16.382857524534245"><ele>943.0</ele><time>2026-05-03T07:53:04.101Z</time></trkpt><trkpt lat="38.455688899771594" lon="16.38295112952128"><ele>942.8</ele><time>2026-05-03T07:53:06.101Z</time></trkpt><trkpt lat="38.4557653193314" lon="16.383053344133717"><ele>942.5999999999999</ele><time>2026-05-03T07:53:08.101Z</time></trkpt><trkpt lat="38.4558513634425" lon="16.383170474822606"><ele>942.4000000000001</ele><time>2026-05-03T07:53:10.101Z</time></trkpt><trkpt lat="38.45593072723293" lon="16.383285941705328"><ele>942.2</ele><time>2026-05-03T07:53:12.101Z</time></trkpt><trkpt lat="38.455992382118296" lon="16.3833502390108"><ele>942.0</ele><time>2026-05-03T07:53:13.101Z</time></trkpt><trkpt lat="38.45607249489454" lon="16.383382031895664"><ele>942.0000000000001</ele><time>2026-05-03T07:53:14.101Z</time></trkpt><trkpt lat="38.456143663919924" lon="16.38339009081816"><ele>942.0</ele><time>2026-05-03T07:53:15.101Z</time></trkpt><trkpt lat="38.456214977033504" lon="16.383378815706795"><ele>942.0000000000001</ele><time>2026-05-03T07:53:16.101Z</time></trkpt><trkpt lat="38.45628475178863" lon="16.383340292533585"><ele>942.0000000000001</ele><time>2026-05-03T07:53:17.101Z</time></trkpt><trkpt lat="38.45633284042969" lon="16.383269442651283"><ele>942.0</ele><time>2026-05-03T07:53:18.101Z</time></trkpt><trkpt lat="38.45638104833547" lon="16.383205693417718"><ele>942.0000000000001</ele><time>2026-05-03T07:53:19.101Z</time></trkpt><trkpt lat="38.45641005253301" lon="16.38312307194678"><ele>942.0000000000001</ele><time>2026-05-03T07:53:20.101Z</time></trkpt><trkpt lat="38.456441097034585" lon="16.38296990960097"><ele>942.0</ele><time>2026-05-03T07:53:22.101Z</time></trkpt><trkpt lat="38.45648702096436" lon="16.382869789412226"><ele>942.0</ele><time>2026-05-03T07:53:24.101Z</time></trkpt><trkpt lat="38.456580098358266" lon="16.382844934113155"><ele>942.0</ele><time>2026-05-03T07:53:26.101Z</time></trkpt><trkpt lat="38.456669767931814" lon="16.382870758899827"><ele>942.0</ele><time>2026-05-03T07:53:28.101Z</time></trkpt><trkpt lat="38.45673853729678" lon="16.382887748223453"><ele>942.0</ele><time>2026-05-03T07:53:29.102Z</time></trkpt><trkpt lat="38.45680611646726" lon="16.38289777580724"><ele>942.0</ele><time>2026-05-03T07:53:30.102Z</time></trkpt><trkpt lat="38.45687864616245" lon="16.382909537717637"><ele>942.0</ele><time>2026-05-03T07:53:31.102Z</time></trkpt><trkpt lat="38.457001057836735" lon="16.382947553532567"><ele>942.0</ele><time>2026-05-03T07:53:33.102Z</time></trkpt><trkpt lat="38.4570728216298" lon="16.382919249247454"><ele>942.0</ele><time>2026-05-03T07:53:34.102Z</time></trkpt><trkpt lat="38.45713703720723" lon="16.382892874942826"><ele>942.0</ele><time>2026-05-03T07:53:35.102Z</time></trkpt><trkpt lat="38.45720390145262" lon="16.382874868024015"><ele>942.0</ele><time>2026-05-03T07:53:36.102Z</time></trkpt><trkpt lat="38.457350314348965" lon="16.38283543723402"><ele>944.4000000000001</ele><time>2026-05-03T07:53:38.102Z</time></trkpt><trkpt lat="38.457435416131055" lon="16.382813546568915"><ele>946.8000000000001</ele><time>2026-05-03T07:53:39.102Z</time></trkpt><trkpt lat="38.4575121274899" lon="16.382796004148013"><ele>949.2</ele><time>2026-05-03T07:53:40.102Z</time></trkpt><trkpt lat="38.457595235948475" lon="16.382800118061905"><ele>951.6</ele><time>2026-05-03T07:53:41.102Z</time></trkpt><trkpt lat="38.45766834121568" lon="16.382784264653548"><ele>954.0</ele><time>2026-05-03T07:53:42.102Z</time></trkpt><trkpt lat="38.45779844891444" lon="16.382776507914365"><ele>954.0</ele><time>2026-05-03T07:53:44.102Z</time></trkpt><trkpt lat="38.45793424563981" lon="16.38279692636463"><ele>954.0</ele><time>2026-05-03T07:53:46.102Z</time></trkpt><trkpt lat="38.458017822061365" lon="16.382808472551158"><ele>954.0</ele><time>2026-05-03T07:53:47.102Z</time></trkpt><trkpt lat="38.45810357490004" lon="16.38280986952852"><ele>954.0</ele><time>2026-05-03T07:53:48.102Z</time></trkpt><trkpt lat="38.45816915523536" lon="16.382793952453675"><ele>954.0</ele><time>2026-05-03T07:53:49.102Z</time></trkpt><trkpt lat="38.45823611836332" lon="16.382770568276545"><ele>954.0</ele><time>2026-05-03T07:53:50.102Z</time></trkpt><trkpt lat="38.4583084957572" lon="16.382745098325206"><ele>956.6666666666666</ele><time>2026-05-03T07:53:51.102Z</time></trkpt><trkpt lat="38.45838287558997" lon="16.38268016991365"><ele>959.3333333333333</ele><time>2026-05-03T07:53:52.102Z</time></trkpt><trkpt lat="38.45845560203866" lon="16.38265730594399"><ele>962.0</ele><time>2026-05-03T07:53:53.102Z</time></trkpt><trkpt lat="38.458505788372015" lon="16.38260480535631"><ele>964.6666666666666</ele><time>2026-05-03T07:53:54.102Z</time></trkpt><trkpt lat="38.45855922873506" lon="16.38255270116157"><ele>967.3333333333333</ele><time>2026-05-03T07:53:55.102Z</time></trkpt><trkpt lat="38.45864536998085" lon="16.382519016875072"><ele>970.0</ele><time>2026-05-03T07:53:57.102Z</time></trkpt><trkpt lat="38.45872178247009" lon="16.382487952208475"><ele>970.9999999999999</ele><time>2026-05-03T07:53:58.102Z</time></trkpt><trkpt lat="38.45879863582534" lon="16.382458650092357"><ele>972.0</ele><time>2026-05-03T07:53:59.102Z</time></trkpt><trkpt lat="38.4588709142054" lon="16.38238938836733"><ele>973.0</ele><time>2026-05-03T07:54:00.102Z</time></trkpt><trkpt lat="38.45893107054113" lon="16.382325233877108"><ele>974.0</ele><time>2026-05-03T07:54:01.102Z</time></trkpt><trkpt lat="38.45899613493315" lon="16.382281365841923"><ele>974.9999999999999</ele><time>2026-05-03T07:54:02.102Z</time></trkpt><trkpt lat="38.459104418062964" lon="16.382270092127712"><ele>976.0</ele><time>2026-05-03T07:54:04.103Z</time></trkpt><trkpt lat="38.45921313574213" lon="16.38234555849641"><ele>976.0</ele><time>2026-05-03T07:54:06.103Z</time></trkpt><trkpt lat="38.459364595649504" lon="16.382385053648683"><ele>976.0</ele><time>2026-05-03T07:54:08.103Z</time></trkpt><trkpt lat="38.45945838201046" lon="16.38240742979132"><ele>976.0</ele><time>2026-05-03T07:54:09.103Z</time></trkpt><trkpt lat="38.45956922931167" lon="16.382422883278146"><ele>976.0</ele><time>2026-05-03T07:54:10.103Z</time></trkpt><trkpt lat="38.45965857017282" lon="16.382409561574864"><ele>976.8333333333333</ele><time>2026-05-03T07:54:11.103Z</time></trkpt><trkpt lat="38.459730253835886" lon="16.382376866489313"><ele>977.6666666666666</ele><time>2026-05-03T07:54:12.103Z</time></trkpt><trkpt lat="38.45980069294006" lon="16.38231608023032"><ele>978.5</ele><time>2026-05-03T07:54:13.103Z</time></trkpt><trkpt lat="38.45986063243379" lon="16.382261113466285"><ele>979.3333333333333</ele><time>2026-05-03T07:54:14.103Z</time></trkpt><trkpt lat="38.45994318331789" lon="16.38219200547517"><ele>980.1666666666666</ele><time>2026-05-03T07:54:15.103Z</time></trkpt><trkpt lat="38.46003345406612" lon="16.382132030265186"><ele>981.0</ele><time>2026-05-03T07:54:16.103Z</time></trkpt><trkpt lat="38.46011681013163" lon="16.382088769629814"><ele>978.8</ele><time>2026-05-03T07:54:17.103Z</time></trkpt><trkpt lat="38.460217223221974" lon="16.382053265677992"><ele>976.5999999999999</ele><time>2026-05-03T07:54:18.103Z</time></trkpt><trkpt lat="38.460294592299334" lon="16.38202711053243"><ele>974.4</ele><time>2026-05-03T07:54:19.103Z</time></trkpt><trkpt lat="38.46039403513123" lon="16.38202753175941"><ele>972.2</ele><time>2026-05-03T07:54:20.103Z</time></trkpt><trkpt lat="38.46051104629967" lon="16.38198439436782"><ele>970.0</ele><time>2026-05-03T07:54:21.102Z</time></trkpt><trkpt lat="38.46059436772911" lon="16.38196813144418"><ele>970.0</ele><time>2026-05-03T07:54:22.103Z</time></trkpt><trkpt lat="38.46070065947473" lon="16.381953880951027"><ele>970.0</ele><time>2026-05-03T07:54:23.103Z</time></trkpt><trkpt lat="38.46081090130245" lon="16.381947894291923"><ele>970.0</ele><time>2026-05-03T07:54:24.102Z</time></trkpt><trkpt lat="38.46090611635641" lon="16.381940068400727"><ele>970.0</ele><time>2026-05-03T07:54:25.102Z</time></trkpt><trkpt lat="38.46101903270139" lon="16.381943922245384"><ele>970.0</ele><time>2026-05-03T07:54:26.102Z</time></trkpt><trkpt lat="38.46110303545797" lon="16.38196011076823"><ele>969.9999999999999</ele><time>2026-05-03T07:54:27.102Z</time></trkpt><trkpt lat="38.46119457869423" lon="16.38197771819361"><ele>970.0</ele><time>2026-05-03T07:54:28.103Z</time></trkpt><trkpt lat="38.46127094962611" lon="16.38200953144459"><ele>970.0</ele><time>2026-05-03T07:54:29.103Z</time></trkpt><trkpt lat="38.46134088399698" lon="16.382053198220735"><ele>970.0</ele><time>2026-05-03T07:54:30.102Z</time></trkpt><trkpt lat="38.46141407210326" lon="16.382096248820073"><ele>969.9999999999999</ele><time>2026-05-03T07:54:31.102Z</time></trkpt><trkpt lat="38.46148236688644" lon="16.382139108869566"><ele>970.0</ele><time>2026-05-03T07:54:32.102Z</time></trkpt><trkpt lat="38.46155111391108" lon="16.38217789541575"><ele>972.1666666666666</ele><time>2026-05-03T07:54:33.103Z</time></trkpt><trkpt lat="38.46161946754869" lon="16.382209802340558"><ele>974.3333333333333</ele><time>2026-05-03T07:54:34.103Z</time></trkpt><trkpt lat="38.46168859394347" lon="16.382233990554624"><ele>976.5</ele><time>2026-05-03T07:54:35.103Z</time></trkpt><trkpt lat="38.46176725439944" lon="16.382268559954035"><ele>978.6666666666667</ele><time>2026-05-03T07:54:36.103Z</time></trkpt><trkpt lat="38.46186463913707" lon="16.382232528773784"><ele>980.8333333333334</ele><time>2026-05-03T07:54:37.103Z</time></trkpt><trkpt lat="38.46194433655431" lon="16.382173476897602"><ele>983.0</ele><time>2026-05-03T07:54:38.103Z</time></trkpt><trkpt lat="38.46200231005326" lon="16.38212903041581"><ele>983.0000000000001</ele><time>2026-05-03T07:54:39.103Z</time></trkpt><trkpt lat="38.46210888420034" lon="16.382084407199823"><ele>983.0</ele><time>2026-05-03T07:54:41.103Z</time></trkpt><trkpt lat="38.46214935692757" lon="16.38214709912326"><ele>983.0</ele><time>2026-05-03T07:54:43.103Z</time></trkpt><trkpt lat="38.46221571776036" lon="16.382223454910207"><ele>983.0</ele><time>2026-05-03T07:54:45.104Z</time></trkpt><trkpt lat="38.46228112875879" lon="16.38231027924765"><ele>983.0000000000001</ele><time>2026-05-03T07:54:47.104Z</time></trkpt><trkpt lat="38.462324698159286" lon="16.38237875692565"><ele>983.0</ele><time>2026-05-03T07:54:49.104Z</time></trkpt><trkpt lat="38.46241414998464" lon="16.38244067635905"><ele>987.5999999999999</ele><time>2026-05-03T07:54:51.104Z</time></trkpt><trkpt lat="38.46252920000587" lon="16.382527372780164"><ele>992.1999999999999</ele><time>2026-05-03T07:54:53.104Z</time></trkpt><trkpt lat="38.46256307719869" lon="16.38259969492555"><ele>996.8</ele><time>2026-05-03T07:54:54.104Z</time></trkpt><trkpt lat="38.462604527945075" lon="16.382753440105365"><ele>1001.4</ele><time>2026-05-03T07:54:56.104Z</time></trkpt><trkpt lat="38.46268808007715" lon="16.382860899641674"><ele>1006.0</ele><time>2026-05-03T07:54:58.104Z</time></trkpt><trkpt lat="38.462763883847344" lon="16.38290917877336"><ele>1006.0</ele><time>2026-05-03T07:55:00.104Z</time></trkpt><trkpt lat="38.462853320109794" lon="16.38293997133135"><ele>1005.9999999999999</ele><time>2026-05-03T07:55:02.104Z</time></trkpt><trkpt lat="38.462918541792995" lon="16.382900742080132"><ele>1005.9999999999999</ele><time>2026-05-03T07:55:04.104Z</time></trkpt><trkpt lat="38.462918970650314" lon="16.382799156418656"><ele>1006.0</ele><time>2026-05-03T07:55:06.104Z</time></trkpt><trkpt lat="38.46299766642551" lon="16.382625988684396"><ele>1006.0</ele><time>2026-05-03T07:55:09.104Z</time></trkpt><trkpt lat="38.463056011807346" lon="16.382549907018404"><ele>1009.5999999999999</ele><time>2026-05-03T07:55:10.104Z</time></trkpt><trkpt lat="38.463138274814256" lon="16.38243494892127"><ele>1013.1999999999999</ele><time>2026-05-03T07:55:12.104Z</time></trkpt><trkpt lat="38.4631975888593" lon="16.382357462301577"><ele>1016.8000000000001</ele><time>2026-05-03T07:55:13.104Z</time></trkpt><trkpt lat="38.46327619339138" lon="16.382336457574805"><ele>1020.4000000000001</ele><time>2026-05-03T07:55:15.104Z</time></trkpt><trkpt lat="38.463390955654354" lon="16.38231745111215"><ele>1024.0</ele><time>2026-05-03T07:55:17.104Z</time></trkpt><trkpt lat="38.46350800939545" lon="16.382282819595122"><ele>1024.0</ele><time>2026-05-03T07:55:19.105Z</time></trkpt><trkpt lat="38.46358067821123" lon="16.382285394752472"><ele>1024.0</ele><time>2026-05-03T07:55:21.105Z</time></trkpt><trkpt lat="38.46368053350962" lon="16.382230807852427"><ele>1024.0</ele><time>2026-05-03T07:55:23.105Z</time></trkpt><trkpt lat="38.46380007777457" lon="16.38218747294709"><ele>1024.0</ele><time>2026-05-03T07:55:25.105Z</time></trkpt><trkpt lat="38.46391118005113" lon="16.38222096454318"><ele>1024.0</ele><time>2026-05-03T07:55:27.105Z</time></trkpt><trkpt lat="38.464014677545606" lon="16.38223691918662"><ele>1025.5</ele><time>2026-05-03T07:55:29.105Z</time></trkpt><trkpt lat="38.464122111547816" lon="16.3822486891675"><ele>1027.0</ele><time>2026-05-03T07:55:31.105Z</time></trkpt><trkpt lat="38.46423391940676" lon="16.382286213985658"><ele>1028.5</ele><time>2026-05-03T07:55:33.105Z</time></trkpt><trkpt lat="38.46429704656154" lon="16.38230050238838"><ele>1030.0</ele><time>2026-05-03T07:55:34.105Z</time></trkpt><trkpt lat="38.46435835942362" lon="16.38232656871887"><ele>1031.5</ele><time>2026-05-03T07:55:35.105Z</time></trkpt><trkpt lat="38.464427138037436" lon="16.382341625928543"><ele>1033.0</ele><time>2026-05-03T07:55:36.105Z</time></trkpt><trkpt lat="38.464492749192" lon="16.382363626590266"><ele>1033.0</ele><time>2026-05-03T07:55:37.105Z</time></trkpt><trkpt lat="38.46456074979046" lon="16.382359708045236"><ele>1033.0</ele><time>2026-05-03T07:55:38.105Z</time></trkpt><trkpt lat="38.464634104581236" lon="16.382354240454067"><ele>1033.0</ele><time>2026-05-03T07:55:39.105Z</time></trkpt><trkpt lat="38.46471221545751" lon="16.382329841721724"><ele>1033.0</ele><time>2026-05-03T07:55:40.105Z</time></trkpt><trkpt lat="38.46479709427936" lon="16.382298662485898"><ele>1033.0</ele><time>2026-05-03T07:55:41.105Z</time></trkpt><trkpt lat="38.46486388333049" lon="16.38227134652966"><ele>1033.0</ele><time>2026-05-03T07:55:42.105Z</time></trkpt><trkpt lat="38.464940212250816" lon="16.382215644573538"><ele>1035.0</ele><time>2026-05-03T07:55:43.105Z</time></trkpt><trkpt lat="38.46502800335578" lon="16.382152455187146"><ele>1037.0</ele><time>2026-05-03T07:55:44.105Z</time></trkpt><trkpt lat="38.46510394180634" lon="16.38210233344605"><ele>1039.0</ele><time>2026-05-03T07:55:45.105Z</time></trkpt><trkpt lat="38.46516901041972" lon="16.382069747116546"><ele>1041.0</ele><time>2026-05-03T07:55:46.105Z</time></trkpt><trkpt lat="38.46528198361611" lon="16.38201757558896"><ele>1043.0</ele><time>2026-05-03T07:55:48.105Z</time></trkpt><trkpt lat="38.46536404938246" lon="16.381983654816462"><ele>1043.0</ele><time>2026-05-03T07:55:49.105Z</time></trkpt><trkpt lat="38.46544257965478" lon="16.381944845932036"><ele>1043.0</ele><time>2026-05-03T07:55:50.105Z</time></trkpt><trkpt lat="38.46550186728031" lon="16.381884921445348"><ele>1043.0</ele><time>2026-05-03T07:55:51.105Z</time></trkpt><trkpt lat="38.4655617681537" lon="16.38185515100342"><ele>1043.0</ele><time>2026-05-03T07:55:52.105Z</time></trkpt><trkpt lat="38.465639741356796" lon="16.38182496820557"><ele>1043.0</ele><time>2026-05-03T07:55:53.105Z</time></trkpt><trkpt lat="38.465712275523195" lon="16.38178841533174"><ele>1043.0</ele><time>2026-05-03T07:55:54.106Z</time></trkpt><trkpt lat="38.46578010725291" lon="16.381766174606454"><ele>1044.5</ele><time>2026-05-03T07:55:55.106Z</time></trkpt><trkpt lat="38.465855169295416" lon="16.38174502067045"><ele>1046.0</ele><time>2026-05-03T07:55:56.106Z</time></trkpt><trkpt lat="38.465934790366276" lon="16.381699685347673"><ele>1047.5</ele><time>2026-05-03T07:55:57.106Z</time></trkpt><trkpt lat="38.46599935654569" lon="16.381669585647185"><ele>1049.0</ele><time>2026-05-03T07:55:58.106Z</time></trkpt><trkpt lat="38.466067411025236" lon="16.381624300875565"><ele>1050.5</ele><time>2026-05-03T07:55:59.106Z</time></trkpt><trkpt lat="38.466126960816595" lon="16.381577017484812"><ele>1052.0</ele><time>2026-05-03T07:56:00.106Z</time></trkpt><trkpt lat="38.46618571375258" lon="16.381527780375084"><ele>1052.0</ele><time>2026-05-03T07:56:01.106Z</time></trkpt><trkpt lat="38.466248852166" lon="16.381468393742406"><ele>1052.0</ele><time>2026-05-03T07:56:02.106Z</time></trkpt><trkpt lat="38.46632516220454" lon="16.381393103456652"><ele>1052.0</ele><time>2026-05-03T07:56:03.106Z</time></trkpt><trkpt lat="38.46639915126311" lon="16.381326144285232"><ele>1052.0</ele><time>2026-05-03T07:56:04.106Z</time></trkpt><trkpt lat="38.466472230776866" lon="16.381257527704797"><ele>1052.0</ele><time>2026-05-03T07:56:05.106Z</time></trkpt><trkpt lat="38.46653290383389" lon="16.381176562573906"><ele>1052.0</ele><time>2026-05-03T07:56:06.106Z</time></trkpt><trkpt lat="38.46658844244093" lon="16.381110858652693"><ele>1053.5</ele><time>2026-05-03T07:56:07.106Z</time></trkpt><trkpt lat="38.46665142130709" lon="16.381039126444048"><ele>1055.0</ele><time>2026-05-03T07:56:08.106Z</time></trkpt><trkpt lat="38.46671658644658" lon="16.380973258930844"><ele>1056.5</ele><time>2026-05-03T07:56:09.106Z</time></trkpt><trkpt lat="38.46676973317823" lon="16.380911713576175"><ele>1058.0</ele><time>2026-05-03T07:56:10.106Z</time></trkpt><trkpt lat="38.46681817282679" lon="16.380860051314052"><ele>1059.5</ele><time>2026-05-03T07:56:11.106Z</time></trkpt><trkpt lat="38.466911793028004" lon="16.38077912581464"><ele>1061.0</ele><time>2026-05-03T07:56:13.106Z</time></trkpt><trkpt lat="38.467035664643916" lon="16.380668622275525"><ele>1061.0</ele><time>2026-05-03T07:56:15.106Z</time></trkpt><trkpt lat="38.46709739788305" lon="16.380622193800527"><ele>1061.0</ele><time>2026-05-03T07:56:16.106Z</time></trkpt><trkpt lat="38.46719066935176" lon="16.38052072456698"><ele>1061.0</ele><time>2026-05-03T07:56:18.106Z</time></trkpt><trkpt lat="38.467276929752025" lon="16.380425369775978"><ele>1061.0</ele><time>2026-05-03T07:56:20.106Z</time></trkpt><trkpt lat="38.467367868266344" lon="16.380367174091194"><ele>1061.0</ele><time>2026-05-03T07:56:22.106Z</time></trkpt><trkpt lat="38.46744377545535" lon="16.38032894946762"><ele>1062.3333333333335</ele><time>2026-05-03T07:56:24.106Z</time></trkpt><trkpt lat="38.46740110447021" lon="16.380223677047542"><ele>1063.6666666666667</ele><time>2026-05-03T07:56:33.105Z</time></trkpt><trkpt lat="38.467352844335544" lon="16.380166832870056"><ele>1065.0</ele><time>2026-05-03T07:56:34.106Z</time></trkpt><trkpt lat="38.467273978567064" lon="16.380115199438027"><ele>1066.3333333333333</ele><time>2026-05-03T07:56:36.106Z</time></trkpt><trkpt lat="38.46719258291592" lon="16.380132658900887"><ele>1067.6666666666665</ele><time>2026-05-03T07:56:39.106Z</time></trkpt><trkpt lat="38.467141138553394" lon="16.380193850331956"><ele>1069.0</ele><time>2026-05-03T07:56:44.105Z</time></trkpt><trkpt lat="38.46707635968333" lon="16.38024415513995"><ele>1069.3333333333333</ele><time>2026-05-03T07:56:47.105Z</time></trkpt><trkpt lat="38.467021080663216" lon="16.380288140984455"><ele>1069.6666666666665</ele><time>2026-05-03T07:56:50.105Z</time></trkpt><trkpt lat="38.46695728368632" lon="16.38033853222614"><ele>1070.0</ele><time>2026-05-03T07:56:52.105Z</time></trkpt><trkpt lat="38.46686872968924" lon="16.38036566512215"><ele>1070.3333333333333</ele><time>2026-05-03T07:57:00.106Z</time></trkpt><trkpt lat="38.46690670220484" lon="16.38029357031378"><ele>1070.6666666666667</ele><time>2026-05-03T07:57:02.106Z</time></trkpt><trkpt lat="38.46684215164506" lon="16.380235923508124"><ele>1071.0</ele><time>2026-05-03T07:57:05.106Z</time></trkpt><trkpt lat="38.4668501079239" lon="16.380106969065512"><ele>1071.0</ele><time>2026-05-03T07:57:11.106Z</time></trkpt><trkpt lat="38.46677358012648" lon="16.379912460784347"><ele>1071.0</ele><time>2026-05-03T07:57:18.106Z</time></trkpt><trkpt lat="38.46674967086751" lon="16.379812013569072"><ele>1071.0</ele><time>2026-05-03T07:57:22.106Z</time></trkpt><trkpt lat="38.466781404715526" lon="16.379719235908436"><ele>1071.0</ele><time>2026-05-03T07:57:27.106Z</time></trkpt><trkpt lat="38.466751360289614" lon="16.37963440274786"><ele>1071.0</ele><time>2026-05-03T07:57:30.107Z</time></trkpt><trkpt lat="38.466654350799615" lon="16.379474187042526"><ele>1071.3333333333333</ele><time>2026-05-03T07:58:08.025Z</time></trkpt><trkpt lat="38.46661501586003" lon="16.37938544872673"><ele>1071.6666666666667</ele><time>2026-05-03T07:58:53.026Z</time></trkpt><trkpt lat="38.46655919858714" lon="16.37931303712461"><ele>1072.0</ele><time>2026-05-03T07:58:56.026Z</time></trkpt><trkpt lat="38.46650211790699" lon="16.37925236758672"><ele>1072.3333333333335</ele><time>2026-05-03T07:58:59.026Z</time></trkpt><trkpt lat="38.46645636511095" lon="16.379188397796565"><ele>1072.6666666666667</ele><time>2026-05-03T07:59:02.026Z</time></trkpt><trkpt lat="38.46641475982519" lon="16.379101702271438"><ele>1073.0</ele><time>2026-05-03T07:59:06.026Z</time></trkpt><trkpt lat="38.46636825080393" lon="16.379031991619886"><ele>1073.0</ele><time>2026-05-03T07:59:09.026Z</time></trkpt><trkpt lat="38.4663274271496" lon="16.378951214589186"><ele>1073.0</ele><time>2026-05-03T07:59:39.027Z</time></trkpt><trkpt lat="38.46628697849898" lon="16.378866966201027"><ele>1073.0</ele><time>2026-05-03T07:59:43.027Z</time></trkpt><trkpt lat="38.46622813231116" lon="16.37880530898718"><ele>1073.0</ele><time>2026-05-03T08:00:49.026Z</time></trkpt><trkpt lat="38.466168289510655" lon="16.37874165710948"><ele>1073.0</ele><time>2026-05-03T08:00:52.026Z</time></trkpt><trkpt lat="38.46612075694469" lon="16.378679156296915"><ele>1073.0</ele><time>2026-05-03T08:00:55.026Z</time></trkpt><trkpt lat="38.46606334852173" lon="16.378637571024132"><ele>1073.0</ele><time>2026-05-03T08:01:02.026Z</time></trkpt><trkpt lat="38.466013017829475" lon="16.378579512429628"><ele>1072.857142857143</ele><time>2026-05-03T08:01:23.027Z</time></trkpt><trkpt lat="38.46597848069156" lon="16.37849848363692"><ele>1072.7142857142856</ele><time>2026-05-03T08:01:40.027Z</time></trkpt><trkpt lat="38.46592984886118" lon="16.378444474840112"><ele>1072.5714285714284</ele><time>2026-05-03T08:01:47.027Z</time></trkpt><trkpt lat="38.46587348290404" lon="16.37840012542932"><ele>1072.4285714285713</ele><time>2026-05-03T08:01:54.027Z</time></trkpt><trkpt lat="38.46581191583686" lon="16.378349122228983"><ele>1072.2857142857142</ele><time>2026-05-03T08:01:59.027Z</time></trkpt><trkpt lat="38.46575103298594" lon="16.378288973741736"><ele>1072.142857142857</ele><time>2026-05-03T08:02:03.027Z</time></trkpt><trkpt lat="38.465699152898104" lon="16.37824127750035"><ele>1072.0</ele><time>2026-05-03T08:02:07.027Z</time></trkpt><trkpt lat="38.465645658515484" lon="16.378177127259374"><ele>1072.0</ele><time>2026-05-03T08:02:10.027Z</time></trkpt><trkpt lat="38.46558356986201" lon="16.378115842501085"><ele>1072.0</ele><time>2026-05-03T08:02:13.027Z</time></trkpt><trkpt lat="38.4655219091302" lon="16.37806973167693"><ele>1072.0</ele><time>2026-05-03T08:02:16.027Z</time></trkpt><trkpt lat="38.4654721827132" lon="16.377997308774898"><ele>1072.0</ele><time>2026-05-03T08:02:19.027Z</time></trkpt><trkpt lat="38.46547391813504" lon="16.377903493963828"><ele>1072.0</ele><time>2026-05-03T08:02:24.027Z</time></trkpt><trkpt lat="38.46548336288567" lon="16.377818111606558"><ele>1072.0</ele><time>2026-05-03T08:02:28.027Z</time></trkpt><trkpt lat="38.46549915483862" lon="16.377715602574817"><ele>1072.0</ele><time>2026-05-03T08:02:32.027Z</time></trkpt><trkpt lat="38.46552281316217" lon="16.37762326877541"><ele>1071.7142857142858</ele><time>2026-05-03T08:02:35.027Z</time></trkpt><trkpt lat="38.465514420723" lon="16.377533811544765"><ele>1071.4285714285713</ele><time>2026-05-03T08:02:38.027Z</time></trkpt><trkpt lat="38.465515312352835" lon="16.377436973141606"><ele>1071.142857142857</ele><time>2026-05-03T08:02:41.027Z</time></trkpt><trkpt lat="38.46548799803289" lon="16.37736097581571"><ele>1070.857142857143</ele><time>2026-05-03T08:02:44.027Z</time></trkpt><trkpt lat="38.4654829137615" lon="16.37727652057143"><ele>1070.5714285714287</ele><time>2026-05-03T08:03:05.026Z</time></trkpt><trkpt lat="38.4654770461524" lon="16.377179052785245"><ele>1070.2857142857142</ele><time>2026-05-03T08:03:11.026Z</time></trkpt><trkpt lat="38.46547492922614" lon="16.377076904649535"><ele>1070.0</ele><time>2026-05-03T08:03:16.026Z</time></trkpt><trkpt lat="38.46547857610609" lon="16.37698454124669"><ele>1069.142857142857</ele><time>2026-05-03T08:03:20.026Z</time></trkpt><trkpt lat="38.46549102343267" lon="16.376884493727584"><ele>1068.2857142857142</ele><time>2026-05-03T08:03:24.026Z</time></trkpt><trkpt lat="38.46550852875518" lon="16.376798368072006"><ele>1067.4285714285716</ele><time>2026-05-03T08:03:28.026Z</time></trkpt><trkpt lat="38.465529315300124" lon="16.37671656378679"><ele>1066.5714285714284</ele><time>2026-05-03T08:03:32.025Z</time></trkpt><trkpt lat="38.46555254871425" lon="16.37663707704824"><ele>1065.7142857142858</ele><time>2026-05-03T08:03:35.025Z</time></trkpt><trkpt lat="38.465584259458396" lon="16.376537305926313"><ele>1064.857142857143</ele><time>2026-05-03T08:03:38.025Z</time></trkpt><trkpt lat="38.465625775705384" lon="16.37645499174445"><ele>1064.0</ele><time>2026-05-03T08:03:41.025Z</time></trkpt><trkpt lat="38.465680802100984" lon="16.376395624974638"><ele>1062.1666666666667</ele><time>2026-05-03T08:03:44.025Z</time></trkpt><trkpt lat="38.465754428564004" lon="16.376339577794063"><ele>1060.3333333333335</ele><time>2026-05-03T08:03:47.025Z</time></trkpt><trkpt lat="38.46582310612095" lon="16.3762943082282"><ele>1058.5</ele><time>2026-05-03T08:03:50.025Z</time></trkpt><trkpt lat="38.465905715046404" lon="16.376219430348737"><ele>1056.6666666666667</ele><time>2026-05-03T08:03:53.025Z</time></trkpt><trkpt lat="38.465889391016695" lon="16.376111631560367"><ele>1054.8333333333333</ele><time>2026-05-03T08:03:55.025Z</time></trkpt><trkpt lat="38.4658269502205" lon="16.376063010630148"><ele>1053.0</ele><time>2026-05-03T08:03:59.025Z</time></trkpt><trkpt lat="38.46576191678297" lon="16.37604685467806"><ele>1052.9999999999998</ele><time>2026-05-03T08:04:02.025Z</time></trkpt><trkpt lat="38.465695402030626" lon="16.376133969434626"><ele>1053.0</ele><time>2026-05-03T08:04:04.025Z</time></trkpt><trkpt lat="38.46563302534959" lon="16.37618860052097"><ele>1053.0</ele><time>2026-05-03T08:04:08.025Z</time></trkpt><trkpt lat="38.465572869959416" lon="16.376215066487955"><ele>1053.0</ele><time>2026-05-03T08:04:22.025Z</time></trkpt><trkpt lat="38.465492626146855" lon="16.376213853079165"><ele>1053.0</ele><time>2026-05-03T08:04:36.026Z</time></trkpt><trkpt lat="38.46542814817254" lon="16.376220438798057"><ele>1052.9999999999998</ele><time>2026-05-03T08:07:13.026Z</time></trkpt><trkpt lat="38.46536188717118" lon="16.376227190639344"><ele>1053.0</ele><time>2026-05-03T08:07:20.026Z</time></trkpt><trkpt lat="38.46530882315485" lon="16.376276017083406"><ele>1053.0</ele><time>2026-05-03T08:17:56.939Z</time></trkpt><trkpt lat="38.465252218576936" lon="16.376240285615808"><ele>1053.0</ele><time>2026-05-03T08:19:27.937Z</time></trkpt><trkpt lat="38.465307429789675" lon="16.376300283730675"><ele>1053.0</ele><time>2026-05-03T08:21:38.936Z</time></trkpt><trkpt lat="38.4653823206061" lon="16.376284755657068"><ele>1053.0</ele><time>2026-05-03T08:21:40.936Z</time></trkpt><trkpt lat="38.46543843212007" lon="16.37620713043107"><ele>1053.0</ele><time>2026-05-03T08:21:44.936Z</time></trkpt><trkpt lat="38.46550043854776" lon="16.37612886632384"><ele>1053.0</ele><time>2026-05-03T08:21:47.936Z</time></trkpt><trkpt lat="38.46556229031135" lon="16.376085577840417"><ele>1053.0</ele><time>2026-05-03T08:21:50.936Z</time></trkpt><trkpt lat="38.46559833693466" lon="16.375993862278108"><ele>1053.0</ele><time>2026-05-03T08:21:57.936Z</time></trkpt><trkpt lat="38.46564635140197" lon="16.37593044033023"><ele>1053.0</ele><time>2026-05-03T08:22:00.936Z</time></trkpt><trkpt lat="38.46571991552358" lon="16.375869728598282"><ele>1053.0</ele><time>2026-05-03T08:22:03.936Z</time></trkpt><trkpt lat="38.465785933767826" lon="16.375809407254195"><ele>1053.0</ele><time>2026-05-03T08:22:06.936Z</time></trkpt><trkpt lat="38.46584091042862" lon="16.375703695745496"><ele>1053.0</ele><time>2026-05-03T08:22:10.936Z</time></trkpt><trkpt lat="38.46591089521052" lon="16.37566110100158"><ele>1053.0</ele><time>2026-05-03T08:22:14.936Z</time></trkpt><trkpt lat="38.46595933089164" lon="16.375609258004168"><ele>1053.0</ele><time>2026-05-03T08:22:35.935Z</time></trkpt><trkpt lat="38.46604313740624" lon="16.375544800863466"><ele>1053.0</ele><time>2026-05-03T08:22:38.935Z</time></trkpt><trkpt lat="38.466112390419674" lon="16.375520292375498"><ele>1053.0</ele><time>2026-05-03T08:22:42.935Z</time></trkpt><trkpt lat="38.46618642785768" lon="16.375481936532832"><ele>1053.0</ele><time>2026-05-03T08:22:46.935Z</time></trkpt><trkpt lat="38.46626474055119" lon="16.37547576930182"><ele>1053.0</ele><time>2026-05-03T08:22:48.935Z</time></trkpt><trkpt lat="38.466432390094226" lon="16.375334442838017"><ele>1051.1666666666667</ele><time>2026-05-03T08:22:57.935Z</time></trkpt><trkpt lat="38.46647841647783" lon="16.375251784794298"><ele>1049.3333333333333</ele><time>2026-05-03T08:22:59.935Z</time></trkpt><trkpt lat="38.4665221342604" lon="16.375161099029157"><ele>1047.5</ele><time>2026-05-03T08:23:01.935Z</time></trkpt><trkpt lat="38.466585494586624" lon="16.375117693128104"><ele>1045.6666666666665</ele><time>2026-05-03T08:23:07.935Z</time></trkpt><trkpt lat="38.46667161997545" lon="16.375090873457044"><ele>1043.8333333333333</ele><time>2026-05-03T08:23:11.935Z</time></trkpt><trkpt lat="38.46673299317695" lon="16.37505684680425"><ele>1042.0</ele><time>2026-05-03T08:23:13.935Z</time></trkpt><trkpt lat="38.46678768764597" lon="16.374976168096975"><ele>1042.0</ele><time>2026-05-03T08:23:19.935Z</time></trkpt><trkpt lat="38.46682938422894" lon="16.374887497392045"><ele>1042.0</ele><time>2026-05-03T08:23:22.935Z</time></trkpt><trkpt lat="38.46688690683312" lon="16.37482141610017"><ele>1042.0</ele><time>2026-05-03T08:23:26.935Z</time></trkpt><trkpt lat="38.46696344157767" lon="16.374820802753945"><ele>1042.0</ele><time>2026-05-03T08:23:30.935Z</time></trkpt><trkpt lat="38.467041499951506" lon="16.37482308385441"><ele>1042.0</ele><time>2026-05-03T08:23:33.935Z</time></trkpt><trkpt lat="38.46710344539473" lon="16.374799819554326"><ele>1042.0</ele><time>2026-05-03T08:23:36.935Z</time></trkpt><trkpt lat="38.46716033618603" lon="16.374753697129265"><ele>1042.0</ele><time>2026-05-03T08:23:43.934Z</time></trkpt><trkpt lat="38.467231532854825" lon="16.374761299364707"><ele>1042.1666666666665</ele><time>2026-05-03T08:23:47.935Z</time></trkpt><trkpt lat="38.46729196788816" lon="16.37469964484169"><ele>1042.3333333333333</ele><time>2026-05-03T08:23:51.935Z</time></trkpt><trkpt lat="38.467374205504804" lon="16.37467188124047"><ele>1042.5</ele><time>2026-05-03T08:23:56.935Z</time></trkpt><trkpt lat="38.46745282547371" lon="16.374689169157694"><ele>1042.6666666666667</ele><time>2026-05-03T08:23:58.935Z</time></trkpt><trkpt lat="38.46752892748374" lon="16.37471768830046"><ele>1042.8333333333335</ele><time>2026-05-03T08:24:01.935Z</time></trkpt><trkpt lat="38.46753729889618" lon="16.37461788322577"><ele>1043.0</ele><time>2026-05-03T08:24:05.935Z</time></trkpt><trkpt lat="38.46743578678261" lon="16.37445907862469"><ele>1043.0</ele><time>2026-05-03T08:24:15.935Z</time></trkpt><trkpt lat="38.46737003862939" lon="16.374407132405334"><ele>1043.0</ele><time>2026-05-03T08:24:18.935Z</time></trkpt><trkpt lat="38.46733520051319" lon="16.374297323656116"><ele>1043.0</ele><time>2026-05-03T08:24:22.934Z</time></trkpt><trkpt lat="38.46726100500279" lon="16.374258467486683"><ele>1043.0</ele><time>2026-05-03T08:24:27.934Z</time></trkpt><trkpt lat="38.46717936838801" lon="16.37425405904373"><ele>1043.0</ele><time>2026-05-03T08:24:31.934Z</time></trkpt><trkpt lat="38.46709244164514" lon="16.374268505945835"><ele>1043.0</ele><time>2026-05-03T08:24:35.934Z</time></trkpt><trkpt lat="38.46701700673012" lon="16.374264335173255"><ele>1042.0</ele><time>2026-05-03T08:24:38.934Z</time></trkpt><trkpt lat="38.466931366726286" lon="16.374257740581683"><ele>1041.0</ele><time>2026-05-03T08:24:42.934Z</time></trkpt><trkpt lat="38.46684712146518" lon="16.37422337480357"><ele>1040.0</ele><time>2026-05-03T08:24:46.934Z</time></trkpt><trkpt lat="38.466759366991894" lon="16.374192675764196"><ele>1039.0</ele><time>2026-05-03T08:24:49.934Z</time></trkpt><trkpt lat="38.46667729818183" lon="16.37419003426828"><ele>1038.0</ele><time>2026-05-03T08:24:52.934Z</time></trkpt><trkpt lat="38.46660001779126" lon="16.374151446165865"><ele>1037.0</ele><time>2026-05-03T08:24:55.934Z</time></trkpt><trkpt lat="38.46654960167674" lon="16.374098721205627"><ele>1037.0</ele><time>2026-05-03T08:24:59.934Z</time></trkpt><trkpt lat="38.46654268862834" lon="16.374014823186624"><ele>1037.0</ele><time>2026-05-03T08:25:33.933Z</time></trkpt><trkpt lat="38.466475156257964" lon="16.374013034229794"><ele>1037.0</ele><time>2026-05-03T08:25:38.933Z</time></trkpt><trkpt lat="38.4664066052232" lon="16.374028002099884"><ele>1037.0</ele><time>2026-05-03T08:25:45.933Z</time></trkpt><trkpt lat="38.466339388888095" lon="16.373983165286173"><ele>1037.0</ele><time>2026-05-03T08:26:17.933Z</time></trkpt><trkpt lat="38.466405806272824" lon="16.37404721983608"><ele>1037.0</ele><time>2026-05-03T08:30:27Z</time></trkpt><trkpt lat="38.46634579189621" lon="16.374009286032962"><ele>1037.0</ele><time>2026-05-03T08:32:05Z</time></trkpt><trkpt lat="38.46628577603706" lon="16.373956480045717"><ele>1035.2857142857142</ele><time>2026-05-03T08:32:57Z</time></trkpt><trkpt lat="38.46623438516304" lon="16.373908220713318"><ele>1033.5714285714284</ele><time>2026-05-03T08:34:38Z</time></trkpt><trkpt lat="38.466197998157384" lon="16.37384174773934"><ele>1031.8571428571427</ele><time>2026-05-03T08:34:47Z</time></trkpt><trkpt lat="38.466115839208726" lon="16.37379469557294"><ele>1030.142857142857</ele><time>2026-05-03T08:35:37Z</time></trkpt><trkpt lat="38.466051091845245" lon="16.373755238902014"><ele>1028.4285714285713</ele><time>2026-05-03T08:36:31Z</time></trkpt><trkpt lat="38.46599312972234" lon="16.37369540120087"><ele>1026.7142857142856</ele><time>2026-05-03T08:36:43Z</time></trkpt><trkpt lat="38.465951609566275" lon="16.373634586260277"><ele>1025.0</ele><time>2026-05-03T08:36:53Z</time></trkpt><trkpt lat="38.46589722316579" lon="16.373580119738072"><ele>1024.7142857142856</ele><time>2026-05-03T08:37:00Z</time></trkpt><trkpt lat="38.465889229938945" lon="16.373499207823908"><ele>1024.4285714285713</ele><time>2026-05-03T08:37:07Z</time></trkpt><trkpt lat="38.46585392669856" lon="16.373421332601403"><ele>1024.142857142857</ele><time>2026-05-03T08:37:16Z</time></trkpt><trkpt lat="38.46579154930836" lon="16.373392644352947"><ele>1023.8571428571428</ele><time>2026-05-03T08:37:26Z</time></trkpt><trkpt lat="38.46572015524983" lon="16.37339385523297"><ele>1023.5714285714284</ele><time>2026-05-03T08:37:33Z</time></trkpt><trkpt lat="38.46565513357581" lon="16.373385759522563"><ele>1023.2857142857143</ele><time>2026-05-03T08:37:39Z</time></trkpt><trkpt lat="38.4655936505105" lon="16.37334624913394"><ele>1023.0</ele><time>2026-05-03T08:37:48Z</time></trkpt><trkpt lat="38.465524649096125" lon="16.373327515161236"><ele>1023.0</ele><time>2026-05-03T08:37:58Z</time></trkpt><trkpt lat="38.46545456621938" lon="16.373299388254306"><ele>1023.0</ele><time>2026-05-03T08:38:10Z</time></trkpt><trkpt lat="38.46539004015509" lon="16.373307787193884"><ele>1023.0</ele><time>2026-05-03T08:38:18Z</time></trkpt><trkpt lat="38.4653259613971" lon="16.37331623479149"><ele>1023.0</ele><time>2026-05-03T08:38:46Z</time></trkpt><trkpt lat="38.465259206594816" lon="16.373306765239576"><ele>1023.0</ele><time>2026-05-03T08:38:52Z</time></trkpt><trkpt lat="38.465196181436355" lon="16.37332487893122"><ele>1023.0</ele><time>2026-05-03T08:38:58Z</time></trkpt><trkpt lat="38.465129985563806" lon="16.37330362266195"><ele>1023.0</ele><time>2026-05-03T08:39:05Z</time></trkpt><trkpt lat="38.46506168057273" lon="16.37327492201826"><ele>1021.0</ele><time>2026-05-03T08:39:15Z</time></trkpt><trkpt lat="38.4650270614656" lon="16.37334638482127"><ele>1019.0</ele><time>2026-05-03T08:39:27Z</time></trkpt><trkpt lat="38.46497554802974" lon="16.373403718178558"><ele>1017.0</ele><time>2026-05-03T08:39:48Z</time></trkpt><trkpt lat="38.46490445502901" lon="16.373449600134226"><ele>1015.0</ele><time>2026-05-03T08:40:23Z</time></trkpt><trkpt lat="38.464981743770835" lon="16.37344208339682"><ele>1013.0</ele><time>2026-05-03T08:45:11Z</time></trkpt><trkpt lat="38.46492364895766" lon="16.37349528040718"><ele>1011.0</ele><time>2026-05-03T08:47:17Z</time></trkpt><trkpt lat="38.46494423200621" lon="16.37359891112125"><ele>1009.0</ele><time>2026-05-03T08:49:13Z</time></trkpt><trkpt lat="38.46495083930419" lon="16.373680291193747"><ele>1009.0</ele><time>2026-05-03T08:49:34Z</time></trkpt><trkpt lat="38.465013942900356" lon="16.3737338984175"><ele>1009.0</ele><time>2026-05-03T08:50:02Z</time></trkpt><trkpt lat="38.465064031310106" lon="16.373783308685724"><ele>1009.0</ele><time>2026-05-03T08:50:52Z</time></trkpt><trkpt lat="38.46514825408435" lon="16.373832626514535"><ele>1009.0</ele><time>2026-05-03T08:51:32Z</time></trkpt><trkpt lat="38.46521685490933" lon="16.373836697309255"><ele>1009.0</ele><time>2026-05-03T08:52:33Z</time></trkpt><trkpt lat="38.46528468415463" lon="16.373840032591332"><ele>1009.0</ele><time>2026-05-03T08:54:08Z</time></trkpt><trkpt lat="38.46534981051916" lon="16.37381311986835"><ele>1009.0</ele><time>2026-05-03T08:57:03Z</time></trkpt><trkpt lat="38.465375092968166" lon="16.373723721543783"><ele>1008.9999999999999</ele><time>2026-05-03T08:58:34Z</time></trkpt><trkpt lat="38.46534852441486" lon="16.37363497164598"><ele>1009.0</ele><time>2026-05-03T09:00:42Z</time></trkpt><trkpt lat="38.46537141887904" lon="16.373504650322598"><ele>1009.0</ele><time>2026-05-03T09:04:05Z</time></trkpt><trkpt lat="38.465383450248936" lon="16.373373230458334"><ele>1009.0</ele><time>2026-05-03T09:05:55Z</time></trkpt><trkpt lat="38.46545361972011" lon="16.37335048626237"><ele>1008.9999999999999</ele><time>2026-05-03T09:07:47Z</time></trkpt><trkpt lat="38.46551386382433" lon="16.37338596293559"><ele>1009.0</ele><time>2026-05-03T09:08:08Z</time></trkpt><trkpt lat="38.46561608423759" lon="16.373427414224842"><ele>1011.3333333333333</ele><time>2026-05-03T09:08:38Z</time></trkpt><trkpt lat="38.46569537844568" lon="16.373443914902413"><ele>1013.6666666666666</ele><time>2026-05-03T09:09:36Z</time></trkpt><trkpt lat="38.465757613795375" lon="16.37346952224874"><ele>1016.0</ele><time>2026-05-03T09:10:36Z</time></trkpt><trkpt lat="38.46581876356407" lon="16.373411480667237"><ele>1018.3333333333333</ele><time>2026-05-03T09:10:57Z</time></trkpt><trkpt lat="38.465822670090354" lon="16.3735021822646"><ele>1020.6666666666666</ele><time>2026-05-03T09:12:32Z</time></trkpt><trkpt lat="38.46584744983329" lon="16.37340846583417"><ele>1023.0</ele><time>2026-05-03T09:13:13Z</time></trkpt><trkpt lat="38.46582518262467" lon="16.37353940893991"><ele>1023.0</ele><time>2026-05-03T09:15:46Z</time></trkpt><trkpt lat="38.46584408598759" lon="16.37344977281864"><ele>1023.0</ele><time>2026-05-03T09:16:10Z</time></trkpt><trkpt lat="38.46588661989785" lon="16.373359928119488"><ele>1023.0</ele><time>2026-05-03T09:17:23Z</time></trkpt><trkpt lat="38.465917790698896" lon="16.373289843113948"><ele>1023.0</ele><time>2026-05-03T09:17:32Z</time></trkpt><trkpt lat="38.46595882396102" lon="16.37317420265059"><ele>1023.0</ele><time>2026-05-03T09:18:04Z</time></trkpt><trkpt lat="38.46599248996413" lon="16.373093365272716"><ele>1023.0</ele><time>2026-05-03T09:18:20Z</time></trkpt><trkpt lat="38.46600930984747" lon="16.37301557808101"><ele>1020.7142857142858</ele><time>2026-05-03T09:18:34Z</time></trkpt><trkpt lat="38.46599145620141" lon="16.372932106123933"><ele>1018.4285714285713</ele><time>2026-05-03T09:18:44Z</time></trkpt><trkpt lat="38.466024009268715" lon="16.37285746478443"><ele>1016.1428571428571</ele><time>2026-05-03T09:18:52Z</time></trkpt><trkpt lat="38.466074640657006" lon="16.372804936451583"><ele>1013.8571428571429</ele><time>2026-05-03T09:19:00Z</time></trkpt><trkpt lat="38.46613225908256" lon="16.37274651169123"><ele>1011.5714285714287</ele><time>2026-05-03T09:19:19Z</time></trkpt><trkpt lat="38.466095493499495" lon="16.372669677039376"><ele>1009.2857142857142</ele><time>2026-05-03T09:35:38Z</time></trkpt><trkpt lat="38.46611728859252" lon="16.372745177173595"><ele>1007.0</ele><time>2026-05-03T09:36:29Z</time></trkpt><trkpt lat="38.46617804482469" lon="16.372775947877436"><ele>1007.0</ele><time>2026-05-03T09:37:32Z</time></trkpt><trkpt lat="38.466214387501026" lon="16.372842669386515"><ele>1007.0</ele><time>2026-05-03T09:38:16Z</time></trkpt><trkpt lat="38.466286341224176" lon="16.372884420685676"><ele>1007.0</ele><time>2026-05-03T09:38:36Z</time></trkpt><trkpt lat="38.46634483546071" lon="16.372950962321497"><ele>1007.0</ele><time>2026-05-03T09:39:16Z</time></trkpt><trkpt lat="38.46641224051498" lon="16.3729262321547"><ele>1007.0</ele><time>2026-05-03T09:41:47Z</time></trkpt><trkpt lat="38.46646809508405" lon="16.372888579084925"><ele>1007.0</ele><time>2026-05-03T09:42:04Z</time></trkpt><trkpt lat="38.46654110981544" lon="16.372893342903282"><ele>1007.0</ele><time>2026-05-03T09:42:20Z</time></trkpt><trkpt lat="38.46660388338291" lon="16.372884339686408"><ele>1008.1428571428571</ele><time>2026-05-03T09:42:47Z</time></trkpt><trkpt lat="38.46668529726638" lon="16.372903407816448"><ele>1009.2857142857143</ele><time>2026-05-03T09:43:09Z</time></trkpt><trkpt lat="38.46675563331626" lon="16.37291747419195"><ele>1010.4285714285714</ele><time>2026-05-03T09:44:32Z</time></trkpt><trkpt lat="38.466753566709734" lon="16.37283434307994"><ele>1011.5714285714286</ele><time>2026-05-03T09:46:18Z</time></trkpt><trkpt lat="38.46673687774276" lon="16.37273030776435"><ele>1012.7142857142858</ele><time>2026-05-03T09:47:05.999Z</time></trkpt><trkpt lat="38.466747713622404" lon="16.372650954153055"><ele>1013.8571428571429</ele><time>2026-05-03T09:47:35.999Z</time></trkpt><trkpt lat="38.46677207248048" lon="16.372575925668894"><ele>1015.0</ele><time>2026-05-03T09:47:45.999Z</time></trkpt><trkpt lat="38.46679016054204" lon="16.37248969385574"><ele>1014.9999999999999</ele><time>2026-05-03T09:47:55.999Z</time></trkpt><trkpt lat="38.46678224174543" lon="16.37240775797653"><ele>1015.0</ele><time>2026-05-03T09:48:12.999Z</time></trkpt><trkpt lat="38.46680050513687" lon="16.37232445076194"><ele>1015.0</ele><time>2026-05-03T09:48:29.999Z</time></trkpt><trkpt lat="38.46680705575297" lon="16.372232487872957"><ele>1015.0</ele><time>2026-05-03T09:48:58.999Z</time></trkpt><trkpt lat="38.46684705282014" lon="16.372132519551847"><ele>1014.9999999999999</ele><time>2026-05-03T09:49:40Z</time></trkpt><trkpt lat="38.46686976844626" lon="16.37202009042786"><ele>1015.0</ele><time>2026-05-03T09:50:30.001Z</time></trkpt><trkpt lat="38.46694149397504" lon="16.371992215781727"><ele>1014.0</ele><time>2026-05-03T09:52:35.001Z</time></trkpt><trkpt lat="38.467007708423104" lon="16.372004044681162"><ele>1013.0</ele><time>2026-05-03T09:52:51.001Z</time></trkpt><trkpt lat="38.46708186391364" lon="16.371980979094754"><ele>1012.0</ele><time>2026-05-03T09:53:06.001Z</time></trkpt><trkpt lat="38.467035921646776" lon="16.37191356940004"><ele>1011.0</ele><time>2026-05-03T09:53:28.001Z</time></trkpt><trkpt lat="38.46698127038556" lon="16.371851270371614"><ele>1010.0</ele><time>2026-05-03T09:53:52.001Z</time></trkpt><trkpt lat="38.467018281997746" lon="16.37192704501953"><ele>1009.0</ele><time>2026-05-03T09:54:23.001Z</time></trkpt><trkpt lat="38.467097979205846" lon="16.37196152004252"><ele>1008.0</ele><time>2026-05-03T09:54:33.001Z</time></trkpt><trkpt lat="38.467162873325975" lon="16.371960942339037"><ele>1008.0</ele><time>2026-05-03T09:54:54.001Z</time></trkpt><trkpt lat="38.467225955093014" lon="16.371940894671162"><ele>1008.0</ele><time>2026-05-03T09:55:34.001Z</time></trkpt><trkpt lat="38.46726623233339" lon="16.371870560302"><ele>1008.0</ele><time>2026-05-03T09:55:46.001Z</time></trkpt><trkpt lat="38.467256909004526" lon="16.37178383937152"><ele>1008.0</ele><time>2026-05-03T09:55:59.001Z</time></trkpt><trkpt lat="38.46727086749039" lon="16.37169581779183"><ele>1008.0</ele><time>2026-05-03T09:56:11.001Z</time></trkpt><trkpt lat="38.4672933593404" lon="16.371612712990085"><ele>1008.0</ele><time>2026-05-03T09:56:18.001Z</time></trkpt><trkpt lat="38.467314407400295" lon="16.371533626691544"><ele>1008.0</ele><time>2026-05-03T09:56:26.001Z</time></trkpt><trkpt lat="38.467366044283" lon="16.371484483312926"><ele>1008.0</ele><time>2026-05-03T09:56:34.001Z</time></trkpt><trkpt lat="38.4674034214319" lon="16.371416484736486"><ele>1008.0</ele><time>2026-05-03T09:56:46.001Z</time></trkpt><trkpt lat="38.467344055598716" lon="16.37138279865592"><ele>1008.0</ele><time>2026-05-03T09:56:56.001Z</time></trkpt><trkpt lat="38.4672928240192" lon="16.371324022296665"><ele>1008.0</ele><time>2026-05-03T09:57:27.001Z</time></trkpt><trkpt lat="38.46724967911274" lon="16.37123000366289"><ele>1008.0</ele><time>2026-05-03T09:57:54.001Z</time></trkpt><trkpt lat="38.46720910507435" lon="16.371167069136305"><ele>1008.0</ele><time>2026-05-03T09:58:04.001Z</time></trkpt><trkpt lat="38.467171265117436" lon="16.37109107192215"><ele>1008.0</ele><time>2026-05-03T09:58:27Z</time></trkpt><trkpt lat="38.46715841851588" lon="16.371010005992375"><ele>1008.2857142857142</ele><time>2026-05-03T09:58:50.001Z</time></trkpt><trkpt lat="38.467139220998774" lon="16.370928117154556"><ele>1008.5714285714286</ele><time>2026-05-03T09:59:03.001Z</time></trkpt><trkpt lat="38.467110967897355" lon="16.370847011406447"><ele>1008.8571428571429</ele><time>2026-05-03T10:01:01.001Z</time></trkpt><trkpt lat="38.467061361535244" lon="16.370790457084723"><ele>1009.1428571428571</ele><time>2026-05-03T10:01:36.001Z</time></trkpt><trkpt lat="38.467051352686255" lon="16.370708382852097"><ele>1009.4285714285713</ele><time>2026-05-03T10:02:39.001Z</time></trkpt><trkpt lat="38.46704299153392" lon="16.37061913717442"><ele>1009.7142857142857</ele><time>2026-05-03T10:02:48.001Z</time></trkpt><trkpt lat="38.467023984807334" lon="16.37053880271616"><ele>1010.0</ele><time>2026-05-03T10:03:30.001Z</time></trkpt><trkpt lat="38.46703971375891" lon="16.37045186267733"><ele>1010.7142857142857</ele><time>2026-05-03T10:03:50.001Z</time></trkpt><trkpt lat="38.46706998793956" lon="16.37036920603366"><ele>1011.4285714285713</ele><time>2026-05-03T10:03:58.001Z</time></trkpt><trkpt lat="38.467095212804665" lon="16.370288416659836"><ele>1012.1428571428571</ele><time>2026-05-03T10:04:26.001Z</time></trkpt><trkpt lat="38.467116503778804" lon="16.37021214167064"><ele>1012.8571428571429</ele><time>2026-05-03T10:04:41.001Z</time></trkpt><trkpt lat="38.46710923480156" lon="16.370131734730847"><ele>1013.5714285714286</ele><time>2026-05-03T10:04:51.001Z</time></trkpt><trkpt lat="38.467064435213004" lon="16.370061030643182"><ele>1014.2857142857142</ele><time>2026-05-03T10:05:21.001Z</time></trkpt><trkpt lat="38.46707283208885" lon="16.36997506021473"><ele>1015.0</ele><time>2026-05-03T10:05:37.001Z</time></trkpt><trkpt lat="38.467058079469176" lon="16.369896212438128"><ele>1014.1666666666666</ele><time>2026-05-03T10:05:46.001Z</time></trkpt><trkpt lat="38.467027061322" lon="16.3697999386658"><ele>1013.3333333333333</ele><time>2026-05-03T10:05:58.001Z</time></trkpt><trkpt lat="38.467018018630796" lon="16.36971152959575"><ele>1012.5</ele><time>2026-05-03T10:06:05.001Z</time></trkpt><trkpt lat="38.466974086632085" lon="16.369613091375093"><ele>1011.6666666666667</ele><time>2026-05-03T10:06:52Z</time></trkpt><trkpt lat="38.4669870576696" lon="16.369532758003444"><ele>1010.8333333333334</ele><time>2026-05-03T10:07:21Z</time></trkpt><trkpt lat="38.46696211103683" lon="16.369443244009048"><ele>1010.0</ele><time>2026-05-03T10:07:26Z</time></trkpt><trkpt lat="38.466928141243535" lon="16.369363118479356"><ele>1010.0</ele><time>2026-05-03T10:07:35Z</time></trkpt><trkpt lat="38.46690960437817" lon="16.36927862051596"><ele>1009.9999999999999</ele><time>2026-05-03T10:07:44Z</time></trkpt><trkpt lat="38.46689217603231" lon="16.369201316459137"><ele>1010.0</ele><time>2026-05-03T10:07:52Z</time></trkpt><trkpt lat="38.46684150769278" lon="16.369107931887218"><ele>1010.0</ele><time>2026-05-03T10:08:14Z</time></trkpt><trkpt lat="38.46681979784457" lon="16.369027568167493"><ele>1009.9999999999999</ele><time>2026-05-03T10:08:22Z</time></trkpt><trkpt lat="38.46678812213303" lon="16.36895419745293"><ele>1010.0</ele><time>2026-05-03T10:08:30Z</time></trkpt><trkpt lat="38.466792094809094" lon="16.368858551865767"><ele>1010.0</ele><time>2026-05-03T10:08:39Z</time></trkpt><trkpt lat="38.46680023848996" lon="16.368774568668183"><ele>1008.1428571428571</ele><time>2026-05-03T10:08:50Z</time></trkpt><trkpt lat="38.466800235560314" lon="16.368691475345848"><ele>1006.2857142857142</ele><time>2026-05-03T10:08:59Z</time></trkpt><trkpt lat="38.466823531632166" lon="16.368614344750515"><ele>1004.4285714285713</ele><time>2026-05-03T10:09:07Z</time></trkpt><trkpt lat="38.46678963990573" lon="16.368682595459383"><ele>1002.5714285714284</ele><time>2026-05-03T10:09:48Z</time></trkpt><trkpt lat="38.46679798900249" lon="16.36859857627465"><ele>1000.7142857142857</ele><time>2026-05-03T10:10:10Z</time></trkpt><trkpt lat="38.46683013482369" lon="16.368522474213037"><ele>998.8571428571427</ele><time>2026-05-03T10:10:17Z</time></trkpt><trkpt lat="38.466876605858054" lon="16.368448245267626"><ele>996.9999999999999</ele><time>2026-05-03T10:10:30Z</time></trkpt><trkpt lat="38.466912101161064" lon="16.368370645817414"><ele>996.9999999999999</ele><time>2026-05-03T10:10:39Z</time></trkpt><trkpt lat="38.46690601991033" lon="16.368286012751916"><ele>997.0</ele><time>2026-05-03T10:11:11Z</time></trkpt><trkpt lat="38.46690292087409" lon="16.368196355767523"><ele>996.9999999999999</ele><time>2026-05-03T10:11:20Z</time></trkpt><trkpt lat="38.46687144038412" lon="16.368109876396243"><ele>996.9999999999999</ele><time>2026-05-03T10:12:08Z</time></trkpt><trkpt lat="38.466830242782585" lon="16.368039649720707"><ele>997.0</ele><time>2026-05-03T10:12:19Z</time></trkpt><trkpt lat="38.46679600523287" lon="16.367971314870662"><ele>996.9999999999999</ele><time>2026-05-03T10:13:26Z</time></trkpt><trkpt lat="38.46674328703612" lon="16.367924176534828"><ele>996.9999999999999</ele><time>2026-05-03T10:13:34Z</time></trkpt><trkpt lat="38.46670104018845" lon="16.367859416055474"><ele>993.5714285714284</ele><time>2026-05-03T10:13:41Z</time></trkpt><trkpt lat="38.46663435458276" lon="16.367807088168817"><ele>990.1428571428571</ele><time>2026-05-03T10:14:42Z</time></trkpt><trkpt lat="38.466583569811384" lon="16.367748309801687"><ele>986.7142857142857</ele><time>2026-05-03T10:15:08Z</time></trkpt><trkpt lat="38.466556287822" lon="16.36766787965269"><ele>983.2857142857142</ele><time>2026-05-03T10:15:17Z</time></trkpt><trkpt lat="38.46653263951624" lon="16.367568743092733"><ele>979.8571428571429</ele><time>2026-05-03T10:17:53Z</time></trkpt><trkpt lat="38.46658982363869" lon="16.367494179613278"><ele>976.4285714285714</ele><time>2026-05-03T10:19:18Z</time></trkpt><trkpt lat="38.46657802824956" lon="16.367411867588878"><ele>973.0</ele><time>2026-05-03T10:20:33Z</time></trkpt><trkpt lat="38.46662885972279" lon="16.3673222982242"><ele>973.0</ele><time>2026-05-03T10:21:38Z</time></trkpt><trkpt lat="38.46669388389926" lon="16.367307502057685"><ele>973.0</ele><time>2026-05-03T10:23:33Z</time></trkpt><trkpt lat="38.46674741585178" lon="16.367384128639927"><ele>973.0</ele><time>2026-05-03T10:25:21Z</time></trkpt><trkpt lat="38.46681832646217" lon="16.367411197327414"><ele>973.0</ele><time>2026-05-03T10:25:36.001Z</time></trkpt><trkpt lat="38.4668937979281" lon="16.36740887856983"><ele>973.0</ele><time>2026-05-03T10:26:05.001Z</time></trkpt><trkpt lat="38.46696195425243" lon="16.367401270943134"><ele>973.0</ele><time>2026-05-03T10:26:32.001Z</time></trkpt><trkpt lat="38.46702730716126" lon="16.367426487551825"><ele>973.0</ele><time>2026-05-03T10:26:45.001Z</time></trkpt><trkpt lat="38.467082793639904" lon="16.36736891163676"><ele>972.6666666666666</ele><time>2026-05-03T10:26:59.001Z</time></trkpt><trkpt lat="38.467121687362024" lon="16.367295601392396"><ele>972.3333333333333</ele><time>2026-05-03T10:27:15.001Z</time></trkpt><trkpt lat="38.46718834043667" lon="16.36726221086521"><ele>972.0</ele><time>2026-05-03T10:27:27.001Z</time></trkpt><trkpt lat="38.46720593750704" lon="16.367179052449455"><ele>971.6666666666667</ele><time>2026-05-03T10:28:40Z</time></trkpt><trkpt lat="38.467218273176414" lon="16.36705054981785"><ele>971.3333333333334</ele><time>2026-05-03T10:29:15Z</time></trkpt><trkpt lat="38.46728198417306" lon="16.36702762746097"><ele>971.0</ele><time>2026-05-03T10:29:43Z</time></trkpt><trkpt lat="38.467339812074606" lon="16.366960850076545"><ele>971.0</ele><time>2026-05-03T10:29:56.999Z</time></trkpt><trkpt lat="38.46742172235512" lon="16.366976234737567"><ele>971.0000000000001</ele><time>2026-05-03T10:30:21Z</time></trkpt><trkpt lat="38.467477771569634" lon="16.366930412811612"><ele>971.0</ele><time>2026-05-03T10:30:35Z</time></trkpt><trkpt lat="38.46752345474702" lon="16.366867297916134"><ele>971.0</ele><time>2026-05-03T10:30:44Z</time></trkpt><trkpt lat="38.46759112858866" lon="16.366850142700535"><ele>971.0000000000001</ele><time>2026-05-03T10:31:05Z</time></trkpt><trkpt lat="38.46764918595864" lon="16.366797075760992"><ele>971.0</ele><time>2026-05-03T10:31:13Z</time></trkpt><trkpt lat="38.467708516138615" lon="16.36676946077292"><ele>971.0</ele><time>2026-05-03T10:31:21Z</time></trkpt><trkpt lat="38.46776461114151" lon="16.366722709147087"><ele>971.0</ele><time>2026-05-03T10:31:35Z</time></trkpt><trkpt lat="38.46782816731178" lon="16.366734288138154"><ele>971.0000000000001</ele><time>2026-05-03T10:32:07Z</time></trkpt><trkpt lat="38.46784547416507" lon="16.366609149960713"><ele>971.0</ele><time>2026-05-03T10:32:21Z</time></trkpt><trkpt lat="38.46784310745667" lon="16.366527439750204"><ele>971.0</ele><time>2026-05-03T10:32:37Z</time></trkpt><trkpt lat="38.467779151479384" lon="16.366536037384474"><ele>971.0000000000001</ele><time>2026-05-03T10:32:52Z</time></trkpt><trkpt lat="38.46770771549939" lon="16.366559004572036"><ele>971.0</ele><time>2026-05-03T10:33:09Z</time></trkpt><trkpt lat="38.467652186978846" lon="16.366613867171957"><ele>971.0</ele><time>2026-05-03T10:33:21Z</time></trkpt><trkpt lat="38.46772310797151" lon="16.366604379568148"><ele>971.0</ele><time>2026-05-03T10:34:10.999Z</time></trkpt><trkpt lat="38.467785414492774" lon="16.366635155548067"><ele>971.0000000000001</ele><time>2026-05-03T10:34:30.999Z</time></trkpt><trkpt lat="38.46785767920561" lon="16.36664108804617"><ele>971.0</ele><time>2026-05-03T10:34:40.999Z</time></trkpt><trkpt lat="38.467916161904405" lon="16.366607539689937"><ele>971.0</ele><time>2026-05-03T10:34:50.999Z</time></trkpt><trkpt lat="38.46797375726826" lon="16.36656884586642"><ele>971.0000000000001</ele><time>2026-05-03T10:34:59.999Z</time></trkpt><trkpt lat="38.46804199478004" lon="16.366566491167795"><ele>971.0</ele><time>2026-05-03T10:35:14.999Z</time></trkpt><trkpt lat="38.468096676698195" lon="16.366518491973668"><ele>971.0</ele><time>2026-05-03T10:35:22.999Z</time></trkpt><trkpt lat="38.46816373674291" lon="16.36649519508926"><ele>971.7142857142858</ele><time>2026-05-03T10:35:56.999Z</time></trkpt><trkpt lat="38.468230772821876" lon="16.366485950921064"><ele>972.4285714285716</ele><time>2026-05-03T10:36:04Z</time></trkpt><trkpt lat="38.46830102355464" lon="16.366489872829533"><ele>973.1428571428571</ele><time>2026-05-03T10:36:12.999Z</time></trkpt><trkpt lat="38.46837194062692" lon="16.366498874287366"><ele>973.8571428571429</ele><time>2026-05-03T10:36:22.999Z</time></trkpt><trkpt lat="38.468421013449245" lon="16.366553196479224"><ele>974.5714285714286</ele><time>2026-05-03T10:36:33.999Z</time></trkpt><trkpt lat="38.46848880827792" lon="16.366561647411395"><ele>975.2857142857142</ele><time>2026-05-03T10:36:49.999Z</time></trkpt><trkpt lat="38.46855167290957" lon="16.366575034373916"><ele>975.9999999999999</ele><time>2026-05-03T10:37:02.999Z</time></trkpt><trkpt lat="38.46861860502272" lon="16.366618984789582"><ele>975.9999999999999</ele><time>2026-05-03T10:37:14.999Z</time></trkpt><trkpt lat="38.46865077441967" lon="16.366695352851774"><ele>976.0</ele><time>2026-05-03T10:37:23.999Z</time></trkpt><trkpt lat="38.468708879642335" lon="16.366740802941806"><ele>975.9999999999999</ele><time>2026-05-03T10:37:34.999Z</time></trkpt><trkpt lat="38.468766884331316" lon="16.366781676752613"><ele>975.9999999999999</ele><time>2026-05-03T10:37:45.999Z</time></trkpt><trkpt lat="38.468793449910244" lon="16.366857271645983"><ele>976.0</ele><time>2026-05-03T10:37:55.999Z</time></trkpt><trkpt lat="38.46875994275414" lon="16.366754588390386"><ele>975.9999999999999</ele><time>2026-05-03T10:39:42.999Z</time></trkpt><trkpt lat="38.468734281492075" lon="16.366675295155268"><ele>975.9999999999999</ele><time>2026-05-03T10:39:56.999Z</time></trkpt><trkpt lat="38.46867630133965" lon="16.366633288804785"><ele>975.9999999999999</ele><time>2026-05-03T10:40:07.999Z</time></trkpt><trkpt lat="38.4686264183164" lon="16.366565957052266"><ele>976.0</ele><time>2026-05-03T10:40:30.999Z</time></trkpt><trkpt lat="38.468567784318004" lon="16.366525700317755"><ele>975.9999999999999</ele><time>2026-05-03T10:40:40.999Z</time></trkpt><trkpt lat="38.46848338714653" lon="16.366463546229053"><ele>975.9999999999999</ele><time>2026-05-03T10:40:57.999Z</time></trkpt><trkpt lat="38.46841271508051" lon="16.366460034376512"><ele>976.0</ele><time>2026-05-03T10:41:09.999Z</time></trkpt><trkpt lat="38.468354850048215" lon="16.3664192519094"><ele>975.9999999999999</ele><time>2026-05-03T10:41:18.999Z</time></trkpt><trkpt lat="38.46829250644951" lon="16.36639513350441"><ele>975.9999999999999</ele><time>2026-05-03T10:41:29.999Z</time></trkpt><trkpt lat="38.4682262087806" lon="16.366396934951975"><ele>975.9999999999999</ele><time>2026-05-03T10:41:38.999Z</time></trkpt><trkpt lat="38.46816092596899" lon="16.366428957065345"><ele>976.0</ele><time>2026-05-03T10:41:48.999Z</time></trkpt><trkpt lat="38.4681023319083" lon="16.366465059457088"><ele>975.9999999999999</ele><time>2026-05-03T10:42:04.999Z</time></trkpt><trkpt lat="38.46803908784881" lon="16.366452805592385"><ele>975.9999999999999</ele><time>2026-05-03T10:42:20.999Z</time></trkpt><trkpt lat="38.46799024899007" lon="16.366509755407964"><ele>976.0</ele><time>2026-05-03T10:42:39Z</time></trkpt><trkpt lat="38.467947474814835" lon="16.366575256461388"><ele>975.9999999999999</ele><time>2026-05-03T10:43:14Z</time></trkpt><trkpt lat="38.4678871427438" lon="16.36662335798792"><ele>975.9999999999999</ele><time>2026-05-03T10:43:20Z</time></trkpt><trkpt lat="38.46781964154709" lon="16.366644106558407"><ele>975.2857142857142</ele><time>2026-05-03T10:43:25Z</time></trkpt><trkpt lat="38.46774831560435" lon="16.36661722876437"><ele>974.5714285714286</ele><time>2026-05-03T10:43:32Z</time></trkpt><trkpt lat="38.467686020748495" lon="16.36664277816852"><ele>973.8571428571429</ele><time>2026-05-03T10:43:54Z</time></trkpt><trkpt lat="38.46761931685072" lon="16.3666670637375"><ele>973.1428571428571</ele><time>2026-05-03T10:44:05Z</time></trkpt><trkpt lat="38.46756549470519" lon="16.366709872971043"><ele>972.4285714285716</ele><time>2026-05-03T10:44:20.001Z</time></trkpt><trkpt lat="38.46750685600222" lon="16.36674446237587"><ele>971.7142857142858</ele><time>2026-05-03T10:44:29Z</time></trkpt><trkpt lat="38.46748171438075" lon="16.3668190601123"><ele>971.0</ele><time>2026-05-03T10:44:46Z</time></trkpt><trkpt lat="38.46743448886129" lon="16.36689477491005"><ele>971.0</ele><time>2026-05-03T10:45:18Z</time></trkpt><trkpt lat="38.467368249327656" lon="16.366912247492547"><ele>971.0000000000001</ele><time>2026-05-03T10:45:27Z</time></trkpt><trkpt lat="38.4673154239563" lon="16.366962425170446"><ele>971.0</ele><time>2026-05-03T10:45:40Z</time></trkpt><trkpt lat="38.46725533846504" lon="16.367016547150666"><ele>971.0</ele><time>2026-05-03T10:45:49Z</time></trkpt><trkpt lat="38.46720684175326" lon="16.367075945246537"><ele>971.0000000000001</ele><time>2026-05-03T10:46:06.001Z</time></trkpt><trkpt lat="38.46713806260681" lon="16.367105803373672"><ele>971.0</ele><time>2026-05-03T10:46:15.001Z</time></trkpt><trkpt lat="38.46708397008103" lon="16.3671577534156"><ele>971.0</ele><time>2026-05-03T10:46:22.001Z</time></trkpt><trkpt lat="38.46702271691566" lon="16.367206397725525"><ele>971.3333333333334</ele><time>2026-05-03T10:46:31.001Z</time></trkpt><trkpt lat="38.46700022952683" lon="16.36729556899485"><ele>971.6666666666667</ele><time>2026-05-03T10:46:40Z</time></trkpt><trkpt lat="38.46693834096033" lon="16.367321534038513"><ele>972.0</ele><time>2026-05-03T10:46:54Z</time></trkpt><trkpt lat="38.46686555295377" lon="16.36729420139815"><ele>972.3333333333333</ele><time>2026-05-03T10:47:09Z</time></trkpt><trkpt lat="38.466798204945086" lon="16.367302854510502"><ele>972.6666666666666</ele><time>2026-05-03T10:47:21Z</time></trkpt><trkpt lat="38.466731993135944" lon="16.367285041317903"><ele>973.0</ele><time>2026-05-03T10:47:35Z</time></trkpt><trkpt lat="38.46663148913352" lon="16.367202443573635"><ele>971.1428571428571</ele><time>2026-05-03T10:48:40.999Z</time></trkpt><trkpt lat="38.46664049810648" lon="16.367112465056756"><ele>969.2857142857142</ele><time>2026-05-03T10:48:52.999Z</time></trkpt><trkpt lat="38.466595529215844" lon="16.367049111129397"><ele>967.4285714285714</ele><time>2026-05-03T10:49:05Z</time></trkpt><trkpt lat="38.466566835999885" lon="16.366975825436466"><ele>965.5714285714286</ele><time>2026-05-03T10:49:48Z</time></trkpt><trkpt lat="38.46651771313182" lon="16.36691526726623"><ele>963.7142857142857</ele><time>2026-05-03T10:50:01Z</time></trkpt><trkpt lat="38.4664718560195" lon="16.36685007921162"><ele>961.8571428571429</ele><time>2026-05-03T10:50:10Z</time></trkpt><trkpt lat="38.466395097134416" lon="16.366830815209305"><ele>960.0</ele><time>2026-05-03T10:50:42Z</time></trkpt><trkpt lat="38.46634974127177" lon="16.366768615760716"><ele>960.0</ele><time>2026-05-03T10:50:49.999Z</time></trkpt><trkpt lat="38.466300483575644" lon="16.36671535795575"><ele>960.0</ele><time>2026-05-03T10:51:00.999Z</time></trkpt><trkpt lat="38.46623565420774" lon="16.366702946746646"><ele>960.0</ele><time>2026-05-03T10:51:09Z</time></trkpt><trkpt lat="38.46616791992651" lon="16.366692327402266"><ele>960.0</ele><time>2026-05-03T10:51:24Z</time></trkpt><trkpt lat="38.46609791305773" lon="16.36666452841557"><ele>960.0</ele><time>2026-05-03T10:51:43Z</time></trkpt><trkpt lat="38.466031627470166" lon="16.36668259279793"><ele>960.0</ele><time>2026-05-03T10:51:49Z</time></trkpt><trkpt lat="38.465966152337984" lon="16.366707007175098"><ele>960.0</ele><time>2026-05-03T10:51:56Z</time></trkpt><trkpt lat="38.46590572998856" lon="16.366729799772376"><ele>959.1428571428571</ele><time>2026-05-03T10:52:04Z</time></trkpt><trkpt lat="38.46585035522632" lon="16.36677393830381"><ele>958.2857142857142</ele><time>2026-05-03T10:52:11Z</time></trkpt><trkpt lat="38.46579050474036" lon="16.366825594268622"><ele>957.4285714285713</ele><time>2026-05-03T10:52:20Z</time></trkpt><trkpt lat="38.46575878306894" lon="16.366900611270378"><ele>956.5714285714286</ele><time>2026-05-03T10:52:29Z</time></trkpt><trkpt lat="38.46577919578031" lon="16.366982769539188"><ele>955.7142857142856</ele><time>2026-05-03T10:52:34Z</time></trkpt><trkpt lat="38.46579352122175" lon="16.36706461687516"><ele>954.8571428571428</ele><time>2026-05-03T10:52:40Z</time></trkpt><trkpt lat="38.46580448486583" lon="16.36715088837657"><ele>954.0</ele><time>2026-05-03T10:52:47Z</time></trkpt><trkpt lat="38.465803954018966" lon="16.367237950264034"><ele>955.7142857142857</ele><time>2026-05-03T10:53:01Z</time></trkpt><trkpt lat="38.465742111346124" lon="16.367256745479526"><ele>957.4285714285713</ele><time>2026-05-03T10:53:25Z</time></trkpt><trkpt lat="38.46567672752067" lon="16.367240535556448"><ele>959.1428571428571</ele><time>2026-05-03T10:53:34Z</time></trkpt><trkpt lat="38.46560283732948" lon="16.36725339791735"><ele>960.8571428571429</ele><time>2026-05-03T10:53:43Z</time></trkpt><trkpt lat="38.465558492759975" lon="16.367312563151657"><ele>962.5714285714286</ele><time>2026-05-03T10:53:52Z</time></trkpt><trkpt lat="38.46555261063297" lon="16.367395850358317"><ele>964.2857142857142</ele><time>2026-05-03T10:54:09Z</time></trkpt><trkpt lat="38.4655476706004" lon="16.367482341031465"><ele>966.0</ele><time>2026-05-03T10:54:20Z</time></trkpt><trkpt lat="38.465573492364726" lon="16.3675570561093"><ele>966.0</ele><time>2026-05-03T10:54:28Z</time></trkpt><trkpt lat="38.465617514968095" lon="16.36763186576867"><ele>966.0</ele><time>2026-05-03T10:54:45Z</time></trkpt><trkpt lat="38.465633273727484" lon="16.36755202176666"><ele>966.0</ele><time>2026-05-03T10:55:52Z</time></trkpt><trkpt lat="38.46559664825163" lon="16.367476772400952"><ele>966.0</ele><time>2026-05-03T10:56:00Z</time></trkpt><trkpt lat="38.465547623437764" lon="16.367424245920507"><ele>966.0</ele><time>2026-05-03T10:56:13Z</time></trkpt><trkpt lat="38.465487371393905" lon="16.36739611224907"><ele>966.0</ele><time>2026-05-03T10:56:58Z</time></trkpt><trkpt lat="38.46543156691952" lon="16.367338608383914"><ele>966.0</ele><time>2026-05-03T10:57:14Z</time></trkpt><trkpt lat="38.465403675560935" lon="16.36743006032261"><ele>965.2857142857142</ele><time>2026-05-03T10:57:53Z</time></trkpt><trkpt lat="38.46536418603271" lon="16.36735850604394"><ele>964.5714285714286</ele><time>2026-05-03T10:58:11Z</time></trkpt><trkpt lat="38.46529653083579" lon="16.367380396942657"><ele>963.8571428571429</ele><time>2026-05-03T10:58:31Z</time></trkpt><trkpt lat="38.46525173846517" lon="16.367438954067914"><ele>963.1428571428571</ele><time>2026-05-03T10:58:52Z</time></trkpt><trkpt lat="38.46519394903455" lon="16.367484444745443"><ele>962.4285714285713</ele><time>2026-05-03T10:59:02Z</time></trkpt><trkpt lat="38.46514146603092" lon="16.367537008535724"><ele>961.7142857142857</ele><time>2026-05-03T10:59:41Z</time></trkpt><trkpt lat="38.46508641313582" lon="16.367579908990447"><ele>961.0</ele><time>2026-05-03T10:59:51Z</time></trkpt><trkpt lat="38.46503312930043" lon="16.36753030799921"><ele>961.0</ele><time>2026-05-03T11:01:41Z</time></trkpt><trkpt lat="38.46498047753388" lon="16.36748204891597"><ele>960.9999999999999</ele><time>2026-05-03T11:01:52Z</time></trkpt><trkpt lat="38.46492294026891" lon="16.367434371229084"><ele>961.0</ele><time>2026-05-03T11:02:02Z</time></trkpt><trkpt lat="38.46485682922479" lon="16.367402402295586"><ele>961.0</ele><time>2026-05-03T11:02:11Z</time></trkpt><trkpt lat="38.4647992881635" lon="16.36736698775909"><ele>960.9999999999999</ele><time>2026-05-03T11:02:20Z</time></trkpt><trkpt lat="38.46473018404949" lon="16.367339288813962"><ele>961.0</ele><time>2026-05-03T11:02:31Z</time></trkpt><trkpt lat="38.46465288334272" lon="16.367313690786958"><ele>961.0</ele><time>2026-05-03T11:02:48Z</time></trkpt><trkpt lat="38.46459388797593" lon="16.367270747444625"><ele>960.0</ele><time>2026-05-03T11:03:02Z</time></trkpt><trkpt lat="38.46451832387475" lon="16.367264182044668"><ele>958.9999999999999</ele><time>2026-05-03T11:03:13Z</time></trkpt><trkpt lat="38.464454046949" lon="16.36728796700843"><ele>958.0</ele><time>2026-05-03T11:03:22Z</time></trkpt><trkpt lat="38.46439705218957" lon="16.367332047737627"><ele>957.0</ele><time>2026-05-03T11:03:32Z</time></trkpt><trkpt lat="38.464334827491435" lon="16.3673599868064"><ele>955.9999999999999</ele><time>2026-05-03T11:03:40Z</time></trkpt><trkpt lat="38.46426809779698" lon="16.367392836745065"><ele>955.0</ele><time>2026-05-03T11:03:49Z</time></trkpt><trkpt lat="38.46420623425591" lon="16.367423141436667"><ele>954.0</ele><time>2026-05-03T11:03:57Z</time></trkpt><trkpt lat="38.46414727079935" lon="16.367454130702576"><ele>954.0</ele><time>2026-05-03T11:04:05Z</time></trkpt><trkpt lat="38.464089093770255" lon="16.36748922916639"><ele>953.9999999999999</ele><time>2026-05-03T11:04:12Z</time></trkpt><trkpt lat="38.46404054265248" lon="16.36755040024087"><ele>954.0</ele><time>2026-05-03T11:04:20Z</time></trkpt><trkpt lat="38.46401265538218" lon="16.367625727674177"><ele>954.0</ele><time>2026-05-03T11:04:28Z</time></trkpt><trkpt lat="38.46401592842822" lon="16.36772220974719"><ele>953.9999999999999</ele><time>2026-05-03T11:04:47Z</time></trkpt><trkpt lat="38.46398001451164" lon="16.367817816070783"><ele>954.0</ele><time>2026-05-03T11:05:24Z</time></trkpt><trkpt lat="38.46392481969633" lon="16.367890811690614"><ele>954.0</ele><time>2026-05-03T11:06:31Z</time></trkpt><trkpt lat="38.463859320805305" lon="16.36789153163834"><ele>954.0</ele><time>2026-05-03T11:06:42Z</time></trkpt><trkpt lat="38.463790420701336" lon="16.367884991657903"><ele>953.9999999999999</ele><time>2026-05-03T11:06:51Z</time></trkpt><trkpt lat="38.4637297929937" lon="16.367927856401078"><ele>954.0</ele><time>2026-05-03T11:07:10Z</time></trkpt><trkpt lat="38.46367123888631" lon="16.367964792357235"><ele>954.0</ele><time>2026-05-03T11:07:17Z</time></trkpt><trkpt lat="38.46362327981646" lon="16.36802411258951"><ele>953.9999999999999</ele><time>2026-05-03T11:07:25Z</time></trkpt><trkpt lat="38.463579802814195" lon="16.368082646410418"><ele>954.0</ele><time>2026-05-03T11:07:33Z</time></trkpt><trkpt lat="38.46353034017516" lon="16.368138204370805"><ele>954.0</ele><time>2026-05-03T11:07:43Z</time></trkpt><trkpt lat="38.46347879376353" lon="16.368188170424926"><ele>953.8571428571428</ele><time>2026-05-03T11:07:51Z</time></trkpt><trkpt lat="38.46353790310141" lon="16.36828005477839"><ele>953.7142857142856</ele><time>2026-05-03T11:08:31Z</time></trkpt><trkpt lat="38.46360622416359" lon="16.36829916356043"><ele>953.5714285714286</ele><time>2026-05-03T11:08:44Z</time></trkpt><trkpt lat="38.46363041116297" lon="16.36837776551475"><ele>953.4285714285713</ele><time>2026-05-03T11:08:55Z</time></trkpt><trkpt lat="38.46363917241089" lon="16.368459393797643"><ele>953.2857142857142</ele><time>2026-05-03T11:09:14Z</time></trkpt><trkpt lat="38.46366482611142" lon="16.368538751942722"><ele>953.1428571428571</ele><time>2026-05-03T11:09:24Z</time></trkpt><trkpt lat="38.46366619450067" lon="16.368623743610936"><ele>953.0</ele><time>2026-05-03T11:09:43Z</time></trkpt><trkpt lat="38.46369985379534" lon="16.368703362494514"><ele>953.0</ele><time>2026-05-03T11:09:51Z</time></trkpt><trkpt lat="38.46373937955584" lon="16.368772634217546"><ele>953.0</ele><time>2026-05-03T11:10:00Z</time></trkpt><trkpt lat="38.463807503822245" lon="16.368763237734843"><ele>953.0</ele><time>2026-05-03T11:10:22Z</time></trkpt><trkpt lat="38.46386681050405" lon="16.36871205578122"><ele>953.0</ele><time>2026-05-03T11:10:30Z</time></trkpt><trkpt lat="38.463927392808515" lon="16.368681932382263"><ele>953.0</ele><time>2026-05-03T11:10:46Z</time></trkpt><trkpt lat="38.46399705523016" lon="16.368664726542434"><ele>953.0</ele><time>2026-05-03T11:11:01Z</time></trkpt><trkpt lat="38.4640606517737" lon="16.368651167326057"><ele>953.0</ele><time>2026-05-03T11:11:06Z</time></trkpt><trkpt lat="38.46411909148075" lon="16.36861168965352"><ele>955.8571428571429</ele><time>2026-05-03T11:11:12Z</time></trkpt><trkpt lat="38.46417510382931" lon="16.3685655261328"><ele>958.7142857142857</ele><time>2026-05-03T11:11:32Z</time></trkpt><trkpt lat="38.46423417398528" lon="16.36853585129598"><ele>961.5714285714286</ele><time>2026-05-03T11:11:40Z</time></trkpt><trkpt lat="38.46430614429069" lon="16.368543746720125"><ele>964.4285714285714</ele><time>2026-05-03T11:11:48Z</time></trkpt><trkpt lat="38.46436961642772" lon="16.368510559965053"><ele>967.2857142857142</ele><time>2026-05-03T11:11:57Z</time></trkpt><trkpt lat="38.46444142904522" lon="16.3684124171088"><ele>970.1428571428571</ele><time>2026-05-03T11:12:18Z</time></trkpt><trkpt lat="38.464488619095036" lon="16.36835038472393"><ele>973.0</ele><time>2026-05-03T11:13:22Z</time></trkpt><trkpt lat="38.464545746334004" lon="16.368316252588503"><ele>973.0</ele><time>2026-05-03T11:13:30Z</time></trkpt><trkpt lat="38.46456871509858" lon="16.368406046724157"><ele>973.0</ele><time>2026-05-03T11:13:44Z</time></trkpt><trkpt lat="38.46461821475484" lon="16.368482592821948"><ele>973.0</ele><time>2026-05-03T11:13:58Z</time></trkpt><trkpt lat="38.4646367857396" lon="16.36855994349645"><ele>973.0</ele><time>2026-05-03T11:14:08Z</time></trkpt><trkpt lat="38.464674780269725" lon="16.368636093454402"><ele>973.0</ele><time>2026-05-03T11:14:17Z</time></trkpt><trkpt lat="38.464696654748124" lon="16.368723572744624"><ele>973.0</ele><time>2026-05-03T11:14:29Z</time></trkpt><trkpt lat="38.46472038315455" lon="16.368812064031623"><ele>973.0</ele><time>2026-05-03T11:14:43Z</time></trkpt><trkpt lat="38.46472152820169" lon="16.368894125914277"><ele>976.5714285714286</ele><time>2026-05-03T11:14:52Z</time></trkpt><trkpt lat="38.464710296664585" lon="16.368976089606083"><ele>980.1428571428571</ele><time>2026-05-03T11:15:21Z</time></trkpt><trkpt lat="38.46476043287838" lon="16.369050303160975"><ele>983.7142857142858</ele><time>2026-05-03T11:15:31Z</time></trkpt><trkpt lat="38.464752175353304" lon="16.369132459756987"><ele>987.2857142857143</ele><time>2026-05-03T11:15:39Z</time></trkpt><trkpt lat="38.464795526184375" lon="16.36920725989613"><ele>990.8571428571429</ele><time>2026-05-03T11:15:57Z</time></trkpt><trkpt lat="38.46485819458296" lon="16.369197653408023"><ele>994.4285714285716</ele><time>2026-05-03T11:16:13Z</time></trkpt><trkpt lat="38.464931803041" lon="16.36921734475586"><ele>998.0000000000001</ele><time>2026-05-03T11:16:22Z</time></trkpt><trkpt lat="38.46499565478737" lon="16.369240417464674"><ele>998.0000000000001</ele><time>2026-05-03T11:16:31Z</time></trkpt><trkpt lat="38.465065949151956" lon="16.369265191025363"><ele>998.0</ele><time>2026-05-03T11:16:42Z</time></trkpt><trkpt lat="38.46512598158822" lon="16.369237849054834"><ele>998.0000000000001</ele><time>2026-05-03T11:16:51Z</time></trkpt><trkpt lat="38.46518624966315" lon="16.36921378051783"><ele>998.0000000000001</ele><time>2026-05-03T11:17:03Z</time></trkpt><trkpt lat="38.465245807763125" lon="16.36918259999566"><ele>998.0</ele><time>2026-05-03T11:17:13Z</time></trkpt><trkpt lat="38.4652938520226" lon="16.369129800033065"><ele>998.0000000000001</ele><time>2026-05-03T11:17:50.001Z</time></trkpt><trkpt lat="38.4653712649581" lon="16.36912538082075"><ele>998.0000000000001</ele><time>2026-05-03T11:18:04.001Z</time></trkpt><trkpt lat="38.46542997973582" lon="16.369156300874984"><ele>999.5714285714287</ele><time>2026-05-03T11:18:25Z</time></trkpt><trkpt lat="38.4655033321889" lon="16.36916808929295"><ele>1001.1428571428571</ele><time>2026-05-03T11:18:36Z</time></trkpt><trkpt lat="38.46557446699314" lon="16.369133188595445"><ele>1002.7142857142858</ele><time>2026-05-03T11:19:03Z</time></trkpt><trkpt lat="38.46564959040465" lon="16.36910929967758"><ele>1004.2857142857143</ele><time>2026-05-03T11:19:11Z</time></trkpt><trkpt lat="38.465710633581686" lon="16.36906535066929"><ele>1005.8571428571429</ele><time>2026-05-03T11:19:28.001Z</time></trkpt><trkpt lat="38.46578039096466" lon="16.369059812942623"><ele>1007.4285714285714</ele><time>2026-05-03T11:19:43.001Z</time></trkpt><trkpt lat="38.46584474900764" lon="16.369068426841164"><ele>1009.0</ele><time>2026-05-03T11:19:51.001Z</time></trkpt><trkpt lat="38.46588609085402" lon="16.369130102976314"><ele>1009.0</ele><time>2026-05-03T11:19:58.001Z</time></trkpt><trkpt lat="38.46593093751291" lon="16.3691925492925"><ele>1009.0</ele><time>2026-05-03T11:20:06.001Z</time></trkpt><trkpt lat="38.46598756737169" lon="16.369245505725"><ele>1009.0</ele><time>2026-05-03T11:20:12.001Z</time></trkpt><trkpt lat="38.466033744576535" lon="16.36930807232879"><ele>1009.0</ele><time>2026-05-03T11:20:19.001Z</time></trkpt><trkpt lat="38.466085086304375" lon="16.369367189586097"><ele>1009.0</ele><time>2026-05-03T11:20:28.001Z</time></trkpt><trkpt lat="38.466150341793366" lon="16.36941470838906"><ele>1009.0</ele><time>2026-05-03T11:20:44Z</time></trkpt><trkpt lat="38.466192694444715" lon="16.36947423185091"><ele>1009.0</ele><time>2026-05-03T11:20:52Z</time></trkpt><trkpt lat="38.466249082712494" lon="16.369528330399294"><ele>1009.1428571428571</ele><time>2026-05-03T11:20:59Z</time></trkpt><trkpt lat="38.46630692074892" lon="16.369564036371756"><ele>1009.2857142857142</ele><time>2026-05-03T11:21:06Z</time></trkpt><trkpt lat="38.46636142722366" lon="16.369604810430094"><ele>1009.4285714285713</ele><time>2026-05-03T11:21:12Z</time></trkpt><trkpt lat="38.4664298284173" lon="16.36962320563306"><ele>1009.5714285714286</ele><time>2026-05-03T11:21:19Z</time></trkpt><trkpt lat="38.46649569002373" lon="16.369650451459485"><ele>1009.7142857142856</ele><time>2026-05-03T11:21:27Z</time></trkpt><trkpt lat="38.46655832101767" lon="16.369658583382826"><ele>1009.8571428571428</ele><time>2026-05-03T11:21:37Z</time></trkpt><trkpt lat="38.46662519046072" lon="16.369637856690694"><ele>1010.0</ele><time>2026-05-03T11:22:05Z</time></trkpt><trkpt lat="38.46669823556844" lon="16.369662022835236"><ele>1010.0</ele><time>2026-05-03T11:22:12.001Z</time></trkpt><trkpt lat="38.46677073148042" lon="16.369669027448456"><ele>1009.9999999999999</ele><time>2026-05-03T11:22:19.001Z</time></trkpt><trkpt lat="38.466836867592846" lon="16.369681792973918"><ele>1010.0</ele><time>2026-05-03T11:22:25.001Z</time></trkpt><trkpt lat="38.466906565481494" lon="16.369696333464198"><ele>1010.0</ele><time>2026-05-03T11:22:33.001Z</time></trkpt><trkpt lat="38.466962298413954" lon="16.369651750018697"><ele>1009.9999999999999</ele><time>2026-05-03T11:22:41.001Z</time></trkpt><trkpt lat="38.46702806082677" lon="16.36963340416087"><ele>1010.0</ele><time>2026-05-03T11:23:23.001Z</time></trkpt><trkpt lat="38.46710455765067" lon="16.369608987144904"><ele>1010.0</ele><time>2026-05-03T11:23:34.001Z</time></trkpt><trkpt lat="38.4671602332311" lon="16.36965304674227"><ele>1010.7142857142857</ele><time>2026-05-03T11:23:44.001Z</time></trkpt><trkpt lat="38.467225191589364" lon="16.3696605228224"><ele>1011.4285714285713</ele><time>2026-05-03T11:23:52.001Z</time></trkpt><trkpt lat="38.46729597110036" lon="16.369712850499706"><ele>1012.1428571428571</ele><time>2026-05-03T11:24:04.001Z</time></trkpt><trkpt lat="38.46735421939443" lon="16.369752652110694"><ele>1012.8571428571429</ele><time>2026-05-03T11:24:11.001Z</time></trkpt><trkpt lat="38.46741759954699" lon="16.369789800726515"><ele>1013.5714285714286</ele><time>2026-05-03T11:24:19.001Z</time></trkpt><trkpt lat="38.46745248294531" lon="16.36986448855535"><ele>1014.2857142857142</ele><time>2026-05-03T11:24:27.001Z</time></trkpt><trkpt lat="38.467505934378785" lon="16.369919008177988"><ele>1015.0</ele><time>2026-05-03T11:25:18.001Z</time></trkpt><trkpt lat="38.46755980441276" lon="16.369966632241216"><ele>1015.0</ele><time>2026-05-03T11:25:29.001Z</time></trkpt><trkpt lat="38.46760221593963" lon="16.370040498358918"><ele>1015.0</ele><time>2026-05-03T11:25:36.001Z</time></trkpt><trkpt lat="38.46763554527859" lon="16.37011538496431"><ele>1015.0</ele><time>2026-05-03T11:25:44.001Z</time></trkpt><trkpt lat="38.46765473245256" lon="16.37019411491901"><ele>1015.0</ele><time>2026-05-03T11:25:50.001Z</time></trkpt><trkpt lat="38.46766840063706" lon="16.370274575734594"><ele>1015.0</ele><time>2026-05-03T11:25:56.001Z</time></trkpt><trkpt lat="38.467659990800364" lon="16.370364842840694"><ele>1015.0</ele><time>2026-05-03T11:26:08.001Z</time></trkpt><trkpt lat="38.46766214301326" lon="16.370447593503137"><ele>1015.0</ele><time>2026-05-03T11:26:14.001Z</time></trkpt><trkpt lat="38.46763440578978" lon="16.37052479826888"><ele>1014.2857142857142</ele><time>2026-05-03T11:26:20.001Z</time></trkpt><trkpt lat="38.467635825589895" lon="16.37061798163168"><ele>1013.5714285714286</ele><time>2026-05-03T11:26:29.001Z</time></trkpt><trkpt lat="38.467665141967" lon="16.37069265109847"><ele>1012.8571428571429</ele><time>2026-05-03T11:26:37.001Z</time></trkpt><trkpt lat="38.467695212442194" lon="16.37077739010547"><ele>1012.1428571428571</ele><time>2026-05-03T11:27:25.001Z</time></trkpt><trkpt lat="38.467749382901104" lon="16.3708226682963"><ele>1011.4285714285713</ele><time>2026-05-03T11:27:31.001Z</time></trkpt><trkpt lat="38.46779368522873" lon="16.370884211491013"><ele>1010.7142857142857</ele><time>2026-05-03T11:27:38.001Z</time></trkpt><trkpt lat="38.46784165382516" lon="16.370939124776676"><ele>1010.0</ele><time>2026-05-03T11:27:45.001Z</time></trkpt><trkpt lat="38.46789223128014" lon="16.371011065524137"><ele>1010.0</ele><time>2026-05-03T11:27:53.001Z</time></trkpt><trkpt lat="38.46794141584907" lon="16.37107113436394"><ele>1009.9999999999999</ele><time>2026-05-03T11:28:01.001Z</time></trkpt><trkpt lat="38.46798320442366" lon="16.371132883970404"><ele>1010.0</ele><time>2026-05-03T11:28:08.001Z</time></trkpt><trkpt lat="38.468048110882556" lon="16.371176936580056"><ele>1010.0</ele><time>2026-05-03T11:28:16.001Z</time></trkpt><trkpt lat="38.46812280839353" lon="16.371205570375636"><ele>1009.9999999999999</ele><time>2026-05-03T11:28:27.001Z</time></trkpt><trkpt lat="38.468190659833766" lon="16.37123682046216"><ele>1010.0</ele><time>2026-05-03T11:28:34.001Z</time></trkpt><trkpt lat="38.46824158445475" lon="16.371290541170954"><ele>1010.0</ele><time>2026-05-03T11:28:41.001Z</time></trkpt><trkpt lat="38.46827000828408" lon="16.371363114933665"><ele>1009.7142857142857</ele><time>2026-05-03T11:28:53.001Z</time></trkpt><trkpt lat="38.46821313245939" lon="16.371409032506588"><ele>1009.4285714285713</ele><time>2026-05-03T11:29:03Z</time></trkpt><trkpt lat="38.46815021112941" lon="16.37143700374348"><ele>1009.1428571428571</ele><time>2026-05-03T11:29:10Z</time></trkpt><trkpt lat="38.46811037686441" lon="16.371504461500454"><ele>1008.8571428571429</ele><time>2026-05-03T11:29:17Z</time></trkpt><trkpt lat="38.4680612372649" lon="16.371563130013175"><ele>1008.5714285714286</ele><time>2026-05-03T11:29:26Z</time></trkpt><trkpt lat="38.46801582041469" lon="16.37162761564959"><ele>1008.2857142857142</ele><time>2026-05-03T11:29:33Z</time></trkpt><trkpt lat="38.46795233136378" lon="16.371656968316344"><ele>1008.0</ele><time>2026-05-03T11:29:40Z</time></trkpt><trkpt lat="38.46791373539271" lon="16.371721032393822"><ele>1008.0</ele><time>2026-05-03T11:29:47Z</time></trkpt><trkpt lat="38.467875864949555" lon="16.37179704886077"><ele>1008.0</ele><time>2026-05-03T11:29:54Z</time></trkpt><trkpt lat="38.467850472142935" lon="16.371877909725182"><ele>1008.0</ele><time>2026-05-03T11:30:02Z</time></trkpt><trkpt lat="38.46784371831345" lon="16.37196030130213"><ele>1008.0</ele><time>2026-05-03T11:30:09Z</time></trkpt><trkpt lat="38.467852621674645" lon="16.37204756069327"><ele>1008.0</ele><time>2026-05-03T11:30:23Z</time></trkpt><trkpt lat="38.467869631081086" lon="16.372134007873356"><ele>1008.0</ele><time>2026-05-03T11:30:31Z</time></trkpt><trkpt lat="38.46787040838311" lon="16.37221877045914"><ele>1008.0</ele><time>2026-05-03T11:30:40Z</time></trkpt><trkpt lat="38.467813105864956" lon="16.372261969848076"><ele>1010.0</ele><time>2026-05-03T11:30:47Z</time></trkpt><trkpt lat="38.467763946204656" lon="16.372323394396666"><ele>1012.0</ele><time>2026-05-03T11:30:58Z</time></trkpt><trkpt lat="38.467719779790905" lon="16.37238241398405"><ele>1014.0</ele><time>2026-05-03T11:31:08Z</time></trkpt><trkpt lat="38.467723317076675" lon="16.372464292892595"><ele>1016.0</ele><time>2026-05-03T11:31:16Z</time></trkpt><trkpt lat="38.467728404340754" lon="16.372548266044237"><ele>1018.0</ele><time>2026-05-03T11:31:24Z</time></trkpt><trkpt lat="38.46769006644976" lon="16.37261475093407"><ele>1020.0</ele><time>2026-05-03T11:31:32Z</time></trkpt><trkpt lat="38.4676658906362" lon="16.372691054845923"><ele>1022.0</ele><time>2026-05-03T11:31:44Z</time></trkpt><trkpt lat="38.46762454969304" lon="16.372754963182896"><ele>1022.0</ele><time>2026-05-03T11:31:52Z</time></trkpt><trkpt lat="38.46759675347835" lon="16.37282853248912"><ele>1022.0</ele><time>2026-05-03T11:32:01Z</time></trkpt><trkpt lat="38.46756906884717" lon="16.372900939570552"><ele>1022.0</ele><time>2026-05-03T11:32:09Z</time></trkpt><trkpt lat="38.46753806841577" lon="16.372974840441294"><ele>1022.0</ele><time>2026-05-03T11:32:16Z</time></trkpt><trkpt lat="38.46750756442675" lon="16.373049762358086"><ele>1022.0</ele><time>2026-05-03T11:32:23Z</time></trkpt><trkpt lat="38.46745874072742" lon="16.373107798382932"><ele>1022.0</ele><time>2026-05-03T11:32:30Z</time></trkpt><trkpt lat="38.46741120550007" lon="16.373162834019933"><ele>1022.0</ele><time>2026-05-03T11:32:44Z</time></trkpt><trkpt lat="38.467362963557065" lon="16.373220291637068"><ele>1023.8571428571429</ele><time>2026-05-03T11:32:52Z</time></trkpt><trkpt lat="38.467308978555664" lon="16.373261993546713"><ele>1025.7142857142858</ele><time>2026-05-03T11:33:00Z</time></trkpt><trkpt lat="38.467239851521555" lon="16.37329245868527"><ele>1027.5714285714284</ele><time>2026-05-03T11:33:09Z</time></trkpt><trkpt lat="38.46717945134057" lon="16.37332596617132"><ele>1029.4285714285716</ele><time>2026-05-03T11:33:16Z</time></trkpt><trkpt lat="38.46711541286908" lon="16.37334507578282"><ele>1031.2857142857142</ele><time>2026-05-03T11:33:23Z</time></trkpt><trkpt lat="38.46706070554128" lon="16.373391249139594"><ele>1033.142857142857</ele><time>2026-05-03T11:33:30Z</time></trkpt><trkpt lat="38.46701405822551" lon="16.373446444984324"><ele>1035.0</ele><time>2026-05-03T11:33:36Z</time></trkpt><trkpt lat="38.46696492346859" lon="16.37351201940657"><ele>1035.0</ele><time>2026-05-03T11:33:44Z</time></trkpt><trkpt lat="38.46691206118337" lon="16.37355906764456"><ele>1035.0</ele><time>2026-05-03T11:33:51Z</time></trkpt><trkpt lat="38.46686636726186" lon="16.3736277261365"><ele>1035.0</ele><time>2026-05-03T11:34:07Z</time></trkpt><trkpt lat="38.46681043155205" lon="16.373677038057465"><ele>1035.0</ele><time>2026-05-03T11:34:14Z</time></trkpt><trkpt lat="38.46676027679919" lon="16.373731522817454"><ele>1035.0</ele><time>2026-05-03T11:34:21Z</time></trkpt><trkpt lat="38.466710823013464" lon="16.37379103183823"><ele>1035.0</ele><time>2026-05-03T11:34:28Z</time></trkpt><trkpt lat="38.4666593127625" lon="16.373845694330953"><ele>1035.0</ele><time>2026-05-03T11:34:34Z</time></trkpt><trkpt lat="38.466606774345905" lon="16.373902872276584"><ele>1035.2857142857142</ele><time>2026-05-03T11:34:41Z</time></trkpt><trkpt lat="38.46655918538689" lon="16.37395641482668"><ele>1035.5714285714287</ele><time>2026-05-03T11:34:47Z</time></trkpt><trkpt lat="38.466508749467735" lon="16.374004879418774"><ele>1035.857142857143</ele><time>2026-05-03T11:34:53Z</time></trkpt><trkpt lat="38.46644869100289" lon="16.374041177575563"><ele>1036.142857142857</ele><time>2026-05-03T11:35:01Z</time></trkpt><trkpt lat="38.46638148027993" lon="16.37403614886268"><ele>1036.4285714285713</ele><time>2026-05-03T11:35:12Z</time></trkpt><trkpt lat="38.46631266031628" lon="16.374024990359313"><ele>1036.7142857142858</ele><time>2026-05-03T11:35:23Z</time></trkpt><trkpt lat="38.466388105550244" lon="16.374028989737663"><ele>1037.0</ele><time>2026-05-03T11:36:23Z</time></trkpt><trkpt lat="38.466452317312296" lon="16.374039820978975"><ele>1037.0</ele><time>2026-05-03T11:36:32Z</time></trkpt><trkpt lat="38.466520612625104" lon="16.374027220893666"><ele>1037.0</ele><time>2026-05-03T11:36:51Z</time></trkpt><trkpt lat="38.4665709380758" lon="16.373963579549514"><ele>1037.0</ele><time>2026-05-03T11:37:22Z</time></trkpt><trkpt lat="38.46651798522341" lon="16.374018635796073"><ele>1037.0</ele><time>2026-05-03T11:37:54Z</time></trkpt><trkpt lat="38.466459703437025" lon="16.37405904386087"><ele>1037.0</ele><time>2026-05-03T11:38:19Z</time></trkpt><trkpt lat="38.46639296195359" lon="16.374046024468804"><ele>1037.0</ele><time>2026-05-03T11:38:48Z</time></trkpt><trkpt lat="38.46632473760768" lon="16.37404888119831"><ele>1037.0</ele><time>2026-05-03T11:38:55Z</time></trkpt><trkpt lat="38.46627546410508" lon="16.373989928377462"><ele>1037.0</ele><time>2026-05-03T11:39:05Z</time></trkpt><trkpt lat="38.46621768647408" lon="16.37394919677183"><ele>1037.0</ele><time>2026-05-03T11:47:24.997Z</time></trkpt><trkpt lat="38.46628872881918" lon="16.373977288506428"><ele>1037.0</ele><time>2026-05-03T11:50:02.996Z</time></trkpt><trkpt lat="38.46624301508004" lon="16.373900583057964"><ele>1037.0</ele><time>2026-05-03T12:02:45.993Z</time></trkpt><trkpt lat="38.46626585653809" lon="16.373986144761595"><ele>1037.0</ele><time>2026-05-03T12:02:54.993Z</time></trkpt><trkpt lat="38.46635216030683" lon="16.37401479631655"><ele>1037.0</ele><time>2026-05-03T12:05:26.992Z</time></trkpt><trkpt lat="38.46641847887796" lon="16.374053646400515"><ele>1037.0</ele><time>2026-05-03T12:06:44.992Z</time></trkpt><trkpt lat="38.46648553414811" lon="16.37405908834482"><ele>1037.0</ele><time>2026-05-03T12:06:49.992Z</time></trkpt><trkpt lat="38.46653994590302" lon="16.373999239590884"><ele>1037.0</ele><time>2026-05-03T12:07:15.992Z</time></trkpt><trkpt lat="38.46658118032948" lon="16.37393550343153"><ele>1037.0</ele><time>2026-05-03T12:07:18.992Z</time></trkpt><trkpt lat="38.46663171424124" lon="16.373853858582944"><ele>1037.0</ele><time>2026-05-03T12:07:20.992Z</time></trkpt><trkpt lat="38.466696927661026" lon="16.373791148370195"><ele>1037.0</ele><time>2026-05-03T12:07:24.992Z</time></trkpt><trkpt lat="38.4667736251055" lon="16.373728430388585"><ele>1037.0</ele><time>2026-05-03T12:07:28.992Z</time></trkpt><trkpt lat="38.466855172379844" lon="16.373650236527414"><ele>1036.6666666666667</ele><time>2026-05-03T12:07:31.992Z</time></trkpt><trkpt lat="38.46689611931207" lon="16.37354098334781"><ele>1036.3333333333335</ele><time>2026-05-03T12:07:33.992Z</time></trkpt><trkpt lat="38.466961920738974" lon="16.37347859274635"><ele>1036.0</ele><time>2026-05-03T12:07:35.992Z</time></trkpt><trkpt lat="38.467002652581236" lon="16.37340911000798"><ele>1035.6666666666667</ele><time>2026-05-03T12:07:37.992Z</time></trkpt><trkpt lat="38.4670726068614" lon="16.373382307303622"><ele>1035.3333333333333</ele><time>2026-05-03T12:07:39.992Z</time></trkpt><trkpt lat="38.46714278176886" lon="16.373343531752273"><ele>1035.0</ele><time>2026-05-03T12:07:41.992Z</time></trkpt><trkpt lat="38.46723496090796" lon="16.373311494264144"><ele>1036.1666666666667</ele><time>2026-05-03T12:07:44.992Z</time></trkpt><trkpt lat="38.467317898149396" lon="16.37326230176209"><ele>1037.3333333333333</ele><time>2026-05-03T12:07:47.992Z</time></trkpt><trkpt lat="38.46737864901472" lon="16.373208189403314"><ele>1038.5</ele><time>2026-05-03T12:07:50.992Z</time></trkpt><trkpt lat="38.46744073331345" lon="16.373118296412503"><ele>1039.6666666666665</ele><time>2026-05-03T12:07:53.992Z</time></trkpt><trkpt lat="38.46746782628647" lon="16.373041569420778"><ele>1040.8333333333333</ele><time>2026-05-03T12:07:55.992Z</time></trkpt><trkpt lat="38.46747760381677" lon="16.372916093706184"><ele>1042.0</ele><time>2026-05-03T12:07:58.992Z</time></trkpt><trkpt lat="38.46755442542663" lon="16.37286545481454"><ele>1038.6666666666665</ele><time>2026-05-03T12:08:02.992Z</time></trkpt><trkpt lat="38.467590719178" lon="16.372764010089707"><ele>1035.3333333333333</ele><time>2026-05-03T12:08:05.992Z</time></trkpt><trkpt lat="38.467644512512244" lon="16.372656186239603"><ele>1032.0</ele><time>2026-05-03T12:08:09.992Z</time></trkpt><trkpt lat="38.46769890984487" lon="16.37257412075187"><ele>1028.6666666666667</ele><time>2026-05-03T12:08:12.992Z</time></trkpt><trkpt lat="38.467749577171894" lon="16.372491929308016"><ele>1025.3333333333335</ele><time>2026-05-03T12:08:15.992Z</time></trkpt><trkpt lat="38.46777527974297" lon="16.372384156896842"><ele>1022.0</ele><time>2026-05-03T12:08:22.992Z</time></trkpt><trkpt lat="38.46781288132864" lon="16.372306806006748"><ele>1019.2</ele><time>2026-05-03T12:08:26.991Z</time></trkpt><trkpt lat="38.46782873858067" lon="16.3721817506388"><ele>1016.4000000000001</ele><time>2026-05-03T12:08:31.992Z</time></trkpt><trkpt lat="38.46788538302579" lon="16.37211850231692"><ele>1013.5999999999999</ele><time>2026-05-03T12:08:38.991Z</time></trkpt><trkpt lat="38.467954802480904" lon="16.371997735464088"><ele>1010.8</ele><time>2026-05-03T12:08:40.992Z</time></trkpt><trkpt lat="38.46803357436352" lon="16.37194274167748"><ele>1008.0</ele><time>2026-05-03T12:08:42.992Z</time></trkpt><trkpt lat="38.46808903928819" lon="16.3718080072332"><ele>1012.6666666666666</ele><time>2026-05-03T12:08:45.992Z</time></trkpt><trkpt lat="38.46812074337381" lon="16.37172995724049"><ele>1017.3333333333333</ele><time>2026-05-03T12:08:46.992Z</time></trkpt><trkpt lat="38.468173334872105" lon="16.371616139234384"><ele>1022.0</ele><time>2026-05-03T12:08:48.992Z</time></trkpt><trkpt lat="38.46824483278092" lon="16.371575126065483"><ele>1026.6666666666665</ele><time>2026-05-03T12:08:49.992Z</time></trkpt><trkpt lat="38.468302439077014" lon="16.37152624926196"><ele>1031.3333333333333</ele><time>2026-05-03T12:08:51.992Z</time></trkpt><trkpt lat="38.46837505419269" lon="16.371472643767053"><ele>1036.0</ele><time>2026-05-03T12:08:53.992Z</time></trkpt><trkpt lat="38.468346684249354" lon="16.371367012408324"><ele>1036.0</ele><time>2026-05-03T12:08:55.992Z</time></trkpt><trkpt lat="38.46825140624409" lon="16.37139705668829"><ele>1036.0</ele><time>2026-05-03T12:08:56.992Z</time></trkpt><trkpt lat="38.468180403746864" lon="16.371380228483407"><ele>1036.0</ele><time>2026-05-03T12:08:58.992Z</time></trkpt><trkpt lat="38.46810254001161" lon="16.371317038687035"><ele>1036.0</ele><time>2026-05-03T12:09:00.992Z</time></trkpt><trkpt lat="38.46803002367074" lon="16.37123818107521"><ele>1036.0</ele><time>2026-05-03T12:09:01.992Z</time></trkpt><trkpt lat="38.46797624716177" lon="16.371165403378157"><ele>1036.0</ele><time>2026-05-03T12:09:02.992Z</time></trkpt><trkpt lat="38.467926657688544" lon="16.371086318418012"><ele>1031.6666666666665</ele><time>2026-05-03T12:09:03.992Z</time></trkpt><trkpt lat="38.467878970290926" lon="16.3709964351931"><ele>1027.3333333333333</ele><time>2026-05-03T12:09:05.992Z</time></trkpt><trkpt lat="38.46782934437847" lon="16.370946140679536"><ele>1023.0</ele><time>2026-05-03T12:09:06.992Z</time></trkpt><trkpt lat="38.46776999511654" lon="16.370839310769643"><ele>1018.6666666666667</ele><time>2026-05-03T12:09:08.992Z</time></trkpt><trkpt lat="38.46771104931231" lon="16.37079730617756"><ele>1014.3333333333334</ele><time>2026-05-03T12:09:10.992Z</time></trkpt><trkpt lat="38.467654741536364" lon="16.37072428278832"><ele>1010.0</ele><time>2026-05-03T12:09:12.992Z</time></trkpt><trkpt lat="38.467603345550806" lon="16.370635307271534"><ele>1010.0000000000001</ele><time>2026-05-03T12:09:14.992Z</time></trkpt><trkpt lat="38.467616142598345" lon="16.370527768586115"><ele>1010.0</ele><time>2026-05-03T12:09:16.992Z</time></trkpt><trkpt lat="38.46764426535551" lon="16.37044248729917"><ele>1010.0</ele><time>2026-05-03T12:09:18.992Z</time></trkpt><trkpt lat="38.467643563634525" lon="16.370331057888116"><ele>1010.0</ele><time>2026-05-03T12:09:20.992Z</time></trkpt><trkpt lat="38.46765165183574" lon="16.37024602702196"><ele>1010.0000000000001</ele><time>2026-05-03T12:09:22.992Z</time></trkpt><trkpt lat="38.46764528871691" lon="16.370133612937213"><ele>1010.0</ele><time>2026-05-03T12:09:25.992Z</time></trkpt><trkpt lat="38.46760215840625" lon="16.370047491951258"><ele>1010.7142857142857</ele><time>2026-05-03T12:09:27.992Z</time></trkpt><trkpt lat="38.46767045216646" lon="16.370046995650373"><ele>1011.4285714285713</ele><time>2026-05-03T12:09:55.992Z</time></trkpt><trkpt lat="38.46760239209913" lon="16.37001465737511"><ele>1012.1428571428571</ele><time>2026-05-03T12:10:39.99Z</time></trkpt><trkpt lat="38.467547698280825" lon="16.36995078000796"><ele>1012.8571428571429</ele><time>2026-05-03T12:10:58.991Z</time></trkpt><trkpt lat="38.46750040411167" lon="16.369888925009292"><ele>1013.5714285714286</ele><time>2026-05-03T12:11:03.991Z</time></trkpt><trkpt lat="38.46743026598907" lon="16.369814489709665"><ele>1014.2857142857142</ele><time>2026-05-03T12:11:18.991Z</time></trkpt><trkpt lat="38.46738214219511" lon="16.36974499903852"><ele>1015.0</ele><time>2026-05-03T12:11:21.991Z</time></trkpt><trkpt lat="38.46732367533084" lon="16.369685524277248"><ele>1015.1666666666666</ele><time>2026-05-03T12:11:24.991Z</time></trkpt><trkpt lat="38.467246025478396" lon="16.3696373715968"><ele>1015.3333333333333</ele><time>2026-05-03T12:11:27.991Z</time></trkpt><trkpt lat="38.4671701073387" lon="16.36963716796426"><ele>1015.5</ele><time>2026-05-03T12:11:32.991Z</time></trkpt><trkpt lat="38.46710843117559" lon="16.369610554553585"><ele>1015.6666666666667</ele><time>2026-05-03T12:11:35.991Z</time></trkpt><trkpt lat="38.46702848446914" lon="16.3695881236456"><ele>1015.8333333333334</ele><time>2026-05-03T12:11:38.991Z</time></trkpt><trkpt lat="38.46697671328897" lon="16.369648468821048"><ele>1016.0</ele><time>2026-05-03T12:11:43.991Z</time></trkpt><trkpt lat="38.46690489647127" lon="16.369711327465904"><ele>1015.1428571428571</ele><time>2026-05-03T12:11:46.991Z</time></trkpt><trkpt lat="38.46683087163472" lon="16.36972277506684"><ele>1014.2857142857142</ele><time>2026-05-03T12:11:49.991Z</time></trkpt><trkpt lat="38.466765179297724" lon="16.36969219866443"><ele>1013.4285714285713</ele><time>2026-05-03T12:11:52.991Z</time></trkpt><trkpt lat="38.46670494845234" lon="16.36965831203625"><ele>1012.5714285714286</ele><time>2026-05-03T12:11:55.991Z</time></trkpt><trkpt lat="38.4666353109998" lon="16.369649442795343"><ele>1011.7142857142856</ele><time>2026-05-03T12:11:58.991Z</time></trkpt><trkpt lat="38.466550582212136" lon="16.369641406432667"><ele>1010.8571428571428</ele><time>2026-05-03T12:12:01.991Z</time></trkpt><trkpt lat="38.46647831960999" lon="16.36962771325494"><ele>1010.0</ele><time>2026-05-03T12:12:04.991Z</time></trkpt><trkpt lat="38.46641070347111" lon="16.369595224158353"><ele>1010.0</ele><time>2026-05-03T12:12:07.991Z</time></trkpt><trkpt lat="38.46634473218437" lon="16.369562435030947"><ele>1009.9999999999999</ele><time>2026-05-03T12:12:10.991Z</time></trkpt><trkpt lat="38.46628614072884" lon="16.369515633497848"><ele>1010.0</ele><time>2026-05-03T12:12:15.991Z</time></trkpt><trkpt lat="38.4662274254341" lon="16.369463700750384"><ele>1010.0</ele><time>2026-05-03T12:12:18.991Z</time></trkpt><trkpt lat="38.46618465596195" lon="16.369399224970373"><ele>1009.9999999999999</ele><time>2026-05-03T12:12:21.991Z</time></trkpt><trkpt lat="38.46611482339352" lon="16.369333624719324"><ele>1010.0</ele><time>2026-05-03T12:12:25.991Z</time></trkpt><trkpt lat="38.46606165352347" lon="16.369281437600367"><ele>1010.0</ele><time>2026-05-03T12:12:28.991Z</time></trkpt><trkpt lat="38.46601431857092" lon="16.369225137385907"><ele>1009.8571428571428</ele><time>2026-05-03T12:12:32.991Z</time></trkpt><trkpt lat="38.465945390825" lon="16.36919234942552"><ele>1009.7142857142856</ele><time>2026-05-03T12:12:35.991Z</time></trkpt><trkpt lat="38.46592658358496" lon="16.36910700643468"><ele>1009.5714285714286</ele><time>2026-05-03T12:12:39.99Z</time></trkpt><trkpt lat="38.46587563272683" lon="16.369043632741967"><ele>1009.4285714285713</ele><time>2026-05-03T12:17:05.989Z</time></trkpt><trkpt lat="38.46581010519477" lon="16.36901696811328"><ele>1009.2857142857142</ele><time>2026-05-03T12:17:12.989Z</time></trkpt><trkpt lat="38.465743233798925" lon="16.369043119238817"><ele>1009.1428571428571</ele><time>2026-05-03T12:17:21.989Z</time></trkpt><trkpt lat="38.46580899755804" lon="16.369069809267028"><ele>1009.0</ele><time>2026-05-03T12:17:43.989Z</time></trkpt><trkpt lat="38.46586712194883" lon="16.36911000509888"><ele>1009.0</ele><time>2026-05-03T12:17:49.989Z</time></trkpt><trkpt lat="38.465874685731066" lon="16.369194526814532"><ele>1009.0</ele><time>2026-05-03T12:17:56.989Z</time></trkpt><trkpt lat="38.46582223393587" lon="16.36914665052473"><ele>1009.0</ele><time>2026-05-03T12:18:01.989Z</time></trkpt><trkpt lat="38.46578912618536" lon="16.369072769092828"><ele>1009.0</ele><time>2026-05-03T12:18:06.989Z</time></trkpt><trkpt lat="38.4657220941127" lon="16.36904921628266"><ele>1009.0</ele><time>2026-05-03T12:18:12.989Z</time></trkpt><trkpt lat="38.46565642841725" lon="16.36902095964851"><ele>1009.0</ele><time>2026-05-03T12:18:18.989Z</time></trkpt><trkpt lat="38.46560148272321" lon="16.369060211810545"><ele>1009.0</ele><time>2026-05-03T12:18:23.989Z</time></trkpt><trkpt lat="38.46563632641269" lon="16.368946558377772"><ele>1009.0</ele><time>2026-05-03T12:21:05.983Z</time></trkpt><trkpt lat="38.46566316843242" lon="16.368861244480158"><ele>1009.0</ele><time>2026-05-03T12:21:18.983Z</time></trkpt><trkpt lat="38.46566087589102" lon="16.368780896371632"><ele>1009.0</ele><time>2026-05-03T12:21:32.983Z</time></trkpt><trkpt lat="38.465662340445455" lon="16.368691738760287"><ele>1009.0</ele><time>2026-05-03T12:22:02.983Z</time></trkpt><trkpt lat="38.46569695815956" lon="16.368615071907897"><ele>1009.0</ele><time>2026-05-03T12:22:53.983Z</time></trkpt><trkpt lat="38.46574911505326" lon="16.36856049952959"><ele>1009.0</ele><time>2026-05-03T12:23:50.982Z</time></trkpt><trkpt lat="38.465740682737355" lon="16.36847286922208"><ele>1009.0</ele><time>2026-05-03T12:24:36.982Z</time></trkpt><trkpt lat="38.465700895213914" lon="16.368403425034206"><ele>1006.4285714285714</ele><time>2026-05-03T12:24:50.982Z</time></trkpt><trkpt lat="38.465685007812496" lon="16.36831799744856"><ele>1003.8571428571429</ele><time>2026-05-03T12:25:03.982Z</time></trkpt><trkpt lat="38.46569367917134" lon="16.36840360641752"><ele>1001.2857142857143</ele><time>2026-05-03T12:26:06.982Z</time></trkpt><trkpt lat="38.46570827862081" lon="16.36851287971416"><ele>998.7142857142858</ele><time>2026-05-03T12:26:26.982Z</time></trkpt><trkpt lat="38.46569754508013" lon="16.36859271909827"><ele>996.1428571428571</ele><time>2026-05-03T12:26:49.981Z</time></trkpt><trkpt lat="38.465670990589096" lon="16.368668042376637"><ele>993.5714285714287</ele><time>2026-05-03T12:27:11.981Z</time></trkpt><trkpt lat="38.46562143770148" lon="16.368742844288608"><ele>991.0000000000001</ele><time>2026-05-03T12:27:34.982Z</time></trkpt><trkpt lat="38.46558820585739" lon="16.368814498093677"><ele>993.9999999999999</ele><time>2026-05-03T12:27:46.982Z</time></trkpt><trkpt lat="38.46560643356348" lon="16.368900975818953"><ele>997.0</ele><time>2026-05-03T12:28:22.982Z</time></trkpt><trkpt lat="38.46561585380064" lon="16.368987939365656"><ele>1000.0</ele><time>2026-05-03T12:28:52.981Z</time></trkpt><trkpt lat="38.46556054382388" lon="16.3690561913758"><ele>1003.0</ele><time>2026-05-03T12:29:26.981Z</time></trkpt><trkpt lat="38.46550554590388" lon="16.36916715008681"><ele>1005.9999999999999</ele><time>2026-05-03T12:30:43.981Z</time></trkpt><trkpt lat="38.46551184190446" lon="16.369251737299248"><ele>1009.0</ele><time>2026-05-03T12:32:05.98Z</time></trkpt><trkpt lat="38.46553731024019" lon="16.36935452290023"><ele>1009.0</ele><time>2026-05-03T12:32:48.98Z</time></trkpt><trkpt lat="38.46556107779782" lon="16.36943103728457"><ele>1009.0</ele><time>2026-05-03T12:33:00.98Z</time></trkpt><trkpt lat="38.46562012174903" lon="16.36949855269251"><ele>1009.0</ele><time>2026-05-03T12:33:29.98Z</time></trkpt><trkpt lat="38.46560757733436" lon="16.369412110051165"><ele>1009.0</ele><time>2026-05-03T12:33:44.98Z</time></trkpt><trkpt lat="38.465617925113996" lon="16.36932920882268"><ele>1009.0</ele><time>2026-05-03T12:34:14.98Z</time></trkpt><trkpt lat="38.46556277137406" lon="16.369287194117877"><ele>1009.0</ele><time>2026-05-03T12:34:36.98Z</time></trkpt><trkpt lat="38.46551231234664" lon="16.369335619073624"><ele>1009.0</ele><time>2026-05-03T12:34:45.98Z</time></trkpt><trkpt lat="38.46549996622361" lon="16.369416866110264"><ele>1008.9999999999999</ele><time>2026-05-03T12:35:02.98Z</time></trkpt><trkpt lat="38.465539212539184" lon="16.369343077528807"><ele>1009.0</ele><time>2026-05-03T12:35:44.98Z</time></trkpt><trkpt lat="38.46542624261659" lon="16.36938230097419"><ele>1009.0</ele><time>2026-05-03T12:37:26.979Z</time></trkpt><trkpt lat="38.46539157174107" lon="16.36945482022691"><ele>1009.0</ele><time>2026-05-03T12:37:38.979Z</time></trkpt><trkpt lat="38.465458154191346" lon="16.369492112679243"><ele>1008.9999999999999</ele><time>2026-05-03T12:38:44.979Z</time></trkpt><trkpt lat="38.46552321539578" lon="16.36942985870221"><ele>1009.0</ele><time>2026-05-03T12:42:58.978Z</time></trkpt><trkpt lat="38.46548533031224" lon="16.36934427170073"><ele>1008.9999999999999</ele><time>2026-05-03T12:44:15.977Z</time></trkpt><trkpt lat="38.46548995528326" lon="16.369262846321153"><ele>1009.0</ele><time>2026-05-03T12:44:45.977Z</time></trkpt><trkpt lat="38.46542425073203" lon="16.369228737857426"><ele>1009.0</ele><time>2026-05-03T12:45:21.977Z</time></trkpt><trkpt lat="38.46547620591189" lon="16.369282411075222"><ele>1009.0</ele><time>2026-05-03T12:45:48.977Z</time></trkpt><trkpt lat="38.465565326465764" lon="16.36922433861342"><ele>1008.9999999999999</ele><time>2026-05-03T12:46:20.976Z</time></trkpt><trkpt lat="38.46569380920454" lon="16.36924788881794"><ele>1009.0</ele><time>2026-05-03T12:47:04.976Z</time></trkpt><trkpt lat="38.46575742870118" lon="16.369288193234638"><ele>1008.9999999999999</ele><time>2026-05-03T12:48:19.976Z</time></trkpt><trkpt lat="38.46570955053239" lon="16.36934846532156"><ele>1009.0</ele><time>2026-05-03T12:48:53.976Z</time></trkpt><trkpt lat="38.465653324470026" lon="16.369388643449906"><ele>1009.0</ele><time>2026-05-03T12:50:22.976Z</time></trkpt><trkpt lat="38.46559279084707" lon="16.36936377412583"><ele>1009.0</ele><time>2026-05-03T12:50:47.975Z</time></trkpt><trkpt lat="38.46566179348603" lon="16.369292179755995"><ele>1008.9999999999999</ele><time>2026-05-03T12:53:59.974Z</time></trkpt><trkpt lat="38.465680734799115" lon="16.36916554316145"><ele>1009.0</ele><time>2026-05-03T12:55:35.925Z</time></trkpt><trkpt lat="38.46568546216917" lon="16.36925109551488"><ele>1009.0</ele><time>2026-05-03T12:56:02.925Z</time></trkpt><trkpt lat="38.465694705168566" lon="16.369157061558898"><ele>1009.0</ele><time>2026-05-03T12:56:57.924Z</time></trkpt><trkpt lat="38.46567719720735" lon="16.369073361867144"><ele>1009.0</ele><time>2026-05-03T12:57:54.923Z</time></trkpt><trkpt lat="38.4656180452517" lon="16.369044049882397"><ele>1009.0</ele><time>2026-05-03T12:58:14.923Z</time></trkpt><trkpt lat="38.46557369580612" lon="16.369117943754226"><ele>1009.0</ele><time>2026-05-03T12:59:06.921Z</time></trkpt><trkpt lat="38.46550723354764" lon="16.369109314831533"><ele>1009.0</ele><time>2026-05-03T12:59:17.921Z</time></trkpt><trkpt lat="38.4654365034751" lon="16.36912559863191"><ele>1009.0</ele><time>2026-05-03T12:59:25.921Z</time></trkpt><trkpt lat="38.46537252158239" lon="16.369120446113417"><ele>1007.4285714285714</ele><time>2026-05-03T12:59:32.921Z</time></trkpt><trkpt lat="38.46530952398652" lon="16.369125803338747"><ele>1005.8571428571429</ele><time>2026-05-03T12:59:42.92Z</time></trkpt><trkpt lat="38.46525600592637" lon="16.36908088886899"><ele>1004.2857142857143</ele><time>2026-05-03T13:01:13.919Z</time></trkpt><trkpt lat="38.465205498794504" lon="16.369023030010826"><ele>1002.7142857142858</ele><time>2026-05-03T13:02:46.918Z</time></trkpt><trkpt lat="38.465181507063726" lon="16.368895289839006"><ele>1001.1428571428571</ele><time>2026-05-03T13:04:24.916Z</time></trkpt><trkpt lat="38.465145739220304" lon="16.36882150159659"><ele>999.5714285714287</ele><time>2026-05-03T13:04:58.915Z</time></trkpt><trkpt lat="38.46509461402316" lon="16.368753784921648"><ele>998.0000000000001</ele><time>2026-05-03T13:05:33.915Z</time></trkpt><trkpt lat="38.46508930744735" lon="16.3686709544079"><ele>995.8333333333334</ele><time>2026-05-03T13:07:24.914Z</time></trkpt><trkpt lat="38.46505993267367" lon="16.368587797414012"><ele>993.6666666666667</ele><time>2026-05-03T13:07:46.913Z</time></trkpt><trkpt lat="38.465041013985584" lon="16.36850394783549"><ele>991.5</ele><time>2026-05-03T13:08:50.912Z</time></trkpt><trkpt lat="38.46503434523683" lon="16.368422320119905"><ele>989.3333333333333</ele><time>2026-05-03T13:09:25.911Z</time></trkpt><trkpt lat="38.46504280141453" lon="16.368304395970267"><ele>987.1666666666666</ele><time>2026-05-03T13:11:29.909Z</time></trkpt><trkpt lat="38.46509101807799" lon="16.368252169154427"><ele>985.0</ele><time>2026-05-03T13:12:10.909Z</time></trkpt><trkpt lat="38.46509839279486" lon="16.368108750638367"><ele>985.0</ele><time>2026-05-03T13:12:41.908Z</time></trkpt><trkpt lat="38.46514777301763" lon="16.368053866367365"><ele>985.0000000000001</ele><time>2026-05-03T13:13:03.908Z</time></trkpt><trkpt lat="38.465127312768345" lon="16.36796395457194"><ele>985.0</ele><time>2026-05-03T13:13:33.908Z</time></trkpt><trkpt lat="38.465069419546445" lon="16.367903933174215"><ele>985.0</ele><time>2026-05-03T13:14:57.906Z</time></trkpt><trkpt lat="38.46505582434963" lon="16.367777779294304"><ele>985.0000000000001</ele><time>2026-05-03T13:15:31.906Z</time></trkpt><trkpt lat="38.465009101688544" lon="16.367722684629502"><ele>985.0</ele><time>2026-05-03T13:16:17.905Z</time></trkpt><trkpt lat="38.46502787617906" lon="16.367643370238838"><ele>985.0</ele><time>2026-05-03T13:17:03.904Z</time></trkpt><trkpt lat="38.46503567986704" lon="16.367551499765444"><ele>981.5714285714287</ele><time>2026-05-03T13:18:22.903Z</time></trkpt><trkpt lat="38.46501462310432" lon="16.36763664440601"><ele>978.1428571428572</ele><time>2026-05-03T13:18:52.903Z</time></trkpt><trkpt lat="38.46498775509089" lon="16.367553179407036"><ele>974.7142857142858</ele><time>2026-05-03T13:23:21.899Z</time></trkpt><trkpt lat="38.464934976109774" lon="16.367494044078327"><ele>971.2857142857142</ele><time>2026-05-03T13:23:36.898Z</time></trkpt><trkpt lat="38.4648931344473" lon="16.367417529856798"><ele>967.8571428571428</ele><time>2026-05-03T13:23:46.898Z</time></trkpt><trkpt lat="38.46484163946406" lon="16.367369505772082"><ele>964.4285714285713</ele><time>2026-05-03T13:23:54.898Z</time></trkpt><trkpt lat="38.46478034277485" lon="16.367337057174844"><ele>961.0</ele><time>2026-05-03T13:24:03.898Z</time></trkpt><trkpt lat="38.46471481012904" lon="16.367314308343097"><ele>961.0</ele><time>2026-05-03T13:24:13.897Z</time></trkpt><trkpt lat="38.4646501868192" lon="16.367296761167914"><ele>960.9999999999999</ele><time>2026-05-03T13:24:22.897Z</time></trkpt><trkpt lat="38.4645880232487" lon="16.36725636749872"><ele>961.0</ele><time>2026-05-03T13:24:31.897Z</time></trkpt><trkpt lat="38.46452074567269" lon="16.367239488134366"><ele>961.0</ele><time>2026-05-03T13:24:39.897Z</time></trkpt><trkpt lat="38.46445792078162" lon="16.36724747226525"><ele>960.9999999999999</ele><time>2026-05-03T13:24:52.896Z</time></trkpt><trkpt lat="38.464395361645636" lon="16.367262094477134"><ele>961.0</ele><time>2026-05-03T13:24:59.896Z</time></trkpt><trkpt lat="38.464327051520186" lon="16.36730214552197"><ele>961.0</ele><time>2026-05-03T13:25:08.896Z</time></trkpt><trkpt lat="38.4642754615221" lon="16.36735567679885"><ele>960.0</ele><time>2026-05-03T13:25:16.896Z</time></trkpt><trkpt lat="38.464211860647225" lon="16.36738568394495"><ele>958.9999999999999</ele><time>2026-05-03T13:25:24.896Z</time></trkpt><trkpt lat="38.46414652921003" lon="16.367428563683934"><ele>958.0</ele><time>2026-05-03T13:25:31.896Z</time></trkpt><trkpt lat="38.46408433965416" lon="16.367487345901726"><ele>957.0</ele><time>2026-05-03T13:25:40.896Z</time></trkpt><trkpt lat="38.46402883206706" lon="16.367531705071897"><ele>955.9999999999999</ele><time>2026-05-03T13:25:53.896Z</time></trkpt><trkpt lat="38.46400238534266" lon="16.3676097156599"><ele>955.0</ele><time>2026-05-03T13:26:00.895Z</time></trkpt><trkpt lat="38.46400132422793" lon="16.367706483561488"><ele>954.0</ele><time>2026-05-03T13:27:12.895Z</time></trkpt><trkpt lat="38.463934091854476" lon="16.367720086331456"><ele>954.0</ele><time>2026-05-03T13:27:34.895Z</time></trkpt><trkpt lat="38.46391534239421" lon="16.367801982434806"><ele>953.9999999999999</ele><time>2026-05-03T13:29:10.893Z</time></trkpt><trkpt lat="38.4638552983733" lon="16.367774356194424"><ele>954.0</ele><time>2026-05-03T13:29:59.892Z</time></trkpt><trkpt lat="38.46391978140891" lon="16.36775530769192"><ele>954.0</ele><time>2026-05-03T13:30:47.891Z</time></trkpt><trkpt lat="38.46386657795551" lon="16.367682557336305"><ele>953.9999999999999</ele><time>2026-05-03T13:31:25.89Z</time></trkpt><trkpt lat="38.46380362137588" lon="16.367666201846617"><ele>954.0</ele><time>2026-05-03T13:31:42.89Z</time></trkpt><trkpt lat="38.46381778542543" lon="16.367575917251774"><ele>954.0</ele><time>2026-05-03T13:32:48.888Z</time></trkpt><trkpt lat="38.463834162322456" lon="16.3674931654693"><ele>952.0</ele><time>2026-05-03T13:34:45.886Z</time></trkpt><trkpt lat="38.46374296615694" lon="16.367448085643534"><ele>950.0</ele><time>2026-05-03T13:35:54.885Z</time></trkpt><trkpt lat="38.463686460140536" lon="16.367379620407156"><ele>948.0</ele><time>2026-05-03T13:38:30.883Z</time></trkpt><trkpt lat="38.463627223955456" lon="16.367408405798656"><ele>946.0</ele><time>2026-05-03T13:39:07.882Z</time></trkpt><trkpt lat="38.46358338843434" lon="16.367333261286124"><ele>944.0</ele><time>2026-05-03T13:40:45.881Z</time></trkpt><trkpt lat="38.46357399005077" lon="16.367436039019797"><ele>942.0</ele><time>2026-05-03T13:43:57.877Z</time></trkpt><trkpt lat="38.46364505595256" lon="16.36746473452202"><ele>942.0000000000001</ele><time>2026-05-03T13:44:37.876Z</time></trkpt><trkpt lat="38.463719162805766" lon="16.3674705899764"><ele>942.0</ele><time>2026-05-03T13:45:42.875Z</time></trkpt><trkpt lat="38.463771254612396" lon="16.367522989022504"><ele>942.0000000000001</ele><time>2026-05-03T13:46:34.874Z</time></trkpt><trkpt lat="38.46378047137453" lon="16.36761394646768"><ele>942.0000000000001</ele><time>2026-05-03T13:47:05.874Z</time></trkpt><trkpt lat="38.4638315049158" lon="16.36766445977262"><ele>942.0</ele><time>2026-05-03T13:47:13.874Z</time></trkpt><trkpt lat="38.463891836086404" lon="16.367709033397247"><ele>942.0000000000001</ele><time>2026-05-03T13:47:42.873Z</time></trkpt><trkpt lat="38.46389302537711" lon="16.367794710276822"><ele>942.0000000000001</ele><time>2026-05-03T13:47:51.873Z</time></trkpt><trkpt lat="38.46395231734776" lon="16.367767054173168"><ele>942.0000000000001</ele><time>2026-05-03T13:48:05.873Z</time></trkpt><trkpt lat="38.464008339418776" lon="16.367827190409656"><ele>942.0</ele><time>2026-05-03T13:48:24.873Z</time></trkpt><trkpt lat="38.46393595491493" lon="16.367855024493082"><ele>942.0000000000001</ele><time>2026-05-03T13:48:40.872Z</time></trkpt><trkpt lat="38.463873393768694" lon="16.367839671970092"><ele>942.0000000000001</ele><time>2026-05-03T13:48:51.872Z</time></trkpt><trkpt lat="38.46380076156202" lon="16.367824677745645"><ele>942.0</ele><time>2026-05-03T13:49:00.872Z</time></trkpt><trkpt lat="38.46372943281064" lon="16.36783218770525"><ele>942.0000000000001</ele><time>2026-05-03T13:49:08.872Z</time></trkpt><trkpt lat="38.463674211837045" lon="16.36788230995308"><ele>942.0000000000001</ele><time>2026-05-03T13:49:17.872Z</time></trkpt><trkpt lat="38.46373182286167" lon="16.367931280195855"><ele>942.0000000000001</ele><time>2026-05-03T13:49:56.871Z</time></trkpt><trkpt lat="38.463804718674446" lon="16.36791323289911"><ele>942.0</ele><time>2026-05-03T13:50:05.871Z</time></trkpt><trkpt lat="38.46387155083169" lon="16.367939142590384"><ele>942.0000000000001</ele><time>2026-05-03T13:50:12.871Z</time></trkpt><trkpt lat="38.46393966849856" lon="16.36791722387051"><ele>942.0000000000001</ele><time>2026-05-03T13:50:20.871Z</time></trkpt><trkpt lat="38.46394137407414" lon="16.36783271911085"><ele>942.0</ele><time>2026-05-03T13:51:54.846Z</time></trkpt><trkpt lat="38.463876097160316" lon="16.367827116246573"><ele>942.0000000000001</ele><time>2026-05-03T13:52:06.845Z</time></trkpt><trkpt lat="38.463814178229434" lon="16.36784316249137"><ele>942.0000000000001</ele><time>2026-05-03T13:52:12.845Z</time></trkpt><trkpt lat="38.46374448000854" lon="16.367857195878365"><ele>942.0000000000001</ele><time>2026-05-03T13:52:20.845Z</time></trkpt><trkpt lat="38.46367921643908" lon="16.367890673744373"><ele>942.0</ele><time>2026-05-03T13:52:28.844Z</time></trkpt><trkpt lat="38.463600249465095" lon="16.36797046780469"><ele>942.0000000000001</ele><time>2026-05-03T13:54:54.841Z</time></trkpt><trkpt lat="38.463548706573796" lon="16.368016654538888"><ele>942.0000000000001</ele><time>2026-05-03T13:56:47.839Z</time></trkpt><trkpt lat="38.463520942948016" lon="16.368089215015296"><ele>942.0</ele><time>2026-05-03T13:56:58.838Z</time></trkpt><trkpt lat="38.463478993443196" lon="16.36815612220241"><ele>942.0000000000001</ele><time>2026-05-03T14:00:01.834Z</time></trkpt><trkpt lat="38.46342636174388" lon="16.36822568519055"><ele>942.0000000000001</ele><time>2026-05-03T14:01:37.833Z</time></trkpt><trkpt lat="38.463361445445905" lon="16.368239043942726"><ele>943.5714285714287</ele><time>2026-05-03T14:03:12.831Z</time></trkpt><trkpt lat="38.46335658287943" lon="16.36832070635958"><ele>945.1428571428571</ele><time>2026-05-03T14:04:46.829Z</time></trkpt><trkpt lat="38.4634162828411" lon="16.36834730252276"><ele>946.7142857142858</ele><time>2026-05-03T14:08:26.824Z</time></trkpt><trkpt lat="38.46342664983833" lon="16.3684367068356"><ele>948.2857142857143</ele><time>2026-05-03T14:10:07.822Z</time></trkpt><trkpt lat="38.46337437265984" lon="16.368518493938364"><ele>949.8571428571429</ele><time>2026-05-03T14:10:55.822Z</time></trkpt><trkpt lat="38.46335746662354" lon="16.368607548813802"><ele>951.4285714285714</ele><time>2026-05-03T14:12:20.82Z</time></trkpt><trkpt lat="38.463376107646894" lon="16.3686918123125"><ele>953.0</ele><time>2026-05-03T14:13:00.818Z</time></trkpt><trkpt lat="38.463389798524055" lon="16.368775516754386"><ele>953.0</ele><time>2026-05-03T14:13:22.814Z</time></trkpt><trkpt lat="38.46342345579695" lon="16.36885166323035"><ele>953.0</ele><time>2026-05-03T14:14:18.813Z</time></trkpt><trkpt lat="38.46344514211424" lon="16.36894536168745"><ele>953.0</ele><time>2026-05-03T14:14:48.812Z</time></trkpt><trkpt lat="38.463419639471155" lon="16.369023060603446"><ele>953.0</ele><time>2026-05-03T14:15:26.812Z</time></trkpt><trkpt lat="38.46341352621073" lon="16.36910539760309"><ele>953.0</ele><time>2026-05-03T14:15:46.811Z</time></trkpt><trkpt lat="38.4633616895882" lon="16.36916338704698"><ele>953.0</ele><time>2026-05-03T14:19:40.806Z</time></trkpt><trkpt lat="38.4633729751332" lon="16.369252900889226"><ele>953.0</ele><time>2026-05-03T14:20:52.805Z</time></trkpt><trkpt lat="38.46339074368469" lon="16.36933157642924"><ele>952.0</ele><time>2026-05-03T14:21:26.804Z</time></trkpt><trkpt lat="38.463402632307414" lon="16.369411993393495"><ele>951.0</ele><time>2026-05-03T14:24:11.801Z</time></trkpt><trkpt lat="38.46340976470365" lon="16.36950728686591"><ele>950.0</ele><time>2026-05-03T14:24:23.801Z</time></trkpt><trkpt lat="38.46340023117508" lon="16.369619122047883"><ele>949.0</ele><time>2026-05-03T14:25:27.8Z</time></trkpt><trkpt lat="38.463435838804585" lon="16.3695513671364"><ele>948.0</ele><time>2026-05-03T14:28:04.797Z</time></trkpt><trkpt lat="38.463428955027325" lon="16.369469977755248"><ele>947.0</ele><time>2026-05-03T14:28:12.797Z</time></trkpt><trkpt lat="38.463456081547605" lon="16.369385019337646"><ele>946.0</ele><time>2026-05-03T14:28:54.796Z</time></trkpt><trkpt lat="38.46339191315528" lon="16.36935438945923"><ele>945.9999999999999</ele><time>2026-05-03T14:29:40.795Z</time></trkpt><trkpt lat="38.46341910258767" lon="16.3692693744439"><ele>946.0</ele><time>2026-05-03T14:30:49.794Z</time></trkpt><trkpt lat="38.463437761098454" lon="16.369185724774958"><ele>946.0</ele><time>2026-05-03T14:33:02.791Z</time></trkpt><trkpt lat="38.4634584843624" lon="16.36910283563472"><ele>946.0</ele><time>2026-05-03T14:34:46.788Z</time></trkpt><trkpt lat="38.46353405022304" lon="16.369163656930095"><ele>945.9999999999999</ele><time>2026-05-03T14:35:48.788Z</time></trkpt><trkpt lat="38.46358750657411" lon="16.36907474443998"><ele>946.0</ele><time>2026-05-03T14:36:54.786Z</time></trkpt><trkpt lat="38.46356586182649" lon="16.368974084630864"><ele>946.0</ele><time>2026-05-03T14:37:32.786Z</time></trkpt><trkpt lat="38.46354831184927" lon="16.36888600134282"><ele>946.0</ele><time>2026-05-03T14:37:58.786Z</time></trkpt><trkpt lat="38.463537625254204" lon="16.368798898137488"><ele>946.0</ele><time>2026-05-03T14:38:05.785Z</time></trkpt><trkpt lat="38.46350976108796" lon="16.368725235665"><ele>946.0</ele><time>2026-05-03T14:38:12.785Z</time></trkpt><trkpt lat="38.46347719035864" lon="16.36864456850828"><ele>946.0</ele><time>2026-05-03T14:38:20.785Z</time></trkpt><trkpt lat="38.46347898487478" lon="16.368554090801"><ele>946.0</ele><time>2026-05-03T14:38:28.785Z</time></trkpt><trkpt lat="38.46349011785063" lon="16.36847427074248"><ele>946.0</ele><time>2026-05-03T14:38:35.785Z</time></trkpt><trkpt lat="38.46346271199445" lon="16.368387129704164"><ele>947.0</ele><time>2026-05-03T14:38:57.784Z</time></trkpt><trkpt lat="38.463449193680454" lon="16.36829299712607"><ele>948.0</ele><time>2026-05-03T14:39:10.784Z</time></trkpt><trkpt lat="38.46347177067706" lon="16.368215107511997"><ele>949.0</ele><time>2026-05-03T14:39:20.784Z</time></trkpt><trkpt lat="38.46353251124986" lon="16.368238444049002"><ele>950.0</ele><time>2026-05-03T14:39:33.784Z</time></trkpt><trkpt lat="38.46359421934482" lon="16.368285776546564"><ele>951.0</ele><time>2026-05-03T14:39:44.783Z</time></trkpt><trkpt lat="38.463631273990494" lon="16.368358619880137"><ele>952.0</ele><time>2026-05-03T14:39:58.783Z</time></trkpt><trkpt lat="38.46364835471666" lon="16.368437185738586"><ele>953.0</ele><time>2026-05-03T14:40:08.782Z</time></trkpt><trkpt lat="38.46365065902323" lon="16.368527257367447"><ele>953.0000000000001</ele><time>2026-05-03T14:40:22.782Z</time></trkpt><trkpt lat="38.46368114510772" lon="16.36860444671143"><ele>953.0</ele><time>2026-05-03T14:40:31.782Z</time></trkpt><trkpt lat="38.46369518189736" lon="16.36869330853485"><ele>953.0</ele><time>2026-05-03T14:40:40.782Z</time></trkpt><trkpt lat="38.46376482917061" lon="16.368788376887828"><ele>953.0</ele><time>2026-05-03T14:41:09.781Z</time></trkpt><trkpt lat="38.46382692527216" lon="16.368774118999916"><ele>953.0000000000001</ele><time>2026-05-03T14:41:18.781Z</time></trkpt><trkpt lat="38.46389305132975" lon="16.368721721658"><ele>953.0</ele><time>2026-05-03T14:41:30.781Z</time></trkpt><trkpt lat="38.46395266287955" lon="16.368640837333935"><ele>955.8571428571429</ele><time>2026-05-03T14:42:42.78Z</time></trkpt><trkpt lat="38.46400947350555" lon="16.36859305741832"><ele>958.7142857142857</ele><time>2026-05-03T14:42:53.78Z</time></trkpt><trkpt lat="38.46407971671313" lon="16.368579823434626"><ele>961.5714285714286</ele><time>2026-05-03T14:43:17.779Z</time></trkpt><trkpt lat="38.46413619179522" lon="16.3685296566857"><ele>964.4285714285714</ele><time>2026-05-03T14:43:29.779Z</time></trkpt><trkpt lat="38.46420092679058" lon="16.368527930933713"><ele>967.2857142857142</ele><time>2026-05-03T14:43:41.779Z</time></trkpt><trkpt lat="38.46425523292501" lon="16.36846600488417"><ele>970.1428571428571</ele><time>2026-05-03T14:43:50.778Z</time></trkpt><trkpt lat="38.464352156215" lon="16.368431124450783"><ele>973.0</ele><time>2026-05-03T14:44:05.777Z</time></trkpt><trkpt lat="38.46443482547893" lon="16.368399754524823"><ele>973.0</ele><time>2026-05-03T14:44:34.777Z</time></trkpt><trkpt lat="38.464492341399456" lon="16.368366288477578"><ele>973.0</ele><time>2026-05-03T14:44:43.776Z</time></trkpt><trkpt lat="38.464552897509535" lon="16.368328167728144"><ele>973.0</ele><time>2026-05-03T14:45:19.776Z</time></trkpt><trkpt lat="38.464612710719855" lon="16.368383763691643"><ele>973.0</ele><time>2026-05-03T14:45:48.775Z</time></trkpt><trkpt lat="38.46465362088711" lon="16.368456432769197"><ele>973.0</ele><time>2026-05-03T14:46:08.775Z</time></trkpt><trkpt lat="38.46467495775425" lon="16.368542485796244"><ele>973.0</ele><time>2026-05-03T14:46:21.775Z</time></trkpt><trkpt lat="38.464700346972" lon="16.368629969302994"><ele>973.0</ele><time>2026-05-03T14:46:33.775Z</time></trkpt><trkpt lat="38.464719992384666" lon="16.36870809118071"><ele>974.7142857142858</ele><time>2026-05-03T14:46:41.774Z</time></trkpt><trkpt lat="38.464733831122416" lon="16.368796540541727"><ele>976.4285714285714</ele><time>2026-05-03T14:46:52.774Z</time></trkpt><trkpt lat="38.464709330145105" lon="16.368871325566747"><ele>978.1428571428571</ele><time>2026-05-03T14:47:01.774Z</time></trkpt><trkpt lat="38.46473350421322" lon="16.36895898265275"><ele>979.8571428571429</ele><time>2026-05-03T14:47:21.774Z</time></trkpt><trkpt lat="38.464750907198614" lon="16.369049915533296"><ele>981.5714285714287</ele><time>2026-05-03T14:47:30.773Z</time></trkpt><trkpt lat="38.464766531134934" lon="16.369132393738372"><ele>983.2857142857143</ele><time>2026-05-03T14:47:38.773Z</time></trkpt><trkpt lat="38.46481481797946" lon="16.369186190791403"><ele>985.0</ele><time>2026-05-03T14:47:49.773Z</time></trkpt><trkpt lat="38.46488329547639" lon="16.36919466574732"><ele>986.8571428571429</ele><time>2026-05-03T14:48:06.773Z</time></trkpt><trkpt lat="38.46494399359563" lon="16.36922761701049"><ele>988.7142857142858</ele><time>2026-05-03T14:48:15.772Z</time></trkpt><trkpt lat="38.46500167664735" lon="16.36925989914531"><ele>990.5714285714287</ele><time>2026-05-03T14:48:22.772Z</time></trkpt><trkpt lat="38.465065569816325" lon="16.36926251841511"><ele>992.4285714285716</ele><time>2026-05-03T14:48:31.772Z</time></trkpt><trkpt lat="38.465111387311346" lon="16.369205018699926"><ele>994.2857142857143</ele><time>2026-05-03T14:49:08.771Z</time></trkpt><trkpt lat="38.46517463451443" lon="16.36919376200336"><ele>996.1428571428573</ele><time>2026-05-03T14:49:27.771Z</time></trkpt><trkpt lat="38.46526597625892" lon="16.369111895601282"><ele>998.0000000000001</ele><time>2026-05-03T14:50:23.77Z</time></trkpt><trkpt lat="38.465335596785394" lon="16.36912852882611"><ele>998.0000000000001</ele><time>2026-05-03T14:50:35.77Z</time></trkpt><trkpt lat="38.46539885477669" lon="16.369138775673473"><ele>998.0</ele><time>2026-05-03T14:50:44.77Z</time></trkpt><trkpt lat="38.465468247495735" lon="16.36914969846043"><ele>998.0000000000001</ele><time>2026-05-03T14:50:55.769Z</time></trkpt><trkpt lat="38.46553122043517" lon="16.3691395647278"><ele>998.0000000000001</ele><time>2026-05-03T14:51:03.769Z</time></trkpt><trkpt lat="38.46560835909466" lon="16.369117657880864"><ele>998.0</ele><time>2026-05-03T14:51:12.769Z</time></trkpt><trkpt lat="38.46567314699855" lon="16.369112175965544"><ele>998.0000000000001</ele><time>2026-05-03T14:51:42.768Z</time></trkpt><trkpt lat="38.46573612658053" lon="16.369094577693907"><ele>998.0000000000001</ele><time>2026-05-03T14:51:49.768Z</time></trkpt><trkpt lat="38.46579994213606" lon="16.369078794654342"><ele>999.8333333333334</ele><time>2026-05-03T14:51:57.768Z</time></trkpt><trkpt lat="38.46586454429754" lon="16.369073862144624"><ele>1001.6666666666667</ele><time>2026-05-03T14:52:04.768Z</time></trkpt><trkpt lat="38.46591188590781" lon="16.369179918331508"><ele>1003.5</ele><time>2026-05-03T14:53:28.767Z</time></trkpt><trkpt lat="38.465972086995826" lon="16.369210725519707"><ele>1005.3333333333333</ele><time>2026-05-03T14:59:04.76Z</time></trkpt><trkpt lat="38.46602808369009" lon="16.36929641539027"><ele>1007.1666666666666</ele><time>2026-05-03T14:59:07.76Z</time></trkpt><trkpt lat="38.46608941756916" lon="16.369352189789755"><ele>1009.0</ele><time>2026-05-03T14:59:10.76Z</time></trkpt><trkpt lat="38.46613603474857" lon="16.36940691130155"><ele>1009.0</ele><time>2026-05-03T14:59:12.76Z</time></trkpt><trkpt lat="38.46619125099798" lon="16.369474016545446"><ele>1009.0</ele><time>2026-05-03T14:59:15.76Z</time></trkpt><trkpt lat="38.466242825059766" lon="16.369525592755938"><ele>1009.0</ele><time>2026-05-03T14:59:18.76Z</time></trkpt><trkpt lat="38.46630099660152" lon="16.369578740670168"><ele>1009.0</ele><time>2026-05-03T14:59:21.76Z</time></trkpt><trkpt lat="38.466360779596265" lon="16.36960803222106"><ele>1009.0</ele><time>2026-05-03T14:59:24.76Z</time></trkpt><trkpt lat="38.46643198834057" lon="16.369649842066504"><ele>1009.0</ele><time>2026-05-03T14:59:27.76Z</time></trkpt><trkpt lat="38.46651599606786" lon="16.369645978407934"><ele>1009.0</ele><time>2026-05-03T14:59:31.76Z</time></trkpt><trkpt lat="38.466597529208435" lon="16.3696330641019"><ele>1009.1428571428571</ele><time>2026-05-03T14:59:35.76Z</time></trkpt><trkpt lat="38.46666589588046" lon="16.369641408117136"><ele>1009.2857142857142</ele><time>2026-05-03T14:59:39.76Z</time></trkpt><trkpt lat="38.466727265278564" lon="16.369676105282217"><ele>1009.4285714285713</ele><time>2026-05-03T14:59:47.759Z</time></trkpt><trkpt lat="38.46678907657998" lon="16.369697443423732"><ele>1009.5714285714286</ele><time>2026-05-03T14:59:50.759Z</time></trkpt><trkpt lat="38.466851297338174" lon="16.369718863562476"><ele>1009.7142857142856</ele><time>2026-05-03T14:59:52.759Z</time></trkpt><trkpt lat="38.466929288537074" lon="16.36966591350058"><ele>1009.8571428571428</ele><time>2026-05-03T14:59:55.759Z</time></trkpt><trkpt lat="38.466996947525786" lon="16.369632024896823"><ele>1010.0</ele><time>2026-05-03T14:59:58.759Z</time></trkpt><trkpt lat="38.46707178445629" lon="16.369616825000325"><ele>1010.8333333333334</ele><time>2026-05-03T15:00:36.759Z</time></trkpt><trkpt lat="38.46714505308484" lon="16.369622977128678"><ele>1011.6666666666667</ele><time>2026-05-03T15:00:39.759Z</time></trkpt><trkpt lat="38.46721333914596" lon="16.369651472811867"><ele>1012.5</ele><time>2026-05-03T15:00:42.758Z</time></trkpt><trkpt lat="38.46729630385822" lon="16.36970146762629"><ele>1013.3333333333333</ele><time>2026-05-03T15:00:45.758Z</time></trkpt><trkpt lat="38.4673601476725" lon="16.36974008589764"><ele>1014.1666666666666</ele><time>2026-05-03T15:01:40.757Z</time></trkpt><trkpt lat="38.46740864090321" lon="16.36979282136416"><ele>1015.0</ele><time>2026-05-03T15:01:42.757Z</time></trkpt><trkpt lat="38.46747730585073" lon="16.36986352634921"><ele>1015.0</ele><time>2026-05-03T15:01:45.757Z</time></trkpt><trkpt lat="38.46753430165827" lon="16.369924763977984"><ele>1015.0</ele><time>2026-05-03T15:01:53.757Z</time></trkpt><trkpt lat="38.467588765148896" lon="16.369982087913073"><ele>1015.0</ele><time>2026-05-03T15:01:57.757Z</time></trkpt><trkpt lat="38.46763715382682" lon="16.370056855579406"><ele>1015.0</ele><time>2026-05-03T15:02:03.757Z</time></trkpt><trkpt lat="38.467674897514264" lon="16.37012230524993"><ele>1015.0</ele><time>2026-05-03T15:02:06.757Z</time></trkpt><trkpt lat="38.4676935115364" lon="16.370212095830578"><ele>1015.0</ele><time>2026-05-03T15:02:09.757Z</time></trkpt><trkpt lat="38.46769077784371" lon="16.370293026406102"><ele>1015.0</ele><time>2026-05-03T15:02:11.757Z</time></trkpt><trkpt lat="38.46768505797934" lon="16.370390460069245"><ele>1015.0</ele><time>2026-05-03T15:02:13.757Z</time></trkpt><trkpt lat="38.4676669428294" lon="16.370493868285074"><ele>1015.0</ele><time>2026-05-03T15:02:15.757Z</time></trkpt><trkpt lat="38.467650660630916" lon="16.370621069681988"><ele>1015.0</ele><time>2026-05-03T15:02:17.757Z</time></trkpt><trkpt lat="38.46769460517518" lon="16.370737458180084"><ele>1015.0</ele><time>2026-05-03T15:02:19.757Z</time></trkpt><trkpt lat="38.46775312854257" lon="16.370822194302047"><ele>1015.0</ele><time>2026-05-03T15:02:21.757Z</time></trkpt><trkpt lat="38.46783077812992" lon="16.370895684231616"><ele>1014.0</ele><time>2026-05-03T15:02:23.757Z</time></trkpt><trkpt lat="38.46789130601682" lon="16.37098021784951"><ele>1013.0</ele><time>2026-05-03T15:02:25.757Z</time></trkpt><trkpt lat="38.46795828057135" lon="16.371062557357742"><ele>1012.0</ele><time>2026-05-03T15:02:27.757Z</time></trkpt><trkpt lat="38.46804875313604" lon="16.37113406204211"><ele>1011.0</ele><time>2026-05-03T15:02:29.756Z</time></trkpt><trkpt lat="38.46813170544341" lon="16.37118239539118"><ele>1010.0</ele><time>2026-05-03T15:02:31.756Z</time></trkpt><trkpt lat="38.46821899170265" lon="16.37119360815931"><ele>1013.6666666666667</ele><time>2026-05-03T15:02:33.756Z</time></trkpt><trkpt lat="38.468294813403254" lon="16.371246396519503"><ele>1017.3333333333334</ele><time>2026-05-03T15:02:35.756Z</time></trkpt><trkpt lat="38.46829705197728" lon="16.371359169263354"><ele>1021.0</ele><time>2026-05-03T15:02:38.756Z</time></trkpt><trkpt lat="38.4682364860391" lon="16.37139196838337"><ele>1024.6666666666667</ele><time>2026-05-03T15:02:40.756Z</time></trkpt><trkpt lat="38.46816595724809" lon="16.371435089152925"><ele>1028.3333333333333</ele><time>2026-05-03T15:02:42.756Z</time></trkpt><trkpt lat="38.468126269821965" lon="16.37153553808679"><ele>1032.0</ele><time>2026-05-03T15:02:44.757Z</time></trkpt><trkpt lat="38.468074751236685" lon="16.37160577517171"><ele>1032.5714285714284</ele><time>2026-05-03T15:02:46.756Z</time></trkpt><trkpt lat="38.46801729069127" lon="16.371642335570755"><ele>1033.142857142857</ele><time>2026-05-03T15:02:48.756Z</time></trkpt><trkpt lat="38.46796358626877" lon="16.371689078796745"><ele>1033.7142857142858</ele><time>2026-05-03T15:02:50.756Z</time></trkpt><trkpt lat="38.46791252886637" lon="16.37176321908518"><ele>1034.2857142857142</ele><time>2026-05-03T15:04:27.755Z</time></trkpt><trkpt lat="38.467871622702106" lon="16.371855549473395"><ele>1034.857142857143</ele><time>2026-05-03T15:04:31.755Z</time></trkpt><trkpt lat="38.46784351435758" lon="16.371937291421418"><ele>1035.4285714285713</ele><time>2026-05-03T15:04:34.754Z</time></trkpt><trkpt lat="38.46785016574482" lon="16.372050690281537"><ele>1036.0</ele><time>2026-05-03T15:04:37.754Z</time></trkpt><trkpt lat="38.46788230688166" lon="16.372127621529437"><ele>1033.6666666666665</ele><time>2026-05-03T15:04:39.754Z</time></trkpt><trkpt lat="38.467897537110716" lon="16.372215857363848"><ele>1031.3333333333333</ele><time>2026-05-03T15:04:41.754Z</time></trkpt><trkpt lat="38.467835029567695" lon="16.372295689342028"><ele>1029.0</ele><time>2026-05-03T15:04:44.754Z</time></trkpt><trkpt lat="38.46776862810659" lon="16.372353339670614"><ele>1026.6666666666667</ele><time>2026-05-03T15:04:46.754Z</time></trkpt><trkpt lat="38.46773711281536" lon="16.372443122401748"><ele>1024.3333333333335</ele><time>2026-05-03T15:04:48.754Z</time></trkpt><trkpt lat="38.467732019474546" lon="16.372525015888936"><ele>1022.0</ele><time>2026-05-03T15:04:50.754Z</time></trkpt><trkpt lat="38.4677059575272" lon="16.37261234654875"><ele>1022.0</ele><time>2026-05-03T15:04:53.754Z</time></trkpt><trkpt lat="38.46765712166925" lon="16.37269834523388"><ele>1022.0</ele><time>2026-05-03T15:04:56.754Z</time></trkpt><trkpt lat="38.46762070284919" lon="16.37277595274102"><ele>1022.0</ele><time>2026-05-03T15:04:59.754Z</time></trkpt><trkpt lat="38.467585784279194" lon="16.372856913078987"><ele>1022.0</ele><time>2026-05-03T15:05:01.754Z</time></trkpt><trkpt lat="38.46756979173208" lon="16.372941669714038"><ele>1022.0</ele><time>2026-05-03T15:05:03.754Z</time></trkpt><trkpt lat="38.4675477364273" lon="16.373025041473273"><ele>1022.0</ele><time>2026-05-03T15:05:05.754Z</time></trkpt><trkpt lat="38.46750878770493" lon="16.373098472328042"><ele>1022.0</ele><time>2026-05-03T15:05:07.754Z</time></trkpt><trkpt lat="38.46746141395378" lon="16.373151673650753"><ele>1024.1666666666667</ele><time>2026-05-03T15:05:09.754Z</time></trkpt><trkpt lat="38.467393688989596" lon="16.373213883456916"><ele>1026.3333333333335</ele><time>2026-05-03T15:05:12.754Z</time></trkpt><trkpt lat="38.467320587335216" lon="16.373267802322797"><ele>1028.5</ele><time>2026-05-03T15:05:15.754Z</time></trkpt><trkpt lat="38.467242111710775" lon="16.373307514058055"><ele>1030.6666666666667</ele><time>2026-05-03T15:05:18.754Z</time></trkpt><trkpt lat="38.467167307662564" lon="16.37333872643555"><ele>1032.8333333333333</ele><time>2026-05-03T15:05:20.754Z</time></trkpt><trkpt lat="38.46709136893838" lon="16.373372286945806"><ele>1035.0</ele><time>2026-05-03T15:05:22.754Z</time></trkpt><trkpt lat="38.46701267077596" lon="16.373449968040013"><ele>1035.0</ele><time>2026-05-03T15:05:24.754Z</time></trkpt><trkpt lat="38.4669365173949" lon="16.373530272114603"><ele>1035.0</ele><time>2026-05-03T15:05:26.754Z</time></trkpt><trkpt lat="38.466884132702575" lon="16.373599824985657"><ele>1035.0</ele><time>2026-05-03T15:05:28.754Z</time></trkpt><trkpt lat="38.466826481369154" lon="16.373663965837903"><ele>1035.0</ele><time>2026-05-03T15:05:30.754Z</time></trkpt><trkpt lat="38.466771663007755" lon="16.373726815234868"><ele>1035.0</ele><time>2026-05-03T15:05:32.754Z</time></trkpt><trkpt lat="38.46671209853903" lon="16.373801909569483"><ele>1035.0</ele><time>2026-05-03T15:05:34.754Z</time></trkpt><trkpt lat="38.466664214685714" lon="16.373867657512516"><ele>1035.3333333333333</ele><time>2026-05-03T15:05:36.754Z</time></trkpt><trkpt lat="38.46661426127783" lon="16.373945220981813"><ele>1035.6666666666667</ele><time>2026-05-03T15:05:38.753Z</time></trkpt><trkpt lat="38.46658421278386" lon="16.374029921699186"><ele>1036.0</ele><time>2026-05-03T15:05:40.753Z</time></trkpt><trkpt lat="38.46661733061843" lon="16.37411987964964"><ele>1036.3333333333335</ele><time>2026-05-03T15:05:43.753Z</time></trkpt><trkpt lat="38.46668267395321" lon="16.374145876576048"><ele>1036.6666666666667</ele><time>2026-05-03T15:05:45.753Z</time></trkpt><trkpt lat="38.466766228611746" lon="16.374162462409195"><ele>1037.0</ele><time>2026-05-03T15:05:48.753Z</time></trkpt><trkpt lat="38.466853899205" lon="16.3741791199217"><ele>1037.0</ele><time>2026-05-03T15:05:51.753Z</time></trkpt><trkpt lat="38.466919051336326" lon="16.37418092329912"><ele>1037.0</ele><time>2026-05-03T15:05:53.753Z</time></trkpt><trkpt lat="38.467007652927364" lon="16.374211690377326"><ele>1037.0</ele><time>2026-05-03T15:05:56.753Z</time></trkpt><trkpt lat="38.46707816292752" lon="16.37422050047035"><ele>1037.0</ele><time>2026-05-03T15:05:58.753Z</time></trkpt><trkpt lat="38.46715393872266" lon="16.37422810077468"><ele>1037.0</ele><time>2026-05-03T15:06:00.753Z</time></trkpt><trkpt lat="38.4672323853423" lon="16.374241713421394"><ele>1037.0</ele><time>2026-05-03T15:06:02.753Z</time></trkpt><trkpt lat="38.467304098765894" lon="16.374277532701615"><ele>1037.857142857143</ele><time>2026-05-03T15:06:04.753Z</time></trkpt><trkpt lat="38.46736482304615" lon="16.374328189425"><ele>1038.7142857142858</ele><time>2026-05-03T15:06:06.753Z</time></trkpt><trkpt lat="38.467419621952075" lon="16.374380731656952"><ele>1039.5714285714284</ele><time>2026-05-03T15:06:08.753Z</time></trkpt><trkpt lat="38.46748979065818" lon="16.374435717135"><ele>1040.4285714285716</ele><time>2026-05-03T15:06:10.753Z</time></trkpt><trkpt lat="38.46754701588944" lon="16.37447348283731"><ele>1041.2857142857142</ele><time>2026-05-03T15:06:13.753Z</time></trkpt><trkpt lat="38.467593279341095" lon="16.374566088576106"><ele>1042.142857142857</ele><time>2026-05-03T15:06:23.753Z</time></trkpt><trkpt lat="38.467555116896804" lon="16.37463928370605"><ele>1043.0</ele><time>2026-05-03T15:06:28.752Z</time></trkpt><trkpt lat="38.46748649240037" lon="16.374638624803524"><ele>1043.0</ele><time>2026-05-03T15:06:33.752Z</time></trkpt><trkpt lat="38.46741776656414" lon="16.374636887479333"><ele>1043.0</ele><time>2026-05-03T15:06:36.752Z</time></trkpt><trkpt lat="38.46735205266063" lon="16.37467588971341"><ele>1043.0</ele><time>2026-05-03T15:06:40.752Z</time></trkpt><trkpt lat="38.46730725969022" lon="16.3747416364208"><ele>1043.0</ele><time>2026-05-03T15:06:43.752Z</time></trkpt><trkpt lat="38.46725396230246" lon="16.37478946906783"><ele>1043.0</ele><time>2026-05-03T15:06:47.752Z</time></trkpt><trkpt lat="38.46718957127261" lon="16.374807696252763"><ele>1043.0</ele><time>2026-05-03T15:06:50.752Z</time></trkpt><trkpt lat="38.467119602860635" lon="16.374809989167577"><ele>1043.0</ele><time>2026-05-03T15:06:53.752Z</time></trkpt><trkpt lat="38.46703903969801" lon="16.37481728237089"><ele>1042.8333333333335</ele><time>2026-05-03T15:06:56.751Z</time></trkpt><trkpt lat="38.46697654366623" lon="16.374846933489398"><ele>1042.6666666666667</ele><time>2026-05-03T15:06:58.752Z</time></trkpt><trkpt lat="38.466913074331835" lon="16.374893514896392"><ele>1042.5</ele><time>2026-05-03T15:07:00.752Z</time></trkpt><trkpt lat="38.46684363339825" lon="16.374980808137167"><ele>1042.3333333333333</ele><time>2026-05-03T15:07:03.751Z</time></trkpt><trkpt lat="38.46679905539139" lon="16.375047128041015"><ele>1042.1666666666665</ele><time>2026-05-03T15:07:05.752Z</time></trkpt><trkpt lat="38.46671668090202" lon="16.375081515451512"><ele>1042.0</ele><time>2026-05-03T15:07:08.752Z</time></trkpt><trkpt lat="38.466628493465684" lon="16.375085529700783"><ele>1042.0</ele><time>2026-05-03T15:07:11.752Z</time></trkpt><trkpt lat="38.46656020196112" lon="16.37509394149028"><ele>1042.0</ele><time>2026-05-03T15:07:14.752Z</time></trkpt><trkpt lat="38.46651785672085" lon="16.375162199508214"><ele>1042.0</ele><time>2026-05-03T15:07:17.752Z</time></trkpt><trkpt lat="38.46645538166636" lon="16.375237146491443"><ele>1042.0</ele><time>2026-05-03T15:07:20.751Z</time></trkpt><trkpt lat="38.46638504950437" lon="16.375310193241088"><ele>1042.0</ele><time>2026-05-03T15:07:23.751Z</time></trkpt><trkpt lat="38.46630558837817" lon="16.375363201898647"><ele>1042.0</ele><time>2026-05-03T15:07:26.751Z</time></trkpt><trkpt lat="38.466235275844895" lon="16.375419007021602"><ele>1041.0</ele><time>2026-05-03T15:07:29.751Z</time></trkpt><trkpt lat="38.46617445679535" lon="16.37547507135106"><ele>1040.0</ele><time>2026-05-03T15:07:32.751Z</time></trkpt><trkpt lat="38.466094514998524" lon="16.375511205749046"><ele>1039.0</ele><time>2026-05-03T15:07:35.751Z</time></trkpt><trkpt lat="38.46601462624259" lon="16.375536157000735"><ele>1038.0</ele><time>2026-05-03T15:07:38.751Z</time></trkpt><trkpt lat="38.46592529423621" lon="16.375585198046977"><ele>1037.0</ele><time>2026-05-03T15:07:42.751Z</time></trkpt><trkpt lat="38.46586718147105" lon="16.375617351637082"><ele>1036.0</ele><time>2026-05-03T15:07:44.751Z</time></trkpt><trkpt lat="38.46581979683326" lon="16.375673288961696"><ele>1038.8333333333333</ele><time>2026-05-03T15:07:46.751Z</time></trkpt><trkpt lat="38.46576248285321" lon="16.375743652415448"><ele>1041.6666666666665</ele><time>2026-05-03T15:07:49.751Z</time></trkpt><trkpt lat="38.46570860932936" lon="16.37580823545988"><ele>1044.5</ele><time>2026-05-03T15:07:52.751Z</time></trkpt><trkpt lat="38.46565458492207" lon="16.375891098031992"><ele>1047.3333333333333</ele><time>2026-05-03T15:07:55.751Z</time></trkpt><trkpt lat="38.465599788438425" lon="16.37596114701169"><ele>1050.1666666666667</ele><time>2026-05-03T15:07:58.751Z</time></trkpt><trkpt lat="38.46553872947832" lon="16.37605144555603"><ele>1053.0</ele><time>2026-05-03T15:08:01.747Z</time></trkpt><trkpt lat="38.465497409029126" lon="16.376138350650585"><ele>1052.9999999999998</ele><time>2026-05-03T15:08:04.742Z</time></trkpt><trkpt lat="38.46553148148554" lon="16.376216023040566"><ele>1053.0</ele><time>2026-05-03T15:08:09.736Z</time></trkpt><trkpt lat="38.465602197479335" lon="16.376212975919653"><ele>1053.0</ele><time>2026-05-03T15:08:14.731Z</time></trkpt><trkpt lat="38.46567551784899" lon="16.376186937244707"><ele>1053.0</ele><time>2026-05-03T15:08:18.729Z</time></trkpt><trkpt lat="38.46575244920653" lon="16.37613856180943"><ele>1053.0</ele><time>2026-05-03T15:08:21.727Z</time></trkpt><trkpt lat="38.46581857161807" lon="16.376110513074938"><ele>1052.9999999999998</ele><time>2026-05-03T15:08:24.726Z</time></trkpt><trkpt lat="38.46588367625331" lon="16.37614742602966"><ele>1053.0</ele><time>2026-05-03T15:08:27.725Z</time></trkpt><trkpt lat="38.465866915805414" lon="16.37622511186855"><ele>1052.9999999999998</ele><time>2026-05-03T15:08:31.723Z</time></trkpt><trkpt lat="38.46581097787307" lon="16.376282989562227"><ele>1053.0</ele><time>2026-05-03T15:08:35.722Z</time></trkpt><trkpt lat="38.46573048835805" lon="16.376318928933635"><ele>1053.0</ele><time>2026-05-03T15:08:38.722Z</time></trkpt><trkpt lat="38.46566637544977" lon="16.376366205582766"><ele>1053.0</ele><time>2026-05-03T15:08:40.722Z</time></trkpt><trkpt lat="38.465618695230695" lon="16.376423219457397"><ele>1053.0</ele><time>2026-05-03T15:08:42.721Z</time></trkpt><trkpt lat="38.465591221307186" lon="16.37649852700715"><ele>1052.9999999999998</ele><time>2026-05-03T15:08:44.721Z</time></trkpt><trkpt lat="38.46556445640635" lon="16.376576813632767"><ele>1053.0</ele><time>2026-05-03T15:08:46.721Z</time></trkpt><trkpt lat="38.46553020391538" lon="16.376670682458094"><ele>1054.8333333333333</ele><time>2026-05-03T15:08:49.72Z</time></trkpt><trkpt lat="38.46549783791799" lon="16.37676802997508"><ele>1056.6666666666667</ele><time>2026-05-03T15:08:53.72Z</time></trkpt><trkpt lat="38.465482656607705" lon="16.376875691063677"><ele>1058.5</ele><time>2026-05-03T15:08:56.72Z</time></trkpt><trkpt lat="38.465463830075265" lon="16.37697905834823"><ele>1060.3333333333335</ele><time>2026-05-03T15:08:59.72Z</time></trkpt><trkpt lat="38.4654584192394" lon="16.377069627596534"><ele>1062.1666666666667</ele><time>2026-05-03T15:09:01.72Z</time></trkpt><trkpt lat="38.46545108447297" lon="16.377164220729767"><ele>1064.0</ele><time>2026-05-03T15:09:03.719Z</time></trkpt><trkpt lat="38.4654658705221" lon="16.37726788923796"><ele>1064.857142857143</ele><time>2026-05-03T15:09:06.719Z</time></trkpt><trkpt lat="38.465474335599524" lon="16.37736846815915"><ele>1065.7142857142858</ele><time>2026-05-03T15:09:09.718Z</time></trkpt><trkpt lat="38.46550457409515" lon="16.377443060751283"><ele>1066.5714285714284</ele><time>2026-05-03T15:09:12.719Z</time></trkpt><trkpt lat="38.465536271457324" lon="16.37752044946168"><ele>1067.4285714285716</ele><time>2026-05-03T15:09:16.719Z</time></trkpt><trkpt lat="38.46560140736074" lon="16.377552224374437"><ele>1068.2857142857142</ele><time>2026-05-03T15:09:19.718Z</time></trkpt><trkpt lat="38.465674093653206" lon="16.37752188835892"><ele>1069.142857142857</ele><time>2026-05-03T15:09:22.718Z</time></trkpt><trkpt lat="38.46574776330205" lon="16.377475763372697"><ele>1070.0</ele><time>2026-05-03T15:09:26.718Z</time></trkpt><trkpt lat="38.46581401241252" lon="16.377451404397323"><ele>1070.0</ele><time>2026-05-03T15:09:29.718Z</time></trkpt><trkpt lat="38.46589650116597" lon="16.377433884349784"><ele>1070.0</ele><time>2026-05-03T15:09:32.718Z</time></trkpt><trkpt lat="38.46598053870166" lon="16.377412941058918"><ele>1070.0</ele><time>2026-05-03T15:09:35.718Z</time></trkpt><trkpt lat="38.46605473951271" lon="16.377403173910828"><ele>1070.0</ele><time>2026-05-03T15:09:38.718Z</time></trkpt><trkpt lat="38.466130085624066" lon="16.377380878427534"><ele>1070.0</ele><time>2026-05-03T15:09:41.718Z</time></trkpt><trkpt lat="38.466192361196555" lon="16.37736434001784"><ele>1070.0</ele><time>2026-05-03T15:09:44.718Z</time></trkpt><trkpt lat="38.466274293778824" lon="16.37735642188171"><ele>1071.5</ele><time>2026-05-03T15:09:48.718Z</time></trkpt><trkpt lat="38.4663472761117" lon="16.377351190649676"><ele>1073.0</ele><time>2026-05-03T15:09:51.718Z</time></trkpt><trkpt lat="38.4664267131793" lon="16.37733075572945"><ele>1074.5</ele><time>2026-05-03T15:09:55.717Z</time></trkpt><trkpt lat="38.46651210019228" lon="16.37732613736195"><ele>1076.0</ele><time>2026-05-03T15:09:58.717Z</time></trkpt><trkpt lat="38.46658547097954" lon="16.377317467686353"><ele>1077.5</ele><time>2026-05-03T15:10:01.717Z</time></trkpt><trkpt lat="38.46665891512489" lon="16.37728622005116"><ele>1079.0</ele><time>2026-05-03T15:10:04.717Z</time></trkpt><trkpt lat="38.466731074854465" lon="16.37723834182801"><ele>1079.0</ele><time>2026-05-03T15:10:07.717Z</time></trkpt><trkpt lat="38.46680024665835" lon="16.377185967070407"><ele>1079.0</ele><time>2026-05-03T15:10:10.717Z</time></trkpt><trkpt lat="38.466884283249954" lon="16.37717909040792"><ele>1079.0</ele><time>2026-05-03T15:10:14.717Z</time></trkpt><trkpt lat="38.46695476245385" lon="16.37715348946465"><ele>1079.0</ele><time>2026-05-03T15:10:16.717Z</time></trkpt><trkpt lat="38.46702379067327" lon="16.377130427496695"><ele>1079.0</ele><time>2026-05-03T15:10:19.717Z</time></trkpt><trkpt lat="38.46708811333542" lon="16.377082474308637"><ele>1079.0</ele><time>2026-05-03T15:10:22.717Z</time></trkpt><trkpt lat="38.46713419665586" lon="16.37700695010014"><ele>1079.6666666666667</ele><time>2026-05-03T15:10:24.717Z</time></trkpt><trkpt lat="38.46719663404982" lon="16.37692714725925"><ele>1080.3333333333335</ele><time>2026-05-03T15:10:27.717Z</time></trkpt><trkpt lat="38.46726217638869" lon="16.376877928130806"><ele>1081.0</ele><time>2026-05-03T15:10:30.717Z</time></trkpt><trkpt lat="38.467340147121995" lon="16.376847068026915"><ele>1081.6666666666667</ele><time>2026-05-03T15:10:34.716Z</time></trkpt><trkpt lat="38.46741849259315" lon="16.376811618655736"><ele>1082.3333333333333</ele><time>2026-05-03T15:10:39.716Z</time></trkpt><trkpt lat="38.4674977241555" lon="16.376796678950495"><ele>1083.0</ele><time>2026-05-03T15:10:42.716Z</time></trkpt><trkpt lat="38.46757983790709" lon="16.376820568068652"><ele>1083.0</ele><time>2026-05-03T15:10:46.716Z</time></trkpt><trkpt lat="38.467667599118" lon="16.376844943675774"><ele>1083.0</ele><time>2026-05-03T15:10:49.716Z</time></trkpt><trkpt lat="38.467751012179995" lon="16.376869097474408"><ele>1083.0</ele><time>2026-05-03T15:10:52.716Z</time></trkpt><trkpt lat="38.46781616307282" lon="16.37687403515542"><ele>1083.0</ele><time>2026-05-03T15:10:54.716Z</time></trkpt><trkpt lat="38.467883094263215" lon="16.376836479343726"><ele>1083.0</ele><time>2026-05-03T15:10:56.716Z</time></trkpt><trkpt lat="38.4679466424654" lon="16.376831044406185"><ele>1083.0</ele><time>2026-05-03T15:10:58.716Z</time></trkpt><trkpt lat="38.46801259241498" lon="16.376808840760354"><ele>1083.0</ele><time>2026-05-03T15:11:00.716Z</time></trkpt><trkpt lat="38.46810556866516" lon="16.376814336787756"><ele>1083.3333333333333</ele><time>2026-05-03T15:11:02.716Z</time></trkpt><trkpt lat="38.46821274380563" lon="16.376821615311794"><ele>1083.6666666666667</ele><time>2026-05-03T15:11:04.716Z</time></trkpt><trkpt lat="38.46831199629282" lon="16.376820426664924"><ele>1084.0</ele><time>2026-05-03T15:11:06.716Z</time></trkpt><trkpt lat="38.46838670029426" lon="16.37683381358776"><ele>1084.3333333333335</ele><time>2026-05-03T15:11:08.715Z</time></trkpt><trkpt lat="38.468458056670144" lon="16.376826473599838"><ele>1084.6666666666667</ele><time>2026-05-03T15:11:10.715Z</time></trkpt><trkpt lat="38.468528889171345" lon="16.37679827099723"><ele>1085.0</ele><time>2026-05-03T15:11:12.715Z</time></trkpt><trkpt lat="38.46858938650534" lon="16.376772974918495"><ele>1085.0</ele><time>2026-05-03T15:11:15.715Z</time></trkpt><trkpt lat="38.46866497712276" lon="16.37674009478395"><ele>1085.0</ele><time>2026-05-03T15:11:19.716Z</time></trkpt><trkpt lat="38.46873167244992" lon="16.376723985450344"><ele>1085.0</ele><time>2026-05-03T15:11:22.716Z</time></trkpt><trkpt lat="38.46879821349629" lon="16.376702074474746"><ele>1085.0</ele><time>2026-05-03T15:11:26.715Z</time></trkpt><trkpt lat="38.4688893603558" lon="16.376682064009064"><ele>1085.0</ele><time>2026-05-03T15:11:30.715Z</time></trkpt><trkpt lat="38.46897900568233" lon="16.376680567933732"><ele>1085.0</ele><time>2026-05-03T15:11:33.715Z</time></trkpt><trkpt lat="38.46904987845557" lon="16.376677779378834"><ele>1086.5</ele><time>2026-05-03T15:11:35.715Z</time></trkpt><trkpt lat="38.4691174526895" lon="16.37667716147414"><ele>1088.0</ele><time>2026-05-03T15:11:37.715Z</time></trkpt><trkpt lat="38.469195085195246" lon="16.37665873268919"><ele>1089.5</ele><time>2026-05-03T15:11:40.715Z</time></trkpt><trkpt lat="38.46926444675956" lon="16.37664440082716"><ele>1091.0</ele><time>2026-05-03T15:11:43.715Z</time></trkpt><trkpt lat="38.469327980479775" lon="16.376627147553233"><ele>1092.5</ele><time>2026-05-03T15:11:45.715Z</time></trkpt><trkpt lat="38.46942502726842" lon="16.376652448167157"><ele>1094.0</ele><time>2026-05-03T15:11:48.715Z</time></trkpt><trkpt lat="38.46950202702334" lon="16.37670183076992"><ele>1094.0</ele><time>2026-05-03T15:11:50.715Z</time></trkpt><trkpt lat="38.46958475816402" lon="16.376778318070517"><ele>1094.0</ele><time>2026-05-03T15:11:53.715Z</time></trkpt><trkpt lat="38.469652042518035" lon="16.376846681676287"><ele>1094.0</ele><time>2026-05-03T15:11:55.715Z</time></trkpt><trkpt lat="38.46973900304242" lon="16.3768905628508"><ele>1094.0</ele><time>2026-05-03T15:11:57.715Z</time></trkpt><trkpt lat="38.469813127980636" lon="16.37690817335104"><ele>1094.0</ele><time>2026-05-03T15:11:59.715Z</time></trkpt><trkpt lat="38.46988550894522" lon="16.376950436319575"><ele>1094.0</ele><time>2026-05-03T15:12:01.715Z</time></trkpt><trkpt lat="38.46996338770345" lon="16.377019393353823"><ele>1095.0</ele><time>2026-05-03T15:12:04.715Z</time></trkpt><trkpt lat="38.470036596319495" lon="16.377090323157645"><ele>1096.0</ele><time>2026-05-03T15:12:07.714Z</time></trkpt><trkpt lat="38.47006740960325" lon="16.377170291780452"><ele>1097.0</ele><time>2026-05-03T15:12:09.714Z</time></trkpt><trkpt lat="38.47010549495309" lon="16.3772399000848"><ele>1098.0</ele><time>2026-05-03T15:12:11.714Z</time></trkpt><trkpt lat="38.470130547572545" lon="16.37734939564681"><ele>1099.0</ele><time>2026-05-03T15:12:14.714Z</time></trkpt><trkpt lat="38.47014827558171" lon="16.377428594882044"><ele>1100.0</ele><time>2026-05-03T15:12:17.714Z</time></trkpt><trkpt lat="38.47021722059499" lon="16.3774956566813"><ele>1100.0</ele><time>2026-05-03T15:12:20.714Z</time></trkpt><trkpt lat="38.47026376947979" lon="16.377567704605163"><ele>1100.0</ele><time>2026-05-03T15:12:22.714Z</time></trkpt><trkpt lat="38.4703159880867" lon="16.37762378925243"><ele>1100.0</ele><time>2026-05-03T15:12:24.714Z</time></trkpt><trkpt lat="38.470351006979186" lon="16.377693689321493"><ele>1100.0</ele><time>2026-05-03T15:12:26.714Z</time></trkpt><trkpt lat="38.47043160111657" lon="16.377784276135742"><ele>1100.0</ele><time>2026-05-03T15:12:29.714Z</time></trkpt><trkpt lat="38.47048637444513" lon="16.377840648766867"><ele>1100.0</ele><time>2026-05-03T15:12:31.714Z</time></trkpt><trkpt lat="38.470554043620055" lon="16.37791666656157"><ele>1101.0</ele><time>2026-05-03T15:12:33.714Z</time></trkpt><trkpt lat="38.47064025932153" lon="16.37797257750452"><ele>1102.0</ele><time>2026-05-03T15:12:35.714Z</time></trkpt><trkpt lat="38.47074454802276" lon="16.378014277186697"><ele>1103.0</ele><time>2026-05-03T15:12:37.714Z</time></trkpt><trkpt lat="38.470821427287326" lon="16.37802454229564"><ele>1104.0</ele><time>2026-05-03T15:12:39.714Z</time></trkpt><trkpt lat="38.47088638704788" lon="16.378038730121354"><ele>1105.0</ele><time>2026-05-03T15:12:40.714Z</time></trkpt><trkpt lat="38.47093227696328" lon="16.37792183508315"><ele>1105.6666666666665</ele><time>2026-05-03T15:12:41.714Z</time></trkpt><trkpt lat="38.47100193738575" lon="16.37792024113422"><ele>1106.3333333333333</ele><time>2026-05-03T15:12:43.714Z</time></trkpt><trkpt lat="38.471084612305596" lon="16.37792459094954"><ele>1107.0</ele><time>2026-05-03T15:12:45.714Z</time></trkpt><trkpt lat="38.47120703617372" lon="16.377889773210338"><ele>1107.6666666666667</ele><time>2026-05-03T15:12:48.713Z</time></trkpt><trkpt lat="38.471298242064414" lon="16.377877964306457"><ele>1108.3333333333335</ele><time>2026-05-03T15:12:51.713Z</time></trkpt><trkpt lat="38.47134864613433" lon="16.37794314949102"><ele>1109.0</ele><time>2026-05-03T15:12:55.713Z</time></trkpt><trkpt lat="38.47140911381503" lon="16.37796986354634"><ele>1108.3333333333335</ele><time>2026-05-03T15:13:18.712Z</time></trkpt><trkpt lat="38.47138524574573" lon="16.37804751910394"><ele>1107.6666666666667</ele><time>2026-05-03T15:13:21.712Z</time></trkpt><trkpt lat="38.4713342462626" lon="16.378122004740995"><ele>1107.0</ele><time>2026-05-03T15:13:24.712Z</time></trkpt><trkpt lat="38.471254846051664" lon="16.378159354705492"><ele>1106.3333333333333</ele><time>2026-05-03T15:13:27.712Z</time></trkpt><trkpt lat="38.47119351112587" lon="16.378207231399777"><ele>1105.6666666666665</ele><time>2026-05-03T15:13:29.712Z</time></trkpt><trkpt lat="38.47113224508992" lon="16.37825622101451"><ele>1105.0</ele><time>2026-05-03T15:13:31.712Z</time></trkpt><trkpt lat="38.471055734696414" lon="16.3782862179995"><ele>1105.0</ele><time>2026-05-03T15:13:33.712Z</time></trkpt><trkpt lat="38.47097096742124" lon="16.37833305060524"><ele>1105.0</ele><time>2026-05-03T15:13:35.712Z</time></trkpt><trkpt lat="38.470880745779375" lon="16.37840799437458"><ele>1105.0</ele><time>2026-05-03T15:13:37.712Z</time></trkpt><trkpt lat="38.47079037506528" lon="16.378471488737834"><ele>1105.0</ele><time>2026-05-03T15:13:38.712Z</time></trkpt><trkpt lat="38.470721977544805" lon="16.37852482095669"><ele>1105.0</ele><time>2026-05-03T15:13:39.712Z</time></trkpt><trkpt lat="38.47072287496341" lon="16.378678799862215"><ele>1105.0</ele><time>2026-05-03T15:13:40.711Z</time></trkpt><trkpt lat="38.47062882914157" lon="16.37875727315864"><ele>1105.0</ele><time>2026-05-03T15:13:42.711Z</time></trkpt><trkpt lat="38.4705402351398" lon="16.37883002642523"><ele>1105.0</ele><time>2026-05-03T15:13:44.711Z</time></trkpt><trkpt lat="38.47044147865043" lon="16.37890932778549"><ele>1105.0</ele><time>2026-05-03T15:13:46.711Z</time></trkpt><trkpt lat="38.47036061467798" lon="16.37897264905247"><ele>1105.0</ele><time>2026-05-03T15:13:48.711Z</time></trkpt><trkpt lat="38.470259183385664" lon="16.37905207575538"><ele>1103.0</ele><time>2026-05-03T15:13:50.711Z</time></trkpt><trkpt lat="38.47016103177876" lon="16.379128934267055"><ele>1101.0</ele><time>2026-05-03T15:13:52.711Z</time></trkpt><trkpt lat="38.470055664800945" lon="16.379211442839836"><ele>1099.0</ele><time>2026-05-03T15:13:54.711Z</time></trkpt><trkpt lat="38.46999350928094" lon="16.379260114286996"><ele>1097.0</ele><time>2026-05-03T15:13:55.711Z</time></trkpt><trkpt lat="38.469926557809046" lon="16.379312541247057"><ele>1095.0</ele><time>2026-05-03T15:13:56.711Z</time></trkpt><trkpt lat="38.469863286099226" lon="16.379362074285453"><ele>1095.0</ele><time>2026-05-03T15:13:57.711Z</time></trkpt><trkpt lat="38.46980619382666" lon="16.379407687353776"><ele>1095.0</ele><time>2026-05-03T15:13:58.711Z</time></trkpt><trkpt lat="38.46969915891235" lon="16.379493201406515"><ele>1095.0</ele><time>2026-05-03T15:14:00.711Z</time></trkpt><trkpt lat="38.469595956230506" lon="16.379570088843433"><ele>1095.0</ele><time>2026-05-03T15:14:02.711Z</time></trkpt><trkpt lat="38.46954045878258" lon="16.379609849710427"><ele>1095.0</ele><time>2026-05-03T15:14:03.711Z</time></trkpt><trkpt lat="38.46942687259238" lon="16.379683000129187"><ele>1091.6</ele><time>2026-05-03T15:14:05.711Z</time></trkpt><trkpt lat="38.469357926438825" lon="16.379722842231065"><ele>1088.2</ele><time>2026-05-03T15:14:06.711Z</time></trkpt><trkpt lat="38.469246648027784" lon="16.37978491617608"><ele>1084.8</ele><time>2026-05-03T15:14:08.711Z</time></trkpt><trkpt lat="38.46914273501291" lon="16.379841792956906"><ele>1081.4</ele><time>2026-05-03T15:14:10.711Z</time></trkpt><trkpt lat="38.469065677227604" lon="16.379883904928192"><ele>1078.0</ele><time>2026-05-03T15:14:12.711Z</time></trkpt><trkpt lat="38.46900481801805" lon="16.379917164394506"><ele>1078.0</ele><time>2026-05-03T15:14:14.711Z</time></trkpt><trkpt lat="38.468936270128424" lon="16.379955404500556"><ele>1078.0</ele><time>2026-05-03T15:14:16.711Z</time></trkpt><trkpt lat="38.4688544002773" lon="16.38000291424366"><ele>1078.0</ele><time>2026-05-03T15:14:18.711Z</time></trkpt><trkpt lat="38.468758956570184" lon="16.380058301009964"><ele>1078.0</ele><time>2026-05-03T15:14:20.711Z</time></trkpt><trkpt lat="38.468644149476745" lon="16.380106243825434"><ele>1078.0</ele><time>2026-05-03T15:14:22.71Z</time></trkpt><trkpt lat="38.468536291312695" lon="16.38017043064106"><ele>1077.4285714285713</ele><time>2026-05-03T15:14:24.71Z</time></trkpt><trkpt lat="38.46847675389135" lon="16.38020130797876"><ele>1076.857142857143</ele><time>2026-05-03T15:14:25.71Z</time></trkpt><trkpt lat="38.468417318786294" lon="16.38025386309632"><ele>1076.2857142857142</ele><time>2026-05-03T15:14:26.71Z</time></trkpt><trkpt lat="38.468350848268145" lon="16.38028862343652"><ele>1075.7142857142858</ele><time>2026-05-03T15:14:27.71Z</time></trkpt><trkpt lat="38.46827949166008" lon="16.380304225776186"><ele>1075.142857142857</ele><time>2026-05-03T15:14:28.71Z</time></trkpt><trkpt lat="38.46821537214648" lon="16.380333895795992"><ele>1074.5714285714284</ele><time>2026-05-03T15:14:29.71Z</time></trkpt><trkpt lat="38.468153684367074" lon="16.380357849085925"><ele>1074.0</ele><time>2026-05-03T15:14:30.71Z</time></trkpt><trkpt lat="38.46802879794362" lon="16.380373374224305"><ele>1074.0</ele><time>2026-05-03T15:14:32.71Z</time></trkpt><trkpt lat="38.46795841199717" lon="16.380365496999808"><ele>1074.0</ele><time>2026-05-03T15:14:33.71Z</time></trkpt><trkpt lat="38.467889549050604" lon="16.38036125744041"><ele>1074.0</ele><time>2026-05-03T15:14:34.71Z</time></trkpt><trkpt lat="38.46782168069628" lon="16.380348915856448"><ele>1074.0</ele><time>2026-05-03T15:14:35.71Z</time></trkpt><trkpt lat="38.46775790126968" lon="16.380328645269245"><ele>1074.0</ele><time>2026-05-03T15:14:36.71Z</time></trkpt><trkpt lat="38.467641398062014" lon="16.3803061981235"><ele>1074.0</ele><time>2026-05-03T15:14:38.71Z</time></trkpt><trkpt lat="38.46752470438765" lon="16.38031003173698"><ele>1073.0</ele><time>2026-05-03T15:14:40.71Z</time></trkpt><trkpt lat="38.46746263568116" lon="16.380337369914322"><ele>1072.0</ele><time>2026-05-03T15:14:41.71Z</time></trkpt><trkpt lat="38.4673540906577" lon="16.380424283385565"><ele>1071.0</ele><time>2026-05-03T15:14:43.71Z</time></trkpt><trkpt lat="38.46730026851078" lon="16.380480689514243"><ele>1070.0</ele><time>2026-05-03T15:14:44.71Z</time></trkpt><trkpt lat="38.4672578867021" lon="16.380550189152856"><ele>1069.0</ele><time>2026-05-03T15:14:45.71Z</time></trkpt><trkpt lat="38.467148767042715" lon="16.38063699868352"><ele>1067.857142857143</ele><time>2026-05-03T15:14:47.71Z</time></trkpt><trkpt lat="38.467090324861246" lon="16.38069516663887"><ele>1066.7142857142858</ele><time>2026-05-03T15:14:48.71Z</time></trkpt><trkpt lat="38.467035488390664" lon="16.38074739541983"><ele>1065.5714285714287</ele><time>2026-05-03T15:14:49.71Z</time></trkpt><trkpt lat="38.46697554394012" lon="16.38079959154585"><ele>1064.4285714285716</ele><time>2026-05-03T15:14:50.71Z</time></trkpt><trkpt lat="38.466914990849986" lon="16.380848905915858"><ele>1063.2857142857142</ele><time>2026-05-03T15:14:51.71Z</time></trkpt><trkpt lat="38.46684894532488" lon="16.380893669465948"><ele>1062.1428571428573</ele><time>2026-05-03T15:14:52.71Z</time></trkpt><trkpt lat="38.46677726770951" lon="16.380936155051135"><ele>1061.0</ele><time>2026-05-03T15:14:53.71Z</time></trkpt><trkpt lat="38.46672177271607" lon="16.381007928632897"><ele>1061.0</ele><time>2026-05-03T15:14:54.71Z</time></trkpt><trkpt lat="38.46666867147724" lon="16.381056602384483"><ele>1061.0</ele><time>2026-05-03T15:14:55.71Z</time></trkpt><trkpt lat="38.46661267054634" lon="16.381107934055507"><ele>1061.0</ele><time>2026-05-03T15:14:56.71Z</time></trkpt><trkpt lat="38.466511592068606" lon="16.381200936021994"><ele>1061.0</ele><time>2026-05-03T15:14:58.71Z</time></trkpt><trkpt lat="38.466419998222115" lon="16.381311393117574"><ele>1061.0</ele><time>2026-05-03T15:15:00.71Z</time></trkpt><trkpt lat="38.46636932213312" lon="16.381372667172744"><ele>1060.0000000000002</ele><time>2026-05-03T15:15:01.71Z</time></trkpt><trkpt lat="38.46631826979763" lon="16.38143482658472"><ele>1059.0</ele><time>2026-05-03T15:15:02.71Z</time></trkpt><trkpt lat="38.46626616737394" lon="16.3814996035832"><ele>1058.0</ele><time>2026-05-03T15:15:03.709Z</time></trkpt><trkpt lat="38.46620987228475" lon="16.381558633021584"><ele>1057.0</ele><time>2026-05-03T15:15:04.709Z</time></trkpt><trkpt lat="38.466152828025145" lon="16.381611393575035"><ele>1056.0</ele><time>2026-05-03T15:15:05.709Z</time></trkpt><trkpt lat="38.466090414458144" lon="16.381653220180862"><ele>1055.0000000000002</ele><time>2026-05-03T15:15:06.709Z</time></trkpt><trkpt lat="38.466023004169905" lon="16.381689049089367"><ele>1054.0</ele><time>2026-05-03T15:15:07.709Z</time></trkpt><trkpt lat="38.465959197799464" lon="16.381719563020972"><ele>1053.7142857142858</ele><time>2026-05-03T15:15:08.709Z</time></trkpt><trkpt lat="38.46589002804868" lon="16.3817474823843"><ele>1053.4285714285716</ele><time>2026-05-03T15:15:09.709Z</time></trkpt><trkpt lat="38.46582156866976" lon="16.381770022393475"><ele>1053.142857142857</ele><time>2026-05-03T15:15:10.709Z</time></trkpt><trkpt lat="38.46575572737787" lon="16.381795972866417"><ele>1052.857142857143</ele><time>2026-05-03T15:15:11.709Z</time></trkpt><trkpt lat="38.46568745272002" lon="16.38183375766904"><ele>1052.5714285714284</ele><time>2026-05-03T15:15:12.709Z</time></trkpt><trkpt lat="38.46561390114347" lon="16.381857362583393"><ele>1052.2857142857142</ele><time>2026-05-03T15:15:13.709Z</time></trkpt><trkpt lat="38.46554077782607" lon="16.381888724817262"><ele>1052.0</ele><time>2026-05-03T15:15:14.709Z</time></trkpt><trkpt lat="38.465466034821425" lon="16.381920386915592"><ele>1050.7142857142858</ele><time>2026-05-03T15:15:15.709Z</time></trkpt><trkpt lat="38.46539459543226" lon="16.3819548304926"><ele>1049.4285714285713</ele><time>2026-05-03T15:15:16.709Z</time></trkpt><trkpt lat="38.46533256842481" lon="16.38199365632431"><ele>1048.142857142857</ele><time>2026-05-03T15:15:17.709Z</time></trkpt><trkpt lat="38.46526932978416" lon="16.3820330570855"><ele>1046.857142857143</ele><time>2026-05-03T15:15:18.71Z</time></trkpt><trkpt lat="38.465207015515354" lon="16.38208017040947"><ele>1045.5714285714284</ele><time>2026-05-03T15:15:19.709Z</time></trkpt><trkpt lat="38.465140660993036" lon="16.38211954592641"><ele>1044.2857142857142</ele><time>2026-05-03T15:15:20.709Z</time></trkpt><trkpt lat="38.465073267475184" lon="16.382150146686264"><ele>1043.0</ele><time>2026-05-03T15:15:21.709Z</time></trkpt><trkpt lat="38.465003009094" lon="16.38217619167295"><ele>1042.4285714285713</ele><time>2026-05-03T15:15:22.709Z</time></trkpt><trkpt lat="38.464933557822555" lon="16.3822104579329"><ele>1041.857142857143</ele><time>2026-05-03T15:15:23.709Z</time></trkpt><trkpt lat="38.46486682116805" lon="16.382248026207048"><ele>1041.2857142857142</ele><time>2026-05-03T15:15:24.71Z</time></trkpt><trkpt lat="38.464801565317025" lon="16.38229335102305"><ele>1040.7142857142858</ele><time>2026-05-03T15:15:25.709Z</time></trkpt><trkpt lat="38.46474054781498" lon="16.382330239034136"><ele>1040.142857142857</ele><time>2026-05-03T15:15:26.709Z</time></trkpt><trkpt lat="38.46467584912436" lon="16.38236136522032"><ele>1039.5714285714284</ele><time>2026-05-03T15:15:27.709Z</time></trkpt><trkpt lat="38.464610149750186" lon="16.382389280220696"><ele>1039.0</ele><time>2026-05-03T15:15:28.709Z</time></trkpt><trkpt lat="38.46454295076235" lon="16.382374933337765"><ele>1038.0</ele><time>2026-05-03T15:15:29.709Z</time></trkpt><trkpt lat="38.46447880475592" lon="16.382366025161634"><ele>1037.0</ele><time>2026-05-03T15:15:30.709Z</time></trkpt><trkpt lat="38.464368560954306" lon="16.382330185428863"><ele>1036.0</ele><time>2026-05-03T15:15:32.71Z</time></trkpt><trkpt lat="38.46424882875984" lon="16.382285594847772"><ele>1035.0</ele><time>2026-05-03T15:15:34.71Z</time></trkpt><trkpt lat="38.464187028687405" lon="16.382264835554626"><ele>1034.0</ele><time>2026-05-03T15:15:35.71Z</time></trkpt><trkpt lat="38.46411700156514" lon="16.38226505482467"><ele>1033.0</ele><time>2026-05-03T15:15:36.709Z</time></trkpt><trkpt lat="38.464053965576966" lon="16.382257383896416"><ele>1033.0000000000002</ele><time>2026-05-03T15:15:37.709Z</time></trkpt><trkpt lat="38.46398941077571" lon="16.38225015922207"><ele>1033.0</ele><time>2026-05-03T15:15:38.709Z</time></trkpt><trkpt lat="38.463917809887555" lon="16.38224214597783"><ele>1033.0</ele><time>2026-05-03T15:15:39.709Z</time></trkpt><trkpt lat="38.463846140113354" lon="16.38223697331885"><ele>1033.0</ele><time>2026-05-03T15:15:40.709Z</time></trkpt><trkpt lat="38.46377716543322" lon="16.382233009168413"><ele>1033.0</ele><time>2026-05-03T15:15:41.709Z</time></trkpt><trkpt lat="38.4637122831643" lon="16.38221304020488"><ele>1033.0000000000002</ele><time>2026-05-03T15:15:42.709Z</time></trkpt><trkpt lat="38.463642358864334" lon="16.382233008714785"><ele>1033.0</ele><time>2026-05-03T15:15:43.709Z</time></trkpt><trkpt lat="38.4635689405359" lon="16.382262382317535"><ele>1031.7142857142858</ele><time>2026-05-03T15:15:44.709Z</time></trkpt><trkpt lat="38.46350138933762" lon="16.382298429460835"><ele>1030.4285714285716</ele><time>2026-05-03T15:15:45.709Z</time></trkpt><trkpt lat="38.46342582106046" lon="16.38232865548068"><ele>1029.142857142857</ele><time>2026-05-03T15:15:46.709Z</time></trkpt><trkpt lat="38.46335352289243" lon="16.382353230903618"><ele>1027.857142857143</ele><time>2026-05-03T15:15:47.709Z</time></trkpt><trkpt lat="38.463282433346514" lon="16.382382110177637"><ele>1026.5714285714284</ele><time>2026-05-03T15:15:48.709Z</time></trkpt><trkpt lat="38.463217446654184" lon="16.382416197793418"><ele>1025.2857142857142</ele><time>2026-05-03T15:15:49.709Z</time></trkpt><trkpt lat="38.4631538731385" lon="16.382456151647123"><ele>1024.0</ele><time>2026-05-03T15:15:50.709Z</time></trkpt><trkpt lat="38.463082870498454" lon="16.382524356464756"><ele>1023.9999999999999</ele><time>2026-05-03T15:15:51.709Z</time></trkpt><trkpt lat="38.46305323049426" lon="16.38262521031913"><ele>1024.0</ele><time>2026-05-03T15:15:52.709Z</time></trkpt><trkpt lat="38.46305228948183" lon="16.38271891033891"><ele>1024.0</ele><time>2026-05-03T15:15:53.709Z</time></trkpt><trkpt lat="38.46305135644865" lon="16.38283991325594"><ele>1024.0</ele><time>2026-05-03T15:15:55.709Z</time></trkpt><trkpt lat="38.46300646835267" lon="16.382903875262993"><ele>1023.9999999999999</ele><time>2026-05-03T15:15:57.709Z</time></trkpt><trkpt lat="38.46290160412856" lon="16.38293484048973"><ele>1024.0</ele><time>2026-05-03T15:15:59.709Z</time></trkpt><trkpt lat="38.46283953782574" lon="16.38290502858912"><ele>1020.9999999999999</ele><time>2026-05-03T15:16:00.709Z</time></trkpt><trkpt lat="38.4627815471589" lon="16.382855670815207"><ele>1018.0</ele><time>2026-05-03T15:16:01.709Z</time></trkpt><trkpt lat="38.46273267475848" lon="16.382795447017216"><ele>1015.0</ele><time>2026-05-03T15:16:02.709Z</time></trkpt><trkpt lat="38.462661412855255" lon="16.3826498927357"><ele>1012.0</ele><time>2026-05-03T15:16:04.709Z</time></trkpt><trkpt lat="38.46263059071289" lon="16.382569417770323"><ele>1008.9999999999999</ele><time>2026-05-03T15:16:05.709Z</time></trkpt><trkpt lat="38.46258062869786" lon="16.382499712108917"><ele>1006.0</ele><time>2026-05-03T15:16:06.709Z</time></trkpt><trkpt lat="38.46252091173327" lon="16.382445583623685"><ele>1005.9999999999999</ele><time>2026-05-03T15:16:07.709Z</time></trkpt><trkpt lat="38.462460709396204" lon="16.382407693772237"><ele>1006.0</ele><time>2026-05-03T15:16:08.709Z</time></trkpt><trkpt lat="38.46240211785153" lon="16.38236968702967"><ele>1006.0</ele><time>2026-05-03T15:16:09.709Z</time></trkpt><trkpt lat="38.46233773276587" lon="16.38231387179502"><ele>1006.0</ele><time>2026-05-03T15:16:10.709Z</time></trkpt><trkpt lat="38.46228452063607" lon="16.38224677208891"><ele>1005.9999999999999</ele><time>2026-05-03T15:16:11.709Z</time></trkpt><trkpt lat="38.46224291217829" lon="16.382178386530583"><ele>1006.0</ele><time>2026-05-03T15:16:12.709Z</time></trkpt><trkpt lat="38.46216634870524" lon="16.382085095558786"><ele>1005.8</ele><time>2026-05-03T15:16:14.709Z</time></trkpt><trkpt lat="38.462068646168774" lon="16.382051879658725"><ele>1005.5999999999999</ele><time>2026-05-03T15:16:16.709Z</time></trkpt><trkpt lat="38.462003775353345" lon="16.382078930579116"><ele>1005.4</ele><time>2026-05-03T15:16:17.709Z</time></trkpt><trkpt lat="38.4618978253609" lon="16.38215964374128"><ele>1005.2</ele><time>2026-05-03T15:16:19.708Z</time></trkpt><trkpt lat="38.461802424460885" lon="16.382219244575364"><ele>1005.0</ele><time>2026-05-03T15:16:21.708Z</time></trkpt><trkpt lat="38.46169163997671" lon="16.38221620704018"><ele>1005.0</ele><time>2026-05-03T15:16:23.708Z</time></trkpt><trkpt lat="38.46162546911174" lon="16.382182249065025"><ele>1005.0</ele><time>2026-05-03T15:16:24.708Z</time></trkpt><trkpt lat="38.461556359282795" lon="16.382141599336453"><ele>1005.0</ele><time>2026-05-03T15:16:25.708Z</time></trkpt><trkpt lat="38.46148305886991" lon="16.38209311257249"><ele>1005.0</ele><time>2026-05-03T15:16:26.708Z</time></trkpt><trkpt lat="38.46141028872212" lon="16.382044439099072"><ele>1005.0</ele><time>2026-05-03T15:16:27.708Z</time></trkpt><trkpt lat="38.461335234510976" lon="16.381998689172107"><ele>1005.0</ele><time>2026-05-03T15:16:28.708Z</time></trkpt><trkpt lat="38.461249925880345" lon="16.38194913281804"><ele>998.0</ele><time>2026-05-03T15:16:29.708Z</time></trkpt><trkpt lat="38.461157390625566" lon="16.381924638944426"><ele>991.0</ele><time>2026-05-03T15:16:30.708Z</time></trkpt><trkpt lat="38.461060288165136" lon="16.381908058409834"><ele>984.0</ele><time>2026-05-03T15:16:31.708Z</time></trkpt><trkpt lat="38.46095217548568" lon="16.381898948451692"><ele>977.0</ele><time>2026-05-03T15:16:32.708Z</time></trkpt><trkpt lat="38.46084518006855" lon="16.381896507313208"><ele>970.0</ele><time>2026-05-03T15:16:33.708Z</time></trkpt><trkpt lat="38.460734771932195" lon="16.381881662115344"><ele>970.0</ele><time>2026-05-03T15:16:34.708Z</time></trkpt><trkpt lat="38.460625170026006" lon="16.381915542901137"><ele>970.0</ele><time>2026-05-03T15:16:35.708Z</time></trkpt><trkpt lat="38.46051052167602" lon="16.381935825340324"><ele>970.0</ele><time>2026-05-03T15:16:36.708Z</time></trkpt><trkpt lat="38.46039826890208" lon="16.381954357105574"><ele>970.0</ele><time>2026-05-03T15:16:37.708Z</time></trkpt><trkpt lat="38.4602900866619" lon="16.381975884695603"><ele>967.8</ele><time>2026-05-03T15:16:38.708Z</time></trkpt><trkpt lat="38.46018379290107" lon="16.38201123655127"><ele>965.6</ele><time>2026-05-03T15:16:39.708Z</time></trkpt><trkpt lat="38.4600760196144" lon="16.38203703514604"><ele>963.4000000000001</ele><time>2026-05-03T15:16:40.708Z</time></trkpt><trkpt lat="38.45998523834923" lon="16.382111388788044"><ele>961.2</ele><time>2026-05-03T15:16:41.708Z</time></trkpt><trkpt lat="38.459905444445994" lon="16.382188595227458"><ele>959.0</ele><time>2026-05-03T15:16:42.708Z</time></trkpt><trkpt lat="38.45982736482826" lon="16.382252043771484"><ele>962.4000000000001</ele><time>2026-05-03T15:16:43.708Z</time></trkpt><trkpt lat="38.45974545304084" lon="16.38230777900652"><ele>965.8000000000001</ele><time>2026-05-03T15:16:44.708Z</time></trkpt><trkpt lat="38.45965987580926" lon="16.382364559041264"><ele>969.1999999999999</ele><time>2026-05-03T15:16:45.708Z</time></trkpt><trkpt lat="38.45956449118698" lon="16.382375786929735"><ele>972.5999999999999</ele><time>2026-05-03T15:16:46.708Z</time></trkpt><trkpt lat="38.45947072544403" lon="16.38236284717626"><ele>976.0</ele><time>2026-05-03T15:16:47.708Z</time></trkpt><trkpt lat="38.45938160049719" lon="16.38232604423355"><ele>975.9999999999999</ele><time>2026-05-03T15:16:48.708Z</time></trkpt><trkpt lat="38.45929601664956" lon="16.382285153447402"><ele>976.0</ele><time>2026-05-03T15:16:49.708Z</time></trkpt><trkpt lat="38.4592132212492" lon="16.38224495902652"><ele>976.0</ele><time>2026-05-03T15:16:50.708Z</time></trkpt><trkpt lat="38.45913725719631" lon="16.382211599119373"><ele>976.0</ele><time>2026-05-03T15:16:51.708Z</time></trkpt><trkpt lat="38.459064705057834" lon="16.382190651482265"><ele>975.9999999999999</ele><time>2026-05-03T15:16:52.708Z</time></trkpt><trkpt lat="38.45899589703512" lon="16.382198436138335"><ele>976.0</ele><time>2026-05-03T15:16:53.708Z</time></trkpt><trkpt lat="38.4589313825846" lon="16.382232546141026"><ele>975.9999999999999</ele><time>2026-05-03T15:16:54.708Z</time></trkpt><trkpt lat="38.45887928218697" lon="16.382287900436303"><ele>976.0</ele><time>2026-05-03T15:16:55.708Z</time></trkpt><trkpt lat="38.45882784150289" lon="16.382345166223633"><ele>975.9999999999999</ele><time>2026-05-03T15:16:56.708Z</time></trkpt><trkpt lat="38.45877410293094" lon="16.382397257022106"><ele>975.9999999999999</ele><time>2026-05-03T15:16:57.708Z</time></trkpt><trkpt lat="38.458712659588514" lon="16.382439409349416"><ele>976.0</ele><time>2026-05-03T15:16:58.708Z</time></trkpt><trkpt lat="38.458646185848686" lon="16.38247741173085"><ele>975.9999999999999</ele><time>2026-05-03T15:16:59.707Z</time></trkpt><trkpt lat="38.458575898117786" lon="16.382509528873253"><ele>975.9999999999999</ele><time>2026-05-03T15:17:00.707Z</time></trkpt><trkpt lat="38.458501271135574" lon="16.382537939364635"><ele>974.9999999999999</ele><time>2026-05-03T15:17:01.707Z</time></trkpt><trkpt lat="38.45842068164621" lon="16.382584098650703"><ele>974.0</ele><time>2026-05-03T15:17:02.707Z</time></trkpt><trkpt lat="38.45834231164477" lon="16.38263803042672"><ele>973.0</ele><time>2026-05-03T15:17:03.707Z</time></trkpt><trkpt lat="38.45825755013456" lon="16.382683877564702"><ele>972.0</ele><time>2026-05-03T15:17:04.707Z</time></trkpt><trkpt lat="38.458177310477915" lon="16.382726940451082"><ele>970.9999999999999</ele><time>2026-05-03T15:17:05.707Z</time></trkpt><trkpt lat="38.458097216395245" lon="16.382750945702796"><ele>970.0</ele><time>2026-05-03T15:17:06.707Z</time></trkpt><trkpt lat="38.45801321318227" lon="16.382756368602788"><ele>966.8</ele><time>2026-05-03T15:17:07.707Z</time></trkpt><trkpt lat="38.457926848263206" lon="16.382741981602543"><ele>963.6</ele><time>2026-05-03T15:17:08.707Z</time></trkpt><trkpt lat="38.45783867349449" lon="16.382719974224674"><ele>960.4000000000001</ele><time>2026-05-03T15:17:09.707Z</time></trkpt><trkpt lat="38.457745179846995" lon="16.38270507529487"><ele>957.2</ele><time>2026-05-03T15:17:10.707Z</time></trkpt><trkpt lat="38.45765523751589" lon="16.382711738402413"><ele>954.0</ele><time>2026-05-03T15:17:11.707Z</time></trkpt><trkpt lat="38.4575676961848" lon="16.382735339914852"><ele>954.0</ele><time>2026-05-03T15:17:12.707Z</time></trkpt><trkpt lat="38.457476602133625" lon="16.382749999708327"><ele>954.0000000000001</ele><time>2026-05-03T15:17:13.707Z</time></trkpt><trkpt lat="38.457383275970635" lon="16.382767412154163"><ele>954.0000000000001</ele><time>2026-05-03T15:17:14.707Z</time></trkpt><trkpt lat="38.457285063658794" lon="16.382781889652275"><ele>954.0</ele><time>2026-05-03T15:17:15.707Z</time></trkpt><trkpt lat="38.45719091798363" lon="16.382811373780818"><ele>954.0</ele><time>2026-05-03T15:17:16.707Z</time></trkpt><trkpt lat="38.45709013980536" lon="16.38282837981133"><ele>951.6</ele><time>2026-05-03T15:17:17.707Z</time></trkpt><trkpt lat="38.45699452646378" lon="16.382841777125083"><ele>949.2</ele><time>2026-05-03T15:17:18.707Z</time></trkpt><trkpt lat="38.45690016335086" lon="16.382837556723604"><ele>946.8000000000001</ele><time>2026-05-03T15:17:19.707Z</time></trkpt><trkpt lat="38.45680482599892" lon="16.38282483674546"><ele>944.4000000000001</ele><time>2026-05-03T15:17:20.707Z</time></trkpt><trkpt lat="38.45670723815595" lon="16.38280549903346"><ele>942.0</ele><time>2026-05-03T15:17:21.707Z</time></trkpt><trkpt lat="38.45662329421779" lon="16.38279597817706"><ele>942.0000000000001</ele><time>2026-05-03T15:17:22.707Z</time></trkpt><trkpt lat="38.45654922552164" lon="16.382793136887315"><ele>942.0</ele><time>2026-05-03T15:17:23.707Z</time></trkpt><trkpt lat="38.45648795888618" lon="16.38281906589969"><ele>942.0000000000001</ele><time>2026-05-03T15:17:24.706Z</time></trkpt><trkpt lat="38.4564412332993" lon="16.38287737059382"><ele>942.0000000000001</ele><time>2026-05-03T15:17:25.706Z</time></trkpt><trkpt lat="38.4564185373049" lon="16.382962648435967"><ele>942.0</ele><time>2026-05-03T15:17:26.706Z</time></trkpt><trkpt lat="38.456390952431846" lon="16.38305151332489"><ele>942.0000000000001</ele><time>2026-05-03T15:17:27.706Z</time></trkpt><trkpt lat="38.456370907085606" lon="16.383149180298727"><ele>942.0000000000001</ele><time>2026-05-03T15:17:28.706Z</time></trkpt><trkpt lat="38.45630779393219" lon="16.38326408372807"><ele>942.0</ele><time>2026-05-03T15:17:30.707Z</time></trkpt><trkpt lat="38.45620276553081" lon="16.383342537249963"><ele>942.0</ele><time>2026-05-03T15:17:32.707Z</time></trkpt><trkpt lat="38.45608758142524" lon="16.383342248565665"><ele>942.0</ele><time>2026-05-03T15:17:34.706Z</time></trkpt><trkpt lat="38.45597101588863" lon="16.383301013354817"><ele>942.0</ele><time>2026-05-03T15:17:36.706Z</time></trkpt><trkpt lat="38.45593010840585" lon="16.383220395636783"><ele>942.0</ele><time>2026-05-03T15:17:37.706Z</time></trkpt><trkpt lat="38.45588134539365" lon="16.383149204392534"><ele>942.0</ele><time>2026-05-03T15:17:38.706Z</time></trkpt><trkpt lat="38.45581673907021" lon="16.383061256696365"><ele>942.0</ele><time>2026-05-03T15:17:39.706Z</time></trkpt><trkpt lat="38.455757752599176" lon="16.38298095921374"><ele>942.0</ele><time>2026-05-03T15:17:40.706Z</time></trkpt><trkpt lat="38.455681662456925" lon="16.382884772527138"><ele>942.0</ele><time>2026-05-03T15:17:41.706Z</time></trkpt><trkpt lat="38.45560297767711" lon="16.382804155642848"><ele>942.0</ele><time>2026-05-03T15:17:42.706Z</time></trkpt><trkpt lat="38.455510231429464" lon="16.38273602142882"><ele>942.2</ele><time>2026-05-03T15:17:43.706Z</time></trkpt><trkpt lat="38.45540178737531" lon="16.38270734612876"><ele>942.4000000000001</ele><time>2026-05-03T15:17:44.705Z</time></trkpt><trkpt lat="38.45530498305869" lon="16.382739351646173"><ele>942.5999999999999</ele><time>2026-05-03T15:17:45.705Z</time></trkpt><trkpt lat="38.4552209188814" lon="16.382780361221382"><ele>942.8</ele><time>2026-05-03T15:17:46.705Z</time></trkpt><trkpt lat="38.45513142111584" lon="16.38280445623571"><ele>943.0</ele><time>2026-05-03T15:17:47.705Z</time></trkpt><trkpt lat="38.45504822568774" lon="16.382822616104505"><ele>942.9999999999999</ele><time>2026-05-03T15:17:48.705Z</time></trkpt><trkpt lat="38.454976502829595" lon="16.382802842714618"><ele>943.0</ele><time>2026-05-03T15:17:49.705Z</time></trkpt><trkpt lat="38.45489918741058" lon="16.382838972144132"><ele>943.0</ele><time>2026-05-03T15:17:50.705Z</time></trkpt><trkpt lat="38.4548061999722" lon="16.382867415706087"><ele>943.0</ele><time>2026-05-03T15:17:51.705Z</time></trkpt><trkpt lat="38.45471670232592" lon="16.3828909276339"><ele>942.9999999999999</ele><time>2026-05-03T15:17:52.705Z</time></trkpt><trkpt lat="38.45462294963527" lon="16.382912361097908"><ele>943.0</ele><time>2026-05-03T15:17:53.705Z</time></trkpt><trkpt lat="38.454529133162154" lon="16.382932198445513"><ele>941.5999999999999</ele><time>2026-05-03T15:17:54.705Z</time></trkpt><trkpt lat="38.4544266759201" lon="16.38295575919821"><ele>940.1999999999999</ele><time>2026-05-03T15:17:55.705Z</time></trkpt><trkpt lat="38.45432335563722" lon="16.38298447094568"><ele>938.8</ele><time>2026-05-03T15:17:56.705Z</time></trkpt><trkpt lat="38.45422166479323" lon="16.38300121528723"><ele>937.4</ele><time>2026-05-03T15:17:57.705Z</time></trkpt><trkpt lat="38.454127741845454" lon="16.38305289978661"><ele>936.0</ele><time>2026-05-03T15:17:58.705Z</time></trkpt><trkpt lat="38.45402877337432" lon="16.383106095370962"><ele>933.8</ele><time>2026-05-03T15:17:59.705Z</time></trkpt><trkpt lat="38.45392933255918" lon="16.38315155205725"><ele>931.5999999999999</ele><time>2026-05-03T15:18:00.705Z</time></trkpt><trkpt lat="38.45383375277896" lon="16.38318264249286"><ele>929.4</ele><time>2026-05-03T15:18:01.705Z</time></trkpt><trkpt lat="38.45372857167385" lon="16.383194537961604"><ele>927.2</ele><time>2026-05-03T15:18:02.705Z</time></trkpt><trkpt lat="38.45362095116528" lon="16.383211527362686"><ele>925.0</ele><time>2026-05-03T15:18:03.705Z</time></trkpt><trkpt lat="38.45351396970227" lon="16.38322190486431"><ele>923.2</ele><time>2026-05-03T15:18:04.705Z</time></trkpt><trkpt lat="38.45340242814837" lon="16.38323367519465"><ele>921.4</ele><time>2026-05-03T15:18:05.705Z</time></trkpt><trkpt lat="38.45329316798574" lon="16.383259267322035"><ele>919.5999999999999</ele><time>2026-05-03T15:18:06.705Z</time></trkpt><trkpt lat="38.45319058168801" lon="16.38329476164834"><ele>917.8</ele><time>2026-05-03T15:18:07.705Z</time></trkpt><trkpt lat="38.453089636101595" lon="16.383329644619977"><ele>916.0</ele><time>2026-05-03T15:18:08.705Z</time></trkpt><trkpt lat="38.453009019563474" lon="16.38338966567391"><ele>913.6666666666666</ele><time>2026-05-03T15:18:09.705Z</time></trkpt><trkpt lat="38.452929589131756" lon="16.383435605239384"><ele>911.3333333333333</ele><time>2026-05-03T15:18:10.705Z</time></trkpt><trkpt lat="38.45286459086134" lon="16.383519468900577"><ele>909.0</ele><time>2026-05-03T15:18:11.705Z</time></trkpt><trkpt lat="38.45278688040001" lon="16.3835357662148"><ele>906.6666666666667</ele><time>2026-05-03T15:18:12.705Z</time></trkpt><trkpt lat="38.45272030619984" lon="16.383568794348918"><ele>904.3333333333334</ele><time>2026-05-03T15:18:13.705Z</time></trkpt><trkpt lat="38.45262045104365" lon="16.383600751219"><ele>902.0</ele><time>2026-05-03T15:18:15.705Z</time></trkpt><trkpt lat="38.45253245658503" lon="16.383637733534613"><ele>902.0</ele><time>2026-05-03T15:18:17.705Z</time></trkpt><trkpt lat="38.452471707020315" lon="16.38372542198581"><ele>902.0</ele><time>2026-05-03T15:18:19.705Z</time></trkpt><trkpt lat="38.45244377288431" lon="16.383844971540633"><ele>902.0</ele><time>2026-05-03T15:18:21.705Z</time></trkpt><trkpt lat="38.45250882785354" lon="16.38390008473235"><ele>902.0</ele><time>2026-05-03T15:18:22.705Z</time></trkpt><trkpt lat="38.45260335949903" lon="16.38397297439549"><ele>902.0</ele><time>2026-05-03T15:18:24.705Z</time></trkpt><trkpt lat="38.45269926723978" lon="16.3840634218489"><ele>901.5000000000001</ele><time>2026-05-03T15:18:26.704Z</time></trkpt><trkpt lat="38.45278721024187" lon="16.384174927961283"><ele>901.0</ele><time>2026-05-03T15:18:28.704Z</time></trkpt><trkpt lat="38.45284725979254" lon="16.384249725679414"><ele>900.5</ele><time>2026-05-03T15:18:29.704Z</time></trkpt><trkpt lat="38.45292701136245" lon="16.384291738447935"><ele>900.0</ele><time>2026-05-03T15:18:30.704Z</time></trkpt><trkpt lat="38.45300059148941" lon="16.384294091882563"><ele>899.5000000000001</ele><time>2026-05-03T15:18:31.704Z</time></trkpt><trkpt lat="38.45307231678051" lon="16.384287592660222"><ele>899.0</ele><time>2026-05-03T15:18:32.704Z</time></trkpt><trkpt lat="38.453159521183906" lon="16.384269528681386"><ele>899.0</ele><time>2026-05-03T15:18:33.704Z</time></trkpt><trkpt lat="38.453236573834786" lon="16.384235007532915"><ele>899.0000000000001</ele><time>2026-05-03T15:18:34.704Z</time></trkpt><trkpt lat="38.453298309027126" lon="16.384186551562912"><ele>899.0000000000001</ele><time>2026-05-03T15:18:35.704Z</time></trkpt><trkpt lat="38.453382867248386" lon="16.38410186487024"><ele>899.0</ele><time>2026-05-03T15:18:37.704Z</time></trkpt><trkpt lat="38.45346726780516" lon="16.384115153108052"><ele>899.0</ele><time>2026-05-03T15:18:39.704Z</time></trkpt><trkpt lat="38.453523760562405" lon="16.38424912386802"><ele>898.9999999999999</ele><time>2026-05-03T15:18:41.704Z</time></trkpt><trkpt lat="38.453562163892634" lon="16.384323986252536"><ele>899.0</ele><time>2026-05-03T15:18:42.704Z</time></trkpt><trkpt lat="38.45360525497055" lon="16.384401307272167"><ele>898.9999999999999</ele><time>2026-05-03T15:18:43.704Z</time></trkpt><trkpt lat="38.4536374488613" lon="16.384476199991994"><ele>898.9999999999999</ele><time>2026-05-03T15:18:44.704Z</time></trkpt><trkpt lat="38.45365673166925" lon="16.384562885468306"><ele>899.0</ele><time>2026-05-03T15:18:45.704Z</time></trkpt><trkpt lat="38.453674265021455" lon="16.3846571208761"><ele>898.9999999999999</ele><time>2026-05-03T15:18:46.704Z</time></trkpt><trkpt lat="38.4536834801516" lon="16.3847432116874"><ele>898.9999999999999</ele><time>2026-05-03T15:18:47.704Z</time></trkpt><trkpt lat="38.45369202647717" lon="16.384837375132978"><ele>894.5000000000001</ele><time>2026-05-03T15:18:48.704Z</time></trkpt><trkpt lat="38.45368031752054" lon="16.384945870430712"><ele>890.0</ele><time>2026-05-03T15:18:49.704Z</time></trkpt><trkpt lat="38.45368504495151" lon="16.38504755104977"><ele>885.5</ele><time>2026-05-03T15:18:50.704Z</time></trkpt><trkpt lat="38.45368955747276" lon="16.385144609203106"><ele>881.0</ele><time>2026-05-03T15:18:51.704Z</time></trkpt><trkpt lat="38.45369297153269" lon="16.385235417419896"><ele>876.5000000000001</ele><time>2026-05-03T15:18:52.704Z</time></trkpt><trkpt lat="38.45369680084383" lon="16.38539474323521"><ele>872.0</ele><time>2026-05-03T15:18:54.704Z</time></trkpt><trkpt lat="38.45370204839329" lon="16.385483302750455"><ele>869.8</ele><time>2026-05-03T15:18:55.704Z</time></trkpt><trkpt lat="38.45375248584771" lon="16.38562000040112"><ele>867.6</ele><time>2026-05-03T15:18:56.704Z</time></trkpt><trkpt lat="38.45384705517515" lon="16.38569869424528"><ele>865.3999999999999</ele><time>2026-05-03T15:18:57.704Z</time></trkpt><trkpt lat="38.453928572096295" lon="16.38573555828349"><ele>863.1999999999999</ele><time>2026-05-03T15:18:58.704Z</time></trkpt><trkpt lat="38.45400586655818" lon="16.38575616732279"><ele>861.0</ele><time>2026-05-03T15:18:59.704Z</time></trkpt><trkpt lat="38.45409057027207" lon="16.385757479917505"><ele>861.0</ele><time>2026-05-03T15:19:00.704Z</time></trkpt><trkpt lat="38.45417882979182" lon="16.38573362778918"><ele>861.0</ele><time>2026-05-03T15:19:01.704Z</time></trkpt><trkpt lat="38.454254841662" lon="16.38569846555599"><ele>861.0</ele><time>2026-05-03T15:19:02.704Z</time></trkpt><trkpt lat="38.45432719769331" lon="16.385652305129206"><ele>861.0</ele><time>2026-05-03T15:19:03.704Z</time></trkpt><trkpt lat="38.45438994685413" lon="16.385596105838072"><ele>861.0</ele><time>2026-05-03T15:19:04.704Z</time></trkpt><trkpt lat="38.4544445083466" lon="16.38554005549119"><ele>861.0</ele><time>2026-05-03T15:19:05.704Z</time></trkpt><trkpt lat="38.454496662994735" lon="16.385481913207677"><ele>864.0</ele><time>2026-05-03T15:19:06.704Z</time></trkpt><trkpt lat="38.45454200391756" lon="16.38542350308858"><ele>867.0</ele><time>2026-05-03T15:19:07.704Z</time></trkpt><trkpt lat="38.45458463166414" lon="16.38534982444471"><ele>870.0</ele><time>2026-05-03T15:19:08.703Z</time></trkpt><trkpt lat="38.45462089085969" lon="16.385273002768066"><ele>873.0</ele><time>2026-05-03T15:19:09.703Z</time></trkpt><trkpt lat="38.45465877285704" lon="16.38519568252488"><ele>876.0</ele><time>2026-05-03T15:19:10.703Z</time></trkpt><trkpt lat="38.45469451980339" lon="16.385122719800577"><ele>879.0</ele><time>2026-05-03T15:19:11.703Z</time></trkpt><trkpt lat="38.45479090283682" lon="16.385028521623756"><ele>879.0</ele><time>2026-05-03T15:19:13.703Z</time></trkpt><trkpt lat="38.454855399692526" lon="16.385000401232208"><ele>879.0000000000001</ele><time>2026-05-03T15:19:14.703Z</time></trkpt><trkpt lat="38.45492277648494" lon="16.384982138880016"><ele>879.0000000000001</ele><time>2026-05-03T15:19:15.703Z</time></trkpt><trkpt lat="38.455032376482635" lon="16.384975865048386"><ele>879.0</ele><time>2026-05-03T15:19:17.703Z</time></trkpt><trkpt lat="38.45508372502805" lon="16.38509879841982"><ele>879.0</ele><time>2026-05-03T15:19:19.703Z</time></trkpt><trkpt lat="38.45505277053446" lon="16.385253474225465"><ele>879.0</ele><time>2026-05-03T15:19:21.703Z</time></trkpt><trkpt lat="38.45502292028884" lon="16.385327957734216"><ele>879.0</ele><time>2026-05-03T15:19:22.703Z</time></trkpt><trkpt lat="38.45499504316464" lon="16.38541213874253"><ele>879.0</ele><time>2026-05-03T15:19:23.703Z</time></trkpt><trkpt lat="38.45497573791655" lon="16.385490647791887"><ele>879.0</ele><time>2026-05-03T15:19:24.703Z</time></trkpt><trkpt lat="38.45495965701996" lon="16.38557390073542"><ele>879.0</ele><time>2026-05-03T15:19:25.703Z</time></trkpt><trkpt lat="38.45492992928979" lon="16.385727173489013"><ele>879.0</ele><time>2026-05-03T15:19:27.703Z</time></trkpt><trkpt lat="38.45489285348482" lon="16.38579370560401"><ele>876.5</ele><time>2026-05-03T15:19:28.703Z</time></trkpt><trkpt lat="38.45486545123779" lon="16.38587152052979"><ele>874.0</ele><time>2026-05-03T15:19:29.703Z</time></trkpt><trkpt lat="38.454835966843724" lon="16.385961615201744"><ele>871.5</ele><time>2026-05-03T15:19:30.703Z</time></trkpt><trkpt lat="38.4548213904338" lon="16.38608203695947"><ele>869.0</ele><time>2026-05-03T15:19:31.704Z</time></trkpt><trkpt lat="38.454828445703235" lon="16.38617817588157"><ele>866.5</ele><time>2026-05-03T15:19:32.704Z</time></trkpt><trkpt lat="38.45484245996372" lon="16.386266989606792"><ele>864.0</ele><time>2026-05-03T15:19:33.704Z</time></trkpt><trkpt lat="38.45486135498591" lon="16.386422876453654"><ele>860.6666666666666</ele><time>2026-05-03T15:19:35.704Z</time></trkpt><trkpt lat="38.45486167693949" lon="16.38657454004147"><ele>857.3333333333333</ele><time>2026-05-03T15:19:37.703Z</time></trkpt><trkpt lat="38.45484750647973" lon="16.38666053082271"><ele>854.0</ele><time>2026-05-03T15:19:38.703Z</time></trkpt><trkpt lat="38.45482054738343" lon="16.38673834522484"><ele>850.6666666666666</ele><time>2026-05-03T15:19:39.703Z</time></trkpt><trkpt lat="38.454790939623145" lon="16.386813715978935"><ele>847.3333333333333</ele><time>2026-05-03T15:19:40.703Z</time></trkpt><trkpt lat="38.45475724450401" lon="16.386917120871576"><ele>844.0</ele><time>2026-05-03T15:19:41.703Z</time></trkpt><trkpt lat="38.45474871506448" lon="16.387032342212127"><ele>843.9999999999999</ele><time>2026-05-03T15:19:42.703Z</time></trkpt><trkpt lat="38.45474653913981" lon="16.387131034592077"><ele>844.0</ele><time>2026-05-03T15:19:43.703Z</time></trkpt><trkpt lat="38.454743884265696" lon="16.387220453058944"><ele>844.0</ele><time>2026-05-03T15:19:44.703Z</time></trkpt><trkpt lat="38.45473158072476" lon="16.38730777789998"><ele>844.0</ele><time>2026-05-03T15:19:45.703Z</time></trkpt><trkpt lat="38.45469578754042" lon="16.387390491179364"><ele>843.9999999999999</ele><time>2026-05-03T15:19:46.703Z</time></trkpt><trkpt lat="38.4546286004856" lon="16.38747736182425"><ele>844.0</ele><time>2026-05-03T15:19:47.703Z</time></trkpt><trkpt lat="38.4545601614419" lon="16.387536893075662"><ele>839.6</ele><time>2026-05-03T15:19:48.703Z</time></trkpt><trkpt lat="38.45447826271863" lon="16.387589163053768"><ele>835.2</ele><time>2026-05-03T15:19:49.702Z</time></trkpt><trkpt lat="38.454392488723705" lon="16.387625725742616"><ele>830.8000000000001</ele><time>2026-05-03T15:19:50.702Z</time></trkpt><trkpt lat="38.45430702051107" lon="16.38767865301305"><ele>826.4000000000001</ele><time>2026-05-03T15:19:51.702Z</time></trkpt><trkpt lat="38.45421785990966" lon="16.387714665244225"><ele>822.0</ele><time>2026-05-03T15:19:52.702Z</time></trkpt><trkpt lat="38.45413497700779" lon="16.3877801961556"><ele>822.0</ele><time>2026-05-03T15:19:53.702Z</time></trkpt><trkpt lat="38.45406864873036" lon="16.38786031947248"><ele>822.0</ele><time>2026-05-03T15:19:54.702Z</time></trkpt><trkpt lat="38.45400657510925" lon="16.38796125565892"><ele>822.0</ele><time>2026-05-03T15:19:55.702Z</time></trkpt><trkpt lat="38.45395829349391" lon="16.38807050170007"><ele>822.0</ele><time>2026-05-03T15:19:56.702Z</time></trkpt><trkpt lat="38.45395082057804" lon="16.3881906776008"><ele>822.0</ele><time>2026-05-03T15:19:57.702Z</time></trkpt><trkpt lat="38.453919915867516" lon="16.388308575153726"><ele>821.8333333333334</ele><time>2026-05-03T15:19:58.702Z</time></trkpt><trkpt lat="38.45390867466754" lon="16.38842656954543"><ele>821.6666666666667</ele><time>2026-05-03T15:19:59.702Z</time></trkpt><trkpt lat="38.453899050973426" lon="16.38853993891901"><ele>821.5</ele><time>2026-05-03T15:20:00.702Z</time></trkpt><trkpt lat="38.45389208170362" lon="16.388647205572223"><ele>821.3333333333334</ele><time>2026-05-03T15:20:01.702Z</time></trkpt><trkpt lat="38.453885292720976" lon="16.388752564045067"><ele>821.1666666666667</ele><time>2026-05-03T15:20:02.702Z</time></trkpt><trkpt lat="38.45387841926846" lon="16.388859233490066"><ele>821.0</ele><time>2026-05-03T15:20:03.702Z</time></trkpt><trkpt lat="38.453869895298176" lon="16.388943158723432"><ele>820.8</ele><time>2026-05-03T15:20:04.702Z</time></trkpt><trkpt lat="38.45386124579134" lon="16.389024659734748"><ele>820.5999999999999</ele><time>2026-05-03T15:20:05.702Z</time></trkpt><trkpt lat="38.45383638210569" lon="16.389155762294138"><ele>820.4</ele><time>2026-05-03T15:20:07.702Z</time></trkpt><trkpt lat="38.45379614257053" lon="16.38927211229738"><ele>820.2</ele><time>2026-05-03T15:20:09.702Z</time></trkpt><trkpt lat="38.453740917132365" lon="16.389412264086637"><ele>820.0</ele><time>2026-05-03T15:20:11.702Z</time></trkpt><trkpt lat="38.45371005155196" lon="16.389493603200343"><ele>816.6666666666666</ele><time>2026-05-03T15:20:12.702Z</time></trkpt><trkpt lat="38.453679873563765" lon="16.38959344918694"><ele>813.3333333333333</ele><time>2026-05-03T15:20:13.702Z</time></trkpt><trkpt lat="38.45366831650461" lon="16.389709386801993"><ele>810.0</ele><time>2026-05-03T15:20:14.702Z</time></trkpt><trkpt lat="38.45367255246234" lon="16.3898156409306"><ele>806.6666666666667</ele><time>2026-05-03T15:20:15.702Z</time></trkpt><trkpt lat="38.45367875664089" lon="16.389914989094827"><ele>803.3333333333334</ele><time>2026-05-03T15:20:16.702Z</time></trkpt><trkpt lat="38.45368033323466" lon="16.39000610008139"><ele>800.0</ele><time>2026-05-03T15:20:17.702Z</time></trkpt><trkpt lat="38.45367296202018" lon="16.390096660713855"><ele>800.0000000000001</ele><time>2026-05-03T15:20:18.702Z</time></trkpt><trkpt lat="38.45367463659603" lon="16.390186949150227"><ele>800.0</ele><time>2026-05-03T15:20:19.702Z</time></trkpt><trkpt lat="38.453738023305476" lon="16.39029596687355"><ele>800.0</ele><time>2026-05-03T15:20:21.702Z</time></trkpt><trkpt lat="38.45381123291339" lon="16.3902670188443"><ele>800.0</ele><time>2026-05-03T15:20:22.702Z</time></trkpt><trkpt lat="38.45387691403357" lon="16.390243695734693"><ele>800.0000000000001</ele><time>2026-05-03T15:20:23.702Z</time></trkpt><trkpt lat="38.453941983357055" lon="16.390226537113822"><ele>800.0</ele><time>2026-05-03T15:20:24.702Z</time></trkpt><trkpt lat="38.454002072802986" lon="16.390185836255583"><ele>801.0000000000001</ele><time>2026-05-03T15:20:25.702Z</time></trkpt><trkpt lat="38.45406073793084" lon="16.390146930772378"><ele>802.0</ele><time>2026-05-03T15:20:26.702Z</time></trkpt><trkpt lat="38.45414079477287" lon="16.390119480310748"><ele>803.0</ele><time>2026-05-03T15:20:28.702Z</time></trkpt><trkpt lat="38.45415980191017" lon="16.39020696979197"><ele>804.0</ele><time>2026-05-03T15:20:31.701Z</time></trkpt><trkpt lat="38.4540706407121" lon="16.39029349221073"><ele>805.0000000000001</ele><time>2026-05-03T15:20:33.701Z</time></trkpt><trkpt lat="38.45402264071664" lon="16.39034796880394"><ele>806.0</ele><time>2026-05-03T15:20:34.701Z</time></trkpt><trkpt lat="38.45396574663268" lon="16.390416963195886"><ele>806.0000000000001</ele><time>2026-05-03T15:20:35.701Z</time></trkpt><trkpt lat="38.453914281217656" lon="16.390496531384617"><ele>806.0</ele><time>2026-05-03T15:20:36.701Z</time></trkpt><trkpt lat="38.45384884228856" lon="16.390562697422"><ele>806.0</ele><time>2026-05-03T15:20:37.701Z</time></trkpt><trkpt lat="38.453781746634775" lon="16.390620789671537"><ele>806.0</ele><time>2026-05-03T15:20:38.701Z</time></trkpt><trkpt lat="38.45370824643538" lon="16.390660980983718"><ele>806.0000000000001</ele><time>2026-05-03T15:20:39.701Z</time></trkpt><trkpt lat="38.453639606012715" lon="16.39068767200588"><ele>806.0</ele><time>2026-05-03T15:20:40.701Z</time></trkpt><trkpt lat="38.45353088000159" lon="16.390734962424993"><ele>802.4</ele><time>2026-05-03T15:20:42.701Z</time></trkpt><trkpt lat="38.45345174037611" lon="16.390814610525666"><ele>798.8</ele><time>2026-05-03T15:20:44.701Z</time></trkpt><trkpt lat="38.453490400529894" lon="16.390903975234"><ele>795.1999999999999</ele><time>2026-05-03T15:20:45.701Z</time></trkpt><trkpt lat="38.453557728676735" lon="16.390888952631695"><ele>791.5999999999999</ele><time>2026-05-03T15:20:46.701Z</time></trkpt><trkpt lat="38.45366645491983" lon="16.39089177179197"><ele>788.0</ele><time>2026-05-03T15:20:48.701Z</time></trkpt><trkpt lat="38.45378213921344" lon="16.390847863958488"><ele>787.3333333333334</ele><time>2026-05-03T15:20:50.701Z</time></trkpt><trkpt lat="38.45384357976857" lon="16.39082414927232"><ele>786.6666666666667</ele><time>2026-05-03T15:20:51.701Z</time></trkpt><trkpt lat="38.45390643167695" lon="16.39080276279605"><ele>786.0</ele><time>2026-05-03T15:20:52.701Z</time></trkpt><trkpt lat="38.45400248658659" lon="16.390780927876666"><ele>785.3333333333333</ele><time>2026-05-03T15:20:54.701Z</time></trkpt><trkpt lat="38.45402988925973" lon="16.390873171869462"><ele>784.6666666666666</ele><time>2026-05-03T15:20:57.701Z</time></trkpt><trkpt lat="38.453932808140145" lon="16.390921589975584"><ele>784.0</ele><time>2026-05-03T15:20:59.701Z</time></trkpt><trkpt lat="38.45382936699951" lon="16.391017923311978"><ele>784.6666666666666</ele><time>2026-05-03T15:21:01.701Z</time></trkpt><trkpt lat="38.453757876279106" lon="16.391055803571845"><ele>785.3333333333333</ele><time>2026-05-03T15:21:02.701Z</time></trkpt><trkpt lat="38.453679888648225" lon="16.3910965518884"><ele>786.0</ele><time>2026-05-03T15:21:03.701Z</time></trkpt><trkpt lat="38.45360198746828" lon="16.391137095784668"><ele>786.6666666666667</ele><time>2026-05-03T15:21:04.701Z</time></trkpt><trkpt lat="38.45351660589416" lon="16.3911633702765"><ele>787.3333333333334</ele><time>2026-05-03T15:21:05.701Z</time></trkpt><trkpt lat="38.453426678826766" lon="16.3911766425976"><ele>788.0</ele><time>2026-05-03T15:21:06.701Z</time></trkpt><trkpt lat="38.45333380827824" lon="16.391190174666168"><ele>788.0</ele><time>2026-05-03T15:21:07.701Z</time></trkpt><trkpt lat="38.45323244594959" lon="16.391199763034646"><ele>788.0</ele><time>2026-05-03T15:21:08.701Z</time></trkpt><trkpt lat="38.453129626514894" lon="16.391207098613588"><ele>788.0</ele><time>2026-05-03T15:21:09.701Z</time></trkpt><trkpt lat="38.453024385017464" lon="16.391214300889242"><ele>788.0</ele><time>2026-05-03T15:21:10.701Z</time></trkpt><trkpt lat="38.45291543432928" lon="16.39120823962168"><ele>788.0</ele><time>2026-05-03T15:21:11.701Z</time></trkpt><trkpt lat="38.45280308997569" lon="16.39118807362074"><ele>783.75</ele><time>2026-05-03T15:21:12.7Z</time></trkpt><trkpt lat="38.452690731938745" lon="16.391151488247083"><ele>779.5</ele><time>2026-05-03T15:21:13.7Z</time></trkpt><trkpt lat="38.45257689078505" lon="16.39110954856177"><ele>775.25</ele><time>2026-05-03T15:21:14.7Z</time></trkpt><trkpt lat="38.452461743213725" lon="16.391060949927105"><ele>771.0</ele><time>2026-05-03T15:21:15.7Z</time></trkpt><trkpt lat="38.45234821139898" lon="16.391014910767165"><ele>771.0</ele><time>2026-05-03T15:21:16.7Z</time></trkpt><trkpt lat="38.45224122828077" lon="16.39098423891044"><ele>771.0</ele><time>2026-05-03T15:21:17.7Z</time></trkpt><trkpt lat="38.452150609419036" lon="16.390954627474688"><ele>771.0</ele><time>2026-05-03T15:21:18.7Z</time></trkpt><trkpt lat="38.45208293086359" lon="16.39091123735996"><ele>771.0</ele><time>2026-05-03T15:21:19.7Z</time></trkpt><trkpt lat="38.452027922455564" lon="16.39083713914371"><ele>771.0</ele><time>2026-05-03T15:21:20.7Z</time></trkpt><trkpt lat="38.451993810219506" lon="16.390760187470143"><ele>771.0</ele><time>2026-05-03T15:21:21.7Z</time></trkpt><trkpt lat="38.451982583522906" lon="16.390674345363774"><ele>764.6666666666666</ele><time>2026-05-03T15:21:22.7Z</time></trkpt><trkpt lat="38.45199470703476" lon="16.39058006967536"><ele>758.3333333333334</ele><time>2026-05-03T15:21:23.7Z</time></trkpt><trkpt lat="38.45202550408513" lon="16.390474614771108"><ele>752.0</ele><time>2026-05-03T15:21:24.7Z</time></trkpt><trkpt lat="38.45205332987721" lon="16.390386956271204"><ele>745.6666666666667</ele><time>2026-05-03T15:21:25.7Z</time></trkpt><trkpt lat="38.452071395936045" lon="16.39030963229479"><ele>739.3333333333334</ele><time>2026-05-03T15:21:26.7Z</time></trkpt><trkpt lat="38.45205619834826" lon="16.390188355729997"><ele>733.0</ele><time>2026-05-03T15:21:28.7Z</time></trkpt><trkpt lat="38.45197413679462" lon="16.390139558294802"><ele>732.9999999999999</ele><time>2026-05-03T15:21:30.7Z</time></trkpt><trkpt lat="38.45191530298464" lon="16.390174041737883"><ele>733.0</ele><time>2026-05-03T15:21:31.7Z</time></trkpt><trkpt lat="38.45185987617496" lon="16.39022436681487"><ele>733.0</ele><time>2026-05-03T15:21:32.7Z</time></trkpt><trkpt lat="38.45181927321906" lon="16.390310253367847"><ele>733.0</ele><time>2026-05-03T15:21:33.7Z</time></trkpt><trkpt lat="38.451786035301694" lon="16.390391966896967"><ele>733.0</ele><time>2026-05-03T15:21:34.7Z</time></trkpt><trkpt lat="38.4517477207022" lon="16.390482297913408"><ele>732.9999999999999</ele><time>2026-05-03T15:21:35.7Z</time></trkpt><trkpt lat="38.451711707088045" lon="16.390580994502074"><ele>733.0</ele><time>2026-05-03T15:21:36.7Z</time></trkpt><trkpt lat="38.451678456995474" lon="16.39068360047724"><ele>733.0</ele><time>2026-05-03T15:21:37.7Z</time></trkpt><trkpt lat="38.451664209633776" lon="16.390800714347463"><ele>733.0</ele><time>2026-05-03T15:21:38.7Z</time></trkpt><trkpt lat="38.45166019303551" lon="16.390919148306367"><ele>733.0</ele><time>2026-05-03T15:21:39.7Z</time></trkpt><trkpt lat="38.451687164831014" lon="16.391041164709435"><ele>733.0</ele><time>2026-05-03T15:21:40.7Z</time></trkpt><trkpt lat="38.45171443714615" lon="16.39113220414879"><ele>733.0</ele><time>2026-05-03T15:21:41.7Z</time></trkpt><trkpt lat="38.451743287408625" lon="16.391216046729756"><ele>733.0</ele><time>2026-05-03T15:21:42.7Z</time></trkpt><trkpt lat="38.45171963221277" lon="16.391362814004133"><ele>733.0</ele><time>2026-05-03T15:21:44.7Z</time></trkpt><trkpt lat="38.45162511319466" lon="16.39146594823488"><ele>733.0</ele><time>2026-05-03T15:21:46.7Z</time></trkpt><trkpt lat="38.45156391882091" lon="16.391492052084544"><ele>733.0</ele><time>2026-05-03T15:21:47.7Z</time></trkpt><trkpt lat="38.4514687989838" lon="16.391441006814503"><ele>733.0</ele><time>2026-05-03T15:21:49.699Z</time></trkpt><trkpt lat="38.451437506953106" lon="16.391290356772323"><ele>733.0</ele><time>2026-05-03T15:21:51.699Z</time></trkpt><trkpt lat="38.451421584104814" lon="16.391198324038722"><ele>733.0</ele><time>2026-05-03T15:21:52.699Z</time></trkpt><trkpt lat="38.451409753325756" lon="16.391111974041834"><ele>733.0</ele><time>2026-05-03T15:21:53.699Z</time></trkpt><trkpt lat="38.451397546730234" lon="16.39102897106358"><ele>733.0</ele><time>2026-05-03T15:21:54.699Z</time></trkpt><trkpt lat="38.45134692248297" lon="16.390918122579702"><ele>733.0</ele><time>2026-05-03T15:21:56.699Z</time></trkpt><trkpt lat="38.45126945060887" lon="16.390900808019225"><ele>733.0</ele><time>2026-05-03T15:21:58.699Z</time></trkpt><trkpt lat="38.45118342707744" lon="16.391018317607294"><ele>733.0</ele><time>2026-05-03T15:22:00.699Z</time></trkpt><trkpt lat="38.45111838003633" lon="16.391159987345382"><ele>728.1428571428571</ele><time>2026-05-03T15:22:02.699Z</time></trkpt><trkpt lat="38.45108034310551" lon="16.391238181721352"><ele>723.2857142857142</ele><time>2026-05-03T15:22:03.699Z</time></trkpt><trkpt lat="38.45103996760861" lon="16.391322234013238"><ele>718.4285714285713</ele><time>2026-05-03T15:22:04.699Z</time></trkpt><trkpt lat="38.45099940500751" lon="16.391411514826277"><ele>713.5714285714286</ele><time>2026-05-03T15:22:05.699Z</time></trkpt><trkpt lat="38.45096420751589" lon="16.39150181177019"><ele>708.7142857142858</ele><time>2026-05-03T15:22:06.699Z</time></trkpt><trkpt lat="38.450932905361256" lon="16.391579660871383"><ele>703.8571428571428</ele><time>2026-05-03T15:22:07.699Z</time></trkpt><trkpt lat="38.45090340822607" lon="16.391652510763215"><ele>699.0</ele><time>2026-05-03T15:22:08.699Z</time></trkpt><trkpt lat="38.45086238344501" lon="16.39179607372949"><ele>699.0</ele><time>2026-05-03T15:22:10.699Z</time></trkpt><trkpt lat="38.45088219878643" lon="16.39188411332649"><ele>699.0</ele><time>2026-05-03T15:22:11.699Z</time></trkpt><trkpt lat="38.45094785875078" lon="16.391940758240175"><ele>699.0</ele><time>2026-05-03T15:22:12.699Z</time></trkpt><trkpt lat="38.45103068203115" lon="16.39201072833452"><ele>699.0</ele><time>2026-05-03T15:22:14.699Z</time></trkpt><trkpt lat="38.451022993545706" lon="16.392103103855302"><ele>699.0</ele><time>2026-05-03T15:22:18.699Z</time></trkpt><trkpt lat="38.45093043137889" lon="16.392090407381122"><ele>699.0</ele><time>2026-05-03T15:22:20.699Z</time></trkpt><trkpt lat="38.4508126774486" lon="16.392057675868024"><ele>699.0</ele><time>2026-05-03T15:22:22.699Z</time></trkpt><trkpt lat="38.45069027769592" lon="16.392018032724774"><ele>699.0</ele><time>2026-05-03T15:22:24.699Z</time></trkpt><trkpt lat="38.450566795140375" lon="16.39200591347024"><ele>699.0</ele><time>2026-05-03T15:22:26.699Z</time></trkpt><trkpt lat="38.450446534581445" lon="16.392046438202286"><ele>699.0</ele><time>2026-05-03T15:22:28.699Z</time></trkpt><trkpt lat="38.45040097920655" lon="16.39210293459421"><ele>699.0</ele><time>2026-05-03T15:22:29.698Z</time></trkpt><trkpt lat="38.45037054431911" lon="16.392178713947168"><ele>696.0</ele><time>2026-05-03T15:22:30.698Z</time></trkpt><trkpt lat="38.45040517956403" lon="16.39233186442977"><ele>693.0</ele><time>2026-05-03T15:22:32.698Z</time></trkpt><trkpt lat="38.45052695421525" lon="16.392399196189388"><ele>690.0</ele><time>2026-05-03T15:22:34.698Z</time></trkpt><trkpt lat="38.450646754440456" lon="16.39244881875554"><ele>687.0</ele><time>2026-05-03T15:22:36.698Z</time></trkpt><trkpt lat="38.45076913764011" lon="16.392492310038186"><ele>687.0</ele><time>2026-05-03T15:22:38.698Z</time></trkpt><trkpt lat="38.45084951454897" lon="16.392563798161916"><ele>687.0</ele><time>2026-05-03T15:22:40.698Z</time></trkpt><trkpt lat="38.45081376973403" lon="16.39264584569608"><ele>687.0</ele><time>2026-05-03T15:22:43.698Z</time></trkpt><trkpt lat="38.45072176997996" lon="16.392651609494468"><ele>687.0</ele><time>2026-05-03T15:22:45.698Z</time></trkpt><trkpt lat="38.450655118557705" lon="16.39262887180984"><ele>687.0</ele><time>2026-05-03T15:22:46.698Z</time></trkpt><trkpt lat="38.450591240528865" lon="16.392612619151265"><ele>687.0</ele><time>2026-05-03T15:22:47.698Z</time></trkpt><trkpt lat="38.45052500699102" lon="16.392607368111733"><ele>687.0</ele><time>2026-05-03T15:22:48.698Z</time></trkpt><trkpt lat="38.45046068853387" lon="16.39262082659891"><ele>687.0</ele><time>2026-05-03T15:22:49.698Z</time></trkpt><trkpt lat="38.45039827082002" lon="16.3926455205012"><ele>687.0</ele><time>2026-05-03T15:22:50.698Z</time></trkpt><trkpt lat="38.45028940172514" lon="16.392733718555693"><ele>687.0</ele><time>2026-05-03T15:22:52.698Z</time></trkpt><trkpt lat="38.450225446231194" lon="16.39286716128077"><ele>687.0</ele><time>2026-05-03T15:22:54.698Z</time></trkpt><trkpt lat="38.45015469146142" lon="16.392987690985006"><ele>684.0</ele><time>2026-05-03T15:22:56.698Z</time></trkpt><trkpt lat="38.45010907408809" lon="16.39305391922912"><ele>681.0</ele><time>2026-05-03T15:22:57.698Z</time></trkpt><trkpt lat="38.45005708687712" lon="16.393121133035837"><ele>678.0</ele><time>2026-05-03T15:22:58.698Z</time></trkpt><trkpt lat="38.44999586584911" lon="16.393187259646048"><ele>675.0</ele><time>2026-05-03T15:22:59.698Z</time></trkpt><trkpt lat="38.44992607019107" lon="16.393248529805675"><ele>672.0</ele><time>2026-05-03T15:23:00.698Z</time></trkpt><trkpt lat="38.449857900025066" lon="16.39331586188037"><ele>669.0</ele><time>2026-05-03T15:23:01.698Z</time></trkpt><trkpt lat="38.44978440949088" lon="16.393389913438877"><ele>669.0</ele><time>2026-05-03T15:23:02.698Z</time></trkpt><trkpt lat="38.449710378584136" lon="16.393464509435287"><ele>669.0</ele><time>2026-05-03T15:23:03.699Z</time></trkpt><trkpt lat="38.44963513691105" lon="16.39353917678971"><ele>669.0</ele><time>2026-05-03T15:23:04.7Z</time></trkpt><trkpt lat="38.44955383021531" lon="16.393615283638045"><ele>669.0</ele><time>2026-05-03T15:23:05.701Z</time></trkpt><trkpt lat="38.44946496959163" lon="16.3937025299264"><ele>669.0</ele><time>2026-05-03T15:23:06.703Z</time></trkpt><trkpt lat="38.449376339907474" lon="16.39379291522374"><ele>665.0</ele><time>2026-05-03T15:23:07.704Z</time></trkpt><trkpt lat="38.449286712069906" lon="16.393880723660125"><ele>661.0</ele><time>2026-05-03T15:23:08.705Z</time></trkpt><trkpt lat="38.449192392351016" lon="16.393973781260446"><ele>657.0</ele><time>2026-05-03T15:23:09.706Z</time></trkpt><trkpt lat="38.449099350856464" lon="16.39407956106736"><ele>653.0</ele><time>2026-05-03T15:23:10.707Z</time></trkpt><trkpt lat="38.44901685346978" lon="16.394206222186604"><ele>653.0</ele><time>2026-05-03T15:23:11.707Z</time></trkpt><trkpt lat="38.44894359044169" lon="16.394342871639132"><ele>653.0</ele><time>2026-05-03T15:23:12.708Z</time></trkpt><trkpt lat="38.448880651413226" lon="16.394487260838833"><ele>653.0</ele><time>2026-05-03T15:23:13.709Z</time></trkpt><trkpt lat="38.44882570219746" lon="16.394624158922614"><ele>653.0</ele><time>2026-05-03T15:23:14.71Z</time></trkpt><trkpt lat="38.44876815300221" lon="16.394770099477537"><ele>652.0</ele><time>2026-05-03T15:23:15.71Z</time></trkpt><trkpt lat="38.4487159192907" lon="16.394915014385862"><ele>651.0</ele><time>2026-05-03T15:23:16.711Z</time></trkpt><trkpt lat="38.448669271941554" lon="16.395052599776935"><ele>650.0</ele><time>2026-05-03T15:23:17.711Z</time></trkpt><trkpt lat="38.448623449974015" lon="16.395186506973747"><ele>649.0</ele><time>2026-05-03T15:23:18.712Z</time></trkpt><trkpt lat="38.44857750041858" lon="16.395316545362032"><ele>649.0</ele><time>2026-05-03T15:23:19.712Z</time></trkpt><trkpt lat="38.448529712796045" lon="16.395441331361933"><ele>649.0</ele><time>2026-05-03T15:23:20.713Z</time></trkpt><trkpt lat="38.448471982400015" lon="16.395546105454628"><ele>649.0</ele><time>2026-05-03T15:23:21.713Z</time></trkpt><trkpt lat="38.448400940762745" lon="16.39565084436708"><ele>649.0</ele><time>2026-05-03T15:23:22.714Z</time></trkpt><trkpt lat="38.44831806873836" lon="16.395739214356475"><ele>649.0</ele><time>2026-05-03T15:23:23.714Z</time></trkpt><trkpt lat="38.44822714483965" lon="16.395828780350424"><ele>647.0</ele><time>2026-05-03T15:23:24.715Z</time></trkpt><trkpt lat="38.44813383381353" lon="16.395921324919843"><ele>645.0</ele><time>2026-05-03T15:23:25.715Z</time></trkpt><trkpt lat="38.44804824993684" lon="16.396006424328412"><ele>643.0</ele><time>2026-05-03T15:23:26.715Z</time></trkpt><trkpt lat="38.44796821633713" lon="16.396084392209346"><ele>641.0</ele><time>2026-05-03T15:23:27.715Z</time></trkpt><trkpt lat="38.447898212825685" lon="16.396157103732243"><ele>639.0</ele><time>2026-05-03T15:23:28.716Z</time></trkpt><trkpt lat="38.447851476387555" lon="16.396247052420456"><ele>635.4</ele><time>2026-05-03T15:23:29.716Z</time></trkpt><trkpt lat="38.447828357577166" lon="16.39635730908748"><ele>631.8</ele><time>2026-05-03T15:23:30.716Z</time></trkpt><trkpt lat="38.44781168558627" lon="16.396468417243323"><ele>628.2</ele><time>2026-05-03T15:23:31.716Z</time></trkpt><trkpt lat="38.44779554097229" lon="16.396587299581398"><ele>624.6</ele><time>2026-05-03T15:23:32.717Z</time></trkpt><trkpt lat="38.44777732889948" lon="16.396712286367965"><ele>621.0</ele><time>2026-05-03T15:23:33.717Z</time></trkpt><trkpt lat="38.44776070508402" lon="16.396831186191275"><ele>621.0</ele><time>2026-05-03T15:23:34.717Z</time></trkpt><trkpt lat="38.44774913389393" lon="16.396957952159255"><ele>621.0</ele><time>2026-05-03T15:23:35.717Z</time></trkpt><trkpt lat="38.44774984041847" lon="16.397089430614965"><ele>621.0</ele><time>2026-05-03T15:23:36.717Z</time></trkpt><trkpt lat="38.44778201672474" lon="16.397228703157943"><ele>621.0</ele><time>2026-05-03T15:23:37.717Z</time></trkpt><trkpt lat="38.44781823321847" lon="16.397357380527872"><ele>621.0</ele><time>2026-05-03T15:23:38.718Z</time></trkpt><trkpt lat="38.4478570736338" lon="16.397485894240088"><ele>621.6</ele><time>2026-05-03T15:23:39.718Z</time></trkpt><trkpt lat="38.44789569982799" lon="16.39761052981228"><ele>622.2</ele><time>2026-05-03T15:23:40.718Z</time></trkpt><trkpt lat="38.447930277421655" lon="16.397736526606675"><ele>622.8</ele><time>2026-05-03T15:23:41.718Z</time></trkpt><trkpt lat="38.44796792716849" lon="16.397864433376558"><ele>623.4</ele><time>2026-05-03T15:23:42.718Z</time></trkpt><trkpt lat="38.44800493657177" lon="16.397985257071323"><ele>624.0</ele><time>2026-05-03T15:23:43.718Z</time></trkpt><trkpt lat="38.44804491960665" lon="16.398094349208673"><ele>621.5</ele><time>2026-05-03T15:23:44.718Z</time></trkpt><trkpt lat="38.44808853944063" lon="16.398191984584237"><ele>619.0</ele><time>2026-05-03T15:23:45.719Z</time></trkpt><trkpt lat="38.448122620448395" lon="16.398265796414275"><ele>616.5</ele><time>2026-05-03T15:23:46.718Z</time></trkpt><trkpt lat="38.448175540877926" lon="16.398388454666524"><ele>614.0</ele><time>2026-05-03T15:23:48.718Z</time></trkpt><trkpt lat="38.44819721908968" lon="16.39849305590579"><ele>611.5</ele><time>2026-05-03T15:23:50.719Z</time></trkpt><trkpt lat="38.44815504208968" lon="16.39857500936647"><ele>609.0</ele><time>2026-05-03T15:23:52.719Z</time></trkpt><trkpt lat="38.44803921976583" lon="16.398634167470902"><ele>609.0</ele><time>2026-05-03T15:23:54.719Z</time></trkpt><trkpt lat="38.44796879241004" lon="16.398635025340987"><ele>609.0</ele><time>2026-05-03T15:23:55.719Z</time></trkpt><trkpt lat="38.44789411453921" lon="16.39862816732713"><ele>609.0</ele><time>2026-05-03T15:23:56.719Z</time></trkpt><trkpt lat="38.447822719455104" lon="16.398611722814696"><ele>609.0</ele><time>2026-05-03T15:23:57.719Z</time></trkpt><trkpt lat="38.447754222478984" lon="16.398578351456457"><ele>609.0</ele><time>2026-05-03T15:23:58.719Z</time></trkpt><trkpt lat="38.44768441694354" lon="16.39852495409984"><ele>609.0</ele><time>2026-05-03T15:23:59.719Z</time></trkpt><trkpt lat="38.44762545419337" lon="16.398473325845753"><ele>609.0</ele><time>2026-05-03T15:24:00.719Z</time></trkpt><trkpt lat="38.44757347425709" lon="16.39842643870854"><ele>606.8333333333334</ele><time>2026-05-03T15:24:01.719Z</time></trkpt><trkpt lat="38.44748007200626" lon="16.398395180606364"><ele>604.6666666666666</ele><time>2026-05-03T15:24:03.719Z</time></trkpt><trkpt lat="38.44740540268755" lon="16.398462593732464"><ele>602.5</ele><time>2026-05-03T15:24:05.719Z</time></trkpt><trkpt lat="38.44738027190401" lon="16.398607268216324"><ele>600.3333333333333</ele><time>2026-05-03T15:24:07.719Z</time></trkpt><trkpt lat="38.44740132129535" lon="16.398686848671186"><ele>598.1666666666666</ele><time>2026-05-03T15:24:08.719Z</time></trkpt><trkpt lat="38.44742534023673" lon="16.39876952990648"><ele>596.0</ele><time>2026-05-03T15:24:09.719Z</time></trkpt><trkpt lat="38.44745113017563" lon="16.398852141914098"><ele>594.7142857142857</ele><time>2026-05-03T15:24:10.719Z</time></trkpt><trkpt lat="38.44748134193324" lon="16.39894174963486"><ele>593.4285714285713</ele><time>2026-05-03T15:24:11.719Z</time></trkpt><trkpt lat="38.44750999475891" lon="16.39902673355533"><ele>592.1428571428571</ele><time>2026-05-03T15:24:12.719Z</time></trkpt><trkpt lat="38.44753428453904" lon="16.399110204127656"><ele>590.8571428571429</ele><time>2026-05-03T15:24:13.719Z</time></trkpt><trkpt lat="38.44755728815397" lon="16.399189874202516"><ele>589.5714285714287</ele><time>2026-05-03T15:24:14.719Z</time></trkpt><trkpt lat="38.44758179866369" lon="16.399272398523436"><ele>588.2857142857143</ele><time>2026-05-03T15:24:15.719Z</time></trkpt><trkpt lat="38.44760846350144" lon="16.399352352045717"><ele>587.0</ele><time>2026-05-03T15:24:16.719Z</time></trkpt><trkpt lat="38.44765543486472" lon="16.39942719250755"><ele>587.0</ele><time>2026-05-03T15:24:17.719Z</time></trkpt><trkpt lat="38.447707400855634" lon="16.39948232341655"><ele>587.0</ele><time>2026-05-03T15:24:18.719Z</time></trkpt><trkpt lat="38.44778689029496" lon="16.399592608956503"><ele>587.0</ele><time>2026-05-03T15:24:20.719Z</time></trkpt><trkpt lat="38.447794844529184" lon="16.399720135339933"><ele>587.0</ele><time>2026-05-03T15:24:22.719Z</time></trkpt><trkpt lat="38.44779037452385" lon="16.399811352364207"><ele>587.0</ele><time>2026-05-03T15:24:23.719Z</time></trkpt><trkpt lat="38.4477515660133" lon="16.399905462880163"><ele>587.0</ele><time>2026-05-03T15:24:24.719Z</time></trkpt><trkpt lat="38.44773267006523" lon="16.40001391023857"><ele>584.5</ele><time>2026-05-03T15:24:25.719Z</time></trkpt><trkpt lat="38.44772254466378" lon="16.40012437013813"><ele>582.0</ele><time>2026-05-03T15:24:26.719Z</time></trkpt><trkpt lat="38.44773348223077" lon="16.40023856104195"><ele>579.5</ele><time>2026-05-03T15:24:27.719Z</time></trkpt><trkpt lat="38.44772984881907" lon="16.40035450409575"><ele>577.0</ele><time>2026-05-03T15:24:28.719Z</time></trkpt><trkpt lat="38.44773699958391" lon="16.400462070881566"><ele>574.5</ele><time>2026-05-03T15:24:29.719Z</time></trkpt><trkpt lat="38.44774029899433" lon="16.400557066007476"><ele>572.0</ele><time>2026-05-03T15:24:30.719Z</time></trkpt><trkpt lat="38.447738899374336" lon="16.40063742785775"><ele>571.2</ele><time>2026-05-03T15:24:31.719Z</time></trkpt><trkpt lat="38.44775639046961" lon="16.40076379184985"><ele>570.4000000000001</ele><time>2026-05-03T15:24:33.719Z</time></trkpt><trkpt lat="38.44782882923511" lon="16.400830795163742"><ele>569.5999999999999</ele><time>2026-05-03T15:24:35.719Z</time></trkpt><trkpt lat="38.447914715656395" lon="16.400760565320937"><ele>568.8</ele><time>2026-05-03T15:24:37.719Z</time></trkpt><trkpt lat="38.447911896322886" lon="16.40067630325973"><ele>568.0</ele><time>2026-05-03T15:24:38.719Z</time></trkpt><trkpt lat="38.44792399773846" lon="16.400546596126198"><ele>567.3333333333334</ele><time>2026-05-03T15:24:40.719Z</time></trkpt><trkpt lat="38.44796081884781" lon="16.40040145748717"><ele>566.6666666666667</ele><time>2026-05-03T15:24:42.719Z</time></trkpt><trkpt lat="38.44797629349126" lon="16.400321447032336"><ele>566.0</ele><time>2026-05-03T15:24:43.719Z</time></trkpt><trkpt lat="38.448014607562875" lon="16.400181241060526"><ele>565.3333333333334</ele><time>2026-05-03T15:24:45.719Z</time></trkpt><trkpt lat="38.4480425908527" lon="16.400095260952757"><ele>564.6666666666666</ele><time>2026-05-03T15:24:46.719Z</time></trkpt><trkpt lat="38.44805650781284" lon="16.400001420553576"><ele>564.0</ele><time>2026-05-03T15:24:47.719Z</time></trkpt><trkpt lat="38.44810491139756" lon="16.399946147804016"><ele>564.0</ele><time>2026-05-03T15:24:48.719Z</time></trkpt><trkpt lat="38.44822032799782" lon="16.399947214197695"><ele>564.0</ele><time>2026-05-03T15:24:50.719Z</time></trkpt><trkpt lat="38.44825936619394" lon="16.400040814476775"><ele>564.0</ele><time>2026-05-03T15:24:52.719Z</time></trkpt><trkpt lat="38.44823174591195" lon="16.400199443067798"><ele>564.0</ele><time>2026-05-03T15:24:54.719Z</time></trkpt><trkpt lat="38.44821499362896" lon="16.400286140646603"><ele>564.0</ele><time>2026-05-03T15:24:55.719Z</time></trkpt><trkpt lat="38.44819753834414" lon="16.400376476555294"><ele>564.0</ele><time>2026-05-03T15:24:56.719Z</time></trkpt><trkpt lat="38.4481800813255" lon="16.400466821310417"><ele>564.0</ele><time>2026-05-03T15:24:57.719Z</time></trkpt><trkpt lat="38.44816215730935" lon="16.400565048664834"><ele>564.0</ele><time>2026-05-03T15:24:58.719Z</time></trkpt><trkpt lat="38.44814432183005" lon="16.400664667533025"><ele>564.0</ele><time>2026-05-03T15:24:59.719Z</time></trkpt><trkpt lat="38.44812494016298" lon="16.400772922548338"><ele>564.0</ele><time>2026-05-03T15:25:00.719Z</time></trkpt><trkpt lat="38.4481067395703" lon="16.40087458074428"><ele>564.0</ele><time>2026-05-03T15:25:01.719Z</time></trkpt><trkpt lat="38.44808782318555" lon="16.400980236991426"><ele>561.8</ele><time>2026-05-03T15:25:02.719Z</time></trkpt><trkpt lat="38.448065602799346" lon="16.40110434757474"><ele>559.5999999999999</ele><time>2026-05-03T15:25:03.719Z</time></trkpt><trkpt lat="38.44805527864622" lon="16.401237436169453"><ele>557.4</ele><time>2026-05-03T15:25:04.719Z</time></trkpt><trkpt lat="38.44806208873113" lon="16.40136460934937"><ele>555.1999999999999</ele><time>2026-05-03T15:25:05.719Z</time></trkpt><trkpt lat="38.44806691752873" lon="16.401482348104636"><ele>553.0</ele><time>2026-05-03T15:25:06.718Z</time></trkpt><trkpt lat="38.44806990160894" lon="16.40159479034813"><ele>553.8</ele><time>2026-05-03T15:25:07.718Z</time></trkpt><trkpt lat="38.44807246529915" lon="16.401700301844954"><ele>554.5999999999999</ele><time>2026-05-03T15:25:08.718Z</time></trkpt><trkpt lat="38.4480288125452" lon="16.40178932600747"><ele>555.4000000000001</ele><time>2026-05-03T15:25:09.718Z</time></trkpt><trkpt lat="38.44796793492157" lon="16.401872760319982"><ele>556.2</ele><time>2026-05-03T15:25:10.718Z</time></trkpt><trkpt lat="38.44789308081315" lon="16.401955919785735"><ele>557.0</ele><time>2026-05-03T15:25:11.718Z</time></trkpt><trkpt lat="38.44779922673624" lon="16.402007511700212"><ele>557.0</ele><time>2026-05-03T15:25:12.718Z</time></trkpt><trkpt lat="38.447709247536764" lon="16.402069856406527"><ele>557.0</ele><time>2026-05-03T15:25:13.718Z</time></trkpt><trkpt lat="38.447617602253665" lon="16.402124550938815"><ele>557.0</ele><time>2026-05-03T15:25:14.718Z</time></trkpt><trkpt lat="38.4475195816221" lon="16.40217549884471"><ele>557.0</ele><time>2026-05-03T15:25:15.718Z</time></trkpt><trkpt lat="38.447418112218784" lon="16.40221924214508"><ele>557.0</ele><time>2026-05-03T15:25:16.718Z</time></trkpt><trkpt lat="38.447310239108035" lon="16.40226447075892"><ele>551.25</ele><time>2026-05-03T15:25:17.718Z</time></trkpt><trkpt lat="38.4472008850901" lon="16.402291404929667"><ele>545.5</ele><time>2026-05-03T15:25:18.718Z</time></trkpt><trkpt lat="38.44707850541065" lon="16.402311480714783"><ele>539.75</ele><time>2026-05-03T15:25:19.718Z</time></trkpt><trkpt lat="38.446956679572274" lon="16.402310496696668"><ele>534.0</ele><time>2026-05-03T15:25:20.718Z</time></trkpt><trkpt lat="38.446839261766854" lon="16.402314514791254"><ele>533.25</ele><time>2026-05-03T15:25:21.718Z</time></trkpt><trkpt lat="38.44671647896938" lon="16.40231597841577"><ele>532.5</ele><time>2026-05-03T15:25:22.718Z</time></trkpt><trkpt lat="38.446595617006174" lon="16.40230902700324"><ele>531.75</ele><time>2026-05-03T15:25:23.718Z</time></trkpt><trkpt lat="38.44648106130671" lon="16.402301659521648"><ele>531.0</ele><time>2026-05-03T15:25:24.718Z</time></trkpt><trkpt lat="38.44637881184642" lon="16.402305924782226"><ele>531.0</ele><time>2026-05-03T15:25:25.718Z</time></trkpt><trkpt lat="38.44629523733074" lon="16.402304404633238"><ele>531.0</ele><time>2026-05-03T15:25:26.718Z</time></trkpt><trkpt lat="38.44618423677973" lon="16.402282005634106"><ele>531.0</ele><time>2026-05-03T15:25:28.718Z</time></trkpt><trkpt lat="38.44609771457957" lon="16.402304060237793"><ele>531.0</ele><time>2026-05-03T15:25:30.718Z</time></trkpt><trkpt lat="38.446008177430514" lon="16.4023346368175"><ele>531.0</ele><time>2026-05-03T15:25:32.718Z</time></trkpt><trkpt lat="38.445911190022315" lon="16.40237908251829"><ele>530.5</ele><time>2026-05-03T15:25:34.718Z</time></trkpt><trkpt lat="38.44584492477786" lon="16.402395019544628"><ele>530.0</ele><time>2026-05-03T15:25:35.718Z</time></trkpt><trkpt lat="38.44578004185543" lon="16.402421172334396"><ele>529.5</ele><time>2026-05-03T15:25:36.718Z</time></trkpt><trkpt lat="38.4457066314322" lon="16.402447617999215"><ele>529.0</ele><time>2026-05-03T15:25:37.718Z</time></trkpt><trkpt lat="38.445630245383775" lon="16.40247696645764"><ele>528.5</ele><time>2026-05-03T15:25:38.718Z</time></trkpt><trkpt lat="38.44555235462713" lon="16.402502919177525"><ele>528.0</ele><time>2026-05-03T15:25:39.718Z</time></trkpt><trkpt lat="38.4454717337653" lon="16.402526301505183"><ele>523.3333333333334</ele><time>2026-05-03T15:25:40.718Z</time></trkpt><trkpt lat="38.44539851904739" lon="16.402552058339364"><ele>518.6666666666666</ele><time>2026-05-03T15:25:41.718Z</time></trkpt><trkpt lat="38.445330724487334" lon="16.402592393546268"><ele>514.0</ele><time>2026-05-03T15:25:42.718Z</time></trkpt><trkpt lat="38.44525696983314" lon="16.402620030430654"><ele>509.3333333333333</ele><time>2026-05-03T15:25:43.718Z</time></trkpt><trkpt lat="38.4452006500651" lon="16.402702014641477"><ele>504.66666666666663</ele><time>2026-05-03T15:25:44.718Z</time></trkpt><trkpt lat="38.44517629708839" lon="16.40281055220825"><ele>500.0</ele><time>2026-05-03T15:25:45.718Z</time></trkpt><trkpt lat="38.44518549869804" lon="16.402917586791542"><ele>500.0</ele><time>2026-05-03T15:25:46.718Z</time></trkpt><trkpt lat="38.44521120120926" lon="16.403005081825814"><ele>500.0</ele><time>2026-05-03T15:25:47.718Z</time></trkpt><trkpt lat="38.44522482891725" lon="16.403116906945712"><ele>500.0</ele><time>2026-05-03T15:25:49.717Z</time></trkpt><trkpt lat="38.4451916437124" lon="16.403199082998086"><ele>500.0</ele><time>2026-05-03T15:25:51.717Z</time></trkpt><trkpt lat="38.445078042859066" lon="16.40315009028165"><ele>500.0</ele><time>2026-05-03T15:25:53.717Z</time></trkpt><trkpt lat="38.44500731593834" lon="16.402999936221608"><ele>499.99999999999994</ele><time>2026-05-03T15:25:55.717Z</time></trkpt><trkpt lat="38.4449917305625" lon="16.40290530506973"><ele>500.0</ele><time>2026-05-03T15:25:56.717Z</time></trkpt><trkpt lat="38.4449858687285" lon="16.402802645464927"><ele>500.0</ele><time>2026-05-03T15:25:57.717Z</time></trkpt><trkpt lat="38.44499309102401" lon="16.402704959945076"><ele>500.0</ele><time>2026-05-03T15:25:58.717Z</time></trkpt><trkpt lat="38.444999702340866" lon="16.40261887605491"><ele>499.99999999999994</ele><time>2026-05-03T15:25:59.717Z</time></trkpt><trkpt lat="38.44500629813594" lon="16.402517460505962"><ele>500.0</ele><time>2026-05-03T15:26:00.717Z</time></trkpt><trkpt lat="38.44507404459093" lon="16.402452971372533"><ele>499.99999999999994</ele><time>2026-05-03T15:26:01.717Z</time></trkpt><trkpt lat="38.44511868055833" lon="16.402369282686628"><ele>500.0</ele><time>2026-05-03T15:26:02.717Z</time></trkpt><trkpt lat="38.445164247446414" lon="16.40229122037021"><ele>500.0</ele><time>2026-05-03T15:26:03.717Z</time></trkpt><trkpt lat="38.44519118945812" lon="16.402218226475075"><ele>500.0</ele><time>2026-05-03T15:26:04.717Z</time></trkpt><trkpt lat="38.44518234920113" lon="16.402051201843946"><ele>499.99999999999994</ele><time>2026-05-03T15:26:06.717Z</time></trkpt><trkpt lat="38.44514718275052" lon="16.401961537036158"><ele>500.0</ele><time>2026-05-03T15:26:07.717Z</time></trkpt><trkpt lat="38.44509891981484" lon="16.401884044868428"><ele>497.99999999999994</ele><time>2026-05-03T15:26:08.717Z</time></trkpt><trkpt lat="38.44505337439756" lon="16.401806613566627"><ele>496.0</ele><time>2026-05-03T15:26:09.717Z</time></trkpt><trkpt lat="38.44501500681324" lon="16.401733549299347"><ele>494.0</ele><time>2026-05-03T15:26:10.717Z</time></trkpt><trkpt lat="38.44499212460327" lon="16.401652819754748"><ele>492.0</ele><time>2026-05-03T15:26:11.717Z</time></trkpt><trkpt lat="38.44502083416287" lon="16.401518822456257"><ele>489.99999999999994</ele><time>2026-05-03T15:26:13.717Z</time></trkpt><trkpt lat="38.4450803094895" lon="16.40145175384507"><ele>488.0</ele><time>2026-05-03T15:26:14.717Z</time></trkpt><trkpt lat="38.445150916833754" lon="16.40137925317934"><ele>489.4</ele><time>2026-05-03T15:26:15.717Z</time></trkpt><trkpt lat="38.44523474845291" lon="16.401302804728566"><ele>490.79999999999995</ele><time>2026-05-03T15:26:16.717Z</time></trkpt><trkpt lat="38.445310341716024" lon="16.401214930238407"><ele>492.2</ele><time>2026-05-03T15:26:17.717Z</time></trkpt><trkpt lat="38.44537333829755" lon="16.40110820386382"><ele>493.6</ele><time>2026-05-03T15:26:18.717Z</time></trkpt><trkpt lat="38.44543765864787" lon="16.40100549815351"><ele>495.0</ele><time>2026-05-03T15:26:19.717Z</time></trkpt><trkpt lat="38.44550003818922" lon="16.40090387672437"><ele>495.0</ele><time>2026-05-03T15:26:20.717Z</time></trkpt><trkpt lat="38.44556818041021" lon="16.40082122402531"><ele>495.0</ele><time>2026-05-03T15:26:21.717Z</time></trkpt><trkpt lat="38.445628124500644" lon="16.40074592868217"><ele>495.0</ele><time>2026-05-03T15:26:22.717Z</time></trkpt><trkpt lat="38.44567142702161" lon="16.400660122211374"><ele>495.0</ele><time>2026-05-03T15:26:23.717Z</time></trkpt><trkpt lat="38.445675257503524" lon="16.40056888104482"><ele>495.0</ele><time>2026-05-03T15:26:24.717Z</time></trkpt><trkpt lat="38.44566308914985" lon="16.400479367772366"><ele>495.0</ele><time>2026-05-03T15:26:25.717Z</time></trkpt><trkpt lat="38.445606370376616" lon="16.400388190318665"><ele>495.6</ele><time>2026-05-03T15:26:26.717Z</time></trkpt><trkpt lat="38.44554863089149" lon="16.40030357681138"><ele>496.2</ele><time>2026-05-03T15:26:27.717Z</time></trkpt><trkpt lat="38.44548804347626" lon="16.400222416273454"><ele>496.79999999999995</ele><time>2026-05-03T15:26:28.717Z</time></trkpt><trkpt lat="38.445424010002505" lon="16.40013034358696"><ele>497.4</ele><time>2026-05-03T15:26:29.717Z</time></trkpt><trkpt lat="38.445355665690506" lon="16.400025224105683"><ele>498.0</ele><time>2026-05-03T15:26:30.717Z</time></trkpt><trkpt lat="38.44527454170885" lon="16.39992816150653"><ele>492.5</ele><time>2026-05-03T15:26:31.717Z</time></trkpt><trkpt lat="38.44517138747324" lon="16.399860684847592"><ele>487.0</ele><time>2026-05-03T15:26:32.717Z</time></trkpt><trkpt lat="38.44507533048637" lon="16.399775508270192"><ele>481.5</ele><time>2026-05-03T15:26:33.717Z</time></trkpt><trkpt lat="38.444991162705605" lon="16.399670266006204"><ele>476.0</ele><time>2026-05-03T15:26:34.717Z</time></trkpt><trkpt lat="38.44490202277475" lon="16.399573956646766"><ele>476.0</ele><time>2026-05-03T15:26:35.717Z</time></trkpt><trkpt lat="38.444809359644005" lon="16.399478234736318"><ele>476.0</ele><time>2026-05-03T15:26:36.717Z</time></trkpt><trkpt lat="38.444717513383715" lon="16.399388685909013"><ele>476.0</ele><time>2026-05-03T15:26:37.716Z</time></trkpt><trkpt lat="38.444622701864645" lon="16.39931571450655"><ele>476.0</ele><time>2026-05-03T15:26:38.716Z</time></trkpt><trkpt lat="38.44453351865023" lon="16.39923602557107"><ele>470.99999999999994</ele><time>2026-05-03T15:26:39.716Z</time></trkpt><trkpt lat="38.44445755661752" lon="16.39914786091265"><ele>466.0</ele><time>2026-05-03T15:26:40.716Z</time></trkpt><trkpt lat="38.444377356416524" lon="16.399110260075755"><ele>461.0</ele><time>2026-05-03T15:26:41.716Z</time></trkpt><trkpt lat="38.444303487247026" lon="16.39909685745491"><ele>456.0</ele><time>2026-05-03T15:26:42.716Z</time></trkpt><trkpt lat="38.44421994037229" lon="16.39912838103321"><ele>450.99999999999994</ele><time>2026-05-03T15:26:43.716Z</time></trkpt><trkpt lat="38.44412531750955" lon="16.39915494622891"><ele>446.0</ele><time>2026-05-03T15:26:44.716Z</time></trkpt><trkpt lat="38.444032031907525" lon="16.3991665776566"><ele>446.0</ele><time>2026-05-03T15:26:45.716Z</time></trkpt><trkpt lat="38.44393972073586" lon="16.399204621311775"><ele>446.0</ele><time>2026-05-03T15:26:46.716Z</time></trkpt><trkpt lat="38.44383347156773" lon="16.399223622596374"><ele>446.0</ele><time>2026-05-03T15:26:47.716Z</time></trkpt><trkpt lat="38.44372270230629" lon="16.399245446884798"><ele>446.0</ele><time>2026-05-03T15:26:48.716Z</time></trkpt><trkpt lat="38.44360586360248" lon="16.399265168384847"><ele>446.0</ele><time>2026-05-03T15:26:49.716Z</time></trkpt><trkpt lat="38.443488020719926" lon="16.399292371106313"><ele>445.0</ele><time>2026-05-03T15:26:50.716Z</time></trkpt><trkpt lat="38.44336142066409" lon="16.399315998184626"><ele>444.0</ele><time>2026-05-03T15:26:51.716Z</time></trkpt><trkpt lat="38.44322750394669" lon="16.399341210560635"><ele>443.0</ele><time>2026-05-03T15:26:52.716Z</time></trkpt><trkpt lat="38.443102657271474" lon="16.399371596139257"><ele>442.0</ele><time>2026-05-03T15:26:53.716Z</time></trkpt><trkpt lat="38.442981797593674" lon="16.399410186432487"><ele>444.75</ele><time>2026-05-03T15:26:54.716Z</time></trkpt><trkpt lat="38.442867427833924" lon="16.39945190594246"><ele>447.5</ele><time>2026-05-03T15:26:55.716Z</time></trkpt><trkpt lat="38.44275278246463" lon="16.399477797375788"><ele>450.25</ele><time>2026-05-03T15:26:56.716Z</time></trkpt><trkpt lat="38.442655534554056" lon="16.399546429896997"><ele>453.0</ele><time>2026-05-03T15:26:57.716Z</time></trkpt><trkpt lat="38.44255995775314" lon="16.399598592157407"><ele>453.0</ele><time>2026-05-03T15:26:58.716Z</time></trkpt><trkpt lat="38.442475329241205" lon="16.399663229348487"><ele>452.99999999999994</ele><time>2026-05-03T15:26:59.716Z</time></trkpt><trkpt lat="38.442391894026485" lon="16.3997225189674"><ele>452.99999999999994</ele><time>2026-05-03T15:27:00.716Z</time></trkpt><trkpt lat="38.44233528929072" lon="16.399820971928566"><ele>453.0</ele><time>2026-05-03T15:27:01.716Z</time></trkpt><trkpt lat="38.4423092580819" lon="16.399942945000756"><ele>453.0</ele><time>2026-05-03T15:27:02.716Z</time></trkpt><trkpt lat="38.442340675671566" lon="16.40007501770596"><ele>452.2</ele><time>2026-05-03T15:27:03.716Z</time></trkpt><trkpt lat="38.442365551558574" lon="16.40019868205519"><ele>451.4</ele><time>2026-05-03T15:27:04.716Z</time></trkpt><trkpt lat="38.442360963585436" lon="16.400309979972153"><ele>450.59999999999997</ele><time>2026-05-03T15:27:05.716Z</time></trkpt><trkpt lat="38.44237040258437" lon="16.400435608706864"><ele>449.79999999999995</ele><time>2026-05-03T15:27:06.716Z</time></trkpt><trkpt lat="38.44237421337754" lon="16.400575008343566"><ele>449.0</ele><time>2026-05-03T15:27:07.716Z</time></trkpt><trkpt lat="38.442392065531486" lon="16.400718644106632"><ele>449.0</ele><time>2026-05-03T15:27:08.716Z</time></trkpt><trkpt lat="38.44242089478096" lon="16.400854368233848"><ele>449.0</ele><time>2026-05-03T15:27:09.716Z</time></trkpt><trkpt lat="38.442455537078054" lon="16.400976322657833"><ele>449.0</ele><time>2026-05-03T15:27:10.716Z</time></trkpt><trkpt lat="38.44244793642297" lon="16.401093603515605"><ele>449.0</ele><time>2026-05-03T15:27:11.716Z</time></trkpt><trkpt lat="38.44241873692911" lon="16.40119892860527"><ele>449.0</ele><time>2026-05-03T15:27:12.716Z</time></trkpt><trkpt lat="38.44234967634749" lon="16.401264927319264"><ele>448.0</ele><time>2026-05-03T15:27:13.716Z</time></trkpt><trkpt lat="38.44228072343946" lon="16.401355394975795"><ele>447.0</ele><time>2026-05-03T15:27:14.716Z</time></trkpt><trkpt lat="38.44221885402804" lon="16.401452093827153"><ele>446.0</ele><time>2026-05-03T15:27:15.716Z</time></trkpt><trkpt lat="38.442142699402815" lon="16.401549532374137"><ele>445.0</ele><time>2026-05-03T15:27:16.716Z</time></trkpt><trkpt lat="38.44206210978012" lon="16.401651007439742"><ele>444.0</ele><time>2026-05-03T15:27:17.716Z</time></trkpt><trkpt lat="38.44197506258165" lon="16.40174722933441"><ele>448.75</ele><time>2026-05-03T15:27:18.716Z</time></trkpt><trkpt lat="38.44187919800542" lon="16.401828846259175"><ele>453.5</ele><time>2026-05-03T15:27:19.716Z</time></trkpt><trkpt lat="38.441767526417145" lon="16.401886588639375"><ele>458.25</ele><time>2026-05-03T15:27:20.716Z</time></trkpt><trkpt lat="38.44165266305106" lon="16.40192447402685"><ele>463.0</ele><time>2026-05-03T15:27:21.716Z</time></trkpt><trkpt lat="38.44152462099471" lon="16.40193820276218"><ele>463.0</ele><time>2026-05-03T15:27:22.716Z</time></trkpt><trkpt lat="38.44139119755629" lon="16.401949475833554"><ele>463.0</ele><time>2026-05-03T15:27:23.716Z</time></trkpt><trkpt lat="38.44125246642442" lon="16.4019658768829"><ele>463.0</ele><time>2026-05-03T15:27:24.716Z</time></trkpt><trkpt lat="38.44110801519574" lon="16.40197411233238"><ele>463.0</ele><time>2026-05-03T15:27:25.715Z</time></trkpt><trkpt lat="38.440962612275094" lon="16.40199643592159"><ele>465.25</ele><time>2026-05-03T15:27:26.715Z</time></trkpt><trkpt lat="38.44082313915852" lon="16.40202579492374"><ele>467.5</ele><time>2026-05-03T15:27:27.715Z</time></trkpt><trkpt lat="38.44068808750937" lon="16.402058326619606"><ele>469.75</ele><time>2026-05-03T15:27:28.715Z</time></trkpt><trkpt lat="38.440553559695545" lon="16.40210122435964"><ele>472.0</ele><time>2026-05-03T15:27:29.715Z</time></trkpt><trkpt lat="38.44042835913971" lon="16.40214187591805"><ele>467.75</ele><time>2026-05-03T15:27:30.715Z</time></trkpt><trkpt lat="38.44030262599121" lon="16.40218405481682"><ele>463.5</ele><time>2026-05-03T15:27:31.715Z</time></trkpt><trkpt lat="38.44017174976584" lon="16.40221460386248"><ele>459.25</ele><time>2026-05-03T15:27:32.715Z</time></trkpt><trkpt lat="38.440044316272456" lon="16.40221945030938"><ele>455.0</ele><time>2026-05-03T15:27:33.715Z</time></trkpt><trkpt lat="38.439915212992055" lon="16.40225910200859"><ele>455.0</ele><time>2026-05-03T15:27:34.715Z</time></trkpt><trkpt lat="38.439786763540766" lon="16.402259390544085"><ele>455.0</ele><time>2026-05-03T15:27:35.715Z</time></trkpt><trkpt lat="38.43968096618707" lon="16.402262556095735"><ele>455.0</ele><time>2026-05-03T15:27:36.715Z</time></trkpt><trkpt lat="38.43959153720556" lon="16.402220780018265"><ele>455.0</ele><time>2026-05-03T15:27:37.715Z</time></trkpt><trkpt lat="38.439510947285164" lon="16.4021869531124"><ele>455.0</ele><time>2026-05-03T15:27:38.715Z</time></trkpt><trkpt lat="38.43941379553225" lon="16.40217501243364"><ele>460.4</ele><time>2026-05-03T15:27:39.715Z</time></trkpt><trkpt lat="38.439340630988575" lon="16.40224145743515"><ele>465.8</ele><time>2026-05-03T15:27:40.715Z</time></trkpt><trkpt lat="38.439274657642585" lon="16.40230373631501"><ele>471.20000000000005</ele><time>2026-05-03T15:27:41.715Z</time></trkpt><trkpt lat="38.439194158863764" lon="16.402375925182962"><ele>476.6</ele><time>2026-05-03T15:27:42.715Z</time></trkpt><trkpt lat="38.439129520656735" lon="16.402469155320183"><ele>482.0</ele><time>2026-05-03T15:27:43.715Z</time></trkpt><trkpt lat="38.43908530007345" lon="16.40259206178928"><ele>481.99999999999994</ele><time>2026-05-03T15:27:44.715Z</time></trkpt><trkpt lat="38.439062346945235" lon="16.402705625580495"><ele>482.0</ele><time>2026-05-03T15:27:45.715Z</time></trkpt><trkpt lat="38.439042697257975" lon="16.402804704337342"><ele>482.0</ele><time>2026-05-03T15:27:46.715Z</time></trkpt><trkpt lat="38.4390169647995" lon="16.402885128096973"><ele>482.0</ele><time>2026-05-03T15:27:47.715Z</time></trkpt><trkpt lat="38.43891282817588" lon="16.40297073561258"><ele>481.99999999999994</ele><time>2026-05-03T15:27:49.715Z</time></trkpt><trkpt lat="38.43885068608824" lon="16.40298845247249"><ele>482.0</ele><time>2026-05-03T15:27:50.715Z</time></trkpt><trkpt lat="38.438748320134586" lon="16.403037903404883"><ele>482.66666666666663</ele><time>2026-05-03T15:27:52.715Z</time></trkpt><trkpt lat="38.43863233059535" lon="16.40305320967003"><ele>483.3333333333333</ele><time>2026-05-03T15:27:54.714Z</time></trkpt><trkpt lat="38.438504072285085" lon="16.40302168211432"><ele>484.0</ele><time>2026-05-03T15:27:56.714Z</time></trkpt><trkpt lat="38.438437397436275" lon="16.402989418472615"><ele>484.66666666666663</ele><time>2026-05-03T15:27:57.714Z</time></trkpt><trkpt lat="38.43837534384986" lon="16.402965995424065"><ele>485.3333333333333</ele><time>2026-05-03T15:27:58.715Z</time></trkpt><trkpt lat="38.43831065602996" lon="16.402965198616158"><ele>486.0</ele><time>2026-05-03T15:27:59.715Z</time></trkpt><trkpt lat="38.43820364083764" lon="16.403029607893874"><ele>486.0</ele><time>2026-05-03T15:28:01.714Z</time></trkpt><trkpt lat="38.43816356623096" lon="16.403094872318686"><ele>486.0</ele><time>2026-05-03T15:28:02.714Z</time></trkpt><trkpt lat="38.43811580600831" lon="16.40316246738078"><ele>486.0</ele><time>2026-05-03T15:28:03.714Z</time></trkpt><trkpt lat="38.43807785575752" lon="16.40323749524481"><ele>486.0</ele><time>2026-05-03T15:28:04.714Z</time></trkpt><trkpt lat="38.43804025940504" lon="16.40331393015822"><ele>486.0</ele><time>2026-05-03T15:28:05.714Z</time></trkpt><trkpt lat="38.43800191018634" lon="16.40339189573282"><ele>486.0</ele><time>2026-05-03T15:28:06.714Z</time></trkpt><trkpt lat="38.4379625618864" lon="16.4034555143385"><ele>486.0</ele><time>2026-05-03T15:28:07.714Z</time></trkpt><trkpt lat="38.4378561992959" lon="16.403514759221903"><ele>490.8</ele><time>2026-05-03T15:28:09.714Z</time></trkpt><trkpt lat="38.437737962890935" lon="16.403503616076627"><ele>495.6</ele><time>2026-05-03T15:28:11.714Z</time></trkpt><trkpt lat="38.43766661454897" lon="16.403406968150332"><ele>500.4</ele><time>2026-05-03T15:28:13.714Z</time></trkpt><trkpt lat="38.43769518931554" lon="16.403302968151024"><ele>505.2</ele><time>2026-05-03T15:28:15.714Z</time></trkpt><trkpt lat="38.43777588164984" lon="16.403255407399662"><ele>510.0</ele><time>2026-05-03T15:28:17.714Z</time></trkpt><trkpt lat="38.43785490867288" lon="16.4031566360211"><ele>510.0</ele><time>2026-05-03T15:28:19.714Z</time></trkpt><trkpt lat="38.43790113963848" lon="16.40302200754113"><ele>510.0</ele><time>2026-05-03T15:28:21.714Z</time></trkpt><trkpt lat="38.437959635953575" lon="16.402894211487652"><ele>510.0</ele><time>2026-05-03T15:28:23.714Z</time></trkpt><trkpt lat="38.43802728563055" lon="16.40277494920602"><ele>510.0</ele><time>2026-05-03T15:28:25.714Z</time></trkpt><trkpt lat="38.43806537443419" lon="16.402706968970264"><ele>510.0</ele><time>2026-05-03T15:28:26.714Z</time></trkpt><trkpt lat="38.43810359026434" lon="16.402570120251788"><ele>510.0</ele><time>2026-05-03T15:28:28.714Z</time></trkpt><trkpt lat="38.43803715708212" lon="16.40247828446748"><ele>510.0</ele><time>2026-05-03T15:28:30.714Z</time></trkpt><trkpt lat="38.43795919837975" lon="16.402509125082766"><ele>510.0</ele><time>2026-05-03T15:28:32.714Z</time></trkpt><trkpt lat="38.43791885433169" lon="16.40261254534944"><ele>510.0</ele><time>2026-05-03T15:28:34.714Z</time></trkpt><trkpt lat="38.437849185728936" lon="16.402711876420558"><ele>510.0</ele><time>2026-05-03T15:28:36.714Z</time></trkpt><trkpt lat="38.437791777029936" lon="16.40281300359593"><ele>510.0</ele><time>2026-05-03T15:28:38.714Z</time></trkpt><trkpt lat="38.43770850386388" lon="16.402911404705982"><ele>510.0</ele><time>2026-05-03T15:28:40.714Z</time></trkpt><trkpt lat="38.43759975797727" lon="16.4029881667678"><ele>510.0</ele><time>2026-05-03T15:28:42.714Z</time></trkpt><trkpt lat="38.43754585565145" lon="16.403042310388116"><ele>510.0</ele><time>2026-05-03T15:28:43.714Z</time></trkpt><trkpt lat="38.4374858864272" lon="16.4030754257826"><ele>510.0</ele><time>2026-05-03T15:28:44.714Z</time></trkpt><trkpt lat="38.43742584730364" lon="16.403106878580658"><ele>510.0</ele><time>2026-05-03T15:28:45.714Z</time></trkpt><trkpt lat="38.43731105235423" lon="16.403176461315123"><ele>510.0</ele><time>2026-05-03T15:28:47.714Z</time></trkpt><trkpt lat="38.43724759842731" lon="16.4031894667095"><ele>510.00000000000006</ele><time>2026-05-03T15:28:48.714Z</time></trkpt><trkpt lat="38.43718810687972" lon="16.403222501194463"><ele>510.0</ele><time>2026-05-03T15:28:49.714Z</time></trkpt><trkpt lat="38.43713377109377" lon="16.40327498054785"><ele>510.0</ele><time>2026-05-03T15:28:50.714Z</time></trkpt><trkpt lat="38.43707125783895" lon="16.403309281731513"><ele>510.00000000000006</ele><time>2026-05-03T15:28:51.713Z</time></trkpt><trkpt lat="38.43700960749747" lon="16.40334246472736"><ele>510.0</ele><time>2026-05-03T15:28:52.713Z</time></trkpt><trkpt lat="38.43694565090638" lon="16.403377778376516"><ele>510.0</ele><time>2026-05-03T15:28:53.713Z</time></trkpt><trkpt lat="38.4368832480904" lon="16.403411038986043"><ele>512.6666666666666</ele><time>2026-05-03T15:28:54.713Z</time></trkpt><trkpt lat="38.43682151243192" lon="16.40344505384491"><ele>515.3333333333334</ele><time>2026-05-03T15:28:55.713Z</time></trkpt><trkpt lat="38.43675222527713" lon="16.403473371143413"><ele>518.0</ele><time>2026-05-03T15:28:56.713Z</time></trkpt><trkpt lat="38.4366279493062" lon="16.403516532901666"><ele>520.6666666666667</ele><time>2026-05-03T15:28:58.713Z</time></trkpt><trkpt lat="38.43656390529216" lon="16.40354627110337"><ele>523.3333333333334</ele><time>2026-05-03T15:28:59.713Z</time></trkpt><trkpt lat="38.436499224741596" lon="16.403581096831843"><ele>526.0</ele><time>2026-05-03T15:29:00.713Z</time></trkpt><trkpt lat="38.43643151058616" lon="16.403618182511806"><ele>526.0</ele><time>2026-05-03T15:29:01.713Z</time></trkpt><trkpt lat="38.43636582133294" lon="16.403677369150664"><ele>526.0</ele><time>2026-05-03T15:29:02.713Z</time></trkpt><trkpt lat="38.43629338067059" lon="16.40369768722476"><ele>526.0</ele><time>2026-05-03T15:29:03.713Z</time></trkpt><trkpt lat="38.436226358200486" lon="16.40373712517792"><ele>526.0</ele><time>2026-05-03T15:29:04.713Z</time></trkpt><trkpt lat="38.43615589609601" lon="16.40377858688006"><ele>526.0</ele><time>2026-05-03T15:29:05.713Z</time></trkpt><trkpt lat="38.436088588781246" lon="16.403811489620278"><ele>526.0</ele><time>2026-05-03T15:29:06.713Z</time></trkpt><trkpt lat="38.436021681404725" lon="16.40383901188742"><ele>526.0</ele><time>2026-05-03T15:29:07.713Z</time></trkpt><trkpt lat="38.43595356415867" lon="16.40385368228521"><ele>525.2</ele><time>2026-05-03T15:29:08.713Z</time></trkpt><trkpt lat="38.43584898888918" lon="16.403832848108397"><ele>524.4000000000001</ele><time>2026-05-03T15:29:10.713Z</time></trkpt><trkpt lat="38.43573562305557" lon="16.403750092340264"><ele>523.6</ele><time>2026-05-03T15:29:12.713Z</time></trkpt><trkpt lat="38.4356713988883" lon="16.40373828783754"><ele>522.8000000000001</ele><time>2026-05-03T15:29:13.713Z</time></trkpt><trkpt lat="38.43559669278228" lon="16.403724364790936"><ele>522.0</ele><time>2026-05-03T15:29:14.713Z</time></trkpt><trkpt lat="38.435524369281005" lon="16.40371381986598"><ele>524.1428571428571</ele><time>2026-05-03T15:29:15.713Z</time></trkpt><trkpt lat="38.43545526045702" lon="16.40367673593166"><ele>526.2857142857142</ele><time>2026-05-03T15:29:16.713Z</time></trkpt><trkpt lat="38.4354016044944" lon="16.40362310603704"><ele>528.4285714285713</ele><time>2026-05-03T15:29:17.713Z</time></trkpt><trkpt lat="38.43536510590375" lon="16.40355453449984"><ele>530.5714285714286</ele><time>2026-05-03T15:29:18.713Z</time></trkpt><trkpt lat="38.4353443760354" lon="16.403478309160707"><ele>532.7142857142857</ele><time>2026-05-03T15:29:19.713Z</time></trkpt><trkpt lat="38.43533497969408" lon="16.40339605269087"><ele>534.8571428571428</ele><time>2026-05-03T15:29:20.713Z</time></trkpt><trkpt lat="38.435326566063935" lon="16.403311127435654"><ele>537.0</ele><time>2026-05-03T15:29:21.713Z</time></trkpt><trkpt lat="38.435318273514426" lon="16.403220834016103"><ele>537.0</ele><time>2026-05-03T15:29:22.713Z</time></trkpt><trkpt lat="38.435303472917624" lon="16.403129542980746"><ele>537.0</ele><time>2026-05-03T15:29:23.713Z</time></trkpt><trkpt lat="38.435293412021984" lon="16.403041787989974"><ele>537.0</ele><time>2026-05-03T15:29:24.713Z</time></trkpt><trkpt lat="38.4352269070691" lon="16.40295084212959"><ele>537.0</ele><time>2026-05-03T15:29:26.713Z</time></trkpt><trkpt lat="38.435124052065554" lon="16.40293351967749"><ele>537.0</ele><time>2026-05-03T15:29:28.713Z</time></trkpt><trkpt lat="38.43506036064759" lon="16.40293291506675"><ele>537.0</ele><time>2026-05-03T15:29:29.713Z</time></trkpt><trkpt lat="38.434996774387734" lon="16.402903345036272"><ele>532.0</ele><time>2026-05-03T15:29:30.713Z</time></trkpt><trkpt lat="38.43489772381698" lon="16.402882792688903"><ele>527.0</ele><time>2026-05-03T15:29:32.713Z</time></trkpt><trkpt lat="38.43486434177857" lon="16.40279411451653"><ele>522.0</ele><time>2026-05-03T15:29:34.713Z</time></trkpt><trkpt lat="38.434888782948875" lon="16.402704675324983"><ele>517.0</ele><time>2026-05-03T15:29:36.713Z</time></trkpt><trkpt lat="38.43500057065147" lon="16.402647779690163"><ele>512.0</ele><time>2026-05-03T15:29:38.712Z</time></trkpt><trkpt lat="38.43506281769408" lon="16.402625003816954"><ele>507.0</ele><time>2026-05-03T15:29:39.712Z</time></trkpt><trkpt lat="38.435129772136605" lon="16.402599070535317"><ele>507.0</ele><time>2026-05-03T15:29:40.712Z</time></trkpt><trkpt lat="38.435198226527525" lon="16.40256805150861"><ele>507.0</ele><time>2026-05-03T15:29:41.712Z</time></trkpt><trkpt lat="38.435263123557114" lon="16.402535368684948"><ele>507.0</ele><time>2026-05-03T15:29:42.712Z</time></trkpt><trkpt lat="38.435328009033135" lon="16.40250532625072"><ele>507.0</ele><time>2026-05-03T15:29:43.712Z</time></trkpt><trkpt lat="38.435382897744816" lon="16.402455963885664"><ele>507.0</ele><time>2026-05-03T15:29:44.712Z</time></trkpt><trkpt lat="38.43542729530797" lon="16.402393432273588"><ele>507.0</ele><time>2026-05-03T15:29:45.712Z</time></trkpt><trkpt lat="38.4354608587211" lon="16.402311450377436"><ele>507.0</ele><time>2026-05-03T15:29:46.712Z</time></trkpt><trkpt lat="38.4354722169561" lon="16.402223926511972"><ele>501.0</ele><time>2026-05-03T15:29:47.712Z</time></trkpt><trkpt lat="38.43546221784322" lon="16.40214378934011"><ele>495.00000000000006</ele><time>2026-05-03T15:29:48.712Z</time></trkpt><trkpt lat="38.4353939350671" lon="16.40203327162851"><ele>489.00000000000006</ele><time>2026-05-03T15:29:50.712Z</time></trkpt><trkpt lat="38.43527553603192" lon="16.401943814730885"><ele>483.0</ele><time>2026-05-03T15:29:52.712Z</time></trkpt><trkpt lat="38.43520115329371" lon="16.40190588387245"><ele>477.0</ele><time>2026-05-03T15:29:53.712Z</time></trkpt><trkpt lat="38.43511884084395" lon="16.401879865034573"><ele>477.0</ele><time>2026-05-03T15:29:54.712Z</time></trkpt><trkpt lat="38.43502684698226" lon="16.401874816775543"><ele>477.0</ele><time>2026-05-03T15:29:55.712Z</time></trkpt><trkpt lat="38.434942414200385" lon="16.40188917712233"><ele>477.0</ele><time>2026-05-03T15:29:56.712Z</time></trkpt><trkpt lat="38.43486287999891" lon="16.40192594255581"><ele>477.0</ele><time>2026-05-03T15:29:57.712Z</time></trkpt><trkpt lat="38.43478916282052" lon="16.401970881386756"><ele>477.0</ele><time>2026-05-03T15:29:58.712Z</time></trkpt><trkpt lat="38.43472136511357" lon="16.402017750306044"><ele>477.0</ele><time>2026-05-03T15:29:59.712Z</time></trkpt><trkpt lat="38.434655368761405" lon="16.402034554361894"><ele>479.6666666666667</ele><time>2026-05-03T15:30:00.711Z</time></trkpt><trkpt lat="38.43459179780133" lon="16.402027217676427"><ele>482.33333333333337</ele><time>2026-05-03T15:30:01.712Z</time></trkpt><trkpt lat="38.434484029890136" lon="16.401945311641427"><ele>485.0</ele><time>2026-05-03T15:30:03.711Z</time></trkpt><trkpt lat="38.43443021637259" lon="16.401805829971067"><ele>487.6666666666667</ele><time>2026-05-03T15:30:05.711Z</time></trkpt><trkpt lat="38.434416103452655" lon="16.40172150306148"><ele>490.33333333333337</ele><time>2026-05-03T15:30:06.711Z</time></trkpt><trkpt lat="38.434411419001314" lon="16.401632768498803"><ele>493.0</ele><time>2026-05-03T15:30:07.711Z</time></trkpt><trkpt lat="38.43441886041141" lon="16.40152901887448"><ele>493.00000000000006</ele><time>2026-05-03T15:30:08.711Z</time></trkpt><trkpt lat="38.434447011910166" lon="16.401432426296697"><ele>493.0</ele><time>2026-05-03T15:30:09.711Z</time></trkpt><trkpt lat="38.43448089030288" lon="16.401331133678877"><ele>493.0</ele><time>2026-05-03T15:30:10.711Z</time></trkpt><trkpt lat="38.434523256744576" lon="16.401241277182795"><ele>493.0</ele><time>2026-05-03T15:30:11.711Z</time></trkpt><trkpt lat="38.43457380145949" lon="16.401154091597984"><ele>493.00000000000006</ele><time>2026-05-03T15:30:12.711Z</time></trkpt><trkpt lat="38.43463427579823" lon="16.4010670061403"><ele>493.0</ele><time>2026-05-03T15:30:13.711Z</time></trkpt><trkpt lat="38.434695667686796" lon="16.40097934993007"><ele>486.50000000000006</ele><time>2026-05-03T15:30:14.711Z</time></trkpt><trkpt lat="38.43475228401095" lon="16.400891248162672"><ele>480.0</ele><time>2026-05-03T15:30:15.711Z</time></trkpt><trkpt lat="38.4347992168844" lon="16.40080251205846"><ele>473.5</ele><time>2026-05-03T15:30:16.711Z</time></trkpt><trkpt lat="38.43483536606861" lon="16.4007175270983"><ele>467.0</ele><time>2026-05-03T15:30:17.711Z</time></trkpt><trkpt lat="38.43487067294996" lon="16.400637230006083"><ele>460.50000000000006</ele><time>2026-05-03T15:30:18.711Z</time></trkpt><trkpt lat="38.43490251299899" lon="16.400564963616517"><ele>454.0</ele><time>2026-05-03T15:30:19.711Z</time></trkpt><trkpt lat="38.43494564421081" lon="16.400440518237772"><ele>451.33333333333337</ele><time>2026-05-03T15:30:21.711Z</time></trkpt><trkpt lat="38.43497942065338" lon="16.400336815483527"><ele>448.6666666666667</ele><time>2026-05-03T15:30:23.711Z</time></trkpt><trkpt lat="38.435017960742925" lon="16.400244557271854"><ele>446.0</ele><time>2026-05-03T15:30:25.711Z</time></trkpt><trkpt lat="38.435056392456026" lon="16.400151035810325"><ele>443.33333333333337</ele><time>2026-05-03T15:30:27.711Z</time></trkpt><trkpt lat="38.43509288573253" lon="16.40006214546645"><ele>440.6666666666667</ele><time>2026-05-03T15:30:29.71Z</time></trkpt><trkpt lat="38.43513269131446" lon="16.399976817017667"><ele>438.0</ele><time>2026-05-03T15:30:31.71Z</time></trkpt><trkpt lat="38.4351673622513" lon="16.399888250352245"><ele>438.0</ele><time>2026-05-03T15:30:33.71Z</time></trkpt><trkpt lat="38.43520855983" lon="16.399787503062537"><ele>438.0</ele><time>2026-05-03T15:30:35.71Z</time></trkpt><trkpt lat="38.43523947877766" lon="16.399690448400587"><ele>438.0</ele><time>2026-05-03T15:30:37.71Z</time></trkpt><trkpt lat="38.435249763341446" lon="16.39957188959554"><ele>438.0</ele><time>2026-05-03T15:30:39.71Z</time></trkpt><trkpt lat="38.435250163550705" lon="16.39947577673211"><ele>438.0</ele><time>2026-05-03T15:30:41.71Z</time></trkpt><trkpt lat="38.435258460628916" lon="16.399361095044036"><ele>438.0</ele><time>2026-05-03T15:30:44.71Z</time></trkpt><trkpt lat="38.43526094143633" lon="16.399239758046985"><ele>435.0</ele><time>2026-05-03T15:30:47.71Z</time></trkpt><trkpt lat="38.435249877760064" lon="16.399159115441577"><ele>432.0</ele><time>2026-05-03T15:30:49.71Z</time></trkpt><trkpt lat="38.435239008390894" lon="16.399070617448373"><ele>429.0</ele><time>2026-05-03T15:30:52.71Z</time></trkpt><trkpt lat="38.43523543774391" lon="16.39898317496365"><ele>426.0</ele><time>2026-05-03T15:30:56.71Z</time></trkpt><trkpt lat="38.435189537382314" lon="16.398879117048914"><ele>423.0</ele><time>2026-05-03T15:30:58.71Z</time></trkpt><trkpt lat="38.43515197202474" lon="16.39878903363751"><ele>420.0</ele><time>2026-05-03T15:31:00.71Z</time></trkpt><trkpt lat="38.435091090674604" lon="16.39871811059279"><ele>417.8333333333333</ele><time>2026-05-03T15:31:03.71Z</time></trkpt><trkpt lat="38.4350623343719" lon="16.398644917194023"><ele>415.66666666666663</ele><time>2026-05-03T15:31:05.71Z</time></trkpt><trkpt lat="38.43500786620783" lon="16.398574679659145"><ele>413.5</ele><time>2026-05-03T15:31:07.71Z</time></trkpt><trkpt lat="38.43496769977541" lon="16.398460943157765"><ele>411.3333333333333</ele><time>2026-05-03T15:31:09.71Z</time></trkpt><trkpt lat="38.43492527157872" lon="16.398382553374223"><ele>409.16666666666663</ele><time>2026-05-03T15:31:11.71Z</time></trkpt><trkpt lat="38.434844380364595" lon="16.39828887830464"><ele>407.0</ele><time>2026-05-03T15:31:13.71Z</time></trkpt><trkpt lat="38.4347665235897" lon="16.398221280558847"><ele>407.0</ele><time>2026-05-03T15:31:15.71Z</time></trkpt><trkpt lat="38.43472036360345" lon="16.39814137380682"><ele>407.0</ele><time>2026-05-03T15:31:16.71Z</time></trkpt><trkpt lat="38.43464929646566" lon="16.39798316842335"><ele>407.0</ele><time>2026-05-03T15:31:17.709Z</time></trkpt><trkpt lat="38.434594897659146" lon="16.39790715278243"><ele>407.0</ele><time>2026-05-03T15:31:18.709Z</time></trkpt><trkpt lat="38.43453422749113" lon="16.397810417765896"><ele>407.0</ele><time>2026-05-03T15:31:19.709Z</time></trkpt><trkpt lat="38.43447287495216" lon="16.397708717342972"><ele>404.20000000000005</ele><time>2026-05-03T15:31:20.709Z</time></trkpt><trkpt lat="38.434405790958714" lon="16.397605196571334"><ele>401.4</ele><time>2026-05-03T15:31:21.709Z</time></trkpt><trkpt lat="38.434334480048" lon="16.39749218546901"><ele>398.6</ele><time>2026-05-03T15:31:22.709Z</time></trkpt><trkpt lat="38.434264386276354" lon="16.397383891780876"><ele>395.79999999999995</ele><time>2026-05-03T15:31:23.709Z</time></trkpt><trkpt lat="38.43420241233289" lon="16.397271570770734"><ele>393.0</ele><time>2026-05-03T15:31:24.709Z</time></trkpt><trkpt lat="38.43413523964948" lon="16.397163477728157"><ele>393.0</ele><time>2026-05-03T15:31:25.709Z</time></trkpt><trkpt lat="38.43405485798224" lon="16.397036547649154"><ele>393.0</ele><time>2026-05-03T15:31:26.709Z</time></trkpt><trkpt lat="38.43397298910964" lon="16.396904036736828"><ele>393.0</ele><time>2026-05-03T15:31:27.709Z</time></trkpt><trkpt lat="38.43388868684765" lon="16.396767456062193"><ele>393.0</ele><time>2026-05-03T15:31:28.709Z</time></trkpt><trkpt lat="38.433805283377694" lon="16.396632011693892"><ele>388.75</ele><time>2026-05-03T15:31:29.709Z</time></trkpt><trkpt lat="38.43372248338382" lon="16.396483711366965"><ele>384.5</ele><time>2026-05-03T15:31:30.709Z</time></trkpt><trkpt lat="38.43364091327269" lon="16.396340962319222"><ele>380.25</ele><time>2026-05-03T15:31:31.709Z</time></trkpt><trkpt lat="38.43355054750212" lon="16.396203347227825"><ele>376.0</ele><time>2026-05-03T15:31:32.709Z</time></trkpt><trkpt lat="38.4334461273716" lon="16.3960679023069"><ele>375.66666666666663</ele><time>2026-05-03T15:31:33.709Z</time></trkpt><trkpt lat="38.433327166804496" lon="16.395944129722608"><ele>375.3333333333333</ele><time>2026-05-03T15:31:34.709Z</time></trkpt><trkpt lat="38.433208479930826" lon="16.395813264058074"><ele>375.0</ele><time>2026-05-03T15:31:35.709Z</time></trkpt><trkpt lat="38.43309178595754" lon="16.395680242026632"><ele>372.3333333333333</ele><time>2026-05-03T15:31:36.709Z</time></trkpt><trkpt lat="38.43297098657072" lon="16.395550291822545"><ele>369.66666666666663</ele><time>2026-05-03T15:31:37.709Z</time></trkpt><trkpt lat="38.4328520570771" lon="16.395415311105538"><ele>367.0</ele><time>2026-05-03T15:31:38.709Z</time></trkpt><trkpt lat="38.43271265764001" lon="16.39528299120571"><ele>364.66666666666663</ele><time>2026-05-03T15:31:39.709Z</time></trkpt><trkpt lat="38.43258235318901" lon="16.395142269404037"><ele>362.3333333333333</ele><time>2026-05-03T15:31:40.709Z</time></trkpt><trkpt lat="38.43245872793532" lon="16.394997810338403"><ele>360.0</ele><time>2026-05-03T15:31:41.709Z</time></trkpt><trkpt lat="38.432347066118325" lon="16.394872594098015"><ele>360.0</ele><time>2026-05-03T15:31:42.709Z</time></trkpt><trkpt lat="38.43224004673547" lon="16.394754161280954"><ele>360.0</ele><time>2026-05-03T15:31:43.709Z</time></trkpt><trkpt lat="38.43212963879222" lon="16.39463281904441"><ele>360.0</ele><time>2026-05-03T15:31:44.709Z</time></trkpt><trkpt lat="38.43205071337845" lon="16.394546975528325"><ele>360.0</ele><time>2026-05-03T15:31:45.709Z</time></trkpt><trkpt lat="38.43195938186146" lon="16.394450233041848"><ele>357.75</ele><time>2026-05-03T15:31:46.709Z</time></trkpt><trkpt lat="38.431856405649086" lon="16.39436142983518"><ele>355.5</ele><time>2026-05-03T15:31:47.709Z</time></trkpt><trkpt lat="38.43175362912146" lon="16.394288507476517"><ele>353.25</ele><time>2026-05-03T15:31:48.709Z</time></trkpt><trkpt lat="38.431650626154166" lon="16.394220703927502"><ele>351.0</ele><time>2026-05-03T15:31:49.709Z</time></trkpt><trkpt lat="38.431548166421315" lon="16.39414647810923"><ele>351.0</ele><time>2026-05-03T15:31:50.709Z</time></trkpt><trkpt lat="38.431440113811014" lon="16.394041807251718"><ele>351.0</ele><time>2026-05-03T15:31:51.709Z</time></trkpt><trkpt lat="38.43131621887324" lon="16.393952320327152"><ele>351.0</ele><time>2026-05-03T15:31:52.709Z</time></trkpt><trkpt lat="38.43118601359896" lon="16.393885614447072"><ele>351.0</ele><time>2026-05-03T15:31:53.709Z</time></trkpt><trkpt lat="38.43106504981967" lon="16.393819524098916"><ele>349.0</ele><time>2026-05-03T15:31:54.709Z</time></trkpt><trkpt lat="38.43095523372133" lon="16.39379720924207"><ele>347.0</ele><time>2026-05-03T15:31:55.709Z</time></trkpt><trkpt lat="38.43083631352389" lon="16.39378204055386"><ele>345.0</ele><time>2026-05-03T15:31:56.709Z</time></trkpt><trkpt lat="38.43070986319646" lon="16.393768515948597"><ele>343.0</ele><time>2026-05-03T15:31:57.709Z</time></trkpt><trkpt lat="38.430590013093884" lon="16.393753288978193"><ele>343.0</ele><time>2026-05-03T15:31:58.709Z</time></trkpt><trkpt lat="38.43050127542086" lon="16.393743176006453"><ele>343.0</ele><time>2026-05-03T15:31:59.709Z</time></trkpt><trkpt lat="38.430406401949" lon="16.39369208415441"><ele>343.0</ele><time>2026-05-03T15:32:00.709Z</time></trkpt><trkpt lat="38.43030280582224" lon="16.393638590966084"><ele>343.0</ele><time>2026-05-03T15:32:01.709Z</time></trkpt><trkpt lat="38.430222379189566" lon="16.39357857307258"><ele>343.0</ele><time>2026-05-03T15:32:02.709Z</time></trkpt><trkpt lat="38.43013734529481" lon="16.393518230831653"><ele>340.79999999999995</ele><time>2026-05-03T15:32:03.709Z</time></trkpt><trkpt lat="38.43005347306013" lon="16.39345850491537"><ele>338.6</ele><time>2026-05-03T15:32:04.709Z</time></trkpt><trkpt lat="38.429965060308895" lon="16.39341952001042"><ele>336.4</ele><time>2026-05-03T15:32:05.709Z</time></trkpt><trkpt lat="38.429877263718886" lon="16.393349192976554"><ele>334.20000000000005</ele><time>2026-05-03T15:32:06.708Z</time></trkpt><trkpt lat="38.42979880001341" lon="16.39328732965621"><ele>332.0</ele><time>2026-05-03T15:32:07.708Z</time></trkpt><trkpt lat="38.4297180091497" lon="16.39323467853971"><ele>330.8</ele><time>2026-05-03T15:32:08.708Z</time></trkpt><trkpt lat="38.4296302165134" lon="16.393192828273143"><ele>329.6</ele><time>2026-05-03T15:32:09.708Z</time></trkpt><trkpt lat="38.42953622993194" lon="16.393125231594993"><ele>328.40000000000003</ele><time>2026-05-03T15:32:10.708Z</time></trkpt><trkpt lat="38.42943752514549" lon="16.393038860522342"><ele>327.20000000000005</ele><time>2026-05-03T15:32:11.708Z</time></trkpt><trkpt lat="38.4293489184509" lon="16.39296783695416"><ele>326.0</ele><time>2026-05-03T15:32:12.708Z</time></trkpt><trkpt lat="38.42926415923834" lon="16.39288230906493"><ele>325.5</ele><time>2026-05-03T15:32:13.708Z</time></trkpt><trkpt lat="38.42916987338468" lon="16.392773313081484"><ele>325.0</ele><time>2026-05-03T15:32:14.708Z</time></trkpt><trkpt lat="38.42909433300533" lon="16.3926510830111"><ele>324.5</ele><time>2026-05-03T15:32:15.708Z</time></trkpt><trkpt lat="38.42902159974487" lon="16.392544413984634"><ele>324.0</ele><time>2026-05-03T15:32:16.708Z</time></trkpt><trkpt lat="38.42894428004779" lon="16.392427023993783"><ele>324.0</ele><time>2026-05-03T15:32:17.708Z</time></trkpt><trkpt lat="38.42885563008633" lon="16.392300644304207"><ele>324.0</ele><time>2026-05-03T15:32:18.707Z</time></trkpt><trkpt lat="38.42876657178459" lon="16.392173310339437"><ele>324.0</ele><time>2026-05-03T15:32:19.707Z</time></trkpt><trkpt lat="38.428698262859214" lon="16.392037167925846"><ele>324.0</ele><time>2026-05-03T15:32:20.707Z</time></trkpt><trkpt lat="38.42863667451762" lon="16.39190342537155"><ele>321.2</ele><time>2026-05-03T15:32:21.707Z</time></trkpt><trkpt lat="38.42858111722567" lon="16.391812592916395"><ele>318.4</ele><time>2026-05-03T15:32:22.707Z</time></trkpt><trkpt lat="38.428518256425" lon="16.39169209407641"><ele>315.6</ele><time>2026-05-03T15:32:23.707Z</time></trkpt><trkpt lat="38.42845418215855" lon="16.39157080753886"><ele>312.8</ele><time>2026-05-03T15:32:24.707Z</time></trkpt><trkpt lat="38.42838135937881" lon="16.391454106688943"><ele>310.0</ele><time>2026-05-03T15:32:25.707Z</time></trkpt><trkpt lat="38.42831578396043" lon="16.391317840044394"><ele>309.8</ele><time>2026-05-03T15:32:26.707Z</time></trkpt><trkpt lat="38.42825930341062" lon="16.39118713996183"><ele>309.6</ele><time>2026-05-03T15:32:27.707Z</time></trkpt><trkpt lat="38.42821082388908" lon="16.391066496126943"><ele>309.4</ele><time>2026-05-03T15:32:28.707Z</time></trkpt><trkpt lat="38.42816452906975" lon="16.390968130205163"><ele>309.2</ele><time>2026-05-03T15:32:29.707Z</time></trkpt><trkpt lat="38.42808564813962" lon="16.390883475716723"><ele>309.0</ele><time>2026-05-03T15:32:30.707Z</time></trkpt><trkpt lat="38.42799097782626" lon="16.390785525958478"><ele>305.75</ele><time>2026-05-03T15:32:31.707Z</time></trkpt><trkpt lat="38.42790869512433" lon="16.3906761568098"><ele>302.5</ele><time>2026-05-03T15:32:32.707Z</time></trkpt><trkpt lat="38.42783674091728" lon="16.390552061679614"><ele>299.25</ele><time>2026-05-03T15:32:33.707Z</time></trkpt><trkpt lat="38.42777247602775" lon="16.39042879251856"><ele>296.0</ele><time>2026-05-03T15:32:34.707Z</time></trkpt><trkpt lat="38.42771408850649" lon="16.390313143649216"><ele>295.0</ele><time>2026-05-03T15:32:35.707Z</time></trkpt><trkpt lat="38.427665700621894" lon="16.390190847675647"><ele>294.0</ele><time>2026-05-03T15:32:36.707Z</time></trkpt><trkpt lat="38.427620462967916" lon="16.390037070492486"><ele>293.0</ele><time>2026-05-03T15:32:37.707Z</time></trkpt><trkpt lat="38.427573814696466" lon="16.389892771765854"><ele>292.0</ele><time>2026-05-03T15:32:38.707Z</time></trkpt><trkpt lat="38.42753172472937" lon="16.389747513085766"><ele>290.5</ele><time>2026-05-03T15:32:39.707Z</time></trkpt><trkpt lat="38.42747306900023" lon="16.389569891370424"><ele>289.0</ele><time>2026-05-03T15:32:40.707Z</time></trkpt><trkpt lat="38.42741584975626" lon="16.389407108278107"><ele>287.5</ele><time>2026-05-03T15:32:41.707Z</time></trkpt><trkpt lat="38.427361445099784" lon="16.389246025646603"><ele>286.0</ele><time>2026-05-03T15:32:42.707Z</time></trkpt><trkpt lat="38.427314236932176" lon="16.38907436658273"><ele>286.0</ele><time>2026-05-03T15:32:43.707Z</time></trkpt><trkpt lat="38.42725963022466" lon="16.388885965482146"><ele>286.0</ele><time>2026-05-03T15:32:44.707Z</time></trkpt><trkpt lat="38.42722075720714" lon="16.388712593521873"><ele>286.0</ele><time>2026-05-03T15:32:45.707Z</time></trkpt><trkpt lat="38.42719086228874" lon="16.38854024840518"><ele>286.0</ele><time>2026-05-03T15:32:46.707Z</time></trkpt><trkpt lat="38.42715169434709" lon="16.388382078064055"><ele>283.5</ele><time>2026-05-03T15:32:47.707Z</time></trkpt><trkpt lat="38.427112831717906" lon="16.38824105797707"><ele>281.0</ele><time>2026-05-03T15:32:48.707Z</time></trkpt><trkpt lat="38.42705889300079" lon="16.388094343204944"><ele>278.5</ele><time>2026-05-03T15:32:49.707Z</time></trkpt><trkpt lat="38.4269939178725" lon="16.387951285841254"><ele>276.0</ele><time>2026-05-03T15:32:50.707Z</time></trkpt><trkpt lat="38.426936743476276" lon="16.387802715192656"><ele>273.75</ele><time>2026-05-03T15:32:51.707Z</time></trkpt><trkpt lat="38.426887212311186" lon="16.387651312337262"><ele>271.5</ele><time>2026-05-03T15:32:52.707Z</time></trkpt><trkpt lat="38.42684844435121" lon="16.38750913957057"><ele>269.25</ele><time>2026-05-03T15:32:53.707Z</time></trkpt><trkpt lat="38.426808222211264" lon="16.387372754356043"><ele>267.0</ele><time>2026-05-03T15:32:54.707Z</time></trkpt><trkpt lat="38.426764227963254" lon="16.387225538060278"><ele>266.25</ele><time>2026-05-03T15:32:55.707Z</time></trkpt><trkpt lat="38.42674499620614" lon="16.3870915755445"><ele>265.5</ele><time>2026-05-03T15:32:56.707Z</time></trkpt><trkpt lat="38.4266919502351" lon="16.386943953635196"><ele>264.75</ele><time>2026-05-03T15:32:57.707Z</time></trkpt><trkpt lat="38.42666841111823" lon="16.386806730746628"><ele>264.0</ele><time>2026-05-03T15:32:58.707Z</time></trkpt><trkpt lat="38.42661897680132" lon="16.386681861985036"><ele>264.0</ele><time>2026-05-03T15:32:59.707Z</time></trkpt><trkpt lat="38.42658994241383" lon="16.386568831272026"><ele>264.0</ele><time>2026-05-03T15:33:00.707Z</time></trkpt><trkpt lat="38.426568969537264" lon="16.386467087541828"><ele>264.0</ele><time>2026-05-03T15:33:01.707Z</time></trkpt><trkpt lat="38.42654618065937" lon="16.386375590461384"><ele>264.0</ele><time>2026-05-03T15:33:02.707Z</time></trkpt><trkpt lat="38.42652338526766" lon="16.386299899771"><ele>264.0</ele><time>2026-05-03T15:33:05.707Z</time></trkpt><trkpt lat="38.4265171075881" lon="16.386209843820307"><ele>264.0</ele><time>2026-05-03T15:33:09.706Z</time></trkpt><trkpt lat="38.42641714433661" lon="16.38622958053662"><ele>265.0</ele><time>2026-05-03T15:33:10.706Z</time></trkpt><trkpt lat="38.42632737966153" lon="16.386185730224597"><ele>266.0</ele><time>2026-05-03T15:33:12.706Z</time></trkpt><trkpt lat="38.426233702010016" lon="16.38614821036998"><ele>267.0</ele><time>2026-05-03T15:33:14.706Z</time></trkpt><trkpt lat="38.42616641855951" lon="16.386121224277126"><ele>268.0</ele><time>2026-05-03T15:33:15.706Z</time></trkpt><trkpt lat="38.42610030905204" lon="16.38609470903095"><ele>269.0</ele><time>2026-05-03T15:33:16.706Z</time></trkpt><trkpt lat="38.42603545897292" lon="16.38606734013073"><ele>270.0</ele><time>2026-05-03T15:33:17.706Z</time></trkpt><trkpt lat="38.42595702347867" lon="16.386033771028732"><ele>266.8</ele><time>2026-05-03T15:33:18.706Z</time></trkpt><trkpt lat="38.425875751914276" lon="16.385998988161514"><ele>263.6</ele><time>2026-05-03T15:33:19.706Z</time></trkpt><trkpt lat="38.42578953522031" lon="16.385960453388243"><ele>260.4</ele><time>2026-05-03T15:33:20.706Z</time></trkpt><trkpt lat="38.425702633018645" lon="16.385918912326336"><ele>257.2</ele><time>2026-05-03T15:33:21.706Z</time></trkpt><trkpt lat="38.42561353076387" lon="16.385893266900958"><ele>254.0</ele><time>2026-05-03T15:33:22.706Z</time></trkpt><trkpt lat="38.42553142233414" lon="16.38584163235873"><ele>252.6</ele><time>2026-05-03T15:33:23.706Z</time></trkpt><trkpt lat="38.425451569638774" lon="16.38576972395797"><ele>251.2</ele><time>2026-05-03T15:33:24.706Z</time></trkpt><trkpt lat="38.425366697234715" lon="16.385696947245936"><ele>249.79999999999998</ele><time>2026-05-03T15:33:25.706Z</time></trkpt><trkpt lat="38.425283174218265" lon="16.38562678134565"><ele>248.39999999999998</ele><time>2026-05-03T15:33:26.706Z</time></trkpt><trkpt lat="38.42520124881768" lon="16.38555360977479"><ele>247.0</ele><time>2026-05-03T15:33:27.706Z</time></trkpt><trkpt lat="38.42511841148636" lon="16.38547725980825"><ele>246.6</ele><time>2026-05-03T15:33:28.706Z</time></trkpt><trkpt lat="38.425045275945834" lon="16.385402145630895"><ele>246.2</ele><time>2026-05-03T15:33:29.706Z</time></trkpt><trkpt lat="38.42498530722969" lon="16.385334949340155"><ele>245.8</ele><time>2026-05-03T15:33:30.706Z</time></trkpt><trkpt lat="38.42488668415928" lon="16.385243136125794"><ele>245.4</ele><time>2026-05-03T15:33:32.706Z</time></trkpt><trkpt lat="38.42477742266992" lon="16.385145976282036"><ele>245.0</ele><time>2026-05-03T15:33:34.706Z</time></trkpt><trkpt lat="38.42471504108476" lon="16.38509363140195"><ele>245.00000000000003</ele><time>2026-05-03T15:33:35.706Z</time></trkpt><trkpt lat="38.424654081428095" lon="16.385040758193316"><ele>245.0</ele><time>2026-05-03T15:33:36.706Z</time></trkpt><trkpt lat="38.42459077762518" lon="16.384981607341334"><ele>245.0</ele><time>2026-05-03T15:33:37.706Z</time></trkpt><trkpt lat="38.42452865622923" lon="16.384922801129857"><ele>245.0</ele><time>2026-05-03T15:33:38.706Z</time></trkpt><trkpt lat="38.424464085289515" lon="16.384858036704646"><ele>245.00000000000003</ele><time>2026-05-03T15:33:39.706Z</time></trkpt><trkpt lat="38.42439639311189" lon="16.384788918060277"><ele>245.0</ele><time>2026-05-03T15:33:40.706Z</time></trkpt><trkpt lat="38.424322305941295" lon="16.384715222460315"><ele>242.6</ele><time>2026-05-03T15:33:41.706Z</time></trkpt><trkpt lat="38.424254538340705" lon="16.38464362118777"><ele>240.2</ele><time>2026-05-03T15:33:42.706Z</time></trkpt><trkpt lat="38.42418531164384" lon="16.384567444869248"><ele>237.8</ele><time>2026-05-03T15:33:43.706Z</time></trkpt><trkpt lat="38.42411468762664" lon="16.384487126161915"><ele>235.4</ele><time>2026-05-03T15:33:44.706Z</time></trkpt><trkpt lat="38.424048500782234" lon="16.384400196549244"><ele>233.0</ele><time>2026-05-03T15:33:45.706Z</time></trkpt><trkpt lat="38.42397920614922" lon="16.384313595900437"><ele>233.0</ele><time>2026-05-03T15:33:46.706Z</time></trkpt><trkpt lat="38.42391352789929" lon="16.38422345800903"><ele>233.0</ele><time>2026-05-03T15:33:47.706Z</time></trkpt><trkpt lat="38.42384276064371" lon="16.384125541367098"><ele>233.0</ele><time>2026-05-03T15:33:48.706Z</time></trkpt><trkpt lat="38.42377704791249" lon="16.384029413482025"><ele>233.0</ele><time>2026-05-03T15:33:49.706Z</time></trkpt><trkpt lat="38.42370566877449" lon="16.383930413659527"><ele>233.0</ele><time>2026-05-03T15:33:50.706Z</time></trkpt><trkpt lat="38.42363342347896" lon="16.383829922348998"><ele>230.0</ele><time>2026-05-03T15:33:51.706Z</time></trkpt><trkpt lat="38.423564980895904" lon="16.38372065695053"><ele>227.0</ele><time>2026-05-03T15:33:52.706Z</time></trkpt><trkpt lat="38.4234981299018" lon="16.383604624505494"><ele>224.0</ele><time>2026-05-03T15:33:53.706Z</time></trkpt><trkpt lat="38.423425086898355" lon="16.383487297616547"><ele>221.0</ele><time>2026-05-03T15:33:54.705Z</time></trkpt><trkpt lat="38.42335215880886" lon="16.383360379645158"><ele>221.0</ele><time>2026-05-03T15:33:55.705Z</time></trkpt><trkpt lat="38.423276362615596" lon="16.383236455432865"><ele>221.0</ele><time>2026-05-03T15:33:56.705Z</time></trkpt><trkpt lat="38.423195023977186" lon="16.38311869523341"><ele>221.0</ele><time>2026-05-03T15:33:57.705Z</time></trkpt><trkpt lat="38.42312137309707" lon="16.382998689453274"><ele>221.0</ele><time>2026-05-03T15:33:58.705Z</time></trkpt><trkpt lat="38.423054736312444" lon="16.382885316537195"><ele>220.00000000000003</ele><time>2026-05-03T15:33:59.705Z</time></trkpt><trkpt lat="38.42299234177323" lon="16.382785900276378"><ele>219.0</ele><time>2026-05-03T15:34:00.705Z</time></trkpt><trkpt lat="38.42293617278759" lon="16.382689923717166"><ele>218.0</ele><time>2026-05-03T15:34:01.705Z</time></trkpt><trkpt lat="38.42288013094168" lon="16.3825995739812"><ele>217.0</ele><time>2026-05-03T15:34:02.705Z</time></trkpt><trkpt lat="38.422819461608825" lon="16.382533000997373"><ele>216.00000000000003</ele><time>2026-05-03T15:34:03.705Z</time></trkpt><trkpt lat="38.42275527645318" lon="16.382486944080853"><ele>215.0</ele><time>2026-05-03T15:34:04.705Z</time></trkpt><trkpt lat="38.42268839084198" lon="16.382449387995976"><ele>215.0</ele><time>2026-05-03T15:34:05.705Z</time></trkpt><trkpt lat="38.422632208220705" lon="16.38240822567147"><ele>215.0</ele><time>2026-05-03T15:34:06.705Z</time></trkpt><trkpt lat="38.422590762438084" lon="16.382337486273887"><ele>215.0</ele><time>2026-05-03T15:34:07.705Z</time></trkpt><trkpt lat="38.42256047128779" lon="16.3822554646805"><ele>215.0</ele><time>2026-05-03T15:34:08.705Z</time></trkpt><trkpt lat="38.422538875482445" lon="16.382162897613338"><ele>215.0</ele><time>2026-05-03T15:34:09.705Z</time></trkpt><trkpt lat="38.42252355453041" lon="16.382067471082014"><ele>215.0</ele><time>2026-05-03T15:34:10.705Z</time></trkpt><trkpt lat="38.4225043884507" lon="16.38196708008878"><ele>215.0</ele><time>2026-05-03T15:34:11.705Z</time></trkpt><trkpt lat="38.42248826580054" lon="16.38186221991765"><ele>213.2</ele><time>2026-05-03T15:34:12.705Z</time></trkpt><trkpt lat="38.422469360379694" lon="16.381751248415323"><ele>211.4</ele><time>2026-05-03T15:34:13.705Z</time></trkpt><trkpt lat="38.422439036749125" lon="16.381639976912496"><ele>209.60000000000002</ele><time>2026-05-03T15:34:14.705Z</time></trkpt><trkpt lat="38.42240683584548" lon="16.381522865349318"><ele>207.8</ele><time>2026-05-03T15:34:15.705Z</time></trkpt><trkpt lat="38.422375798746685" lon="16.38139719222293"><ele>206.0</ele><time>2026-05-03T15:34:16.704Z</time></trkpt><trkpt lat="38.422347092936796" lon="16.381276195596953"><ele>205.4</ele><time>2026-05-03T15:34:17.704Z</time></trkpt><trkpt lat="38.422316783735795" lon="16.38114936999991"><ele>204.8</ele><time>2026-05-03T15:34:18.704Z</time></trkpt><trkpt lat="38.42228593163551" lon="16.381019327121972"><ele>204.20000000000002</ele><time>2026-05-03T15:34:19.704Z</time></trkpt><trkpt lat="38.42225126405661" lon="16.3808996195231"><ele>203.60000000000002</ele><time>2026-05-03T15:34:20.704Z</time></trkpt><trkpt lat="38.42221051770899" lon="16.38077794599893"><ele>203.0</ele><time>2026-05-03T15:34:21.705Z</time></trkpt><trkpt lat="38.42216138893384" lon="16.380651929824268"><ele>202.2</ele><time>2026-05-03T15:34:22.704Z</time></trkpt><trkpt lat="38.42210614026215" lon="16.38053314194772"><ele>201.4</ele><time>2026-05-03T15:34:23.704Z</time></trkpt><trkpt lat="38.42204380379324" lon="16.380415927145794"><ele>200.6</ele><time>2026-05-03T15:34:24.704Z</time></trkpt><trkpt lat="38.42197398787411" lon="16.3803039991502"><ele>199.79999999999998</ele><time>2026-05-03T15:34:25.704Z</time></trkpt><trkpt lat="38.42191086261091" lon="16.38019785569213"><ele>199.0</ele><time>2026-05-03T15:34:26.704Z</time></trkpt><trkpt lat="38.42184527536451" lon="16.38007961988146"><ele>198.0</ele><time>2026-05-03T15:34:27.704Z</time></trkpt><trkpt lat="38.42177434085222" lon="16.379971182883526"><ele>197.0</ele><time>2026-05-03T15:34:28.704Z</time></trkpt><trkpt lat="38.42171659980496" lon="16.379850208817658"><ele>196.0</ele><time>2026-05-03T15:34:29.704Z</time></trkpt><trkpt lat="38.42164062749729" lon="16.379739430752437"><ele>195.0</ele><time>2026-05-03T15:34:30.704Z</time></trkpt><trkpt lat="38.42156729048599" lon="16.379640428621663"><ele>194.0</ele><time>2026-05-03T15:34:31.704Z</time></trkpt><trkpt lat="38.421492397187045" lon="16.379542083046868"><ele>193.2</ele><time>2026-05-03T15:34:32.704Z</time></trkpt><trkpt lat="38.42141566142255" lon="16.379441022208397"><ele>192.39999999999998</ele><time>2026-05-03T15:34:33.704Z</time></trkpt><trkpt lat="38.421337362021774" lon="16.379335474833105"><ele>191.6</ele><time>2026-05-03T15:34:34.704Z</time></trkpt><trkpt lat="38.42124983052795" lon="16.37924358588631"><ele>190.8</ele><time>2026-05-03T15:34:35.704Z</time></trkpt><trkpt lat="38.42118480376255" lon="16.379129826731766"><ele>190.0</ele><time>2026-05-03T15:34:36.704Z</time></trkpt><trkpt lat="38.42110707307835" lon="16.3790253190999"><ele>189.6</ele><time>2026-05-03T15:34:37.704Z</time></trkpt><trkpt lat="38.421013877024016" lon="16.37892929256227"><ele>189.2</ele><time>2026-05-03T15:34:38.704Z</time></trkpt><trkpt lat="38.42094077967262" lon="16.378827805122217"><ele>188.8</ele><time>2026-05-03T15:34:39.704Z</time></trkpt><trkpt lat="38.420864905095954" lon="16.378721086162535"><ele>188.4</ele><time>2026-05-03T15:34:40.704Z</time></trkpt><trkpt lat="38.420793131612626" lon="16.378624328499512"><ele>188.0</ele><time>2026-05-03T15:34:41.704Z</time></trkpt><trkpt lat="38.420730348191206" lon="16.378547456524455"><ele>187.5</ele><time>2026-05-03T15:34:42.704Z</time></trkpt><trkpt lat="38.420664023324164" lon="16.37848873984175"><ele>187.0</ele><time>2026-05-03T15:34:43.704Z</time></trkpt><trkpt lat="38.42059230000141" lon="16.378424717552733"><ele>186.5</ele><time>2026-05-03T15:34:44.704Z</time></trkpt><trkpt lat="38.4205015146168" lon="16.378415289048508"><ele>186.0</ele><time>2026-05-03T15:34:45.704Z</time></trkpt><trkpt lat="38.42041036997607" lon="16.378416395683807"><ele>185.5</ele><time>2026-05-03T15:34:46.704Z</time></trkpt><trkpt lat="38.42031143881805" lon="16.378418862671918"><ele>185.0</ele><time>2026-05-03T15:34:47.704Z</time></trkpt><trkpt lat="38.420225352151036" lon="16.37845120523139"><ele>183.0</ele><time>2026-05-03T15:34:48.704Z</time></trkpt><trkpt lat="38.420145798261686" lon="16.378489151845"><ele>181.0</ele><time>2026-05-03T15:34:49.704Z</time></trkpt><trkpt lat="38.42006815552379" lon="16.378523528404596"><ele>179.0</ele><time>2026-05-03T15:34:50.704Z</time></trkpt><trkpt lat="38.42000401953781" lon="16.378544188586957"><ele>177.0</ele><time>2026-05-03T15:34:51.704Z</time></trkpt><trkpt lat="38.419922197744356" lon="16.378457579130473"><ele>175.0</ele><time>2026-05-03T15:34:52.704Z</time></trkpt><trkpt lat="38.41986776702381" lon="16.378382402202973"><ele>173.0</ele><time>2026-05-03T15:34:53.704Z</time></trkpt><trkpt lat="38.41981314859694" lon="16.37830166995891"><ele>173.0</ele><time>2026-05-03T15:34:54.704Z</time></trkpt><trkpt lat="38.419754723679" lon="16.37822915873747"><ele>173.0</ele><time>2026-05-03T15:34:55.703Z</time></trkpt><trkpt lat="38.4196863561586" lon="16.378163343795133"><ele>173.0</ele><time>2026-05-03T15:34:56.703Z</time></trkpt><trkpt lat="38.419615051826604" lon="16.37810270904411"><ele>173.0</ele><time>2026-05-03T15:34:57.703Z</time></trkpt><trkpt lat="38.419526966420904" lon="16.378073048113617"><ele>173.0</ele><time>2026-05-03T15:34:58.703Z</time></trkpt><trkpt lat="38.41942633806273" lon="16.378045616210965"><ele>173.0</ele><time>2026-05-03T15:34:59.703Z</time></trkpt><trkpt lat="38.41931864709425" lon="16.378076883645253"><ele>171.60000000000002</ele><time>2026-05-03T15:35:00.703Z</time></trkpt><trkpt lat="38.419224570618375" lon="16.378126376432423"><ele>170.20000000000002</ele><time>2026-05-03T15:35:01.703Z</time></trkpt><trkpt lat="38.419127356921805" lon="16.37818893430052"><ele>168.8</ele><time>2026-05-03T15:35:02.703Z</time></trkpt><trkpt lat="38.419040597404475" lon="16.3782496580433"><ele>167.4</ele><time>2026-05-03T15:35:03.703Z</time></trkpt><trkpt lat="38.418950236297015" lon="16.37830949929623"><ele>166.0</ele><time>2026-05-03T15:35:04.703Z</time></trkpt><trkpt lat="38.41886012045646" lon="16.378369263346297"><ele>165.5</ele><time>2026-05-03T15:35:05.703Z</time></trkpt><trkpt lat="38.418758884222925" lon="16.378436402404702"><ele>165.0</ele><time>2026-05-03T15:35:06.703Z</time></trkpt><trkpt lat="38.41865195328497" lon="16.37850808895655"><ele>164.5</ele><time>2026-05-03T15:35:07.703Z</time></trkpt><trkpt lat="38.41854728143444" lon="16.378582300474683"><ele>164.0</ele><time>2026-05-03T15:35:08.703Z</time></trkpt><trkpt lat="38.418442866447734" lon="16.37865632982197"><ele>164.0</ele><time>2026-05-03T15:35:09.703Z</time></trkpt><trkpt lat="38.41833968836743" lon="16.37872948223709"><ele>164.0</ele><time>2026-05-03T15:35:10.703Z</time></trkpt><trkpt lat="38.41823526420868" lon="16.378803518097225"><ele>164.0</ele><time>2026-05-03T15:35:11.702Z</time></trkpt><trkpt lat="38.41812771973513" lon="16.3788797662583"><ele>164.0</ele><time>2026-05-03T15:35:12.702Z</time></trkpt><trkpt lat="38.41801701984883" lon="16.378958251576584"><ele>163.5</ele><time>2026-05-03T15:35:13.702Z</time></trkpt><trkpt lat="38.417902641888276" lon="16.379039344598038"><ele>163.0</ele><time>2026-05-03T15:35:14.702Z</time></trkpt><trkpt lat="38.41778195066466" lon="16.37912491367508"><ele>162.5</ele><time>2026-05-03T15:35:15.702Z</time></trkpt><trkpt lat="38.41765901388204" lon="16.379212074844705"><ele>162.0</ele><time>2026-05-03T15:35:16.702Z</time></trkpt><trkpt lat="38.4175395611722" lon="16.379296765828922"><ele>162.0</ele><time>2026-05-03T15:35:17.702Z</time></trkpt><trkpt lat="38.41741218398505" lon="16.379387075213756"><ele>162.0</ele><time>2026-05-03T15:35:18.702Z</time></trkpt><trkpt lat="38.41727700272363" lon="16.379482917589662"><ele>162.0</ele><time>2026-05-03T15:35:19.702Z</time></trkpt><trkpt lat="38.417139645287115" lon="16.37958030285742"><ele>161.33333333333334</ele><time>2026-05-03T15:35:20.702Z</time></trkpt><trkpt lat="38.41700395906264" lon="16.37967650332199"><ele>160.66666666666669</ele><time>2026-05-03T15:35:21.702Z</time></trkpt><trkpt lat="38.41686602596626" lon="16.37977429674911"><ele>160.0</ele><time>2026-05-03T15:35:22.702Z</time></trkpt><trkpt lat="38.4167267332874" lon="16.37987305405659"><ele>160.0</ele><time>2026-05-03T15:35:23.702Z</time></trkpt><trkpt lat="38.416589356461174" lon="16.379970453136288"><ele>160.0</ele><time>2026-05-03T15:35:24.702Z</time></trkpt><trkpt lat="38.41645895916064" lon="16.380062903767453"><ele>160.0</ele><time>2026-05-03T15:35:25.702Z</time></trkpt><trkpt lat="38.41632546164002" lon="16.38015755241559"><ele>159.66666666666669</ele><time>2026-05-03T15:35:26.702Z</time></trkpt><trkpt lat="38.41619176272028" lon="16.380252859229824"><ele>159.33333333333334</ele><time>2026-05-03T15:35:27.702Z</time></trkpt><trkpt lat="38.416061888060625" lon="16.380345457800388"><ele>159.0</ele><time>2026-05-03T15:35:28.702Z</time></trkpt><trkpt lat="38.41593066002917" lon="16.380439021295153"><ele>159.25</ele><time>2026-05-03T15:35:29.702Z</time></trkpt><trkpt lat="38.41580137465807" lon="16.380529421794446"><ele>159.5</ele><time>2026-05-03T15:35:30.702Z</time></trkpt><trkpt lat="38.41567399011589" lon="16.38061844742007"><ele>159.75</ele><time>2026-05-03T15:35:31.702Z</time></trkpt><trkpt lat="38.415550523556846" lon="16.380704806263243"><ele>160.0</ele><time>2026-05-03T15:35:32.702Z</time></trkpt><trkpt lat="38.41543067722688" lon="16.380788632827585"><ele>159.0</ele><time>2026-05-03T15:35:33.702Z</time></trkpt><trkpt lat="38.41530872579674" lon="16.38087393191121"><ele>158.0</ele><time>2026-05-03T15:35:34.702Z</time></trkpt><trkpt lat="38.41518643340886" lon="16.380957961022546"><ele>157.0</ele><time>2026-05-03T15:35:35.702Z</time></trkpt><trkpt lat="38.41506276510667" lon="16.38104217525183"><ele>156.0</ele><time>2026-05-03T15:35:36.702Z</time></trkpt><trkpt lat="38.414937878700684" lon="16.381127218964842"><ele>156.0</ele><time>2026-05-03T15:35:37.702Z</time></trkpt><trkpt lat="38.414811670017386" lon="16.381213163110143"><ele>156.0</ele><time>2026-05-03T15:35:38.702Z</time></trkpt><trkpt lat="38.41468542806591" lon="16.38130244514956"><ele>156.0</ele><time>2026-05-03T15:35:39.702Z</time></trkpt><trkpt lat="38.41455837441346" lon="16.38139273327165"><ele>156.0</ele><time>2026-05-03T15:35:40.702Z</time></trkpt><trkpt lat="38.414429749260435" lon="16.38148413816036"><ele>155.5</ele><time>2026-05-03T15:35:41.702Z</time></trkpt><trkpt lat="38.41430134604648" lon="16.381575385320147"><ele>155.0</ele><time>2026-05-03T15:35:42.701Z</time></trkpt><trkpt lat="38.41417056943556" lon="16.381668055047843"><ele>154.5</ele><time>2026-05-03T15:35:43.701Z</time></trkpt><trkpt lat="38.41403790865193" lon="16.38176026312707"><ele>154.0</ele><time>2026-05-03T15:35:44.701Z</time></trkpt><trkpt lat="38.413903743178665" lon="16.381853517066666"><ele>153.66666666666669</ele><time>2026-05-03T15:35:45.701Z</time></trkpt><trkpt lat="38.41376690999094" lon="16.381948625250665"><ele>153.33333333333334</ele><time>2026-05-03T15:35:46.701Z</time></trkpt><trkpt lat="38.41362892168734" lon="16.382044536306605"><ele>153.0</ele><time>2026-05-03T15:35:47.701Z</time></trkpt><trkpt lat="38.41348967856375" lon="16.382141690907876"><ele>153.0</ele><time>2026-05-03T15:35:48.701Z</time></trkpt><trkpt lat="38.41335226862199" lon="16.382240667828476"><ele>153.0</ele><time>2026-05-03T15:35:49.701Z</time></trkpt><trkpt lat="38.41321857966326" lon="16.38233696451771"><ele>153.0</ele><time>2026-05-03T15:35:50.701Z</time></trkpt><trkpt lat="38.41308661535823" lon="16.382432018927055"><ele>152.33333333333334</ele><time>2026-05-03T15:35:51.701Z</time></trkpt><trkpt lat="38.41295488848676" lon="16.382526902313106"><ele>151.66666666666669</ele><time>2026-05-03T15:35:52.701Z</time></trkpt><trkpt lat="38.41282353246864" lon="16.382620647960984"><ele>151.0</ele><time>2026-05-03T15:35:53.701Z</time></trkpt><trkpt lat="38.41269215789854" lon="16.382713762678428"><ele>151.0</ele><time>2026-05-03T15:35:54.701Z</time></trkpt><trkpt lat="38.41255788735373" lon="16.382808929965183"><ele>151.0</ele><time>2026-05-03T15:35:55.701Z</time></trkpt><trkpt lat="38.412420722489756" lon="16.382906148698787"><ele>151.0</ele><time>2026-05-03T15:35:56.701Z</time></trkpt><trkpt lat="38.412282797627896" lon="16.383003906003605"><ele>150.33333333333334</ele><time>2026-05-03T15:35:57.701Z</time></trkpt><trkpt lat="38.41214444289525" lon="16.383101968140735"><ele>149.66666666666666</ele><time>2026-05-03T15:35:58.701Z</time></trkpt><trkpt lat="38.41200643675793" lon="16.38319978251018"><ele>149.0</ele><time>2026-05-03T15:35:59.701Z</time></trkpt><trkpt lat="38.41186652738121" lon="16.383298943417767"><ele>149.0</ele><time>2026-05-03T15:36:00.701Z</time></trkpt><trkpt lat="38.41172569057848" lon="16.383398761614583"><ele>149.0</ele><time>2026-05-03T15:36:01.701Z</time></trkpt><trkpt lat="38.41158289288064" lon="16.383499969657077"><ele>149.0</ele><time>2026-05-03T15:36:02.701Z</time></trkpt><trkpt lat="38.41143810850097" lon="16.3836026909176"><ele>148.33333333333331</ele><time>2026-05-03T15:36:03.701Z</time></trkpt><trkpt lat="38.41129353433848" lon="16.383706754133772"><ele>147.66666666666666</ele><time>2026-05-03T15:36:04.701Z</time></trkpt><trkpt lat="38.41114865563497" lon="16.383811036536972"><ele>147.0</ele><time>2026-05-03T15:36:05.701Z</time></trkpt><trkpt lat="38.4110044320892" lon="16.383914848724643"><ele>147.0</ele><time>2026-05-03T15:36:06.701Z</time></trkpt><trkpt lat="38.41085789040002" lon="16.384020328052575"><ele>147.0</ele><time>2026-05-03T15:36:07.701Z</time></trkpt><trkpt lat="38.410713172127835" lon="16.384124495061695"><ele>147.0</ele><time>2026-05-03T15:36:08.701Z</time></trkpt><trkpt lat="38.41056813513914" lon="16.384224564401013"><ele>146.33333333333334</ele><time>2026-05-03T15:36:09.701Z</time></trkpt><trkpt lat="38.41042439725646" lon="16.384324800001327"><ele>145.66666666666669</ele><time>2026-05-03T15:36:10.701Z</time></trkpt><trkpt lat="38.410283522968015" lon="16.38442324341266"><ele>145.0</ele><time>2026-05-03T15:36:11.701Z</time></trkpt><trkpt lat="38.41014065619727" lon="16.384523079028234"><ele>145.0</ele><time>2026-05-03T15:36:12.701Z</time></trkpt><trkpt lat="38.40999801368421" lon="16.38462344436557"><ele>145.0</ele><time>2026-05-03T15:36:13.701Z</time></trkpt><trkpt lat="38.40986004254695" lon="16.384739345219817"><ele>145.0</ele><time>2026-05-03T15:36:14.701Z</time></trkpt><trkpt lat="38.40971441513439" lon="16.384841385686155"><ele>145.66666666666669</ele><time>2026-05-03T15:36:15.701Z</time></trkpt><trkpt lat="38.40956945628468" lon="16.384945362567063"><ele>146.33333333333334</ele><time>2026-05-03T15:36:16.701Z</time></trkpt><trkpt lat="38.409423228739534" lon="16.385048936090115"><ele>147.0</ele><time>2026-05-03T15:36:17.701Z</time></trkpt><trkpt lat="38.409277111409395" lon="16.38515438826934"><ele>147.0</ele><time>2026-05-03T15:36:18.7Z</time></trkpt><trkpt lat="38.40913230221421" lon="16.385257314867175"><ele>147.0</ele><time>2026-05-03T15:36:19.7Z</time></trkpt><trkpt lat="38.408990398887035" lon="16.38535679016646"><ele>147.0</ele><time>2026-05-03T15:36:20.7Z</time></trkpt><trkpt lat="38.40884890623302" lon="16.385456089515724"><ele>147.0</ele><time>2026-05-03T15:36:21.699Z</time></trkpt><trkpt lat="38.40871126098825" lon="16.385554649279964"><ele>147.0</ele><time>2026-05-03T15:36:22.7Z</time></trkpt><trkpt lat="38.40856690156807" lon="16.38563299419816"><ele>147.0</ele><time>2026-05-03T15:36:23.7Z</time></trkpt><trkpt lat="38.40843348838694" lon="16.385726621569795"><ele>147.0</ele><time>2026-05-03T15:36:24.7Z</time></trkpt><trkpt lat="38.408300827206155" lon="16.38582133600886"><ele>147.0</ele><time>2026-05-03T15:36:25.7Z</time></trkpt><trkpt lat="38.40817949935389" lon="16.385931422512556"><ele>147.0</ele><time>2026-05-03T15:36:26.7Z</time></trkpt><trkpt lat="38.40805302818977" lon="16.38601965560045"><ele>147.0</ele><time>2026-05-03T15:36:27.7Z</time></trkpt><trkpt lat="38.407928612970494" lon="16.38610509742554"><ele>146.75</ele><time>2026-05-03T15:36:28.699Z</time></trkpt><trkpt lat="38.40780620104988" lon="16.386188492857812"><ele>146.5</ele><time>2026-05-03T15:36:29.699Z</time></trkpt><trkpt lat="38.4076896256375" lon="16.386273561989217"><ele>146.25</ele><time>2026-05-03T15:36:30.7Z</time></trkpt><trkpt lat="38.40757638493502" lon="16.386361642136766"><ele>146.0</ele><time>2026-05-03T15:36:31.7Z</time></trkpt><trkpt lat="38.40745714668625" lon="16.386423070242067"><ele>146.0</ele><time>2026-05-03T15:36:32.7Z</time></trkpt><trkpt lat="38.407355137426414" lon="16.3865165771797"><ele>146.0</ele><time>2026-05-03T15:36:33.7Z</time></trkpt><trkpt lat="38.40724945518285" lon="16.386590478547717"><ele>146.0</ele><time>2026-05-03T15:36:34.7Z</time></trkpt><trkpt lat="38.40714222533805" lon="16.386662920072304"><ele>146.0</ele><time>2026-05-03T15:36:35.7Z</time></trkpt><trkpt lat="38.40703549485593" lon="16.38673453489619"><ele>144.75</ele><time>2026-05-03T15:36:36.7Z</time></trkpt><trkpt lat="38.4069251549473" lon="16.386805943566873"><ele>143.5</ele><time>2026-05-03T15:36:37.7Z</time></trkpt><trkpt lat="38.406804860420586" lon="16.386859178491342"><ele>142.25</ele><time>2026-05-03T15:36:38.7Z</time></trkpt><trkpt lat="38.406685753471535" lon="16.386931352215495"><ele>141.0</ele><time>2026-05-03T15:36:39.7Z</time></trkpt><trkpt lat="38.40656510304568" lon="16.38700573098491"><ele>141.0</ele><time>2026-05-03T15:36:40.7Z</time></trkpt><trkpt lat="38.40644080946865" lon="16.387085245347002"><ele>141.0</ele><time>2026-05-03T15:36:41.7Z</time></trkpt><trkpt lat="38.40631984896514" lon="16.387185602850803"><ele>141.0</ele><time>2026-05-03T15:36:42.7Z</time></trkpt><trkpt lat="38.40618534111297" lon="16.387265842548512"><ele>141.0</ele><time>2026-05-03T15:36:43.7Z</time></trkpt><trkpt lat="38.40605085244441" lon="16.387344809319046"><ele>140.0</ele><time>2026-05-03T15:36:44.7Z</time></trkpt><trkpt lat="38.40591990864677" lon="16.387428619421563"><ele>139.0</ele><time>2026-05-03T15:36:45.7Z</time></trkpt><trkpt lat="38.40578237391513" lon="16.38748876090905"><ele>138.0</ele><time>2026-05-03T15:36:46.7Z</time></trkpt><trkpt lat="38.40565138404938" lon="16.387568750181906"><ele>137.0</ele><time>2026-05-03T15:36:47.7Z</time></trkpt><trkpt lat="38.40552150615181" lon="16.387659867426745"><ele>136.75</ele><time>2026-05-03T15:36:48.7Z</time></trkpt><trkpt lat="38.405411080645244" lon="16.38777575011976"><ele>136.5</ele><time>2026-05-03T15:36:49.7Z</time></trkpt><trkpt lat="38.405292171846995" lon="16.38787205140503"><ele>136.25</ele><time>2026-05-03T15:36:50.7Z</time></trkpt><trkpt lat="38.4051915650544" lon="16.387990608321097"><ele>136.0</ele><time>2026-05-03T15:36:51.7Z</time></trkpt><trkpt lat="38.40509453568255" lon="16.38811358880622"><ele>135.5</ele><time>2026-05-03T15:36:52.7Z</time></trkpt><trkpt lat="38.404998143932424" lon="16.38824125357225"><ele>135.0</ele><time>2026-05-03T15:36:53.7Z</time></trkpt><trkpt lat="38.40490158701415" lon="16.388369946962055"><ele>134.5</ele><time>2026-05-03T15:36:54.7Z</time></trkpt><trkpt lat="38.404803323335045" lon="16.38850091537938"><ele>134.0</ele><time>2026-05-03T15:36:55.7Z</time></trkpt><trkpt lat="38.404705110695176" lon="16.3886354338034"><ele>134.0</ele><time>2026-05-03T15:36:56.7Z</time></trkpt><trkpt lat="38.40460805529319" lon="16.388774272574175"><ele>134.0</ele><time>2026-05-03T15:36:57.7Z</time></trkpt><trkpt lat="38.404518418610074" lon="16.38892112225888"><ele>134.0</ele><time>2026-05-03T15:36:58.7Z</time></trkpt><trkpt lat="38.40443491783107" lon="16.389078832353203"><ele>134.0</ele><time>2026-05-03T15:36:59.699Z</time></trkpt><trkpt lat="38.404355969456645" lon="16.389240609680833"><ele>134.0</ele><time>2026-05-03T15:37:00.699Z</time></trkpt><trkpt lat="38.40428393031218" lon="16.38941289491418"><ele>134.0</ele><time>2026-05-03T15:37:01.699Z</time></trkpt><trkpt lat="38.40421800563347" lon="16.389592557518768"><ele>134.0</ele><time>2026-05-03T15:37:02.699Z</time></trkpt><trkpt lat="38.404159384089446" lon="16.389778521143228"><ele>133.66666666666666</ele><time>2026-05-03T15:37:03.699Z</time></trkpt><trkpt lat="38.4041081269932" lon="16.389967184254953"><ele>133.33333333333334</ele><time>2026-05-03T15:37:04.699Z</time></trkpt><trkpt lat="38.40405757284682" lon="16.39015621489703"><ele>133.0</ele><time>2026-05-03T15:37:05.699Z</time></trkpt><trkpt lat="38.40400521917527" lon="16.390344441351846"><ele>132.33333333333334</ele><time>2026-05-03T15:37:06.699Z</time></trkpt><trkpt lat="38.40395225678232" lon="16.390528841817392"><ele>131.66666666666666</ele><time>2026-05-03T15:37:07.699Z</time></trkpt><trkpt lat="38.403901123043426" lon="16.39071511531249"><ele>131.0</ele><time>2026-05-03T15:37:08.699Z</time></trkpt><trkpt lat="38.40385557001302" lon="16.390903302665322"><ele>131.33333333333331</ele><time>2026-05-03T15:37:09.699Z</time></trkpt><trkpt lat="38.40381474740891" lon="16.39109262541661"><ele>131.66666666666666</ele><time>2026-05-03T15:37:10.699Z</time></trkpt><trkpt lat="38.403775730804625" lon="16.39128192722594"><ele>132.0</ele><time>2026-05-03T15:37:11.699Z</time></trkpt><trkpt lat="38.40373841191023" lon="16.391467366389506"><ele>131.5</ele><time>2026-05-03T15:37:12.699Z</time></trkpt><trkpt lat="38.40370127367517" lon="16.39165290989023"><ele>131.0</ele><time>2026-05-03T15:37:13.699Z</time></trkpt><trkpt lat="38.40366478658616" lon="16.391837489048736"><ele>130.5</ele><time>2026-05-03T15:37:14.699Z</time></trkpt><trkpt lat="38.40362842202713" lon="16.3920214484566"><ele>130.0</ele><time>2026-05-03T15:37:15.699Z</time></trkpt><trkpt lat="38.403591148677684" lon="16.392205348532368"><ele>129.5</ele><time>2026-05-03T15:37:16.699Z</time></trkpt><trkpt lat="38.40355453375502" lon="16.39238586479107"><ele>129.0</ele><time>2026-05-03T15:37:17.699Z</time></trkpt><trkpt lat="38.403517799156326" lon="16.39256697083822"><ele>128.5</ele><time>2026-05-03T15:37:18.699Z</time></trkpt><trkpt lat="38.40348096029315" lon="16.392748590885194"><ele>128.0</ele><time>2026-05-03T15:37:19.699Z</time></trkpt><trkpt lat="38.40344402611012" lon="16.39292864033607"><ele>127.75</ele><time>2026-05-03T15:37:20.699Z</time></trkpt><trkpt lat="38.4034061214905" lon="16.39310958836607"><ele>127.5</ele><time>2026-05-03T15:37:21.699Z</time></trkpt><trkpt lat="38.40336736732914" lon="16.393290393737303"><ele>127.25</ele><time>2026-05-03T15:37:22.699Z</time></trkpt><trkpt lat="38.40332791912391" lon="16.39347057282044"><ele>127.0</ele><time>2026-05-03T15:37:23.699Z</time></trkpt><trkpt lat="38.40328487929051" lon="16.3936496534206"><ele>127.0</ele><time>2026-05-03T15:37:24.699Z</time></trkpt><trkpt lat="38.40324136422554" lon="16.39382822061109"><ele>127.0</ele><time>2026-05-03T15:37:25.699Z</time></trkpt><trkpt lat="38.40320333993426" lon="16.39401160383149"><ele>127.0</ele><time>2026-05-03T15:37:26.699Z</time></trkpt><trkpt lat="38.40318589458809" lon="16.394203871386107"><ele>127.0</ele><time>2026-05-03T15:37:27.699Z</time></trkpt><trkpt lat="38.40317712293023" lon="16.394393338129184"><ele>126.33333333333334</ele><time>2026-05-03T15:37:28.699Z</time></trkpt><trkpt lat="38.403172957849115" lon="16.394588132571858"><ele>125.66666666666666</ele><time>2026-05-03T15:37:29.699Z</time></trkpt><trkpt lat="38.40317005405784" lon="16.3947828594777"><ele>125.0</ele><time>2026-05-03T15:37:30.699Z</time></trkpt><trkpt lat="38.40316713206542" lon="16.394978806786987"><ele>124.66666666666666</ele><time>2026-05-03T15:37:31.699Z</time></trkpt><trkpt lat="38.40316643428582" lon="16.395179863585373"><ele>124.33333333333334</ele><time>2026-05-03T15:37:32.699Z</time></trkpt><trkpt lat="38.40316643428524" lon="16.395381391741864"><ele>124.0</ele><time>2026-05-03T15:37:33.699Z</time></trkpt><trkpt lat="38.40316643428629" lon="16.395587024386547"><ele>123.66666666666667</ele><time>2026-05-03T15:37:34.699Z</time></trkpt><trkpt lat="38.40316708156515" lon="16.39579455044667"><ele>123.33333333333334</ele><time>2026-05-03T15:37:35.699Z</time></trkpt><trkpt lat="38.40317014899371" lon="16.396005598487733"><ele>123.0</ele><time>2026-05-03T15:37:36.699Z</time></trkpt><trkpt lat="38.40317638289487" lon="16.396218061602116"><ele>123.0</ele><time>2026-05-03T15:37:37.699Z</time></trkpt><trkpt lat="38.40318505392576" lon="16.39643527308405"><ele>123.0</ele><time>2026-05-03T15:37:38.699Z</time></trkpt><trkpt lat="38.40319718999989" lon="16.396652618403238"><ele>123.0</ele><time>2026-05-03T15:37:39.699Z</time></trkpt><trkpt lat="38.40321204271579" lon="16.39687301035444"><ele>123.0</ele><time>2026-05-03T15:37:40.699Z</time></trkpt><trkpt lat="38.4032272726186" lon="16.3970937495568"><ele>123.0</ele><time>2026-05-03T15:37:41.699Z</time></trkpt><trkpt lat="38.40324514794575" lon="16.39731660866032"><ele>123.0</ele><time>2026-05-03T15:37:42.699Z</time></trkpt><trkpt lat="38.40326899875832" lon="16.39753656918175"><ele>122.66666666666666</ele><time>2026-05-03T15:37:43.699Z</time></trkpt><trkpt lat="38.40329459851313" lon="16.397760646038616"><ele>122.33333333333333</ele><time>2026-05-03T15:37:44.699Z</time></trkpt><trkpt lat="38.403320768423555" lon="16.397985608711288"><ele>122.0</ele><time>2026-05-03T15:37:45.699Z</time></trkpt><trkpt lat="38.40334803237802" lon="16.398214252161544"><ele>122.0</ele><time>2026-05-03T15:37:46.699Z</time></trkpt><trkpt lat="38.40337784680553" lon="16.39844383726438"><ele>122.0</ele><time>2026-05-03T15:37:47.698Z</time></trkpt><trkpt lat="38.40340800767847" lon="16.39867609016142"><ele>122.0</ele><time>2026-05-03T15:37:48.698Z</time></trkpt><trkpt lat="38.40343591728759" lon="16.398907334533796"><ele>121.33333333333333</ele><time>2026-05-03T15:37:49.698Z</time></trkpt><trkpt lat="38.403463489396486" lon="16.39913732249266"><ele>120.66666666666666</ele><time>2026-05-03T15:37:50.698Z</time></trkpt><trkpt lat="38.40349115540654" lon="16.39936809383671"><ele>120.0</ele><time>2026-05-03T15:37:51.698Z</time></trkpt><trkpt lat="38.40351849538949" lon="16.399596145486584"><ele>119.0</ele><time>2026-05-03T15:37:52.698Z</time></trkpt><trkpt lat="38.4035459668209" lon="16.399820720312945"><ele>118.0</ele><time>2026-05-03T15:37:53.698Z</time></trkpt><trkpt lat="38.40357391568387" lon="16.400041598581222"><ele>117.0</ele><time>2026-05-03T15:37:54.698Z</time></trkpt><trkpt lat="38.40360183386366" lon="16.40026223434278"><ele>117.0</ele><time>2026-05-03T15:37:55.698Z</time></trkpt><trkpt lat="38.4036296145537" lon="16.40048178356043"><ele>117.0</ele><time>2026-05-03T15:37:56.698Z</time></trkpt><trkpt lat="38.403656983586025" lon="16.400701640744135"><ele>117.0</ele><time>2026-05-03T15:37:57.698Z</time></trkpt><trkpt lat="38.40368378730753" lon="16.400918378922242"><ele>117.33333333333334</ele><time>2026-05-03T15:37:58.698Z</time></trkpt><trkpt lat="38.40371046977176" lon="16.40113413643709"><ele>117.66666666666667</ele><time>2026-05-03T15:37:59.698Z</time></trkpt><trkpt lat="38.403736259693225" lon="16.401348944283875"><ele>118.0</ele><time>2026-05-03T15:38:00.698Z</time></trkpt><trkpt lat="38.40376177204128" lon="16.40156287958562"><ele>118.33333333333334</ele><time>2026-05-03T15:38:01.698Z</time></trkpt><trkpt lat="38.40378765702082" lon="16.401775912303464"><ele>118.66666666666666</ele><time>2026-05-03T15:38:02.698Z</time></trkpt><trkpt lat="38.403814747135435" lon="16.40198797019943"><ele>119.0</ele><time>2026-05-03T15:38:03.698Z</time></trkpt><trkpt lat="38.403841885339055" lon="16.402200632304357"><ele>118.0</ele><time>2026-05-03T15:38:04.698Z</time></trkpt><trkpt lat="38.40386707399432" lon="16.402410608943566"><ele>117.0</ele><time>2026-05-03T15:38:05.698Z</time></trkpt><trkpt lat="38.403892447817626" lon="16.40262253260937"><ele>116.0</ele><time>2026-05-03T15:38:06.698Z</time></trkpt><trkpt lat="38.40391796402519" lon="16.402832966699016"><ele>115.66666666666666</ele><time>2026-05-03T15:38:07.698Z</time></trkpt><trkpt lat="38.40394423930363" lon="16.40304204163434"><ele>115.33333333333334</ele><time>2026-05-03T15:38:08.698Z</time></trkpt><trkpt lat="38.40397005967871" lon="16.40325244509334"><ele>115.0</ele><time>2026-05-03T15:38:09.698Z</time></trkpt><trkpt lat="38.40399494515544" lon="16.40346440667849"><ele>115.0</ele><time>2026-05-03T15:38:10.698Z</time></trkpt><trkpt lat="38.40402014574478" lon="16.40367905229834"><ele>115.0</ele><time>2026-05-03T15:38:11.698Z</time></trkpt><trkpt lat="38.40404622524284" lon="16.40389596689491"><ele>115.0</ele><time>2026-05-03T15:38:12.698Z</time></trkpt><trkpt lat="38.40407306772015" lon="16.404114223909172"><ele>115.0</ele><time>2026-05-03T15:38:13.698Z</time></trkpt><trkpt lat="38.40409974514404" lon="16.404331138820016"><ele>115.0</ele><time>2026-05-03T15:38:14.698Z</time></trkpt><trkpt lat="38.404126837247546" lon="16.40455142553372"><ele>115.0</ele><time>2026-05-03T15:38:15.698Z</time></trkpt><trkpt lat="38.40415425518189" lon="16.404774361687288"><ele>114.66666666666667</ele><time>2026-05-03T15:38:16.698Z</time></trkpt><trkpt lat="38.404181423982074" lon="16.4049952719557"><ele>114.33333333333334</ele><time>2026-05-03T15:38:17.698Z</time></trkpt><trkpt lat="38.40420772192883" lon="16.40522246036518"><ele>114.0</ele><time>2026-05-03T15:38:18.698Z</time></trkpt><trkpt lat="38.40423360353542" lon="16.40544891077912"><ele>113.33333333333334</ele><time>2026-05-03T15:38:19.698Z</time></trkpt><trkpt lat="38.404250032350205" lon="16.405675921021228"><ele>112.66666666666667</ele><time>2026-05-03T15:38:20.698Z</time></trkpt><trkpt lat="38.40425609332977" lon="16.405903970013977"><ele>112.0</ele><time>2026-05-03T15:38:21.698Z</time></trkpt><trkpt lat="38.40425324254811" lon="16.406133391859303"><ele>112.0</ele><time>2026-05-03T15:38:22.698Z</time></trkpt><trkpt lat="38.404237938488286" lon="16.4063558005837"><ele>112.0</ele><time>2026-05-03T15:38:23.698Z</time></trkpt><trkpt lat="38.404222104811865" lon="16.406577952636287"><ele>112.0</ele><time>2026-05-03T15:38:24.696Z</time></trkpt><trkpt lat="38.40420170878161" lon="16.40679790058227"><ele>112.0</ele><time>2026-05-03T15:38:25.697Z</time></trkpt><trkpt lat="38.40418286999496" lon="16.40701834831148"><ele>112.0</ele><time>2026-05-03T15:38:26.697Z</time></trkpt><trkpt lat="38.4041658729695" lon="16.407236382107982"><ele>112.0</ele><time>2026-05-03T15:38:27.697Z</time></trkpt><trkpt lat="38.40414851868823" lon="16.407452252445907"><ele>112.33333333333334</ele><time>2026-05-03T15:38:28.696Z</time></trkpt><trkpt lat="38.40412891759112" lon="16.407669864529918"><ele>112.66666666666666</ele><time>2026-05-03T15:38:29.696Z</time></trkpt><trkpt lat="38.4041098618576" lon="16.4078814220849"><ele>113.0</ele><time>2026-05-03T15:38:30.696Z</time></trkpt><trkpt lat="38.40409272557404" lon="16.4080856858607"><ele>112.33333333333333</ele><time>2026-05-03T15:38:31.697Z</time></trkpt><trkpt lat="38.404075997048864" lon="16.408285409121955"><ele>111.66666666666666</ele><time>2026-05-03T15:38:32.697Z</time></trkpt><trkpt lat="38.40405935427039" lon="16.408483908940433"><ele>111.0</ele><time>2026-05-03T15:38:33.697Z</time></trkpt><trkpt lat="38.404042911873056" lon="16.40868041653013"><ele>111.0</ele><time>2026-05-03T15:38:34.697Z</time></trkpt><trkpt lat="38.404026971861605" lon="16.408870920024512"><ele>111.0</ele><time>2026-05-03T15:38:35.764Z</time></trkpt><trkpt lat="38.404011425377284" lon="16.40906100423302"><ele>111.0</ele><time>2026-05-03T15:38:36.764Z</time></trkpt><trkpt lat="38.403996410178394" lon="16.409247156194507"><ele>111.0</ele><time>2026-05-03T15:38:37.763Z</time></trkpt><trkpt lat="38.40398171383768" lon="16.409429354823338"><ele>111.0</ele><time>2026-05-03T15:38:38.764Z</time></trkpt><trkpt lat="38.40396532498736" lon="16.409606093129554"><ele>111.0</ele><time>2026-05-03T15:38:39.764Z</time></trkpt><trkpt lat="38.403949087413416" lon="16.40977821142709"><ele>111.0</ele><time>2026-05-03T15:38:40.764Z</time></trkpt><trkpt lat="38.403932861157244" lon="16.409950209758573"><ele>111.0</ele><time>2026-05-03T15:38:41.764Z</time></trkpt><trkpt lat="38.4039187554589" lon="16.410117953802892"><ele>112.0</ele><time>2026-05-03T15:38:42.764Z</time></trkpt><trkpt lat="38.4039052803413" lon="16.41028589984132"><ele>113.0</ele><time>2026-05-03T15:38:43.764Z</time></trkpt><trkpt lat="38.40389213988434" lon="16.410449674786282"><ele>114.0</ele><time>2026-05-03T15:38:44.764Z</time></trkpt><trkpt lat="38.40387711428461" lon="16.41060601225065"><ele>115.0</ele><time>2026-05-03T15:38:45.764Z</time></trkpt><trkpt lat="38.40386131598004" lon="16.41075607021666"><ele>113.6</ele><time>2026-05-03T15:38:46.764Z</time></trkpt><trkpt lat="38.40384937107592" lon="16.41089026336255"><ele>112.2</ele><time>2026-05-03T15:38:47.764Z</time></trkpt><trkpt lat="38.40380248591681" lon="16.411002435631605"><ele>110.80000000000001</ele><time>2026-05-03T15:38:48.765Z</time></trkpt><trkpt lat="38.40374163641816" lon="16.41109871251559"><ele>109.4</ele><time>2026-05-03T15:38:49.765Z</time></trkpt><trkpt lat="38.40367761666388" lon="16.41118746469134"><ele>108.0</ele><time>2026-05-03T15:38:50.765Z</time></trkpt><trkpt lat="38.403610801054185" lon="16.41127426972646"><ele>109.80000000000001</ele><time>2026-05-03T15:38:51.765Z</time></trkpt><trkpt lat="38.4035279657334" lon="16.411347102640804"><ele>111.60000000000001</ele><time>2026-05-03T15:38:52.765Z</time></trkpt><trkpt lat="38.4034352461015" lon="16.41138128020068"><ele>113.39999999999999</ele><time>2026-05-03T15:38:53.765Z</time></trkpt><trkpt lat="38.403341826151" lon="16.41139842297349"><ele>115.19999999999999</ele><time>2026-05-03T15:38:54.765Z</time></trkpt><trkpt lat="38.40325314045693" lon="16.411405556291275"><ele>117.0</ele><time>2026-05-03T15:38:55.765Z</time></trkpt><trkpt lat="38.403171099718996" lon="16.411387243039087"><ele>117.0</ele><time>2026-05-03T15:38:56.765Z</time></trkpt><trkpt lat="38.403109109700665" lon="16.411344547443147"><ele>117.0</ele><time>2026-05-03T15:38:57.765Z</time></trkpt><trkpt lat="38.403064898235385" lon="16.411263197733064"><ele>117.0</ele><time>2026-05-03T15:38:58.765Z</time></trkpt><trkpt lat="38.4030215538222" lon="16.411185254283765"><ele>117.0</ele><time>2026-05-03T15:38:59.765Z</time></trkpt><trkpt lat="38.402973901505746" lon="16.411114831306985"><ele>117.0</ele><time>2026-05-03T15:39:00.765Z</time></trkpt><trkpt lat="38.402908093132474" lon="16.411052534355935"><ele>117.0</ele><time>2026-05-03T15:39:01.765Z</time></trkpt><trkpt lat="38.402835029350356" lon="16.411000940402094"><ele>115.8</ele><time>2026-05-03T15:39:02.765Z</time></trkpt><trkpt lat="38.402751468942945" lon="16.410953283207732"><ele>114.6</ele><time>2026-05-03T15:39:03.765Z</time></trkpt><trkpt lat="38.402663613391134" lon="16.41090677472566"><ele>113.39999999999999</ele><time>2026-05-03T15:39:04.765Z</time></trkpt><trkpt lat="38.402571632739104" lon="16.41086126966099"><ele>112.19999999999999</ele><time>2026-05-03T15:39:05.765Z</time></trkpt><trkpt lat="38.402479291262004" lon="16.410811416692198"><ele>111.0</ele><time>2026-05-03T15:39:06.765Z</time></trkpt><trkpt lat="38.402382743721574" lon="16.410750840027667"><ele>111.0</ele><time>2026-05-03T15:39:07.765Z</time></trkpt><trkpt lat="38.40228718303508" lon="16.41068985503297"><ele>111.0</ele><time>2026-05-03T15:39:08.765Z</time></trkpt><trkpt lat="38.40219430267681" lon="16.41061768472872"><ele>111.0</ele><time>2026-05-03T15:39:09.765Z</time></trkpt><trkpt lat="38.40209980396659" lon="16.41054637744576"><ele>111.0</ele><time>2026-05-03T15:39:10.765Z</time></trkpt><trkpt lat="38.40200488143485" lon="16.410475849183285"><ele>111.0</ele><time>2026-05-03T15:39:11.765Z</time></trkpt><trkpt lat="38.401907365073804" lon="16.410416543703253"><ele>115.0</ele><time>2026-05-03T15:39:12.765Z</time></trkpt><trkpt lat="38.401806467719396" lon="16.410369024205018"><ele>119.0</ele><time>2026-05-03T15:39:13.765Z</time></trkpt><trkpt lat="38.40170697743539" lon="16.410339760202046"><ele>123.0</ele><time>2026-05-03T15:39:14.765Z</time></trkpt><trkpt lat="38.40161161343278" lon="16.41031035679584"><ele>127.0</ele><time>2026-05-03T15:39:15.765Z</time></trkpt><trkpt lat="38.401516357694284" lon="16.41028779306352"><ele>131.0</ele><time>2026-05-03T15:39:16.765Z</time></trkpt><trkpt lat="38.40142576473034" lon="16.41028058517971"><ele>131.0</ele><time>2026-05-03T15:39:17.765Z</time></trkpt><trkpt lat="38.401342396268326" lon="16.41031288383668"><ele>131.0</ele><time>2026-05-03T15:39:18.765Z</time></trkpt><trkpt lat="38.40127556152994" lon="16.41036552604717"><ele>131.0</ele><time>2026-05-03T15:39:19.765Z</time></trkpt><trkpt lat="38.40122087306416" lon="16.410443089571363"><ele>131.0</ele><time>2026-05-03T15:39:20.765Z</time></trkpt><trkpt lat="38.40117349311444" lon="16.410534944593024"><ele>131.0</ele><time>2026-05-03T15:39:21.765Z</time></trkpt><trkpt lat="38.401134951781756" lon="16.410637467204996"><ele>131.0</ele><time>2026-05-03T15:39:22.765Z</time></trkpt><trkpt lat="38.40110290400239" lon="16.41075351460918"><ele>130.6</ele><time>2026-05-03T15:39:23.765Z</time></trkpt><trkpt lat="38.4010793705221" lon="16.41088276319394"><ele>130.2</ele><time>2026-05-03T15:39:24.765Z</time></trkpt><trkpt lat="38.40106554963538" lon="16.411012171043954"><ele>129.8</ele><time>2026-05-03T15:39:25.765Z</time></trkpt><trkpt lat="38.40105001721229" lon="16.411134453294682"><ele>129.4</ele><time>2026-05-03T15:39:26.765Z</time></trkpt><trkpt lat="38.4010311665746" lon="16.411252284133187"><ele>129.0</ele><time>2026-05-03T15:39:27.765Z</time></trkpt><trkpt lat="38.40099640450958" lon="16.411374962509964"><ele>125.0</ele><time>2026-05-03T15:39:28.765Z</time></trkpt><trkpt lat="38.40094656929293" lon="16.411485153583026"><ele>121.0</ele><time>2026-05-03T15:39:29.765Z</time></trkpt><trkpt lat="38.400889253958724" lon="16.411597135303182"><ele>117.0</ele><time>2026-05-03T15:39:30.765Z</time></trkpt><trkpt lat="38.40081712934938" lon="16.411687824137427"><ele>113.0</ele><time>2026-05-03T15:39:31.765Z</time></trkpt><trkpt lat="38.400747511275725" lon="16.41176361220846"><ele>109.0</ele><time>2026-05-03T15:39:32.765Z</time></trkpt><trkpt lat="38.40068315912474" lon="16.411834317366054"><ele>109.00000000000001</ele><time>2026-05-03T15:39:33.765Z</time></trkpt><trkpt lat="38.400619593294664" lon="16.41189498708533"><ele>109.0</ele><time>2026-05-03T15:39:34.765Z</time></trkpt><trkpt lat="38.4005647070259" lon="16.411949730059852"><ele>109.0</ele><time>2026-05-03T15:39:35.765Z</time></trkpt><trkpt lat="38.400515445309296" lon="16.412013501109552"><ele>109.0</ele><time>2026-05-03T15:39:36.765Z</time></trkpt><trkpt lat="38.400451181060504" lon="16.412065850816017"><ele>109.00000000000001</ele><time>2026-05-03T15:39:37.765Z</time></trkpt><trkpt lat="38.40040573938667" lon="16.41214348526243"><ele>109.0</ele><time>2026-05-03T15:39:38.765Z</time></trkpt><trkpt lat="38.40037320826723" lon="16.41224259957519"><ele>113.33333333333334</ele><time>2026-05-03T15:39:39.765Z</time></trkpt><trkpt lat="38.40036049608265" lon="16.412351849296424"><ele>117.66666666666667</ele><time>2026-05-03T15:39:40.765Z</time></trkpt><trkpt lat="38.40035561850442" lon="16.412459778483758"><ele>122.0</ele><time>2026-05-03T15:39:41.765Z</time></trkpt><trkpt lat="38.40034526771522" lon="16.412566856310978"><ele>126.33333333333334</ele><time>2026-05-03T15:39:42.765Z</time></trkpt><trkpt lat="38.40033088780702" lon="16.41267663863657"><ele>130.66666666666666</ele><time>2026-05-03T15:39:43.765Z</time></trkpt><trkpt lat="38.40031145685268" lon="16.41279746621207"><ele>135.0</ele><time>2026-05-03T15:39:44.765Z</time></trkpt><trkpt lat="38.400297391892124" lon="16.41292142350662"><ele>131.2</ele><time>2026-05-03T15:39:45.765Z</time></trkpt><trkpt lat="38.400292072890856" lon="16.413046195236763"><ele>127.4</ele><time>2026-05-03T15:39:46.765Z</time></trkpt><trkpt lat="38.400286625594546" lon="16.413163455762604"><ele>123.6</ele><time>2026-05-03T15:39:47.765Z</time></trkpt><trkpt lat="38.40028328832565" lon="16.413281995609076"><ele>119.8</ele><time>2026-05-03T15:39:48.765Z</time></trkpt><trkpt lat="38.40021925562828" lon="16.413365800444858"><ele>116.0</ele><time>2026-05-03T15:39:49.765Z</time></trkpt><trkpt lat="38.40015141152609" lon="16.413436404401722"><ele>116.0</ele><time>2026-05-03T15:39:50.765Z</time></trkpt><trkpt lat="38.400083087539805" lon="16.41351444293776"><ele>116.0</ele><time>2026-05-03T15:39:51.765Z</time></trkpt><trkpt lat="38.40001018037104" lon="16.413597476479232"><ele>116.0</ele><time>2026-05-03T15:39:52.765Z</time></trkpt><trkpt lat="38.399936292856694" lon="16.413680631894096"><ele>116.0</ele><time>2026-05-03T15:39:53.765Z</time></trkpt><trkpt lat="38.3998625642356" lon="16.413756168854597"><ele>116.0</ele><time>2026-05-03T15:39:54.765Z</time></trkpt><trkpt lat="38.399798324810966" lon="16.413820341730663"><ele>115.99999999999999</ele><time>2026-05-03T15:39:55.765Z</time></trkpt><trkpt lat="38.39973010727067" lon="16.41380753008328"><ele>116.0</ele><time>2026-05-03T15:39:56.765Z</time></trkpt><trkpt lat="38.39967403925667" lon="16.41374884534019"><ele>116.0</ele><time>2026-05-03T15:39:57.765Z</time></trkpt><trkpt lat="38.39962751317808" lon="16.413667238419496"><ele>116.0</ele><time>2026-05-03T15:39:58.765Z</time></trkpt><trkpt lat="38.39956995696454" lon="16.413577059656628"><ele>115.99999999999999</ele><time>2026-05-03T15:39:59.765Z</time></trkpt><trkpt lat="38.3995104758312" lon="16.413489804129263"><ele>116.0</ele><time>2026-05-03T15:40:00.765Z</time></trkpt><trkpt lat="38.399452608630675" lon="16.41339210220752"><ele>114.19999999999999</ele><time>2026-05-03T15:40:01.765Z</time></trkpt><trkpt lat="38.39938569340984" lon="16.4132951313977"><ele>112.39999999999999</ele><time>2026-05-03T15:40:02.765Z</time></trkpt><trkpt lat="38.39931046244074" lon="16.413211578443512"><ele>110.6</ele><time>2026-05-03T15:40:03.765Z</time></trkpt><trkpt lat="38.39921877869937" lon="16.41315724473531"><ele>108.8</ele><time>2026-05-03T15:40:04.765Z</time></trkpt><trkpt lat="38.39911950814756" lon="16.4131119471903"><ele>107.0</ele><time>2026-05-03T15:40:05.765Z</time></trkpt><trkpt lat="38.3990186007885" lon="16.41306603184281"><ele>107.0</ele><time>2026-05-03T15:40:06.765Z</time></trkpt><trkpt lat="38.398913717856814" lon="16.41301853889401"><ele>107.0</ele><time>2026-05-03T15:40:07.765Z</time></trkpt><trkpt lat="38.39880417149965" lon="16.412967099187295"><ele>107.0</ele><time>2026-05-03T15:40:08.765Z</time></trkpt><trkpt lat="38.39869391335922" lon="16.41291827076386"><ele>107.0</ele><time>2026-05-03T15:40:09.765Z</time></trkpt><trkpt lat="38.39857742990283" lon="16.41286693273841"><ele>110.0</ele><time>2026-05-03T15:40:10.765Z</time></trkpt><trkpt lat="38.39845736719708" lon="16.412823396215252"><ele>113.0</ele><time>2026-05-03T15:40:11.765Z</time></trkpt><trkpt lat="38.3983411881805" lon="16.4127682814375"><ele>116.0</ele><time>2026-05-03T15:40:12.765Z</time></trkpt><trkpt lat="38.398220445165215" lon="16.412740498760638"><ele>119.0</ele><time>2026-05-03T15:40:13.765Z</time></trkpt><trkpt lat="38.39810028831987" lon="16.41272110417733"><ele>122.6</ele><time>2026-05-03T15:40:14.765Z</time></trkpt><trkpt lat="38.39798787048759" lon="16.412705525357563"><ele>126.2</ele><time>2026-05-03T15:40:15.765Z</time></trkpt><trkpt lat="38.397877556066376" lon="16.412691913818218"><ele>129.79999999999998</ele><time>2026-05-03T15:40:16.765Z</time></trkpt><trkpt lat="38.39777018922095" lon="16.412679943581555"><ele>133.4</ele><time>2026-05-03T15:40:17.765Z</time></trkpt><trkpt lat="38.39766107974414" lon="16.41269258680404"><ele>137.0</ele><time>2026-05-03T15:40:18.765Z</time></trkpt><trkpt lat="38.397556180736814" lon="16.412684574053056"><ele>137.0</ele><time>2026-05-03T15:40:19.765Z</time></trkpt><trkpt lat="38.39745546927042" lon="16.412684208290152"><ele>137.0</ele><time>2026-05-03T15:40:20.765Z</time></trkpt><trkpt lat="38.39736426367283" lon="16.412689366723757"><ele>137.0</ele><time>2026-05-03T15:40:21.765Z</time></trkpt><trkpt lat="38.397278229605476" lon="16.412691379350054"><ele>137.0</ele><time>2026-05-03T15:40:22.765Z</time></trkpt><trkpt lat="38.39721042286538" lon="16.412752929602764"><ele>137.0</ele><time>2026-05-03T15:40:23.765Z</time></trkpt><trkpt lat="38.39716939164834" lon="16.41285651100824"><ele>139.4</ele><time>2026-05-03T15:40:24.765Z</time></trkpt><trkpt lat="38.39716635855807" lon="16.412982788973054"><ele>141.79999999999998</ele><time>2026-05-03T15:40:25.765Z</time></trkpt><trkpt lat="38.397202917827855" lon="16.413090249265647"><ele>144.2</ele><time>2026-05-03T15:40:26.765Z</time></trkpt><trkpt lat="38.397229343191015" lon="16.41319452908336"><ele>146.6</ele><time>2026-05-03T15:40:27.765Z</time></trkpt><trkpt lat="38.39724718610504" lon="16.413289779042735"><ele>149.0</ele><time>2026-05-03T15:40:28.764Z</time></trkpt><trkpt lat="38.397200173474644" lon="16.413425526240637"><ele>146.33333333333331</ele><time>2026-05-03T15:40:30.764Z</time></trkpt><trkpt lat="38.39715012640643" lon="16.41348155575635"><ele>143.66666666666666</ele><time>2026-05-03T15:40:31.764Z</time></trkpt><trkpt lat="38.39708411368302" lon="16.41355575067084"><ele>141.0</ele><time>2026-05-03T15:40:32.764Z</time></trkpt><trkpt lat="38.397012965264146" lon="16.41363519700291"><ele>138.33333333333334</ele><time>2026-05-03T15:40:33.764Z</time></trkpt><trkpt lat="38.396940341845635" lon="16.413723125710753"><ele>135.66666666666669</ele><time>2026-05-03T15:40:34.764Z</time></trkpt><trkpt lat="38.39688033840534" lon="16.413814113006634"><ele>133.0</ele><time>2026-05-03T15:40:35.764Z</time></trkpt><trkpt lat="38.39683714609564" lon="16.413921966105963"><ele>130.6</ele><time>2026-05-03T15:40:36.764Z</time></trkpt><trkpt lat="38.39682372846847" lon="16.414049243377267"><ele>128.20000000000002</ele><time>2026-05-03T15:40:37.765Z</time></trkpt><trkpt lat="38.39682381045984" lon="16.41416959123128"><ele>125.8</ele><time>2026-05-03T15:40:38.765Z</time></trkpt><trkpt lat="38.39683293413416" lon="16.41429029607681"><ele>123.4</ele><time>2026-05-03T15:40:39.764Z</time></trkpt><trkpt lat="38.396848923002764" lon="16.414413228036874"><ele>121.0</ele><time>2026-05-03T15:40:40.764Z</time></trkpt><trkpt lat="38.39685898740036" lon="16.41453531483892"><ele>118.0</ele><time>2026-05-03T15:40:41.764Z</time></trkpt><trkpt lat="38.39685256931934" lon="16.414661773528316"><ele>115.0</ele><time>2026-05-03T15:40:42.764Z</time></trkpt><trkpt lat="38.39681684098543" lon="16.414777931102424"><ele>112.0</ele><time>2026-05-03T15:40:43.764Z</time></trkpt><trkpt lat="38.39677194539287" lon="16.414900547827223"><ele>109.0</ele><time>2026-05-03T15:40:44.764Z</time></trkpt><trkpt lat="38.39674397381127" lon="16.415035037643438"><ele>106.0</ele><time>2026-05-03T15:40:45.764Z</time></trkpt><trkpt lat="38.396734580487156" lon="16.415156655975384"><ele>106.00000000000001</ele><time>2026-05-03T15:40:46.764Z</time></trkpt><trkpt lat="38.39667990493145" lon="16.415247401699663"><ele>106.0</ele><time>2026-05-03T15:40:47.764Z</time></trkpt><trkpt lat="38.39660636061887" lon="16.415287978348456"><ele>106.0</ele><time>2026-05-03T15:40:48.764Z</time></trkpt><trkpt lat="38.396526642453125" lon="16.415272628962608"><ele>106.0</ele><time>2026-05-03T15:40:49.764Z</time></trkpt><trkpt lat="38.39644729220444" lon="16.415224879124395"><ele>106.00000000000001</ele><time>2026-05-03T15:40:50.764Z</time></trkpt><trkpt lat="38.396365357274455" lon="16.415192727001127"><ele>106.0</ele><time>2026-05-03T15:40:51.764Z</time></trkpt><trkpt lat="38.39628013696406" lon="16.41518496111554"><ele>107.00000000000001</ele><time>2026-05-03T15:40:52.764Z</time></trkpt><trkpt lat="38.3961912306921" lon="16.415197757769725"><ele>108.0</ele><time>2026-05-03T15:40:53.764Z</time></trkpt><trkpt lat="38.39609344416491" lon="16.415241441102395"><ele>109.0</ele><time>2026-05-03T15:40:54.764Z</time></trkpt><trkpt lat="38.39600889160161" lon="16.415269210853445"><ele>110.0</ele><time>2026-05-03T15:40:55.764Z</time></trkpt><trkpt lat="38.39592764977279" lon="16.415284027458824"><ele>111.00000000000001</ele><time>2026-05-03T15:40:56.764Z</time></trkpt><trkpt lat="38.395843466001295" lon="16.415276398591196"><ele>112.0</ele><time>2026-05-03T15:40:57.764Z</time></trkpt><trkpt lat="38.39576309508685" lon="16.415244150281143"><ele>112.0</ele><time>2026-05-03T15:40:58.764Z</time></trkpt><trkpt lat="38.39568946043314" lon="16.415187920382923"><ele>111.99999999999999</ele><time>2026-05-03T15:40:59.764Z</time></trkpt><trkpt lat="38.39562295411573" lon="16.41511476602816"><ele>111.99999999999999</ele><time>2026-05-03T15:41:00.764Z</time></trkpt><trkpt lat="38.39555674556327" lon="16.41503108336548"><ele>112.0</ele><time>2026-05-03T15:41:01.764Z</time></trkpt><trkpt lat="38.39549852822213" lon="16.414937512285803"><ele>112.0</ele><time>2026-05-03T15:41:02.764Z</time></trkpt><trkpt lat="38.395441536519094" lon="16.414839605110828"><ele>110.5</ele><time>2026-05-03T15:41:03.764Z</time></trkpt><trkpt lat="38.39538295772113" lon="16.41472377508768"><ele>109.0</ele><time>2026-05-03T15:41:04.764Z</time></trkpt><trkpt lat="38.39532213576706" lon="16.414603543277536"><ele>107.5</ele><time>2026-05-03T15:41:05.764Z</time></trkpt><trkpt lat="38.39525004766008" lon="16.414489443664614"><ele>106.0</ele><time>2026-05-03T15:41:06.764Z</time></trkpt><trkpt lat="38.39516651992201" lon="16.414383416983426"><ele>106.0</ele><time>2026-05-03T15:41:07.764Z</time></trkpt><trkpt lat="38.39507562547966" lon="16.41428169404195"><ele>106.0</ele><time>2026-05-03T15:41:08.763Z</time></trkpt><trkpt lat="38.39497760973473" lon="16.414180075222237"><ele>106.0</ele><time>2026-05-03T15:41:09.763Z</time></trkpt><trkpt lat="38.394881928572985" lon="16.414082296156995"><ele>106.0</ele><time>2026-05-03T15:41:10.763Z</time></trkpt><trkpt lat="38.39478907388195" lon="16.413985106040087"><ele>106.0</ele><time>2026-05-03T15:41:11.763Z</time></trkpt><trkpt lat="38.394697594325336" lon="16.413891096774794"><ele>106.0</ele><time>2026-05-03T15:41:12.763Z</time></trkpt><trkpt lat="38.39459827269584" lon="16.41380820588338"><ele>106.0</ele><time>2026-05-03T15:41:13.763Z</time></trkpt><trkpt lat="38.39448791013241" lon="16.413750803016992"><ele>106.0</ele><time>2026-05-03T15:41:14.763Z</time></trkpt><trkpt lat="38.394369971904474" lon="16.4137118267903"><ele>106.5</ele><time>2026-05-03T15:41:15.763Z</time></trkpt><trkpt lat="38.39423902587695" lon="16.413704955571955"><ele>107.0</ele><time>2026-05-03T15:41:16.763Z</time></trkpt><trkpt lat="38.39410808843939" lon="16.413690751941388"><ele>107.5</ele><time>2026-05-03T15:41:17.763Z</time></trkpt><trkpt lat="38.39397741681313" lon="16.41367429593793"><ele>108.0</ele><time>2026-05-03T15:41:18.763Z</time></trkpt><trkpt lat="38.39384488927507" lon="16.413662855431614"><ele>107.0</ele><time>2026-05-03T15:41:19.763Z</time></trkpt><trkpt lat="38.393712175178905" lon="16.41365648379703"><ele>106.0</ele><time>2026-05-03T15:41:20.763Z</time></trkpt><trkpt lat="38.39357800307852" lon="16.413644120156196"><ele>105.0</ele><time>2026-05-03T15:41:21.763Z</time></trkpt><trkpt lat="38.39343911064473" lon="16.413632032050224"><ele>104.0</ele><time>2026-05-03T15:41:22.763Z</time></trkpt><trkpt lat="38.39330173549637" lon="16.41362090697746"><ele>104.0</ele><time>2026-05-03T15:41:23.763Z</time></trkpt><trkpt lat="38.3931630165231" lon="16.413606450015532"><ele>104.0</ele><time>2026-05-03T15:41:24.763Z</time></trkpt><trkpt lat="38.39302270939689" lon="16.413595402816192"><ele>104.0</ele><time>2026-05-03T15:41:25.763Z</time></trkpt><trkpt lat="38.39288380924553" lon="16.413578942823126"><ele>104.0</ele><time>2026-05-03T15:41:26.763Z</time></trkpt><trkpt lat="38.392744597630276" lon="16.413565546198896"><ele>104.25</ele><time>2026-05-03T15:41:27.763Z</time></trkpt><trkpt lat="38.39260253533309" lon="16.413552307903593"><ele>104.5</ele><time>2026-05-03T15:41:28.763Z</time></trkpt><trkpt lat="38.39246373827013" lon="16.413539774884327"><ele>104.75</ele><time>2026-05-03T15:41:29.763Z</time></trkpt><trkpt lat="38.392325837047416" lon="16.413525618242694"><ele>105.0</ele><time>2026-05-03T15:41:30.763Z</time></trkpt><trkpt lat="38.3921889331894" lon="16.413512058261652"><ele>104.5</ele><time>2026-05-03T15:41:31.763Z</time></trkpt><trkpt lat="38.392054188082604" lon="16.41349712127058"><ele>104.0</ele><time>2026-05-03T15:41:32.763Z</time></trkpt><trkpt lat="38.391919383518704" lon="16.413485132392744"><ele>103.5</ele><time>2026-05-03T15:41:33.763Z</time></trkpt><trkpt lat="38.391785955940726" lon="16.413473959575175"><ele>103.0</ele><time>2026-05-03T15:41:34.763Z</time></trkpt><trkpt lat="38.39165443613227" lon="16.413461762243543"><ele>103.0</ele><time>2026-05-03T15:41:35.763Z</time></trkpt><trkpt lat="38.39152357909466" lon="16.413450967267632"><ele>103.0</ele><time>2026-05-03T15:41:36.763Z</time></trkpt><trkpt lat="38.39139331989964" lon="16.413440234670063"><ele>103.0</ele><time>2026-05-03T15:41:37.763Z</time></trkpt><trkpt lat="38.391262292677474" lon="16.413427980455648"><ele>103.0</ele><time>2026-05-03T15:41:38.763Z</time></trkpt><trkpt lat="38.39113480055281" lon="16.413415897206544"><ele>103.5</ele><time>2026-05-03T15:41:39.763Z</time></trkpt><trkpt lat="38.391005783574656" lon="16.413400950847656"><ele>104.0</ele><time>2026-05-03T15:41:40.763Z</time></trkpt><trkpt lat="38.39087953626478" lon="16.413386426605072"><ele>104.5</ele><time>2026-05-03T15:41:41.763Z</time></trkpt><trkpt lat="38.390755939816835" lon="16.41337301740648"><ele>105.0</ele><time>2026-05-03T15:41:42.763Z</time></trkpt><trkpt lat="38.39063084484684" lon="16.413359717285058"><ele>105.75</ele><time>2026-05-03T15:41:43.763Z</time></trkpt><trkpt lat="38.39050555386784" lon="16.413347199499295"><ele>106.5</ele><time>2026-05-03T15:41:44.763Z</time></trkpt><trkpt lat="38.39038374551226" lon="16.413335372732067"><ele>107.25</ele><time>2026-05-03T15:41:45.763Z</time></trkpt><trkpt lat="38.39027101289074" lon="16.413334695496605"><ele>108.0</ele><time>2026-05-03T15:41:46.763Z</time></trkpt><trkpt lat="38.390156699035956" lon="16.41333327165585"><ele>108.0</ele><time>2026-05-03T15:41:47.763Z</time></trkpt><trkpt lat="38.390049854093384" lon="16.413378353958244"><ele>108.00000000000001</ele><time>2026-05-03T15:41:48.763Z</time></trkpt><trkpt lat="38.3899615390783" lon="16.413455061753922"><ele>108.00000000000001</ele><time>2026-05-03T15:41:49.763Z</time></trkpt><trkpt lat="38.38988468528563" lon="16.4135307197424"><ele>108.0</ele><time>2026-05-03T15:41:50.763Z</time></trkpt><trkpt lat="38.389813855655106" lon="16.413604627990935"><ele>108.0</ele><time>2026-05-03T15:41:51.763Z</time></trkpt><trkpt lat="38.38974823834005" lon="16.413680932951404"><ele>108.0</ele><time>2026-05-03T15:41:52.763Z</time></trkpt><trkpt lat="38.38969294014495" lon="16.413774364535662"><ele>108.00000000000001</ele><time>2026-05-03T15:41:53.763Z</time></trkpt><trkpt lat="38.38966501711878" lon="16.413888180501793"><ele>108.00000000000001</ele><time>2026-05-03T15:41:54.763Z</time></trkpt><trkpt lat="38.389674399689426" lon="16.414015683767534"><ele>108.0</ele><time>2026-05-03T15:41:55.763Z</time></trkpt><trkpt lat="38.38973369921823" lon="16.41413168443696"><ele>108.0</ele><time>2026-05-03T15:41:56.763Z</time></trkpt><trkpt lat="38.38979512383777" lon="16.41422373500879"><ele>108.4</ele><time>2026-05-03T15:41:57.763Z</time></trkpt><trkpt lat="38.38986363678252" lon="16.414300027549523"><ele>108.80000000000001</ele><time>2026-05-03T15:41:58.763Z</time></trkpt><trkpt lat="38.38992783750403" lon="16.414383194401193"><ele>109.2</ele><time>2026-05-03T15:41:59.763Z</time></trkpt><trkpt lat="38.389991128300714" lon="16.41447174024772"><ele>109.6</ele><time>2026-05-03T15:42:00.763Z</time></trkpt><trkpt lat="38.390044436483976" lon="16.41457412958659"><ele>110.0</ele><time>2026-05-03T15:42:01.763Z</time></trkpt><trkpt lat="38.39009483232654" lon="16.414688485724675"><ele>111.2</ele><time>2026-05-03T15:42:02.763Z</time></trkpt><trkpt lat="38.39010879613865" lon="16.414817567159595"><ele>112.4</ele><time>2026-05-03T15:42:03.763Z</time></trkpt><trkpt lat="38.390100889279736" lon="16.414944776350605"><ele>113.6</ele><time>2026-05-03T15:42:04.763Z</time></trkpt><trkpt lat="38.390062466783064" lon="16.41506534638807"><ele>114.8</ele><time>2026-05-03T15:42:05.763Z</time></trkpt><trkpt lat="38.39000903348827" lon="16.415176149592735"><ele>116.0</ele><time>2026-05-03T15:42:06.763Z</time></trkpt><trkpt lat="38.38994156223672" lon="16.41527499969033"><ele>116.0</ele><time>2026-05-03T15:42:07.763Z</time></trkpt><trkpt lat="38.38987092418368" lon="16.415367316086677"><ele>116.0</ele><time>2026-05-03T15:42:08.763Z</time></trkpt><trkpt lat="38.389795404092794" lon="16.41545119708853"><ele>116.0</ele><time>2026-05-03T15:42:09.763Z</time></trkpt><trkpt lat="38.38972084923854" lon="16.415537559496446"><ele>116.0</ele><time>2026-05-03T15:42:10.763Z</time></trkpt><trkpt lat="38.38964775512099" lon="16.41562888895079"><ele>116.0</ele><time>2026-05-03T15:42:11.763Z</time></trkpt><trkpt lat="38.389580394848466" lon="16.415713411209424"><ele>116.49999999999999</ele><time>2026-05-03T15:42:12.763Z</time></trkpt><trkpt lat="38.38951211093196" lon="16.41578259303257"><ele>117.0</ele><time>2026-05-03T15:42:13.763Z</time></trkpt><trkpt lat="38.389440721114156" lon="16.415826198512935"><ele>117.5</ele><time>2026-05-03T15:42:14.763Z</time></trkpt><trkpt lat="38.389361120504596" lon="16.415837567013103"><ele>118.0</ele><time>2026-05-03T15:42:15.763Z</time></trkpt><trkpt lat="38.389290827753605" lon="16.415800116785515"><ele>118.49999999999999</ele><time>2026-05-03T15:42:16.763Z</time></trkpt><trkpt lat="38.38925546131345" lon="16.415724568615413"><ele>119.0</ele><time>2026-05-03T15:42:17.763Z</time></trkpt><trkpt lat="38.389244345225784" lon="16.41563197729491"><ele>118.99999999999999</ele><time>2026-05-03T15:42:18.763Z</time></trkpt><trkpt lat="38.389266726120184" lon="16.415542372040754"><ele>119.0</ele><time>2026-05-03T15:42:19.763Z</time></trkpt><trkpt lat="38.38931831613848" lon="16.415479289076693"><ele>119.0</ele><time>2026-05-03T15:42:20.763Z</time></trkpt><trkpt lat="38.389367767862495" lon="16.415415131629253"><ele>119.0</ele><time>2026-05-03T15:42:21.763Z</time></trkpt><trkpt lat="38.38941738920355" lon="16.415342872415057"><ele>118.99999999999999</ele><time>2026-05-03T15:42:22.763Z</time></trkpt><trkpt lat="38.389470383681356" lon="16.415262456447532"><ele>119.0</ele><time>2026-05-03T15:42:23.763Z</time></trkpt><trkpt lat="38.389525458744295" lon="16.415182324168796"><ele>120.66666666666666</ele><time>2026-05-03T15:42:24.763Z</time></trkpt><trkpt lat="38.389571130912266" lon="16.415095154183405"><ele>122.33333333333333</ele><time>2026-05-03T15:42:25.763Z</time></trkpt><trkpt lat="38.38958992701679" lon="16.414994817434856"><ele>124.0</ele><time>2026-05-03T15:42:26.763Z</time></trkpt><trkpt lat="38.38958176626032" lon="16.4148964588611"><ele>125.66666666666666</ele><time>2026-05-03T15:42:27.763Z</time></trkpt><trkpt lat="38.38953541400785" lon="16.414821031082692"><ele>127.33333333333333</ele><time>2026-05-03T15:42:28.763Z</time></trkpt><trkpt lat="38.38946583362219" lon="16.41478484431995"><ele>129.0</ele><time>2026-05-03T15:42:29.763Z</time></trkpt><trkpt lat="38.38939368841177" lon="16.414796951967098"><ele>129.0</ele><time>2026-05-03T15:42:30.763Z</time></trkpt><trkpt lat="38.3893089079531" lon="16.41480805207155"><ele>129.0</ele><time>2026-05-03T15:42:31.763Z</time></trkpt><trkpt lat="38.38923450370197" lon="16.414851357530083"><ele>129.0</ele><time>2026-05-03T15:42:32.763Z</time></trkpt><trkpt lat="38.38915865946701" lon="16.414901920910086"><ele>129.0</ele><time>2026-05-03T15:42:33.762Z</time></trkpt><trkpt lat="38.389084616089235" lon="16.414952440514018"><ele>129.0</ele><time>2026-05-03T15:42:34.762Z</time></trkpt><trkpt lat="38.38900480210151" lon="16.415005857135505"><ele>129.0</ele><time>2026-05-03T15:42:35.762Z</time></trkpt><trkpt lat="38.38892450058673" lon="16.41505872273293"><ele>130.4</ele><time>2026-05-03T15:42:36.763Z</time></trkpt><trkpt lat="38.38883897917699" lon="16.415115024792513"><ele>131.8</ele><time>2026-05-03T15:42:37.762Z</time></trkpt><trkpt lat="38.38875356750947" lon="16.415171254622102"><ele>133.2</ele><time>2026-05-03T15:42:38.762Z</time></trkpt><trkpt lat="38.38867067088754" lon="16.41524676555432"><ele>134.6</ele><time>2026-05-03T15:42:39.763Z</time></trkpt><trkpt lat="38.38857778229739" lon="16.41530580507726"><ele>136.0</ele><time>2026-05-03T15:42:40.762Z</time></trkpt><trkpt lat="38.388480919381706" lon="16.415363511099237"><ele>136.0</ele><time>2026-05-03T15:42:41.762Z</time></trkpt><trkpt lat="38.38838854950559" lon="16.415429712419105"><ele>136.0</ele><time>2026-05-03T15:42:42.762Z</time></trkpt><trkpt lat="38.388292378501035" lon="16.41549660415812"><ele>136.0</ele><time>2026-05-03T15:42:43.762Z</time></trkpt><trkpt lat="38.38819349024341" lon="16.41556073833421"><ele>136.0</ele><time>2026-05-03T15:42:44.762Z</time></trkpt><trkpt lat="38.38810124313664" lon="16.415624887642675"><ele>136.0</ele><time>2026-05-03T15:42:45.763Z</time></trkpt><trkpt lat="38.38801294286184" lon="16.41567876039921"><ele>138.0</ele><time>2026-05-03T15:42:46.762Z</time></trkpt><trkpt lat="38.38793366748782" lon="16.415729129081395"><ele>140.0</ele><time>2026-05-03T15:42:47.762Z</time></trkpt><trkpt lat="38.387863281376774" lon="16.41577923717727"><ele>142.0</ele><time>2026-05-03T15:42:48.762Z</time></trkpt><trkpt lat="38.387796225205314" lon="16.415833231933917"><ele>144.0</ele><time>2026-05-03T15:42:49.762Z</time></trkpt><trkpt lat="38.38772355787019" lon="16.415874732761687"><ele>146.0</ele><time>2026-05-03T15:42:50.762Z</time></trkpt><trkpt lat="38.387663647889546" lon="16.415935407013414"><ele>148.0</ele><time>2026-05-03T15:42:51.762Z</time></trkpt><trkpt lat="38.387606075063196" lon="16.41599439918203"><ele>148.0</ele><time>2026-05-03T15:42:52.762Z</time></trkpt><trkpt lat="38.387546661779915" lon="16.416059195475764"><ele>148.0</ele><time>2026-05-03T15:42:53.762Z</time></trkpt><trkpt lat="38.38747268427489" lon="16.4160824023239"><ele>148.0</ele><time>2026-05-03T15:42:54.762Z</time></trkpt><trkpt lat="38.38739749374787" lon="16.416058090539412"><ele>148.0</ele><time>2026-05-03T15:42:55.762Z</time></trkpt><trkpt lat="38.38735378052715" lon="16.4159130663446"><ele>148.0</ele><time>2026-05-03T15:42:57.762Z</time></trkpt><trkpt lat="38.38738146748678" lon="16.415834787028263"><ele>148.0</ele><time>2026-05-03T15:42:58.762Z</time></trkpt><trkpt lat="38.387428761318" lon="16.41577625997226"><ele>148.0</ele><time>2026-05-03T15:42:59.762Z</time></trkpt><trkpt lat="38.38749184361217" lon="16.415738652213587"><ele>148.0</ele><time>2026-05-03T15:43:00.762Z</time></trkpt><trkpt lat="38.387569832470135" lon="16.41571461797649"><ele>148.0</ele><time>2026-05-03T15:43:01.762Z</time></trkpt><trkpt lat="38.38764407120405" lon="16.415682926588207"><ele>148.0</ele><time>2026-05-03T15:43:02.762Z</time></trkpt><trkpt lat="38.38771006938047" lon="16.415640221492417"><ele>148.0</ele><time>2026-05-03T15:43:03.762Z</time></trkpt><trkpt lat="38.38776944105302" lon="16.415581833645742"><ele>148.0</ele><time>2026-05-03T15:43:04.762Z</time></trkpt><trkpt lat="38.38783331079589" lon="16.415508670175416"><ele>148.71428571428572</ele><time>2026-05-03T15:43:05.762Z</time></trkpt><trkpt lat="38.3878883004852" lon="16.415428169012266"><ele>149.42857142857142</ele><time>2026-05-03T15:43:06.762Z</time></trkpt><trkpt lat="38.38791651870822" lon="16.41532901591408"><ele>150.14285714285714</ele><time>2026-05-03T15:43:07.762Z</time></trkpt><trkpt lat="38.38791506269682" lon="16.415241945963032"><ele>150.85714285714286</ele><time>2026-05-03T15:43:08.762Z</time></trkpt><trkpt lat="38.38787777865373" lon="16.415168890519666"><ele>151.57142857142858</ele><time>2026-05-03T15:43:09.762Z</time></trkpt><trkpt lat="38.387826800658026" lon="16.41512139584766"><ele>152.28571428571428</ele><time>2026-05-03T15:43:10.762Z</time></trkpt><trkpt lat="38.38776853002924" lon="16.41508546421812"><ele>153.0</ele><time>2026-05-03T15:43:11.762Z</time></trkpt><trkpt lat="38.38770339217384" lon="16.41512329800479"><ele>153.0</ele><time>2026-05-03T15:43:12.762Z</time></trkpt><trkpt lat="38.387591683130424" lon="16.415212226834182"><ele>153.0</ele><time>2026-05-03T15:43:14.762Z</time></trkpt><trkpt lat="38.38754137544605" lon="16.41526990272515"><ele>153.0</ele><time>2026-05-03T15:43:15.762Z</time></trkpt><trkpt lat="38.38748783621514" lon="16.41533378429565"><ele>153.0</ele><time>2026-05-03T15:43:16.762Z</time></trkpt><trkpt lat="38.387433751213806" lon="16.415398317086996"><ele>153.0</ele><time>2026-05-03T15:43:17.762Z</time></trkpt><trkpt lat="38.38739355641786" lon="16.41547488958034"><ele>153.0</ele><time>2026-05-03T15:43:18.762Z</time></trkpt><trkpt lat="38.38730670119312" lon="16.415571920518218"><ele>152.16666666666666</ele><time>2026-05-03T15:43:20.762Z</time></trkpt><trkpt lat="38.38724949003345" lon="16.415641128456492"><ele>151.33333333333334</ele><time>2026-05-03T15:43:22.762Z</time></trkpt><trkpt lat="38.38717989718122" lon="16.415694553261044"><ele>150.5</ele><time>2026-05-03T15:43:26.762Z</time></trkpt><trkpt lat="38.38713645068691" lon="16.415760339554858"><ele>149.66666666666669</ele><time>2026-05-03T15:43:28.762Z</time></trkpt><trkpt lat="38.38706263806193" lon="16.41578619094837"><ele>148.83333333333334</ele><time>2026-05-03T15:43:30.762Z</time></trkpt><trkpt lat="38.38698515340084" lon="16.41578317287227"><ele>148.0</ele><time>2026-05-03T15:43:32.762Z</time></trkpt><trkpt lat="38.38692146798549" lon="16.415722984926926"><ele>150.60000000000002</ele><time>2026-05-03T15:43:34.762Z</time></trkpt><trkpt lat="38.3868856615811" lon="16.415630596493372"><ele>153.20000000000002</ele><time>2026-05-03T15:43:36.762Z</time></trkpt><trkpt lat="38.38688224484023" lon="16.415522415657506"><ele>155.8</ele><time>2026-05-03T15:43:38.762Z</time></trkpt><trkpt lat="38.38692833881217" lon="16.415416500217592"><ele>158.4</ele><time>2026-05-03T15:43:40.762Z</time></trkpt><trkpt lat="38.3869870687454" lon="16.415331667873645"><ele>161.0</ele><time>2026-05-03T15:43:42.762Z</time></trkpt><trkpt lat="38.38706267482709" lon="16.415226891806316"><ele>162.33333333333331</ele><time>2026-05-03T15:43:44.762Z</time></trkpt><trkpt lat="38.38710456369258" lon="16.4151608699971"><ele>163.66666666666666</ele><time>2026-05-03T15:43:45.762Z</time></trkpt><trkpt lat="38.387149360947404" lon="16.415095642091075"><ele>165.0</ele><time>2026-05-03T15:43:46.762Z</time></trkpt><trkpt lat="38.38719652563702" lon="16.415034940792186"><ele>166.33333333333334</ele><time>2026-05-03T15:43:47.762Z</time></trkpt><trkpt lat="38.38725457380709" lon="16.414921759085928"><ele>167.66666666666669</ele><time>2026-05-03T15:43:49.762Z</time></trkpt><trkpt lat="38.38732268083767" lon="16.41483358043902"><ele>169.0</ele><time>2026-05-03T15:43:51.762Z</time></trkpt><trkpt lat="38.38733291007186" lon="16.414697835568806"><ele>169.0</ele><time>2026-05-03T15:43:53.762Z</time></trkpt><trkpt lat="38.38731114946822" lon="16.4146215741646"><ele>169.0</ele><time>2026-05-03T15:43:54.762Z</time></trkpt><trkpt lat="38.387276158432954" lon="16.41454888855438"><ele>169.0</ele><time>2026-05-03T15:43:55.762Z</time></trkpt><trkpt lat="38.38721532994016" lon="16.41450551875052"><ele>169.0</ele><time>2026-05-03T15:43:56.762Z</time></trkpt><trkpt lat="38.387134789150686" lon="16.414506253190364"><ele>169.0</ele><time>2026-05-03T15:43:57.762Z</time></trkpt><trkpt lat="38.38706613887474" lon="16.414548658255775"><ele>169.0</ele><time>2026-05-03T15:43:58.762Z</time></trkpt><trkpt lat="38.38702086552878" lon="16.4146310723731"><ele>169.0</ele><time>2026-05-03T15:43:59.762Z</time></trkpt><trkpt lat="38.386986279991895" lon="16.414708458274536"><ele>169.0</ele><time>2026-05-03T15:44:00.762Z</time></trkpt><trkpt lat="38.386951382257" lon="16.414785551794555"><ele>169.0</ele><time>2026-05-03T15:44:01.762Z</time></trkpt><trkpt lat="38.38691449581026" lon="16.41485417897705"><ele>169.0</ele><time>2026-05-03T15:44:02.762Z</time></trkpt><trkpt lat="38.38687053014342" lon="16.414913359263075"><ele>169.0</ele><time>2026-05-03T15:44:03.762Z</time></trkpt><trkpt lat="38.386820551864716" lon="16.414977205519165"><ele>169.0</ele><time>2026-05-03T15:44:04.762Z</time></trkpt><trkpt lat="38.38677264704565" lon="16.41503588938522"><ele>169.0</ele><time>2026-05-03T15:44:05.762Z</time></trkpt><trkpt lat="38.38672701107012" lon="16.415091305259054"><ele>169.0</ele><time>2026-05-03T15:44:06.761Z</time></trkpt><trkpt lat="38.386680747028706" lon="16.41514748378086"><ele>169.0</ele><time>2026-05-03T15:44:07.761Z</time></trkpt><trkpt lat="38.386645697895844" lon="16.415216531292558"><ele>169.0</ele><time>2026-05-03T15:44:08.761Z</time></trkpt><trkpt lat="38.386581596794265" lon="16.415267882137037"><ele>169.0</ele><time>2026-05-03T15:44:09.761Z</time></trkpt><trkpt lat="38.38653428683328" lon="16.41532533070265"><ele>169.0</ele><time>2026-05-03T15:44:10.761Z</time></trkpt><trkpt lat="38.38644307426429" lon="16.415436090288665"><ele>169.0</ele><time>2026-05-03T15:44:12.761Z</time></trkpt><trkpt lat="38.38640747401809" lon="16.41550440564156"><ele>169.0</ele><time>2026-05-03T15:44:13.761Z</time></trkpt><trkpt lat="38.38631741809081" lon="16.41561442309053"><ele>170.28571428571428</ele><time>2026-05-03T15:44:15.761Z</time></trkpt><trkpt lat="38.38626240257415" lon="16.415658986373707"><ele>171.57142857142856</ele><time>2026-05-03T15:44:16.761Z</time></trkpt><trkpt lat="38.38622141971618" lon="16.41572130220261"><ele>172.85714285714283</ele><time>2026-05-03T15:44:17.761Z</time></trkpt><trkpt lat="38.38618317840127" lon="16.41578561634783"><ele>174.14285714285714</ele><time>2026-05-03T15:44:18.761Z</time></trkpt><trkpt lat="38.38614652793769" lon="16.41586078221855"><ele>175.42857142857142</ele><time>2026-05-03T15:44:19.761Z</time></trkpt><trkpt lat="38.386116142076816" lon="16.4159347346782"><ele>176.7142857142857</ele><time>2026-05-03T15:44:20.761Z</time></trkpt><trkpt lat="38.38608717996343" lon="16.41600882573758"><ele>178.0</ele><time>2026-05-03T15:44:21.761Z</time></trkpt><trkpt lat="38.386062389971585" lon="16.416087520861094"><ele>178.0</ele><time>2026-05-03T15:44:22.761Z</time></trkpt><trkpt lat="38.386009956833014" lon="16.41613646501456"><ele>178.0</ele><time>2026-05-03T15:44:23.761Z</time></trkpt><trkpt lat="38.385947294584646" lon="16.416169530073226"><ele>178.0</ele><time>2026-05-03T15:44:24.761Z</time></trkpt><trkpt lat="38.385824235111684" lon="16.416188016742645"><ele>178.0</ele><time>2026-05-03T15:44:26.761Z</time></trkpt><trkpt lat="38.38570121700754" lon="16.41617867233099"><ele>178.0</ele><time>2026-05-03T15:44:28.761Z</time></trkpt><trkpt lat="38.38563494187017" lon="16.416178983117998"><ele>178.0</ele><time>2026-05-03T15:44:29.761Z</time></trkpt><trkpt lat="38.38557115538249" lon="16.416176957533914"><ele>179.42857142857142</ele><time>2026-05-03T15:44:30.761Z</time></trkpt><trkpt lat="38.38550407477634" lon="16.41617162132559"><ele>180.85714285714286</ele><time>2026-05-03T15:44:31.761Z</time></trkpt><trkpt lat="38.3854292316976" lon="16.416166335410992"><ele>182.28571428571428</ele><time>2026-05-03T15:44:32.761Z</time></trkpt><trkpt lat="38.38535792333826" lon="16.41616356857291"><ele>183.71428571428572</ele><time>2026-05-03T15:44:33.761Z</time></trkpt><trkpt lat="38.385283195189054" lon="16.41616045991859"><ele>185.14285714285714</ele><time>2026-05-03T15:44:34.761Z</time></trkpt><trkpt lat="38.38520654593211" lon="16.4161541969071"><ele>186.57142857142856</ele><time>2026-05-03T15:44:35.761Z</time></trkpt><trkpt lat="38.385130596466865" lon="16.416150944105677"><ele>188.0</ele><time>2026-05-03T15:44:36.761Z</time></trkpt><trkpt lat="38.38505247086086" lon="16.41614845010843"><ele>188.0</ele><time>2026-05-03T15:44:37.761Z</time></trkpt><trkpt lat="38.384977238038715" lon="16.416146226477025"><ele>188.0</ele><time>2026-05-03T15:44:38.761Z</time></trkpt><trkpt lat="38.38490813772077" lon="16.41614489518439"><ele>188.0</ele><time>2026-05-03T15:44:39.761Z</time></trkpt><trkpt lat="38.38484346705982" lon="16.416141802971605"><ele>188.0</ele><time>2026-05-03T15:44:40.761Z</time></trkpt><trkpt lat="38.38477259238807" lon="16.416133906568643"><ele>188.0</ele><time>2026-05-03T15:44:41.761Z</time></trkpt><trkpt lat="38.384701877935925" lon="16.41612958496306"><ele>188.0</ele><time>2026-05-03T15:44:42.76Z</time></trkpt><trkpt lat="38.384629008970194" lon="16.416119860069536"><ele>188.0</ele><time>2026-05-03T15:44:43.76Z</time></trkpt><trkpt lat="38.38455350118707" lon="16.41611554022412"><ele>188.33333333333331</ele><time>2026-05-03T15:44:44.76Z</time></trkpt><trkpt lat="38.384475026720764" lon="16.41610632532134"><ele>188.66666666666666</ele><time>2026-05-03T15:44:45.761Z</time></trkpt><trkpt lat="38.38439471973052" lon="16.416104063668843"><ele>189.0</ele><time>2026-05-03T15:44:46.761Z</time></trkpt><trkpt lat="38.38431555751264" lon="16.416100615699005"><ele>189.33333333333334</ele><time>2026-05-03T15:44:47.761Z</time></trkpt><trkpt lat="38.38423666923957" lon="16.416090536835995"><ele>189.66666666666669</ele><time>2026-05-03T15:44:48.76Z</time></trkpt><trkpt lat="38.38415559436148" lon="16.41607808135073"><ele>190.0</ele><time>2026-05-03T15:44:49.76Z</time></trkpt><trkpt lat="38.38407612941841" lon="16.416061205825265"><ele>190.0</ele><time>2026-05-03T15:44:50.76Z</time></trkpt><trkpt lat="38.38399705518185" lon="16.416045288144563"><ele>190.0</ele><time>2026-05-03T15:44:51.76Z</time></trkpt><trkpt lat="38.383923783949584" lon="16.41602744827675"><ele>190.0</ele><time>2026-05-03T15:44:52.76Z</time></trkpt><trkpt lat="38.38384612507461" lon="16.41601320373241"><ele>190.0</ele><time>2026-05-03T15:44:53.76Z</time></trkpt><trkpt lat="38.383773146865956" lon="16.41599800730199"><ele>190.0</ele><time>2026-05-03T15:44:54.76Z</time></trkpt><trkpt lat="38.383710331228414" lon="16.415961713845565"><ele>190.0</ele><time>2026-05-03T15:44:55.76Z</time></trkpt><trkpt lat="38.383643876072576" lon="16.41593552159918"><ele>190.0</ele><time>2026-05-03T15:44:56.76Z</time></trkpt><trkpt lat="38.38355468743998" lon="16.415826314015042"><ele>189.57142857142858</ele><time>2026-05-03T15:44:58.76Z</time></trkpt><trkpt lat="38.38351141464978" lon="16.41575556999065"><ele>189.14285714285717</ele><time>2026-05-03T15:44:59.76Z</time></trkpt><trkpt lat="38.383483620153044" lon="16.415674114273518"><ele>188.71428571428572</ele><time>2026-05-03T15:45:00.76Z</time></trkpt><trkpt lat="38.38344165612322" lon="16.415602336692984"><ele>188.28571428571428</ele><time>2026-05-03T15:45:01.76Z</time></trkpt><trkpt lat="38.38339729003613" lon="16.4155324841449"><ele>187.85714285714286</ele><time>2026-05-03T15:45:02.76Z</time></trkpt><trkpt lat="38.383352213944455" lon="16.41545854818629"><ele>187.42857142857142</ele><time>2026-05-03T15:45:03.759Z</time></trkpt><trkpt lat="38.38330601732976" lon="16.415383810303922"><ele>187.0</ele><time>2026-05-03T15:45:04.759Z</time></trkpt><trkpt lat="38.38325969243611" lon="16.41530367488104"><ele>188.66666666666669</ele><time>2026-05-03T15:45:05.759Z</time></trkpt><trkpt lat="38.38321355948948" lon="16.415224666590287"><ele>190.33333333333334</ele><time>2026-05-03T15:45:06.759Z</time></trkpt><trkpt lat="38.38316373455377" lon="16.415146489403096"><ele>192.0</ele><time>2026-05-03T15:45:07.759Z</time></trkpt><trkpt lat="38.3831138305631" lon="16.415067577828356"><ele>193.66666666666669</ele><time>2026-05-03T15:45:08.759Z</time></trkpt><trkpt lat="38.38306826461993" lon="16.41499464580205"><ele>195.33333333333334</ele><time>2026-05-03T15:45:09.759Z</time></trkpt><trkpt lat="38.383036771925454" lon="16.414911175303512"><ele>197.0</ele><time>2026-05-03T15:45:10.759Z</time></trkpt><trkpt lat="38.383010682765544" lon="16.41482609244314"><ele>193.8</ele><time>2026-05-03T15:45:11.759Z</time></trkpt><trkpt lat="38.38298833210324" lon="16.41474451337486"><ele>190.6</ele><time>2026-05-03T15:45:12.759Z</time></trkpt><trkpt lat="38.38293917187693" lon="16.414593014675468"><ele>187.4</ele><time>2026-05-03T15:45:14.759Z</time></trkpt><trkpt lat="38.38300835068375" lon="16.41446166636343"><ele>184.20000000000002</ele><time>2026-05-03T15:45:15.759Z</time></trkpt><trkpt lat="38.38299864431206" lon="16.414374821490963"><ele>181.0</ele><time>2026-05-03T15:45:16.759Z</time></trkpt><trkpt lat="38.382997145394796" lon="16.41428556886801"><ele>181.0</ele><time>2026-05-03T15:45:17.759Z</time></trkpt><trkpt lat="38.38300037122007" lon="16.414194855651676"><ele>181.0</ele><time>2026-05-03T15:45:18.759Z</time></trkpt><trkpt lat="38.38297986107348" lon="16.414103689890297"><ele>181.0</ele><time>2026-05-03T15:45:19.759Z</time></trkpt><trkpt lat="38.382984414008554" lon="16.41401187716912"><ele>181.0</ele><time>2026-05-03T15:45:20.759Z</time></trkpt><trkpt lat="38.38298794365101" lon="16.413917831306645"><ele>181.0</ele><time>2026-05-03T15:45:21.759Z</time></trkpt><trkpt lat="38.38300468941338" lon="16.413822285332234"><ele>181.0</ele><time>2026-05-03T15:45:22.759Z</time></trkpt><trkpt lat="38.38299373348466" lon="16.413727474533093"><ele>181.0</ele><time>2026-05-03T15:45:23.759Z</time></trkpt><trkpt lat="38.38297964218974" lon="16.413639819356394"><ele>182.16666666666669</ele><time>2026-05-03T15:45:24.759Z</time></trkpt><trkpt lat="38.38296257572246" lon="16.413542664248258"><ele>183.33333333333334</ele><time>2026-05-03T15:45:25.759Z</time></trkpt><trkpt lat="38.38294291281894" lon="16.413435983655734"><ele>184.5</ele><time>2026-05-03T15:45:26.759Z</time></trkpt><trkpt lat="38.382920766300366" lon="16.413324087877896"><ele>185.66666666666666</ele><time>2026-05-03T15:45:27.759Z</time></trkpt><trkpt lat="38.38289683867326" lon="16.41321370228921"><ele>186.83333333333331</ele><time>2026-05-03T15:45:28.759Z</time></trkpt><trkpt lat="38.3828655451553" lon="16.413103241165576"><ele>188.0</ele><time>2026-05-03T15:45:29.759Z</time></trkpt><trkpt lat="38.38282910806161" lon="16.412997311899627"><ele>190.4</ele><time>2026-05-03T15:45:30.759Z</time></trkpt><trkpt lat="38.38278769304403" lon="16.412889727185103"><ele>192.8</ele><time>2026-05-03T15:45:31.759Z</time></trkpt><trkpt lat="38.382741273902994" lon="16.412784646334334"><ele>195.2</ele><time>2026-05-03T15:45:32.759Z</time></trkpt><trkpt lat="38.38268723207117" lon="16.412681015484857"><ele>197.6</ele><time>2026-05-03T15:45:33.759Z</time></trkpt><trkpt lat="38.38263087749265" lon="16.41257556059897"><ele>200.0</ele><time>2026-05-03T15:45:34.759Z</time></trkpt><trkpt lat="38.38257189171431" lon="16.412472467942763"><ele>200.0</ele><time>2026-05-03T15:45:35.759Z</time></trkpt><trkpt lat="38.382503086030596" lon="16.4123794278383"><ele>200.0</ele><time>2026-05-03T15:45:36.759Z</time></trkpt><trkpt lat="38.38242201451654" lon="16.412302450253737"><ele>200.0</ele><time>2026-05-03T15:45:37.759Z</time></trkpt><trkpt lat="38.38233123416216" lon="16.4122586106098"><ele>200.0</ele><time>2026-05-03T15:45:38.759Z</time></trkpt><trkpt lat="38.382237972556474" lon="16.412217984698923"><ele>200.0</ele><time>2026-05-03T15:45:39.759Z</time></trkpt><trkpt lat="38.3821404466321" lon="16.4122127009464"><ele>200.8</ele><time>2026-05-03T15:45:40.759Z</time></trkpt><trkpt lat="38.38203719523848" lon="16.41222870839364"><ele>201.6</ele><time>2026-05-03T15:45:41.759Z</time></trkpt><trkpt lat="38.381943340138044" lon="16.412272359897877"><ele>202.39999999999998</ele><time>2026-05-03T15:45:42.759Z</time></trkpt><trkpt lat="38.38185667342662" lon="16.412321048729424"><ele>203.2</ele><time>2026-05-03T15:45:43.759Z</time></trkpt><trkpt lat="38.38177232163163" lon="16.412371564524598"><ele>204.0</ele><time>2026-05-03T15:45:44.759Z</time></trkpt><trkpt lat="38.381692069375454" lon="16.41242002822668"><ele>204.0</ele><time>2026-05-03T15:45:45.759Z</time></trkpt><trkpt lat="38.38161414658692" lon="16.412465631692335"><ele>204.0</ele><time>2026-05-03T15:45:46.759Z</time></trkpt><trkpt lat="38.381540782560016" lon="16.41250856717398"><ele>204.0</ele><time>2026-05-03T15:45:47.759Z</time></trkpt><trkpt lat="38.38146921589314" lon="16.412549395712144"><ele>204.0</ele><time>2026-05-03T15:45:48.759Z</time></trkpt><trkpt lat="38.38139767439715" lon="16.41258954256539"><ele>204.0</ele><time>2026-05-03T15:45:49.759Z</time></trkpt><trkpt lat="38.38132871527623" lon="16.412628240221462"><ele>204.0</ele><time>2026-05-03T15:45:50.759Z</time></trkpt><trkpt lat="38.38125937637902" lon="16.41266713238603"><ele>203.66666666666666</ele><time>2026-05-03T15:45:51.759Z</time></trkpt><trkpt lat="38.381196324064284" lon="16.412716215385824"><ele>203.33333333333331</ele><time>2026-05-03T15:45:52.759Z</time></trkpt><trkpt lat="38.381126732640055" lon="16.412691436690473"><ele>203.0</ele><time>2026-05-03T15:45:53.759Z</time></trkpt><trkpt lat="38.38106904842952" lon="16.41263275123386"><ele>202.66666666666666</ele><time>2026-05-03T15:45:54.759Z</time></trkpt><trkpt lat="38.38103194133122" lon="16.412558701935243"><ele>202.33333333333331</ele><time>2026-05-03T15:45:55.759Z</time></trkpt><trkpt lat="38.381065034305756" lon="16.41238703158423"><ele>202.0</ele><time>2026-05-03T15:45:57.759Z</time></trkpt><trkpt lat="38.38111750536785" lon="16.412323718440526"><ele>201.99999999999997</ele><time>2026-05-03T15:45:58.759Z</time></trkpt><trkpt lat="38.38117129760033" lon="16.412261539727574"><ele>202.0</ele><time>2026-05-03T15:45:59.759Z</time></trkpt><trkpt lat="38.38122272851557" lon="16.412196943866753"><ele>202.0</ele><time>2026-05-03T15:46:00.759Z</time></trkpt><trkpt lat="38.381275011976435" lon="16.412130511094325"><ele>202.0</ele><time>2026-05-03T15:46:01.759Z</time></trkpt><trkpt lat="38.38133049002371" lon="16.41206017584374"><ele>201.99999999999997</ele><time>2026-05-03T15:46:02.759Z</time></trkpt><trkpt lat="38.381387040902126" lon="16.411992018480184"><ele>202.0</ele><time>2026-05-03T15:46:03.759Z</time></trkpt><trkpt lat="38.3814484814701" lon="16.411922157428183"><ele>204.49999999999997</ele><time>2026-05-03T15:46:04.759Z</time></trkpt><trkpt lat="38.381514486840146" lon="16.411861289526186"><ele>207.0</ele><time>2026-05-03T15:46:05.759Z</time></trkpt><trkpt lat="38.38158089818496" lon="16.411807959078523"><ele>209.5</ele><time>2026-05-03T15:46:06.759Z</time></trkpt><trkpt lat="38.38164770614265" lon="16.411764637120612"><ele>212.0</ele><time>2026-05-03T15:46:07.759Z</time></trkpt><trkpt lat="38.38171314718361" lon="16.41173456422498"><ele>214.49999999999997</ele><time>2026-05-03T15:46:08.759Z</time></trkpt><trkpt lat="38.38178220912572" lon="16.411715193453634"><ele>217.0</ele><time>2026-05-03T15:46:09.759Z</time></trkpt><trkpt lat="38.38185641123624" lon="16.4116937922974"><ele>217.0</ele><time>2026-05-03T15:46:10.759Z</time></trkpt><trkpt lat="38.381930118435996" lon="16.411670801042803"><ele>217.0</ele><time>2026-05-03T15:46:11.759Z</time></trkpt><trkpt lat="38.38200462945466" lon="16.41164962476807"><ele>217.0</ele><time>2026-05-03T15:46:12.759Z</time></trkpt><trkpt lat="38.382074551582626" lon="16.411627888857815"><ele>217.0</ele><time>2026-05-03T15:46:13.759Z</time></trkpt><trkpt lat="38.38214306934936" lon="16.41160205702306"><ele>217.0</ele><time>2026-05-03T15:46:14.759Z</time></trkpt><trkpt lat="38.382216915845135" lon="16.411582030904626"><ele>217.0</ele><time>2026-05-03T15:46:15.759Z</time></trkpt><trkpt lat="38.382290402568046" lon="16.411564215441178"><ele>217.0</ele><time>2026-05-03T15:46:16.759Z</time></trkpt><trkpt lat="38.38236365883848" lon="16.411545580695435"><ele>217.14285714285714</ele><time>2026-05-03T15:46:17.759Z</time></trkpt><trkpt lat="38.382435057505916" lon="16.411531398082104"><ele>217.28571428571428</ele><time>2026-05-03T15:46:18.759Z</time></trkpt><trkpt lat="38.38250279354949" lon="16.411535699014838"><ele>217.42857142857144</ele><time>2026-05-03T15:46:19.759Z</time></trkpt><trkpt lat="38.382570549555545" lon="16.41155543260972"><ele>217.57142857142856</ele><time>2026-05-03T15:46:20.759Z</time></trkpt><trkpt lat="38.38262857834882" lon="16.411612766404144"><ele>217.71428571428572</ele><time>2026-05-03T15:46:21.759Z</time></trkpt><trkpt lat="38.38268891053173" lon="16.411663483903723"><ele>217.85714285714286</ele><time>2026-05-03T15:46:22.759Z</time></trkpt><trkpt lat="38.38275629235655" lon="16.41170464985612"><ele>218.0</ele><time>2026-05-03T15:46:23.759Z</time></trkpt><trkpt lat="38.38281407290403" lon="16.41176291041389"><ele>218.0</ele><time>2026-05-03T15:46:24.759Z</time></trkpt><trkpt lat="38.38287602462884" lon="16.411803455144245"><ele>218.0</ele><time>2026-05-03T15:46:25.759Z</time></trkpt><trkpt lat="38.38294693572363" lon="16.41182299716612"><ele>218.0</ele><time>2026-05-03T15:46:26.759Z</time></trkpt><trkpt lat="38.38301461275099" lon="16.411810880663076"><ele>218.0</ele><time>2026-05-03T15:46:27.759Z</time></trkpt><trkpt lat="38.38307160623551" lon="16.41176753220548"><ele>218.0</ele><time>2026-05-03T15:46:28.758Z</time></trkpt><trkpt lat="38.3831248805817" lon="16.411703715132866"><ele>218.0</ele><time>2026-05-03T15:46:29.758Z</time></trkpt><trkpt lat="38.383179124059524" lon="16.41163516665513"><ele>218.0</ele><time>2026-05-03T15:46:30.758Z</time></trkpt><trkpt lat="38.383237164541946" lon="16.411570094406446"><ele>218.50000000000003</ele><time>2026-05-03T15:46:31.758Z</time></trkpt><trkpt lat="38.38329275957378" lon="16.411504291799496"><ele>219.0</ele><time>2026-05-03T15:46:32.758Z</time></trkpt><trkpt lat="38.38335107089958" lon="16.4114360391262"><ele>219.5</ele><time>2026-05-03T15:46:33.758Z</time></trkpt><trkpt lat="38.38340677894911" lon="16.411371806266008"><ele>220.0</ele><time>2026-05-03T15:46:34.758Z</time></trkpt><trkpt lat="38.38345376893274" lon="16.411307811748827"><ele>220.50000000000003</ele><time>2026-05-03T15:46:35.758Z</time></trkpt><trkpt lat="38.38349065070453" lon="16.411241131169504"><ele>221.0</ele><time>2026-05-03T15:46:36.758Z</time></trkpt><trkpt lat="38.383508560322035" lon="16.41112307542863"><ele>222.60000000000002</ele><time>2026-05-03T15:46:38.758Z</time></trkpt><trkpt lat="38.38343103310316" lon="16.41105887166669"><ele>224.20000000000002</ele><time>2026-05-03T15:46:40.758Z</time></trkpt><trkpt lat="38.38331370540863" lon="16.411082128148244"><ele>225.79999999999998</ele><time>2026-05-03T15:46:42.758Z</time></trkpt><trkpt lat="38.383212294789786" lon="16.41112698286055"><ele>227.39999999999998</ele><time>2026-05-03T15:46:44.758Z</time></trkpt><trkpt lat="38.38309949891974" lon="16.411176873324496"><ele>229.0</ele><time>2026-05-03T15:46:46.758Z</time></trkpt><trkpt lat="38.38298309780329" lon="16.411230166018136"><ele>229.0</ele><time>2026-05-03T15:46:48.759Z</time></trkpt><trkpt lat="38.382867923328156" lon="16.41126793449056"><ele>229.0</ele><time>2026-05-03T15:46:50.758Z</time></trkpt><trkpt lat="38.382781934691664" lon="16.41119045717504"><ele>229.0</ele><time>2026-05-03T15:46:52.758Z</time></trkpt><trkpt lat="38.38271297693758" lon="16.41107307676253"><ele>229.0</ele><time>2026-05-03T15:46:54.759Z</time></trkpt><trkpt lat="38.382634539715035" lon="16.41096192941166"><ele>228.99999999999997</ele><time>2026-05-03T15:46:56.759Z</time></trkpt><trkpt lat="38.38259157099794" lon="16.410901838945684"><ele>229.0</ele><time>2026-05-03T15:46:57.759Z</time></trkpt><trkpt lat="38.382505057722206" lon="16.410779093804962"><ele>229.0</ele><time>2026-05-03T15:46:59.758Z</time></trkpt><trkpt lat="38.382456229364564" lon="16.410712980519442"><ele>229.0</ele><time>2026-05-03T15:47:00.758Z</time></trkpt><trkpt lat="38.382410063915266" lon="16.41064823596471"><ele>228.99999999999997</ele><time>2026-05-03T15:47:01.759Z</time></trkpt><trkpt lat="38.38236276456818" lon="16.410583582881358"><ele>229.0</ele><time>2026-05-03T15:47:02.759Z</time></trkpt><trkpt lat="38.38228331789687" lon="16.410481304305392"><ele>230.49999999999997</ele><time>2026-05-03T15:47:04.759Z</time></trkpt><trkpt lat="38.38222420533944" lon="16.4103981397585"><ele>232.0</ele><time>2026-05-03T15:47:06.759Z</time></trkpt><trkpt lat="38.38217450826463" lon="16.410313824802248"><ele>233.5</ele><time>2026-05-03T15:47:08.758Z</time></trkpt><trkpt lat="38.38212954669776" lon="16.41022940832265"><ele>235.0</ele><time>2026-05-03T15:47:10.758Z</time></trkpt><trkpt lat="38.382068787169274" lon="16.410159650383005"><ele>236.49999999999997</ele><time>2026-05-03T15:47:12.758Z</time></trkpt><trkpt lat="38.382009859385455" lon="16.410077223610227"><ele>238.0</ele><time>2026-05-03T15:47:14.758Z</time></trkpt><trkpt lat="38.38194139760884" lon="16.409981460946103"><ele>238.0</ele><time>2026-05-03T15:47:16.758Z</time></trkpt><trkpt lat="38.38187410946369" lon="16.409887339922523"><ele>238.0</ele><time>2026-05-03T15:47:18.758Z</time></trkpt><trkpt lat="38.38181307761506" lon="16.409801970026507"><ele>238.0</ele><time>2026-05-03T15:47:19.758Z</time></trkpt><trkpt lat="38.38171499259404" lon="16.40967167370528"><ele>238.0</ele><time>2026-05-03T15:47:21.758Z</time></trkpt><trkpt lat="38.381606620142776" lon="16.40955792125541"><ele>243.0</ele><time>2026-05-03T15:47:23.758Z</time></trkpt><trkpt lat="38.381472356944876" lon="16.4095525214961"><ele>248.0</ele><time>2026-05-03T15:47:26.758Z</time></trkpt><trkpt lat="38.38137559548808" lon="16.409583766972393"><ele>253.0</ele><time>2026-05-03T15:47:28.758Z</time></trkpt><trkpt lat="38.38126975736025" lon="16.409367364307126"><ele>258.0</ele><time>2026-05-03T15:47:29.758Z</time></trkpt><trkpt lat="38.381220890603906" lon="16.409523970336846"><ele>258.0</ele><time>2026-05-03T15:47:31.758Z</time></trkpt><trkpt lat="38.38116462710773" lon="16.409581036877064"><ele>258.0</ele><time>2026-05-03T15:47:33.758Z</time></trkpt><trkpt lat="38.381103097832856" lon="16.409644919260227"><ele>258.0</ele><time>2026-05-03T15:47:35.758Z</time></trkpt><trkpt lat="38.381041557220854" lon="16.40958040031952"><ele>258.0</ele><time>2026-05-03T15:47:36.758Z</time></trkpt><trkpt lat="38.380959461694395" lon="16.409673953355497"><ele>258.0</ele><time>2026-05-03T15:47:38.758Z</time></trkpt><trkpt lat="38.38091027149267" lon="16.409801645845675"><ele>255.33333333333334</ele><time>2026-05-03T15:47:40.758Z</time></trkpt><trkpt lat="38.380867430380405" lon="16.4098609451615"><ele>252.66666666666669</ele><time>2026-05-03T15:47:41.758Z</time></trkpt><trkpt lat="38.380784778953185" lon="16.40995850884209"><ele>250.0</ele><time>2026-05-03T15:47:43.758Z</time></trkpt><trkpt lat="38.380733587284844" lon="16.410010544823418"><ele>247.33333333333334</ele><time>2026-05-03T15:47:44.758Z</time></trkpt><trkpt lat="38.380664907547434" lon="16.41008329915101"><ele>244.66666666666669</ele><time>2026-05-03T15:47:46.758Z</time></trkpt><trkpt lat="38.38061245064799" lon="16.410175750847785"><ele>242.0</ele><time>2026-05-03T15:47:48.758Z</time></trkpt><trkpt lat="38.38058263820156" lon="16.410281586312344"><ele>242.00000000000003</ele><time>2026-05-03T15:47:50.758Z</time></trkpt><trkpt lat="38.380545563067145" lon="16.410389412382795"><ele>242.0</ele><time>2026-05-03T15:47:52.758Z</time></trkpt><trkpt lat="38.3804928495123" lon="16.410484159594713"><ele>242.0</ele><time>2026-05-03T15:47:54.758Z</time></trkpt><trkpt lat="38.38043221119085" lon="16.41054895000132"><ele>242.0</ele><time>2026-05-03T15:47:56.758Z</time></trkpt><trkpt lat="38.38035411972761" lon="16.410598634988713"><ele>242.00000000000003</ele><time>2026-05-03T15:47:58.758Z</time></trkpt><trkpt lat="38.38029284068652" lon="16.410618277325746"><ele>242.0</ele><time>2026-05-03T15:47:59.758Z</time></trkpt><trkpt lat="38.38021979681236" lon="16.4106762239282"><ele>244.33333333333334</ele><time>2026-05-03T15:48:01.758Z</time></trkpt><trkpt lat="38.38015127588899" lon="16.410691316464824"><ele>246.66666666666669</ele><time>2026-05-03T15:48:03.758Z</time></trkpt><trkpt lat="38.37999243569755" lon="16.410639137507257"><ele>249.0</ele><time>2026-05-03T15:48:04.758Z</time></trkpt><trkpt lat="38.380145237477194" lon="16.41030316682751"><ele>249.0</ele><time>2026-05-03T15:48:05.758Z</time></trkpt><trkpt lat="38.38011374895015" lon="16.410146910579815"><ele>248.99999999999997</ele><time>2026-05-03T15:48:06.758Z</time></trkpt><trkpt lat="38.38004628192861" lon="16.4101362059402"><ele>248.99999999999997</ele><time>2026-05-03T15:48:08.758Z</time></trkpt><trkpt lat="38.37991032082558" lon="16.410170019547355"><ele>249.0</ele><time>2026-05-03T15:48:11.758Z</time></trkpt><trkpt lat="38.379853837055315" lon="16.410216933338784"><ele>249.0</ele><time>2026-05-03T15:48:12.758Z</time></trkpt><trkpt lat="38.37979298569553" lon="16.410258521247155"><ele>248.25</ele><time>2026-05-03T15:48:15.758Z</time></trkpt><trkpt lat="38.37964093336317" lon="16.410274537667007"><ele>247.5</ele><time>2026-05-03T15:48:17.758Z</time></trkpt><trkpt lat="38.37957311103522" lon="16.41027617178413"><ele>246.75</ele><time>2026-05-03T15:48:18.758Z</time></trkpt><trkpt lat="38.37944424756256" lon="16.410170765077496"><ele>246.0</ele><time>2026-05-03T15:48:19.758Z</time></trkpt><trkpt lat="38.379319610696896" lon="16.410079976719036"><ele>246.0</ele><time>2026-05-03T15:48:20.758Z</time></trkpt><trkpt lat="38.37920082800736" lon="16.410041613432718"><ele>246.00000000000003</ele><time>2026-05-03T15:48:21.758Z</time></trkpt><trkpt lat="38.379113907239756" lon="16.410012420038466"><ele>246.00000000000003</ele><time>2026-05-03T15:48:22.758Z</time></trkpt><trkpt lat="38.37898324798696" lon="16.409984956572323"><ele>246.0</ele><time>2026-05-03T15:48:24.758Z</time></trkpt><trkpt lat="38.37891480298757" lon="16.40996904170629"><ele>246.0</ele><time>2026-05-03T15:48:25.758Z</time></trkpt><trkpt lat="38.37884421344842" lon="16.40995544098748"><ele>241.66666666666669</ele><time>2026-05-03T15:48:26.758Z</time></trkpt><trkpt lat="38.37877659780898" lon="16.40994240868667"><ele>237.33333333333334</ele><time>2026-05-03T15:48:27.758Z</time></trkpt><trkpt lat="38.37861796290651" lon="16.410286509218235"><ele>233.0</ele><time>2026-05-03T15:48:28.758Z</time></trkpt><trkpt lat="38.37856393308009" lon="16.41045469769595"><ele>232.83333333333334</ele><time>2026-05-03T15:48:29.758Z</time></trkpt><trkpt lat="38.37853467501264" lon="16.410533333125056"><ele>232.66666666666669</ele><time>2026-05-03T15:48:30.758Z</time></trkpt><trkpt lat="38.3784936212125" lon="16.41059992995474"><ele>232.5</ele><time>2026-05-03T15:48:31.758Z</time></trkpt><trkpt lat="38.378437005476414" lon="16.41065863412874"><ele>232.33333333333331</ele><time>2026-05-03T15:48:32.757Z</time></trkpt><trkpt lat="38.378370538335425" lon="16.41072576178004"><ele>232.16666666666666</ele><time>2026-05-03T15:48:33.757Z</time></trkpt><trkpt lat="38.37830457624209" lon="16.41078250494494"><ele>232.0</ele><time>2026-05-03T15:48:34.757Z</time></trkpt><trkpt lat="38.37823253588792" lon="16.4108532872092"><ele>231.99999999999997</ele><time>2026-05-03T15:48:35.757Z</time></trkpt><trkpt lat="38.37816192263702" lon="16.41092132526544"><ele>232.0</ele><time>2026-05-03T15:48:36.757Z</time></trkpt><trkpt lat="38.378103523066976" lon="16.410990198847625"><ele>232.0</ele><time>2026-05-03T15:48:37.757Z</time></trkpt><trkpt lat="38.37804346944683" lon="16.4110641562226"><ele>232.0</ele><time>2026-05-03T15:48:38.757Z</time></trkpt><trkpt lat="38.37796134932381" lon="16.41113059654534"><ele>231.99999999999997</ele><time>2026-05-03T15:48:39.757Z</time></trkpt><trkpt lat="38.37789944105549" lon="16.411188346101007"><ele>232.0</ele><time>2026-05-03T15:48:40.757Z</time></trkpt><trkpt lat="38.37784107941575" lon="16.411230071539496"><ele>230.66666666666666</ele><time>2026-05-03T15:48:41.757Z</time></trkpt><trkpt lat="38.37781046153855" lon="16.411320592797807"><ele>229.33333333333331</ele><time>2026-05-03T15:48:42.757Z</time></trkpt><trkpt lat="38.37778206490054" lon="16.411415306318794"><ele>228.0</ele><time>2026-05-03T15:48:43.757Z</time></trkpt><trkpt lat="38.37775613027891" lon="16.411521752717942"><ele>226.66666666666669</ele><time>2026-05-03T15:48:44.757Z</time></trkpt><trkpt lat="38.37773692789351" lon="16.411620135289763"><ele>225.33333333333334</ele><time>2026-05-03T15:48:45.757Z</time></trkpt><trkpt lat="38.37771444386334" lon="16.411722454636894"><ele>224.0</ele><time>2026-05-03T15:48:46.757Z</time></trkpt><trkpt lat="38.37769907684857" lon="16.411836565089473"><ele>224.00000000000003</ele><time>2026-05-03T15:48:47.757Z</time></trkpt><trkpt lat="38.37768859635636" lon="16.41192429931804"><ele>224.0</ele><time>2026-05-03T15:48:48.757Z</time></trkpt><trkpt lat="38.37766872726037" lon="16.412045960400732"><ele>224.0</ele><time>2026-05-03T15:48:49.757Z</time></trkpt><trkpt lat="38.37764782684226" lon="16.41214377885711"><ele>224.0</ele><time>2026-05-03T15:48:50.757Z</time></trkpt><trkpt lat="38.37759016537685" lon="16.412221660513588"><ele>224.00000000000003</ele><time>2026-05-03T15:48:51.757Z</time></trkpt><trkpt lat="38.37752028765861" lon="16.412302962748168"><ele>224.0</ele><time>2026-05-03T15:48:52.757Z</time></trkpt><trkpt lat="38.37745602980991" lon="16.41236973700403"><ele>221.83333333333334</ele><time>2026-05-03T15:48:53.757Z</time></trkpt><trkpt lat="38.37739515141534" lon="16.412412690644295"><ele>219.66666666666669</ele><time>2026-05-03T15:48:54.756Z</time></trkpt><trkpt lat="38.3773350382854" lon="16.4124560635784"><ele>217.5</ele><time>2026-05-03T15:48:55.756Z</time></trkpt><trkpt lat="38.377279677693835" lon="16.412502158967403"><ele>215.33333333333331</ele><time>2026-05-03T15:48:56.756Z</time></trkpt><trkpt lat="38.3772280609108" lon="16.412575401936444"><ele>213.16666666666666</ele><time>2026-05-03T15:48:57.756Z</time></trkpt><trkpt lat="38.377155479054295" lon="16.412647581371726"><ele>211.0</ele><time>2026-05-03T15:48:58.756Z</time></trkpt><trkpt lat="38.37708941456914" lon="16.412714843416833"><ele>210.33333333333331</ele><time>2026-05-03T15:48:59.756Z</time></trkpt><trkpt lat="38.37703141723226" lon="16.41277955351375"><ele>209.66666666666666</ele><time>2026-05-03T15:49:00.756Z</time></trkpt><trkpt lat="38.376980474734125" lon="16.412845845254832"><ele>209.0</ele><time>2026-05-03T15:49:01.755Z</time></trkpt><trkpt lat="38.37691896120399" lon="16.4129277234688"><ele>208.33333333333331</ele><time>2026-05-03T15:49:02.755Z</time></trkpt><trkpt lat="38.37686153570333" lon="16.41302242344627"><ele>207.66666666666666</ele><time>2026-05-03T15:49:03.756Z</time></trkpt><trkpt lat="38.37682372482701" lon="16.41310636101924"><ele>207.0</ele><time>2026-05-03T15:49:04.756Z</time></trkpt><trkpt lat="38.376774237309455" lon="16.41320385098241"><ele>206.0</ele><time>2026-05-03T15:49:05.756Z</time></trkpt><trkpt lat="38.37671361016009" lon="16.41331518013562"><ele>205.0</ele><time>2026-05-03T15:49:06.755Z</time></trkpt><trkpt lat="38.376610735562956" lon="16.413428111994175"><ele>204.0</ele><time>2026-05-03T15:49:07.756Z</time></trkpt><trkpt lat="38.376526904894874" lon="16.413502091820863"><ele>203.0</ele><time>2026-05-03T15:49:08.756Z</time></trkpt><trkpt lat="38.3764434155978" lon="16.413556371006827"><ele>202.0</ele><time>2026-05-03T15:49:09.756Z</time></trkpt><trkpt lat="38.37635722494777" lon="16.413609492553597"><ele>201.8</ele><time>2026-05-03T15:49:10.756Z</time></trkpt><trkpt lat="38.37627525794671" lon="16.413669220850053"><ele>201.6</ele><time>2026-05-03T15:49:11.756Z</time></trkpt><trkpt lat="38.37618964668731" lon="16.41373065010857"><ele>201.4</ele><time>2026-05-03T15:49:12.756Z</time></trkpt><trkpt lat="38.376108177232084" lon="16.413785406780743"><ele>201.20000000000002</ele><time>2026-05-03T15:49:13.756Z</time></trkpt><trkpt lat="38.376029179133106" lon="16.413838929874114"><ele>201.0</ele><time>2026-05-03T15:49:14.756Z</time></trkpt><trkpt lat="38.37595414690081" lon="16.413893062288512"><ele>201.0</ele><time>2026-05-03T15:49:15.756Z</time></trkpt><trkpt lat="38.37587617851391" lon="16.413945621386677"><ele>201.0</ele><time>2026-05-03T15:49:16.756Z</time></trkpt><trkpt lat="38.375793308514965" lon="16.41399761980092"><ele>201.0</ele><time>2026-05-03T15:49:17.756Z</time></trkpt><trkpt lat="38.37571131573233" lon="16.414046984217872"><ele>201.0</ele><time>2026-05-03T15:49:18.756Z</time></trkpt><trkpt lat="38.37563394862601" lon="16.41409633129975"><ele>201.0</ele><time>2026-05-03T15:49:19.756Z</time></trkpt><trkpt lat="38.375558062705345" lon="16.41416007009542"><ele>201.0</ele><time>2026-05-03T15:49:20.756Z</time></trkpt><trkpt lat="38.3754698323809" lon="16.41421389686933"><ele>198.0</ele><time>2026-05-03T15:49:21.756Z</time></trkpt><trkpt lat="38.37538541066485" lon="16.414270992738405"><ele>195.0</ele><time>2026-05-03T15:49:22.756Z</time></trkpt><trkpt lat="38.37530901864755" lon="16.41433360453541"><ele>192.0</ele><time>2026-05-03T15:49:23.756Z</time></trkpt><trkpt lat="38.37524378380331" lon="16.414413729178005"><ele>189.0</ele><time>2026-05-03T15:49:24.756Z</time></trkpt><trkpt lat="38.37518751751809" lon="16.414501263371005"><ele>186.0</ele><time>2026-05-03T15:49:25.756Z</time></trkpt><trkpt lat="38.37514216087347" lon="16.414607556205898"><ele>187.66666666666666</ele><time>2026-05-03T15:49:26.756Z</time></trkpt><trkpt lat="38.37508110735942" lon="16.414697019693993"><ele>189.33333333333331</ele><time>2026-05-03T15:49:27.756Z</time></trkpt><trkpt lat="38.375051131358006" lon="16.414795656690682"><ele>191.0</ele><time>2026-05-03T15:49:28.756Z</time></trkpt><trkpt lat="38.37501218103409" lon="16.41488045258701"><ele>192.66666666666666</ele><time>2026-05-03T15:49:29.756Z</time></trkpt><trkpt lat="38.37497676203841" lon="16.414965256543507"><ele>194.33333333333331</ele><time>2026-05-03T15:49:30.756Z</time></trkpt><trkpt lat="38.37493533356416" lon="16.415042104059708"><ele>196.0</ele><time>2026-05-03T15:49:31.755Z</time></trkpt><trkpt lat="38.37488984637612" lon="16.415112712425827"><ele>195.99999999999997</ele><time>2026-05-03T15:49:32.755Z</time></trkpt><trkpt lat="38.37484137289765" lon="16.415186968883408"><ele>196.0</ele><time>2026-05-03T15:49:33.755Z</time></trkpt><trkpt lat="38.37478204710484" lon="16.41525605628179"><ele>196.0</ele><time>2026-05-03T15:49:34.755Z</time></trkpt><trkpt lat="38.37472089199025" lon="16.41532404313436"><ele>196.0</ele><time>2026-05-03T15:49:35.755Z</time></trkpt><trkpt lat="38.374657432203236" lon="16.41539493239095"><ele>195.99999999999997</ele><time>2026-05-03T15:49:36.755Z</time></trkpt><trkpt lat="38.37459218037111" lon="16.415472464927554"><ele>196.0</ele><time>2026-05-03T15:49:37.755Z</time></trkpt><trkpt lat="38.374526344301806" lon="16.415549167996904"><ele>192.8</ele><time>2026-05-03T15:49:38.755Z</time></trkpt><trkpt lat="38.37445884152026" lon="16.41562445927606"><ele>189.60000000000002</ele><time>2026-05-03T15:49:39.755Z</time></trkpt><trkpt lat="38.37438910797801" lon="16.415693106238106"><ele>186.4</ele><time>2026-05-03T15:49:40.755Z</time></trkpt><trkpt lat="38.374318793668415" lon="16.41576840200808"><ele>183.2</ele><time>2026-05-03T15:49:41.755Z</time></trkpt><trkpt lat="38.374244904747734" lon="16.415838094039287"><ele>180.0</ele><time>2026-05-03T15:49:42.755Z</time></trkpt><trkpt lat="38.37416766636799" lon="16.415904635333554"><ele>180.0</ele><time>2026-05-03T15:49:43.755Z</time></trkpt><trkpt lat="38.374094787886484" lon="16.415967838709463"><ele>180.0</ele><time>2026-05-03T15:49:44.755Z</time></trkpt><trkpt lat="38.37402339964031" lon="16.416035124312774"><ele>180.0</ele><time>2026-05-03T15:49:45.755Z</time></trkpt><trkpt lat="38.37396036397773" lon="16.416108452403268"><ele>180.0</ele><time>2026-05-03T15:49:46.755Z</time></trkpt><trkpt lat="38.373899621884036" lon="16.416183942504173"><ele>180.0</ele><time>2026-05-03T15:49:47.755Z</time></trkpt><trkpt lat="38.37383828280388" lon="16.41625706483475"><ele>180.0</ele><time>2026-05-03T15:49:48.755Z</time></trkpt><trkpt lat="38.37377187183157" lon="16.41632439378042"><ele>179.16666666666666</ele><time>2026-05-03T15:49:49.755Z</time></trkpt><trkpt lat="38.37370673670283" lon="16.416390683979316"><ele>178.33333333333334</ele><time>2026-05-03T15:49:50.755Z</time></trkpt><trkpt lat="38.37363551103761" lon="16.416434139723336"><ele>177.5</ele><time>2026-05-03T15:49:51.755Z</time></trkpt><trkpt lat="38.37356261671489" lon="16.416450238628208"><ele>176.66666666666669</ele><time>2026-05-03T15:49:52.755Z</time></trkpt><trkpt lat="38.37349468938791" lon="16.41644613095677"><ele>175.83333333333334</ele><time>2026-05-03T15:49:53.755Z</time></trkpt><trkpt lat="38.37339919699872" lon="16.41638044247424"><ele>175.0</ele><time>2026-05-03T15:49:55.755Z</time></trkpt><trkpt lat="38.37338053920344" lon="16.416226646126578"><ele>172.0</ele><time>2026-05-03T15:49:57.755Z</time></trkpt><trkpt lat="38.37340339173597" lon="16.416151257779674"><ele>169.0</ele><time>2026-05-03T15:49:58.755Z</time></trkpt><trkpt lat="38.37348145671144" lon="16.41602590251031"><ele>166.0</ele><time>2026-05-03T15:50:00.755Z</time></trkpt><trkpt lat="38.37356214707487" lon="16.415906685477463"><ele>163.0</ele><time>2026-05-03T15:50:02.755Z</time></trkpt><trkpt lat="38.37363710130169" lon="16.41578259717126"><ele>160.0</ele><time>2026-05-03T15:50:04.755Z</time></trkpt><trkpt lat="38.37370525866708" lon="16.41566394657093"><ele>160.0</ele><time>2026-05-03T15:50:06.755Z</time></trkpt><trkpt lat="38.373757950154086" lon="16.415565504980957"><ele>160.0</ele><time>2026-05-03T15:50:08.755Z</time></trkpt><trkpt lat="38.3738042186549" lon="16.41545821020457"><ele>160.0</ele><time>2026-05-03T15:50:10.755Z</time></trkpt><trkpt lat="38.3738717305872" lon="16.41534331829601"><ele>160.0</ele><time>2026-05-03T15:50:12.755Z</time></trkpt><trkpt lat="38.373922455387266" lon="16.41529487870034"><ele>160.0</ele><time>2026-05-03T15:50:13.755Z</time></trkpt><trkpt lat="38.37396035666237" lon="16.41522916167445"><ele>160.0</ele><time>2026-05-03T15:50:14.755Z</time></trkpt><trkpt lat="38.37399695419696" lon="16.4151588776791"><ele>160.0</ele><time>2026-05-03T15:50:15.755Z</time></trkpt><trkpt lat="38.37401964266613" lon="16.415079409785708"><ele>160.0</ele><time>2026-05-03T15:50:16.755Z</time></trkpt><trkpt lat="38.374054775531114" lon="16.415011990375525"><ele>160.0</ele><time>2026-05-03T15:50:17.755Z</time></trkpt><trkpt lat="38.37409130218844" lon="16.414944697542577"><ele>160.0</ele><time>2026-05-03T15:50:18.755Z</time></trkpt><trkpt lat="38.37412703008947" lon="16.4148744645104"><ele>160.0</ele><time>2026-05-03T15:50:19.755Z</time></trkpt><trkpt lat="38.374162131562755" lon="16.41479734808984"><ele>160.0</ele><time>2026-05-03T15:50:20.755Z</time></trkpt><trkpt lat="38.3741887780251" lon="16.414712453631633"><ele>160.0</ele><time>2026-05-03T15:50:21.755Z</time></trkpt><trkpt lat="38.374202694374574" lon="16.414624828693125"><ele>160.0</ele><time>2026-05-03T15:50:22.755Z</time></trkpt><trkpt lat="38.37420400015951" lon="16.41453213068681"><ele>160.0</ele><time>2026-05-03T15:50:23.755Z</time></trkpt><trkpt lat="38.374194606695546" lon="16.414437308497774"><ele>160.0</ele><time>2026-05-03T15:50:24.755Z</time></trkpt><trkpt lat="38.37417889808673" lon="16.41434387276147"><ele>160.0</ele><time>2026-05-03T15:50:25.755Z</time></trkpt><trkpt lat="38.37415760748979" lon="16.414250801925732"><ele>160.0</ele><time>2026-05-03T15:50:26.755Z</time></trkpt><trkpt lat="38.37412912976883" lon="16.414161706082833"><ele>160.0</ele><time>2026-05-03T15:50:27.755Z</time></trkpt><trkpt lat="38.374118717977005" lon="16.41406279642731"><ele>160.0</ele><time>2026-05-03T15:50:28.755Z</time></trkpt><trkpt lat="38.37410153496676" lon="16.413971798263418"><ele>160.0</ele><time>2026-05-03T15:50:29.755Z</time></trkpt><trkpt lat="38.374076182068094" lon="16.41388261965923"><ele>160.0</ele><time>2026-05-03T15:50:30.755Z</time></trkpt><trkpt lat="38.3740784434112" lon="16.413785393733026"><ele>160.0</ele><time>2026-05-03T15:50:31.755Z</time></trkpt><trkpt lat="38.374087264323244" lon="16.413691350080825"><ele>160.0</ele><time>2026-05-03T15:50:32.755Z</time></trkpt><trkpt lat="38.37409962114993" lon="16.4135962678988"><ele>160.0</ele><time>2026-05-03T15:50:33.755Z</time></trkpt><trkpt lat="38.37411162029748" lon="16.413497959796576"><ele>159.5</ele><time>2026-05-03T15:50:34.755Z</time></trkpt><trkpt lat="38.374121667836334" lon="16.41339914644903"><ele>159.0</ele><time>2026-05-03T15:50:35.755Z</time></trkpt><trkpt lat="38.37413427632423" lon="16.41330146519732"><ele>158.5</ele><time>2026-05-03T15:50:36.755Z</time></trkpt><trkpt lat="38.374149692293585" lon="16.413205497931596"><ele>158.0</ele><time>2026-05-03T15:50:37.755Z</time></trkpt><trkpt lat="38.37416483697398" lon="16.413109405596"><ele>157.5</ele><time>2026-05-03T15:50:38.755Z</time></trkpt><trkpt lat="38.374178702409196" lon="16.413014554991555"><ele>157.0</ele><time>2026-05-03T15:50:39.755Z</time></trkpt><trkpt lat="38.37419261431451" lon="16.41291675113887"><ele>155.66666666666669</ele><time>2026-05-03T15:50:40.755Z</time></trkpt><trkpt lat="38.37420457169413" lon="16.412820658826952"><ele>154.33333333333334</ele><time>2026-05-03T15:50:41.755Z</time></trkpt><trkpt lat="38.374216255676025" lon="16.412724659370053"><ele>153.0</ele><time>2026-05-03T15:50:42.755Z</time></trkpt><trkpt lat="38.374227525257105" lon="16.41262780124299"><ele>151.66666666666666</ele><time>2026-05-03T15:50:43.755Z</time></trkpt><trkpt lat="38.374235179052654" lon="16.412533159182704"><ele>150.33333333333331</ele><time>2026-05-03T15:50:44.755Z</time></trkpt><trkpt lat="38.37423509296332" lon="16.41243008716782"><ele>149.0</ele><time>2026-05-03T15:50:45.755Z</time></trkpt><trkpt lat="38.37423160190143" lon="16.412323433521234"><ele>149.0</ele><time>2026-05-03T15:50:46.755Z</time></trkpt><trkpt lat="38.37421861422681" lon="16.412220350084525"><ele>149.0</ele><time>2026-05-03T15:50:47.755Z</time></trkpt><trkpt lat="38.37420121031907" lon="16.412118746873062"><ele>149.0</ele><time>2026-05-03T15:50:48.755Z</time></trkpt><trkpt lat="38.374181877028114" lon="16.412015201971986"><ele>149.0</ele><time>2026-05-03T15:50:49.755Z</time></trkpt><trkpt lat="38.37415946238297" lon="16.41191579706123"><ele>149.0</ele><time>2026-05-03T15:50:50.755Z</time></trkpt><trkpt lat="38.37414171630325" lon="16.411818485227943"><ele>149.0</ele><time>2026-05-03T15:50:51.755Z</time></trkpt><trkpt lat="38.37413503570261" lon="16.41172066303636"><ele>148.5</ele><time>2026-05-03T15:50:52.755Z</time></trkpt><trkpt lat="38.374142519736694" lon="16.41162219937314"><ele>148.0</ele><time>2026-05-03T15:50:53.755Z</time></trkpt><trkpt lat="38.374137180176994" lon="16.411518423008225"><ele>147.5</ele><time>2026-05-03T15:50:54.754Z</time></trkpt><trkpt lat="38.374164627923435" lon="16.41142164303543"><ele>147.0</ele><time>2026-05-03T15:50:55.754Z</time></trkpt><trkpt lat="38.37417422120286" lon="16.411323894615474"><ele>146.5</ele><time>2026-05-03T15:50:56.754Z</time></trkpt><trkpt lat="38.37418793323023" lon="16.4112278974841"><ele>146.0</ele><time>2026-05-03T15:50:57.754Z</time></trkpt><trkpt lat="38.37420688266824" lon="16.411139452590156"><ele>145.5</ele><time>2026-05-03T15:50:58.754Z</time></trkpt><trkpt lat="38.37422258401878" lon="16.411048444132355"><ele>145.0</ele><time>2026-05-03T15:50:59.754Z</time></trkpt><trkpt lat="38.37423313814166" lon="16.41095750555109"><ele>144.5</ele><time>2026-05-03T15:51:00.753Z</time></trkpt><trkpt lat="38.37424998944158" lon="16.410865791800273"><ele>144.0</ele><time>2026-05-03T15:51:01.754Z</time></trkpt><trkpt lat="38.37427172301669" lon="16.41077469078943"><ele>143.5</ele><time>2026-05-03T15:51:02.754Z</time></trkpt><trkpt lat="38.374292447485786" lon="16.41068009311782"><ele>143.0</ele><time>2026-05-03T15:51:03.754Z</time></trkpt><trkpt lat="38.37430790541502" lon="16.410580534993354"><ele>142.83333333333331</ele><time>2026-05-03T15:51:04.753Z</time></trkpt><trkpt lat="38.37431960766985" lon="16.410477916411335"><ele>142.66666666666666</ele><time>2026-05-03T15:51:05.753Z</time></trkpt><trkpt lat="38.37433389571985" lon="16.41037526935984"><ele>142.5</ele><time>2026-05-03T15:51:06.754Z</time></trkpt><trkpt lat="38.37435292562354" lon="16.410273074376033"><ele>142.33333333333334</ele><time>2026-05-03T15:51:07.753Z</time></trkpt><trkpt lat="38.3743741278354" lon="16.410170660864225"><ele>142.16666666666669</ele><time>2026-05-03T15:51:08.753Z</time></trkpt><trkpt lat="38.37439276283637" lon="16.4100649567856"><ele>142.0</ele><time>2026-05-03T15:51:09.753Z</time></trkpt><trkpt lat="38.37440964621807" lon="16.409957214780597"><ele>142.0</ele><time>2026-05-03T15:51:10.754Z</time></trkpt><trkpt lat="38.3744235777832" lon="16.409847913807678"><ele>142.0</ele><time>2026-05-03T15:51:11.754Z</time></trkpt><trkpt lat="38.37443921641345" lon="16.40973618161417"><ele>142.0</ele><time>2026-05-03T15:51:12.754Z</time></trkpt><trkpt lat="38.374458365027735" lon="16.40962352937656"><ele>142.0</ele><time>2026-05-03T15:51:13.753Z</time></trkpt><trkpt lat="38.37447716985592" lon="16.4095102071146"><ele>142.0</ele><time>2026-05-03T15:51:14.753Z</time></trkpt><trkpt lat="38.37449268157583" lon="16.409393169705275"><ele>140.6</ele><time>2026-05-03T15:51:15.753Z</time></trkpt><trkpt lat="38.37450566807675" lon="16.40927225707666"><ele>139.2</ele><time>2026-05-03T15:51:16.753Z</time></trkpt><trkpt lat="38.37451561396467" lon="16.409157232819418"><ele>137.8</ele><time>2026-05-03T15:51:17.753Z</time></trkpt><trkpt lat="38.37450568656725" lon="16.409041324811824"><ele>136.4</ele><time>2026-05-03T15:51:18.753Z</time></trkpt><trkpt lat="38.374474277074576" lon="16.408935458553305"><ele>135.0</ele><time>2026-05-03T15:51:19.753Z</time></trkpt><trkpt lat="38.37443300234091" lon="16.408843325027014"><ele>135.5</ele><time>2026-05-03T15:51:20.753Z</time></trkpt><trkpt lat="38.37438346162483" lon="16.408759240878236"><ele>136.0</ele><time>2026-05-03T15:51:21.753Z</time></trkpt><trkpt lat="38.37432028174798" lon="16.40869187395101"><ele>136.5</ele><time>2026-05-03T15:51:22.753Z</time></trkpt><trkpt lat="38.37424992447392" lon="16.408631949009415"><ele>137.0</ele><time>2026-05-03T15:51:23.753Z</time></trkpt><trkpt lat="38.37417620745412" lon="16.40858722792465"><ele>137.5</ele><time>2026-05-03T15:51:24.753Z</time></trkpt><trkpt lat="38.37409988433363" lon="16.408544648052896"><ele>138.0</ele><time>2026-05-03T15:51:25.753Z</time></trkpt><trkpt lat="38.374025137897014" lon="16.408506736367112"><ele>138.0</ele><time>2026-05-03T15:51:26.753Z</time></trkpt><trkpt lat="38.373950313930735" lon="16.40846333353283"><ele>138.0</ele><time>2026-05-03T15:51:27.753Z</time></trkpt><trkpt lat="38.37387372687434" lon="16.408418017209584"><ele>138.0</ele><time>2026-05-03T15:51:28.753Z</time></trkpt><trkpt lat="38.3738054526315" lon="16.408355784303165"><ele>138.0</ele><time>2026-05-03T15:51:29.753Z</time></trkpt><trkpt lat="38.37374650185999" lon="16.40828584700956"><ele>138.0</ele><time>2026-05-03T15:51:30.753Z</time></trkpt><trkpt lat="38.37369190544404" lon="16.408200571344548"><ele>138.0</ele><time>2026-05-03T15:51:31.753Z</time></trkpt><trkpt lat="38.37364738207909" lon="16.408104698858196"><ele>137.28571428571428</ele><time>2026-05-03T15:51:32.753Z</time></trkpt><trkpt lat="38.37360606204525" lon="16.408010488243924"><ele>136.57142857142858</ele><time>2026-05-03T15:51:33.753Z</time></trkpt><trkpt lat="38.373557818373335" lon="16.40793644490347"><ele>135.85714285714286</ele><time>2026-05-03T15:51:34.753Z</time></trkpt><trkpt lat="38.37350026817068" lon="16.407886093105372"><ele>135.14285714285714</ele><time>2026-05-03T15:51:35.753Z</time></trkpt><trkpt lat="38.373447698022" lon="16.40783183298822"><ele>134.42857142857144</ele><time>2026-05-03T15:51:36.753Z</time></trkpt><trkpt lat="38.37338287160549" lon="16.4078258297302"><ele>133.71428571428572</ele><time>2026-05-03T15:51:37.753Z</time></trkpt><trkpt lat="38.37331248939361" lon="16.40786491262843"><ele>133.0</ele><time>2026-05-03T15:51:38.753Z</time></trkpt><trkpt lat="38.37326009506022" lon="16.40792139710368"><ele>133.0</ele><time>2026-05-03T15:51:39.753Z</time></trkpt><trkpt lat="38.37321321854612" lon="16.407993207421455"><ele>133.0</ele><time>2026-05-03T15:51:40.753Z</time></trkpt><trkpt lat="38.373165930333364" lon="16.40806686280272"><ele>133.0</ele><time>2026-05-03T15:51:41.753Z</time></trkpt><trkpt lat="38.373118289991005" lon="16.408140926282428"><ele>133.0</ele><time>2026-05-03T15:51:42.753Z</time></trkpt><trkpt lat="38.37306920069458" lon="16.408216731668183"><ele>133.0</ele><time>2026-05-03T15:51:43.753Z</time></trkpt><trkpt lat="38.37301978942179" lon="16.408285886387418"><ele>133.0</ele><time>2026-05-03T15:51:44.753Z</time></trkpt><trkpt lat="38.37296490219796" lon="16.408348357413868"><ele>133.0</ele><time>2026-05-03T15:51:45.753Z</time></trkpt><trkpt lat="38.372904297103155" lon="16.408400305322502"><ele>130.33333333333334</ele><time>2026-05-03T15:51:46.753Z</time></trkpt><trkpt lat="38.372832504505205" lon="16.408437376509497"><ele>127.66666666666667</ele><time>2026-05-03T15:51:47.753Z</time></trkpt><trkpt lat="38.372754129242054" lon="16.408457141393345"><ele>125.0</ele><time>2026-05-03T15:51:48.753Z</time></trkpt><trkpt lat="38.372669676592956" lon="16.408472901958724"><ele>122.33333333333334</ele><time>2026-05-03T15:51:49.753Z</time></trkpt><trkpt lat="38.37258481125518" lon="16.40848559002878"><ele>119.66666666666667</ele><time>2026-05-03T15:51:50.753Z</time></trkpt><trkpt lat="38.372503094341845" lon="16.40851808833729"><ele>117.0</ele><time>2026-05-03T15:51:51.753Z</time></trkpt><trkpt lat="38.37242542198146" lon="16.408524519151886"><ele>117.0</ele><time>2026-05-03T15:51:52.753Z</time></trkpt><trkpt lat="38.37233375641434" lon="16.408538087238885"><ele>117.0</ele><time>2026-05-03T15:51:54.753Z</time></trkpt><trkpt lat="38.37227057327936" lon="16.408589604490206"><ele>117.0</ele><time>2026-05-03T15:51:58.753Z</time></trkpt><trkpt lat="38.37221662825611" lon="16.40866424735442"><ele>117.0</ele><time>2026-05-03T15:52:01.753Z</time></trkpt><trkpt lat="38.37224596856655" lon="16.40876085180706"><ele>117.0</ele><time>2026-05-03T15:52:02.753Z</time></trkpt><trkpt lat="38.37224689152793" lon="16.408889862819894"><ele>117.0</ele><time>2026-05-03T15:52:04.753Z</time></trkpt><trkpt lat="38.37224698483321" lon="16.409057229972106"><ele>116.6</ele><time>2026-05-03T15:52:06.753Z</time></trkpt><trkpt lat="38.37224552623358" lon="16.409147801493944"><ele>116.19999999999999</ele><time>2026-05-03T15:52:07.753Z</time></trkpt><trkpt lat="38.372244697080866" lon="16.409230314357035"><ele>115.8</ele><time>2026-05-03T15:52:08.753Z</time></trkpt><trkpt lat="38.37224373094087" lon="16.409380720993525"><ele>115.4</ele><time>2026-05-03T15:52:10.752Z</time></trkpt><trkpt lat="38.3722487411364" lon="16.409506729500443"><ele>115.0</ele><time>2026-05-03T15:52:12.752Z</time></trkpt><trkpt lat="38.372250833537485" lon="16.409640937936228"><ele>115.4</ele><time>2026-05-03T15:52:14.752Z</time></trkpt><trkpt lat="38.37225175666394" lon="16.409785692465444"><ele>115.8</ele><time>2026-05-03T15:52:16.752Z</time></trkpt><trkpt lat="38.37224393593195" lon="16.40993969415976"><ele>116.19999999999999</ele><time>2026-05-03T15:52:18.752Z</time></trkpt><trkpt lat="38.37223745098856" lon="16.410099208297847"><ele>116.6</ele><time>2026-05-03T15:52:20.752Z</time></trkpt><trkpt lat="38.372231068001085" lon="16.41018255136504"><ele>117.0</ele><time>2026-05-03T15:52:21.752Z</time></trkpt><trkpt lat="38.37221981276443" lon="16.41026714681845"><ele>117.0</ele><time>2026-05-03T15:52:22.752Z</time></trkpt><trkpt lat="38.37219859128546" lon="16.410354145624453"><ele>117.00000000000001</ele><time>2026-05-03T15:52:23.752Z</time></trkpt><trkpt lat="38.37217262081568" lon="16.410436771329163"><ele>117.0</ele><time>2026-05-03T15:52:24.752Z</time></trkpt><trkpt lat="38.372140359523165" lon="16.410511391549303"><ele>117.0</ele><time>2026-05-03T15:52:25.752Z</time></trkpt><trkpt lat="38.372102603347635" lon="16.41058113424618"><ele>117.00000000000001</ele><time>2026-05-03T15:52:26.752Z</time></trkpt><trkpt lat="38.37206304422515" lon="16.41064368212428"><ele>117.0</ele><time>2026-05-03T15:52:27.752Z</time></trkpt><trkpt lat="38.37202391388575" lon="16.41070969511385"><ele>117.0</ele><time>2026-05-03T15:52:28.752Z</time></trkpt><trkpt lat="38.371990516628024" lon="16.410780757582533"><ele>116.16666666666667</ele><time>2026-05-03T15:52:29.752Z</time></trkpt><trkpt lat="38.37196286475875" lon="16.410857133978514"><ele>115.33333333333334</ele><time>2026-05-03T15:52:30.752Z</time></trkpt><trkpt lat="38.371936753726835" lon="16.411015873076156"><ele>114.5</ele><time>2026-05-03T15:52:32.752Z</time></trkpt><trkpt lat="38.37193194365161" lon="16.411100681340095"><ele>113.66666666666667</ele><time>2026-05-03T15:52:33.752Z</time></trkpt><trkpt lat="38.37192965551971" lon="16.4111860902807"><ele>112.83333333333334</ele><time>2026-05-03T15:52:34.752Z</time></trkpt><trkpt lat="38.37192983273437" lon="16.411273827437952"><ele>112.0</ele><time>2026-05-03T15:52:35.752Z</time></trkpt><trkpt lat="38.371930258637605" lon="16.411363455826983"><ele>112.00000000000001</ele><time>2026-05-03T15:52:36.752Z</time></trkpt><trkpt lat="38.37193079252597" lon="16.411455384471417"><ele>112.0</ele><time>2026-05-03T15:52:37.752Z</time></trkpt><trkpt lat="38.3719292436737" lon="16.411549900992423"><ele>112.0</ele><time>2026-05-03T15:52:38.752Z</time></trkpt><trkpt lat="38.3719296308383" lon="16.41164961692939"><ele>112.0</ele><time>2026-05-03T15:52:39.752Z</time></trkpt><trkpt lat="38.371929592657935" lon="16.411747265613243"><ele>112.00000000000001</ele><time>2026-05-03T15:52:40.752Z</time></trkpt><trkpt lat="38.37192877304002" lon="16.411844597099435"><ele>112.0</ele><time>2026-05-03T15:52:41.752Z</time></trkpt><trkpt lat="38.37192776157816" lon="16.411938222721307"><ele>112.00000000000001</ele><time>2026-05-03T15:52:42.752Z</time></trkpt><trkpt lat="38.37192920272211" lon="16.41203803408527"><ele>112.0</ele><time>2026-05-03T15:52:43.752Z</time></trkpt><trkpt lat="38.371928792868985" lon="16.412144626351747"><ele>112.0</ele><time>2026-05-03T15:52:44.752Z</time></trkpt><trkpt lat="38.371927178420464" lon="16.412255140247833"><ele>112.0</ele><time>2026-05-03T15:52:45.752Z</time></trkpt><trkpt lat="38.37192612236787" lon="16.412371124991672"><ele>112.00000000000001</ele><time>2026-05-03T15:52:46.752Z</time></trkpt><trkpt lat="38.371925645517614" lon="16.412488671922315"><ele>112.0</ele><time>2026-05-03T15:52:47.752Z</time></trkpt><trkpt lat="38.37192704582345" lon="16.412607293628113"><ele>111.6</ele><time>2026-05-03T15:52:48.752Z</time></trkpt><trkpt lat="38.371923904287726" lon="16.41272172023264"><ele>111.19999999999999</ele><time>2026-05-03T15:52:49.752Z</time></trkpt><trkpt lat="38.371917673418245" lon="16.412837451974283"><ele>110.8</ele><time>2026-05-03T15:52:50.752Z</time></trkpt><trkpt lat="38.37189801614296" lon="16.412949210557205"><ele>110.4</ele><time>2026-05-03T15:52:51.752Z</time></trkpt><trkpt lat="38.371861436423565" lon="16.41305242752281"><ele>110.0</ele><time>2026-05-03T15:52:52.752Z</time></trkpt><trkpt lat="38.37181088337941" lon="16.413148675987433"><ele>109.8</ele><time>2026-05-03T15:52:53.752Z</time></trkpt><trkpt lat="38.371747367092276" lon="16.413242644372165"><ele>109.6</ele><time>2026-05-03T15:52:54.752Z</time></trkpt><trkpt lat="38.37167953071841" lon="16.413330255155877"><ele>109.4</ele><time>2026-05-03T15:52:55.752Z</time></trkpt><trkpt lat="38.371606137627296" lon="16.413410038843175"><ele>109.2</ele><time>2026-05-03T15:52:56.752Z</time></trkpt><trkpt lat="38.37153362109355" lon="16.41348815845186"><ele>109.0</ele><time>2026-05-03T15:52:57.752Z</time></trkpt><trkpt lat="38.37146293223515" lon="16.413572699710407"><ele>109.0</ele><time>2026-05-03T15:52:58.752Z</time></trkpt><trkpt lat="38.37138800205441" lon="16.4136572820895"><ele>109.0</ele><time>2026-05-03T15:52:59.752Z</time></trkpt><trkpt lat="38.37131048642161" lon="16.41373840975315"><ele>109.0</ele><time>2026-05-03T15:53:00.752Z</time></trkpt><trkpt lat="38.37123589858988" lon="16.413822027128333"><ele>109.0</ele><time>2026-05-03T15:53:01.752Z</time></trkpt><trkpt lat="38.37116435941657" lon="16.41391066186612"><ele>109.0</ele><time>2026-05-03T15:53:02.752Z</time></trkpt><trkpt lat="38.37109779838456" lon="16.41400680411095"><ele>108.0</ele><time>2026-05-03T15:53:03.752Z</time></trkpt><trkpt lat="38.37103764330074" lon="16.414105669444734"><ele>107.0</ele><time>2026-05-03T15:53:04.752Z</time></trkpt><trkpt lat="38.37098320903458" lon="16.41420943432036"><ele>106.0</ele><time>2026-05-03T15:53:05.752Z</time></trkpt><trkpt lat="38.37093273239389" lon="16.414315913494303"><ele>105.0</ele><time>2026-05-03T15:53:06.752Z</time></trkpt><trkpt lat="38.37088426901193" lon="16.414424418928593"><ele>104.0</ele><time>2026-05-03T15:53:07.752Z</time></trkpt><trkpt lat="38.37083504239903" lon="16.414532773316807"><ele>104.0</ele><time>2026-05-03T15:53:08.752Z</time></trkpt><trkpt lat="38.370782049045104" lon="16.41464530429985"><ele>104.0</ele><time>2026-05-03T15:53:09.751Z</time></trkpt><trkpt lat="38.370727844089494" lon="16.414752593767894"><ele>104.0</ele><time>2026-05-03T15:53:10.751Z</time></trkpt><trkpt lat="38.37067330612977" lon="16.4148611623308"><ele>104.0</ele><time>2026-05-03T15:53:11.751Z</time></trkpt><trkpt lat="38.370620611747796" lon="16.414971116573323"><ele>104.0</ele><time>2026-05-03T15:53:12.751Z</time></trkpt><trkpt lat="38.37056673138564" lon="16.41508175580229"><ele>103.4</ele><time>2026-05-03T15:53:13.751Z</time></trkpt><trkpt lat="38.370508372040234" lon="16.415190902026797"><ele>102.80000000000001</ele><time>2026-05-03T15:53:14.751Z</time></trkpt><trkpt lat="38.37044470974316" lon="16.415296166481777"><ele>102.19999999999999</ele><time>2026-05-03T15:53:15.751Z</time></trkpt><trkpt lat="38.37037333073326" lon="16.415393948675863"><ele>101.6</ele><time>2026-05-03T15:53:16.751Z</time></trkpt><trkpt lat="38.37029148481296" lon="16.415471908525294"><ele>101.0</ele><time>2026-05-03T15:53:17.751Z</time></trkpt><trkpt lat="38.37020394664657" lon="16.41554418315259"><ele>101.0</ele><time>2026-05-03T15:53:18.751Z</time></trkpt><trkpt lat="38.370117736401994" lon="16.415618650495542"><ele>101.0</ele><time>2026-05-03T15:53:19.751Z</time></trkpt><trkpt lat="38.3700361244256" lon="16.41569820346937"><ele>101.0</ele><time>2026-05-03T15:53:20.751Z</time></trkpt><trkpt lat="38.369962206371646" lon="16.415784704161375"><ele>101.0</ele><time>2026-05-03T15:53:21.751Z</time></trkpt><trkpt lat="38.36989338595441" lon="16.415877033173818"><ele>101.0</ele><time>2026-05-03T15:53:22.751Z</time></trkpt><trkpt lat="38.36982869520647" lon="16.415973124696382"><ele>101.0</ele><time>2026-05-03T15:53:23.751Z</time></trkpt><trkpt lat="38.36976877048724" lon="16.416073635550028"><ele>101.0</ele><time>2026-05-03T15:53:24.751Z</time></trkpt><trkpt lat="38.36971106512664" lon="16.41617614590187"><ele>101.0</ele><time>2026-05-03T15:53:25.751Z</time></trkpt><trkpt lat="38.36965389570228" lon="16.416282127586847"><ele>101.0</ele><time>2026-05-03T15:53:26.751Z</time></trkpt><trkpt lat="38.36959744044858" lon="16.416388636018546"><ele>101.0</ele><time>2026-05-03T15:53:27.751Z</time></trkpt><trkpt lat="38.369538047483275" lon="16.41649255756852"><ele>99.6</ele><time>2026-05-03T15:53:28.751Z</time></trkpt><trkpt lat="38.369478752483275" lon="16.416597821076333"><ele>98.19999999999999</ele><time>2026-05-03T15:53:29.751Z</time></trkpt><trkpt lat="38.36941798777925" lon="16.416705770552756"><ele>96.80000000000001</ele><time>2026-05-03T15:53:30.751Z</time></trkpt><trkpt lat="38.3693556694159" lon="16.416814800780166"><ele>95.4</ele><time>2026-05-03T15:53:31.751Z</time></trkpt><trkpt lat="38.36929237694548" lon="16.416925365646875"><ele>94.0</ele><time>2026-05-03T15:53:32.751Z</time></trkpt><trkpt lat="38.369227201314594" lon="16.41703729265696"><ele>94.0</ele><time>2026-05-03T15:53:33.751Z</time></trkpt><trkpt lat="38.3691647508595" lon="16.4171512417646"><ele>94.0</ele><time>2026-05-03T15:53:34.751Z</time></trkpt><trkpt lat="38.36910046398855" lon="16.41726476731366"><ele>94.0</ele><time>2026-05-03T15:53:35.751Z</time></trkpt><trkpt lat="38.36903465670681" lon="16.4173803224005"><ele>94.0</ele><time>2026-05-03T15:53:36.751Z</time></trkpt><trkpt lat="38.36897220458328" lon="16.41749839833402"><ele>94.0</ele><time>2026-05-03T15:53:37.751Z</time></trkpt><trkpt lat="38.36890784990295" lon="16.41761384713266"><ele>93.25</ele><time>2026-05-03T15:53:38.751Z</time></trkpt><trkpt lat="38.368840305547415" lon="16.41772998026716"><ele>92.5</ele><time>2026-05-03T15:53:39.824Z</time></trkpt><trkpt lat="38.36877278650305" lon="16.41784569128126"><ele>91.75</ele><time>2026-05-03T15:53:40.824Z</time></trkpt><trkpt lat="38.368706321223925" lon="16.417963821060056"><ele>91.0</ele><time>2026-05-03T15:53:41.824Z</time></trkpt><trkpt lat="38.36864122591841" lon="16.418079201294447"><ele>91.0</ele><time>2026-05-03T15:53:42.824Z</time></trkpt><trkpt lat="38.3685745897729" lon="16.418195424515797"><ele>91.0</ele><time>2026-05-03T15:53:43.824Z</time></trkpt><trkpt lat="38.36850682222278" lon="16.418313561476673"><ele>91.0</ele><time>2026-05-03T15:53:44.824Z</time></trkpt><trkpt lat="38.36843979306895" lon="16.41843282933593"><ele>91.0</ele><time>2026-05-03T15:53:45.824Z</time></trkpt><trkpt lat="38.36837369738039" lon="16.41855046785327"><ele>91.0</ele><time>2026-05-03T15:53:46.824Z</time></trkpt><trkpt lat="38.36830849967932" lon="16.418669502186635"><ele>91.0</ele><time>2026-05-03T15:53:47.824Z</time></trkpt><trkpt lat="38.368243020737104" lon="16.418785516851433"><ele>91.0</ele><time>2026-05-03T15:53:48.825Z</time></trkpt><trkpt lat="38.36817720508306" lon="16.418900325941106"><ele>91.0</ele><time>2026-05-03T15:53:49.825Z</time></trkpt><trkpt lat="38.368113805380595" lon="16.419015190752738"><ele>91.0</ele><time>2026-05-03T15:53:50.825Z</time></trkpt><trkpt lat="38.368050598883485" lon="16.419128900376986"><ele>90.8</ele><time>2026-05-03T15:53:51.825Z</time></trkpt><trkpt lat="38.36798761552962" lon="16.41923744629012"><ele>90.6</ele><time>2026-05-03T15:53:52.825Z</time></trkpt><trkpt lat="38.367928348339696" lon="16.41934683230977"><ele>90.4</ele><time>2026-05-03T15:53:53.825Z</time></trkpt><trkpt lat="38.36786472970984" lon="16.41945067487436"><ele>90.2</ele><time>2026-05-03T15:53:54.825Z</time></trkpt><trkpt lat="38.36779899889214" lon="16.419549512903767"><ele>90.0</ele><time>2026-05-03T15:53:55.825Z</time></trkpt><trkpt lat="38.36772716351966" lon="16.419648632484698"><ele>90.4</ele><time>2026-05-03T15:53:56.825Z</time></trkpt><trkpt lat="38.367648678870566" lon="16.41973556917241"><ele>90.8</ele><time>2026-05-03T15:53:57.825Z</time></trkpt><trkpt lat="38.36756589125303" lon="16.419818624755806"><ele>91.19999999999999</ele><time>2026-05-03T15:53:58.825Z</time></trkpt><trkpt lat="38.36748137959172" lon="16.419901101537867"><ele>91.6</ele><time>2026-05-03T15:53:59.825Z</time></trkpt><trkpt lat="38.36739091145383" lon="16.419978839929293"><ele>92.0</ele><time>2026-05-03T15:54:00.825Z</time></trkpt><trkpt lat="38.3672953367474" lon="16.42005603464785"><ele>92.0</ele><time>2026-05-03T15:54:01.825Z</time></trkpt><trkpt lat="38.367203648499746" lon="16.420135531064222"><ele>92.0</ele><time>2026-05-03T15:54:02.825Z</time></trkpt><trkpt lat="38.367112702765134" lon="16.420213131184763"><ele>92.0</ele><time>2026-05-03T15:54:03.825Z</time></trkpt><trkpt lat="38.36702355131151" lon="16.42028847355653"><ele>92.0</ele><time>2026-05-03T15:54:04.825Z</time></trkpt><trkpt lat="38.36693955316449" lon="16.42037226489013"><ele>92.0</ele><time>2026-05-03T15:54:05.825Z</time></trkpt><trkpt lat="38.36686146877716" lon="16.42045939179446"><ele>91.19999999999999</ele><time>2026-05-03T15:54:06.825Z</time></trkpt><trkpt lat="38.36678393013659" lon="16.420550245393624"><ele>90.4</ele><time>2026-05-03T15:54:07.825Z</time></trkpt><trkpt lat="38.36670837972056" lon="16.420637642625355"><ele>89.6</ele><time>2026-05-03T15:54:08.825Z</time></trkpt><trkpt lat="38.3666346310873" lon="16.42072918288709"><ele>88.80000000000001</ele><time>2026-05-03T15:54:09.825Z</time></trkpt><trkpt lat="38.36656153530115" lon="16.42082232412563"><ele>88.0</ele><time>2026-05-03T15:54:10.825Z</time></trkpt><trkpt lat="38.36648828634633" lon="16.420914399835194"><ele>88.0</ele><time>2026-05-03T15:54:11.825Z</time></trkpt><trkpt lat="38.3664145143879" lon="16.42100876538689"><ele>88.0</ele><time>2026-05-03T15:54:12.825Z</time></trkpt><trkpt lat="38.36633993105006" lon="16.421103440531045"><ele>88.0</ele><time>2026-05-03T15:54:13.825Z</time></trkpt><trkpt lat="38.366264076687045" lon="16.42119909890432"><ele>88.0</ele><time>2026-05-03T15:54:14.825Z</time></trkpt><trkpt lat="38.3661900870284" lon="16.421298966377226"><ele>88.0</ele><time>2026-05-03T15:54:15.825Z</time></trkpt><trkpt lat="38.36611265172536" lon="16.421395506116856"><ele>87.2</ele><time>2026-05-03T15:54:16.825Z</time></trkpt><trkpt lat="38.366031584920655" lon="16.421491491875454"><ele>86.4</ele><time>2026-05-03T15:54:17.825Z</time></trkpt><trkpt lat="38.365950933885884" lon="16.42159064407428"><ele>85.60000000000001</ele><time>2026-05-03T15:54:18.825Z</time></trkpt><trkpt lat="38.36587198363662" lon="16.42169307600012"><ele>84.80000000000001</ele><time>2026-05-03T15:54:19.825Z</time></trkpt><trkpt lat="38.36579314185779" lon="16.42179719887028"><ele>84.0</ele><time>2026-05-03T15:54:20.825Z</time></trkpt><trkpt lat="38.36571282187478" lon="16.42189914329883"><ele>84.0</ele><time>2026-05-03T15:54:21.825Z</time></trkpt><trkpt lat="38.365630729200795" lon="16.422002132252892"><ele>84.0</ele><time>2026-05-03T15:54:22.825Z</time></trkpt><trkpt lat="38.36554820267828" lon="16.422105066513954"><ele>84.0</ele><time>2026-05-03T15:54:23.825Z</time></trkpt><trkpt lat="38.36546691106393" lon="16.422207243801225"><ele>84.0</ele><time>2026-05-03T15:54:24.825Z</time></trkpt><trkpt lat="38.36538601288923" lon="16.422311600221438"><ele>83.0</ele><time>2026-05-03T15:54:25.825Z</time></trkpt><trkpt lat="38.36530443487605" lon="16.422416150942823"><ele>82.0</ele><time>2026-05-03T15:54:26.825Z</time></trkpt><trkpt lat="38.36522282888811" lon="16.42252008684083"><ele>81.0</ele><time>2026-05-03T15:54:27.825Z</time></trkpt><trkpt lat="38.36514225972534" lon="16.422623896924346"><ele>80.0</ele><time>2026-05-03T15:54:28.825Z</time></trkpt><trkpt lat="38.36506416624451" lon="16.422729520707378"><ele>80.0</ele><time>2026-05-03T15:54:29.825Z</time></trkpt><trkpt lat="38.3649888654859" lon="16.422837178423034"><ele>80.0</ele><time>2026-05-03T15:54:30.825Z</time></trkpt><trkpt lat="38.364913867601096" lon="16.4229432568798"><ele>80.0</ele><time>2026-05-03T15:54:31.825Z</time></trkpt><trkpt lat="38.36483855346832" lon="16.42304766715266"><ele>80.0</ele><time>2026-05-03T15:54:32.825Z</time></trkpt><trkpt lat="38.364763989467015" lon="16.423155393255097"><ele>80.0</ele><time>2026-05-03T15:54:33.825Z</time></trkpt><trkpt lat="38.364689242137935" lon="16.423263679393443"><ele>79.0</ele><time>2026-05-03T15:54:34.825Z</time></trkpt><trkpt lat="38.36461310779177" lon="16.423370742648032"><ele>78.0</ele><time>2026-05-03T15:54:35.825Z</time></trkpt><trkpt lat="38.364525485136745" lon="16.423461659343"><ele>77.0</ele><time>2026-05-03T15:54:36.825Z</time></trkpt><trkpt lat="38.364449627660974" lon="16.42357410734995"><ele>76.0</ele><time>2026-05-03T15:54:37.825Z</time></trkpt><trkpt lat="38.364374207728176" lon="16.423686159090202"><ele>76.0</ele><time>2026-05-03T15:54:38.825Z</time></trkpt><trkpt lat="38.36430050418665" lon="16.423801619262232"><ele>76.0</ele><time>2026-05-03T15:54:39.825Z</time></trkpt><trkpt lat="38.36422241435596" lon="16.423915239701714"><ele>76.0</ele><time>2026-05-03T15:54:40.825Z</time></trkpt><trkpt lat="38.3641440504766" lon="16.424030037196648"><ele>76.0</ele><time>2026-05-03T15:54:41.825Z</time></trkpt><trkpt lat="38.364065022632516" lon="16.424138816861095"><ele>76.0</ele><time>2026-05-03T15:54:42.825Z</time></trkpt><trkpt lat="38.36398053265799" lon="16.424246630261262"><ele>76.0</ele><time>2026-05-03T15:54:43.825Z</time></trkpt><trkpt lat="38.363890525189966" lon="16.424353441046406"><ele>76.0</ele><time>2026-05-03T15:54:44.825Z</time></trkpt><trkpt lat="38.36379561357603" lon="16.424454466363112"><ele>76.0</ele><time>2026-05-03T15:54:45.825Z</time></trkpt><trkpt lat="38.36369845024304" lon="16.424545191000345"><ele>76.25</ele><time>2026-05-03T15:54:46.825Z</time></trkpt><trkpt lat="38.36360115387619" lon="16.424635573730747"><ele>76.5</ele><time>2026-05-03T15:54:47.825Z</time></trkpt><trkpt lat="38.363500033861484" lon="16.42472678926105"><ele>76.75</ele><time>2026-05-03T15:54:48.825Z</time></trkpt><trkpt lat="38.363399092972735" lon="16.42482237823893"><ele>77.0</ele><time>2026-05-03T15:54:49.825Z</time></trkpt><trkpt lat="38.36329782894894" lon="16.424917668372398"><ele>77.0</ele><time>2026-05-03T15:54:50.825Z</time></trkpt><trkpt lat="38.36319721544941" lon="16.42501067399441"><ele>77.0</ele><time>2026-05-03T15:54:51.825Z</time></trkpt><trkpt lat="38.36309686383447" lon="16.425103150470864"><ele>77.0</ele><time>2026-05-03T15:54:52.825Z</time></trkpt><trkpt lat="38.36299473457167" lon="16.42519494513399"><ele>77.0</ele><time>2026-05-03T15:54:53.825Z</time></trkpt><trkpt lat="38.36289349638479" lon="16.425289085577308"><ele>77.25</ele><time>2026-05-03T15:54:54.825Z</time></trkpt><trkpt lat="38.362792193947136" lon="16.425385481917978"><ele>77.5</ele><time>2026-05-03T15:54:55.825Z</time></trkpt><trkpt lat="38.36268950157486" lon="16.42548383730836"><ele>77.75</ele><time>2026-05-03T15:54:56.825Z</time></trkpt><trkpt lat="38.36258600268771" lon="16.425581811420933"><ele>78.0</ele><time>2026-05-03T15:54:57.825Z</time></trkpt><trkpt lat="38.36247841954449" lon="16.425676850397494"><ele>78.0</ele><time>2026-05-03T15:54:58.825Z</time></trkpt><trkpt lat="38.362369251306085" lon="16.425770839707344"><ele>78.0</ele><time>2026-05-03T15:54:59.825Z</time></trkpt><trkpt lat="38.362262904631784" lon="16.425872913840653"><ele>78.0</ele><time>2026-05-03T15:55:00.825Z</time></trkpt><trkpt lat="38.36215577523062" lon="16.425978501458907"><ele>78.0</ele><time>2026-05-03T15:55:01.825Z</time></trkpt><trkpt lat="38.362047088924925" lon="16.42607954685832"><ele>77.5</ele><time>2026-05-03T15:55:02.825Z</time></trkpt><trkpt lat="38.36193632443104" lon="16.426177631592182"><ele>77.0</ele><time>2026-05-03T15:55:03.825Z</time></trkpt><trkpt lat="38.361828229420205" lon="16.426277925150117"><ele>76.5</ele><time>2026-05-03T15:55:04.825Z</time></trkpt><trkpt lat="38.361721042185856" lon="16.426381318945804"><ele>76.0</ele><time>2026-05-03T15:55:05.825Z</time></trkpt><trkpt lat="38.36161205913773" lon="16.426481508085278"><ele>76.0</ele><time>2026-05-03T15:55:06.825Z</time></trkpt><trkpt lat="38.36150275434858" lon="16.426579226714484"><ele>76.0</ele><time>2026-05-03T15:55:07.825Z</time></trkpt><trkpt lat="38.36139395532992" lon="16.42667427132105"><ele>76.0</ele><time>2026-05-03T15:55:08.825Z</time></trkpt><trkpt lat="38.3612878405072" lon="16.42677066346184"><ele>76.0</ele><time>2026-05-03T15:55:09.825Z</time></trkpt><trkpt lat="38.36118272226978" lon="16.426868236409604"><ele>75.75</ele><time>2026-05-03T15:55:10.825Z</time></trkpt><trkpt lat="38.36107866351698" lon="16.426965067179797"><ele>75.5</ele><time>2026-05-03T15:55:11.825Z</time></trkpt><trkpt lat="38.360973421169014" lon="16.427056679828784"><ele>75.25</ele><time>2026-05-03T15:55:12.824Z</time></trkpt><trkpt lat="38.360869256339214" lon="16.427149450696596"><ele>75.0</ele><time>2026-05-03T15:55:13.825Z</time></trkpt><trkpt lat="38.360769037556665" lon="16.42724762374564"><ele>75.0</ele><time>2026-05-03T15:55:14.825Z</time></trkpt><trkpt lat="38.36067530633963" lon="16.427350097741247"><ele>75.0</ele><time>2026-05-03T15:55:15.824Z</time></trkpt><trkpt lat="38.36058770538113" lon="16.427461929812257"><ele>75.0</ele><time>2026-05-03T15:55:16.825Z</time></trkpt><trkpt lat="38.36050738469554" lon="16.427579295672214"><ele>75.0</ele><time>2026-05-03T15:55:17.825Z</time></trkpt><trkpt lat="38.36043235523781" lon="16.427699769707665"><ele>73.75</ele><time>2026-05-03T15:55:18.825Z</time></trkpt><trkpt lat="38.360360103762005" lon="16.427820813574844"><ele>72.5</ele><time>2026-05-03T15:55:19.825Z</time></trkpt><trkpt lat="38.36028534650705" lon="16.427935726173065"><ele>71.25</ele><time>2026-05-03T15:55:20.825Z</time></trkpt><trkpt lat="38.36021003658376" lon="16.428050641644806"><ele>70.0</ele><time>2026-05-03T15:55:21.825Z</time></trkpt><trkpt lat="38.3601347746275" lon="16.428161896226545"><ele>70.0</ele><time>2026-05-03T15:55:22.824Z</time></trkpt><trkpt lat="38.36006046882779" lon="16.428269711360116"><ele>70.0</ele><time>2026-05-03T15:55:23.824Z</time></trkpt><trkpt lat="38.359980439342536" lon="16.428369609814958"><ele>70.0</ele><time>2026-05-03T15:55:24.825Z</time></trkpt><trkpt lat="38.35989190698577" lon="16.42844592326481"><ele>70.0</ele><time>2026-05-03T15:55:25.825Z</time></trkpt><trkpt lat="38.359803927706146" lon="16.428490698827297"><ele>70.0</ele><time>2026-05-03T15:55:26.825Z</time></trkpt><trkpt lat="38.35972263274926" lon="16.428500025913802"><ele>69.66666666666666</ele><time>2026-05-03T15:55:27.825Z</time></trkpt><trkpt lat="38.359641147309326" lon="16.428485925901413"><ele>69.33333333333333</ele><time>2026-05-03T15:55:28.825Z</time></trkpt><trkpt lat="38.359560531490345" lon="16.428464703209652"><ele>69.0</ele><time>2026-05-03T15:55:29.825Z</time></trkpt><trkpt lat="38.35947907546096" lon="16.428443239186755"><ele>68.66666666666667</ele><time>2026-05-03T15:55:30.825Z</time></trkpt><trkpt lat="38.35939577980655" lon="16.42842497683368"><ele>68.33333333333334</ele><time>2026-05-03T15:55:31.825Z</time></trkpt><trkpt lat="38.35931139596823" lon="16.428403174400486"><ele>68.0</ele><time>2026-05-03T15:55:32.825Z</time></trkpt><trkpt lat="38.35922249767965" lon="16.42838301839293"><ele>68.0</ele><time>2026-05-03T15:55:33.825Z</time></trkpt><trkpt lat="38.359131787274215" lon="16.42836620393558"><ele>68.0</ele><time>2026-05-03T15:55:34.825Z</time></trkpt><trkpt lat="38.35904333989819" lon="16.42834510566469"><ele>68.0</ele><time>2026-05-03T15:55:35.825Z</time></trkpt><trkpt lat="38.35895300175096" lon="16.428322420657768"><ele>68.0</ele><time>2026-05-03T15:55:36.825Z</time></trkpt><trkpt lat="38.35886106982306" lon="16.428298889412947"><ele>68.0</ele><time>2026-05-03T15:55:37.825Z</time></trkpt><trkpt lat="38.3587676772353" lon="16.428283920085097"><ele>67.0</ele><time>2026-05-03T15:55:38.825Z</time></trkpt><trkpt lat="38.358671358680105" lon="16.428287344850016"><ele>66.0</ele><time>2026-05-03T15:55:39.825Z</time></trkpt><trkpt lat="38.35857654777824" lon="16.428322221176444"><ele>65.0</ele><time>2026-05-03T15:55:40.825Z</time></trkpt><trkpt lat="38.35849053954488" lon="16.428385728038602"><ele>64.0</ele><time>2026-05-03T15:55:41.825Z</time></trkpt><trkpt lat="38.35841234267241" lon="16.428469690305107"><ele>63.0</ele><time>2026-05-03T15:55:42.825Z</time></trkpt><trkpt lat="38.35833379166618" lon="16.428567714987604"><ele>63.0</ele><time>2026-05-03T15:55:43.825Z</time></trkpt><trkpt lat="38.35823821345939" lon="16.428655480591715"><ele>63.0</ele><time>2026-05-03T15:55:44.825Z</time></trkpt><trkpt lat="38.35815720240925" lon="16.42875872413544"><ele>63.0</ele><time>2026-05-03T15:55:45.825Z</time></trkpt><trkpt lat="38.35807309219282" lon="16.428861893131877"><ele>63.0</ele><time>2026-05-03T15:55:46.825Z</time></trkpt><trkpt lat="38.35798900338254" lon="16.428967213963382"><ele>63.0</ele><time>2026-05-03T15:55:47.825Z</time></trkpt><trkpt lat="38.35790426547996" lon="16.429074657112825"><ele>63.0</ele><time>2026-05-03T15:55:48.825Z</time></trkpt><trkpt lat="38.35782116708128" lon="16.429182092054166"><ele>63.0</ele><time>2026-05-03T15:55:49.825Z</time></trkpt><trkpt lat="38.357738273738875" lon="16.42928937914168"><ele>63.0</ele><time>2026-05-03T15:55:50.825Z</time></trkpt><trkpt lat="38.35765608216633" lon="16.42939727945612"><ele>63.0</ele><time>2026-05-03T15:55:51.825Z</time></trkpt><trkpt lat="38.35757883409089" lon="16.429506629121818"><ele>63.0</ele><time>2026-05-03T15:55:52.825Z</time></trkpt><trkpt lat="38.35750888011292" lon="16.429618470218905"><ele>63.0</ele><time>2026-05-03T15:55:53.825Z</time></trkpt><trkpt lat="38.35744659511185" lon="16.429733900123896"><ele>63.0</ele><time>2026-05-03T15:55:54.825Z</time></trkpt><trkpt lat="38.35739395597082" lon="16.429851567832067"><ele>63.0</ele><time>2026-05-03T15:55:55.825Z</time></trkpt><trkpt lat="38.35734763957228" lon="16.429970481989766"><ele>64.8</ele><time>2026-05-03T15:55:56.825Z</time></trkpt><trkpt lat="38.357307954110205" lon="16.43009311498285"><ele>66.6</ele><time>2026-05-03T15:55:57.825Z</time></trkpt><trkpt lat="38.357268930480096" lon="16.43021050906447"><ele>68.4</ele><time>2026-05-03T15:55:58.825Z</time></trkpt><trkpt lat="38.3572389810487" lon="16.430336307564808"><ele>70.2</ele><time>2026-05-03T15:55:59.825Z</time></trkpt><trkpt lat="38.35722693292137" lon="16.43046915923908"><ele>72.0</ele><time>2026-05-03T15:56:00.825Z</time></trkpt><trkpt lat="38.357230609298014" lon="16.430607252721153"><ele>72.0</ele><time>2026-05-03T15:56:01.825Z</time></trkpt><trkpt lat="38.35723987140786" lon="16.43074262871"><ele>72.0</ele><time>2026-05-03T15:56:02.825Z</time></trkpt><trkpt lat="38.357256141664976" lon="16.4308780041173"><ele>72.0</ele><time>2026-05-03T15:56:03.825Z</time></trkpt><trkpt lat="38.35727541743297" lon="16.43100891539324"><ele>72.0</ele><time>2026-05-03T15:56:04.825Z</time></trkpt><trkpt lat="38.357296915577955" lon="16.431140912790774"><ele>72.0</ele><time>2026-05-03T15:56:05.825Z</time></trkpt><trkpt lat="38.35732154421219" lon="16.43126969446559"><ele>71.4</ele><time>2026-05-03T15:56:06.825Z</time></trkpt><trkpt lat="38.357343458769115" lon="16.43139620314435"><ele>70.80000000000001</ele><time>2026-05-03T15:56:07.825Z</time></trkpt><trkpt lat="38.35736246926752" lon="16.431525665638873"><ele>70.2</ele><time>2026-05-03T15:56:08.825Z</time></trkpt><trkpt lat="38.357375127215256" lon="16.43165205813587"><ele>69.60000000000001</ele><time>2026-05-03T15:56:09.825Z</time></trkpt><trkpt lat="38.35737978948221" lon="16.431779258257556"><ele>69.0</ele><time>2026-05-03T15:56:10.825Z</time></trkpt><trkpt lat="38.357369588551904" lon="16.4319062939394"><ele>69.0</ele><time>2026-05-03T15:56:11.825Z</time></trkpt><trkpt lat="38.357344328901256" lon="16.432027279593225"><ele>69.0</ele><time>2026-05-03T15:56:12.825Z</time></trkpt><trkpt lat="38.357305073568725" lon="16.43214018974671"><ele>69.0</ele><time>2026-05-03T15:56:13.825Z</time></trkpt><trkpt lat="38.35726015559835" lon="16.432245663001325"><ele>69.0</ele><time>2026-05-03T15:56:14.825Z</time></trkpt><trkpt lat="38.357218422957374" lon="16.432354046658194"><ele>69.0</ele><time>2026-05-03T15:56:15.825Z</time></trkpt><trkpt lat="38.35718815056962" lon="16.43247243768231"><ele>66.0</ele><time>2026-05-03T15:56:16.825Z</time></trkpt><trkpt lat="38.35717270540205" lon="16.432591515327143"><ele>63.00000000000001</ele><time>2026-05-03T15:56:17.825Z</time></trkpt><trkpt lat="38.357159299931176" lon="16.43271827026783"><ele>60.00000000000001</ele><time>2026-05-03T15:56:18.825Z</time></trkpt><trkpt lat="38.35713995984008" lon="16.43284641022234"><ele>57.0</ele><time>2026-05-03T15:56:19.825Z</time></trkpt><trkpt lat="38.35711110499397" lon="16.432973295540602"><ele>54.0</ele><time>2026-05-03T15:56:20.825Z</time></trkpt><trkpt lat="38.35707521743438" lon="16.433100558528956"><ele>54.0</ele><time>2026-05-03T15:56:21.825Z</time></trkpt><trkpt lat="38.35702617579868" lon="16.43322004354749"><ele>54.00000000000001</ele><time>2026-05-03T15:56:22.825Z</time></trkpt><trkpt lat="38.356972981892305" lon="16.433330109463018"><ele>54.00000000000001</ele><time>2026-05-03T15:56:23.825Z</time></trkpt><trkpt lat="38.356922015933975" lon="16.433444257955916"><ele>54.0</ele><time>2026-05-03T15:56:24.825Z</time></trkpt><trkpt lat="38.35688076301853" lon="16.43356860363386"><ele>54.0</ele><time>2026-05-03T15:56:25.825Z</time></trkpt><trkpt lat="38.35685475919742" lon="16.433698857476983"><ele>54.0</ele><time>2026-05-03T15:56:26.825Z</time></trkpt><trkpt lat="38.3568422795545" lon="16.433841675241172"><ele>54.0</ele><time>2026-05-03T15:56:27.825Z</time></trkpt><trkpt lat="38.35683986473276" lon="16.433985799846734"><ele>54.0</ele><time>2026-05-03T15:56:28.825Z</time></trkpt><trkpt lat="38.35684325954216" lon="16.43413705654378"><ele>54.0</ele><time>2026-05-03T15:56:29.825Z</time></trkpt><trkpt lat="38.35685053142993" lon="16.434292897630186"><ele>54.0</ele><time>2026-05-03T15:56:30.825Z</time></trkpt><trkpt lat="38.356854721182046" lon="16.43445153713934"><ele>54.0</ele><time>2026-05-03T15:56:31.825Z</time></trkpt><trkpt lat="38.356857339405344" lon="16.434611661597405"><ele>54.0</ele><time>2026-05-03T15:56:32.825Z</time></trkpt><trkpt lat="38.35684943163597" lon="16.434774434915113"><ele>54.0</ele><time>2026-05-03T15:56:33.825Z</time></trkpt><trkpt lat="38.356826658550055" lon="16.434929709331083"><ele>53.75</ele><time>2026-05-03T15:56:34.825Z</time></trkpt><trkpt lat="38.35678548320404" lon="16.435077212228077"><ele>53.5</ele><time>2026-05-03T15:56:35.825Z</time></trkpt><trkpt lat="38.356740310850846" lon="16.4352120720807"><ele>53.25</ele><time>2026-05-03T15:56:36.825Z</time></trkpt><trkpt lat="38.35665451574841" lon="16.435322848200062"><ele>53.0</ele><time>2026-05-03T15:56:37.825Z</time></trkpt><trkpt lat="38.35657652674938" lon="16.435431106668688"><ele>52.2</ele><time>2026-05-03T15:56:38.825Z</time></trkpt><trkpt lat="38.356496729411035" lon="16.435528228715903"><ele>51.4</ele><time>2026-05-03T15:56:39.825Z</time></trkpt><trkpt lat="38.35641947431109" lon="16.435615350853432"><ele>50.6</ele><time>2026-05-03T15:56:40.825Z</time></trkpt><trkpt lat="38.35634907357281" lon="16.435708748652253"><ele>49.800000000000004</ele><time>2026-05-03T15:56:41.825Z</time></trkpt><trkpt lat="38.356293548641396" lon="16.435806998749023"><ele>49.0</ele><time>2026-05-03T15:56:42.825Z</time></trkpt><trkpt lat="38.35623767015393" lon="16.435897636796344"><ele>49.0</ele><time>2026-05-03T15:56:43.825Z</time></trkpt><trkpt lat="38.356222048417315" lon="16.436029094328187"><ele>49.0</ele><time>2026-05-03T15:56:44.825Z</time></trkpt><trkpt lat="38.35620986977878" lon="16.43614496417214"><ele>49.0</ele><time>2026-05-03T15:56:45.825Z</time></trkpt><trkpt lat="38.35620793982514" lon="16.436266036097315"><ele>49.0</ele><time>2026-05-03T15:56:46.825Z</time></trkpt><trkpt lat="38.35620627597397" lon="16.4363803739483"><ele>49.0</ele><time>2026-05-03T15:56:47.825Z</time></trkpt><trkpt lat="38.35621633798231" lon="16.436496442291602"><ele>49.2</ele><time>2026-05-03T15:56:48.825Z</time></trkpt><trkpt lat="38.35618962909821" lon="16.436610875250892"><ele>49.400000000000006</ele><time>2026-05-03T15:56:49.825Z</time></trkpt><trkpt lat="38.356143759604365" lon="16.43671509155586"><ele>49.6</ele><time>2026-05-03T15:56:50.825Z</time></trkpt><trkpt lat="38.35607650268132" lon="16.43679357935974"><ele>49.8</ele><time>2026-05-03T15:56:51.825Z</time></trkpt><trkpt lat="38.35600185763757" lon="16.436852946156584"><ele>50.0</ele><time>2026-05-03T15:56:52.825Z</time></trkpt><trkpt lat="38.35593358715534" lon="16.43692317993423"><ele>50.0</ele><time>2026-05-03T15:56:53.825Z</time></trkpt><trkpt lat="38.35586917313802" lon="16.436996034189583"><ele>50.0</ele><time>2026-05-03T15:56:54.825Z</time></trkpt><trkpt lat="38.355808220818844" lon="16.437072985962196"><ele>50.0</ele><time>2026-05-03T15:56:55.825Z</time></trkpt><trkpt lat="38.35575621874044" lon="16.437162690697274"><ele>50.0</ele><time>2026-05-03T15:56:56.825Z</time></trkpt><trkpt lat="38.35570154546617" lon="16.43725751209862"><ele>50.0</ele><time>2026-05-03T15:56:57.825Z</time></trkpt><trkpt lat="38.35568437767312" lon="16.43738369737617"><ele>50.4</ele><time>2026-05-03T15:56:58.825Z</time></trkpt><trkpt lat="38.35570366668524" lon="16.437516792068426"><ele>50.8</ele><time>2026-05-03T15:56:59.825Z</time></trkpt><trkpt lat="38.355738255972646" lon="16.437633411626194"><ele>51.2</ele><time>2026-05-03T15:57:00.825Z</time></trkpt><trkpt lat="38.355786603027475" lon="16.437747952181777"><ele>51.6</ele><time>2026-05-03T15:57:01.825Z</time></trkpt><trkpt lat="38.35585295856034" lon="16.43784489220295"><ele>52.0</ele><time>2026-05-03T15:57:02.825Z</time></trkpt><trkpt lat="38.35589562494926" lon="16.437963727614683"><ele>51.400000000000006</ele><time>2026-05-03T15:57:03.825Z</time></trkpt><trkpt lat="38.35591389719539" lon="16.43809321648665"><ele>50.800000000000004</ele><time>2026-05-03T15:57:04.825Z</time></trkpt><trkpt lat="38.35590168300956" lon="16.438223569775126"><ele>50.2</ele><time>2026-05-03T15:57:05.825Z</time></trkpt><trkpt lat="38.35587053225995" lon="16.438349159261886"><ele>49.6</ele><time>2026-05-03T15:57:06.825Z</time></trkpt><trkpt lat="38.35582630509297" lon="16.43846302326357"><ele>49.0</ele><time>2026-05-03T15:57:07.825Z</time></trkpt><trkpt lat="38.35577021564893" lon="16.438566126017246"><ele>49.0</ele><time>2026-05-03T15:57:08.825Z</time></trkpt><trkpt lat="38.355717516955586" lon="16.438666499249212"><ele>49.0</ele><time>2026-05-03T15:57:09.825Z</time></trkpt><trkpt lat="38.35566559047427" lon="16.438765608609025"><ele>49.0</ele><time>2026-05-03T15:57:10.825Z</time></trkpt><trkpt lat="38.355635236387" lon="16.438875793551073"><ele>49.0</ele><time>2026-05-03T15:57:11.825Z</time></trkpt><trkpt lat="38.35561865876698" lon="16.438989599246767"><ele>49.0</ele><time>2026-05-03T15:57:12.825Z</time></trkpt><trkpt lat="38.3556117562662" lon="16.43910980263227"><ele>49.6</ele><time>2026-05-03T15:57:13.825Z</time></trkpt><trkpt lat="38.3555992822972" lon="16.439232938068855"><ele>50.2</ele><time>2026-05-03T15:57:14.825Z</time></trkpt><trkpt lat="38.35557625014636" lon="16.43934639886844"><ele>50.800000000000004</ele><time>2026-05-03T15:57:15.825Z</time></trkpt><trkpt lat="38.35553370203465" lon="16.439455166054994"><ele>51.400000000000006</ele><time>2026-05-03T15:57:16.825Z</time></trkpt><trkpt lat="38.355472998658584" lon="16.439549159202432"><ele>52.0</ele><time>2026-05-03T15:57:17.825Z</time></trkpt><trkpt lat="38.355402659585295" lon="16.439627691172166"><ele>50.400000000000006</ele><time>2026-05-03T15:57:18.824Z</time></trkpt><trkpt lat="38.3553427465739" lon="16.43971961763909"><ele>48.800000000000004</ele><time>2026-05-03T15:57:19.823Z</time></trkpt><trkpt lat="38.35530186694511" lon="16.43982686281085"><ele>47.2</ele><time>2026-05-03T15:57:20.823Z</time></trkpt><trkpt lat="38.355273477062475" lon="16.439941488536498"><ele>45.6</ele><time>2026-05-03T15:57:21.823Z</time></trkpt><trkpt lat="38.35524416136754" lon="16.44005816851876"><ele>44.0</ele><time>2026-05-03T15:57:22.824Z</time></trkpt><trkpt lat="38.355223130807595" lon="16.440178699286975"><ele>44.0</ele><time>2026-05-03T15:57:23.824Z</time></trkpt><trkpt lat="38.3552282714342" lon="16.440305358666755"><ele>44.0</ele><time>2026-05-03T15:57:24.824Z</time></trkpt><trkpt lat="38.35525242277555" lon="16.440429663870944"><ele>44.0</ele><time>2026-05-03T15:57:25.823Z</time></trkpt><trkpt lat="38.35528158378685" lon="16.440550404506624"><ele>44.0</ele><time>2026-05-03T15:57:26.823Z</time></trkpt><trkpt lat="38.35531232812133" lon="16.44067383849409"><ele>44.0</ele><time>2026-05-03T15:57:27.824Z</time></trkpt><trkpt lat="38.35534021464321" lon="16.44079875167095"><ele>43.400000000000006</ele><time>2026-05-03T15:57:28.824Z</time></trkpt><trkpt lat="38.35537045581881" lon="16.44092557067929"><ele>42.8</ele><time>2026-05-03T15:57:29.824Z</time></trkpt><trkpt lat="38.35540146926064" lon="16.441053109488383"><ele>42.2</ele><time>2026-05-03T15:57:30.824Z</time></trkpt><trkpt lat="38.35543024392765" lon="16.441178583788712"><ele>41.599999999999994</ele><time>2026-05-03T15:57:31.824Z</time></trkpt><trkpt lat="38.35545831297465" lon="16.44130314733558"><ele>41.0</ele><time>2026-05-03T15:57:32.824Z</time></trkpt><trkpt lat="38.35548320633993" lon="16.44142491397421"><ele>40.8</ele><time>2026-05-03T15:57:33.824Z</time></trkpt><trkpt lat="38.355506296206514" lon="16.441549034331665"><ele>40.599999999999994</ele><time>2026-05-03T15:57:34.824Z</time></trkpt><trkpt lat="38.35553061324707" lon="16.441669517882524"><ele>40.4</ele><time>2026-05-03T15:57:35.824Z</time></trkpt><trkpt lat="38.35555337620517" lon="16.4417897811118"><ele>40.2</ele><time>2026-05-03T15:57:36.824Z</time></trkpt><trkpt lat="38.355576822800494" lon="16.44190805294817"><ele>40.0</ele><time>2026-05-03T15:57:37.824Z</time></trkpt><trkpt lat="38.3555982515362" lon="16.44202792056833"><ele>40.8</ele><time>2026-05-03T15:57:38.824Z</time></trkpt><trkpt lat="38.355613824835466" lon="16.442149442145244"><ele>41.6</ele><time>2026-05-03T15:57:39.824Z</time></trkpt><trkpt lat="38.355626928198596" lon="16.442268952159026"><ele>42.400000000000006</ele><time>2026-05-03T15:57:40.824Z</time></trkpt><trkpt lat="38.35564201656405" lon="16.442390310413668"><ele>43.2</ele><time>2026-05-03T15:57:41.824Z</time></trkpt><trkpt lat="38.35565936492376" lon="16.44251338662565"><ele>44.0</ele><time>2026-05-03T15:57:42.824Z</time></trkpt><trkpt lat="38.35567859679562" lon="16.44263615115333"><ele>44.0</ele><time>2026-05-03T15:57:43.824Z</time></trkpt><trkpt lat="38.355698354912036" lon="16.442758681847224"><ele>44.0</ele><time>2026-05-03T15:57:44.824Z</time></trkpt><trkpt lat="38.355716073208775" lon="16.44288581168408"><ele>44.0</ele><time>2026-05-03T15:57:45.824Z</time></trkpt><trkpt lat="38.355734226290316" lon="16.44301866659897"><ele>44.0</ele><time>2026-05-03T15:57:46.824Z</time></trkpt><trkpt lat="38.35575657959373" lon="16.44315249557332"><ele>44.0</ele><time>2026-05-03T15:57:47.824Z</time></trkpt><trkpt lat="38.35577910181005" lon="16.44328389557242"><ele>43.6</ele><time>2026-05-03T15:57:48.824Z</time></trkpt><trkpt lat="38.35580546134654" lon="16.44342252119105"><ele>43.2</ele><time>2026-05-03T15:57:49.824Z</time></trkpt><trkpt lat="38.355830905243884" lon="16.443560372630788"><ele>42.800000000000004</ele><time>2026-05-03T15:57:50.824Z</time></trkpt><trkpt lat="38.355860157980025" lon="16.443694822534013"><ele>42.400000000000006</ele><time>2026-05-03T15:57:51.824Z</time></trkpt><trkpt lat="38.355890184386915" lon="16.44383646499623"><ele>42.0</ele><time>2026-05-03T15:57:52.824Z</time></trkpt><trkpt lat="38.35592227292162" lon="16.443979842771327"><ele>41.75</ele><time>2026-05-03T15:57:53.824Z</time></trkpt><trkpt lat="38.35594455678832" lon="16.444125454253715"><ele>41.5</ele><time>2026-05-03T15:57:54.824Z</time></trkpt><trkpt lat="38.355948492182016" lon="16.44427094645965"><ele>41.25</ele><time>2026-05-03T15:57:55.824Z</time></trkpt><trkpt lat="38.35593202920995" lon="16.444417276052512"><ele>41.0</ele><time>2026-05-03T15:57:56.824Z</time></trkpt><trkpt lat="38.35590900061122" lon="16.44456188822012"><ele>41.25</ele><time>2026-05-03T15:57:57.824Z</time></trkpt><trkpt lat="38.3558796581335" lon="16.444706539804404"><ele>41.5</ele><time>2026-05-03T15:57:58.824Z</time></trkpt><trkpt lat="38.355849867263174" lon="16.444850107668366"><ele>41.75</ele><time>2026-05-03T15:57:59.824Z</time></trkpt><trkpt lat="38.355815785920726" lon="16.444997695445153"><ele>42.0</ele><time>2026-05-03T15:58:00.824Z</time></trkpt><trkpt lat="38.35576687085255" lon="16.44513943782056"><ele>42.0</ele><time>2026-05-03T15:58:01.824Z</time></trkpt><trkpt lat="38.35571084251005" lon="16.445280505659607"><ele>42.0</ele><time>2026-05-03T15:58:02.824Z</time></trkpt><trkpt lat="38.35565068469405" lon="16.44542014176437"><ele>42.0</ele><time>2026-05-03T15:58:03.824Z</time></trkpt><trkpt lat="38.355586226280266" lon="16.44556347968333"><ele>42.0</ele><time>2026-05-03T15:58:04.824Z</time></trkpt><trkpt lat="38.355524865123115" lon="16.44570955785126"><ele>41.0</ele><time>2026-05-03T15:58:05.824Z</time></trkpt><trkpt lat="38.35545922654244" lon="16.445853110648244"><ele>40.0</ele><time>2026-05-03T15:58:06.824Z</time></trkpt><trkpt lat="38.355392549043245" lon="16.445996919256125"><ele>39.0</ele><time>2026-05-03T15:58:07.824Z</time></trkpt><trkpt lat="38.35532974835419" lon="16.446144817254545"><ele>38.0</ele><time>2026-05-03T15:58:08.824Z</time></trkpt><trkpt lat="38.35526412494693" lon="16.446290018975752"><ele>38.25</ele><time>2026-05-03T15:58:09.824Z</time></trkpt><trkpt lat="38.35519753151022" lon="16.446442506285795"><ele>38.5</ele><time>2026-05-03T15:58:10.824Z</time></trkpt><trkpt lat="38.35513296121104" lon="16.44659358250845"><ele>38.75</ele><time>2026-05-03T15:58:11.824Z</time></trkpt><trkpt lat="38.35507094009624" lon="16.44674511475491"><ele>39.0</ele><time>2026-05-03T15:58:12.824Z</time></trkpt><trkpt lat="38.35500832758806" lon="16.44689444327275"><ele>39.0</ele><time>2026-05-03T15:58:13.824Z</time></trkpt><trkpt lat="38.35494687848827" lon="16.447044337490915"><ele>39.0</ele><time>2026-05-03T15:58:14.824Z</time></trkpt><trkpt lat="38.354871042537255" lon="16.447184318777342"><ele>39.0</ele><time>2026-05-03T15:58:15.824Z</time></trkpt><trkpt lat="38.35480911375467" lon="16.447326135685874"><ele>39.0</ele><time>2026-05-03T15:58:16.824Z</time></trkpt><trkpt lat="38.35474070062039" lon="16.447469227819475"><ele>38.5</ele><time>2026-05-03T15:58:17.824Z</time></trkpt><trkpt lat="38.35466799561036" lon="16.44760376109313"><ele>38.0</ele><time>2026-05-03T15:58:18.824Z</time></trkpt><trkpt lat="38.35459036817241" lon="16.447727633503977"><ele>37.5</ele><time>2026-05-03T15:58:19.824Z</time></trkpt><trkpt lat="38.35451305484148" lon="16.447843852715835"><ele>37.0</ele><time>2026-05-03T15:58:20.824Z</time></trkpt><trkpt lat="38.35443582145083" lon="16.447948767417813"><ele>37.6</ele><time>2026-05-03T15:58:21.824Z</time></trkpt><trkpt lat="38.3543617764473" lon="16.448048362724993"><ele>38.2</ele><time>2026-05-03T15:58:22.824Z</time></trkpt><trkpt lat="38.354298193350765" lon="16.4481364841502"><ele>38.8</ele><time>2026-05-03T15:58:23.824Z</time></trkpt><trkpt lat="38.354243719243335" lon="16.44821518351954"><ele>39.4</ele><time>2026-05-03T15:58:24.824Z</time></trkpt><trkpt lat="38.35421125489918" lon="16.44829717595954"><ele>40.0</ele><time>2026-05-03T15:58:25.824Z</time></trkpt><trkpt lat="38.3542217161908" lon="16.448460694000612"><ele>40.0</ele><time>2026-05-03T15:58:27.824Z</time></trkpt><trkpt lat="38.35425334507431" lon="16.448533091685885"><ele>40.0</ele><time>2026-05-03T15:58:28.824Z</time></trkpt><trkpt lat="38.35427646338755" lon="16.44861531486886"><ele>40.0</ele><time>2026-05-03T15:58:29.824Z</time></trkpt><trkpt lat="38.35431103433672" lon="16.448683700150212"><ele>40.0</ele><time>2026-05-03T15:58:30.824Z</time></trkpt><trkpt lat="38.35438152233196" lon="16.448808214174427"><ele>40.0</ele><time>2026-05-03T15:58:32.824Z</time></trkpt><trkpt lat="38.354449647799065" lon="16.44891118605284"><ele>40.0</ele><time>2026-05-03T15:58:34.824Z</time></trkpt><trkpt lat="38.354497526515964" lon="16.44905194190247"><ele>40.16666666666667</ele><time>2026-05-03T15:58:36.824Z</time></trkpt><trkpt lat="38.35451529168653" lon="16.449129528732822"><ele>40.333333333333336</ele><time>2026-05-03T15:58:37.824Z</time></trkpt><trkpt lat="38.35452432250941" lon="16.44921098188839"><ele>40.5</ele><time>2026-05-03T15:58:38.824Z</time></trkpt><trkpt lat="38.3545032862207" lon="16.449366247470184"><ele>40.666666666666664</ele><time>2026-05-03T15:58:40.824Z</time></trkpt><trkpt lat="38.35447792664555" lon="16.449445928567723"><ele>40.83333333333333</ele><time>2026-05-03T15:58:41.824Z</time></trkpt><trkpt lat="38.354451924166845" lon="16.449528897348678"><ele>41.0</ele><time>2026-05-03T15:58:42.824Z</time></trkpt><trkpt lat="38.35442533465653" lon="16.44961166089047"><ele>41.285714285714285</ele><time>2026-05-03T15:58:43.824Z</time></trkpt><trkpt lat="38.354396438292454" lon="16.449696991901114"><ele>41.57142857142857</ele><time>2026-05-03T15:58:44.824Z</time></trkpt><trkpt lat="38.35436322887736" lon="16.449778186820307"><ele>41.85714285714286</ele><time>2026-05-03T15:58:45.824Z</time></trkpt><trkpt lat="38.35432664642332" lon="16.449854719924407"><ele>42.14285714285714</ele><time>2026-05-03T15:58:46.824Z</time></trkpt><trkpt lat="38.354283187324185" lon="16.449924466739795"><ele>42.42857142857143</ele><time>2026-05-03T15:58:47.824Z</time></trkpt><trkpt lat="38.35423574227498" lon="16.449992293742838"><ele>42.714285714285715</ele><time>2026-05-03T15:58:48.824Z</time></trkpt><trkpt lat="38.354187537890205" lon="16.450061198156387"><ele>43.0</ele><time>2026-05-03T15:58:49.824Z</time></trkpt><trkpt lat="38.35413848497048" lon="16.45013372563257"><ele>43.00000000000001</ele><time>2026-05-03T15:58:50.824Z</time></trkpt><trkpt lat="38.354087680528465" lon="16.450202386381502"><ele>43.0</ele><time>2026-05-03T15:58:51.824Z</time></trkpt><trkpt lat="38.354036056445985" lon="16.45026914928503"><ele>43.0</ele><time>2026-05-03T15:58:52.824Z</time></trkpt><trkpt lat="38.35398624344368" lon="16.450334239110592"><ele>43.0</ele><time>2026-05-03T15:58:53.824Z</time></trkpt><trkpt lat="38.35393779365036" lon="16.450397164083267"><ele>43.0</ele><time>2026-05-03T15:58:54.824Z</time></trkpt><trkpt lat="38.353889099884746" lon="16.450460722583433"><ele>43.00000000000001</ele><time>2026-05-03T15:58:55.824Z</time></trkpt><trkpt lat="38.3538418270215" lon="16.450519739612457"><ele>43.0</ele><time>2026-05-03T15:58:56.824Z</time></trkpt><trkpt lat="38.35375456503392" lon="16.450627507499345"><ele>41.16666666666667</ele><time>2026-05-03T15:58:58.824Z</time></trkpt><trkpt lat="38.35367267038237" lon="16.450733689818282"><ele>39.333333333333336</ele><time>2026-05-03T15:59:00.824Z</time></trkpt><trkpt lat="38.3536169634488" lon="16.450812316559173"><ele>37.5</ele><time>2026-05-03T15:59:02.824Z</time></trkpt><trkpt lat="38.35355700431363" lon="16.450848817143296"><ele>35.666666666666664</ele><time>2026-05-03T15:59:09.824Z</time></trkpt><trkpt lat="38.353609294536504" lon="16.45079020750184"><ele>33.83333333333333</ele><time>2026-05-03T15:59:18.824Z</time></trkpt><trkpt lat="38.35366049255038" lon="16.45072462093257"><ele>32.0</ele><time>2026-05-03T15:59:22.824Z</time></trkpt><trkpt lat="38.353711122898645" lon="16.450659761572243"><ele>32.0</ele><time>2026-05-03T15:59:26.823Z</time></trkpt><trkpt lat="38.3537605271038" lon="16.4505964730688"><ele>32.0</ele><time>2026-05-03T15:59:29.823Z</time></trkpt><trkpt lat="38.353810905791356" lon="16.450531992988147"><ele>32.0</ele><time>2026-05-03T15:59:33.823Z</time></trkpt><trkpt lat="38.353678994461234" lon="16.450159115119373"><ele>32.5</ele><time>2026-05-03T15:59:57.823Z</time></trkpt><trkpt lat="38.353662768188556" lon="16.450057341728076"><ele>33.0</ele><time>2026-05-03T16:00:01.823Z</time></trkpt><trkpt lat="38.35362515731171" lon="16.449984730861537"><ele>33.5</ele><time>2026-05-03T16:00:06.823Z</time></trkpt><trkpt lat="38.35359098429952" lon="16.44988802457535"><ele>34.0</ele><time>2026-05-03T16:00:10.823Z</time></trkpt><trkpt lat="38.353555562024816" lon="16.449813446917283"><ele>34.5</ele><time>2026-05-03T16:00:14.823Z</time></trkpt><trkpt lat="38.353652231983254" lon="16.44980560888147"><ele>35.0</ele><time>2026-05-03T16:06:23.82Z</time></trkpt><trkpt lat="38.3536738" lon="16.4497141"><ele>35.0</ele><time>2026-05-03T16:09:55.283Z</time></trkpt><trkpt lat="38.353733" lon="16.449685600000002"><ele>35.0</ele><time>2026-05-03T16:10:00.367Z</time></trkpt><trkpt lat="38.353782900000006" lon="16.449752"><ele>35.0</ele><time>2026-05-03T16:10:07.331Z</time></trkpt><trkpt lat="38.3537953" lon="16.4498329"><ele>35.0</ele><time>2026-05-03T16:10:12.349Z</time></trkpt><trkpt lat="38.3537895" lon="16.4499145"><ele>35.0</ele><time>2026-05-03T16:10:16.282Z</time></trkpt><trkpt lat="38.353664846220326" lon="16.44998076788334"><ele>35.0</ele><time>2026-05-03T16:10:20.335Z</time></trkpt><trkpt lat="38.35365371415591" lon="16.450060082940315"><ele>35.0</ele><time>2026-05-03T16:10:23.31Z</time></trkpt><trkpt lat="38.353641520051646" lon="16.450146965037973"><ele>35.0</ele><time>2026-05-03T16:10:26.377Z</time></trkpt><trkpt lat="38.353627750918875" lon="16.450230109199385"><ele>35.0</ele><time>2026-05-03T16:10:30.371Z</time></trkpt><trkpt lat="38.353592219094" lon="16.450355735458327"><ele>35.0</ele><time>2026-05-03T16:10:34.364Z</time></trkpt><trkpt lat="38.35357721826652" lon="16.450436453695488"><ele>35.0</ele><time>2026-05-03T16:10:36.31Z</time></trkpt><trkpt lat="38.35355938632591" lon="16.450547267436328"><ele>35.0</ele><time>2026-05-03T16:10:39.382Z</time></trkpt><trkpt lat="38.35354785772817" lon="16.450638683067016"><ele>34.4</ele><time>2026-05-03T16:10:42.352Z</time></trkpt><trkpt lat="38.353537725179805" lon="16.450719598647122"><ele>33.8</ele><time>2026-05-03T16:10:46.346Z</time></trkpt><trkpt lat="38.35351349532713" lon="16.450835048681807"><ele>33.2</ele><time>2026-05-03T16:10:51.669Z</time></trkpt><trkpt lat="38.3534886" lon="16.4509785"><ele>32.6</ele><time>2026-05-03T16:10:53.309Z</time></trkpt><trkpt lat="38.3534273" lon="16.4510597"><ele>32.0</ele><time>2026-05-03T16:10:54.332Z</time></trkpt><trkpt lat="38.353369900000004" lon="16.4511561"><ele>32.0</ele><time>2026-05-03T16:10:55.3Z</time></trkpt><trkpt lat="38.353297564758016" lon="16.451249370381966"><ele>32.0</ele><time>2026-05-03T16:10:56.386Z</time></trkpt><trkpt lat="38.35323811634958" lon="16.45137291234481"><ele>32.0</ele><time>2026-05-03T16:10:57.302Z</time></trkpt><trkpt lat="38.35318336020518" lon="16.451503572602064"><ele>32.0</ele><time>2026-05-03T16:10:58.326Z</time></trkpt><trkpt lat="38.353128982868576" lon="16.4516412860336"><ele>32.0</ele><time>2026-05-03T16:10:59.35Z</time></trkpt><trkpt lat="38.35307572932725" lon="16.45178096630242"><ele>32.0</ele><time>2026-05-03T16:11:00.375Z</time></trkpt><trkpt lat="38.35302275494346" lon="16.45192173156351"><ele>32.0</ele><time>2026-05-03T16:11:01.296Z</time></trkpt><trkpt lat="38.35296903227622" lon="16.45206472578248"><ele>32.0</ele><time>2026-05-03T16:11:02.319Z</time></trkpt><trkpt lat="38.35291612763323" lon="16.452206011959035"><ele>31.25</ele><time>2026-05-03T16:11:03.343Z</time></trkpt><trkpt lat="38.35286365112431" lon="16.452346154735423"><ele>30.5</ele><time>2026-05-03T16:11:04.368Z</time></trkpt><trkpt lat="38.35281156767147" lon="16.452485247851975"><ele>29.75</ele><time>2026-05-03T16:11:05.286Z</time></trkpt><trkpt lat="38.35275806415597" lon="16.452620502669543"><ele>29.0</ele><time>2026-05-03T16:11:06.313Z</time></trkpt><trkpt lat="38.35270509919247" lon="16.45275237143661"><ele>29.0</ele><time>2026-05-03T16:11:07.337Z</time></trkpt><trkpt lat="38.352650998582334" lon="16.45288146858239"><ele>29.0</ele><time>2026-05-03T16:11:08.361Z</time></trkpt><trkpt lat="38.35259620365939" lon="16.453002685079735"><ele>29.0</ele><time>2026-05-03T16:11:09.385Z</time></trkpt><trkpt lat="38.352548399999996" lon="16.4531283"><ele>29.0</ele><time>2026-05-03T16:11:10.307Z</time></trkpt><trkpt lat="38.352466584496995" lon="16.453220378053203"><ele>29.0</ele><time>2026-05-03T16:11:11.331Z</time></trkpt><trkpt lat="38.3524088" lon="16.4533381"><ele>29.25</ele><time>2026-05-03T16:11:12.355Z</time></trkpt><trkpt lat="38.3523358" lon="16.4534461"><ele>29.5</ele><time>2026-05-03T16:11:13.379Z</time></trkpt><trkpt lat="38.35225029857311" lon="16.453545617214708"><ele>29.75</ele><time>2026-05-03T16:11:14.3Z</time></trkpt><trkpt lat="38.352169310372346" lon="16.45366781966878"><ele>30.0</ele><time>2026-05-03T16:11:15.322Z</time></trkpt><trkpt lat="38.3520847408774" lon="16.453799728348667"><ele>29.0</ele><time>2026-05-03T16:11:16.349Z</time></trkpt><trkpt lat="38.351995929627954" lon="16.45394001055278"><ele>28.0</ele><time>2026-05-03T16:11:17.372Z</time></trkpt><trkpt lat="38.351905205087455" lon="16.45408331494202"><ele>27.0</ele><time>2026-05-03T16:11:18.294Z</time></trkpt><trkpt lat="38.351823399999994" lon="16.4542442"><ele>26.0</ele><time>2026-05-03T16:11:19.318Z</time></trkpt><trkpt lat="38.35171377727515" lon="16.45438263709984"><ele>26.0</ele><time>2026-05-03T16:11:20.342Z</time></trkpt><trkpt lat="38.35161431085904" lon="16.45453530760118"><ele>26.0</ele><time>2026-05-03T16:11:21.366Z</time></trkpt><trkpt lat="38.35151329110608" lon="16.454689438421507"><ele>26.0</ele><time>2026-05-03T16:11:22.39Z</time></trkpt><trkpt lat="38.35140842089992" lon="16.454839790677216"><ele>26.0</ele><time>2026-05-03T16:11:23.312Z</time></trkpt><trkpt lat="38.35130142631655" lon="16.454984696068507"><ele>26.0</ele><time>2026-05-03T16:11:24.355Z</time></trkpt><trkpt lat="38.35119029723288" lon="16.455126650287124"><ele>26.0</ele><time>2026-05-03T16:11:25.28Z</time></trkpt><trkpt lat="38.351078545903675" lon="16.45526662403903"><ele>26.0</ele><time>2026-05-03T16:11:26.384Z</time></trkpt><trkpt lat="38.35096857790644" lon="16.455402631368305"><ele>26.0</ele><time>2026-05-03T16:11:27.305Z</time></trkpt><trkpt lat="38.35085902686375" lon="16.45553625389551"><ele>26.0</ele><time>2026-05-03T16:11:28.328Z</time></trkpt><trkpt lat="38.350751156145556" lon="16.455665951141203"><ele>25.5</ele><time>2026-05-03T16:11:29.35Z</time></trkpt><trkpt lat="38.350646186367165" lon="16.455792037198957"><ele>25.0</ele><time>2026-05-03T16:11:30.376Z</time></trkpt><trkpt lat="38.35054258698546" lon="16.45591647721588"><ele>24.5</ele><time>2026-05-03T16:11:31.3Z</time></trkpt><trkpt lat="38.35043995060533" lon="16.456037105098662"><ele>24.0</ele><time>2026-05-03T16:11:32.321Z</time></trkpt><trkpt lat="38.3503389586161" lon="16.456155305079225"><ele>24.0</ele><time>2026-05-03T16:11:33.347Z</time></trkpt><trkpt lat="38.350240178351925" lon="16.456269482779927"><ele>24.0</ele><time>2026-05-03T16:11:34.371Z</time></trkpt><trkpt lat="38.350145399999995" lon="16.4563865"><ele>24.0</ele><time>2026-05-03T16:11:35.285Z</time></trkpt><trkpt lat="38.350017570257876" lon="16.456444138268434"><ele>24.0</ele><time>2026-05-03T16:11:36.317Z</time></trkpt><trkpt lat="38.3498924573743" lon="16.456517052163484"><ele>24.0</ele><time>2026-05-03T16:11:37.341Z</time></trkpt><trkpt lat="38.34976251512448" lon="16.45657769208691"><ele>24.0</ele><time>2026-05-03T16:11:38.365Z</time></trkpt><trkpt lat="38.34962898159135" lon="16.45664481471115"><ele>24.0</ele><time>2026-05-03T16:11:39.387Z</time></trkpt><trkpt lat="38.34949290219816" lon="16.4567150893423"><ele>24.0</ele><time>2026-05-03T16:11:40.31Z</time></trkpt><trkpt lat="38.34935724848286" lon="16.456785144153717"><ele>24.0</ele><time>2026-05-03T16:11:41.356Z</time></trkpt><trkpt lat="38.34922262643392" lon="16.456854459143184"><ele>24.0</ele><time>2026-05-03T16:11:42.361Z</time></trkpt><trkpt lat="38.34908539048053" lon="16.456921611106797"><ele>24.0</ele><time>2026-05-03T16:11:43.383Z</time></trkpt><trkpt lat="38.348948717430545" lon="16.456988351589224"><ele>24.0</ele><time>2026-05-03T16:11:44.313Z</time></trkpt><trkpt lat="38.34881555477683" lon="16.45705508803639"><ele>23.0</ele><time>2026-05-03T16:11:45.331Z</time></trkpt><trkpt lat="38.348684066441095" lon="16.457121925039786"><ele>22.0</ele><time>2026-05-03T16:11:46.353Z</time></trkpt><trkpt lat="38.3485594024637" lon="16.45718382388932"><ele>21.0</ele><time>2026-05-03T16:11:47.491Z</time></trkpt><trkpt lat="38.348437505459565" lon="16.457241416718237"><ele>20.0</ele><time>2026-05-03T16:11:48.348Z</time></trkpt><trkpt lat="38.34831482684903" lon="16.457299378834705"><ele>20.0</ele><time>2026-05-03T16:11:49.322Z</time></trkpt><trkpt lat="38.34819303163955" lon="16.457357500824795"><ele>20.0</ele><time>2026-05-03T16:11:50.345Z</time></trkpt><trkpt lat="38.34807126692109" lon="16.457415770109783"><ele>20.0</ele><time>2026-05-03T16:11:51.369Z</time></trkpt><trkpt lat="38.3479545" lon="16.4574946"><ele>20.0</ele><time>2026-05-03T16:11:52.292Z</time></trkpt><trkpt lat="38.34783420000001" lon="16.4575635"><ele>19.5</ele><time>2026-05-03T16:11:53.315Z</time></trkpt><trkpt lat="38.3477183" lon="16.4576482"><ele>19.0</ele><time>2026-05-03T16:11:54.338Z</time></trkpt><trkpt lat="38.347592668481994" lon="16.457732231611097"><ele>18.5</ele><time>2026-05-03T16:11:55.363Z</time></trkpt><trkpt lat="38.347477085302096" lon="16.45783594443343"><ele>18.0</ele><time>2026-05-03T16:11:56.387Z</time></trkpt><trkpt lat="38.34736050226609" lon="16.457942418990186"><ele>18.0</ele><time>2026-05-03T16:11:57.309Z</time></trkpt><trkpt lat="38.347243723526226" lon="16.458050119175944"><ele>18.0</ele><time>2026-05-03T16:11:58.333Z</time></trkpt><trkpt lat="38.347129313470184" lon="16.458157275890166"><ele>18.0</ele><time>2026-05-03T16:11:59.357Z</time></trkpt><trkpt lat="38.347017658881384" lon="16.45826114800979"><ele>18.0</ele><time>2026-05-03T16:12:00.38Z</time></trkpt><trkpt lat="38.34690661784202" lon="16.45836372033645"><ele>17.75</ele><time>2026-05-03T16:12:01.302Z</time></trkpt><trkpt lat="38.34679738189944" lon="16.458464625268117"><ele>17.5</ele><time>2026-05-03T16:12:02.326Z</time></trkpt><trkpt lat="38.346691024575755" lon="16.458562870890578"><ele>17.25</ele><time>2026-05-03T16:12:03.35Z</time></trkpt><trkpt lat="38.3466008" lon="16.4586789"><ele>17.0</ele><time>2026-05-03T16:12:04.476Z</time></trkpt><trkpt lat="38.346507" lon="16.4587661"><ele>17.0</ele><time>2026-05-03T16:12:05.398Z</time></trkpt><trkpt lat="38.346417699999996" lon="16.4588498"><ele>17.0</ele><time>2026-05-03T16:12:06.32Z</time></trkpt><trkpt lat="38.3463343" lon="16.458929100000002"><ele>17.0</ele><time>2026-05-03T16:12:07.344Z</time></trkpt><trkpt lat="38.34623532358224" lon="16.458983305038146"><ele>17.0</ele><time>2026-05-03T16:12:08.368Z</time></trkpt><trkpt lat="38.346155860547206" lon="16.459058421008994"><ele>17.0</ele><time>2026-05-03T16:12:09.392Z</time></trkpt><trkpt lat="38.3460823" lon="16.459142"><ele>16.8</ele><time>2026-05-03T16:12:10.314Z</time></trkpt><trkpt lat="38.346008000000005" lon="16.4592145"><ele>16.6</ele><time>2026-05-03T16:12:11.337Z</time></trkpt><trkpt lat="38.345940899999995" lon="16.459305500000003"><ele>16.400000000000002</ele><time>2026-05-03T16:12:12.362Z</time></trkpt><trkpt lat="38.345866596492655" lon="16.45939857529013"><ele>16.2</ele><time>2026-05-03T16:12:13.295Z</time></trkpt><trkpt lat="38.34580848118691" lon="16.459510669535433"><ele>16.0</ele><time>2026-05-03T16:12:14.307Z</time></trkpt><trkpt lat="38.3457659" lon="16.459639199999998"><ele>16.0</ele><time>2026-05-03T16:12:15.331Z</time></trkpt><trkpt lat="38.3456927337229" lon="16.4597499181604"><ele>16.0</ele><time>2026-05-03T16:12:16.355Z</time></trkpt><trkpt lat="38.34563278520751" lon="16.459872231396464"><ele>16.0</ele><time>2026-05-03T16:12:17.403Z</time></trkpt><trkpt lat="38.345573356255805" lon="16.45999850920269"><ele>16.0</ele><time>2026-05-03T16:12:18.301Z</time></trkpt><trkpt lat="38.34551569885986" lon="16.460124070509995"><ele>15.8</ele><time>2026-05-03T16:12:19.331Z</time></trkpt><trkpt lat="38.345459775681384" lon="16.46024849818516"><ele>15.600000000000001</ele><time>2026-05-03T16:12:20.348Z</time></trkpt><trkpt lat="38.34540482311985" lon="16.460371333977555"><ele>15.4</ele><time>2026-05-03T16:12:21.372Z</time></trkpt><trkpt lat="38.34535191949766" lon="16.460489590240464"><ele>15.2</ele><time>2026-05-03T16:12:22.294Z</time></trkpt><trkpt lat="38.3453024574037" lon="16.46060015353849"><ele>15.0</ele><time>2026-05-03T16:12:23.319Z</time></trkpt><trkpt lat="38.34525639899848" lon="16.460703108036775"><ele>15.0</ele><time>2026-05-03T16:12:24.343Z</time></trkpt><trkpt lat="38.34521416167274" lon="16.460797522010413"><ele>15.0</ele><time>2026-05-03T16:12:25.292Z</time></trkpt><trkpt lat="38.34517550037161" lon="16.46088349000648"><ele>15.0</ele><time>2026-05-03T16:12:26.288Z</time></trkpt><trkpt lat="38.34513691692213" lon="16.46097117296071"><ele>15.0</ele><time>2026-05-03T16:12:27.312Z</time></trkpt><trkpt lat="38.34509993780213" lon="16.46105913611758"><ele>15.0</ele><time>2026-05-03T16:12:28.299Z</time></trkpt><trkpt lat="38.34506097219542" lon="16.46114750150286"><ele>15.0</ele><time>2026-05-03T16:12:29.36Z</time></trkpt><trkpt lat="38.3450153649163" lon="16.461232141049088"><ele>14.666666666666666</ele><time>2026-05-03T16:12:30.384Z</time></trkpt><trkpt lat="38.344964208399986" lon="16.461312593085772"><ele>14.333333333333332</ele><time>2026-05-03T16:12:31.306Z</time></trkpt><trkpt lat="38.34490571665168" lon="16.46138406245527"><ele>14.0</ele><time>2026-05-03T16:12:32.329Z</time></trkpt><trkpt lat="38.3448407" lon="16.4614603"><ele>13.666666666666666</ele><time>2026-05-03T16:12:33.352Z</time></trkpt><trkpt lat="38.344758299999995" lon="16.4615043"><ele>13.333333333333332</ele><time>2026-05-03T16:12:34.377Z</time></trkpt><trkpt lat="38.3446744" lon="16.461538599999997"><ele>13.0</ele><time>2026-05-03T16:12:35.299Z</time></trkpt><trkpt lat="38.344597799999995" lon="16.461562599999997"><ele>12.200000000000001</ele><time>2026-05-03T16:12:36.323Z</time></trkpt><trkpt lat="38.3444862" lon="16.4615895"><ele>11.4</ele><time>2026-05-03T16:12:38.355Z</time></trkpt><trkpt lat="38.3444224" lon="16.4616091"><ele>10.600000000000001</ele><time>2026-05-03T16:12:42.279Z</time></trkpt><trkpt lat="38.3443913" lon="16.4617192"><ele>9.8</ele><time>2026-05-03T16:12:45.278Z</time></trkpt><trkpt lat="38.34440204871231" lon="16.461873699183975"><ele>9.0</ele><time>2026-05-03T16:12:47.285Z</time></trkpt><trkpt lat="38.34441792075054" lon="16.4619667936729"><ele>9.0</ele><time>2026-05-03T16:12:48.289Z</time></trkpt><trkpt lat="38.34443592017115" lon="16.462072365913635"><ele>9.0</ele><time>2026-05-03T16:12:49.286Z</time></trkpt><trkpt lat="38.34445540532602" lon="16.462186652462254"><ele>9.0</ele><time>2026-05-03T16:12:50.293Z</time></trkpt><trkpt lat="38.34447542916904" lon="16.462304098504575"><ele>9.0</ele><time>2026-05-03T16:12:51.279Z</time></trkpt><trkpt lat="38.344495793847074" lon="16.462423543278707"><ele>9.0</ele><time>2026-05-03T16:12:52.281Z</time></trkpt><trkpt lat="38.34451604775995" lon="16.462542338415524"><ele>8.8</ele><time>2026-05-03T16:12:53.289Z</time></trkpt><trkpt lat="38.344537259588584" lon="16.46266186674585"><ele>8.600000000000001</ele><time>2026-05-03T16:12:54.289Z</time></trkpt><trkpt lat="38.34455822728392" lon="16.462783283208886"><ele>8.4</ele><time>2026-05-03T16:12:55.285Z</time></trkpt><trkpt lat="38.34457958041083" lon="16.46290693157205"><ele>8.200000000000001</ele><time>2026-05-03T16:12:56.295Z</time></trkpt><trkpt lat="38.34460116150253" lon="16.463031899992504"><ele>8.0</ele><time>2026-05-03T16:12:57.283Z</time></trkpt><trkpt lat="38.34462322629612" lon="16.46316019609619"><ele>7.800000000000001</ele><time>2026-05-03T16:12:58.28Z</time></trkpt><trkpt lat="38.344645400153944" lon="16.463289152857016"><ele>7.6000000000000005</ele><time>2026-05-03T16:12:59.283Z</time></trkpt><trkpt lat="38.34466778917437" lon="16.463419949212362"><ele>7.3999999999999995</ele><time>2026-05-03T16:13:00.282Z</time></trkpt><trkpt lat="38.3446904875478" lon="16.46355242203544"><ele>7.199999999999999</ele><time>2026-05-03T16:13:01.285Z</time></trkpt><trkpt lat="38.344712660685666" lon="16.463681829456455"><ele>7.0</ele><time>2026-05-03T16:13:02.305Z</time></trkpt><trkpt lat="38.344733917030595" lon="16.46380588626416"><ele>7.833333333333334</ele><time>2026-05-03T16:13:03.287Z</time></trkpt><trkpt lat="38.34475182047714" lon="16.463910374806872"><ele>8.666666666666668</ele><time>2026-05-03T16:13:04.28Z</time></trkpt><trkpt lat="38.34476779841563" lon="16.46400362564908"><ele>9.5</ele><time>2026-05-03T16:13:05.375Z</time></trkpt><trkpt lat="38.34478549721216" lon="16.464107116225506"><ele>10.333333333333334</ele><time>2026-05-03T16:13:07.292Z</time></trkpt><trkpt lat="38.3448033771879" lon="16.464213002838008"><ele>11.166666666666666</ele><time>2026-05-03T16:13:09.286Z</time></trkpt><trkpt lat="38.344824552891566" lon="16.46434960922998"><ele>12.0</ele><time>2026-05-03T16:13:11.377Z</time></trkpt><trkpt lat="38.34485239024301" lon="16.464521809260035"><ele>12.0</ele><time>2026-05-03T16:13:13.382Z</time></trkpt><trkpt lat="38.3448685262895" lon="16.464608795981256"><ele>12.0</ele><time>2026-05-03T16:13:14.282Z</time></trkpt><trkpt lat="38.34489371198646" lon="16.464713008933934"><ele>12.0</ele><time>2026-05-03T16:13:15.277Z</time></trkpt><trkpt lat="38.34492575321096" lon="16.46481921839493"><ele>12.0</ele><time>2026-05-03T16:13:16.281Z</time></trkpt><trkpt lat="38.344962063194764" lon="16.464923486058133"><ele>12.0</ele><time>2026-05-03T16:13:17.301Z</time></trkpt><trkpt lat="38.34499944033521" lon="16.465030195363948"><ele>12.0</ele><time>2026-05-03T16:13:18.279Z</time></trkpt><trkpt lat="38.34503712246899" lon="16.465142759192894"><ele>11.8</ele><time>2026-05-03T16:13:19.292Z</time></trkpt><trkpt lat="38.34507992105623" lon="16.465273570023946"><ele>11.6</ele><time>2026-05-03T16:13:20.377Z</time></trkpt><trkpt lat="38.34511426823638" lon="16.465378549716917"><ele>11.4</ele><time>2026-05-03T16:13:21.285Z</time></trkpt><trkpt lat="38.345153609237805" lon="16.46549875225922"><ele>11.200000000000001</ele><time>2026-05-03T16:13:22.288Z</time></trkpt><trkpt lat="38.345193807129434" lon="16.465620353382967"><ele>11.0</ele><time>2026-05-03T16:13:23.281Z</time></trkpt><trkpt lat="38.34523448222091" lon="16.46574233946358"><ele>11.0</ele><time>2026-05-03T16:13:24.289Z</time></trkpt><trkpt lat="38.34527538259348" lon="16.465865040586273"><ele>11.0</ele><time>2026-05-03T16:13:25.284Z</time></trkpt><trkpt lat="38.34532002400589" lon="16.46599896458504"><ele>11.0</ele><time>2026-05-03T16:13:26.377Z</time></trkpt><trkpt lat="38.345399199999996" lon="16.4660784"><ele>11.0</ele><time>2026-05-03T16:13:27.279Z</time></trkpt><trkpt lat="38.3454378" lon="16.4661923"><ele>11.0</ele><time>2026-05-03T16:13:28.281Z</time></trkpt><trkpt lat="38.3454757" lon="16.466301400000003"><ele>11.333333333333332</ele><time>2026-05-03T16:13:29.282Z</time></trkpt><trkpt lat="38.34551209999999" lon="16.4664047"><ele>11.666666666666666</ele><time>2026-05-03T16:13:30.29Z</time></trkpt><trkpt lat="38.34549948866071" lon="16.466527970758218"><ele>12.0</ele><time>2026-05-03T16:13:31.284Z</time></trkpt><trkpt lat="38.34553206139375" lon="16.466617922573136"><ele>12.333333333333332</ele><time>2026-05-03T16:13:32.289Z</time></trkpt><trkpt lat="38.345560633085114" lon="16.466695874785117"><ele>12.666666666666666</ele><time>2026-05-03T16:13:33.284Z</time></trkpt><trkpt lat="38.3456013" lon="16.4668126"><ele>13.0</ele><time>2026-05-03T16:13:35.291Z</time></trkpt><trkpt lat="38.345545900000005" lon="16.4669387"><ele>12.999999999999998</ele><time>2026-05-03T16:13:37.291Z</time></trkpt><trkpt lat="38.345502200000006" lon="16.4670069"><ele>13.0</ele><time>2026-05-03T16:13:38.285Z</time></trkpt><trkpt lat="38.3454516" lon="16.467079599999998"><ele>13.0</ele><time>2026-05-03T16:13:39.281Z</time></trkpt><trkpt lat="38.3453941" lon="16.467156699999997"><ele>13.0</ele><time>2026-05-03T16:13:40.361Z</time></trkpt><trkpt lat="38.34533129999999" lon="16.467236"><ele>12.999999999999998</ele><time>2026-05-03T16:13:41.29Z</time></trkpt><trkpt lat="38.345265899999994" lon="16.4673126"><ele>13.0</ele><time>2026-05-03T16:13:42.278Z</time></trkpt><trkpt lat="38.3452" lon="16.4673828"><ele>12.666666666666666</ele><time>2026-05-03T16:13:43.283Z</time></trkpt><trkpt lat="38.3451334" lon="16.4674446"><ele>12.333333333333332</ele><time>2026-05-03T16:13:44.283Z</time></trkpt><trkpt lat="38.34506700000001" lon="16.4674969"><ele>12.0</ele><time>2026-05-03T16:13:45.321Z</time></trkpt><trkpt lat="38.345004" lon="16.467539199999997"><ele>11.666666666666666</ele><time>2026-05-03T16:13:46.283Z</time></trkpt><trkpt lat="38.344898199999996" lon="16.4675936"><ele>11.333333333333332</ele><time>2026-05-03T16:13:48.277Z</time></trkpt><trkpt lat="38.3448099" lon="16.467615499999997"><ele>11.0</ele><time>2026-05-03T16:13:50.283Z</time></trkpt><trkpt lat="38.34471560000001" lon="16.467619799999998"><ele>10.8</ele><time>2026-05-03T16:13:52.283Z</time></trkpt><trkpt lat="38.34462430000001" lon="16.467676700000002"><ele>10.600000000000001</ele><time>2026-05-03T16:13:54.278Z</time></trkpt><trkpt lat="38.3445899" lon="16.467801100000003"><ele>10.4</ele><time>2026-05-03T16:13:56.282Z</time></trkpt><trkpt lat="38.3446383" lon="16.467927000000003"><ele>10.2</ele><time>2026-05-03T16:13:58.286Z</time></trkpt><trkpt lat="38.3447461" lon="16.468013"><ele>10.0</ele><time>2026-05-03T16:14:00.277Z</time></trkpt><trkpt lat="38.344798700000005" lon="16.4680669"><ele>10.0</ele><time>2026-05-03T16:14:01.28Z</time></trkpt><trkpt lat="38.3448443" lon="16.4681444"><ele>10.0</ele><time>2026-05-03T16:14:02.283Z</time></trkpt><trkpt lat="38.344886699999996" lon="16.4682339"><ele>10.0</ele><time>2026-05-03T16:14:03.279Z</time></trkpt><trkpt lat="38.34491367491815" lon="16.468348569482764"><ele>10.0</ele><time>2026-05-03T16:14:04.283Z</time></trkpt><trkpt lat="38.3449627569292" lon="16.468460723265313"><ele>10.0</ele><time>2026-05-03T16:14:05.285Z</time></trkpt><trkpt lat="38.34502048169362" lon="16.46858053805748"><ele>10.0</ele><time>2026-05-03T16:14:06.279Z</time></trkpt><trkpt lat="38.345086774631085" lon="16.468706423836657"><ele>10.0</ele><time>2026-05-03T16:14:07.281Z</time></trkpt><trkpt lat="38.34516279492588" lon="16.468836339598216"><ele>10.0</ele><time>2026-05-03T16:14:08.282Z</time></trkpt><trkpt lat="38.345246651305466" lon="16.46896825768533"><ele>10.0</ele><time>2026-05-03T16:14:09.28Z</time></trkpt><trkpt lat="38.34534337843019" lon="16.46909932818932"><ele>9.666666666666668</ele><time>2026-05-03T16:14:10.285Z</time></trkpt><trkpt lat="38.345443578640705" lon="16.469234871236683"><ele>9.333333333333334</ele><time>2026-05-03T16:14:11.284Z</time></trkpt><trkpt lat="38.3455604" lon="16.4693631"><ele>9.0</ele><time>2026-05-03T16:14:12.366Z</time></trkpt><trkpt lat="38.34566590000001" lon="16.469513099999997"><ele>9.333333333333334</ele><time>2026-05-03T16:14:13.279Z</time></trkpt><trkpt lat="38.3457766" lon="16.469671100000003"><ele>9.666666666666668</ele><time>2026-05-03T16:14:14.32Z</time></trkpt><trkpt lat="38.3458744641076" lon="16.469847274420964"><ele>10.0</ele><time>2026-05-03T16:14:15.289Z</time></trkpt><trkpt lat="38.3460042" lon="16.4700007"><ele>10.0</ele><time>2026-05-03T16:14:16.283Z</time></trkpt><trkpt lat="38.3461229" lon="16.4701731"><ele>10.0</ele><time>2026-05-03T16:14:17.286Z</time></trkpt><trkpt lat="38.346244" lon="16.470350900000003"><ele>10.0</ele><time>2026-05-03T16:14:18.279Z</time></trkpt><trkpt lat="38.3463673" lon="16.4705332"><ele>10.333333333333334</ele><time>2026-05-03T16:14:19.289Z</time></trkpt><trkpt lat="38.346492" lon="16.470715499999997"><ele>10.666666666666666</ele><time>2026-05-03T16:14:20.283Z</time></trkpt><trkpt lat="38.346617300000005" lon="16.4708971"><ele>11.0</ele><time>2026-05-03T16:14:21.294Z</time></trkpt><trkpt lat="38.34673066139283" lon="16.47109357918027"><ele>11.0</ele><time>2026-05-03T16:14:22.304Z</time></trkpt><trkpt lat="38.3468706" lon="16.4712618"><ele>11.0</ele><time>2026-05-03T16:14:23.286Z</time></trkpt><trkpt lat="38.346998" lon="16.4714454"><ele>11.0</ele><time>2026-05-03T16:14:24.277Z</time></trkpt><trkpt lat="38.3471239" lon="16.4716288"><ele>10.0</ele><time>2026-05-03T16:14:25.279Z</time></trkpt><trkpt lat="38.3472524" lon="16.471813700000002"><ele>9.0</ele><time>2026-05-03T16:14:26.283Z</time></trkpt><trkpt lat="38.3473793" lon="16.4719983"><ele>8.0</ele><time>2026-05-03T16:14:27.324Z</time></trkpt><trkpt lat="38.3475051" lon="16.4721832"><ele>7.666666666666666</ele><time>2026-05-03T16:14:28.283Z</time></trkpt><trkpt lat="38.347630300000006" lon="16.472367799999997"><ele>7.333333333333334</ele><time>2026-05-03T16:14:29.348Z</time></trkpt><trkpt lat="38.347756100000005" lon="16.4725527"><ele>7.0</ele><time>2026-05-03T16:14:30.285Z</time></trkpt><trkpt lat="38.3478787" lon="16.472733"><ele>7.0</ele><time>2026-05-03T16:14:31.299Z</time></trkpt><trkpt lat="38.347999800000004" lon="16.4729095"><ele>7.0</ele><time>2026-05-03T16:14:32.342Z</time></trkpt><trkpt lat="38.34812110000001" lon="16.473084"><ele>7.0</ele><time>2026-05-03T16:14:33.281Z</time></trkpt><trkpt lat="38.3482386" lon="16.4732533"><ele>7.666666666666667</ele><time>2026-05-03T16:14:34.351Z</time></trkpt><trkpt lat="38.3483558" lon="16.473422999999997"><ele>8.333333333333334</ele><time>2026-05-03T16:14:35.285Z</time></trkpt><trkpt lat="38.348471499999995" lon="16.4735903"><ele>9.0</ele><time>2026-05-03T16:14:36.277Z</time></trkpt><trkpt lat="38.3485857" lon="16.4737553"><ele>8.333333333333334</ele><time>2026-05-03T16:14:37.359Z</time></trkpt><trkpt lat="38.348698399999996" lon="16.4739194"><ele>7.666666666666667</ele><time>2026-05-03T16:14:38.283Z</time></trkpt><trkpt lat="38.348809499999994" lon="16.4740829"><ele>7.0</ele><time>2026-05-03T16:14:39.281Z</time></trkpt><trkpt lat="38.3489204" lon="16.4742459"><ele>7.666666666666667</ele><time>2026-05-03T16:14:40.294Z</time></trkpt><trkpt lat="38.3490305" lon="16.4744059"><ele>8.333333333333334</ele><time>2026-05-03T16:14:41.294Z</time></trkpt><trkpt lat="38.3491411" lon="16.4745648"><ele>9.0</ele><time>2026-05-03T16:14:42.282Z</time></trkpt><trkpt lat="38.3492518" lon="16.4747248"><ele>9.0</ele><time>2026-05-03T16:14:43.288Z</time></trkpt><trkpt lat="38.3493631" lon="16.4748858"><ele>9.0</ele><time>2026-05-03T16:14:44.312Z</time></trkpt><trkpt lat="38.349473499999995" lon="16.4750455"><ele>9.0</ele><time>2026-05-03T16:14:45.281Z</time></trkpt><trkpt lat="38.349584899999996" lon="16.4752077"><ele>9.0</ele><time>2026-05-03T16:14:46.294Z</time></trkpt><trkpt lat="38.349696800000004" lon="16.475372"><ele>9.0</ele><time>2026-05-03T16:14:47.292Z</time></trkpt><trkpt lat="38.349809199999996" lon="16.475535500000003"><ele>9.0</ele><time>2026-05-03T16:14:48.279Z</time></trkpt><trkpt lat="38.34992489999999" lon="16.4757011"><ele>8.333333333333334</ele><time>2026-05-03T16:14:49.305Z</time></trkpt><trkpt lat="38.3500406" lon="16.4758666"><ele>7.666666666666667</ele><time>2026-05-03T16:14:50.364Z</time></trkpt><trkpt lat="38.3501584" lon="16.476034799999997"><ele>7.0</ele><time>2026-05-03T16:14:51.297Z</time></trkpt><trkpt lat="38.3502777" lon="16.4762069"><ele>6.666666666666667</ele><time>2026-05-03T16:14:52.309Z</time></trkpt><trkpt lat="38.3503952" lon="16.4763783"><ele>6.333333333333334</ele><time>2026-05-03T16:14:53.285Z</time></trkpt><trkpt lat="38.3505147" lon="16.476552800000004"><ele>6.0</ele><time>2026-05-03T16:14:54.32Z</time></trkpt><trkpt lat="38.3506347" lon="16.476728500000004"><ele>6.666666666666666</ele><time>2026-05-03T16:14:55.381Z</time></trkpt><trkpt lat="38.350756" lon="16.4769045"><ele>7.333333333333333</ele><time>2026-05-03T16:14:56.282Z</time></trkpt><trkpt lat="38.3508778" lon="16.4770807"><ele>8.0</ele><time>2026-05-03T16:14:57.327Z</time></trkpt><trkpt lat="38.35100070000001" lon="16.4772577"><ele>8.0</ele><time>2026-05-03T16:14:58.281Z</time></trkpt><trkpt lat="38.3511248" lon="16.477436"><ele>8.0</ele><time>2026-05-03T16:14:59.283Z</time></trkpt><trkpt lat="38.351248600000005" lon="16.477613"><ele>8.0</ele><time>2026-05-03T16:15:00.281Z</time></trkpt><trkpt lat="38.3513745" lon="16.4777921"><ele>8.0</ele><time>2026-05-03T16:15:01.286Z</time></trkpt><trkpt lat="38.3515001" lon="16.477970799999998"><ele>8.0</ele><time>2026-05-03T16:15:02.345Z</time></trkpt><trkpt lat="38.351625500000004" lon="16.4781496"><ele>8.0</ele><time>2026-05-03T16:15:03.281Z</time></trkpt><trkpt lat="38.35175220000001" lon="16.4783309"><ele>8.0</ele><time>2026-05-03T16:15:04.29Z</time></trkpt><trkpt lat="38.3518791" lon="16.4785151"><ele>8.0</ele><time>2026-05-03T16:15:05.315Z</time></trkpt><trkpt lat="38.3520057" lon="16.4787007"><ele>8.0</ele><time>2026-05-03T16:15:06.281Z</time></trkpt><trkpt lat="38.3521326" lon="16.4788892"><ele>8.0</ele><time>2026-05-03T16:15:07.345Z</time></trkpt><trkpt lat="38.352261799999994" lon="16.4790784"><ele>8.0</ele><time>2026-05-03T16:15:08.282Z</time></trkpt><trkpt lat="38.3523933" lon="16.4792663"><ele>8.0</ele><time>2026-05-03T16:15:09.287Z</time></trkpt><trkpt lat="38.3525266" lon="16.479455"><ele>8.333333333333332</ele><time>2026-05-03T16:15:10.332Z</time></trkpt><trkpt lat="38.3526598" lon="16.4796452"><ele>8.666666666666666</ele><time>2026-05-03T16:15:11.307Z</time></trkpt><trkpt lat="38.3527933" lon="16.4798375"><ele>9.0</ele><time>2026-05-03T16:15:12.354Z</time></trkpt><trkpt lat="38.352926800000006" lon="16.4800313"><ele>9.0</ele><time>2026-05-03T16:15:13.284Z</time></trkpt><trkpt lat="38.3530614" lon="16.480227100000004"><ele>9.0</ele><time>2026-05-03T16:15:14.279Z</time></trkpt><trkpt lat="38.3531964" lon="16.480424199999998"><ele>9.0</ele><time>2026-05-03T16:15:15.334Z</time></trkpt><trkpt lat="38.353331499999996" lon="16.480621"><ele>8.666666666666666</ele><time>2026-05-03T16:15:16.283Z</time></trkpt><trkpt lat="38.353467" lon="16.480818600000003"><ele>8.333333333333332</ele><time>2026-05-03T16:15:17.295Z</time></trkpt><trkpt lat="38.35360229999999" lon="16.4810162"><ele>8.0</ele><time>2026-05-03T16:15:18.282Z</time></trkpt><trkpt lat="38.35373729999999" lon="16.481213800000003"><ele>8.666666666666666</ele><time>2026-05-03T16:15:19.284Z</time></trkpt><trkpt lat="38.3538731" lon="16.481410699999998"><ele>9.333333333333334</ele><time>2026-05-03T16:15:20.367Z</time></trkpt><trkpt lat="38.3540102" lon="16.4816057"><ele>10.0</ele><time>2026-05-03T16:15:21.289Z</time></trkpt><trkpt lat="38.3541493" lon="16.4817982"><ele>10.0</ele><time>2026-05-03T16:15:22.313Z</time></trkpt><trkpt lat="38.3542897" lon="16.4819895"><ele>10.0</ele><time>2026-05-03T16:15:23.284Z</time></trkpt><trkpt lat="38.3544316" lon="16.482179000000002"><ele>10.0</ele><time>2026-05-03T16:15:24.281Z</time></trkpt><trkpt lat="38.354562247236856" lon="16.482382144222168"><ele>10.333333333333334</ele><time>2026-05-03T16:15:25.385Z</time></trkpt><trkpt lat="38.354718500000004" lon="16.4825538"><ele>10.666666666666666</ele><time>2026-05-03T16:15:26.295Z</time></trkpt><trkpt lat="38.35486220000001" lon="16.482740200000002"><ele>11.0</ele><time>2026-05-03T16:15:27.328Z</time></trkpt><trkpt lat="38.355004599999994" lon="16.4829277"><ele>10.333333333333332</ele><time>2026-05-03T16:15:28.281Z</time></trkpt><trkpt lat="38.3551439" lon="16.4831138"><ele>9.666666666666666</ele><time>2026-05-03T16:15:29.285Z</time></trkpt><trkpt lat="38.3552825" lon="16.4833015"><ele>9.0</ele><time>2026-05-03T16:15:30.3Z</time></trkpt><trkpt lat="38.355415799999996" lon="16.4834894"><ele>9.333333333333334</ele><time>2026-05-03T16:15:31.291Z</time></trkpt><trkpt lat="38.355546" lon="16.4836769"><ele>9.666666666666668</ele><time>2026-05-03T16:15:32.294Z</time></trkpt><trkpt lat="38.3556749" lon="16.4838615"><ele>10.0</ele><time>2026-05-03T16:15:33.279Z</time></trkpt><trkpt lat="38.355801899999996" lon="16.484042600000002"><ele>9.333333333333334</ele><time>2026-05-03T16:15:34.281Z</time></trkpt><trkpt lat="38.355927199999996" lon="16.484221899999998"><ele>8.666666666666666</ele><time>2026-05-03T16:15:35.317Z</time></trkpt><trkpt lat="38.3560496" lon="16.484396599999997"><ele>8.0</ele><time>2026-05-03T16:15:36.281Z</time></trkpt><trkpt lat="38.3561691" lon="16.4845685"><ele>8.0</ele><time>2026-05-03T16:15:37.296Z</time></trkpt><trkpt lat="38.356283999999995" lon="16.4847343"><ele>8.0</ele><time>2026-05-03T16:15:38.39Z</time></trkpt><trkpt lat="38.3563957" lon="16.4848945"><ele>8.0</ele><time>2026-05-03T16:15:39.301Z</time></trkpt><trkpt lat="38.35650019999999" lon="16.485045099999997"><ele>8.5</ele><time>2026-05-03T16:15:40.335Z</time></trkpt><trkpt lat="38.356599100000004" lon="16.4851872"><ele>9.0</ele><time>2026-05-03T16:15:41.292Z</time></trkpt><trkpt lat="38.356689100000004" lon="16.4853164"><ele>9.5</ele><time>2026-05-03T16:15:42.322Z</time></trkpt><trkpt lat="38.356770299999994" lon="16.485431600000002"><ele>10.0</ele><time>2026-05-03T16:15:43.305Z</time></trkpt><trkpt lat="38.3568389" lon="16.4855278"><ele>10.0</ele><time>2026-05-03T16:15:44.284Z</time></trkpt><trkpt lat="38.3568967" lon="16.485607899999998"><ele>10.0</ele><time>2026-05-03T16:15:45.278Z</time></trkpt><trkpt lat="38.3569455" lon="16.4856747"><ele>10.0</ele><time>2026-05-03T16:15:46.291Z</time></trkpt><trkpt lat="38.35697723285491" lon="16.485748966823806"><ele>10.0</ele><time>2026-05-03T16:15:47.292Z</time></trkpt><trkpt lat="38.3570597612615" lon="16.485868592251816"><ele>10.0</ele><time>2026-05-03T16:15:49.284Z</time></trkpt><trkpt lat="38.357130745690384" lon="16.48597176098304"><ele>10.0</ele><time>2026-05-03T16:15:51.279Z</time></trkpt><trkpt lat="38.35724981878585" lon="16.485861628561587"><ele>10.0</ele><time>2026-05-03T16:15:52.297Z</time></trkpt><trkpt lat="38.35731165414275" lon="16.485828546789516"><ele>10.0</ele><time>2026-05-03T16:15:53.282Z</time></trkpt><trkpt lat="38.3573722" lon="16.4858037"><ele>10.0</ele><time>2026-05-03T16:15:54.281Z</time></trkpt><trkpt lat="38.3574241" lon="16.4857521"><ele>10.0</ele><time>2026-05-03T16:15:55.285Z</time></trkpt><trkpt lat="38.3574829" lon="16.485706999999998"><ele>10.0</ele><time>2026-05-03T16:15:56.286Z</time></trkpt><trkpt lat="38.3575505" lon="16.4856775"><ele>10.0</ele><time>2026-05-03T16:15:57.289Z</time></trkpt><trkpt lat="38.3576281" lon="16.4856595"><ele>10.0</ele><time>2026-05-03T16:15:58.29Z</time></trkpt><trkpt lat="38.3577138" lon="16.4856508"><ele>10.0</ele><time>2026-05-03T16:15:59.283Z</time></trkpt><trkpt lat="38.3578097" lon="16.485646999999997"><ele>10.0</ele><time>2026-05-03T16:16:00.28Z</time></trkpt><trkpt lat="38.35791160000001" lon="16.4856424"><ele>10.0</ele><time>2026-05-03T16:16:01.291Z</time></trkpt><trkpt lat="38.358023" lon="16.485634100000002"><ele>10.75</ele><time>2026-05-03T16:16:02.286Z</time></trkpt><trkpt lat="38.358139" lon="16.4856236"><ele>11.5</ele><time>2026-05-03T16:16:03.299Z</time></trkpt><trkpt lat="38.3582588" lon="16.4856107"><ele>12.25</ele><time>2026-05-03T16:16:04.279Z</time></trkpt><trkpt lat="38.3583826" lon="16.485597700000003"><ele>13.0</ele><time>2026-05-03T16:16:05.321Z</time></trkpt><trkpt lat="38.3585092813753" lon="16.485608799249892"><ele>13.0</ele><time>2026-05-03T16:16:06.29Z</time></trkpt><trkpt lat="38.35863638908521" lon="16.485599570509848"><ele>13.0</ele><time>2026-05-03T16:16:07.285Z</time></trkpt><trkpt lat="38.35876405894683" lon="16.48559030104722"><ele>13.0</ele><time>2026-05-03T16:16:08.294Z</time></trkpt><trkpt lat="38.358894299999996" lon="16.485560300000003"><ele>13.0</ele><time>2026-05-03T16:16:09.284Z</time></trkpt><trkpt lat="38.3590273" lon="16.4855522"><ele>13.5</ele><time>2026-05-03T16:16:10.28Z</time></trkpt><trkpt lat="38.359164099999994" lon="16.485543"><ele>14.0</ele><time>2026-05-03T16:16:11.291Z</time></trkpt><trkpt lat="38.359303" lon="16.4855326"><ele>14.5</ele><time>2026-05-03T16:16:12.289Z</time></trkpt><trkpt lat="38.359442900000005" lon="16.4855204"><ele>15.0</ele><time>2026-05-03T16:16:13.307Z</time></trkpt><trkpt lat="38.359582" lon="16.4855089"><ele>15.0</ele><time>2026-05-03T16:16:14.285Z</time></trkpt><trkpt lat="38.3597223" lon="16.4854975"><ele>15.0</ele><time>2026-05-03T16:16:15.283Z</time></trkpt><trkpt lat="38.3598637" lon="16.485486299999998"><ele>15.0</ele><time>2026-05-03T16:16:16.289Z</time></trkpt><trkpt lat="38.3600097" lon="16.485474099999998"><ele>15.0</ele><time>2026-05-03T16:16:17.282Z</time></trkpt><trkpt lat="38.360153700000005" lon="16.4854634"><ele>15.0</ele><time>2026-05-03T16:16:18.283Z</time></trkpt><trkpt lat="38.3603022" lon="16.4854537"><ele>15.0</ele><time>2026-05-03T16:16:19.282Z</time></trkpt><trkpt lat="38.360451499999996" lon="16.4854436"><ele>15.0</ele><time>2026-05-03T16:16:20.315Z</time></trkpt><trkpt lat="38.36060019999999" lon="16.4854331"><ele>15.0</ele><time>2026-05-03T16:16:21.282Z</time></trkpt><trkpt lat="38.3607487" lon="16.485422200000002"><ele>16.25</ele><time>2026-05-03T16:16:22.281Z</time></trkpt><trkpt lat="38.360895199999995" lon="16.485411"><ele>17.5</ele><time>2026-05-03T16:16:23.343Z</time></trkpt><trkpt lat="38.36104219999999" lon="16.4853983"><ele>18.75</ele><time>2026-05-03T16:16:24.28Z</time></trkpt><trkpt lat="38.3611872" lon="16.485385799999996"><ele>20.0</ele><time>2026-05-03T16:16:25.289Z</time></trkpt><trkpt lat="38.3613329" lon="16.485374699999998"><ele>19.5</ele><time>2026-05-03T16:16:26.312Z</time></trkpt><trkpt lat="38.361474300000005" lon="16.485364699999998"><ele>19.0</ele><time>2026-05-03T16:16:27.29Z</time></trkpt><trkpt lat="38.3616144" lon="16.4853563"><ele>18.5</ele><time>2026-05-03T16:16:28.363Z</time></trkpt><trkpt lat="38.36175050000001" lon="16.4853485"><ele>18.0</ele><time>2026-05-03T16:16:29.282Z</time></trkpt><trkpt lat="38.361881700000005" lon="16.4853403"><ele>18.0</ele><time>2026-05-03T16:16:30.306Z</time></trkpt><trkpt lat="38.3620084" lon="16.4853299"><ele>18.0</ele><time>2026-05-03T16:16:31.33Z</time></trkpt><trkpt lat="38.3621253" lon="16.485314100000004"><ele>18.0</ele><time>2026-05-03T16:16:32.282Z</time></trkpt><trkpt lat="38.3622355" lon="16.4852925"><ele>18.0</ele><time>2026-05-03T16:16:33.367Z</time></trkpt><trkpt lat="38.3623344" lon="16.4852704"><ele>18.142857142857146</ele><time>2026-05-03T16:16:34.309Z</time></trkpt><trkpt lat="38.3624252" lon="16.4852506"><ele>18.285714285714285</ele><time>2026-05-03T16:16:35.299Z</time></trkpt><trkpt lat="38.3625017" lon="16.485234"><ele>18.42857142857143</ele><time>2026-05-03T16:16:36.278Z</time></trkpt><trkpt lat="38.36256529999999" lon="16.4852213"><ele>18.571428571428573</ele><time>2026-05-03T16:16:37.288Z</time></trkpt><trkpt lat="38.3626439" lon="16.4852363"><ele>18.714285714285715</ele><time>2026-05-03T16:16:39.282Z</time></trkpt><trkpt lat="38.362620040552166" lon="16.48531780930133"><ele>18.857142857142858</ele><time>2026-05-03T16:16:43.311Z</time></trkpt><trkpt lat="38.36262991377889" lon="16.48539943988837"><ele>19.0</ele><time>2026-05-03T16:16:47.294Z</time></trkpt><trkpt lat="38.36264053120657" lon="16.485518125412888"><ele>18.0</ele><time>2026-05-03T16:16:50.293Z</time></trkpt><trkpt lat="38.362643733865724" lon="16.485615199999998"><ele>17.0</ele><time>2026-05-03T16:16:52.351Z</time></trkpt><trkpt lat="38.36263941246097" lon="16.485704418934258"><ele>16.0</ele><time>2026-05-03T16:16:55.281Z</time></trkpt><trkpt lat="38.3626317230385" lon="16.485788545142576"><ele>15.0</ele><time>2026-05-03T16:17:05.286Z</time></trkpt><trkpt lat="38.353652231983254" lon="16.44980560888147"><ele>18.333333333333332</ele><time>2026-05-03T16:06:23.82Z</time></trkpt><trkpt lat="38.3536738" lon="16.4497141"><ele>21.666666666666664</ele><time>2026-05-03T16:09:55.283Z</time></trkpt><trkpt lat="38.353733" lon="16.449685600000002"><ele>25.0</ele><time>2026-05-03T16:10:00.367Z</time></trkpt><trkpt lat="38.353782900000006" lon="16.449752"><ele>28.333333333333332</ele><time>2026-05-03T16:10:07.331Z</time></trkpt><trkpt lat="38.3537953" lon="16.4498329"><ele>31.666666666666664</ele><time>2026-05-03T16:10:12.349Z</time></trkpt><trkpt lat="38.3537895" lon="16.4499145"><ele>35.0</ele><time>2026-05-03T16:10:16.282Z</time></trkpt><trkpt lat="38.353664846220326" lon="16.44998076788334"><ele>35.0</ele><time>2026-05-03T16:10:20.335Z</time></trkpt><trkpt lat="38.35365371415591" lon="16.450060082940315"><ele>35.0</ele><time>2026-05-03T16:10:23.31Z</time></trkpt><trkpt lat="38.353641520051646" lon="16.450146965037973"><ele>35.0</ele><time>2026-05-03T16:10:26.377Z</time></trkpt><trkpt lat="38.353627750918875" lon="16.450230109199385"><ele>35.0</ele><time>2026-05-03T16:10:30.371Z</time></trkpt><trkpt lat="38.353592219094" lon="16.450355735458327"><ele>35.0</ele><time>2026-05-03T16:10:34.364Z</time></trkpt><trkpt lat="38.35357721826652" lon="16.450436453695488"><ele>35.0</ele><time>2026-05-03T16:10:36.31Z</time></trkpt><trkpt lat="38.35355938632591" lon="16.450547267436328"><ele>34.5</ele><time>2026-05-03T16:10:39.382Z</time></trkpt><trkpt lat="38.35354785772817" lon="16.450638683067016"><ele>34.0</ele><time>2026-05-03T16:10:42.352Z</time></trkpt><trkpt lat="38.353537725179805" lon="16.450719598647122"><ele>33.5</ele><time>2026-05-03T16:10:46.346Z</time></trkpt><trkpt lat="38.35351349532713" lon="16.450835048681807"><ele>33.0</ele><time>2026-05-03T16:10:51.669Z</time></trkpt><trkpt lat="38.3534886" lon="16.4509785"><ele>32.5</ele><time>2026-05-03T16:10:53.309Z</time></trkpt><trkpt lat="38.3534273" lon="16.4510597"><ele>32.0</ele><time>2026-05-03T16:10:54.332Z</time></trkpt><trkpt lat="38.353369900000004" lon="16.4511561"><ele>32.0</ele><time>2026-05-03T16:10:55.3Z</time></trkpt><trkpt lat="38.353297564758016" lon="16.451249370381966"><ele>32.0</ele><time>2026-05-03T16:10:56.386Z</time></trkpt><trkpt lat="38.35323811634958" lon="16.45137291234481"><ele>32.0</ele><time>2026-05-03T16:10:57.302Z</time></trkpt><trkpt lat="38.35318336020518" lon="16.451503572602064"><ele>32.0</ele><time>2026-05-03T16:10:58.326Z</time></trkpt><trkpt lat="38.353128982868576" lon="16.4516412860336"><ele>32.0</ele><time>2026-05-03T16:10:59.35Z</time></trkpt><trkpt lat="38.35307572932725" lon="16.45178096630242"><ele>32.0</ele><time>2026-05-03T16:11:00.375Z</time></trkpt><trkpt lat="38.35302275494346" lon="16.45192173156351"><ele>32.0</ele><time>2026-05-03T16:11:01.296Z</time></trkpt><trkpt lat="38.35296903227622" lon="16.45206472578248"><ele>32.0</ele><time>2026-05-03T16:11:02.319Z</time></trkpt><trkpt lat="38.35291612763323" lon="16.452206011959035"><ele>31.25</ele><time>2026-05-03T16:11:03.343Z</time></trkpt><trkpt lat="38.35286365112431" lon="16.452346154735423"><ele>30.5</ele><time>2026-05-03T16:11:04.368Z</time></trkpt><trkpt lat="38.35281156767147" lon="16.452485247851975"><ele>29.75</ele><time>2026-05-03T16:11:05.286Z</time></trkpt><trkpt lat="38.35275806415597" lon="16.452620502669543"><ele>29.0</ele><time>2026-05-03T16:11:06.313Z</time></trkpt><trkpt lat="38.35270509919247" lon="16.45275237143661"><ele>29.0</ele><time>2026-05-03T16:11:07.337Z</time></trkpt><trkpt lat="38.352650998582334" lon="16.45288146858239"><ele>29.0</ele><time>2026-05-03T16:11:08.361Z</time></trkpt><trkpt lat="38.35259620365939" lon="16.453002685079735"><ele>29.0</ele><time>2026-05-03T16:11:09.385Z</time></trkpt><trkpt lat="38.352548399999996" lon="16.4531283"><ele>29.0</ele><time>2026-05-03T16:11:10.307Z</time></trkpt><trkpt lat="38.352466584496995" lon="16.453220378053203"><ele>29.0</ele><time>2026-05-03T16:11:11.331Z</time></trkpt><trkpt lat="38.3524088" lon="16.4533381"><ele>29.25</ele><time>2026-05-03T16:11:12.355Z</time></trkpt><trkpt lat="38.3523358" lon="16.4534461"><ele>29.5</ele><time>2026-05-03T16:11:13.379Z</time></trkpt><trkpt lat="38.35225029857311" lon="16.453545617214708"><ele>29.75</ele><time>2026-05-03T16:11:14.3Z</time></trkpt><trkpt lat="38.352169310372346" lon="16.45366781966878"><ele>30.0</ele><time>2026-05-03T16:11:15.322Z</time></trkpt><trkpt lat="38.3520847408774" lon="16.453799728348667"><ele>29.0</ele><time>2026-05-03T16:11:16.349Z</time></trkpt><trkpt lat="38.351995929627954" lon="16.45394001055278"><ele>28.0</ele><time>2026-05-03T16:11:17.372Z</time></trkpt><trkpt lat="38.351905205087455" lon="16.45408331494202"><ele>27.0</ele><time>2026-05-03T16:11:18.294Z</time></trkpt><trkpt lat="38.351823399999994" lon="16.4542442"><ele>26.0</ele><time>2026-05-03T16:11:19.318Z</time></trkpt><trkpt lat="38.35171377727515" lon="16.45438263709984"><ele>26.0</ele><time>2026-05-03T16:11:20.342Z</time></trkpt><trkpt lat="38.35161431085904" lon="16.45453530760118"><ele>26.0</ele><time>2026-05-03T16:11:21.366Z</time></trkpt><trkpt lat="38.35151329110608" lon="16.454689438421507"><ele>26.0</ele><time>2026-05-03T16:11:22.39Z</time></trkpt><trkpt lat="38.35140842089992" lon="16.454839790677216"><ele>26.0</ele><time>2026-05-03T16:11:23.312Z</time></trkpt><trkpt lat="38.35130142631655" lon="16.454984696068507"><ele>26.0</ele><time>2026-05-03T16:11:24.355Z</time></trkpt><trkpt lat="38.35119029723288" lon="16.455126650287124"><ele>26.0</ele><time>2026-05-03T16:11:25.28Z</time></trkpt><trkpt lat="38.351078545903675" lon="16.45526662403903"><ele>26.0</ele><time>2026-05-03T16:11:26.384Z</time></trkpt><trkpt lat="38.35096857790644" lon="16.455402631368305"><ele>26.0</ele><time>2026-05-03T16:11:27.305Z</time></trkpt><trkpt lat="38.35085902686375" lon="16.45553625389551"><ele>26.0</ele><time>2026-05-03T16:11:28.328Z</time></trkpt><trkpt lat="38.350751156145556" lon="16.455665951141203"><ele>25.5</ele><time>2026-05-03T16:11:29.35Z</time></trkpt><trkpt lat="38.350646186367165" lon="16.455792037198957"><ele>25.0</ele><time>2026-05-03T16:11:30.376Z</time></trkpt><trkpt lat="38.35054258698546" lon="16.45591647721588"><ele>24.5</ele><time>2026-05-03T16:11:31.3Z</time></trkpt><trkpt lat="38.35043995060533" lon="16.456037105098662"><ele>24.0</ele><time>2026-05-03T16:11:32.321Z</time></trkpt><trkpt lat="38.3503389586161" lon="16.456155305079225"><ele>24.0</ele><time>2026-05-03T16:11:33.347Z</time></trkpt><trkpt lat="38.350240178351925" lon="16.456269482779927"><ele>24.0</ele><time>2026-05-03T16:11:34.371Z</time></trkpt><trkpt lat="38.350145399999995" lon="16.4563865"><ele>24.0</ele><time>2026-05-03T16:11:35.285Z</time></trkpt><trkpt lat="38.350017570257876" lon="16.456444138268434"><ele>24.0</ele><time>2026-05-03T16:11:36.317Z</time></trkpt><trkpt lat="38.3498924573743" lon="16.456517052163484"><ele>24.0</ele><time>2026-05-03T16:11:37.341Z</time></trkpt><trkpt lat="38.34976251512448" lon="16.45657769208691"><ele>24.0</ele><time>2026-05-03T16:11:38.365Z</time></trkpt><trkpt lat="38.34962898159135" lon="16.45664481471115"><ele>24.0</ele><time>2026-05-03T16:11:39.387Z</time></trkpt><trkpt lat="38.34949290219816" lon="16.4567150893423"><ele>24.0</ele><time>2026-05-03T16:11:40.31Z</time></trkpt><trkpt lat="38.34935724848286" lon="16.456785144153717"><ele>24.0</ele><time>2026-05-03T16:11:41.356Z</time></trkpt><trkpt lat="38.34922262643392" lon="16.456854459143184"><ele>24.0</ele><time>2026-05-03T16:11:42.361Z</time></trkpt><trkpt lat="38.34908539048053" lon="16.456921611106797"><ele>24.0</ele><time>2026-05-03T16:11:43.383Z</time></trkpt><trkpt lat="38.348948717430545" lon="16.456988351589224"><ele>24.0</ele><time>2026-05-03T16:11:44.313Z</time></trkpt><trkpt lat="38.34881555477683" lon="16.45705508803639"><ele>23.0</ele><time>2026-05-03T16:11:45.331Z</time></trkpt><trkpt lat="38.348684066441095" lon="16.457121925039786"><ele>22.0</ele><time>2026-05-03T16:11:46.353Z</time></trkpt><trkpt lat="38.3485594024637" lon="16.45718382388932"><ele>21.0</ele><time>2026-05-03T16:11:47.491Z</time></trkpt><trkpt lat="38.348437505459565" lon="16.457241416718237"><ele>20.0</ele><time>2026-05-03T16:11:48.348Z</time></trkpt><trkpt lat="38.34831482684903" lon="16.457299378834705"><ele>20.0</ele><time>2026-05-03T16:11:49.322Z</time></trkpt><trkpt lat="38.34819303163955" lon="16.457357500824795"><ele>20.0</ele><time>2026-05-03T16:11:50.345Z</time></trkpt><trkpt lat="38.34807126692109" lon="16.457415770109783"><ele>20.0</ele><time>2026-05-03T16:11:51.369Z</time></trkpt><trkpt lat="38.3479545" lon="16.4574946"><ele>20.0</ele><time>2026-05-03T16:11:52.292Z</time></trkpt><trkpt lat="38.34783420000001" lon="16.4575635"><ele>19.5</ele><time>2026-05-03T16:11:53.315Z</time></trkpt><trkpt lat="38.3477183" lon="16.4576482"><ele>19.0</ele><time>2026-05-03T16:11:54.338Z</time></trkpt><trkpt lat="38.347592668481994" lon="16.457732231611097"><ele>18.5</ele><time>2026-05-03T16:11:55.363Z</time></trkpt><trkpt lat="38.347477085302096" lon="16.45783594443343"><ele>18.0</ele><time>2026-05-03T16:11:56.387Z</time></trkpt><trkpt lat="38.34736050226609" lon="16.457942418990186"><ele>18.0</ele><time>2026-05-03T16:11:57.309Z</time></trkpt><trkpt lat="38.347243723526226" lon="16.458050119175944"><ele>18.0</ele><time>2026-05-03T16:11:58.333Z</time></trkpt><trkpt lat="38.347129313470184" lon="16.458157275890166"><ele>18.0</ele><time>2026-05-03T16:11:59.357Z</time></trkpt><trkpt lat="38.347017658881384" lon="16.45826114800979"><ele>18.0</ele><time>2026-05-03T16:12:00.38Z</time></trkpt><trkpt lat="38.34690661784202" lon="16.45836372033645"><ele>17.75</ele><time>2026-05-03T16:12:01.302Z</time></trkpt><trkpt lat="38.34679738189944" lon="16.458464625268117"><ele>17.5</ele><time>2026-05-03T16:12:02.326Z</time></trkpt><trkpt lat="38.346691024575755" lon="16.458562870890578"><ele>17.25</ele><time>2026-05-03T16:12:03.35Z</time></trkpt><trkpt lat="38.3466008" lon="16.4586789"><ele>17.0</ele><time>2026-05-03T16:12:04.476Z</time></trkpt><trkpt lat="38.346507" lon="16.4587661"><ele>17.0</ele><time>2026-05-03T16:12:05.398Z</time></trkpt><trkpt lat="38.346417699999996" lon="16.4588498"><ele>17.0</ele><time>2026-05-03T16:12:06.32Z</time></trkpt><trkpt lat="38.3463343" lon="16.458929100000002"><ele>17.0</ele><time>2026-05-03T16:12:07.344Z</time></trkpt><trkpt lat="38.34623532358224" lon="16.458983305038146"><ele>17.0</ele><time>2026-05-03T16:12:08.368Z</time></trkpt><trkpt lat="38.346155860547206" lon="16.459058421008994"><ele>17.0</ele><time>2026-05-03T16:12:09.392Z</time></trkpt><trkpt lat="38.3460823" lon="16.459142"><ele>16.8</ele><time>2026-05-03T16:12:10.314Z</time></trkpt><trkpt lat="38.346008000000005" lon="16.4592145"><ele>16.6</ele><time>2026-05-03T16:12:11.337Z</time></trkpt><trkpt lat="38.345940899999995" lon="16.459305500000003"><ele>16.400000000000002</ele><time>2026-05-03T16:12:12.362Z</time></trkpt><trkpt lat="38.345866596492655" lon="16.45939857529013"><ele>16.2</ele><time>2026-05-03T16:12:13.295Z</time></trkpt><trkpt lat="38.34580848118691" lon="16.459510669535433"><ele>16.0</ele><time>2026-05-03T16:12:14.307Z</time></trkpt><trkpt lat="38.3457659" lon="16.459639199999998"><ele>16.0</ele><time>2026-05-03T16:12:15.331Z</time></trkpt><trkpt lat="38.3456927337229" lon="16.4597499181604"><ele>16.0</ele><time>2026-05-03T16:12:16.355Z</time></trkpt><trkpt lat="38.34563278520751" lon="16.459872231396464"><ele>16.0</ele><time>2026-05-03T16:12:17.403Z</time></trkpt><trkpt lat="38.345573356255805" lon="16.45999850920269"><ele>16.0</ele><time>2026-05-03T16:12:18.301Z</time></trkpt><trkpt lat="38.34551569885986" lon="16.460124070509995"><ele>15.8</ele><time>2026-05-03T16:12:19.331Z</time></trkpt><trkpt lat="38.345459775681384" lon="16.46024849818516"><ele>15.600000000000001</ele><time>2026-05-03T16:12:20.348Z</time></trkpt><trkpt lat="38.34540482311985" lon="16.460371333977555"><ele>15.4</ele><time>2026-05-03T16:12:21.372Z</time></trkpt><trkpt lat="38.34535191949766" lon="16.460489590240464"><ele>15.2</ele><time>2026-05-03T16:12:22.294Z</time></trkpt><trkpt lat="38.3453024574037" lon="16.46060015353849"><ele>15.0</ele><time>2026-05-03T16:12:23.319Z</time></trkpt><trkpt lat="38.34525639899848" lon="16.460703108036775"><ele>15.0</ele><time>2026-05-03T16:12:24.343Z</time></trkpt><trkpt lat="38.34521416167274" lon="16.460797522010413"><ele>15.0</ele><time>2026-05-03T16:12:25.292Z</time></trkpt><trkpt lat="38.34517550037161" lon="16.46088349000648"><ele>15.0</ele><time>2026-05-03T16:12:26.288Z</time></trkpt><trkpt lat="38.34513691692213" lon="16.46097117296071"><ele>15.0</ele><time>2026-05-03T16:12:27.312Z</time></trkpt><trkpt lat="38.34509993780213" lon="16.46105913611758"><ele>15.0</ele><time>2026-05-03T16:12:28.299Z</time></trkpt><trkpt lat="38.34506097219542" lon="16.46114750150286"><ele>15.0</ele><time>2026-05-03T16:12:29.36Z</time></trkpt><trkpt lat="38.3450153649163" lon="16.461232141049088"><ele>14.666666666666666</ele><time>2026-05-03T16:12:30.384Z</time></trkpt><trkpt lat="38.344964208399986" lon="16.461312593085772"><ele>14.333333333333332</ele><time>2026-05-03T16:12:31.306Z</time></trkpt><trkpt lat="38.34490571665168" lon="16.46138406245527"><ele>14.0</ele><time>2026-05-03T16:12:32.329Z</time></trkpt><trkpt lat="38.3448407" lon="16.4614603"><ele>13.666666666666666</ele><time>2026-05-03T16:12:33.352Z</time></trkpt><trkpt lat="38.344758299999995" lon="16.4615043"><ele>13.333333333333332</ele><time>2026-05-03T16:12:34.377Z</time></trkpt><trkpt lat="38.3446744" lon="16.461538599999997"><ele>13.0</ele><time>2026-05-03T16:12:35.299Z</time></trkpt><trkpt lat="38.344597799999995" lon="16.461562599999997"><ele>12.200000000000001</ele><time>2026-05-03T16:12:36.323Z</time></trkpt><trkpt lat="38.3444862" lon="16.4615895"><ele>11.4</ele><time>2026-05-03T16:12:38.355Z</time></trkpt><trkpt lat="38.3444224" lon="16.4616091"><ele>10.600000000000001</ele><time>2026-05-03T16:12:42.279Z</time></trkpt><trkpt lat="38.3443913" lon="16.4617192"><ele>9.8</ele><time>2026-05-03T16:12:45.278Z</time></trkpt><trkpt lat="38.34440204871231" lon="16.461873699183975"><ele>9.0</ele><time>2026-05-03T16:12:47.285Z</time></trkpt><trkpt lat="38.34441792075054" lon="16.4619667936729"><ele>9.0</ele><time>2026-05-03T16:12:48.289Z</time></trkpt><trkpt lat="38.34443592017115" lon="16.462072365913635"><ele>9.0</ele><time>2026-05-03T16:12:49.286Z</time></trkpt><trkpt lat="38.34445540532602" lon="16.462186652462254"><ele>9.0</ele><time>2026-05-03T16:12:50.293Z</time></trkpt><trkpt lat="38.34447542916904" lon="16.462304098504575"><ele>9.0</ele><time>2026-05-03T16:12:51.279Z</time></trkpt><trkpt lat="38.344495793847074" lon="16.462423543278707"><ele>9.0</ele><time>2026-05-03T16:12:52.281Z</time></trkpt><trkpt lat="38.34451604775995" lon="16.462542338415524"><ele>8.8</ele><time>2026-05-03T16:12:53.289Z</time></trkpt><trkpt lat="38.344537259588584" lon="16.46266186674585"><ele>8.600000000000001</ele><time>2026-05-03T16:12:54.289Z</time></trkpt><trkpt lat="38.34455822728392" lon="16.462783283208886"><ele>8.4</ele><time>2026-05-03T16:12:55.285Z</time></trkpt><trkpt lat="38.34457958041083" lon="16.46290693157205"><ele>8.200000000000001</ele><time>2026-05-03T16:12:56.295Z</time></trkpt><trkpt lat="38.34460116150253" lon="16.463031899992504"><ele>8.0</ele><time>2026-05-03T16:12:57.283Z</time></trkpt><trkpt lat="38.34462322629612" lon="16.46316019609619"><ele>7.800000000000001</ele><time>2026-05-03T16:12:58.28Z</time></trkpt><trkpt lat="38.344645400153944" lon="16.463289152857016"><ele>7.6000000000000005</ele><time>2026-05-03T16:12:59.283Z</time></trkpt><trkpt lat="38.34466778917437" lon="16.463419949212362"><ele>7.3999999999999995</ele><time>2026-05-03T16:13:00.282Z</time></trkpt><trkpt lat="38.3446904875478" lon="16.46355242203544"><ele>7.199999999999999</ele><time>2026-05-03T16:13:01.285Z</time></trkpt><trkpt lat="38.344712660685666" lon="16.463681829456455"><ele>7.0</ele><time>2026-05-03T16:13:02.305Z</time></trkpt><trkpt lat="38.344733917030595" lon="16.46380588626416"><ele>7.833333333333334</ele><time>2026-05-03T16:13:03.287Z</time></trkpt><trkpt lat="38.34475182047714" lon="16.463910374806872"><ele>8.666666666666668</ele><time>2026-05-03T16:13:04.28Z</time></trkpt><trkpt lat="38.34476779841563" lon="16.46400362564908"><ele>9.5</ele><time>2026-05-03T16:13:05.375Z</time></trkpt><trkpt lat="38.34478549721216" lon="16.464107116225506"><ele>10.333333333333334</ele><time>2026-05-03T16:13:07.292Z</time></trkpt><trkpt lat="38.3448033771879" lon="16.464213002838008"><ele>11.166666666666666</ele><time>2026-05-03T16:13:09.286Z</time></trkpt><trkpt lat="38.344824552891566" lon="16.46434960922998"><ele>12.0</ele><time>2026-05-03T16:13:11.377Z</time></trkpt><trkpt lat="38.34485239024301" lon="16.464521809260035"><ele>12.0</ele><time>2026-05-03T16:13:13.382Z</time></trkpt><trkpt lat="38.3448685262895" lon="16.464608795981256"><ele>12.0</ele><time>2026-05-03T16:13:14.282Z</time></trkpt><trkpt lat="38.34489371198646" lon="16.464713008933934"><ele>12.0</ele><time>2026-05-03T16:13:15.277Z</time></trkpt><trkpt lat="38.34492575321096" lon="16.46481921839493"><ele>12.0</ele><time>2026-05-03T16:13:16.281Z</time></trkpt><trkpt lat="38.344962063194764" lon="16.464923486058133"><ele>12.0</ele><time>2026-05-03T16:13:17.301Z</time></trkpt><trkpt lat="38.34499944033521" lon="16.465030195363948"><ele>12.0</ele><time>2026-05-03T16:13:18.279Z</time></trkpt><trkpt lat="38.34503712246899" lon="16.465142759192894"><ele>11.8</ele><time>2026-05-03T16:13:19.292Z</time></trkpt><trkpt lat="38.34507992105623" lon="16.465273570023946"><ele>11.6</ele><time>2026-05-03T16:13:20.377Z</time></trkpt><trkpt lat="38.34511426823638" lon="16.465378549716917"><ele>11.4</ele><time>2026-05-03T16:13:21.285Z</time></trkpt><trkpt lat="38.345153609237805" lon="16.46549875225922"><ele>11.200000000000001</ele><time>2026-05-03T16:13:22.288Z</time></trkpt><trkpt lat="38.345193807129434" lon="16.465620353382967"><ele>11.0</ele><time>2026-05-03T16:13:23.281Z</time></trkpt><trkpt lat="38.34523448222091" lon="16.46574233946358"><ele>11.0</ele><time>2026-05-03T16:13:24.289Z</time></trkpt><trkpt lat="38.34527538259348" lon="16.465865040586273"><ele>11.0</ele><time>2026-05-03T16:13:25.284Z</time></trkpt><trkpt lat="38.34532002400589" lon="16.46599896458504"><ele>11.0</ele><time>2026-05-03T16:13:26.377Z</time></trkpt><trkpt lat="38.345399199999996" lon="16.4660784"><ele>11.0</ele><time>2026-05-03T16:13:27.279Z</time></trkpt><trkpt lat="38.3454378" lon="16.4661923"><ele>11.0</ele><time>2026-05-03T16:13:28.281Z</time></trkpt><trkpt lat="38.3454757" lon="16.466301400000003"><ele>11.333333333333332</ele><time>2026-05-03T16:13:29.282Z</time></trkpt><trkpt lat="38.34551209999999" lon="16.4664047"><ele>11.666666666666666</ele><time>2026-05-03T16:13:30.29Z</time></trkpt><trkpt lat="38.34549948866071" lon="16.466527970758218"><ele>12.0</ele><time>2026-05-03T16:13:31.284Z</time></trkpt><trkpt lat="38.34553206139375" lon="16.466617922573136"><ele>12.333333333333332</ele><time>2026-05-03T16:13:32.289Z</time></trkpt><trkpt lat="38.345560633085114" lon="16.466695874785117"><ele>12.666666666666666</ele><time>2026-05-03T16:13:33.284Z</time></trkpt><trkpt lat="38.3456013" lon="16.4668126"><ele>13.0</ele><time>2026-05-03T16:13:35.291Z</time></trkpt><trkpt lat="38.345545900000005" lon="16.4669387"><ele>12.999999999999998</ele><time>2026-05-03T16:13:37.291Z</time></trkpt><trkpt lat="38.345502200000006" lon="16.4670069"><ele>13.0</ele><time>2026-05-03T16:13:38.285Z</time></trkpt><trkpt lat="38.3454516" lon="16.467079599999998"><ele>13.0</ele><time>2026-05-03T16:13:39.281Z</time></trkpt><trkpt lat="38.3453941" lon="16.467156699999997"><ele>13.0</ele><time>2026-05-03T16:13:40.361Z</time></trkpt><trkpt lat="38.34533129999999" lon="16.467236"><ele>12.999999999999998</ele><time>2026-05-03T16:13:41.29Z</time></trkpt><trkpt lat="38.345265899999994" lon="16.4673126"><ele>13.0</ele><time>2026-05-03T16:13:42.278Z</time></trkpt><trkpt lat="38.3452" lon="16.4673828"><ele>12.666666666666666</ele><time>2026-05-03T16:13:43.283Z</time></trkpt><trkpt lat="38.3451334" lon="16.4674446"><ele>12.333333333333332</ele><time>2026-05-03T16:13:44.283Z</time></trkpt><trkpt lat="38.34506700000001" lon="16.4674969"><ele>12.0</ele><time>2026-05-03T16:13:45.321Z</time></trkpt><trkpt lat="38.345004" lon="16.467539199999997"><ele>11.666666666666666</ele><time>2026-05-03T16:13:46.283Z</time></trkpt><trkpt lat="38.344898199999996" lon="16.4675936"><ele>11.333333333333332</ele><time>2026-05-03T16:13:48.277Z</time></trkpt><trkpt lat="38.3448099" lon="16.467615499999997"><ele>11.0</ele><time>2026-05-03T16:13:50.283Z</time></trkpt><trkpt lat="38.34471560000001" lon="16.467619799999998"><ele>10.8</ele><time>2026-05-03T16:13:52.283Z</time></trkpt><trkpt lat="38.34462430000001" lon="16.467676700000002"><ele>10.600000000000001</ele><time>2026-05-03T16:13:54.278Z</time></trkpt><trkpt lat="38.3445899" lon="16.467801100000003"><ele>10.4</ele><time>2026-05-03T16:13:56.282Z</time></trkpt><trkpt lat="38.3446383" lon="16.467927000000003"><ele>10.2</ele><time>2026-05-03T16:13:58.286Z</time></trkpt><trkpt lat="38.3447461" lon="16.468013"><ele>10.0</ele><time>2026-05-03T16:14:00.277Z</time></trkpt><trkpt lat="38.344798700000005" lon="16.4680669"><ele>10.0</ele><time>2026-05-03T16:14:01.28Z</time></trkpt><trkpt lat="38.3448443" lon="16.4681444"><ele>10.0</ele><time>2026-05-03T16:14:02.283Z</time></trkpt><trkpt lat="38.344886699999996" lon="16.4682339"><ele>10.0</ele><time>2026-05-03T16:14:03.279Z</time></trkpt><trkpt lat="38.34491367491815" lon="16.468348569482764"><ele>10.0</ele><time>2026-05-03T16:14:04.283Z</time></trkpt><trkpt lat="38.3449627569292" lon="16.468460723265313"><ele>10.0</ele><time>2026-05-03T16:14:05.285Z</time></trkpt><trkpt lat="38.34502048169362" lon="16.46858053805748"><ele>10.0</ele><time>2026-05-03T16:14:06.279Z</time></trkpt><trkpt lat="38.345086774631085" lon="16.468706423836657"><ele>10.0</ele><time>2026-05-03T16:14:07.281Z</time></trkpt><trkpt lat="38.34516279492588" lon="16.468836339598216"><ele>10.0</ele><time>2026-05-03T16:14:08.282Z</time></trkpt><trkpt lat="38.345246651305466" lon="16.46896825768533"><ele>10.0</ele><time>2026-05-03T16:14:09.28Z</time></trkpt><trkpt lat="38.34534337843019" lon="16.46909932818932"><ele>9.666666666666668</ele><time>2026-05-03T16:14:10.285Z</time></trkpt><trkpt lat="38.345443578640705" lon="16.469234871236683"><ele>9.333333333333334</ele><time>2026-05-03T16:14:11.284Z</time></trkpt><trkpt lat="38.3455604" lon="16.4693631"><ele>9.0</ele><time>2026-05-03T16:14:12.366Z</time></trkpt><trkpt lat="38.34566590000001" lon="16.469513099999997"><ele>9.333333333333334</ele><time>2026-05-03T16:14:13.279Z</time></trkpt><trkpt lat="38.3457766" lon="16.469671100000003"><ele>9.666666666666668</ele><time>2026-05-03T16:14:14.32Z</time></trkpt><trkpt lat="38.3458744641076" lon="16.469847274420964"><ele>10.0</ele><time>2026-05-03T16:14:15.289Z</time></trkpt><trkpt lat="38.3460042" lon="16.4700007"><ele>10.0</ele><time>2026-05-03T16:14:16.283Z</time></trkpt><trkpt lat="38.3461229" lon="16.4701731"><ele>10.0</ele><time>2026-05-03T16:14:17.286Z</time></trkpt><trkpt lat="38.346244" lon="16.470350900000003"><ele>10.0</ele><time>2026-05-03T16:14:18.279Z</time></trkpt><trkpt lat="38.3463673" lon="16.4705332"><ele>10.333333333333334</ele><time>2026-05-03T16:14:19.289Z</time></trkpt><trkpt lat="38.346492" lon="16.470715499999997"><ele>10.666666666666666</ele><time>2026-05-03T16:14:20.283Z</time></trkpt><trkpt lat="38.346617300000005" lon="16.4708971"><ele>11.0</ele><time>2026-05-03T16:14:21.294Z</time></trkpt><trkpt lat="38.34673066139283" lon="16.47109357918027"><ele>11.0</ele><time>2026-05-03T16:14:22.304Z</time></trkpt><trkpt lat="38.3468706" lon="16.4712618"><ele>11.0</ele><time>2026-05-03T16:14:23.286Z</time></trkpt><trkpt lat="38.346998" lon="16.4714454"><ele>11.0</ele><time>2026-05-03T16:14:24.277Z</time></trkpt><trkpt lat="38.3471239" lon="16.4716288"><ele>10.0</ele><time>2026-05-03T16:14:25.279Z</time></trkpt><trkpt lat="38.3472524" lon="16.471813700000002"><ele>9.0</ele><time>2026-05-03T16:14:26.283Z</time></trkpt><trkpt lat="38.3473793" lon="16.4719983"><ele>8.0</ele><time>2026-05-03T16:14:27.324Z</time></trkpt><trkpt lat="38.3475051" lon="16.4721832"><ele>7.666666666666666</ele><time>2026-05-03T16:14:28.283Z</time></trkpt><trkpt lat="38.347630300000006" lon="16.472367799999997"><ele>7.333333333333334</ele><time>2026-05-03T16:14:29.348Z</time></trkpt><trkpt lat="38.347756100000005" lon="16.4725527"><ele>7.0</ele><time>2026-05-03T16:14:30.285Z</time></trkpt><trkpt lat="38.3478787" lon="16.472733"><ele>7.0</ele><time>2026-05-03T16:14:31.299Z</time></trkpt><trkpt lat="38.347999800000004" lon="16.4729095"><ele>7.0</ele><time>2026-05-03T16:14:32.342Z</time></trkpt><trkpt lat="38.34812110000001" lon="16.473084"><ele>7.0</ele><time>2026-05-03T16:14:33.281Z</time></trkpt><trkpt lat="38.3482386" lon="16.4732533"><ele>7.666666666666667</ele><time>2026-05-03T16:14:34.351Z</time></trkpt><trkpt lat="38.3483558" lon="16.473422999999997"><ele>8.333333333333334</ele><time>2026-05-03T16:14:35.285Z</time></trkpt><trkpt lat="38.348471499999995" lon="16.4735903"><ele>9.0</ele><time>2026-05-03T16:14:36.277Z</time></trkpt><trkpt lat="38.3485857" lon="16.4737553"><ele>8.333333333333334</ele><time>2026-05-03T16:14:37.359Z</time></trkpt><trkpt lat="38.348698399999996" lon="16.4739194"><ele>7.666666666666667</ele><time>2026-05-03T16:14:38.283Z</time></trkpt><trkpt lat="38.348809499999994" lon="16.4740829"><ele>7.0</ele><time>2026-05-03T16:14:39.281Z</time></trkpt><trkpt lat="38.3489204" lon="16.4742459"><ele>7.666666666666667</ele><time>2026-05-03T16:14:40.294Z</time></trkpt><trkpt lat="38.3490305" lon="16.4744059"><ele>8.333333333333334</ele><time>2026-05-03T16:14:41.294Z</time></trkpt><trkpt lat="38.3491411" lon="16.4745648"><ele>9.0</ele><time>2026-05-03T16:14:42.282Z</time></trkpt><trkpt lat="38.3492518" lon="16.4747248"><ele>9.0</ele><time>2026-05-03T16:14:43.288Z</time></trkpt><trkpt lat="38.3493631" lon="16.4748858"><ele>9.0</ele><time>2026-05-03T16:14:44.312Z</time></trkpt><trkpt lat="38.349473499999995" lon="16.4750455"><ele>9.0</ele><time>2026-05-03T16:14:45.281Z</time></trkpt><trkpt lat="38.349584899999996" lon="16.4752077"><ele>9.0</ele><time>2026-05-03T16:14:46.294Z</time></trkpt><trkpt lat="38.349696800000004" lon="16.475372"><ele>9.0</ele><time>2026-05-03T16:14:47.292Z</time></trkpt><trkpt lat="38.349809199999996" lon="16.475535500000003"><ele>9.0</ele><time>2026-05-03T16:14:48.279Z</time></trkpt><trkpt lat="38.34992489999999" lon="16.4757011"><ele>8.333333333333334</ele><time>2026-05-03T16:14:49.305Z</time></trkpt><trkpt lat="38.3500406" lon="16.4758666"><ele>7.666666666666667</ele><time>2026-05-03T16:14:50.364Z</time></trkpt><trkpt lat="38.3501584" lon="16.476034799999997"><ele>7.0</ele><time>2026-05-03T16:14:51.297Z</time></trkpt><trkpt lat="38.3502777" lon="16.4762069"><ele>6.666666666666667</ele><time>2026-05-03T16:14:52.309Z</time></trkpt><trkpt lat="38.3503952" lon="16.4763783"><ele>6.333333333333334</ele><time>2026-05-03T16:14:53.285Z</time></trkpt><trkpt lat="38.3505147" lon="16.476552800000004"><ele>6.0</ele><time>2026-05-03T16:14:54.32Z</time></trkpt><trkpt lat="38.3506347" lon="16.476728500000004"><ele>6.666666666666666</ele><time>2026-05-03T16:14:55.381Z</time></trkpt><trkpt lat="38.350756" lon="16.4769045"><ele>7.333333333333333</ele><time>2026-05-03T16:14:56.282Z</time></trkpt><trkpt lat="38.3508778" lon="16.4770807"><ele>8.0</ele><time>2026-05-03T16:14:57.327Z</time></trkpt><trkpt lat="38.35100070000001" lon="16.4772577"><ele>8.0</ele><time>2026-05-03T16:14:58.281Z</time></trkpt><trkpt lat="38.3511248" lon="16.477436"><ele>8.0</ele><time>2026-05-03T16:14:59.283Z</time></trkpt><trkpt lat="38.351248600000005" lon="16.477613"><ele>8.0</ele><time>2026-05-03T16:15:00.281Z</time></trkpt><trkpt lat="38.3513745" lon="16.4777921"><ele>8.0</ele><time>2026-05-03T16:15:01.286Z</time></trkpt><trkpt lat="38.3515001" lon="16.477970799999998"><ele>8.0</ele><time>2026-05-03T16:15:02.345Z</time></trkpt><trkpt lat="38.351625500000004" lon="16.4781496"><ele>8.0</ele><time>2026-05-03T16:15:03.281Z</time></trkpt><trkpt lat="38.35175220000001" lon="16.4783309"><ele>8.0</ele><time>2026-05-03T16:15:04.29Z</time></trkpt><trkpt lat="38.3518791" lon="16.4785151"><ele>8.0</ele><time>2026-05-03T16:15:05.315Z</time></trkpt><trkpt lat="38.3520057" lon="16.4787007"><ele>8.0</ele><time>2026-05-03T16:15:06.281Z</time></trkpt><trkpt lat="38.3521326" lon="16.4788892"><ele>8.0</ele><time>2026-05-03T16:15:07.345Z</time></trkpt><trkpt lat="38.352261799999994" lon="16.4790784"><ele>8.0</ele><time>2026-05-03T16:15:08.282Z</time></trkpt><trkpt lat="38.3523933" lon="16.4792663"><ele>8.0</ele><time>2026-05-03T16:15:09.287Z</time></trkpt><trkpt lat="38.3525266" lon="16.479455"><ele>8.333333333333332</ele><time>2026-05-03T16:15:10.332Z</time></trkpt><trkpt lat="38.3526598" lon="16.4796452"><ele>8.666666666666666</ele><time>2026-05-03T16:15:11.307Z</time></trkpt><trkpt lat="38.3527933" lon="16.4798375"><ele>9.0</ele><time>2026-05-03T16:15:12.354Z</time></trkpt><trkpt lat="38.352926800000006" lon="16.4800313"><ele>9.0</ele><time>2026-05-03T16:15:13.284Z</time></trkpt><trkpt lat="38.3530614" lon="16.480227100000004"><ele>9.0</ele><time>2026-05-03T16:15:14.279Z</time></trkpt><trkpt lat="38.3531964" lon="16.480424199999998"><ele>9.0</ele><time>2026-05-03T16:15:15.334Z</time></trkpt><trkpt lat="38.353331499999996" lon="16.480621"><ele>8.666666666666666</ele><time>2026-05-03T16:15:16.283Z</time></trkpt><trkpt lat="38.353467" lon="16.480818600000003"><ele>8.333333333333332</ele><time>2026-05-03T16:15:17.295Z</time></trkpt><trkpt lat="38.35360229999999" lon="16.4810162"><ele>8.0</ele><time>2026-05-03T16:15:18.282Z</time></trkpt><trkpt lat="38.35373729999999" lon="16.481213800000003"><ele>8.666666666666666</ele><time>2026-05-03T16:15:19.284Z</time></trkpt><trkpt lat="38.3538731" lon="16.481410699999998"><ele>9.333333333333334</ele><time>2026-05-03T16:15:20.367Z</time></trkpt><trkpt lat="38.3540102" lon="16.4816057"><ele>10.0</ele><time>2026-05-03T16:15:21.289Z</time></trkpt><trkpt lat="38.3541493" lon="16.4817982"><ele>10.0</ele><time>2026-05-03T16:15:22.313Z</time></trkpt><trkpt lat="38.3542897" lon="16.4819895"><ele>10.0</ele><time>2026-05-03T16:15:23.284Z</time></trkpt><trkpt lat="38.3544316" lon="16.482179000000002"><ele>10.0</ele><time>2026-05-03T16:15:24.281Z</time></trkpt><trkpt lat="38.354562247236856" lon="16.482382144222168"><ele>10.333333333333334</ele><time>2026-05-03T16:15:25.385Z</time></trkpt><trkpt lat="38.354718500000004" lon="16.4825538"><ele>10.666666666666666</ele><time>2026-05-03T16:15:26.295Z</time></trkpt><trkpt lat="38.35486220000001" lon="16.482740200000002"><ele>11.0</ele><time>2026-05-03T16:15:27.328Z</time></trkpt><trkpt lat="38.355004599999994" lon="16.4829277"><ele>10.333333333333332</ele><time>2026-05-03T16:15:28.281Z</time></trkpt><trkpt lat="38.3551439" lon="16.4831138"><ele>9.666666666666666</ele><time>2026-05-03T16:15:29.285Z</time></trkpt><trkpt lat="38.3552825" lon="16.4833015"><ele>9.0</ele><time>2026-05-03T16:15:30.3Z</time></trkpt><trkpt lat="38.355415799999996" lon="16.4834894"><ele>9.333333333333334</ele><time>2026-05-03T16:15:31.291Z</time></trkpt><trkpt lat="38.355546" lon="16.4836769"><ele>9.666666666666668</ele><time>2026-05-03T16:15:32.294Z</time></trkpt><trkpt lat="38.3556749" lon="16.4838615"><ele>10.0</ele><time>2026-05-03T16:15:33.279Z</time></trkpt><trkpt lat="38.355801899999996" lon="16.484042600000002"><ele>9.333333333333334</ele><time>2026-05-03T16:15:34.281Z</time></trkpt><trkpt lat="38.355927199999996" lon="16.484221899999998"><ele>8.666666666666666</ele><time>2026-05-03T16:15:35.317Z</time></trkpt><trkpt lat="38.3560496" lon="16.484396599999997"><ele>8.0</ele><time>2026-05-03T16:15:36.281Z</time></trkpt><trkpt lat="38.3561691" lon="16.4845685"><ele>8.0</ele><time>2026-05-03T16:15:37.296Z</time></trkpt><trkpt lat="38.356283999999995" lon="16.4847343"><ele>8.0</ele><time>2026-05-03T16:15:38.39Z</time></trkpt><trkpt lat="38.3563957" lon="16.4848945"><ele>8.0</ele><time>2026-05-03T16:15:39.301Z</time></trkpt><trkpt lat="38.35650019999999" lon="16.485045099999997"><ele>8.5</ele><time>2026-05-03T16:15:40.335Z</time></trkpt><trkpt lat="38.356599100000004" lon="16.4851872"><ele>9.0</ele><time>2026-05-03T16:15:41.292Z</time></trkpt><trkpt lat="38.356689100000004" lon="16.4853164"><ele>9.5</ele><time>2026-05-03T16:15:42.322Z</time></trkpt><trkpt lat="38.356770299999994" lon="16.485431600000002"><ele>10.0</ele><time>2026-05-03T16:15:43.305Z</time></trkpt><trkpt lat="38.3568389" lon="16.4855278"><ele>10.0</ele><time>2026-05-03T16:15:44.284Z</time></trkpt><trkpt lat="38.3568967" lon="16.485607899999998"><ele>10.0</ele><time>2026-05-03T16:15:45.278Z</time></trkpt><trkpt lat="38.3569455" lon="16.4856747"><ele>10.0</ele><time>2026-05-03T16:15:46.291Z</time></trkpt><trkpt lat="38.35697723285491" lon="16.485748966823806"><ele>10.0</ele><time>2026-05-03T16:15:47.292Z</time></trkpt><trkpt lat="38.3570597612615" lon="16.485868592251816"><ele>10.0</ele><time>2026-05-03T16:15:49.284Z</time></trkpt><trkpt lat="38.357130745690384" lon="16.48597176098304"><ele>10.0</ele><time>2026-05-03T16:15:51.279Z</time></trkpt><trkpt lat="38.35724981878585" lon="16.485861628561587"><ele>10.0</ele><time>2026-05-03T16:15:52.297Z</time></trkpt><trkpt lat="38.35731165414275" lon="16.485828546789516"><ele>10.0</ele><time>2026-05-03T16:15:53.282Z</time></trkpt><trkpt lat="38.3573722" lon="16.4858037"><ele>10.0</ele><time>2026-05-03T16:15:54.281Z</time></trkpt><trkpt lat="38.3574241" lon="16.4857521"><ele>10.0</ele><time>2026-05-03T16:15:55.285Z</time></trkpt><trkpt lat="38.3574829" lon="16.485706999999998"><ele>10.0</ele><time>2026-05-03T16:15:56.286Z</time></trkpt><trkpt lat="38.3575505" lon="16.4856775"><ele>10.0</ele><time>2026-05-03T16:15:57.289Z</time></trkpt><trkpt lat="38.3576281" lon="16.4856595"><ele>10.0</ele><time>2026-05-03T16:15:58.29Z</time></trkpt><trkpt lat="38.3577138" lon="16.4856508"><ele>10.0</ele><time>2026-05-03T16:15:59.283Z</time></trkpt><trkpt lat="38.3578097" lon="16.485646999999997"><ele>10.0</ele><time>2026-05-03T16:16:00.28Z</time></trkpt><trkpt lat="38.35791160000001" lon="16.4856424"><ele>10.0</ele><time>2026-05-03T16:16:01.291Z</time></trkpt><trkpt lat="38.358023" lon="16.485634100000002"><ele>10.75</ele><time>2026-05-03T16:16:02.286Z</time></trkpt><trkpt lat="38.358139" lon="16.4856236"><ele>11.5</ele><time>2026-05-03T16:16:03.299Z</time></trkpt><trkpt lat="38.3582588" lon="16.4856107"><ele>12.25</ele><time>2026-05-03T16:16:04.279Z</time></trkpt><trkpt lat="38.3583826" lon="16.485597700000003"><ele>13.0</ele><time>2026-05-03T16:16:05.321Z</time></trkpt><trkpt lat="38.3585092813753" lon="16.485608799249892"><ele>13.0</ele><time>2026-05-03T16:16:06.29Z</time></trkpt><trkpt lat="38.35863638908521" lon="16.485599570509848"><ele>13.0</ele><time>2026-05-03T16:16:07.285Z</time></trkpt><trkpt lat="38.35876405894683" lon="16.48559030104722"><ele>13.0</ele><time>2026-05-03T16:16:08.294Z</time></trkpt><trkpt lat="38.358894299999996" lon="16.485560300000003"><ele>13.0</ele><time>2026-05-03T16:16:09.284Z</time></trkpt><trkpt lat="38.3590273" lon="16.4855522"><ele>13.5</ele><time>2026-05-03T16:16:10.28Z</time></trkpt><trkpt lat="38.359164099999994" lon="16.485543"><ele>14.0</ele><time>2026-05-03T16:16:11.291Z</time></trkpt><trkpt lat="38.359303" lon="16.4855326"><ele>14.5</ele><time>2026-05-03T16:16:12.289Z</time></trkpt><trkpt lat="38.359442900000005" lon="16.4855204"><ele>15.0</ele><time>2026-05-03T16:16:13.307Z</time></trkpt><trkpt lat="38.359582" lon="16.4855089"><ele>15.0</ele><time>2026-05-03T16:16:14.285Z</time></trkpt><trkpt lat="38.3597223" lon="16.4854975"><ele>15.0</ele><time>2026-05-03T16:16:15.283Z</time></trkpt><trkpt lat="38.3598637" lon="16.485486299999998"><ele>15.0</ele><time>2026-05-03T16:16:16.289Z</time></trkpt><trkpt lat="38.3600097" lon="16.485474099999998"><ele>15.0</ele><time>2026-05-03T16:16:17.282Z</time></trkpt><trkpt lat="38.360153700000005" lon="16.4854634"><ele>15.0</ele><time>2026-05-03T16:16:18.283Z</time></trkpt><trkpt lat="38.3603022" lon="16.4854537"><ele>15.0</ele><time>2026-05-03T16:16:19.282Z</time></trkpt><trkpt lat="38.360451499999996" lon="16.4854436"><ele>15.0</ele><time>2026-05-03T16:16:20.315Z</time></trkpt><trkpt lat="38.36060019999999" lon="16.4854331"><ele>15.0</ele><time>2026-05-03T16:16:21.282Z</time></trkpt><trkpt lat="38.3607487" lon="16.485422200000002"><ele>16.25</ele><time>2026-05-03T16:16:22.281Z</time></trkpt><trkpt lat="38.360895199999995" lon="16.485411"><ele>17.5</ele><time>2026-05-03T16:16:23.343Z</time></trkpt><trkpt lat="38.36104219999999" lon="16.4853983"><ele>18.75</ele><time>2026-05-03T16:16:24.28Z</time></trkpt><trkpt lat="38.3611872" lon="16.485385799999996"><ele>20.0</ele><time>2026-05-03T16:16:25.289Z</time></trkpt><trkpt lat="38.3613329" lon="16.485374699999998"><ele>19.5</ele><time>2026-05-03T16:16:26.312Z</time></trkpt><trkpt lat="38.361474300000005" lon="16.485364699999998"><ele>19.0</ele><time>2026-05-03T16:16:27.29Z</time></trkpt><trkpt lat="38.3616144" lon="16.4853563"><ele>18.5</ele><time>2026-05-03T16:16:28.363Z</time></trkpt><trkpt lat="38.36175050000001" lon="16.4853485"><ele>18.0</ele><time>2026-05-03T16:16:29.282Z</time></trkpt><trkpt lat="38.361881700000005" lon="16.4853403"><ele>18.0</ele><time>2026-05-03T16:16:30.306Z</time></trkpt><trkpt lat="38.3620084" lon="16.4853299"><ele>18.0</ele><time>2026-05-03T16:16:31.33Z</time></trkpt><trkpt lat="38.3621253" lon="16.485314100000004"><ele>18.0</ele><time>2026-05-03T16:16:32.282Z</time></trkpt><trkpt lat="38.3622355" lon="16.4852925"><ele>18.0</ele><time>2026-05-03T16:16:33.367Z</time></trkpt><trkpt lat="38.3623344" lon="16.4852704"><ele>18.142857142857146</ele><time>2026-05-03T16:16:34.309Z</time></trkpt><trkpt lat="38.3624252" lon="16.4852506"><ele>18.285714285714285</ele><time>2026-05-03T16:16:35.299Z</time></trkpt><trkpt lat="38.3625017" lon="16.485234"><ele>18.42857142857143</ele><time>2026-05-03T16:16:36.278Z</time></trkpt><trkpt lat="38.36256529999999" lon="16.4852213"><ele>18.571428571428573</ele><time>2026-05-03T16:16:37.288Z</time></trkpt><trkpt lat="38.3626439" lon="16.4852363"><ele>18.714285714285715</ele><time>2026-05-03T16:16:39.282Z</time></trkpt><trkpt lat="38.362620040552166" lon="16.48531780930133"><ele>18.857142857142858</ele><time>2026-05-03T16:16:43.311Z</time></trkpt><trkpt lat="38.36262991377889" lon="16.48539943988837"><ele>19.0</ele><time>2026-05-03T16:16:47.294Z</time></trkpt><trkpt lat="38.36264053120657" lon="16.485518125412888"><ele>15.0</ele><time>2026-05-03T16:16:50.293Z</time></trkpt><trkpt lat="38.362643733865724" lon="16.485615199999998"><ele>15.0</ele><time>2026-05-03T16:16:52.351Z</time></trkpt><trkpt lat="38.36263941246097" lon="16.485704418934258"><ele>15.0</ele><time>2026-05-03T16:16:55.281Z</time></trkpt><trkpt lat="38.3626317230385" lon="16.485788545142576"><ele>15.0</ele><time>2026-05-03T16:17:05.286Z</time></trkpt><trkpt lat="38.36284921402076" lon="16.485700146591906"><ele>15.0</ele><time>2026-05-03T16:18:00.839Z</time></trkpt></trkseg></trk></gpx>